<?xml version="1.0" encoding="UTF-8" standalone="no" ?>
<gpx xmlns="http://www.topografix.com/GPX/1/1" xmlns:xsi="http://www.w3.org/2001/XMLSchema-instance" xsi:schemaLocation="http://www.topografix.com/GPX/1/1 http://www.topografix.com/GPX/1/1/gpx.xsd" version="1.1" creator="VisuGPX - https://www.visugpx.com">
  <metadata>
    <name>Snowkite - Col du Petit Saint Bernard - 06 mai 2016</name>
    <desc><![CDATA[Session de ski de randonnée   snowkite au col du Petit Saint Bernard.
Vent fort au début (vent de Nord issu de foehn de Sud), kité en 7m. Puis baisse jusqu'à 0 noeuds.]]></desc>
  </metadata>
  <trk>
    <name><![CDATA[2016-05-06-01]]></name>
    <trkseg>
      <trkpt lat="45.6267" lon="6.86697">
        <ele>1851.3</ele>
        <time>2016-05-06T08:37:56Z</time>
      </trkpt>
      <trkpt lat="45.6267" lon="6.86697">
        <ele>1851</ele>
        <time>2016-05-06T08:37:56Z</time>
      </trkpt>
      <trkpt lat="45.62669" lon="6.86697">
        <ele>1851</ele>
        <time>2016-05-06T08:38:00Z</time>
      </trkpt>
      <trkpt lat="45.62669" lon="6.86698">
        <ele>1851</ele>
        <time>2016-05-06T08:38:04Z</time>
      </trkpt>
      <trkpt lat="45.62669" lon="6.86697">
        <ele>1850</ele>
        <time>2016-05-06T08:38:08Z</time>
      </trkpt>
      <trkpt lat="45.62669" lon="6.86695">
        <ele>1849</ele>
        <time>2016-05-06T08:38:12Z</time>
      </trkpt>
      <trkpt lat="45.62671" lon="6.86688">
        <ele>1850</ele>
        <time>2016-05-06T08:38:16Z</time>
      </trkpt>
      <trkpt lat="45.62672" lon="6.86685">
        <ele>1851</ele>
        <time>2016-05-06T08:38:20Z</time>
      </trkpt>
      <trkpt lat="45.62673" lon="6.86683">
        <ele>1851</ele>
        <time>2016-05-06T08:38:24Z</time>
      </trkpt>
      <trkpt lat="45.62673" lon="6.86682">
        <ele>1851</ele>
        <time>2016-05-06T08:38:28Z</time>
      </trkpt>
      <trkpt lat="45.62671" lon="6.86684">
        <ele>1851</ele>
        <time>2016-05-06T08:38:32Z</time>
      </trkpt>
      <trkpt lat="45.62668" lon="6.86687">
        <ele>1851.1</ele>
        <time>2016-05-06T08:38:35Z</time>
      </trkpt>
      <trkpt lat="45.62668" lon="6.86688">
        <ele>1850.9</ele>
        <time>2016-05-06T08:38:37Z</time>
      </trkpt>
      <trkpt lat="45.62668" lon="6.86688">
        <ele>1850.8</ele>
        <time>2016-05-06T08:38:39Z</time>
      </trkpt>
      <trkpt lat="45.62668" lon="6.86689">
        <ele>1850.8</ele>
        <time>2016-05-06T08:38:41Z</time>
      </trkpt>
      <trkpt lat="45.62668" lon="6.86689">
        <ele>1850.9</ele>
        <time>2016-05-06T08:38:43Z</time>
      </trkpt>
      <trkpt lat="45.62668" lon="6.86689">
        <ele>1851.2</ele>
        <time>2016-05-06T08:38:45Z</time>
      </trkpt>
      <trkpt lat="45.62668" lon="6.86689">
        <ele>1851.7</ele>
        <time>2016-05-06T08:38:47Z</time>
      </trkpt>
      <trkpt lat="45.62668" lon="6.8669">
        <ele>1851.5</ele>
        <time>2016-05-06T08:38:49Z</time>
      </trkpt>
      <trkpt lat="45.62668" lon="6.8669">
        <ele>1851</ele>
        <time>2016-05-06T08:38:51Z</time>
      </trkpt>
      <trkpt lat="45.62668" lon="6.86689">
        <ele>1850.7</ele>
        <time>2016-05-06T08:38:53Z</time>
      </trkpt>
      <trkpt lat="45.62668" lon="6.86689">
        <ele>1850.7</ele>
        <time>2016-05-06T08:38:55Z</time>
      </trkpt>
      <trkpt lat="45.62668" lon="6.8669">
        <ele>1850.8</ele>
        <time>2016-05-06T08:38:57Z</time>
      </trkpt>
      <trkpt lat="45.62668" lon="6.8669">
        <ele>1850.7</ele>
        <time>2016-05-06T08:38:59Z</time>
      </trkpt>
      <trkpt lat="45.62668" lon="6.8669">
        <ele>1850.6</ele>
        <time>2016-05-06T08:39:01Z</time>
      </trkpt>
      <trkpt lat="45.62667" lon="6.8669">
        <ele>1850.6</ele>
        <time>2016-05-06T08:39:03Z</time>
      </trkpt>
      <trkpt lat="45.62667" lon="6.8669">
        <ele>1850.6</ele>
        <time>2016-05-06T08:39:05Z</time>
      </trkpt>
      <trkpt lat="45.62667" lon="6.8669">
        <ele>1850.5</ele>
        <time>2016-05-06T08:39:07Z</time>
      </trkpt>
      <trkpt lat="45.62667" lon="6.86689">
        <ele>1850.2</ele>
        <time>2016-05-06T08:39:09Z</time>
      </trkpt>
      <trkpt lat="45.62667" lon="6.86689">
        <ele>1850</ele>
        <time>2016-05-06T08:39:11Z</time>
      </trkpt>
      <trkpt lat="45.62667" lon="6.86689">
        <ele>1850.1</ele>
        <time>2016-05-06T08:39:13Z</time>
      </trkpt>
      <trkpt lat="45.62667" lon="6.86689">
        <ele>1850.1</ele>
        <time>2016-05-06T08:39:15Z</time>
      </trkpt>
      <trkpt lat="45.62667" lon="6.86689">
        <ele>1850.1</ele>
        <time>2016-05-06T08:39:17Z</time>
      </trkpt>
      <trkpt lat="45.62667" lon="6.86689">
        <ele>1850.2</ele>
        <time>2016-05-06T08:39:19Z</time>
      </trkpt>
      <trkpt lat="45.62667" lon="6.86689">
        <ele>1850.2</ele>
        <time>2016-05-06T08:39:21Z</time>
      </trkpt>
      <trkpt lat="45.62667" lon="6.86689">
        <ele>1850.4</ele>
        <time>2016-05-06T08:39:23Z</time>
      </trkpt>
      <trkpt lat="45.62667" lon="6.86689">
        <ele>1850.3</ele>
        <time>2016-05-06T08:39:25Z</time>
      </trkpt>
      <trkpt lat="45.62667" lon="6.86689">
        <ele>1850.2</ele>
        <time>2016-05-06T08:39:27Z</time>
      </trkpt>
      <trkpt lat="45.62667" lon="6.86689">
        <ele>1850.3</ele>
        <time>2016-05-06T08:39:29Z</time>
      </trkpt>
      <trkpt lat="45.62667" lon="6.86689">
        <ele>1850.2</ele>
        <time>2016-05-06T08:39:31Z</time>
      </trkpt>
      <trkpt lat="45.62667" lon="6.86689">
        <ele>1850.2</ele>
        <time>2016-05-06T08:39:33Z</time>
      </trkpt>
      <trkpt lat="45.62667" lon="6.8669">
        <ele>1850.3</ele>
        <time>2016-05-06T08:39:35Z</time>
      </trkpt>
      <trkpt lat="45.62668" lon="6.8669">
        <ele>1850.4</ele>
        <time>2016-05-06T08:39:37Z</time>
      </trkpt>
      <trkpt lat="45.62668" lon="6.8669">
        <ele>1850.4</ele>
        <time>2016-05-06T08:39:39Z</time>
      </trkpt>
      <trkpt lat="45.62668" lon="6.8669">
        <ele>1850.2</ele>
        <time>2016-05-06T08:39:41Z</time>
      </trkpt>
      <trkpt lat="45.62668" lon="6.8669">
        <ele>1849.9</ele>
        <time>2016-05-06T08:39:43Z</time>
      </trkpt>
      <trkpt lat="45.62668" lon="6.8669">
        <ele>1849.8</ele>
        <time>2016-05-06T08:39:45Z</time>
      </trkpt>
      <trkpt lat="45.62668" lon="6.8669">
        <ele>1849.8</ele>
        <time>2016-05-06T08:39:47Z</time>
      </trkpt>
      <trkpt lat="45.62668" lon="6.8669">
        <ele>1849.8</ele>
        <time>2016-05-06T08:39:49Z</time>
      </trkpt>
      <trkpt lat="45.62668" lon="6.8669">
        <ele>1849.9</ele>
        <time>2016-05-06T08:39:51Z</time>
      </trkpt>
      <trkpt lat="45.62668" lon="6.86691">
        <ele>1850.1</ele>
        <time>2016-05-06T08:39:53Z</time>
      </trkpt>
      <trkpt lat="45.62668" lon="6.86691">
        <ele>1850.3</ele>
        <time>2016-05-06T08:39:55Z</time>
      </trkpt>
      <trkpt lat="45.62668" lon="6.86691">
        <ele>1850.4</ele>
        <time>2016-05-06T08:39:57Z</time>
      </trkpt>
      <trkpt lat="45.62668" lon="6.86692">
        <ele>1850.1</ele>
        <time>2016-05-06T08:39:59Z</time>
      </trkpt>
      <trkpt lat="45.62668" lon="6.86692">
        <ele>1849.9</ele>
        <time>2016-05-06T08:40:01Z</time>
      </trkpt>
      <trkpt lat="45.62668" lon="6.86693">
        <ele>1849.7</ele>
        <time>2016-05-06T08:40:03Z</time>
      </trkpt>
      <trkpt lat="45.62668" lon="6.86693">
        <ele>1849.6</ele>
        <time>2016-05-06T08:40:05Z</time>
      </trkpt>
      <trkpt lat="45.62668" lon="6.86692">
        <ele>1849.7</ele>
        <time>2016-05-06T08:40:07Z</time>
      </trkpt>
      <trkpt lat="45.62668" lon="6.86693">
        <ele>1849.6</ele>
        <time>2016-05-06T08:40:09Z</time>
      </trkpt>
      <trkpt lat="45.62669" lon="6.86695">
        <ele>1849.9</ele>
        <time>2016-05-06T08:40:11Z</time>
      </trkpt>
      <trkpt lat="45.62669" lon="6.86696">
        <ele>1849.7</ele>
        <time>2016-05-06T08:40:13Z</time>
      </trkpt>
      <trkpt lat="45.62669" lon="6.86697">
        <ele>1849.8</ele>
        <time>2016-05-06T08:40:15Z</time>
      </trkpt>
      <trkpt lat="45.62669" lon="6.86697">
        <ele>1850.1</ele>
        <time>2016-05-06T08:40:17Z</time>
      </trkpt>
      <trkpt lat="45.62669" lon="6.86697">
        <ele>1850.2</ele>
        <time>2016-05-06T08:40:19Z</time>
      </trkpt>
      <trkpt lat="45.62669" lon="6.86697">
        <ele>1850.3</ele>
        <time>2016-05-06T08:40:21Z</time>
      </trkpt>
      <trkpt lat="45.6267" lon="6.86697">
        <ele>1850.2</ele>
        <time>2016-05-06T08:40:23Z</time>
      </trkpt>
      <trkpt lat="45.6267" lon="6.86697">
        <ele>1850</ele>
        <time>2016-05-06T08:40:25Z</time>
      </trkpt>
      <trkpt lat="45.62669" lon="6.86698">
        <ele>1850</ele>
        <time>2016-05-06T08:40:27Z</time>
      </trkpt>
      <trkpt lat="45.62671" lon="6.86699">
        <ele>1850.1</ele>
        <time>2016-05-06T08:40:29Z</time>
      </trkpt>
      <trkpt lat="45.62672" lon="6.86699">
        <ele>1850.1</ele>
        <time>2016-05-06T08:40:31Z</time>
      </trkpt>
      <trkpt lat="45.62672" lon="6.86699">
        <ele>1850.2</ele>
        <time>2016-05-06T08:40:33Z</time>
      </trkpt>
      <trkpt lat="45.62671" lon="6.867">
        <ele>1850.2</ele>
        <time>2016-05-06T08:40:35Z</time>
      </trkpt>
      <trkpt lat="45.62671" lon="6.867">
        <ele>1850.3</ele>
        <time>2016-05-06T08:40:37Z</time>
      </trkpt>
      <trkpt lat="45.62671" lon="6.867">
        <ele>1850.3</ele>
        <time>2016-05-06T08:40:39Z</time>
      </trkpt>
      <trkpt lat="45.62671" lon="6.867">
        <ele>1850.2</ele>
        <time>2016-05-06T08:40:41Z</time>
      </trkpt>
      <trkpt lat="45.62671" lon="6.867">
        <ele>1850</ele>
        <time>2016-05-06T08:40:43Z</time>
      </trkpt>
      <trkpt lat="45.62671" lon="6.867">
        <ele>1850.1</ele>
        <time>2016-05-06T08:40:45Z</time>
      </trkpt>
      <trkpt lat="45.62671" lon="6.86699">
        <ele>1850.2</ele>
        <time>2016-05-06T08:40:47Z</time>
      </trkpt>
      <trkpt lat="45.62671" lon="6.867">
        <ele>1850.3</ele>
        <time>2016-05-06T08:40:49Z</time>
      </trkpt>
      <trkpt lat="45.62671" lon="6.867">
        <ele>1850.3</ele>
        <time>2016-05-06T08:40:51Z</time>
      </trkpt>
      <trkpt lat="45.62671" lon="6.867">
        <ele>1850.5</ele>
        <time>2016-05-06T08:40:53Z</time>
      </trkpt>
      <trkpt lat="45.62671" lon="6.867">
        <ele>1850.6</ele>
        <time>2016-05-06T08:40:55Z</time>
      </trkpt>
      <trkpt lat="45.62671" lon="6.867">
        <ele>1851</ele>
        <time>2016-05-06T08:40:57Z</time>
      </trkpt>
      <trkpt lat="45.62671" lon="6.86701">
        <ele>1851.1</ele>
        <time>2016-05-06T08:40:59Z</time>
      </trkpt>
      <trkpt lat="45.6267" lon="6.86701">
        <ele>1851.3</ele>
        <time>2016-05-06T08:41:01Z</time>
      </trkpt>
      <trkpt lat="45.6267" lon="6.86701">
        <ele>1851.4</ele>
        <time>2016-05-06T08:41:03Z</time>
      </trkpt>
      <trkpt lat="45.6267" lon="6.86701">
        <ele>1851.5</ele>
        <time>2016-05-06T08:41:05Z</time>
      </trkpt>
      <trkpt lat="45.6267" lon="6.86701">
        <ele>1851.3</ele>
        <time>2016-05-06T08:41:07Z</time>
      </trkpt>
      <trkpt lat="45.62671" lon="6.86701">
        <ele>1851</ele>
        <time>2016-05-06T08:41:09Z</time>
      </trkpt>
      <trkpt lat="45.62671" lon="6.86701">
        <ele>1850.9</ele>
        <time>2016-05-06T08:41:11Z</time>
      </trkpt>
      <trkpt lat="45.62671" lon="6.86701">
        <ele>1850.9</ele>
        <time>2016-05-06T08:41:13Z</time>
      </trkpt>
      <trkpt lat="45.62671" lon="6.86701">
        <ele>1850.8</ele>
        <time>2016-05-06T08:41:15Z</time>
      </trkpt>
      <trkpt lat="45.6267" lon="6.86701">
        <ele>1850.7</ele>
        <time>2016-05-06T08:41:17Z</time>
      </trkpt>
      <trkpt lat="45.6267" lon="6.86701">
        <ele>1850.4</ele>
        <time>2016-05-06T08:41:19Z</time>
      </trkpt>
      <trkpt lat="45.6267" lon="6.867">
        <ele>1850.3</ele>
        <time>2016-05-06T08:41:21Z</time>
      </trkpt>
      <trkpt lat="45.6267" lon="6.867">
        <ele>1850.2</ele>
        <time>2016-05-06T08:41:23Z</time>
      </trkpt>
      <trkpt lat="45.6267" lon="6.867">
        <ele>1850.2</ele>
        <time>2016-05-06T08:41:25Z</time>
      </trkpt>
      <trkpt lat="45.6267" lon="6.867">
        <ele>1850.2</ele>
        <time>2016-05-06T08:41:27Z</time>
      </trkpt>
      <trkpt lat="45.6267" lon="6.86701">
        <ele>1850.3</ele>
        <time>2016-05-06T08:41:29Z</time>
      </trkpt>
      <trkpt lat="45.6267" lon="6.86701">
        <ele>1850.6</ele>
        <time>2016-05-06T08:41:31Z</time>
      </trkpt>
      <trkpt lat="45.62669" lon="6.86701">
        <ele>1850.7</ele>
        <time>2016-05-06T08:41:33Z</time>
      </trkpt>
      <trkpt lat="45.6267" lon="6.86701">
        <ele>1850.7</ele>
        <time>2016-05-06T08:41:35Z</time>
      </trkpt>
      <trkpt lat="45.6267" lon="6.86701">
        <ele>1850.4</ele>
        <time>2016-05-06T08:41:37Z</time>
      </trkpt>
      <trkpt lat="45.6267" lon="6.86701">
        <ele>1849.9</ele>
        <time>2016-05-06T08:41:39Z</time>
      </trkpt>
      <trkpt lat="45.6267" lon="6.86701">
        <ele>1850</ele>
        <time>2016-05-06T08:41:41Z</time>
      </trkpt>
      <trkpt lat="45.6267" lon="6.86701">
        <ele>1850.1</ele>
        <time>2016-05-06T08:41:43Z</time>
      </trkpt>
      <trkpt lat="45.6267" lon="6.86701">
        <ele>1850</ele>
        <time>2016-05-06T08:41:45Z</time>
      </trkpt>
      <trkpt lat="45.62669" lon="6.86701">
        <ele>1850</ele>
        <time>2016-05-06T08:41:47Z</time>
      </trkpt>
      <trkpt lat="45.62668" lon="6.86701">
        <ele>1849.8</ele>
        <time>2016-05-06T08:41:49Z</time>
      </trkpt>
      <trkpt lat="45.62668" lon="6.867">
        <ele>1849.9</ele>
        <time>2016-05-06T08:41:51Z</time>
      </trkpt>
      <trkpt lat="45.62669" lon="6.867">
        <ele>1849.9</ele>
        <time>2016-05-06T08:41:53Z</time>
      </trkpt>
      <trkpt lat="45.62669" lon="6.867">
        <ele>1850</ele>
        <time>2016-05-06T08:41:55Z</time>
      </trkpt>
      <trkpt lat="45.62669" lon="6.867">
        <ele>1850.2</ele>
        <time>2016-05-06T08:41:57Z</time>
      </trkpt>
      <trkpt lat="45.62669" lon="6.867">
        <ele>1850.2</ele>
        <time>2016-05-06T08:41:59Z</time>
      </trkpt>
      <trkpt lat="45.62669" lon="6.867">
        <ele>1850.2</ele>
        <time>2016-05-06T08:42:01Z</time>
      </trkpt>
      <trkpt lat="45.62669" lon="6.867">
        <ele>1850.4</ele>
        <time>2016-05-06T08:42:03Z</time>
      </trkpt>
      <trkpt lat="45.62669" lon="6.867">
        <ele>1850.6</ele>
        <time>2016-05-06T08:42:05Z</time>
      </trkpt>
      <trkpt lat="45.62669" lon="6.867">
        <ele>1850.8</ele>
        <time>2016-05-06T08:42:07Z</time>
      </trkpt>
      <trkpt lat="45.62669" lon="6.86699">
        <ele>1850.8</ele>
        <time>2016-05-06T08:42:09Z</time>
      </trkpt>
      <trkpt lat="45.62669" lon="6.86699">
        <ele>1850.9</ele>
        <time>2016-05-06T08:42:11Z</time>
      </trkpt>
      <trkpt lat="45.62669" lon="6.86699">
        <ele>1851</ele>
        <time>2016-05-06T08:42:13Z</time>
      </trkpt>
      <trkpt lat="45.62668" lon="6.86696">
        <ele>1850.7</ele>
        <time>2016-05-06T08:42:15Z</time>
      </trkpt>
      <trkpt lat="45.62669" lon="6.86696">
        <ele>1850.3</ele>
        <time>2016-05-06T08:42:17Z</time>
      </trkpt>
      <trkpt lat="45.62668" lon="6.86696">
        <ele>1850.2</ele>
        <time>2016-05-06T08:42:19Z</time>
      </trkpt>
      <trkpt lat="45.62667" lon="6.86695">
        <ele>1850.4</ele>
        <time>2016-05-06T08:42:21Z</time>
      </trkpt>
      <trkpt lat="45.62668" lon="6.86693">
        <ele>1850.7</ele>
        <time>2016-05-06T08:42:23Z</time>
      </trkpt>
      <trkpt lat="45.62668" lon="6.86693">
        <ele>1850.6</ele>
        <time>2016-05-06T08:42:25Z</time>
      </trkpt>
      <trkpt lat="45.62668" lon="6.86694">
        <ele>1850.8</ele>
        <time>2016-05-06T08:42:27Z</time>
      </trkpt>
      <trkpt lat="45.62667" lon="6.86695">
        <ele>1850.3</ele>
        <time>2016-05-06T08:42:29Z</time>
      </trkpt>
      <trkpt lat="45.62667" lon="6.86695">
        <ele>1849.9</ele>
        <time>2016-05-06T08:42:31Z</time>
      </trkpt>
      <trkpt lat="45.62667" lon="6.86696">
        <ele>1849.8</ele>
        <time>2016-05-06T08:42:33Z</time>
      </trkpt>
      <trkpt lat="45.62668" lon="6.86697">
        <ele>1850</ele>
        <time>2016-05-06T08:42:35Z</time>
      </trkpt>
      <trkpt lat="45.62669" lon="6.86697">
        <ele>1849.4</ele>
        <time>2016-05-06T08:42:37Z</time>
      </trkpt>
      <trkpt lat="45.62668" lon="6.86697">
        <ele>1849.6</ele>
        <time>2016-05-06T08:42:39Z</time>
      </trkpt>
      <trkpt lat="45.62669" lon="6.86696">
        <ele>1849.9</ele>
        <time>2016-05-06T08:42:41Z</time>
      </trkpt>
      <trkpt lat="45.62668" lon="6.86697">
        <ele>1850.1</ele>
        <time>2016-05-06T08:42:43Z</time>
      </trkpt>
      <trkpt lat="45.62669" lon="6.86697">
        <ele>1850.2</ele>
        <time>2016-05-06T08:42:45Z</time>
      </trkpt>
      <trkpt lat="45.62669" lon="6.86697">
        <ele>1850.1</ele>
        <time>2016-05-06T08:42:47Z</time>
      </trkpt>
      <trkpt lat="45.62669" lon="6.86697">
        <ele>1850.3</ele>
        <time>2016-05-06T08:42:49Z</time>
      </trkpt>
      <trkpt lat="45.62669" lon="6.86697">
        <ele>1850.5</ele>
        <time>2016-05-06T08:42:51Z</time>
      </trkpt>
      <trkpt lat="45.62669" lon="6.86697">
        <ele>1851</ele>
        <time>2016-05-06T08:42:53Z</time>
      </trkpt>
      <trkpt lat="45.62669" lon="6.86697">
        <ele>1851</ele>
        <time>2016-05-06T08:42:55Z</time>
      </trkpt>
      <trkpt lat="45.62669" lon="6.86698">
        <ele>1851</ele>
        <time>2016-05-06T08:42:57Z</time>
      </trkpt>
      <trkpt lat="45.62669" lon="6.86698">
        <ele>1851.1</ele>
        <time>2016-05-06T08:42:59Z</time>
      </trkpt>
      <trkpt lat="45.62669" lon="6.86698">
        <ele>1851.1</ele>
        <time>2016-05-06T08:43:01Z</time>
      </trkpt>
      <trkpt lat="45.62669" lon="6.86698">
        <ele>1851.1</ele>
        <time>2016-05-06T08:43:03Z</time>
      </trkpt>
      <trkpt lat="45.6267" lon="6.86699">
        <ele>1851</ele>
        <time>2016-05-06T08:43:05Z</time>
      </trkpt>
      <trkpt lat="45.62669" lon="6.86699">
        <ele>1850.7</ele>
        <time>2016-05-06T08:43:07Z</time>
      </trkpt>
      <trkpt lat="45.62669" lon="6.86698">
        <ele>1850.6</ele>
        <time>2016-05-06T08:43:09Z</time>
      </trkpt>
      <trkpt lat="45.62669" lon="6.86698">
        <ele>1850.6</ele>
        <time>2016-05-06T08:43:11Z</time>
      </trkpt>
      <trkpt lat="45.6267" lon="6.86698">
        <ele>1850.5</ele>
        <time>2016-05-06T08:43:13Z</time>
      </trkpt>
      <trkpt lat="45.6267" lon="6.86698">
        <ele>1850.5</ele>
        <time>2016-05-06T08:43:15Z</time>
      </trkpt>
      <trkpt lat="45.6267" lon="6.86698">
        <ele>1850.5</ele>
        <time>2016-05-06T08:43:17Z</time>
      </trkpt>
      <trkpt lat="45.6267" lon="6.86698">
        <ele>1850.5</ele>
        <time>2016-05-06T08:43:19Z</time>
      </trkpt>
      <trkpt lat="45.6267" lon="6.86699">
        <ele>1850.5</ele>
        <time>2016-05-06T08:43:21Z</time>
      </trkpt>
      <trkpt lat="45.6267" lon="6.86699">
        <ele>1850.4</ele>
        <time>2016-05-06T08:43:23Z</time>
      </trkpt>
      <trkpt lat="45.62671" lon="6.86699">
        <ele>1850.4</ele>
        <time>2016-05-06T08:43:25Z</time>
      </trkpt>
      <trkpt lat="45.6267" lon="6.86699">
        <ele>1850.4</ele>
        <time>2016-05-06T08:43:27Z</time>
      </trkpt>
      <trkpt lat="45.6267" lon="6.86699">
        <ele>1850</ele>
        <time>2016-05-06T08:43:29Z</time>
      </trkpt>
      <trkpt lat="45.6267" lon="6.86699">
        <ele>1850.3</ele>
        <time>2016-05-06T08:43:31Z</time>
      </trkpt>
      <trkpt lat="45.6267" lon="6.86699">
        <ele>1850.6</ele>
        <time>2016-05-06T08:43:33Z</time>
      </trkpt>
      <trkpt lat="45.6267" lon="6.867">
        <ele>1850.7</ele>
        <time>2016-05-06T08:43:35Z</time>
      </trkpt>
      <trkpt lat="45.6267" lon="6.867">
        <ele>1850.6</ele>
        <time>2016-05-06T08:43:37Z</time>
      </trkpt>
      <trkpt lat="45.62669" lon="6.86699">
        <ele>1850.5</ele>
        <time>2016-05-06T08:43:39Z</time>
      </trkpt>
      <trkpt lat="45.62669" lon="6.86699">
        <ele>1850.9</ele>
        <time>2016-05-06T08:43:41Z</time>
      </trkpt>
      <trkpt lat="45.62669" lon="6.86698">
        <ele>1850.8</ele>
        <time>2016-05-06T08:43:43Z</time>
      </trkpt>
      <trkpt lat="45.62669" lon="6.86699">
        <ele>1850.7</ele>
        <time>2016-05-06T08:43:45Z</time>
      </trkpt>
      <trkpt lat="45.62669" lon="6.86699">
        <ele>1850.1</ele>
        <time>2016-05-06T08:43:47Z</time>
      </trkpt>
      <trkpt lat="45.62668" lon="6.86699">
        <ele>1849.4</ele>
        <time>2016-05-06T08:43:49Z</time>
      </trkpt>
      <trkpt lat="45.62668" lon="6.86699">
        <ele>1849.8</ele>
        <time>2016-05-06T08:43:51Z</time>
      </trkpt>
      <trkpt lat="45.62669" lon="6.86699">
        <ele>1849.5</ele>
        <time>2016-05-06T08:43:53Z</time>
      </trkpt>
      <trkpt lat="45.6267" lon="6.86699">
        <ele>1849.7</ele>
        <time>2016-05-06T08:43:55Z</time>
      </trkpt>
      <trkpt lat="45.6267" lon="6.86698">
        <ele>1849.8</ele>
        <time>2016-05-06T08:43:57Z</time>
      </trkpt>
      <trkpt lat="45.6267" lon="6.86698">
        <ele>1850.1</ele>
        <time>2016-05-06T08:43:59Z</time>
      </trkpt>
      <trkpt lat="45.6267" lon="6.86698">
        <ele>1850.4</ele>
        <time>2016-05-06T08:44:01Z</time>
      </trkpt>
      <trkpt lat="45.6267" lon="6.86698">
        <ele>1850.7</ele>
        <time>2016-05-06T08:44:03Z</time>
      </trkpt>
      <trkpt lat="45.6267" lon="6.86698">
        <ele>1850.8</ele>
        <time>2016-05-06T08:44:05Z</time>
      </trkpt>
      <trkpt lat="45.62669" lon="6.86698">
        <ele>1851.3</ele>
        <time>2016-05-06T08:44:07Z</time>
      </trkpt>
      <trkpt lat="45.62669" lon="6.86698">
        <ele>1851.2</ele>
        <time>2016-05-06T08:44:09Z</time>
      </trkpt>
      <trkpt lat="45.62669" lon="6.86697">
        <ele>1850.9</ele>
        <time>2016-05-06T08:44:11Z</time>
      </trkpt>
      <trkpt lat="45.62669" lon="6.86697">
        <ele>1850.7</ele>
        <time>2016-05-06T08:44:13Z</time>
      </trkpt>
      <trkpt lat="45.62669" lon="6.86697">
        <ele>1850</ele>
        <time>2016-05-06T08:44:15Z</time>
      </trkpt>
      <trkpt lat="45.62669" lon="6.86697">
        <ele>1850.2</ele>
        <time>2016-05-06T08:44:17Z</time>
      </trkpt>
      <trkpt lat="45.62669" lon="6.86697">
        <ele>1850.2</ele>
        <time>2016-05-06T08:44:19Z</time>
      </trkpt>
      <trkpt lat="45.6267" lon="6.86697">
        <ele>1850.4</ele>
        <time>2016-05-06T08:44:21Z</time>
      </trkpt>
      <trkpt lat="45.6267" lon="6.86697">
        <ele>1850.3</ele>
        <time>2016-05-06T08:44:23Z</time>
      </trkpt>
      <trkpt lat="45.62669" lon="6.86697">
        <ele>1850</ele>
        <time>2016-05-06T08:44:25Z</time>
      </trkpt>
      <trkpt lat="45.62669" lon="6.86697">
        <ele>1850.2</ele>
        <time>2016-05-06T08:44:27Z</time>
      </trkpt>
      <trkpt lat="45.62668" lon="6.86697">
        <ele>1850.4</ele>
        <time>2016-05-06T08:44:29Z</time>
      </trkpt>
      <trkpt lat="45.62668" lon="6.86698">
        <ele>1850.5</ele>
        <time>2016-05-06T08:44:31Z</time>
      </trkpt>
      <trkpt lat="45.62667" lon="6.86698">
        <ele>1850.4</ele>
        <time>2016-05-06T08:44:33Z</time>
      </trkpt>
      <trkpt lat="45.62667" lon="6.86698">
        <ele>1850.3</ele>
        <time>2016-05-06T08:44:35Z</time>
      </trkpt>
      <trkpt lat="45.62667" lon="6.86698">
        <ele>1850.3</ele>
        <time>2016-05-06T08:44:37Z</time>
      </trkpt>
      <trkpt lat="45.62666" lon="6.86698">
        <ele>1850.4</ele>
        <time>2016-05-06T08:44:39Z</time>
      </trkpt>
      <trkpt lat="45.62666" lon="6.86699">
        <ele>1850.4</ele>
        <time>2016-05-06T08:44:41Z</time>
      </trkpt>
      <trkpt lat="45.62666" lon="6.86699">
        <ele>1850.3</ele>
        <time>2016-05-06T08:44:43Z</time>
      </trkpt>
      <trkpt lat="45.62665" lon="6.867">
        <ele>1850.3</ele>
        <time>2016-05-06T08:44:45Z</time>
      </trkpt>
      <trkpt lat="45.62666" lon="6.86699">
        <ele>1850.4</ele>
        <time>2016-05-06T08:44:47Z</time>
      </trkpt>
      <trkpt lat="45.62667" lon="6.86698">
        <ele>1850.6</ele>
        <time>2016-05-06T08:44:49Z</time>
      </trkpt>
      <trkpt lat="45.62668" lon="6.86698">
        <ele>1850.7</ele>
        <time>2016-05-06T08:44:51Z</time>
      </trkpt>
      <trkpt lat="45.62669" lon="6.86698">
        <ele>1850.7</ele>
        <time>2016-05-06T08:44:53Z</time>
      </trkpt>
      <trkpt lat="45.6267" lon="6.86698">
        <ele>1850.5</ele>
        <time>2016-05-06T08:44:55Z</time>
      </trkpt>
      <trkpt lat="45.6267" lon="6.86698">
        <ele>1850.3</ele>
        <time>2016-05-06T08:44:57Z</time>
      </trkpt>
      <trkpt lat="45.6267" lon="6.86698">
        <ele>1850.4</ele>
        <time>2016-05-06T08:44:59Z</time>
      </trkpt>
      <trkpt lat="45.6267" lon="6.86698">
        <ele>1850.2</ele>
        <time>2016-05-06T08:45:01Z</time>
      </trkpt>
      <trkpt lat="45.62671" lon="6.86699">
        <ele>1850.4</ele>
        <time>2016-05-06T08:45:03Z</time>
      </trkpt>
      <trkpt lat="45.62671" lon="6.867">
        <ele>1850.8</ele>
        <time>2016-05-06T08:45:05Z</time>
      </trkpt>
      <trkpt lat="45.62669" lon="6.867">
        <ele>1851</ele>
        <time>2016-05-06T08:45:07Z</time>
      </trkpt>
      <trkpt lat="45.6267" lon="6.86699">
        <ele>1851</ele>
        <time>2016-05-06T08:45:09Z</time>
      </trkpt>
      <trkpt lat="45.6267" lon="6.86699">
        <ele>1851.5</ele>
        <time>2016-05-06T08:45:11Z</time>
      </trkpt>
      <trkpt lat="45.6267" lon="6.86699">
        <ele>1851.5</ele>
        <time>2016-05-06T08:45:13Z</time>
      </trkpt>
      <trkpt lat="45.6267" lon="6.86699">
        <ele>1851.4</ele>
        <time>2016-05-06T08:45:15Z</time>
      </trkpt>
      <trkpt lat="45.6267" lon="6.86699">
        <ele>1851.2</ele>
        <time>2016-05-06T08:45:17Z</time>
      </trkpt>
      <trkpt lat="45.6267" lon="6.86699">
        <ele>1850.9</ele>
        <time>2016-05-06T08:45:19Z</time>
      </trkpt>
      <trkpt lat="45.6267" lon="6.86699">
        <ele>1850.3</ele>
        <time>2016-05-06T08:45:21Z</time>
      </trkpt>
      <trkpt lat="45.62671" lon="6.86699">
        <ele>1850.2</ele>
        <time>2016-05-06T08:45:23Z</time>
      </trkpt>
      <trkpt lat="45.62672" lon="6.86698">
        <ele>1850.1</ele>
        <time>2016-05-06T08:45:25Z</time>
      </trkpt>
      <trkpt lat="45.62671" lon="6.86699">
        <ele>1850.2</ele>
        <time>2016-05-06T08:45:27Z</time>
      </trkpt>
      <trkpt lat="45.62671" lon="6.86698">
        <ele>1850.2</ele>
        <time>2016-05-06T08:45:29Z</time>
      </trkpt>
      <trkpt lat="45.62671" lon="6.86698">
        <ele>1849.9</ele>
        <time>2016-05-06T08:45:31Z</time>
      </trkpt>
      <trkpt lat="45.6267" lon="6.86698">
        <ele>1850</ele>
        <time>2016-05-06T08:45:33Z</time>
      </trkpt>
      <trkpt lat="45.6267" lon="6.86698">
        <ele>1850</ele>
        <time>2016-05-06T08:45:35Z</time>
      </trkpt>
      <trkpt lat="45.6267" lon="6.867">
        <ele>1850.1</ele>
        <time>2016-05-06T08:45:37Z</time>
      </trkpt>
      <trkpt lat="45.6267" lon="6.867">
        <ele>1849.8</ele>
        <time>2016-05-06T08:45:39Z</time>
      </trkpt>
      <trkpt lat="45.62669" lon="6.867">
        <ele>1850.1</ele>
        <time>2016-05-06T08:45:41Z</time>
      </trkpt>
      <trkpt lat="45.62668" lon="6.86699">
        <ele>1850.4</ele>
        <time>2016-05-06T08:45:43Z</time>
      </trkpt>
      <trkpt lat="45.62668" lon="6.86699">
        <ele>1850.5</ele>
        <time>2016-05-06T08:45:45Z</time>
      </trkpt>
      <trkpt lat="45.62668" lon="6.86699">
        <ele>1850.3</ele>
        <time>2016-05-06T08:45:47Z</time>
      </trkpt>
      <trkpt lat="45.62667" lon="6.86699">
        <ele>1850.2</ele>
        <time>2016-05-06T08:45:49Z</time>
      </trkpt>
      <trkpt lat="45.62667" lon="6.86699">
        <ele>1850.2</ele>
        <time>2016-05-06T08:45:51Z</time>
      </trkpt>
      <trkpt lat="45.62666" lon="6.86699">
        <ele>1850.1</ele>
        <time>2016-05-06T08:45:53Z</time>
      </trkpt>
      <trkpt lat="45.62666" lon="6.86699">
        <ele>1849.7</ele>
        <time>2016-05-06T08:45:55Z</time>
      </trkpt>
      <trkpt lat="45.62667" lon="6.86698">
        <ele>1849.7</ele>
        <time>2016-05-06T08:45:57Z</time>
      </trkpt>
      <trkpt lat="45.62667" lon="6.86698">
        <ele>1849.6</ele>
        <time>2016-05-06T08:45:59Z</time>
      </trkpt>
      <trkpt lat="45.62667" lon="6.86698">
        <ele>1849.6</ele>
        <time>2016-05-06T08:46:01Z</time>
      </trkpt>
      <trkpt lat="45.62667" lon="6.86698">
        <ele>1849.8</ele>
        <time>2016-05-06T08:46:03Z</time>
      </trkpt>
      <trkpt lat="45.62667" lon="6.86698">
        <ele>1849.5</ele>
        <time>2016-05-06T08:46:05Z</time>
      </trkpt>
      <trkpt lat="45.62668" lon="6.86697">
        <ele>1849.8</ele>
        <time>2016-05-06T08:46:07Z</time>
      </trkpt>
      <trkpt lat="45.62669" lon="6.86697">
        <ele>1848.9</ele>
        <time>2016-05-06T08:46:09Z</time>
      </trkpt>
      <trkpt lat="45.62669" lon="6.86697">
        <ele>1849.9</ele>
        <time>2016-05-06T08:46:11Z</time>
      </trkpt>
      <trkpt lat="45.62669" lon="6.86697">
        <ele>1849.9</ele>
        <time>2016-05-06T08:46:13Z</time>
      </trkpt>
      <trkpt lat="45.62669" lon="6.86697">
        <ele>1849.6</ele>
        <time>2016-05-06T08:46:15Z</time>
      </trkpt>
      <trkpt lat="45.62669" lon="6.86697">
        <ele>1850.1</ele>
        <time>2016-05-06T08:46:17Z</time>
      </trkpt>
      <trkpt lat="45.62669" lon="6.86697">
        <ele>1850.2</ele>
        <time>2016-05-06T08:46:19Z</time>
      </trkpt>
      <trkpt lat="45.62669" lon="6.86697">
        <ele>1850</ele>
        <time>2016-05-06T08:46:21Z</time>
      </trkpt>
      <trkpt lat="45.6267" lon="6.86698">
        <ele>1849.4</ele>
        <time>2016-05-06T08:46:23Z</time>
      </trkpt>
      <trkpt lat="45.62669" lon="6.86698">
        <ele>1848.8</ele>
        <time>2016-05-06T08:46:25Z</time>
      </trkpt>
      <trkpt lat="45.62669" lon="6.86698">
        <ele>1848.5</ele>
        <time>2016-05-06T08:46:27Z</time>
      </trkpt>
      <trkpt lat="45.62668" lon="6.86698">
        <ele>1848.4</ele>
        <time>2016-05-06T08:46:29Z</time>
      </trkpt>
      <trkpt lat="45.62668" lon="6.86698">
        <ele>1848</ele>
        <time>2016-05-06T08:46:31Z</time>
      </trkpt>
      <trkpt lat="45.62668" lon="6.86698">
        <ele>1848.8</ele>
        <time>2016-05-06T08:46:33Z</time>
      </trkpt>
      <trkpt lat="45.62668" lon="6.86699">
        <ele>1849.4</ele>
        <time>2016-05-06T08:46:35Z</time>
      </trkpt>
      <trkpt lat="45.62668" lon="6.86699">
        <ele>1849.5</ele>
        <time>2016-05-06T08:46:37Z</time>
      </trkpt>
      <trkpt lat="45.62668" lon="6.86699">
        <ele>1850.2</ele>
        <time>2016-05-06T08:46:39Z</time>
      </trkpt>
      <trkpt lat="45.62669" lon="6.86698">
        <ele>1850.1</ele>
        <time>2016-05-06T08:46:41Z</time>
      </trkpt>
      <trkpt lat="45.6267" lon="6.86697">
        <ele>1850.5</ele>
        <time>2016-05-06T08:46:43Z</time>
      </trkpt>
      <trkpt lat="45.6267" lon="6.86697">
        <ele>1850.5</ele>
        <time>2016-05-06T08:46:45Z</time>
      </trkpt>
      <trkpt lat="45.6267" lon="6.86698">
        <ele>1850.5</ele>
        <time>2016-05-06T08:46:47Z</time>
      </trkpt>
      <trkpt lat="45.62669" lon="6.86697">
        <ele>1850.4</ele>
        <time>2016-05-06T08:46:49Z</time>
      </trkpt>
      <trkpt lat="45.62669" lon="6.86697">
        <ele>1850.2</ele>
        <time>2016-05-06T08:46:51Z</time>
      </trkpt>
      <trkpt lat="45.62669" lon="6.86698">
        <ele>1849.8</ele>
        <time>2016-05-06T08:46:53Z</time>
      </trkpt>
      <trkpt lat="45.62669" lon="6.86698">
        <ele>1849.5</ele>
        <time>2016-05-06T08:46:55Z</time>
      </trkpt>
      <trkpt lat="45.62669" lon="6.86698">
        <ele>1849.5</ele>
        <time>2016-05-06T08:46:57Z</time>
      </trkpt>
      <trkpt lat="45.62668" lon="6.86698">
        <ele>1849.5</ele>
        <time>2016-05-06T08:46:59Z</time>
      </trkpt>
      <trkpt lat="45.62668" lon="6.86698">
        <ele>1849.6</ele>
        <time>2016-05-06T08:47:01Z</time>
      </trkpt>
      <trkpt lat="45.62668" lon="6.86696">
        <ele>1849.7</ele>
        <time>2016-05-06T08:47:03Z</time>
      </trkpt>
      <trkpt lat="45.62668" lon="6.86696">
        <ele>1849.7</ele>
        <time>2016-05-06T08:47:05Z</time>
      </trkpt>
      <trkpt lat="45.62667" lon="6.86699">
        <ele>1849.9</ele>
        <time>2016-05-06T08:47:07Z</time>
      </trkpt>
      <trkpt lat="45.62667" lon="6.867">
        <ele>1849.8</ele>
        <time>2016-05-06T08:47:09Z</time>
      </trkpt>
      <trkpt lat="45.62669" lon="6.867">
        <ele>1849.9</ele>
        <time>2016-05-06T08:47:11Z</time>
      </trkpt>
      <trkpt lat="45.6267" lon="6.867">
        <ele>1849.5</ele>
        <time>2016-05-06T08:47:13Z</time>
      </trkpt>
      <trkpt lat="45.62673" lon="6.867">
        <ele>1850</ele>
        <time>2016-05-06T08:47:15Z</time>
      </trkpt>
      <trkpt lat="45.62675" lon="6.86701">
        <ele>1850.3</ele>
        <time>2016-05-06T08:47:17Z</time>
      </trkpt>
      <trkpt lat="45.62678" lon="6.86702">
        <ele>1850.3</ele>
        <time>2016-05-06T08:47:19Z</time>
      </trkpt>
      <trkpt lat="45.6268" lon="6.86703">
        <ele>1850.5</ele>
        <time>2016-05-06T08:47:21Z</time>
      </trkpt>
      <trkpt lat="45.62683" lon="6.86703">
        <ele>1850.6</ele>
        <time>2016-05-06T08:47:23Z</time>
      </trkpt>
      <trkpt lat="45.62685" lon="6.86704">
        <ele>1850.9</ele>
        <time>2016-05-06T08:47:25Z</time>
      </trkpt>
      <trkpt lat="45.62688" lon="6.86704">
        <ele>1851</ele>
        <time>2016-05-06T08:47:27Z</time>
      </trkpt>
      <trkpt lat="45.62691" lon="6.86704">
        <ele>1851.7</ele>
        <time>2016-05-06T08:47:29Z</time>
      </trkpt>
      <trkpt lat="45.62693" lon="6.86704">
        <ele>1852</ele>
        <time>2016-05-06T08:47:31Z</time>
      </trkpt>
      <trkpt lat="45.62695" lon="6.86703">
        <ele>1852.3</ele>
        <time>2016-05-06T08:47:33Z</time>
      </trkpt>
      <trkpt lat="45.62697" lon="6.86703">
        <ele>1852.9</ele>
        <time>2016-05-06T08:47:35Z</time>
      </trkpt>
      <trkpt lat="45.627" lon="6.86702">
        <ele>1852.8</ele>
        <time>2016-05-06T08:47:37Z</time>
      </trkpt>
      <trkpt lat="45.62702" lon="6.86702">
        <ele>1852.6</ele>
        <time>2016-05-06T08:47:39Z</time>
      </trkpt>
      <trkpt lat="45.62704" lon="6.86702">
        <ele>1852.3</ele>
        <time>2016-05-06T08:47:41Z</time>
      </trkpt>
      <trkpt lat="45.62706" lon="6.86702">
        <ele>1852.1</ele>
        <time>2016-05-06T08:47:43Z</time>
      </trkpt>
      <trkpt lat="45.62708" lon="6.86701">
        <ele>1852.1</ele>
        <time>2016-05-06T08:47:45Z</time>
      </trkpt>
      <trkpt lat="45.6271" lon="6.86701">
        <ele>1852.2</ele>
        <time>2016-05-06T08:47:47Z</time>
      </trkpt>
      <trkpt lat="45.62711" lon="6.86702">
        <ele>1852.7</ele>
        <time>2016-05-06T08:47:49Z</time>
      </trkpt>
      <trkpt lat="45.62713" lon="6.86704">
        <ele>1852.7</ele>
        <time>2016-05-06T08:47:51Z</time>
      </trkpt>
      <trkpt lat="45.62715" lon="6.86705">
        <ele>1853</ele>
        <time>2016-05-06T08:47:53Z</time>
      </trkpt>
      <trkpt lat="45.62717" lon="6.86707">
        <ele>1853.1</ele>
        <time>2016-05-06T08:47:55Z</time>
      </trkpt>
      <trkpt lat="45.62719" lon="6.86708">
        <ele>1853.1</ele>
        <time>2016-05-06T08:47:57Z</time>
      </trkpt>
      <trkpt lat="45.6272" lon="6.86709">
        <ele>1853.2</ele>
        <time>2016-05-06T08:47:59Z</time>
      </trkpt>
      <trkpt lat="45.62722" lon="6.8671">
        <ele>1853.7</ele>
        <time>2016-05-06T08:48:01Z</time>
      </trkpt>
      <trkpt lat="45.62724" lon="6.86712">
        <ele>1853.6</ele>
        <time>2016-05-06T08:48:03Z</time>
      </trkpt>
      <trkpt lat="45.62726" lon="6.86713">
        <ele>1853.7</ele>
        <time>2016-05-06T08:48:05Z</time>
      </trkpt>
      <trkpt lat="45.62728" lon="6.86714">
        <ele>1853.9</ele>
        <time>2016-05-06T08:48:07Z</time>
      </trkpt>
      <trkpt lat="45.62729" lon="6.86716">
        <ele>1854.1</ele>
        <time>2016-05-06T08:48:09Z</time>
      </trkpt>
      <trkpt lat="45.62731" lon="6.86718">
        <ele>1854.2</ele>
        <time>2016-05-06T08:48:11Z</time>
      </trkpt>
      <trkpt lat="45.62733" lon="6.8672">
        <ele>1854.5</ele>
        <time>2016-05-06T08:48:13Z</time>
      </trkpt>
      <trkpt lat="45.62734" lon="6.86721">
        <ele>1855</ele>
        <time>2016-05-06T08:48:15Z</time>
      </trkpt>
      <trkpt lat="45.62735" lon="6.86723">
        <ele>1855</ele>
        <time>2016-05-06T08:48:17Z</time>
      </trkpt>
      <trkpt lat="45.62737" lon="6.86725">
        <ele>1854.9</ele>
        <time>2016-05-06T08:48:19Z</time>
      </trkpt>
      <trkpt lat="45.62738" lon="6.86727">
        <ele>1854.8</ele>
        <time>2016-05-06T08:48:21Z</time>
      </trkpt>
      <trkpt lat="45.6274" lon="6.86729">
        <ele>1854.8</ele>
        <time>2016-05-06T08:48:23Z</time>
      </trkpt>
      <trkpt lat="45.62741" lon="6.86732">
        <ele>1854.4</ele>
        <time>2016-05-06T08:48:25Z</time>
      </trkpt>
      <trkpt lat="45.62742" lon="6.86734">
        <ele>1854.3</ele>
        <time>2016-05-06T08:48:27Z</time>
      </trkpt>
      <trkpt lat="45.62743" lon="6.86737">
        <ele>1854.4</ele>
        <time>2016-05-06T08:48:29Z</time>
      </trkpt>
      <trkpt lat="45.62744" lon="6.86739">
        <ele>1854.1</ele>
        <time>2016-05-06T08:48:31Z</time>
      </trkpt>
      <trkpt lat="45.62745" lon="6.86741">
        <ele>1854.3</ele>
        <time>2016-05-06T08:48:33Z</time>
      </trkpt>
      <trkpt lat="45.62746" lon="6.86743">
        <ele>1854</ele>
        <time>2016-05-06T08:48:35Z</time>
      </trkpt>
      <trkpt lat="45.62747" lon="6.86745">
        <ele>1854.3</ele>
        <time>2016-05-06T08:48:37Z</time>
      </trkpt>
      <trkpt lat="45.62748" lon="6.86748">
        <ele>1854.9</ele>
        <time>2016-05-06T08:48:39Z</time>
      </trkpt>
      <trkpt lat="45.62749" lon="6.8675">
        <ele>1855</ele>
        <time>2016-05-06T08:48:41Z</time>
      </trkpt>
      <trkpt lat="45.6275" lon="6.86752">
        <ele>1855.1</ele>
        <time>2016-05-06T08:48:43Z</time>
      </trkpt>
      <trkpt lat="45.62752" lon="6.86754">
        <ele>1855.7</ele>
        <time>2016-05-06T08:48:45Z</time>
      </trkpt>
      <trkpt lat="45.62753" lon="6.86755">
        <ele>1856.3</ele>
        <time>2016-05-06T08:48:47Z</time>
      </trkpt>
      <trkpt lat="45.62755" lon="6.86757">
        <ele>1857.3</ele>
        <time>2016-05-06T08:48:49Z</time>
      </trkpt>
      <trkpt lat="45.62756" lon="6.86758">
        <ele>1857.8</ele>
        <time>2016-05-06T08:48:51Z</time>
      </trkpt>
      <trkpt lat="45.62757" lon="6.86759">
        <ele>1857.8</ele>
        <time>2016-05-06T08:48:53Z</time>
      </trkpt>
      <trkpt lat="45.6276" lon="6.86761">
        <ele>1858.2</ele>
        <time>2016-05-06T08:48:55Z</time>
      </trkpt>
      <trkpt lat="45.62762" lon="6.86762">
        <ele>1859.1</ele>
        <time>2016-05-06T08:48:57Z</time>
      </trkpt>
      <trkpt lat="45.62764" lon="6.86762">
        <ele>1859.6</ele>
        <time>2016-05-06T08:48:59Z</time>
      </trkpt>
      <trkpt lat="45.62766" lon="6.86763">
        <ele>1859.8</ele>
        <time>2016-05-06T08:49:01Z</time>
      </trkpt>
      <trkpt lat="45.62768" lon="6.86763">
        <ele>1859.9</ele>
        <time>2016-05-06T08:49:03Z</time>
      </trkpt>
      <trkpt lat="45.6277" lon="6.86763">
        <ele>1860</ele>
        <time>2016-05-06T08:49:05Z</time>
      </trkpt>
      <trkpt lat="45.62772" lon="6.86763">
        <ele>1860.3</ele>
        <time>2016-05-06T08:49:07Z</time>
      </trkpt>
      <trkpt lat="45.62774" lon="6.86763">
        <ele>1860.8</ele>
        <time>2016-05-06T08:49:09Z</time>
      </trkpt>
      <trkpt lat="45.62776" lon="6.86763">
        <ele>1860.8</ele>
        <time>2016-05-06T08:49:11Z</time>
      </trkpt>
      <trkpt lat="45.62779" lon="6.86763">
        <ele>1860.5</ele>
        <time>2016-05-06T08:49:13Z</time>
      </trkpt>
      <trkpt lat="45.6278" lon="6.86762">
        <ele>1860.3</ele>
        <time>2016-05-06T08:49:15Z</time>
      </trkpt>
      <trkpt lat="45.62783" lon="6.86762">
        <ele>1860.1</ele>
        <time>2016-05-06T08:49:17Z</time>
      </trkpt>
      <trkpt lat="45.62785" lon="6.86761">
        <ele>1859.9</ele>
        <time>2016-05-06T08:49:19Z</time>
      </trkpt>
      <trkpt lat="45.62787" lon="6.86761">
        <ele>1859.6</ele>
        <time>2016-05-06T08:49:21Z</time>
      </trkpt>
      <trkpt lat="45.6279" lon="6.8676">
        <ele>1859.8</ele>
        <time>2016-05-06T08:49:23Z</time>
      </trkpt>
      <trkpt lat="45.62792" lon="6.86759">
        <ele>1860</ele>
        <time>2016-05-06T08:49:25Z</time>
      </trkpt>
      <trkpt lat="45.62794" lon="6.86759">
        <ele>1859.7</ele>
        <time>2016-05-06T08:49:27Z</time>
      </trkpt>
      <trkpt lat="45.62796" lon="6.86758">
        <ele>1859.7</ele>
        <time>2016-05-06T08:49:29Z</time>
      </trkpt>
      <trkpt lat="45.62799" lon="6.86758">
        <ele>1859.8</ele>
        <time>2016-05-06T08:49:31Z</time>
      </trkpt>
      <trkpt lat="45.62801" lon="6.86757">
        <ele>1859.8</ele>
        <time>2016-05-06T08:49:33Z</time>
      </trkpt>
      <trkpt lat="45.62803" lon="6.86757">
        <ele>1859.6</ele>
        <time>2016-05-06T08:49:35Z</time>
      </trkpt>
      <trkpt lat="45.62805" lon="6.86757">
        <ele>1859.6</ele>
        <time>2016-05-06T08:49:37Z</time>
      </trkpt>
      <trkpt lat="45.62807" lon="6.86757">
        <ele>1859.6</ele>
        <time>2016-05-06T08:49:39Z</time>
      </trkpt>
      <trkpt lat="45.62809" lon="6.86756">
        <ele>1859.9</ele>
        <time>2016-05-06T08:49:41Z</time>
      </trkpt>
      <trkpt lat="45.62811" lon="6.86756">
        <ele>1860.3</ele>
        <time>2016-05-06T08:49:43Z</time>
      </trkpt>
      <trkpt lat="45.62813" lon="6.86756">
        <ele>1860.3</ele>
        <time>2016-05-06T08:49:45Z</time>
      </trkpt>
      <trkpt lat="45.62814" lon="6.86755">
        <ele>1860.3</ele>
        <time>2016-05-06T08:49:47Z</time>
      </trkpt>
      <trkpt lat="45.62817" lon="6.86755">
        <ele>1860.7</ele>
        <time>2016-05-06T08:49:49Z</time>
      </trkpt>
      <trkpt lat="45.62819" lon="6.86755">
        <ele>1861.2</ele>
        <time>2016-05-06T08:49:51Z</time>
      </trkpt>
      <trkpt lat="45.62821" lon="6.86753">
        <ele>1861.2</ele>
        <time>2016-05-06T08:49:53Z</time>
      </trkpt>
      <trkpt lat="45.62823" lon="6.86752">
        <ele>1861.1</ele>
        <time>2016-05-06T08:49:55Z</time>
      </trkpt>
      <trkpt lat="45.62825" lon="6.86751">
        <ele>1861.1</ele>
        <time>2016-05-06T08:49:57Z</time>
      </trkpt>
      <trkpt lat="45.62827" lon="6.8675">
        <ele>1861.2</ele>
        <time>2016-05-06T08:49:59Z</time>
      </trkpt>
      <trkpt lat="45.62829" lon="6.86748">
        <ele>1861.2</ele>
        <time>2016-05-06T08:50:01Z</time>
      </trkpt>
      <trkpt lat="45.6283" lon="6.86747">
        <ele>1861.2</ele>
        <time>2016-05-06T08:50:03Z</time>
      </trkpt>
      <trkpt lat="45.62832" lon="6.86746">
        <ele>1862</ele>
        <time>2016-05-06T08:50:05Z</time>
      </trkpt>
      <trkpt lat="45.62834" lon="6.86746">
        <ele>1862.3</ele>
        <time>2016-05-06T08:50:07Z</time>
      </trkpt>
      <trkpt lat="45.62836" lon="6.86745">
        <ele>1862.9</ele>
        <time>2016-05-06T08:50:09Z</time>
      </trkpt>
      <trkpt lat="45.62837" lon="6.86744">
        <ele>1863</ele>
        <time>2016-05-06T08:50:11Z</time>
      </trkpt>
      <trkpt lat="45.62839" lon="6.86743">
        <ele>1862.5</ele>
        <time>2016-05-06T08:50:13Z</time>
      </trkpt>
      <trkpt lat="45.62841" lon="6.86743">
        <ele>1862.2</ele>
        <time>2016-05-06T08:50:15Z</time>
      </trkpt>
      <trkpt lat="45.62843" lon="6.86742">
        <ele>1862</ele>
        <time>2016-05-06T08:50:17Z</time>
      </trkpt>
      <trkpt lat="45.62845" lon="6.86741">
        <ele>1861.8</ele>
        <time>2016-05-06T08:50:19Z</time>
      </trkpt>
      <trkpt lat="45.62847" lon="6.8674">
        <ele>1861.8</ele>
        <time>2016-05-06T08:50:21Z</time>
      </trkpt>
      <trkpt lat="45.62848" lon="6.86739">
        <ele>1861.6</ele>
        <time>2016-05-06T08:50:23Z</time>
      </trkpt>
      <trkpt lat="45.6285" lon="6.86738">
        <ele>1861.4</ele>
        <time>2016-05-06T08:50:25Z</time>
      </trkpt>
      <trkpt lat="45.62852" lon="6.86738">
        <ele>1861.4</ele>
        <time>2016-05-06T08:50:27Z</time>
      </trkpt>
      <trkpt lat="45.62854" lon="6.86737">
        <ele>1861.5</ele>
        <time>2016-05-06T08:50:29Z</time>
      </trkpt>
      <trkpt lat="45.62856" lon="6.86736">
        <ele>1861.5</ele>
        <time>2016-05-06T08:50:31Z</time>
      </trkpt>
      <trkpt lat="45.62858" lon="6.86735">
        <ele>1861.7</ele>
        <time>2016-05-06T08:50:33Z</time>
      </trkpt>
      <trkpt lat="45.6286" lon="6.86734">
        <ele>1861.6</ele>
        <time>2016-05-06T08:50:35Z</time>
      </trkpt>
      <trkpt lat="45.62861" lon="6.86733">
        <ele>1861.6</ele>
        <time>2016-05-06T08:50:37Z</time>
      </trkpt>
      <trkpt lat="45.62863" lon="6.86732">
        <ele>1861.7</ele>
        <time>2016-05-06T08:50:39Z</time>
      </trkpt>
      <trkpt lat="45.62865" lon="6.86731">
        <ele>1861.9</ele>
        <time>2016-05-06T08:50:41Z</time>
      </trkpt>
      <trkpt lat="45.62867" lon="6.8673">
        <ele>1861.9</ele>
        <time>2016-05-06T08:50:43Z</time>
      </trkpt>
      <trkpt lat="45.62869" lon="6.86729">
        <ele>1861.9</ele>
        <time>2016-05-06T08:50:45Z</time>
      </trkpt>
      <trkpt lat="45.62871" lon="6.86728">
        <ele>1861.8</ele>
        <time>2016-05-06T08:50:47Z</time>
      </trkpt>
      <trkpt lat="45.62873" lon="6.86727">
        <ele>1861.8</ele>
        <time>2016-05-06T08:50:49Z</time>
      </trkpt>
      <trkpt lat="45.62875" lon="6.86726">
        <ele>1861.9</ele>
        <time>2016-05-06T08:50:51Z</time>
      </trkpt>
      <trkpt lat="45.62876" lon="6.86724">
        <ele>1862.3</ele>
        <time>2016-05-06T08:50:53Z</time>
      </trkpt>
      <trkpt lat="45.62878" lon="6.86723">
        <ele>1862.4</ele>
        <time>2016-05-06T08:50:55Z</time>
      </trkpt>
      <trkpt lat="45.6288" lon="6.86721">
        <ele>1862.4</ele>
        <time>2016-05-06T08:50:57Z</time>
      </trkpt>
      <trkpt lat="45.62882" lon="6.86719">
        <ele>1862.5</ele>
        <time>2016-05-06T08:50:59Z</time>
      </trkpt>
      <trkpt lat="45.62884" lon="6.86718">
        <ele>1862.5</ele>
        <time>2016-05-06T08:51:01Z</time>
      </trkpt>
      <trkpt lat="45.62886" lon="6.86716">
        <ele>1862.7</ele>
        <time>2016-05-06T08:51:03Z</time>
      </trkpt>
      <trkpt lat="45.62887" lon="6.86714">
        <ele>1863.3</ele>
        <time>2016-05-06T08:51:05Z</time>
      </trkpt>
      <trkpt lat="45.62889" lon="6.86713">
        <ele>1863.3</ele>
        <time>2016-05-06T08:51:07Z</time>
      </trkpt>
      <trkpt lat="45.62891" lon="6.86711">
        <ele>1863.1</ele>
        <time>2016-05-06T08:51:09Z</time>
      </trkpt>
      <trkpt lat="45.62893" lon="6.8671">
        <ele>1863</ele>
        <time>2016-05-06T08:51:11Z</time>
      </trkpt>
      <trkpt lat="45.62895" lon="6.86709">
        <ele>1863.1</ele>
        <time>2016-05-06T08:51:13Z</time>
      </trkpt>
      <trkpt lat="45.62897" lon="6.86708">
        <ele>1863.2</ele>
        <time>2016-05-06T08:51:15Z</time>
      </trkpt>
      <trkpt lat="45.62898" lon="6.86706">
        <ele>1863.2</ele>
        <time>2016-05-06T08:51:17Z</time>
      </trkpt>
      <trkpt lat="45.629" lon="6.86705">
        <ele>1863.6</ele>
        <time>2016-05-06T08:51:19Z</time>
      </trkpt>
      <trkpt lat="45.62902" lon="6.86704">
        <ele>1863.9</ele>
        <time>2016-05-06T08:51:21Z</time>
      </trkpt>
      <trkpt lat="45.62904" lon="6.86703">
        <ele>1864.1</ele>
        <time>2016-05-06T08:51:23Z</time>
      </trkpt>
      <trkpt lat="45.62906" lon="6.86702">
        <ele>1864.3</ele>
        <time>2016-05-06T08:51:25Z</time>
      </trkpt>
      <trkpt lat="45.62908" lon="6.86702">
        <ele>1864.4</ele>
        <time>2016-05-06T08:51:27Z</time>
      </trkpt>
      <trkpt lat="45.6291" lon="6.86702">
        <ele>1864.4</ele>
        <time>2016-05-06T08:51:29Z</time>
      </trkpt>
      <trkpt lat="45.62911" lon="6.86701">
        <ele>1864.7</ele>
        <time>2016-05-06T08:51:31Z</time>
      </trkpt>
      <trkpt lat="45.62913" lon="6.86701">
        <ele>1865</ele>
        <time>2016-05-06T08:51:33Z</time>
      </trkpt>
      <trkpt lat="45.62915" lon="6.867">
        <ele>1865.1</ele>
        <time>2016-05-06T08:51:35Z</time>
      </trkpt>
      <trkpt lat="45.62917" lon="6.86699">
        <ele>1865</ele>
        <time>2016-05-06T08:51:37Z</time>
      </trkpt>
      <trkpt lat="45.62919" lon="6.86699">
        <ele>1865.3</ele>
        <time>2016-05-06T08:51:39Z</time>
      </trkpt>
      <trkpt lat="45.62921" lon="6.86698">
        <ele>1865.4</ele>
        <time>2016-05-06T08:51:41Z</time>
      </trkpt>
      <trkpt lat="45.62923" lon="6.86699">
        <ele>1865.7</ele>
        <time>2016-05-06T08:51:43Z</time>
      </trkpt>
      <trkpt lat="45.62925" lon="6.86699">
        <ele>1865.8</ele>
        <time>2016-05-06T08:51:45Z</time>
      </trkpt>
      <trkpt lat="45.62926" lon="6.86698">
        <ele>1866.1</ele>
        <time>2016-05-06T08:51:47Z</time>
      </trkpt>
      <trkpt lat="45.62927" lon="6.86696">
        <ele>1866.6</ele>
        <time>2016-05-06T08:51:49Z</time>
      </trkpt>
      <trkpt lat="45.62929" lon="6.86696">
        <ele>1867</ele>
        <time>2016-05-06T08:51:51Z</time>
      </trkpt>
      <trkpt lat="45.62931" lon="6.86695">
        <ele>1867.3</ele>
        <time>2016-05-06T08:51:53Z</time>
      </trkpt>
      <trkpt lat="45.62933" lon="6.86694">
        <ele>1867.4</ele>
        <time>2016-05-06T08:51:55Z</time>
      </trkpt>
      <trkpt lat="45.62934" lon="6.86693">
        <ele>1867.5</ele>
        <time>2016-05-06T08:51:57Z</time>
      </trkpt>
      <trkpt lat="45.62936" lon="6.86692">
        <ele>1867.6</ele>
        <time>2016-05-06T08:51:59Z</time>
      </trkpt>
      <trkpt lat="45.62938" lon="6.86691">
        <ele>1867.5</ele>
        <time>2016-05-06T08:52:01Z</time>
      </trkpt>
      <trkpt lat="45.6294" lon="6.8669">
        <ele>1867.7</ele>
        <time>2016-05-06T08:52:03Z</time>
      </trkpt>
      <trkpt lat="45.62942" lon="6.86689">
        <ele>1867.8</ele>
        <time>2016-05-06T08:52:05Z</time>
      </trkpt>
      <trkpt lat="45.62943" lon="6.86688">
        <ele>1867.6</ele>
        <time>2016-05-06T08:52:07Z</time>
      </trkpt>
      <trkpt lat="45.62945" lon="6.86686">
        <ele>1867.9</ele>
        <time>2016-05-06T08:52:09Z</time>
      </trkpt>
      <trkpt lat="45.62946" lon="6.86685">
        <ele>1868.1</ele>
        <time>2016-05-06T08:52:11Z</time>
      </trkpt>
      <trkpt lat="45.62948" lon="6.86683">
        <ele>1868.1</ele>
        <time>2016-05-06T08:52:13Z</time>
      </trkpt>
      <trkpt lat="45.62949" lon="6.86682">
        <ele>1868.1</ele>
        <time>2016-05-06T08:52:15Z</time>
      </trkpt>
      <trkpt lat="45.62951" lon="6.86681">
        <ele>1868.5</ele>
        <time>2016-05-06T08:52:17Z</time>
      </trkpt>
      <trkpt lat="45.62952" lon="6.86679">
        <ele>1868.5</ele>
        <time>2016-05-06T08:52:19Z</time>
      </trkpt>
      <trkpt lat="45.62954" lon="6.86678">
        <ele>1868.6</ele>
        <time>2016-05-06T08:52:21Z</time>
      </trkpt>
      <trkpt lat="45.62955" lon="6.86676">
        <ele>1868.9</ele>
        <time>2016-05-06T08:52:23Z</time>
      </trkpt>
      <trkpt lat="45.62957" lon="6.86675">
        <ele>1869.1</ele>
        <time>2016-05-06T08:52:25Z</time>
      </trkpt>
      <trkpt lat="45.62959" lon="6.86673">
        <ele>1868.8</ele>
        <time>2016-05-06T08:52:27Z</time>
      </trkpt>
      <trkpt lat="45.62961" lon="6.86673">
        <ele>1868.3</ele>
        <time>2016-05-06T08:52:29Z</time>
      </trkpt>
      <trkpt lat="45.62963" lon="6.86672">
        <ele>1868.3</ele>
        <time>2016-05-06T08:52:31Z</time>
      </trkpt>
      <trkpt lat="45.62965" lon="6.8667">
        <ele>1868.1</ele>
        <time>2016-05-06T08:52:33Z</time>
      </trkpt>
      <trkpt lat="45.62966" lon="6.86669">
        <ele>1868</ele>
        <time>2016-05-06T08:52:35Z</time>
      </trkpt>
      <trkpt lat="45.62968" lon="6.86668">
        <ele>1867.9</ele>
        <time>2016-05-06T08:52:37Z</time>
      </trkpt>
      <trkpt lat="45.6297" lon="6.86667">
        <ele>1867.8</ele>
        <time>2016-05-06T08:52:39Z</time>
      </trkpt>
      <trkpt lat="45.62972" lon="6.86666">
        <ele>1867.7</ele>
        <time>2016-05-06T08:52:41Z</time>
      </trkpt>
      <trkpt lat="45.62974" lon="6.86665">
        <ele>1867.8</ele>
        <time>2016-05-06T08:52:43Z</time>
      </trkpt>
      <trkpt lat="45.62975" lon="6.86663">
        <ele>1868</ele>
        <time>2016-05-06T08:52:45Z</time>
      </trkpt>
      <trkpt lat="45.62977" lon="6.86663">
        <ele>1868.1</ele>
        <time>2016-05-06T08:52:47Z</time>
      </trkpt>
      <trkpt lat="45.62979" lon="6.86664">
        <ele>1868.1</ele>
        <time>2016-05-06T08:52:49Z</time>
      </trkpt>
      <trkpt lat="45.62981" lon="6.86664">
        <ele>1868.2</ele>
        <time>2016-05-06T08:52:51Z</time>
      </trkpt>
      <trkpt lat="45.62984" lon="6.86665">
        <ele>1868.2</ele>
        <time>2016-05-06T08:52:53Z</time>
      </trkpt>
      <trkpt lat="45.62986" lon="6.86666">
        <ele>1868.1</ele>
        <time>2016-05-06T08:52:55Z</time>
      </trkpt>
      <trkpt lat="45.62988" lon="6.86667">
        <ele>1868.1</ele>
        <time>2016-05-06T08:52:57Z</time>
      </trkpt>
      <trkpt lat="45.62989" lon="6.86668">
        <ele>1868.2</ele>
        <time>2016-05-06T08:52:59Z</time>
      </trkpt>
      <trkpt lat="45.62991" lon="6.8667">
        <ele>1868.4</ele>
        <time>2016-05-06T08:53:01Z</time>
      </trkpt>
      <trkpt lat="45.62993" lon="6.86671">
        <ele>1868.6</ele>
        <time>2016-05-06T08:53:03Z</time>
      </trkpt>
      <trkpt lat="45.62994" lon="6.86671">
        <ele>1868.7</ele>
        <time>2016-05-06T08:53:05Z</time>
      </trkpt>
      <trkpt lat="45.62996" lon="6.86673">
        <ele>1868.9</ele>
        <time>2016-05-06T08:53:07Z</time>
      </trkpt>
      <trkpt lat="45.62998" lon="6.86674">
        <ele>1869.1</ele>
        <time>2016-05-06T08:53:09Z</time>
      </trkpt>
      <trkpt lat="45.62999" lon="6.86673">
        <ele>1870</ele>
        <time>2016-05-06T08:53:11Z</time>
      </trkpt>
      <trkpt lat="45.63001" lon="6.86675">
        <ele>1870.8</ele>
        <time>2016-05-06T08:53:13Z</time>
      </trkpt>
      <trkpt lat="45.63004" lon="6.86675">
        <ele>1871.7</ele>
        <time>2016-05-06T08:53:15Z</time>
      </trkpt>
      <trkpt lat="45.63005" lon="6.86676">
        <ele>1872.8</ele>
        <time>2016-05-06T08:53:17Z</time>
      </trkpt>
      <trkpt lat="45.63007" lon="6.86677">
        <ele>1872.2</ele>
        <time>2016-05-06T08:53:19Z</time>
      </trkpt>
      <trkpt lat="45.63009" lon="6.86678">
        <ele>1872.2</ele>
        <time>2016-05-06T08:53:21Z</time>
      </trkpt>
      <trkpt lat="45.63011" lon="6.86679">
        <ele>1872.1</ele>
        <time>2016-05-06T08:53:23Z</time>
      </trkpt>
      <trkpt lat="45.63013" lon="6.86681">
        <ele>1871.8</ele>
        <time>2016-05-06T08:53:25Z</time>
      </trkpt>
      <trkpt lat="45.63015" lon="6.86683">
        <ele>1871.8</ele>
        <time>2016-05-06T08:53:27Z</time>
      </trkpt>
      <trkpt lat="45.63017" lon="6.86685">
        <ele>1871.7</ele>
        <time>2016-05-06T08:53:29Z</time>
      </trkpt>
      <trkpt lat="45.63019" lon="6.86686">
        <ele>1871.6</ele>
        <time>2016-05-06T08:53:31Z</time>
      </trkpt>
      <trkpt lat="45.63021" lon="6.86688">
        <ele>1871.7</ele>
        <time>2016-05-06T08:53:33Z</time>
      </trkpt>
      <trkpt lat="45.63023" lon="6.86689">
        <ele>1872.8</ele>
        <time>2016-05-06T08:53:35Z</time>
      </trkpt>
      <trkpt lat="45.63025" lon="6.8669">
        <ele>1874.4</ele>
        <time>2016-05-06T08:53:37Z</time>
      </trkpt>
      <trkpt lat="45.63027" lon="6.8669">
        <ele>1874.8</ele>
        <time>2016-05-06T08:53:39Z</time>
      </trkpt>
      <trkpt lat="45.63029" lon="6.86691">
        <ele>1874.5</ele>
        <time>2016-05-06T08:53:41Z</time>
      </trkpt>
      <trkpt lat="45.63031" lon="6.86691">
        <ele>1874.3</ele>
        <time>2016-05-06T08:53:43Z</time>
      </trkpt>
      <trkpt lat="45.63033" lon="6.86691">
        <ele>1874.5</ele>
        <time>2016-05-06T08:53:45Z</time>
      </trkpt>
      <trkpt lat="45.63035" lon="6.86692">
        <ele>1875.1</ele>
        <time>2016-05-06T08:53:47Z</time>
      </trkpt>
      <trkpt lat="45.63037" lon="6.86692">
        <ele>1874.9</ele>
        <time>2016-05-06T08:53:49Z</time>
      </trkpt>
      <trkpt lat="45.63038" lon="6.86692">
        <ele>1874.6</ele>
        <time>2016-05-06T08:53:51Z</time>
      </trkpt>
      <trkpt lat="45.6304" lon="6.86692">
        <ele>1875.3</ele>
        <time>2016-05-06T08:53:53Z</time>
      </trkpt>
      <trkpt lat="45.63042" lon="6.86692">
        <ele>1875.7</ele>
        <time>2016-05-06T08:53:55Z</time>
      </trkpt>
      <trkpt lat="45.63043" lon="6.86691">
        <ele>1876.3</ele>
        <time>2016-05-06T08:53:57Z</time>
      </trkpt>
      <trkpt lat="45.63045" lon="6.86691">
        <ele>1876.3</ele>
        <time>2016-05-06T08:53:59Z</time>
      </trkpt>
      <trkpt lat="45.63047" lon="6.8669">
        <ele>1876</ele>
        <time>2016-05-06T08:54:01Z</time>
      </trkpt>
      <trkpt lat="45.63049" lon="6.86689">
        <ele>1875.6</ele>
        <time>2016-05-06T08:54:03Z</time>
      </trkpt>
      <trkpt lat="45.63051" lon="6.86688">
        <ele>1875.1</ele>
        <time>2016-05-06T08:54:05Z</time>
      </trkpt>
      <trkpt lat="45.63053" lon="6.86688">
        <ele>1874.7</ele>
        <time>2016-05-06T08:54:07Z</time>
      </trkpt>
      <trkpt lat="45.63055" lon="6.86688">
        <ele>1874.4</ele>
        <time>2016-05-06T08:54:09Z</time>
      </trkpt>
      <trkpt lat="45.63057" lon="6.86687">
        <ele>1873.8</ele>
        <time>2016-05-06T08:54:11Z</time>
      </trkpt>
      <trkpt lat="45.63059" lon="6.86688">
        <ele>1873.8</ele>
        <time>2016-05-06T08:54:13Z</time>
      </trkpt>
      <trkpt lat="45.63061" lon="6.86688">
        <ele>1873.8</ele>
        <time>2016-05-06T08:54:15Z</time>
      </trkpt>
      <trkpt lat="45.63063" lon="6.86688">
        <ele>1874</ele>
        <time>2016-05-06T08:54:17Z</time>
      </trkpt>
      <trkpt lat="45.63065" lon="6.8669">
        <ele>1874.2</ele>
        <time>2016-05-06T08:54:19Z</time>
      </trkpt>
      <trkpt lat="45.63066" lon="6.86691">
        <ele>1874.2</ele>
        <time>2016-05-06T08:54:21Z</time>
      </trkpt>
      <trkpt lat="45.63068" lon="6.86692">
        <ele>1874.4</ele>
        <time>2016-05-06T08:54:23Z</time>
      </trkpt>
      <trkpt lat="45.6307" lon="6.86693">
        <ele>1874.8</ele>
        <time>2016-05-06T08:54:25Z</time>
      </trkpt>
      <trkpt lat="45.63071" lon="6.86693">
        <ele>1875.1</ele>
        <time>2016-05-06T08:54:27Z</time>
      </trkpt>
      <trkpt lat="45.63073" lon="6.86695">
        <ele>1875.3</ele>
        <time>2016-05-06T08:54:29Z</time>
      </trkpt>
      <trkpt lat="45.63075" lon="6.86696">
        <ele>1875</ele>
        <time>2016-05-06T08:54:31Z</time>
      </trkpt>
      <trkpt lat="45.63076" lon="6.86697">
        <ele>1874.8</ele>
        <time>2016-05-06T08:54:33Z</time>
      </trkpt>
      <trkpt lat="45.63077" lon="6.86698">
        <ele>1874.9</ele>
        <time>2016-05-06T08:54:35Z</time>
      </trkpt>
      <trkpt lat="45.63079" lon="6.867">
        <ele>1874.8</ele>
        <time>2016-05-06T08:54:37Z</time>
      </trkpt>
      <trkpt lat="45.63081" lon="6.867">
        <ele>1874.8</ele>
        <time>2016-05-06T08:54:39Z</time>
      </trkpt>
      <trkpt lat="45.63082" lon="6.86702">
        <ele>1874.8</ele>
        <time>2016-05-06T08:54:41Z</time>
      </trkpt>
      <trkpt lat="45.63083" lon="6.86704">
        <ele>1874.9</ele>
        <time>2016-05-06T08:54:43Z</time>
      </trkpt>
      <trkpt lat="45.63085" lon="6.86706">
        <ele>1875</ele>
        <time>2016-05-06T08:54:45Z</time>
      </trkpt>
      <trkpt lat="45.63086" lon="6.86708">
        <ele>1875.2</ele>
        <time>2016-05-06T08:54:47Z</time>
      </trkpt>
      <trkpt lat="45.63087" lon="6.8671">
        <ele>1875.6</ele>
        <time>2016-05-06T08:54:49Z</time>
      </trkpt>
      <trkpt lat="45.63088" lon="6.86713">
        <ele>1875.9</ele>
        <time>2016-05-06T08:54:51Z</time>
      </trkpt>
      <trkpt lat="45.63089" lon="6.86715">
        <ele>1876.2</ele>
        <time>2016-05-06T08:54:53Z</time>
      </trkpt>
      <trkpt lat="45.63091" lon="6.86717">
        <ele>1876.3</ele>
        <time>2016-05-06T08:54:55Z</time>
      </trkpt>
      <trkpt lat="45.63092" lon="6.86718">
        <ele>1876.4</ele>
        <time>2016-05-06T08:54:57Z</time>
      </trkpt>
      <trkpt lat="45.63093" lon="6.86719">
        <ele>1877</ele>
        <time>2016-05-06T08:54:59Z</time>
      </trkpt>
      <trkpt lat="45.63094" lon="6.86722">
        <ele>1877.4</ele>
        <time>2016-05-06T08:55:01Z</time>
      </trkpt>
      <trkpt lat="45.63096" lon="6.86724">
        <ele>1876.9</ele>
        <time>2016-05-06T08:55:03Z</time>
      </trkpt>
      <trkpt lat="45.63097" lon="6.86725">
        <ele>1877.4</ele>
        <time>2016-05-06T08:55:05Z</time>
      </trkpt>
      <trkpt lat="45.63099" lon="6.86726">
        <ele>1877.4</ele>
        <time>2016-05-06T08:55:07Z</time>
      </trkpt>
      <trkpt lat="45.631" lon="6.86728">
        <ele>1877.3</ele>
        <time>2016-05-06T08:55:09Z</time>
      </trkpt>
      <trkpt lat="45.63102" lon="6.8673">
        <ele>1877.1</ele>
        <time>2016-05-06T08:55:11Z</time>
      </trkpt>
      <trkpt lat="45.63104" lon="6.86732">
        <ele>1877.1</ele>
        <time>2016-05-06T08:55:13Z</time>
      </trkpt>
      <trkpt lat="45.63107" lon="6.86733">
        <ele>1877.8</ele>
        <time>2016-05-06T08:55:15Z</time>
      </trkpt>
      <trkpt lat="45.63108" lon="6.86734">
        <ele>1878.1</ele>
        <time>2016-05-06T08:55:17Z</time>
      </trkpt>
      <trkpt lat="45.63109" lon="6.86736">
        <ele>1877.7</ele>
        <time>2016-05-06T08:55:19Z</time>
      </trkpt>
      <trkpt lat="45.63111" lon="6.86737">
        <ele>1877.3</ele>
        <time>2016-05-06T08:55:21Z</time>
      </trkpt>
      <trkpt lat="45.63112" lon="6.86738">
        <ele>1877.4</ele>
        <time>2016-05-06T08:55:23Z</time>
      </trkpt>
      <trkpt lat="45.63113" lon="6.8674">
        <ele>1877.6</ele>
        <time>2016-05-06T08:55:25Z</time>
      </trkpt>
      <trkpt lat="45.63115" lon="6.86741">
        <ele>1878.1</ele>
        <time>2016-05-06T08:55:27Z</time>
      </trkpt>
      <trkpt lat="45.63117" lon="6.86742">
        <ele>1879.1</ele>
        <time>2016-05-06T08:55:29Z</time>
      </trkpt>
      <trkpt lat="45.63119" lon="6.86743">
        <ele>1880.1</ele>
        <time>2016-05-06T08:55:31Z</time>
      </trkpt>
      <trkpt lat="45.63121" lon="6.86745">
        <ele>1880.1</ele>
        <time>2016-05-06T08:55:33Z</time>
      </trkpt>
      <trkpt lat="45.63122" lon="6.86746">
        <ele>1879.8</ele>
        <time>2016-05-06T08:55:35Z</time>
      </trkpt>
      <trkpt lat="45.63123" lon="6.86747">
        <ele>1880.2</ele>
        <time>2016-05-06T08:55:37Z</time>
      </trkpt>
      <trkpt lat="45.63124" lon="6.86748">
        <ele>1880.4</ele>
        <time>2016-05-06T08:55:39Z</time>
      </trkpt>
      <trkpt lat="45.63126" lon="6.86749">
        <ele>1880.5</ele>
        <time>2016-05-06T08:55:41Z</time>
      </trkpt>
      <trkpt lat="45.63127" lon="6.86751">
        <ele>1880.4</ele>
        <time>2016-05-06T08:55:43Z</time>
      </trkpt>
      <trkpt lat="45.63129" lon="6.86752">
        <ele>1880.3</ele>
        <time>2016-05-06T08:55:45Z</time>
      </trkpt>
      <trkpt lat="45.63131" lon="6.86754">
        <ele>1880.2</ele>
        <time>2016-05-06T08:55:47Z</time>
      </trkpt>
      <trkpt lat="45.63132" lon="6.86756">
        <ele>1880.5</ele>
        <time>2016-05-06T08:55:49Z</time>
      </trkpt>
      <trkpt lat="45.63134" lon="6.86758">
        <ele>1880.6</ele>
        <time>2016-05-06T08:55:51Z</time>
      </trkpt>
      <trkpt lat="45.63136" lon="6.86759">
        <ele>1881</ele>
        <time>2016-05-06T08:55:53Z</time>
      </trkpt>
      <trkpt lat="45.63137" lon="6.8676">
        <ele>1881.4</ele>
        <time>2016-05-06T08:55:55Z</time>
      </trkpt>
      <trkpt lat="45.63139" lon="6.86762">
        <ele>1881.8</ele>
        <time>2016-05-06T08:55:57Z</time>
      </trkpt>
      <trkpt lat="45.63141" lon="6.86763">
        <ele>1881.7</ele>
        <time>2016-05-06T08:55:59Z</time>
      </trkpt>
      <trkpt lat="45.63143" lon="6.86765">
        <ele>1881.7</ele>
        <time>2016-05-06T08:56:01Z</time>
      </trkpt>
      <trkpt lat="45.63145" lon="6.86766">
        <ele>1881.9</ele>
        <time>2016-05-06T08:56:03Z</time>
      </trkpt>
      <trkpt lat="45.63147" lon="6.86767">
        <ele>1881.6</ele>
        <time>2016-05-06T08:56:05Z</time>
      </trkpt>
      <trkpt lat="45.63148" lon="6.86769">
        <ele>1882.1</ele>
        <time>2016-05-06T08:56:07Z</time>
      </trkpt>
      <trkpt lat="45.6315" lon="6.86769">
        <ele>1882.8</ele>
        <time>2016-05-06T08:56:09Z</time>
      </trkpt>
      <trkpt lat="45.63153" lon="6.8677">
        <ele>1883.6</ele>
        <time>2016-05-06T08:56:11Z</time>
      </trkpt>
      <trkpt lat="45.63154" lon="6.8677">
        <ele>1884.3</ele>
        <time>2016-05-06T08:56:13Z</time>
      </trkpt>
      <trkpt lat="45.63156" lon="6.8677">
        <ele>1885</ele>
        <time>2016-05-06T08:56:15Z</time>
      </trkpt>
      <trkpt lat="45.63157" lon="6.8677">
        <ele>1885.3</ele>
        <time>2016-05-06T08:56:17Z</time>
      </trkpt>
      <trkpt lat="45.63159" lon="6.86771">
        <ele>1885.6</ele>
        <time>2016-05-06T08:56:19Z</time>
      </trkpt>
      <trkpt lat="45.63162" lon="6.86771">
        <ele>1885.6</ele>
        <time>2016-05-06T08:56:21Z</time>
      </trkpt>
      <trkpt lat="45.63164" lon="6.86772">
        <ele>1885.7</ele>
        <time>2016-05-06T08:56:23Z</time>
      </trkpt>
      <trkpt lat="45.63166" lon="6.86773">
        <ele>1886</ele>
        <time>2016-05-06T08:56:25Z</time>
      </trkpt>
      <trkpt lat="45.63168" lon="6.86773">
        <ele>1886.2</ele>
        <time>2016-05-06T08:56:27Z</time>
      </trkpt>
      <trkpt lat="45.6317" lon="6.86773">
        <ele>1887.3</ele>
        <time>2016-05-06T08:56:29Z</time>
      </trkpt>
      <trkpt lat="45.63171" lon="6.86772">
        <ele>1887.9</ele>
        <time>2016-05-06T08:56:31Z</time>
      </trkpt>
      <trkpt lat="45.63173" lon="6.86772">
        <ele>1888.2</ele>
        <time>2016-05-06T08:56:33Z</time>
      </trkpt>
      <trkpt lat="45.63175" lon="6.86773">
        <ele>1888.3</ele>
        <time>2016-05-06T08:56:35Z</time>
      </trkpt>
      <trkpt lat="45.63176" lon="6.86772">
        <ele>1888.1</ele>
        <time>2016-05-06T08:56:37Z</time>
      </trkpt>
      <trkpt lat="45.63178" lon="6.86773">
        <ele>1888.8</ele>
        <time>2016-05-06T08:56:39Z</time>
      </trkpt>
      <trkpt lat="45.6318" lon="6.86773">
        <ele>1889.2</ele>
        <time>2016-05-06T08:56:41Z</time>
      </trkpt>
      <trkpt lat="45.63182" lon="6.86773">
        <ele>1888.6</ele>
        <time>2016-05-06T08:56:43Z</time>
      </trkpt>
      <trkpt lat="45.63182" lon="6.86775">
        <ele>1887.2</ele>
        <time>2016-05-06T08:56:45Z</time>
      </trkpt>
      <trkpt lat="45.63184" lon="6.86775">
        <ele>1887.1</ele>
        <time>2016-05-06T08:56:47Z</time>
      </trkpt>
      <trkpt lat="45.63186" lon="6.86775">
        <ele>1887.6</ele>
        <time>2016-05-06T08:56:49Z</time>
      </trkpt>
      <trkpt lat="45.63188" lon="6.86776">
        <ele>1887.7</ele>
        <time>2016-05-06T08:56:51Z</time>
      </trkpt>
      <trkpt lat="45.6319" lon="6.86776">
        <ele>1887.6</ele>
        <time>2016-05-06T08:56:53Z</time>
      </trkpt>
      <trkpt lat="45.63192" lon="6.86776">
        <ele>1887.7</ele>
        <time>2016-05-06T08:56:55Z</time>
      </trkpt>
      <trkpt lat="45.63194" lon="6.86776">
        <ele>1888.2</ele>
        <time>2016-05-06T08:56:57Z</time>
      </trkpt>
      <trkpt lat="45.63196" lon="6.86775">
        <ele>1888.3</ele>
        <time>2016-05-06T08:56:59Z</time>
      </trkpt>
      <trkpt lat="45.63197" lon="6.86775">
        <ele>1888.2</ele>
        <time>2016-05-06T08:57:01Z</time>
      </trkpt>
      <trkpt lat="45.63199" lon="6.86774">
        <ele>1888.2</ele>
        <time>2016-05-06T08:57:03Z</time>
      </trkpt>
      <trkpt lat="45.63201" lon="6.86774">
        <ele>1888.5</ele>
        <time>2016-05-06T08:57:05Z</time>
      </trkpt>
      <trkpt lat="45.63203" lon="6.86774">
        <ele>1888.6</ele>
        <time>2016-05-06T08:57:07Z</time>
      </trkpt>
      <trkpt lat="45.63205" lon="6.86774">
        <ele>1888.4</ele>
        <time>2016-05-06T08:57:09Z</time>
      </trkpt>
      <trkpt lat="45.63207" lon="6.86774">
        <ele>1888.2</ele>
        <time>2016-05-06T08:57:11Z</time>
      </trkpt>
      <trkpt lat="45.63209" lon="6.86775">
        <ele>1888.2</ele>
        <time>2016-05-06T08:57:13Z</time>
      </trkpt>
      <trkpt lat="45.6321" lon="6.86774">
        <ele>1887.9</ele>
        <time>2016-05-06T08:57:15Z</time>
      </trkpt>
      <trkpt lat="45.63212" lon="6.86775">
        <ele>1888.2</ele>
        <time>2016-05-06T08:57:17Z</time>
      </trkpt>
      <trkpt lat="45.63214" lon="6.86774">
        <ele>1888.4</ele>
        <time>2016-05-06T08:57:19Z</time>
      </trkpt>
      <trkpt lat="45.63216" lon="6.86773">
        <ele>1888.5</ele>
        <time>2016-05-06T08:57:21Z</time>
      </trkpt>
      <trkpt lat="45.63218" lon="6.86774">
        <ele>1888.9</ele>
        <time>2016-05-06T08:57:23Z</time>
      </trkpt>
      <trkpt lat="45.6322" lon="6.86774">
        <ele>1889.5</ele>
        <time>2016-05-06T08:57:25Z</time>
      </trkpt>
      <trkpt lat="45.63221" lon="6.86774">
        <ele>1890.1</ele>
        <time>2016-05-06T08:57:27Z</time>
      </trkpt>
      <trkpt lat="45.63223" lon="6.86774">
        <ele>1890.3</ele>
        <time>2016-05-06T08:57:29Z</time>
      </trkpt>
      <trkpt lat="45.63225" lon="6.86774">
        <ele>1890.6</ele>
        <time>2016-05-06T08:57:31Z</time>
      </trkpt>
      <trkpt lat="45.63227" lon="6.86774">
        <ele>1890.8</ele>
        <time>2016-05-06T08:57:33Z</time>
      </trkpt>
      <trkpt lat="45.63229" lon="6.86775">
        <ele>1891</ele>
        <time>2016-05-06T08:57:35Z</time>
      </trkpt>
      <trkpt lat="45.63231" lon="6.86774">
        <ele>1890.8</ele>
        <time>2016-05-06T08:57:37Z</time>
      </trkpt>
      <trkpt lat="45.63232" lon="6.86773">
        <ele>1890.3</ele>
        <time>2016-05-06T08:57:39Z</time>
      </trkpt>
      <trkpt lat="45.63234" lon="6.86772">
        <ele>1890.3</ele>
        <time>2016-05-06T08:57:41Z</time>
      </trkpt>
      <trkpt lat="45.63236" lon="6.86771">
        <ele>1890.6</ele>
        <time>2016-05-06T08:57:43Z</time>
      </trkpt>
      <trkpt lat="45.63238" lon="6.86771">
        <ele>1890.6</ele>
        <time>2016-05-06T08:57:45Z</time>
      </trkpt>
      <trkpt lat="45.6324" lon="6.86771">
        <ele>1890.3</ele>
        <time>2016-05-06T08:57:47Z</time>
      </trkpt>
      <trkpt lat="45.63243" lon="6.86772">
        <ele>1890.5</ele>
        <time>2016-05-06T08:57:49Z</time>
      </trkpt>
      <trkpt lat="45.63244" lon="6.86772">
        <ele>1890.7</ele>
        <time>2016-05-06T08:57:51Z</time>
      </trkpt>
      <trkpt lat="45.63246" lon="6.86773">
        <ele>1891.1</ele>
        <time>2016-05-06T08:57:53Z</time>
      </trkpt>
      <trkpt lat="45.63248" lon="6.86773">
        <ele>1891.5</ele>
        <time>2016-05-06T08:57:55Z</time>
      </trkpt>
      <trkpt lat="45.63251" lon="6.86774">
        <ele>1891.9</ele>
        <time>2016-05-06T08:57:57Z</time>
      </trkpt>
      <trkpt lat="45.63252" lon="6.86774">
        <ele>1891.9</ele>
        <time>2016-05-06T08:57:59Z</time>
      </trkpt>
      <trkpt lat="45.63254" lon="6.86774">
        <ele>1892.4</ele>
        <time>2016-05-06T08:58:01Z</time>
      </trkpt>
      <trkpt lat="45.63256" lon="6.86775">
        <ele>1892.7</ele>
        <time>2016-05-06T08:58:03Z</time>
      </trkpt>
      <trkpt lat="45.63258" lon="6.86775">
        <ele>1893</ele>
        <time>2016-05-06T08:58:05Z</time>
      </trkpt>
      <trkpt lat="45.6326" lon="6.86776">
        <ele>1892.9</ele>
        <time>2016-05-06T08:58:07Z</time>
      </trkpt>
      <trkpt lat="45.63262" lon="6.86776">
        <ele>1893.1</ele>
        <time>2016-05-06T08:58:09Z</time>
      </trkpt>
      <trkpt lat="45.63264" lon="6.86778">
        <ele>1892.8</ele>
        <time>2016-05-06T08:58:11Z</time>
      </trkpt>
      <trkpt lat="45.63266" lon="6.86778">
        <ele>1892.6</ele>
        <time>2016-05-06T08:58:13Z</time>
      </trkpt>
      <trkpt lat="45.63268" lon="6.86778">
        <ele>1892.8</ele>
        <time>2016-05-06T08:58:15Z</time>
      </trkpt>
      <trkpt lat="45.6327" lon="6.8678">
        <ele>1893.1</ele>
        <time>2016-05-06T08:58:17Z</time>
      </trkpt>
      <trkpt lat="45.63271" lon="6.8678">
        <ele>1892.8</ele>
        <time>2016-05-06T08:58:19Z</time>
      </trkpt>
      <trkpt lat="45.63273" lon="6.86781">
        <ele>1892.9</ele>
        <time>2016-05-06T08:58:21Z</time>
      </trkpt>
      <trkpt lat="45.63274" lon="6.86782">
        <ele>1893.6</ele>
        <time>2016-05-06T08:58:23Z</time>
      </trkpt>
      <trkpt lat="45.63276" lon="6.86783">
        <ele>1893.7</ele>
        <time>2016-05-06T08:58:25Z</time>
      </trkpt>
      <trkpt lat="45.63278" lon="6.86784">
        <ele>1893.7</ele>
        <time>2016-05-06T08:58:27Z</time>
      </trkpt>
      <trkpt lat="45.6328" lon="6.86786">
        <ele>1893.7</ele>
        <time>2016-05-06T08:58:29Z</time>
      </trkpt>
      <trkpt lat="45.63282" lon="6.86786">
        <ele>1893.6</ele>
        <time>2016-05-06T08:58:31Z</time>
      </trkpt>
      <trkpt lat="45.63283" lon="6.86787">
        <ele>1893.9</ele>
        <time>2016-05-06T08:58:33Z</time>
      </trkpt>
      <trkpt lat="45.63285" lon="6.86788">
        <ele>1893.7</ele>
        <time>2016-05-06T08:58:35Z</time>
      </trkpt>
      <trkpt lat="45.63286" lon="6.86789">
        <ele>1893.8</ele>
        <time>2016-05-06T08:58:37Z</time>
      </trkpt>
      <trkpt lat="45.63288" lon="6.8679">
        <ele>1893.8</ele>
        <time>2016-05-06T08:58:39Z</time>
      </trkpt>
      <trkpt lat="45.6329" lon="6.86792">
        <ele>1894.3</ele>
        <time>2016-05-06T08:58:41Z</time>
      </trkpt>
      <trkpt lat="45.63292" lon="6.86792">
        <ele>1894.7</ele>
        <time>2016-05-06T08:58:43Z</time>
      </trkpt>
      <trkpt lat="45.63294" lon="6.86793">
        <ele>1894.8</ele>
        <time>2016-05-06T08:58:45Z</time>
      </trkpt>
      <trkpt lat="45.63296" lon="6.86794">
        <ele>1894.9</ele>
        <time>2016-05-06T08:58:47Z</time>
      </trkpt>
      <trkpt lat="45.63297" lon="6.86795">
        <ele>1895</ele>
        <time>2016-05-06T08:58:49Z</time>
      </trkpt>
      <trkpt lat="45.63299" lon="6.86796">
        <ele>1895.1</ele>
        <time>2016-05-06T08:58:51Z</time>
      </trkpt>
      <trkpt lat="45.63301" lon="6.86797">
        <ele>1895.1</ele>
        <time>2016-05-06T08:58:53Z</time>
      </trkpt>
      <trkpt lat="45.63303" lon="6.86798">
        <ele>1895.3</ele>
        <time>2016-05-06T08:58:55Z</time>
      </trkpt>
      <trkpt lat="45.63306" lon="6.86799">
        <ele>1895.5</ele>
        <time>2016-05-06T08:58:57Z</time>
      </trkpt>
      <trkpt lat="45.63308" lon="6.868">
        <ele>1895.6</ele>
        <time>2016-05-06T08:58:59Z</time>
      </trkpt>
      <trkpt lat="45.63309" lon="6.86801">
        <ele>1895.7</ele>
        <time>2016-05-06T08:59:01Z</time>
      </trkpt>
      <trkpt lat="45.63311" lon="6.86802">
        <ele>1896.1</ele>
        <time>2016-05-06T08:59:03Z</time>
      </trkpt>
      <trkpt lat="45.63312" lon="6.86803">
        <ele>1896.3</ele>
        <time>2016-05-06T08:59:05Z</time>
      </trkpt>
      <trkpt lat="45.63314" lon="6.86804">
        <ele>1896.9</ele>
        <time>2016-05-06T08:59:07Z</time>
      </trkpt>
      <trkpt lat="45.63316" lon="6.86805">
        <ele>1897.4</ele>
        <time>2016-05-06T08:59:09Z</time>
      </trkpt>
      <trkpt lat="45.63317" lon="6.86806">
        <ele>1897.8</ele>
        <time>2016-05-06T08:59:11Z</time>
      </trkpt>
      <trkpt lat="45.63319" lon="6.86807">
        <ele>1898</ele>
        <time>2016-05-06T08:59:13Z</time>
      </trkpt>
      <trkpt lat="45.63321" lon="6.86808">
        <ele>1898.3</ele>
        <time>2016-05-06T08:59:15Z</time>
      </trkpt>
      <trkpt lat="45.63323" lon="6.86808">
        <ele>1898.8</ele>
        <time>2016-05-06T08:59:17Z</time>
      </trkpt>
      <trkpt lat="45.63325" lon="6.8681">
        <ele>1899.1</ele>
        <time>2016-05-06T08:59:19Z</time>
      </trkpt>
      <trkpt lat="45.63326" lon="6.8681">
        <ele>1899.2</ele>
        <time>2016-05-06T08:59:21Z</time>
      </trkpt>
      <trkpt lat="45.63329" lon="6.8681">
        <ele>1899.3</ele>
        <time>2016-05-06T08:59:23Z</time>
      </trkpt>
      <trkpt lat="45.63331" lon="6.8681">
        <ele>1899.7</ele>
        <time>2016-05-06T08:59:25Z</time>
      </trkpt>
      <trkpt lat="45.63333" lon="6.8681">
        <ele>1900.3</ele>
        <time>2016-05-06T08:59:27Z</time>
      </trkpt>
      <trkpt lat="45.63334" lon="6.86811">
        <ele>1900.8</ele>
        <time>2016-05-06T08:59:29Z</time>
      </trkpt>
      <trkpt lat="45.63335" lon="6.86811">
        <ele>1900.8</ele>
        <time>2016-05-06T08:59:31Z</time>
      </trkpt>
      <trkpt lat="45.63337" lon="6.86811">
        <ele>1900.7</ele>
        <time>2016-05-06T08:59:33Z</time>
      </trkpt>
      <trkpt lat="45.63339" lon="6.86811">
        <ele>1901.3</ele>
        <time>2016-05-06T08:59:35Z</time>
      </trkpt>
      <trkpt lat="45.63341" lon="6.86811">
        <ele>1901.2</ele>
        <time>2016-05-06T08:59:37Z</time>
      </trkpt>
      <trkpt lat="45.63344" lon="6.86811">
        <ele>1901.7</ele>
        <time>2016-05-06T08:59:39Z</time>
      </trkpt>
      <trkpt lat="45.63345" lon="6.86811">
        <ele>1901.9</ele>
        <time>2016-05-06T08:59:41Z</time>
      </trkpt>
      <trkpt lat="45.63348" lon="6.86813">
        <ele>1901.8</ele>
        <time>2016-05-06T08:59:43Z</time>
      </trkpt>
      <trkpt lat="45.6335" lon="6.86813">
        <ele>1901.5</ele>
        <time>2016-05-06T08:59:45Z</time>
      </trkpt>
      <trkpt lat="45.63352" lon="6.86813">
        <ele>1902</ele>
        <time>2016-05-06T08:59:47Z</time>
      </trkpt>
      <trkpt lat="45.63354" lon="6.86814">
        <ele>1901.9</ele>
        <time>2016-05-06T08:59:49Z</time>
      </trkpt>
      <trkpt lat="45.63356" lon="6.86814">
        <ele>1902.3</ele>
        <time>2016-05-06T08:59:51Z</time>
      </trkpt>
      <trkpt lat="45.63358" lon="6.86815">
        <ele>1902.3</ele>
        <time>2016-05-06T08:59:53Z</time>
      </trkpt>
      <trkpt lat="45.63361" lon="6.86815">
        <ele>1902.8</ele>
        <time>2016-05-06T08:59:55Z</time>
      </trkpt>
      <trkpt lat="45.63363" lon="6.86815">
        <ele>1902.7</ele>
        <time>2016-05-06T08:59:57Z</time>
      </trkpt>
      <trkpt lat="45.63365" lon="6.86815">
        <ele>1903.2</ele>
        <time>2016-05-06T08:59:59Z</time>
      </trkpt>
      <trkpt lat="45.63367" lon="6.86815">
        <ele>1903.4</ele>
        <time>2016-05-06T09:00:01Z</time>
      </trkpt>
      <trkpt lat="45.63369" lon="6.86816">
        <ele>1903.7</ele>
        <time>2016-05-06T09:00:03Z</time>
      </trkpt>
      <trkpt lat="45.63371" lon="6.86816">
        <ele>1903.8</ele>
        <time>2016-05-06T09:00:05Z</time>
      </trkpt>
      <trkpt lat="45.63373" lon="6.86817">
        <ele>1903.9</ele>
        <time>2016-05-06T09:00:07Z</time>
      </trkpt>
      <trkpt lat="45.63375" lon="6.86817">
        <ele>1903.9</ele>
        <time>2016-05-06T09:00:09Z</time>
      </trkpt>
      <trkpt lat="45.63377" lon="6.86817">
        <ele>1904.6</ele>
        <time>2016-05-06T09:00:11Z</time>
      </trkpt>
      <trkpt lat="45.63379" lon="6.86817">
        <ele>1904.9</ele>
        <time>2016-05-06T09:00:13Z</time>
      </trkpt>
      <trkpt lat="45.63381" lon="6.86817">
        <ele>1905</ele>
        <time>2016-05-06T09:00:15Z</time>
      </trkpt>
      <trkpt lat="45.63383" lon="6.86817">
        <ele>1905.3</ele>
        <time>2016-05-06T09:00:17Z</time>
      </trkpt>
      <trkpt lat="45.63385" lon="6.86817">
        <ele>1905.4</ele>
        <time>2016-05-06T09:00:19Z</time>
      </trkpt>
      <trkpt lat="45.63387" lon="6.86818">
        <ele>1905.6</ele>
        <time>2016-05-06T09:00:21Z</time>
      </trkpt>
      <trkpt lat="45.63389" lon="6.86817">
        <ele>1906.1</ele>
        <time>2016-05-06T09:00:23Z</time>
      </trkpt>
      <trkpt lat="45.63391" lon="6.86817">
        <ele>1907.6</ele>
        <time>2016-05-06T09:00:25Z</time>
      </trkpt>
      <trkpt lat="45.63393" lon="6.86817">
        <ele>1907.7</ele>
        <time>2016-05-06T09:00:27Z</time>
      </trkpt>
      <trkpt lat="45.63395" lon="6.86818">
        <ele>1908.4</ele>
        <time>2016-05-06T09:00:29Z</time>
      </trkpt>
      <trkpt lat="45.63397" lon="6.86818">
        <ele>1908.5</ele>
        <time>2016-05-06T09:00:31Z</time>
      </trkpt>
      <trkpt lat="45.63399" lon="6.86819">
        <ele>1908.6</ele>
        <time>2016-05-06T09:00:33Z</time>
      </trkpt>
      <trkpt lat="45.63401" lon="6.86819">
        <ele>1908.9</ele>
        <time>2016-05-06T09:00:35Z</time>
      </trkpt>
      <trkpt lat="45.63403" lon="6.8682">
        <ele>1908.5</ele>
        <time>2016-05-06T09:00:37Z</time>
      </trkpt>
      <trkpt lat="45.63405" lon="6.86821">
        <ele>1908.7</ele>
        <time>2016-05-06T09:00:39Z</time>
      </trkpt>
      <trkpt lat="45.63406" lon="6.86822">
        <ele>1909.2</ele>
        <time>2016-05-06T09:00:41Z</time>
      </trkpt>
      <trkpt lat="45.63408" lon="6.86823">
        <ele>1909</ele>
        <time>2016-05-06T09:00:43Z</time>
      </trkpt>
      <trkpt lat="45.6341" lon="6.86823">
        <ele>1908.5</ele>
        <time>2016-05-06T09:00:45Z</time>
      </trkpt>
      <trkpt lat="45.63412" lon="6.86824">
        <ele>1908.1</ele>
        <time>2016-05-06T09:00:47Z</time>
      </trkpt>
      <trkpt lat="45.63414" lon="6.86825">
        <ele>1908.7</ele>
        <time>2016-05-06T09:00:49Z</time>
      </trkpt>
      <trkpt lat="45.63415" lon="6.86825">
        <ele>1908.9</ele>
        <time>2016-05-06T09:00:51Z</time>
      </trkpt>
      <trkpt lat="45.63417" lon="6.86826">
        <ele>1909.4</ele>
        <time>2016-05-06T09:00:53Z</time>
      </trkpt>
      <trkpt lat="45.63418" lon="6.86826">
        <ele>1910.1</ele>
        <time>2016-05-06T09:00:55Z</time>
      </trkpt>
      <trkpt lat="45.6342" lon="6.86827">
        <ele>1910.5</ele>
        <time>2016-05-06T09:00:57Z</time>
      </trkpt>
      <trkpt lat="45.63422" lon="6.86827">
        <ele>1910.7</ele>
        <time>2016-05-06T09:00:59Z</time>
      </trkpt>
      <trkpt lat="45.63424" lon="6.86828">
        <ele>1911.5</ele>
        <time>2016-05-06T09:01:01Z</time>
      </trkpt>
      <trkpt lat="45.63426" lon="6.86827">
        <ele>1911.2</ele>
        <time>2016-05-06T09:01:03Z</time>
      </trkpt>
      <trkpt lat="45.63428" lon="6.86827">
        <ele>1911.4</ele>
        <time>2016-05-06T09:01:05Z</time>
      </trkpt>
      <trkpt lat="45.63431" lon="6.86826">
        <ele>1911.7</ele>
        <time>2016-05-06T09:01:07Z</time>
      </trkpt>
      <trkpt lat="45.63433" lon="6.86825">
        <ele>1911.8</ele>
        <time>2016-05-06T09:01:09Z</time>
      </trkpt>
      <trkpt lat="45.63434" lon="6.86825">
        <ele>1912.4</ele>
        <time>2016-05-06T09:01:11Z</time>
      </trkpt>
      <trkpt lat="45.63436" lon="6.86824">
        <ele>1912.7</ele>
        <time>2016-05-06T09:01:13Z</time>
      </trkpt>
      <trkpt lat="45.63438" lon="6.86823">
        <ele>1913.7</ele>
        <time>2016-05-06T09:01:15Z</time>
      </trkpt>
      <trkpt lat="45.6344" lon="6.86823">
        <ele>1914</ele>
        <time>2016-05-06T09:01:17Z</time>
      </trkpt>
      <trkpt lat="45.63442" lon="6.86822">
        <ele>1913.8</ele>
        <time>2016-05-06T09:01:19Z</time>
      </trkpt>
      <trkpt lat="45.63444" lon="6.86821">
        <ele>1913.5</ele>
        <time>2016-05-06T09:01:21Z</time>
      </trkpt>
      <trkpt lat="45.63446" lon="6.86821">
        <ele>1913.1</ele>
        <time>2016-05-06T09:01:23Z</time>
      </trkpt>
      <trkpt lat="45.63447" lon="6.86821">
        <ele>1913.8</ele>
        <time>2016-05-06T09:01:25Z</time>
      </trkpt>
      <trkpt lat="45.63449" lon="6.8682">
        <ele>1914.2</ele>
        <time>2016-05-06T09:01:27Z</time>
      </trkpt>
      <trkpt lat="45.63451" lon="6.8682">
        <ele>1913.2</ele>
        <time>2016-05-06T09:01:29Z</time>
      </trkpt>
      <trkpt lat="45.63453" lon="6.86819">
        <ele>1912.4</ele>
        <time>2016-05-06T09:01:31Z</time>
      </trkpt>
      <trkpt lat="45.63455" lon="6.86818">
        <ele>1911.7</ele>
        <time>2016-05-06T09:01:33Z</time>
      </trkpt>
      <trkpt lat="45.63457" lon="6.86818">
        <ele>1911</ele>
        <time>2016-05-06T09:01:35Z</time>
      </trkpt>
      <trkpt lat="45.63459" lon="6.86817">
        <ele>1910.5</ele>
        <time>2016-05-06T09:01:37Z</time>
      </trkpt>
      <trkpt lat="45.63461" lon="6.86817">
        <ele>1910.8</ele>
        <time>2016-05-06T09:01:39Z</time>
      </trkpt>
      <trkpt lat="45.63463" lon="6.86817">
        <ele>1910.9</ele>
        <time>2016-05-06T09:01:41Z</time>
      </trkpt>
      <trkpt lat="45.63466" lon="6.86817">
        <ele>1910.8</ele>
        <time>2016-05-06T09:01:43Z</time>
      </trkpt>
      <trkpt lat="45.63468" lon="6.86816">
        <ele>1911.4</ele>
        <time>2016-05-06T09:01:45Z</time>
      </trkpt>
      <trkpt lat="45.6347" lon="6.86816">
        <ele>1911.5</ele>
        <time>2016-05-06T09:01:47Z</time>
      </trkpt>
      <trkpt lat="45.63472" lon="6.86816">
        <ele>1911.3</ele>
        <time>2016-05-06T09:01:49Z</time>
      </trkpt>
      <trkpt lat="45.63474" lon="6.86815">
        <ele>1911.1</ele>
        <time>2016-05-06T09:01:51Z</time>
      </trkpt>
      <trkpt lat="45.63476" lon="6.86815">
        <ele>1910.9</ele>
        <time>2016-05-06T09:01:53Z</time>
      </trkpt>
      <trkpt lat="45.63478" lon="6.86816">
        <ele>1911.4</ele>
        <time>2016-05-06T09:01:55Z</time>
      </trkpt>
      <trkpt lat="45.6348" lon="6.86815">
        <ele>1910.6</ele>
        <time>2016-05-06T09:01:57Z</time>
      </trkpt>
      <trkpt lat="45.63482" lon="6.86816">
        <ele>1910.6</ele>
        <time>2016-05-06T09:01:59Z</time>
      </trkpt>
      <trkpt lat="45.63484" lon="6.86816">
        <ele>1911.1</ele>
        <time>2016-05-06T09:02:01Z</time>
      </trkpt>
      <trkpt lat="45.63486" lon="6.86816">
        <ele>1911.2</ele>
        <time>2016-05-06T09:02:03Z</time>
      </trkpt>
      <trkpt lat="45.63488" lon="6.86816">
        <ele>1911.3</ele>
        <time>2016-05-06T09:02:05Z</time>
      </trkpt>
      <trkpt lat="45.6349" lon="6.86815">
        <ele>1911.6</ele>
        <time>2016-05-06T09:02:07Z</time>
      </trkpt>
      <trkpt lat="45.63492" lon="6.86816">
        <ele>1911.9</ele>
        <time>2016-05-06T09:02:09Z</time>
      </trkpt>
      <trkpt lat="45.63495" lon="6.86816">
        <ele>1911.8</ele>
        <time>2016-05-06T09:02:11Z</time>
      </trkpt>
      <trkpt lat="45.63497" lon="6.86818">
        <ele>1911.5</ele>
        <time>2016-05-06T09:02:13Z</time>
      </trkpt>
      <trkpt lat="45.63499" lon="6.86818">
        <ele>1911.3</ele>
        <time>2016-05-06T09:02:15Z</time>
      </trkpt>
      <trkpt lat="45.63501" lon="6.8682">
        <ele>1911.9</ele>
        <time>2016-05-06T09:02:17Z</time>
      </trkpt>
      <trkpt lat="45.63503" lon="6.86821">
        <ele>1912.5</ele>
        <time>2016-05-06T09:02:19Z</time>
      </trkpt>
      <trkpt lat="45.63504" lon="6.86822">
        <ele>1912.8</ele>
        <time>2016-05-06T09:02:21Z</time>
      </trkpt>
      <trkpt lat="45.63506" lon="6.86823">
        <ele>1913.3</ele>
        <time>2016-05-06T09:02:23Z</time>
      </trkpt>
      <trkpt lat="45.63508" lon="6.86824">
        <ele>1913.9</ele>
        <time>2016-05-06T09:02:25Z</time>
      </trkpt>
      <trkpt lat="45.6351" lon="6.86825">
        <ele>1914.3</ele>
        <time>2016-05-06T09:02:27Z</time>
      </trkpt>
      <trkpt lat="45.63511" lon="6.86826">
        <ele>1914</ele>
        <time>2016-05-06T09:02:29Z</time>
      </trkpt>
      <trkpt lat="45.63513" lon="6.86827">
        <ele>1913.9</ele>
        <time>2016-05-06T09:02:31Z</time>
      </trkpt>
      <trkpt lat="45.63516" lon="6.86829">
        <ele>1913.7</ele>
        <time>2016-05-06T09:02:33Z</time>
      </trkpt>
      <trkpt lat="45.63518" lon="6.8683">
        <ele>1914</ele>
        <time>2016-05-06T09:02:35Z</time>
      </trkpt>
      <trkpt lat="45.6352" lon="6.86831">
        <ele>1914.1</ele>
        <time>2016-05-06T09:02:37Z</time>
      </trkpt>
      <trkpt lat="45.63522" lon="6.86832">
        <ele>1914.2</ele>
        <time>2016-05-06T09:02:39Z</time>
      </trkpt>
      <trkpt lat="45.63524" lon="6.86832">
        <ele>1914.4</ele>
        <time>2016-05-06T09:02:41Z</time>
      </trkpt>
      <trkpt lat="45.63527" lon="6.86833">
        <ele>1914.6</ele>
        <time>2016-05-06T09:02:43Z</time>
      </trkpt>
      <trkpt lat="45.63528" lon="6.86833">
        <ele>1914.8</ele>
        <time>2016-05-06T09:02:45Z</time>
      </trkpt>
      <trkpt lat="45.63531" lon="6.86834">
        <ele>1915.2</ele>
        <time>2016-05-06T09:02:47Z</time>
      </trkpt>
      <trkpt lat="45.63533" lon="6.86834">
        <ele>1915.4</ele>
        <time>2016-05-06T09:02:49Z</time>
      </trkpt>
      <trkpt lat="45.63535" lon="6.86835">
        <ele>1914.8</ele>
        <time>2016-05-06T09:02:51Z</time>
      </trkpt>
      <trkpt lat="45.63537" lon="6.86835">
        <ele>1914.4</ele>
        <time>2016-05-06T09:02:53Z</time>
      </trkpt>
      <trkpt lat="45.63539" lon="6.86836">
        <ele>1914.2</ele>
        <time>2016-05-06T09:02:55Z</time>
      </trkpt>
      <trkpt lat="45.6354" lon="6.86836">
        <ele>1914.2</ele>
        <time>2016-05-06T09:02:57Z</time>
      </trkpt>
      <trkpt lat="45.63543" lon="6.86837">
        <ele>1914.7</ele>
        <time>2016-05-06T09:02:59Z</time>
      </trkpt>
      <trkpt lat="45.63545" lon="6.86837">
        <ele>1915</ele>
        <time>2016-05-06T09:03:01Z</time>
      </trkpt>
      <trkpt lat="45.63547" lon="6.86838">
        <ele>1915.4</ele>
        <time>2016-05-06T09:03:03Z</time>
      </trkpt>
      <trkpt lat="45.63549" lon="6.86838">
        <ele>1915.2</ele>
        <time>2016-05-06T09:03:05Z</time>
      </trkpt>
      <trkpt lat="45.63552" lon="6.86839">
        <ele>1915.4</ele>
        <time>2016-05-06T09:03:07Z</time>
      </trkpt>
      <trkpt lat="45.63553" lon="6.8684">
        <ele>1915.3</ele>
        <time>2016-05-06T09:03:09Z</time>
      </trkpt>
      <trkpt lat="45.63555" lon="6.86842">
        <ele>1915.7</ele>
        <time>2016-05-06T09:03:11Z</time>
      </trkpt>
      <trkpt lat="45.63557" lon="6.86841">
        <ele>1915.5</ele>
        <time>2016-05-06T09:03:13Z</time>
      </trkpt>
      <trkpt lat="45.63559" lon="6.86843">
        <ele>1915.5</ele>
        <time>2016-05-06T09:03:15Z</time>
      </trkpt>
      <trkpt lat="45.6356" lon="6.86845">
        <ele>1915.3</ele>
        <time>2016-05-06T09:03:17Z</time>
      </trkpt>
      <trkpt lat="45.63562" lon="6.86847">
        <ele>1915.6</ele>
        <time>2016-05-06T09:03:19Z</time>
      </trkpt>
      <trkpt lat="45.63563" lon="6.86849">
        <ele>1915.3</ele>
        <time>2016-05-06T09:03:21Z</time>
      </trkpt>
      <trkpt lat="45.63565" lon="6.86851">
        <ele>1915.3</ele>
        <time>2016-05-06T09:03:23Z</time>
      </trkpt>
      <trkpt lat="45.63566" lon="6.86853">
        <ele>1915.2</ele>
        <time>2016-05-06T09:03:25Z</time>
      </trkpt>
      <trkpt lat="45.63568" lon="6.86856">
        <ele>1915.6</ele>
        <time>2016-05-06T09:03:27Z</time>
      </trkpt>
      <trkpt lat="45.63569" lon="6.86859">
        <ele>1915.7</ele>
        <time>2016-05-06T09:03:29Z</time>
      </trkpt>
      <trkpt lat="45.63569" lon="6.86862">
        <ele>1915.8</ele>
        <time>2016-05-06T09:03:31Z</time>
      </trkpt>
      <trkpt lat="45.6357" lon="6.86864">
        <ele>1915.7</ele>
        <time>2016-05-06T09:03:33Z</time>
      </trkpt>
      <trkpt lat="45.63571" lon="6.86868">
        <ele>1915.8</ele>
        <time>2016-05-06T09:03:35Z</time>
      </trkpt>
      <trkpt lat="45.63571" lon="6.86871">
        <ele>1915.6</ele>
        <time>2016-05-06T09:03:37Z</time>
      </trkpt>
      <trkpt lat="45.63573" lon="6.86874">
        <ele>1915.9</ele>
        <time>2016-05-06T09:03:39Z</time>
      </trkpt>
      <trkpt lat="45.63574" lon="6.86877">
        <ele>1916.2</ele>
        <time>2016-05-06T09:03:41Z</time>
      </trkpt>
      <trkpt lat="45.63575" lon="6.86879">
        <ele>1916.1</ele>
        <time>2016-05-06T09:03:43Z</time>
      </trkpt>
      <trkpt lat="45.63575" lon="6.86882">
        <ele>1916.1</ele>
        <time>2016-05-06T09:03:45Z</time>
      </trkpt>
      <trkpt lat="45.63576" lon="6.86885">
        <ele>1916.4</ele>
        <time>2016-05-06T09:03:47Z</time>
      </trkpt>
      <trkpt lat="45.63577" lon="6.86888">
        <ele>1916.7</ele>
        <time>2016-05-06T09:03:49Z</time>
      </trkpt>
      <trkpt lat="45.63577" lon="6.86891">
        <ele>1917.1</ele>
        <time>2016-05-06T09:03:51Z</time>
      </trkpt>
      <trkpt lat="45.63578" lon="6.86894">
        <ele>1917.5</ele>
        <time>2016-05-06T09:03:53Z</time>
      </trkpt>
      <trkpt lat="45.63579" lon="6.86897">
        <ele>1917.7</ele>
        <time>2016-05-06T09:03:55Z</time>
      </trkpt>
      <trkpt lat="45.6358" lon="6.869">
        <ele>1917.8</ele>
        <time>2016-05-06T09:03:57Z</time>
      </trkpt>
      <trkpt lat="45.6358" lon="6.86902">
        <ele>1918</ele>
        <time>2016-05-06T09:03:59Z</time>
      </trkpt>
      <trkpt lat="45.63581" lon="6.86906">
        <ele>1918.3</ele>
        <time>2016-05-06T09:04:01Z</time>
      </trkpt>
      <trkpt lat="45.63583" lon="6.86908">
        <ele>1918.7</ele>
        <time>2016-05-06T09:04:03Z</time>
      </trkpt>
      <trkpt lat="45.63583" lon="6.86911">
        <ele>1919.1</ele>
        <time>2016-05-06T09:04:05Z</time>
      </trkpt>
      <trkpt lat="45.63584" lon="6.86913">
        <ele>1919.4</ele>
        <time>2016-05-06T09:04:07Z</time>
      </trkpt>
      <trkpt lat="45.63585" lon="6.86915">
        <ele>1919.7</ele>
        <time>2016-05-06T09:04:09Z</time>
      </trkpt>
      <trkpt lat="45.63587" lon="6.86917">
        <ele>1919.8</ele>
        <time>2016-05-06T09:04:11Z</time>
      </trkpt>
      <trkpt lat="45.63587" lon="6.86919">
        <ele>1920.6</ele>
        <time>2016-05-06T09:04:13Z</time>
      </trkpt>
      <trkpt lat="45.63589" lon="6.86921">
        <ele>1920.7</ele>
        <time>2016-05-06T09:04:15Z</time>
      </trkpt>
      <trkpt lat="45.6359" lon="6.86923">
        <ele>1920.9</ele>
        <time>2016-05-06T09:04:17Z</time>
      </trkpt>
      <trkpt lat="45.6359" lon="6.86925">
        <ele>1920.9</ele>
        <time>2016-05-06T09:04:19Z</time>
      </trkpt>
      <trkpt lat="45.63592" lon="6.86927">
        <ele>1921.8</ele>
        <time>2016-05-06T09:04:21Z</time>
      </trkpt>
      <trkpt lat="45.63593" lon="6.86929">
        <ele>1922.2</ele>
        <time>2016-05-06T09:04:23Z</time>
      </trkpt>
      <trkpt lat="45.63595" lon="6.8693">
        <ele>1922.1</ele>
        <time>2016-05-06T09:04:25Z</time>
      </trkpt>
      <trkpt lat="45.63596" lon="6.86932">
        <ele>1921.6</ele>
        <time>2016-05-06T09:04:27Z</time>
      </trkpt>
      <trkpt lat="45.63597" lon="6.86932">
        <ele>1922.7</ele>
        <time>2016-05-06T09:04:29Z</time>
      </trkpt>
      <trkpt lat="45.63599" lon="6.86933">
        <ele>1922.4</ele>
        <time>2016-05-06T09:04:31Z</time>
      </trkpt>
      <trkpt lat="45.636" lon="6.86934">
        <ele>1923</ele>
        <time>2016-05-06T09:04:33Z</time>
      </trkpt>
      <trkpt lat="45.63602" lon="6.86935">
        <ele>1922.9</ele>
        <time>2016-05-06T09:04:35Z</time>
      </trkpt>
      <trkpt lat="45.63604" lon="6.86937">
        <ele>1922.9</ele>
        <time>2016-05-06T09:04:37Z</time>
      </trkpt>
      <trkpt lat="45.63607" lon="6.86937">
        <ele>1923</ele>
        <time>2016-05-06T09:04:39Z</time>
      </trkpt>
      <trkpt lat="45.63608" lon="6.86939">
        <ele>1923.9</ele>
        <time>2016-05-06T09:04:41Z</time>
      </trkpt>
      <trkpt lat="45.6361" lon="6.8694">
        <ele>1924.3</ele>
        <time>2016-05-06T09:04:43Z</time>
      </trkpt>
      <trkpt lat="45.63611" lon="6.86941">
        <ele>1924.4</ele>
        <time>2016-05-06T09:04:45Z</time>
      </trkpt>
      <trkpt lat="45.63613" lon="6.86941">
        <ele>1924.7</ele>
        <time>2016-05-06T09:04:47Z</time>
      </trkpt>
      <trkpt lat="45.63614" lon="6.86943">
        <ele>1925</ele>
        <time>2016-05-06T09:04:49Z</time>
      </trkpt>
      <trkpt lat="45.63615" lon="6.86944">
        <ele>1925.1</ele>
        <time>2016-05-06T09:04:51Z</time>
      </trkpt>
      <trkpt lat="45.63616" lon="6.86945">
        <ele>1925.8</ele>
        <time>2016-05-06T09:04:53Z</time>
      </trkpt>
      <trkpt lat="45.63618" lon="6.86945">
        <ele>1926.9</ele>
        <time>2016-05-06T09:04:55Z</time>
      </trkpt>
      <trkpt lat="45.6362" lon="6.86946">
        <ele>1928.2</ele>
        <time>2016-05-06T09:04:57Z</time>
      </trkpt>
      <trkpt lat="45.63622" lon="6.86946">
        <ele>1927.6</ele>
        <time>2016-05-06T09:04:59Z</time>
      </trkpt>
      <trkpt lat="45.63623" lon="6.86947">
        <ele>1927.5</ele>
        <time>2016-05-06T09:05:01Z</time>
      </trkpt>
      <trkpt lat="45.63625" lon="6.86947">
        <ele>1927.4</ele>
        <time>2016-05-06T09:05:03Z</time>
      </trkpt>
      <trkpt lat="45.63628" lon="6.86948">
        <ele>1928.3</ele>
        <time>2016-05-06T09:05:05Z</time>
      </trkpt>
      <trkpt lat="45.6363" lon="6.86948">
        <ele>1928.2</ele>
        <time>2016-05-06T09:05:07Z</time>
      </trkpt>
      <trkpt lat="45.63632" lon="6.86948">
        <ele>1929.3</ele>
        <time>2016-05-06T09:05:09Z</time>
      </trkpt>
      <trkpt lat="45.63633" lon="6.86948">
        <ele>1929</ele>
        <time>2016-05-06T09:05:11Z</time>
      </trkpt>
      <trkpt lat="45.63635" lon="6.86949">
        <ele>1929.1</ele>
        <time>2016-05-06T09:05:13Z</time>
      </trkpt>
      <trkpt lat="45.63637" lon="6.86948">
        <ele>1929.5</ele>
        <time>2016-05-06T09:05:15Z</time>
      </trkpt>
      <trkpt lat="45.63639" lon="6.86948">
        <ele>1930.5</ele>
        <time>2016-05-06T09:05:17Z</time>
      </trkpt>
      <trkpt lat="45.6364" lon="6.86948">
        <ele>1930.5</ele>
        <time>2016-05-06T09:05:19Z</time>
      </trkpt>
      <trkpt lat="45.63643" lon="6.86947">
        <ele>1931.6</ele>
        <time>2016-05-06T09:05:21Z</time>
      </trkpt>
      <trkpt lat="45.63644" lon="6.86948">
        <ele>1931.8</ele>
        <time>2016-05-06T09:05:23Z</time>
      </trkpt>
      <trkpt lat="45.63646" lon="6.86948">
        <ele>1932.3</ele>
        <time>2016-05-06T09:05:25Z</time>
      </trkpt>
      <trkpt lat="45.63648" lon="6.86948">
        <ele>1931.8</ele>
        <time>2016-05-06T09:05:27Z</time>
      </trkpt>
      <trkpt lat="45.6365" lon="6.86948">
        <ele>1931.6</ele>
        <time>2016-05-06T09:05:29Z</time>
      </trkpt>
      <trkpt lat="45.63652" lon="6.86948">
        <ele>1931.3</ele>
        <time>2016-05-06T09:05:31Z</time>
      </trkpt>
      <trkpt lat="45.63654" lon="6.86949">
        <ele>1931.7</ele>
        <time>2016-05-06T09:05:33Z</time>
      </trkpt>
      <trkpt lat="45.63655" lon="6.86949">
        <ele>1931.6</ele>
        <time>2016-05-06T09:05:35Z</time>
      </trkpt>
      <trkpt lat="45.63657" lon="6.86949">
        <ele>1931.4</ele>
        <time>2016-05-06T09:05:37Z</time>
      </trkpt>
      <trkpt lat="45.63659" lon="6.86949">
        <ele>1930.8</ele>
        <time>2016-05-06T09:05:39Z</time>
      </trkpt>
      <trkpt lat="45.63661" lon="6.8695">
        <ele>1930.3</ele>
        <time>2016-05-06T09:05:41Z</time>
      </trkpt>
      <trkpt lat="45.63664" lon="6.8695">
        <ele>1930.6</ele>
        <time>2016-05-06T09:05:43Z</time>
      </trkpt>
      <trkpt lat="45.63665" lon="6.86951">
        <ele>1930.2</ele>
        <time>2016-05-06T09:05:45Z</time>
      </trkpt>
      <trkpt lat="45.63668" lon="6.86951">
        <ele>1930.1</ele>
        <time>2016-05-06T09:05:47Z</time>
      </trkpt>
      <trkpt lat="45.63669" lon="6.86952">
        <ele>1930</ele>
        <time>2016-05-06T09:05:49Z</time>
      </trkpt>
      <trkpt lat="45.63671" lon="6.86953">
        <ele>1929.9</ele>
        <time>2016-05-06T09:05:51Z</time>
      </trkpt>
      <trkpt lat="45.63673" lon="6.86953">
        <ele>1929.9</ele>
        <time>2016-05-06T09:05:53Z</time>
      </trkpt>
      <trkpt lat="45.63674" lon="6.86954">
        <ele>1929.6</ele>
        <time>2016-05-06T09:05:55Z</time>
      </trkpt>
      <trkpt lat="45.63676" lon="6.86954">
        <ele>1930.3</ele>
        <time>2016-05-06T09:05:57Z</time>
      </trkpt>
      <trkpt lat="45.63677" lon="6.86955">
        <ele>1931.2</ele>
        <time>2016-05-06T09:05:59Z</time>
      </trkpt>
      <trkpt lat="45.63679" lon="6.86955">
        <ele>1931.8</ele>
        <time>2016-05-06T09:06:01Z</time>
      </trkpt>
      <trkpt lat="45.63681" lon="6.86956">
        <ele>1932.6</ele>
        <time>2016-05-06T09:06:03Z</time>
      </trkpt>
      <trkpt lat="45.63682" lon="6.86956">
        <ele>1933.2</ele>
        <time>2016-05-06T09:06:05Z</time>
      </trkpt>
      <trkpt lat="45.63684" lon="6.86956">
        <ele>1933.5</ele>
        <time>2016-05-06T09:06:07Z</time>
      </trkpt>
      <trkpt lat="45.63685" lon="6.86955">
        <ele>1934</ele>
        <time>2016-05-06T09:06:09Z</time>
      </trkpt>
      <trkpt lat="45.63687" lon="6.86954">
        <ele>1933.9</ele>
        <time>2016-05-06T09:06:11Z</time>
      </trkpt>
      <trkpt lat="45.63689" lon="6.86955">
        <ele>1933</ele>
        <time>2016-05-06T09:06:13Z</time>
      </trkpt>
      <trkpt lat="45.6369" lon="6.86956">
        <ele>1932.7</ele>
        <time>2016-05-06T09:06:15Z</time>
      </trkpt>
      <trkpt lat="45.63692" lon="6.86957">
        <ele>1931.8</ele>
        <time>2016-05-06T09:06:17Z</time>
      </trkpt>
      <trkpt lat="45.63693" lon="6.86958">
        <ele>1932.3</ele>
        <time>2016-05-06T09:06:19Z</time>
      </trkpt>
      <trkpt lat="45.63695" lon="6.86958">
        <ele>1932.4</ele>
        <time>2016-05-06T09:06:21Z</time>
      </trkpt>
      <trkpt lat="45.63697" lon="6.86959">
        <ele>1932.6</ele>
        <time>2016-05-06T09:06:23Z</time>
      </trkpt>
      <trkpt lat="45.63699" lon="6.8696">
        <ele>1932.7</ele>
        <time>2016-05-06T09:06:25Z</time>
      </trkpt>
      <trkpt lat="45.63701" lon="6.8696">
        <ele>1932.9</ele>
        <time>2016-05-06T09:06:27Z</time>
      </trkpt>
      <trkpt lat="45.63702" lon="6.86961">
        <ele>1933</ele>
        <time>2016-05-06T09:06:29Z</time>
      </trkpt>
      <trkpt lat="45.63704" lon="6.86962">
        <ele>1933</ele>
        <time>2016-05-06T09:06:31Z</time>
      </trkpt>
      <trkpt lat="45.63705" lon="6.86963">
        <ele>1932.1</ele>
        <time>2016-05-06T09:06:33Z</time>
      </trkpt>
      <trkpt lat="45.63706" lon="6.86964">
        <ele>1931.7</ele>
        <time>2016-05-06T09:06:35Z</time>
      </trkpt>
      <trkpt lat="45.63708" lon="6.86964">
        <ele>1931.9</ele>
        <time>2016-05-06T09:06:37Z</time>
      </trkpt>
      <trkpt lat="45.6371" lon="6.86964">
        <ele>1933.6</ele>
        <time>2016-05-06T09:06:39Z</time>
      </trkpt>
      <trkpt lat="45.63712" lon="6.86964">
        <ele>1934.8</ele>
        <time>2016-05-06T09:06:41Z</time>
      </trkpt>
      <trkpt lat="45.63713" lon="6.86964">
        <ele>1934.7</ele>
        <time>2016-05-06T09:06:43Z</time>
      </trkpt>
      <trkpt lat="45.63715" lon="6.86964">
        <ele>1935.9</ele>
        <time>2016-05-06T09:06:45Z</time>
      </trkpt>
      <trkpt lat="45.63716" lon="6.86965">
        <ele>1934.6</ele>
        <time>2016-05-06T09:06:47Z</time>
      </trkpt>
      <trkpt lat="45.63717" lon="6.86965">
        <ele>1933.9</ele>
        <time>2016-05-06T09:06:49Z</time>
      </trkpt>
      <trkpt lat="45.63718" lon="6.86965">
        <ele>1934.7</ele>
        <time>2016-05-06T09:06:51Z</time>
      </trkpt>
      <trkpt lat="45.6372" lon="6.86965">
        <ele>1934.7</ele>
        <time>2016-05-06T09:06:53Z</time>
      </trkpt>
      <trkpt lat="45.63721" lon="6.86966">
        <ele>1934.4</ele>
        <time>2016-05-06T09:06:55Z</time>
      </trkpt>
      <trkpt lat="45.63723" lon="6.86966">
        <ele>1933.9</ele>
        <time>2016-05-06T09:06:57Z</time>
      </trkpt>
      <trkpt lat="45.63723" lon="6.86966">
        <ele>1935.1</ele>
        <time>2016-05-06T09:06:59Z</time>
      </trkpt>
      <trkpt lat="45.63724" lon="6.86966">
        <ele>1935.5</ele>
        <time>2016-05-06T09:07:01Z</time>
      </trkpt>
      <trkpt lat="45.63726" lon="6.86966">
        <ele>1936.2</ele>
        <time>2016-05-06T09:07:03Z</time>
      </trkpt>
      <trkpt lat="45.63727" lon="6.86967">
        <ele>1937.2</ele>
        <time>2016-05-06T09:07:05Z</time>
      </trkpt>
      <trkpt lat="45.63729" lon="6.86967">
        <ele>1937.2</ele>
        <time>2016-05-06T09:07:07Z</time>
      </trkpt>
      <trkpt lat="45.6373" lon="6.86968">
        <ele>1937.2</ele>
        <time>2016-05-06T09:07:09Z</time>
      </trkpt>
      <trkpt lat="45.63732" lon="6.86968">
        <ele>1937.4</ele>
        <time>2016-05-06T09:07:11Z</time>
      </trkpt>
      <trkpt lat="45.63734" lon="6.86968">
        <ele>1937.5</ele>
        <time>2016-05-06T09:07:13Z</time>
      </trkpt>
      <trkpt lat="45.63735" lon="6.86969">
        <ele>1937.1</ele>
        <time>2016-05-06T09:07:15Z</time>
      </trkpt>
      <trkpt lat="45.63738" lon="6.86968">
        <ele>1937.6</ele>
        <time>2016-05-06T09:07:17Z</time>
      </trkpt>
      <trkpt lat="45.6374" lon="6.86969">
        <ele>1937.6</ele>
        <time>2016-05-06T09:07:19Z</time>
      </trkpt>
      <trkpt lat="45.63743" lon="6.86969">
        <ele>1937.1</ele>
        <time>2016-05-06T09:07:21Z</time>
      </trkpt>
      <trkpt lat="45.63745" lon="6.86969">
        <ele>1936.3</ele>
        <time>2016-05-06T09:07:23Z</time>
      </trkpt>
      <trkpt lat="45.63747" lon="6.86969">
        <ele>1936.1</ele>
        <time>2016-05-06T09:07:25Z</time>
      </trkpt>
      <trkpt lat="45.6375" lon="6.86969">
        <ele>1935.9</ele>
        <time>2016-05-06T09:07:27Z</time>
      </trkpt>
      <trkpt lat="45.63752" lon="6.8697">
        <ele>1935.4</ele>
        <time>2016-05-06T09:07:29Z</time>
      </trkpt>
      <trkpt lat="45.63755" lon="6.86971">
        <ele>1935</ele>
        <time>2016-05-06T09:07:31Z</time>
      </trkpt>
      <trkpt lat="45.63758" lon="6.86972">
        <ele>1934.7</ele>
        <time>2016-05-06T09:07:33Z</time>
      </trkpt>
      <trkpt lat="45.6376" lon="6.86972">
        <ele>1936</ele>
        <time>2016-05-06T09:07:35Z</time>
      </trkpt>
      <trkpt lat="45.63761" lon="6.86974">
        <ele>1936.5</ele>
        <time>2016-05-06T09:07:37Z</time>
      </trkpt>
      <trkpt lat="45.63761" lon="6.86975">
        <ele>1936.6</ele>
        <time>2016-05-06T09:07:39Z</time>
      </trkpt>
      <trkpt lat="45.6376" lon="6.86972">
        <ele>1936.4</ele>
        <time>2016-05-06T09:07:41Z</time>
      </trkpt>
      <trkpt lat="45.6376" lon="6.86972">
        <ele>1936.2</ele>
        <time>2016-05-06T09:07:43Z</time>
      </trkpt>
      <trkpt lat="45.63761" lon="6.86971">
        <ele>1935.7</ele>
        <time>2016-05-06T09:07:45Z</time>
      </trkpt>
      <trkpt lat="45.63763" lon="6.8697">
        <ele>1936.2</ele>
        <time>2016-05-06T09:07:47Z</time>
      </trkpt>
      <trkpt lat="45.63765" lon="6.86969">
        <ele>1937.3</ele>
        <time>2016-05-06T09:07:49Z</time>
      </trkpt>
      <trkpt lat="45.63768" lon="6.86968">
        <ele>1937.5</ele>
        <time>2016-05-06T09:07:51Z</time>
      </trkpt>
      <trkpt lat="45.6377" lon="6.86968">
        <ele>1937.8</ele>
        <time>2016-05-06T09:07:53Z</time>
      </trkpt>
      <trkpt lat="45.63772" lon="6.86968">
        <ele>1937.6</ele>
        <time>2016-05-06T09:07:55Z</time>
      </trkpt>
      <trkpt lat="45.63774" lon="6.86969">
        <ele>1937.6</ele>
        <time>2016-05-06T09:07:57Z</time>
      </trkpt>
      <trkpt lat="45.63775" lon="6.86969">
        <ele>1937.4</ele>
        <time>2016-05-06T09:07:59Z</time>
      </trkpt>
      <trkpt lat="45.63777" lon="6.86969">
        <ele>1937.7</ele>
        <time>2016-05-06T09:08:01Z</time>
      </trkpt>
      <trkpt lat="45.63779" lon="6.8697">
        <ele>1937.4</ele>
        <time>2016-05-06T09:08:03Z</time>
      </trkpt>
      <trkpt lat="45.63781" lon="6.8697">
        <ele>1938</ele>
        <time>2016-05-06T09:08:05Z</time>
      </trkpt>
      <trkpt lat="45.63783" lon="6.86968">
        <ele>1938.3</ele>
        <time>2016-05-06T09:08:07Z</time>
      </trkpt>
      <trkpt lat="45.63786" lon="6.86968">
        <ele>1938.4</ele>
        <time>2016-05-06T09:08:09Z</time>
      </trkpt>
      <trkpt lat="45.63787" lon="6.86967">
        <ele>1938.4</ele>
        <time>2016-05-06T09:08:11Z</time>
      </trkpt>
      <trkpt lat="45.63789" lon="6.86968">
        <ele>1938.2</ele>
        <time>2016-05-06T09:08:13Z</time>
      </trkpt>
      <trkpt lat="45.63791" lon="6.86967">
        <ele>1937.9</ele>
        <time>2016-05-06T09:08:15Z</time>
      </trkpt>
      <trkpt lat="45.63793" lon="6.86967">
        <ele>1937.9</ele>
        <time>2016-05-06T09:08:17Z</time>
      </trkpt>
      <trkpt lat="45.63795" lon="6.86967">
        <ele>1937.9</ele>
        <time>2016-05-06T09:08:19Z</time>
      </trkpt>
      <trkpt lat="45.63797" lon="6.86968">
        <ele>1937.8</ele>
        <time>2016-05-06T09:08:21Z</time>
      </trkpt>
      <trkpt lat="45.63798" lon="6.86969">
        <ele>1937.6</ele>
        <time>2016-05-06T09:08:23Z</time>
      </trkpt>
      <trkpt lat="45.63801" lon="6.86971">
        <ele>1937.8</ele>
        <time>2016-05-06T09:08:25Z</time>
      </trkpt>
      <trkpt lat="45.63802" lon="6.86973">
        <ele>1937.9</ele>
        <time>2016-05-06T09:08:27Z</time>
      </trkpt>
      <trkpt lat="45.63804" lon="6.86974">
        <ele>1938.1</ele>
        <time>2016-05-06T09:08:29Z</time>
      </trkpt>
      <trkpt lat="45.63806" lon="6.86975">
        <ele>1938.4</ele>
        <time>2016-05-06T09:08:31Z</time>
      </trkpt>
      <trkpt lat="45.63807" lon="6.86977">
        <ele>1938.6</ele>
        <time>2016-05-06T09:08:33Z</time>
      </trkpt>
      <trkpt lat="45.63808" lon="6.86978">
        <ele>1938.7</ele>
        <time>2016-05-06T09:08:35Z</time>
      </trkpt>
      <trkpt lat="45.6381" lon="6.8698">
        <ele>1938.9</ele>
        <time>2016-05-06T09:08:37Z</time>
      </trkpt>
      <trkpt lat="45.63812" lon="6.86981">
        <ele>1939.4</ele>
        <time>2016-05-06T09:08:39Z</time>
      </trkpt>
      <trkpt lat="45.63815" lon="6.86983">
        <ele>1939.9</ele>
        <time>2016-05-06T09:08:41Z</time>
      </trkpt>
      <trkpt lat="45.63816" lon="6.86985">
        <ele>1940.8</ele>
        <time>2016-05-06T09:08:43Z</time>
      </trkpt>
      <trkpt lat="45.63818" lon="6.86986">
        <ele>1940.7</ele>
        <time>2016-05-06T09:08:45Z</time>
      </trkpt>
      <trkpt lat="45.63819" lon="6.86987">
        <ele>1941.2</ele>
        <time>2016-05-06T09:08:47Z</time>
      </trkpt>
      <trkpt lat="45.63821" lon="6.86988">
        <ele>1941.5</ele>
        <time>2016-05-06T09:08:49Z</time>
      </trkpt>
      <trkpt lat="45.63823" lon="6.8699">
        <ele>1941.6</ele>
        <time>2016-05-06T09:08:51Z</time>
      </trkpt>
      <trkpt lat="45.63824" lon="6.86991">
        <ele>1942</ele>
        <time>2016-05-06T09:08:53Z</time>
      </trkpt>
      <trkpt lat="45.63826" lon="6.86992">
        <ele>1942.9</ele>
        <time>2016-05-06T09:08:55Z</time>
      </trkpt>
      <trkpt lat="45.63828" lon="6.86993">
        <ele>1943.2</ele>
        <time>2016-05-06T09:08:57Z</time>
      </trkpt>
      <trkpt lat="45.6383" lon="6.86994">
        <ele>1943.8</ele>
        <time>2016-05-06T09:08:59Z</time>
      </trkpt>
      <trkpt lat="45.63832" lon="6.86995">
        <ele>1943.2</ele>
        <time>2016-05-06T09:09:01Z</time>
      </trkpt>
      <trkpt lat="45.63834" lon="6.86997">
        <ele>1943.2</ele>
        <time>2016-05-06T09:09:03Z</time>
      </trkpt>
      <trkpt lat="45.63836" lon="6.86998">
        <ele>1943.4</ele>
        <time>2016-05-06T09:09:05Z</time>
      </trkpt>
      <trkpt lat="45.63838" lon="6.86999">
        <ele>1944.4</ele>
        <time>2016-05-06T09:09:07Z</time>
      </trkpt>
      <trkpt lat="45.63839" lon="6.87">
        <ele>1944.8</ele>
        <time>2016-05-06T09:09:09Z</time>
      </trkpt>
      <trkpt lat="45.63841" lon="6.87001">
        <ele>1944.7</ele>
        <time>2016-05-06T09:09:11Z</time>
      </trkpt>
      <trkpt lat="45.63842" lon="6.87002">
        <ele>1944.9</ele>
        <time>2016-05-06T09:09:13Z</time>
      </trkpt>
      <trkpt lat="45.63844" lon="6.87003">
        <ele>1944.9</ele>
        <time>2016-05-06T09:09:15Z</time>
      </trkpt>
      <trkpt lat="45.63845" lon="6.87004">
        <ele>1945.1</ele>
        <time>2016-05-06T09:09:17Z</time>
      </trkpt>
      <trkpt lat="45.63847" lon="6.87004">
        <ele>1945.3</ele>
        <time>2016-05-06T09:09:19Z</time>
      </trkpt>
      <trkpt lat="45.6385" lon="6.87004">
        <ele>1945.5</ele>
        <time>2016-05-06T09:09:21Z</time>
      </trkpt>
      <trkpt lat="45.63852" lon="6.87004">
        <ele>1945.7</ele>
        <time>2016-05-06T09:09:23Z</time>
      </trkpt>
      <trkpt lat="45.63854" lon="6.87005">
        <ele>1945.7</ele>
        <time>2016-05-06T09:09:25Z</time>
      </trkpt>
      <trkpt lat="45.63857" lon="6.87005">
        <ele>1945.5</ele>
        <time>2016-05-06T09:09:27Z</time>
      </trkpt>
      <trkpt lat="45.63859" lon="6.87006">
        <ele>1945.5</ele>
        <time>2016-05-06T09:09:29Z</time>
      </trkpt>
      <trkpt lat="45.63862" lon="6.87006">
        <ele>1945.8</ele>
        <time>2016-05-06T09:09:31Z</time>
      </trkpt>
      <trkpt lat="45.63863" lon="6.87007">
        <ele>1946.1</ele>
        <time>2016-05-06T09:09:33Z</time>
      </trkpt>
      <trkpt lat="45.63865" lon="6.87007">
        <ele>1946.2</ele>
        <time>2016-05-06T09:09:35Z</time>
      </trkpt>
      <trkpt lat="45.63867" lon="6.87007">
        <ele>1946</ele>
        <time>2016-05-06T09:09:37Z</time>
      </trkpt>
      <trkpt lat="45.63869" lon="6.87007">
        <ele>1946.4</ele>
        <time>2016-05-06T09:09:39Z</time>
      </trkpt>
      <trkpt lat="45.63871" lon="6.87007">
        <ele>1946.6</ele>
        <time>2016-05-06T09:09:41Z</time>
      </trkpt>
      <trkpt lat="45.63874" lon="6.87009">
        <ele>1947</ele>
        <time>2016-05-06T09:09:43Z</time>
      </trkpt>
      <trkpt lat="45.63875" lon="6.8701">
        <ele>1946.8</ele>
        <time>2016-05-06T09:09:45Z</time>
      </trkpt>
      <trkpt lat="45.63877" lon="6.87012">
        <ele>1946.8</ele>
        <time>2016-05-06T09:09:47Z</time>
      </trkpt>
      <trkpt lat="45.63879" lon="6.87013">
        <ele>1947</ele>
        <time>2016-05-06T09:09:49Z</time>
      </trkpt>
      <trkpt lat="45.63882" lon="6.87014">
        <ele>1947.5</ele>
        <time>2016-05-06T09:09:51Z</time>
      </trkpt>
      <trkpt lat="45.63884" lon="6.87015">
        <ele>1947.6</ele>
        <time>2016-05-06T09:09:53Z</time>
      </trkpt>
      <trkpt lat="45.63885" lon="6.87016">
        <ele>1948.2</ele>
        <time>2016-05-06T09:09:55Z</time>
      </trkpt>
      <trkpt lat="45.63887" lon="6.87017">
        <ele>1948.6</ele>
        <time>2016-05-06T09:09:57Z</time>
      </trkpt>
      <trkpt lat="45.63889" lon="6.87018">
        <ele>1949.5</ele>
        <time>2016-05-06T09:09:59Z</time>
      </trkpt>
      <trkpt lat="45.6389" lon="6.87019">
        <ele>1949.9</ele>
        <time>2016-05-06T09:10:01Z</time>
      </trkpt>
      <trkpt lat="45.63892" lon="6.8702">
        <ele>1950.1</ele>
        <time>2016-05-06T09:10:03Z</time>
      </trkpt>
      <trkpt lat="45.63893" lon="6.87021">
        <ele>1950</ele>
        <time>2016-05-06T09:10:05Z</time>
      </trkpt>
      <trkpt lat="45.63895" lon="6.87022">
        <ele>1950.2</ele>
        <time>2016-05-06T09:10:07Z</time>
      </trkpt>
      <trkpt lat="45.63896" lon="6.87024">
        <ele>1950.4</ele>
        <time>2016-05-06T09:10:09Z</time>
      </trkpt>
      <trkpt lat="45.63897" lon="6.87026">
        <ele>1949.6</ele>
        <time>2016-05-06T09:10:11Z</time>
      </trkpt>
      <trkpt lat="45.63899" lon="6.87027">
        <ele>1949.5</ele>
        <time>2016-05-06T09:10:13Z</time>
      </trkpt>
      <trkpt lat="45.639" lon="6.87029">
        <ele>1949.5</ele>
        <time>2016-05-06T09:10:15Z</time>
      </trkpt>
      <trkpt lat="45.63902" lon="6.87031">
        <ele>1949.3</ele>
        <time>2016-05-06T09:10:17Z</time>
      </trkpt>
      <trkpt lat="45.63903" lon="6.87033">
        <ele>1949.6</ele>
        <time>2016-05-06T09:10:19Z</time>
      </trkpt>
      <trkpt lat="45.63905" lon="6.87034">
        <ele>1949.7</ele>
        <time>2016-05-06T09:10:21Z</time>
      </trkpt>
      <trkpt lat="45.63905" lon="6.87037">
        <ele>1949.9</ele>
        <time>2016-05-06T09:10:23Z</time>
      </trkpt>
      <trkpt lat="45.63907" lon="6.87039">
        <ele>1949.5</ele>
        <time>2016-05-06T09:10:25Z</time>
      </trkpt>
      <trkpt lat="45.63908" lon="6.87041">
        <ele>1949.3</ele>
        <time>2016-05-06T09:10:27Z</time>
      </trkpt>
      <trkpt lat="45.63909" lon="6.87043">
        <ele>1949.2</ele>
        <time>2016-05-06T09:10:29Z</time>
      </trkpt>
      <trkpt lat="45.63911" lon="6.87045">
        <ele>1949.3</ele>
        <time>2016-05-06T09:10:31Z</time>
      </trkpt>
      <trkpt lat="45.63912" lon="6.87047">
        <ele>1949.8</ele>
        <time>2016-05-06T09:10:33Z</time>
      </trkpt>
      <trkpt lat="45.63913" lon="6.8705">
        <ele>1950.4</ele>
        <time>2016-05-06T09:10:35Z</time>
      </trkpt>
      <trkpt lat="45.63914" lon="6.87052">
        <ele>1951.1</ele>
        <time>2016-05-06T09:10:37Z</time>
      </trkpt>
      <trkpt lat="45.63916" lon="6.87055">
        <ele>1951.9</ele>
        <time>2016-05-06T09:10:39Z</time>
      </trkpt>
      <trkpt lat="45.63917" lon="6.87057">
        <ele>1952.6</ele>
        <time>2016-05-06T09:10:41Z</time>
      </trkpt>
      <trkpt lat="45.63918" lon="6.8706">
        <ele>1953.2</ele>
        <time>2016-05-06T09:10:43Z</time>
      </trkpt>
      <trkpt lat="45.6392" lon="6.87062">
        <ele>1953.5</ele>
        <time>2016-05-06T09:10:45Z</time>
      </trkpt>
      <trkpt lat="45.6392" lon="6.87064">
        <ele>1954</ele>
        <time>2016-05-06T09:10:47Z</time>
      </trkpt>
      <trkpt lat="45.63921" lon="6.87067">
        <ele>1954.1</ele>
        <time>2016-05-06T09:10:49Z</time>
      </trkpt>
      <trkpt lat="45.63922" lon="6.87068">
        <ele>1954.1</ele>
        <time>2016-05-06T09:10:51Z</time>
      </trkpt>
      <trkpt lat="45.63924" lon="6.8707">
        <ele>1954.6</ele>
        <time>2016-05-06T09:10:53Z</time>
      </trkpt>
      <trkpt lat="45.63925" lon="6.87073">
        <ele>1955</ele>
        <time>2016-05-06T09:10:55Z</time>
      </trkpt>
      <trkpt lat="45.63925" lon="6.87075">
        <ele>1954.9</ele>
        <time>2016-05-06T09:10:57Z</time>
      </trkpt>
      <trkpt lat="45.63926" lon="6.87078">
        <ele>1954.5</ele>
        <time>2016-05-06T09:10:59Z</time>
      </trkpt>
      <trkpt lat="45.63927" lon="6.87081">
        <ele>1954.3</ele>
        <time>2016-05-06T09:11:01Z</time>
      </trkpt>
      <trkpt lat="45.63928" lon="6.87083">
        <ele>1954.2</ele>
        <time>2016-05-06T09:11:03Z</time>
      </trkpt>
      <trkpt lat="45.6393" lon="6.87085">
        <ele>1954.1</ele>
        <time>2016-05-06T09:11:05Z</time>
      </trkpt>
      <trkpt lat="45.63931" lon="6.87087">
        <ele>1954.2</ele>
        <time>2016-05-06T09:11:07Z</time>
      </trkpt>
      <trkpt lat="45.63932" lon="6.8709">
        <ele>1954.1</ele>
        <time>2016-05-06T09:11:09Z</time>
      </trkpt>
      <trkpt lat="45.63933" lon="6.87092">
        <ele>1954</ele>
        <time>2016-05-06T09:11:11Z</time>
      </trkpt>
      <trkpt lat="45.63934" lon="6.87094">
        <ele>1954</ele>
        <time>2016-05-06T09:11:13Z</time>
      </trkpt>
      <trkpt lat="45.63936" lon="6.87096">
        <ele>1955</ele>
        <time>2016-05-06T09:11:15Z</time>
      </trkpt>
      <trkpt lat="45.63937" lon="6.87098">
        <ele>1954.8</ele>
        <time>2016-05-06T09:11:17Z</time>
      </trkpt>
      <trkpt lat="45.63938" lon="6.87099">
        <ele>1955.6</ele>
        <time>2016-05-06T09:11:19Z</time>
      </trkpt>
      <trkpt lat="45.6394" lon="6.87101">
        <ele>1956.3</ele>
        <time>2016-05-06T09:11:21Z</time>
      </trkpt>
      <trkpt lat="45.63942" lon="6.87103">
        <ele>1957.5</ele>
        <time>2016-05-06T09:11:23Z</time>
      </trkpt>
      <trkpt lat="45.63943" lon="6.87104">
        <ele>1957.9</ele>
        <time>2016-05-06T09:11:25Z</time>
      </trkpt>
      <trkpt lat="45.63944" lon="6.87106">
        <ele>1957.1</ele>
        <time>2016-05-06T09:11:27Z</time>
      </trkpt>
      <trkpt lat="45.63946" lon="6.87108">
        <ele>1956.2</ele>
        <time>2016-05-06T09:11:29Z</time>
      </trkpt>
      <trkpt lat="45.63948" lon="6.87109">
        <ele>1955.9</ele>
        <time>2016-05-06T09:11:31Z</time>
      </trkpt>
      <trkpt lat="45.63949" lon="6.87111">
        <ele>1955.8</ele>
        <time>2016-05-06T09:11:33Z</time>
      </trkpt>
      <trkpt lat="45.63951" lon="6.87112">
        <ele>1955.6</ele>
        <time>2016-05-06T09:11:35Z</time>
      </trkpt>
      <trkpt lat="45.6395" lon="6.87115">
        <ele>1954.8</ele>
        <time>2016-05-06T09:11:37Z</time>
      </trkpt>
      <trkpt lat="45.63952" lon="6.87117">
        <ele>1955.4</ele>
        <time>2016-05-06T09:11:39Z</time>
      </trkpt>
      <trkpt lat="45.63953" lon="6.87118">
        <ele>1955.8</ele>
        <time>2016-05-06T09:11:41Z</time>
      </trkpt>
      <trkpt lat="45.63953" lon="6.87118">
        <ele>1956.6</ele>
        <time>2016-05-06T09:11:43Z</time>
      </trkpt>
      <trkpt lat="45.63954" lon="6.87118">
        <ele>1957</ele>
        <time>2016-05-06T09:11:45Z</time>
      </trkpt>
      <trkpt lat="45.63956" lon="6.87119">
        <ele>1957</ele>
        <time>2016-05-06T09:11:47Z</time>
      </trkpt>
      <trkpt lat="45.63958" lon="6.8712">
        <ele>1957.2</ele>
        <time>2016-05-06T09:11:49Z</time>
      </trkpt>
      <trkpt lat="45.6396" lon="6.87121">
        <ele>1956.8</ele>
        <time>2016-05-06T09:11:51Z</time>
      </trkpt>
      <trkpt lat="45.63962" lon="6.87123">
        <ele>1956.8</ele>
        <time>2016-05-06T09:11:53Z</time>
      </trkpt>
      <trkpt lat="45.63964" lon="6.87124">
        <ele>1956.3</ele>
        <time>2016-05-06T09:11:55Z</time>
      </trkpt>
      <trkpt lat="45.63966" lon="6.87125">
        <ele>1956.1</ele>
        <time>2016-05-06T09:11:57Z</time>
      </trkpt>
      <trkpt lat="45.63967" lon="6.87126">
        <ele>1955.9</ele>
        <time>2016-05-06T09:11:59Z</time>
      </trkpt>
      <trkpt lat="45.6397" lon="6.87127">
        <ele>1955.6</ele>
        <time>2016-05-06T09:12:01Z</time>
      </trkpt>
      <trkpt lat="45.63972" lon="6.87128">
        <ele>1955.5</ele>
        <time>2016-05-06T09:12:03Z</time>
      </trkpt>
      <trkpt lat="45.63973" lon="6.87128">
        <ele>1955.7</ele>
        <time>2016-05-06T09:12:05Z</time>
      </trkpt>
      <trkpt lat="45.63975" lon="6.87129">
        <ele>1956</ele>
        <time>2016-05-06T09:12:07Z</time>
      </trkpt>
      <trkpt lat="45.63976" lon="6.87129">
        <ele>1956.6</ele>
        <time>2016-05-06T09:12:09Z</time>
      </trkpt>
      <trkpt lat="45.63978" lon="6.8713">
        <ele>1957.1</ele>
        <time>2016-05-06T09:12:11Z</time>
      </trkpt>
      <trkpt lat="45.6398" lon="6.8713">
        <ele>1957.6</ele>
        <time>2016-05-06T09:12:13Z</time>
      </trkpt>
      <trkpt lat="45.63981" lon="6.87131">
        <ele>1958.2</ele>
        <time>2016-05-06T09:12:15Z</time>
      </trkpt>
      <trkpt lat="45.63983" lon="6.8713">
        <ele>1958</ele>
        <time>2016-05-06T09:12:17Z</time>
      </trkpt>
      <trkpt lat="45.63985" lon="6.8713">
        <ele>1958.4</ele>
        <time>2016-05-06T09:12:19Z</time>
      </trkpt>
      <trkpt lat="45.63986" lon="6.8713">
        <ele>1958.5</ele>
        <time>2016-05-06T09:12:21Z</time>
      </trkpt>
      <trkpt lat="45.63988" lon="6.8713">
        <ele>1959.4</ele>
        <time>2016-05-06T09:12:23Z</time>
      </trkpt>
      <trkpt lat="45.6399" lon="6.8713">
        <ele>1960.1</ele>
        <time>2016-05-06T09:12:25Z</time>
      </trkpt>
      <trkpt lat="45.63992" lon="6.87129">
        <ele>1960.9</ele>
        <time>2016-05-06T09:12:27Z</time>
      </trkpt>
      <trkpt lat="45.63994" lon="6.87129">
        <ele>1961.4</ele>
        <time>2016-05-06T09:12:29Z</time>
      </trkpt>
      <trkpt lat="45.63997" lon="6.87128">
        <ele>1962.5</ele>
        <time>2016-05-06T09:12:31Z</time>
      </trkpt>
      <trkpt lat="45.63999" lon="6.87127">
        <ele>1962</ele>
        <time>2016-05-06T09:12:33Z</time>
      </trkpt>
      <trkpt lat="45.64002" lon="6.87128">
        <ele>1962.3</ele>
        <time>2016-05-06T09:12:35Z</time>
      </trkpt>
      <trkpt lat="45.64004" lon="6.87128">
        <ele>1962.5</ele>
        <time>2016-05-06T09:12:37Z</time>
      </trkpt>
      <trkpt lat="45.64006" lon="6.87127">
        <ele>1962.8</ele>
        <time>2016-05-06T09:12:39Z</time>
      </trkpt>
      <trkpt lat="45.64008" lon="6.87127">
        <ele>1962.8</ele>
        <time>2016-05-06T09:12:41Z</time>
      </trkpt>
      <trkpt lat="45.64011" lon="6.87127">
        <ele>1962.5</ele>
        <time>2016-05-06T09:12:43Z</time>
      </trkpt>
      <trkpt lat="45.64013" lon="6.87127">
        <ele>1962.5</ele>
        <time>2016-05-06T09:12:45Z</time>
      </trkpt>
      <trkpt lat="45.64014" lon="6.87128">
        <ele>1961.8</ele>
        <time>2016-05-06T09:12:47Z</time>
      </trkpt>
      <trkpt lat="45.64016" lon="6.87129">
        <ele>1961.2</ele>
        <time>2016-05-06T09:12:49Z</time>
      </trkpt>
      <trkpt lat="45.64018" lon="6.87129">
        <ele>1961.2</ele>
        <time>2016-05-06T09:12:51Z</time>
      </trkpt>
      <trkpt lat="45.6402" lon="6.87131">
        <ele>1961</ele>
        <time>2016-05-06T09:12:53Z</time>
      </trkpt>
      <trkpt lat="45.64022" lon="6.87132">
        <ele>1961.1</ele>
        <time>2016-05-06T09:12:55Z</time>
      </trkpt>
      <trkpt lat="45.64024" lon="6.87134">
        <ele>1961.5</ele>
        <time>2016-05-06T09:12:57Z</time>
      </trkpt>
      <trkpt lat="45.64026" lon="6.87135">
        <ele>1961.8</ele>
        <time>2016-05-06T09:12:59Z</time>
      </trkpt>
      <trkpt lat="45.64028" lon="6.87137">
        <ele>1961.5</ele>
        <time>2016-05-06T09:13:01Z</time>
      </trkpt>
      <trkpt lat="45.6403" lon="6.87139">
        <ele>1961.4</ele>
        <time>2016-05-06T09:13:03Z</time>
      </trkpt>
      <trkpt lat="45.64031" lon="6.87141">
        <ele>1961.1</ele>
        <time>2016-05-06T09:13:05Z</time>
      </trkpt>
      <trkpt lat="45.64033" lon="6.87143">
        <ele>1960.9</ele>
        <time>2016-05-06T09:13:07Z</time>
      </trkpt>
      <trkpt lat="45.64035" lon="6.87144">
        <ele>1960.5</ele>
        <time>2016-05-06T09:13:09Z</time>
      </trkpt>
      <trkpt lat="45.64036" lon="6.87146">
        <ele>1960.4</ele>
        <time>2016-05-06T09:13:11Z</time>
      </trkpt>
      <trkpt lat="45.64038" lon="6.87148">
        <ele>1960.2</ele>
        <time>2016-05-06T09:13:13Z</time>
      </trkpt>
      <trkpt lat="45.64039" lon="6.87149">
        <ele>1960.5</ele>
        <time>2016-05-06T09:13:15Z</time>
      </trkpt>
      <trkpt lat="45.64039" lon="6.87149">
        <ele>1961.2</ele>
        <time>2016-05-06T09:13:17Z</time>
      </trkpt>
      <trkpt lat="45.6404" lon="6.87149">
        <ele>1961.4</ele>
        <time>2016-05-06T09:13:19Z</time>
      </trkpt>
      <trkpt lat="45.6404" lon="6.87148">
        <ele>1961.8</ele>
        <time>2016-05-06T09:13:21Z</time>
      </trkpt>
      <trkpt lat="45.6404" lon="6.87145">
        <ele>1962.4</ele>
        <time>2016-05-06T09:13:23Z</time>
      </trkpt>
      <trkpt lat="45.6404" lon="6.87143">
        <ele>1962.8</ele>
        <time>2016-05-06T09:13:25Z</time>
      </trkpt>
      <trkpt lat="45.64039" lon="6.8714">
        <ele>1963.3</ele>
        <time>2016-05-06T09:13:27Z</time>
      </trkpt>
      <trkpt lat="45.64039" lon="6.87138">
        <ele>1963.7</ele>
        <time>2016-05-06T09:13:29Z</time>
      </trkpt>
      <trkpt lat="45.64038" lon="6.87134">
        <ele>1963.9</ele>
        <time>2016-05-06T09:13:31Z</time>
      </trkpt>
      <trkpt lat="45.64037" lon="6.87132">
        <ele>1964</ele>
        <time>2016-05-06T09:13:33Z</time>
      </trkpt>
      <trkpt lat="45.64036" lon="6.8713">
        <ele>1964</ele>
        <time>2016-05-06T09:13:35Z</time>
      </trkpt>
      <trkpt lat="45.64036" lon="6.87128">
        <ele>1964.1</ele>
        <time>2016-05-06T09:13:37Z</time>
      </trkpt>
      <trkpt lat="45.64034" lon="6.87126">
        <ele>1964</ele>
        <time>2016-05-06T09:13:39Z</time>
      </trkpt>
      <trkpt lat="45.64033" lon="6.87124">
        <ele>1964.4</ele>
        <time>2016-05-06T09:13:41Z</time>
      </trkpt>
      <trkpt lat="45.64032" lon="6.87122">
        <ele>1964.6</ele>
        <time>2016-05-06T09:13:43Z</time>
      </trkpt>
      <trkpt lat="45.64032" lon="6.87121">
        <ele>1965.1</ele>
        <time>2016-05-06T09:13:45Z</time>
      </trkpt>
      <trkpt lat="45.64031" lon="6.87119">
        <ele>1965.2</ele>
        <time>2016-05-06T09:13:47Z</time>
      </trkpt>
      <trkpt lat="45.64031" lon="6.87118">
        <ele>1964.9</ele>
        <time>2016-05-06T09:13:49Z</time>
      </trkpt>
      <trkpt lat="45.64031" lon="6.87118">
        <ele>1965.2</ele>
        <time>2016-05-06T09:13:51Z</time>
      </trkpt>
      <trkpt lat="45.6403" lon="6.87117">
        <ele>1965.5</ele>
        <time>2016-05-06T09:13:53Z</time>
      </trkpt>
      <trkpt lat="45.64031" lon="6.87116">
        <ele>1965.7</ele>
        <time>2016-05-06T09:13:55Z</time>
      </trkpt>
      <trkpt lat="45.64032" lon="6.87115">
        <ele>1965.8</ele>
        <time>2016-05-06T09:13:57Z</time>
      </trkpt>
      <trkpt lat="45.64033" lon="6.87113">
        <ele>1966.4</ele>
        <time>2016-05-06T09:13:59Z</time>
      </trkpt>
      <trkpt lat="45.64033" lon="6.87112">
        <ele>1966.7</ele>
        <time>2016-05-06T09:14:01Z</time>
      </trkpt>
      <trkpt lat="45.64033" lon="6.8711">
        <ele>1966.8</ele>
        <time>2016-05-06T09:14:03Z</time>
      </trkpt>
      <trkpt lat="45.64034" lon="6.87108">
        <ele>1967.1</ele>
        <time>2016-05-06T09:14:05Z</time>
      </trkpt>
      <trkpt lat="45.64034" lon="6.87108">
        <ele>1966.7</ele>
        <time>2016-05-06T09:14:07Z</time>
      </trkpt>
      <trkpt lat="45.64034" lon="6.87108">
        <ele>1966.1</ele>
        <time>2016-05-06T09:14:09Z</time>
      </trkpt>
      <trkpt lat="45.64034" lon="6.87109">
        <ele>1966.9</ele>
        <time>2016-05-06T09:14:11Z</time>
      </trkpt>
      <trkpt lat="45.64034" lon="6.8711">
        <ele>1967.1</ele>
        <time>2016-05-06T09:14:13Z</time>
      </trkpt>
      <trkpt lat="45.64034" lon="6.87109">
        <ele>1966.3</ele>
        <time>2016-05-06T09:14:15Z</time>
      </trkpt>
      <trkpt lat="45.64034" lon="6.87109">
        <ele>1965.9</ele>
        <time>2016-05-06T09:14:17Z</time>
      </trkpt>
      <trkpt lat="45.64033" lon="6.8711">
        <ele>1966.1</ele>
        <time>2016-05-06T09:14:19Z</time>
      </trkpt>
      <trkpt lat="45.64033" lon="6.87111">
        <ele>1966.3</ele>
        <time>2016-05-06T09:14:21Z</time>
      </trkpt>
      <trkpt lat="45.64034" lon="6.87111">
        <ele>1965.9</ele>
        <time>2016-05-06T09:14:23Z</time>
      </trkpt>
      <trkpt lat="45.64035" lon="6.87111">
        <ele>1965.5</ele>
        <time>2016-05-06T09:14:25Z</time>
      </trkpt>
      <trkpt lat="45.64035" lon="6.87111">
        <ele>1965.3</ele>
        <time>2016-05-06T09:14:27Z</time>
      </trkpt>
      <trkpt lat="45.64035" lon="6.87111">
        <ele>1965.4</ele>
        <time>2016-05-06T09:14:29Z</time>
      </trkpt>
      <trkpt lat="45.64036" lon="6.87112">
        <ele>1966</ele>
        <time>2016-05-06T09:14:31Z</time>
      </trkpt>
      <trkpt lat="45.64035" lon="6.87111">
        <ele>1966.3</ele>
        <time>2016-05-06T09:14:33Z</time>
      </trkpt>
      <trkpt lat="45.64035" lon="6.87111">
        <ele>1966.6</ele>
        <time>2016-05-06T09:14:35Z</time>
      </trkpt>
      <trkpt lat="45.64034" lon="6.87111">
        <ele>1966.6</ele>
        <time>2016-05-06T09:14:37Z</time>
      </trkpt>
      <trkpt lat="45.64033" lon="6.87111">
        <ele>1967</ele>
        <time>2016-05-06T09:14:39Z</time>
      </trkpt>
      <trkpt lat="45.64032" lon="6.87111">
        <ele>1967.5</ele>
        <time>2016-05-06T09:14:41Z</time>
      </trkpt>
      <trkpt lat="45.64032" lon="6.8711">
        <ele>1967.7</ele>
        <time>2016-05-06T09:14:43Z</time>
      </trkpt>
      <trkpt lat="45.64032" lon="6.8711">
        <ele>1966.9</ele>
        <time>2016-05-06T09:14:45Z</time>
      </trkpt>
      <trkpt lat="45.64032" lon="6.87111">
        <ele>1966.5</ele>
        <time>2016-05-06T09:14:47Z</time>
      </trkpt>
      <trkpt lat="45.64033" lon="6.87111">
        <ele>1966.3</ele>
        <time>2016-05-06T09:14:49Z</time>
      </trkpt>
      <trkpt lat="45.64033" lon="6.87111">
        <ele>1966.5</ele>
        <time>2016-05-06T09:14:51Z</time>
      </trkpt>
      <trkpt lat="45.64032" lon="6.87111">
        <ele>1966.8</ele>
        <time>2016-05-06T09:14:53Z</time>
      </trkpt>
      <trkpt lat="45.64032" lon="6.8711">
        <ele>1966.8</ele>
        <time>2016-05-06T09:14:55Z</time>
      </trkpt>
      <trkpt lat="45.64032" lon="6.8711">
        <ele>1967.1</ele>
        <time>2016-05-06T09:14:57Z</time>
      </trkpt>
      <trkpt lat="45.64033" lon="6.8711">
        <ele>1967.2</ele>
        <time>2016-05-06T09:14:59Z</time>
      </trkpt>
      <trkpt lat="45.64033" lon="6.8711">
        <ele>1967.8</ele>
        <time>2016-05-06T09:15:01Z</time>
      </trkpt>
      <trkpt lat="45.64032" lon="6.8711">
        <ele>1967.7</ele>
        <time>2016-05-06T09:15:03Z</time>
      </trkpt>
      <trkpt lat="45.64033" lon="6.8711">
        <ele>1967.9</ele>
        <time>2016-05-06T09:15:05Z</time>
      </trkpt>
      <trkpt lat="45.64033" lon="6.87111">
        <ele>1968.4</ele>
        <time>2016-05-06T09:15:07Z</time>
      </trkpt>
      <trkpt lat="45.64032" lon="6.8711">
        <ele>1968.7</ele>
        <time>2016-05-06T09:15:09Z</time>
      </trkpt>
      <trkpt lat="45.64032" lon="6.8711">
        <ele>1967.5</ele>
        <time>2016-05-06T09:15:11Z</time>
      </trkpt>
      <trkpt lat="45.64033" lon="6.87111">
        <ele>1966.7</ele>
        <time>2016-05-06T09:15:13Z</time>
      </trkpt>
      <trkpt lat="45.64033" lon="6.87112">
        <ele>1966.7</ele>
        <time>2016-05-06T09:15:15Z</time>
      </trkpt>
      <trkpt lat="45.64033" lon="6.87112">
        <ele>1966.5</ele>
        <time>2016-05-06T09:15:17Z</time>
      </trkpt>
      <trkpt lat="45.64033" lon="6.87113">
        <ele>1966.7</ele>
        <time>2016-05-06T09:15:19Z</time>
      </trkpt>
      <trkpt lat="45.64033" lon="6.87114">
        <ele>1966.9</ele>
        <time>2016-05-06T09:15:21Z</time>
      </trkpt>
      <trkpt lat="45.64033" lon="6.87114">
        <ele>1967.3</ele>
        <time>2016-05-06T09:15:23Z</time>
      </trkpt>
      <trkpt lat="45.64033" lon="6.87114">
        <ele>1967.3</ele>
        <time>2016-05-06T09:15:25Z</time>
      </trkpt>
      <trkpt lat="45.64033" lon="6.87114">
        <ele>1967.4</ele>
        <time>2016-05-06T09:15:27Z</time>
      </trkpt>
      <trkpt lat="45.64032" lon="6.87114">
        <ele>1967.3</ele>
        <time>2016-05-06T09:15:29Z</time>
      </trkpt>
      <trkpt lat="45.64032" lon="6.87113">
        <ele>1966.8</ele>
        <time>2016-05-06T09:15:31Z</time>
      </trkpt>
      <trkpt lat="45.64033" lon="6.87112">
        <ele>1967.3</ele>
        <time>2016-05-06T09:15:33Z</time>
      </trkpt>
      <trkpt lat="45.64034" lon="6.87112">
        <ele>1967.6</ele>
        <time>2016-05-06T09:15:35Z</time>
      </trkpt>
      <trkpt lat="45.64033" lon="6.87112">
        <ele>1967.2</ele>
        <time>2016-05-06T09:15:37Z</time>
      </trkpt>
      <trkpt lat="45.64033" lon="6.87112">
        <ele>1966.6</ele>
        <time>2016-05-06T09:15:39Z</time>
      </trkpt>
      <trkpt lat="45.64032" lon="6.87112">
        <ele>1966.4</ele>
        <time>2016-05-06T09:15:41Z</time>
      </trkpt>
      <trkpt lat="45.64031" lon="6.87113">
        <ele>1966.1</ele>
        <time>2016-05-06T09:15:43Z</time>
      </trkpt>
      <trkpt lat="45.64031" lon="6.87112">
        <ele>1965.9</ele>
        <time>2016-05-06T09:15:45Z</time>
      </trkpt>
      <trkpt lat="45.64032" lon="6.87113">
        <ele>1965.6</ele>
        <time>2016-05-06T09:15:47Z</time>
      </trkpt>
      <trkpt lat="45.64032" lon="6.87111">
        <ele>1965.4</ele>
        <time>2016-05-06T09:15:49Z</time>
      </trkpt>
      <trkpt lat="45.64032" lon="6.87111">
        <ele>1965.4</ele>
        <time>2016-05-06T09:15:51Z</time>
      </trkpt>
      <trkpt lat="45.64032" lon="6.87111">
        <ele>1965.2</ele>
        <time>2016-05-06T09:15:53Z</time>
      </trkpt>
      <trkpt lat="45.64032" lon="6.87111">
        <ele>1966.6</ele>
        <time>2016-05-06T09:15:55Z</time>
      </trkpt>
      <trkpt lat="45.64032" lon="6.87111">
        <ele>1967.3</ele>
        <time>2016-05-06T09:15:57Z</time>
      </trkpt>
      <trkpt lat="45.64032" lon="6.8711">
        <ele>1967.9</ele>
        <time>2016-05-06T09:15:59Z</time>
      </trkpt>
      <trkpt lat="45.64032" lon="6.8711">
        <ele>1967.8</ele>
        <time>2016-05-06T09:16:01Z</time>
      </trkpt>
      <trkpt lat="45.64032" lon="6.8711">
        <ele>1967.8</ele>
        <time>2016-05-06T09:16:03Z</time>
      </trkpt>
      <trkpt lat="45.64032" lon="6.8711">
        <ele>1968.4</ele>
        <time>2016-05-06T09:16:05Z</time>
      </trkpt>
      <trkpt lat="45.64032" lon="6.8711">
        <ele>1968.6</ele>
        <time>2016-05-06T09:16:07Z</time>
      </trkpt>
      <trkpt lat="45.64032" lon="6.8711">
        <ele>1967.9</ele>
        <time>2016-05-06T09:16:09Z</time>
      </trkpt>
      <trkpt lat="45.64033" lon="6.8711">
        <ele>1967.7</ele>
        <time>2016-05-06T09:16:11Z</time>
      </trkpt>
      <trkpt lat="45.64033" lon="6.8711">
        <ele>1967.8</ele>
        <time>2016-05-06T09:16:13Z</time>
      </trkpt>
      <trkpt lat="45.64034" lon="6.87109">
        <ele>1968.3</ele>
        <time>2016-05-06T09:16:15Z</time>
      </trkpt>
      <trkpt lat="45.64035" lon="6.87109">
        <ele>1968.2</ele>
        <time>2016-05-06T09:16:17Z</time>
      </trkpt>
      <trkpt lat="45.64035" lon="6.8711">
        <ele>1967.6</ele>
        <time>2016-05-06T09:16:19Z</time>
      </trkpt>
      <trkpt lat="45.64035" lon="6.8711">
        <ele>1967</ele>
        <time>2016-05-06T09:16:21Z</time>
      </trkpt>
      <trkpt lat="45.64035" lon="6.8711">
        <ele>1966.8</ele>
        <time>2016-05-06T09:16:23Z</time>
      </trkpt>
      <trkpt lat="45.64035" lon="6.8711">
        <ele>1965.9</ele>
        <time>2016-05-06T09:16:25Z</time>
      </trkpt>
      <trkpt lat="45.64035" lon="6.8711">
        <ele>1965.5</ele>
        <time>2016-05-06T09:16:27Z</time>
      </trkpt>
      <trkpt lat="45.64035" lon="6.87112">
        <ele>1965.1</ele>
        <time>2016-05-06T09:16:29Z</time>
      </trkpt>
      <trkpt lat="45.64035" lon="6.87113">
        <ele>1965.4</ele>
        <time>2016-05-06T09:16:31Z</time>
      </trkpt>
      <trkpt lat="45.64036" lon="6.87113">
        <ele>1965.1</ele>
        <time>2016-05-06T09:16:33Z</time>
      </trkpt>
      <trkpt lat="45.64036" lon="6.87113">
        <ele>1965.8</ele>
        <time>2016-05-06T09:16:35Z</time>
      </trkpt>
      <trkpt lat="45.64037" lon="6.87113">
        <ele>1966.1</ele>
        <time>2016-05-06T09:16:37Z</time>
      </trkpt>
      <trkpt lat="45.64038" lon="6.87113">
        <ele>1966.5</ele>
        <time>2016-05-06T09:16:39Z</time>
      </trkpt>
      <trkpt lat="45.6404" lon="6.87113">
        <ele>1966.6</ele>
        <time>2016-05-06T09:16:41Z</time>
      </trkpt>
      <trkpt lat="45.64041" lon="6.87112">
        <ele>1967</ele>
        <time>2016-05-06T09:16:43Z</time>
      </trkpt>
      <trkpt lat="45.64042" lon="6.87111">
        <ele>1967.6</ele>
        <time>2016-05-06T09:16:45Z</time>
      </trkpt>
      <trkpt lat="45.64044" lon="6.87111">
        <ele>1967.8</ele>
        <time>2016-05-06T09:16:47Z</time>
      </trkpt>
      <trkpt lat="45.64045" lon="6.87111">
        <ele>1968.2</ele>
        <time>2016-05-06T09:16:49Z</time>
      </trkpt>
      <trkpt lat="45.64046" lon="6.87111">
        <ele>1968</ele>
        <time>2016-05-06T09:16:51Z</time>
      </trkpt>
      <trkpt lat="45.64047" lon="6.87111">
        <ele>1967.3</ele>
        <time>2016-05-06T09:16:53Z</time>
      </trkpt>
      <trkpt lat="45.64048" lon="6.8711">
        <ele>1967.1</ele>
        <time>2016-05-06T09:16:55Z</time>
      </trkpt>
      <trkpt lat="45.6405" lon="6.8711">
        <ele>1967.5</ele>
        <time>2016-05-06T09:16:57Z</time>
      </trkpt>
      <trkpt lat="45.64051" lon="6.87109">
        <ele>1968.3</ele>
        <time>2016-05-06T09:16:59Z</time>
      </trkpt>
      <trkpt lat="45.64052" lon="6.87109">
        <ele>1969</ele>
        <time>2016-05-06T09:17:01Z</time>
      </trkpt>
      <trkpt lat="45.64053" lon="6.87108">
        <ele>1969.1</ele>
        <time>2016-05-06T09:17:03Z</time>
      </trkpt>
      <trkpt lat="45.64054" lon="6.87108">
        <ele>1969</ele>
        <time>2016-05-06T09:17:05Z</time>
      </trkpt>
      <trkpt lat="45.64056" lon="6.87108">
        <ele>1969.4</ele>
        <time>2016-05-06T09:17:07Z</time>
      </trkpt>
      <trkpt lat="45.64057" lon="6.87109">
        <ele>1969.7</ele>
        <time>2016-05-06T09:17:09Z</time>
      </trkpt>
      <trkpt lat="45.64059" lon="6.8711">
        <ele>1969.8</ele>
        <time>2016-05-06T09:17:11Z</time>
      </trkpt>
      <trkpt lat="45.6406" lon="6.8711">
        <ele>1970.1</ele>
        <time>2016-05-06T09:17:13Z</time>
      </trkpt>
      <trkpt lat="45.6406" lon="6.8711">
        <ele>1970.5</ele>
        <time>2016-05-06T09:17:15Z</time>
      </trkpt>
      <trkpt lat="45.64061" lon="6.8711">
        <ele>1970.9</ele>
        <time>2016-05-06T09:17:17Z</time>
      </trkpt>
      <trkpt lat="45.64062" lon="6.87111">
        <ele>1971.5</ele>
        <time>2016-05-06T09:17:19Z</time>
      </trkpt>
      <trkpt lat="45.64063" lon="6.87111">
        <ele>1972</ele>
        <time>2016-05-06T09:17:21Z</time>
      </trkpt>
      <trkpt lat="45.64064" lon="6.87111">
        <ele>1972.8</ele>
        <time>2016-05-06T09:17:23Z</time>
      </trkpt>
      <trkpt lat="45.64065" lon="6.87111">
        <ele>1973.1</ele>
        <time>2016-05-06T09:17:25Z</time>
      </trkpt>
      <trkpt lat="45.64066" lon="6.87111">
        <ele>1973.5</ele>
        <time>2016-05-06T09:17:27Z</time>
      </trkpt>
      <trkpt lat="45.64067" lon="6.87112">
        <ele>1973.5</ele>
        <time>2016-05-06T09:17:29Z</time>
      </trkpt>
      <trkpt lat="45.64068" lon="6.87112">
        <ele>1973.5</ele>
        <time>2016-05-06T09:17:31Z</time>
      </trkpt>
      <trkpt lat="45.64069" lon="6.87113">
        <ele>1973.9</ele>
        <time>2016-05-06T09:17:33Z</time>
      </trkpt>
      <trkpt lat="45.6407" lon="6.87113">
        <ele>1974.2</ele>
        <time>2016-05-06T09:17:35Z</time>
      </trkpt>
      <trkpt lat="45.64071" lon="6.87114">
        <ele>1974.2</ele>
        <time>2016-05-06T09:17:37Z</time>
      </trkpt>
      <trkpt lat="45.64072" lon="6.87114">
        <ele>1974.6</ele>
        <time>2016-05-06T09:17:39Z</time>
      </trkpt>
      <trkpt lat="45.64073" lon="6.87115">
        <ele>1975</ele>
        <time>2016-05-06T09:17:41Z</time>
      </trkpt>
      <trkpt lat="45.64074" lon="6.87115">
        <ele>1975.2</ele>
        <time>2016-05-06T09:17:43Z</time>
      </trkpt>
      <trkpt lat="45.64074" lon="6.87115">
        <ele>1975.4</ele>
        <time>2016-05-06T09:17:45Z</time>
      </trkpt>
      <trkpt lat="45.64074" lon="6.87115">
        <ele>1975.5</ele>
        <time>2016-05-06T09:17:47Z</time>
      </trkpt>
      <trkpt lat="45.64076" lon="6.87116">
        <ele>1976.1</ele>
        <time>2016-05-06T09:17:49Z</time>
      </trkpt>
      <trkpt lat="45.64077" lon="6.87116">
        <ele>1976.3</ele>
        <time>2016-05-06T09:17:51Z</time>
      </trkpt>
      <trkpt lat="45.64078" lon="6.87117">
        <ele>1976.5</ele>
        <time>2016-05-06T09:17:53Z</time>
      </trkpt>
      <trkpt lat="45.64079" lon="6.87117">
        <ele>1976.9</ele>
        <time>2016-05-06T09:17:55Z</time>
      </trkpt>
      <trkpt lat="45.64079" lon="6.87118">
        <ele>1977.3</ele>
        <time>2016-05-06T09:17:57Z</time>
      </trkpt>
      <trkpt lat="45.6408" lon="6.87118">
        <ele>1977.6</ele>
        <time>2016-05-06T09:17:59Z</time>
      </trkpt>
      <trkpt lat="45.64081" lon="6.87119">
        <ele>1977.9</ele>
        <time>2016-05-06T09:18:01Z</time>
      </trkpt>
      <trkpt lat="45.64083" lon="6.87119">
        <ele>1978</ele>
        <time>2016-05-06T09:18:03Z</time>
      </trkpt>
      <trkpt lat="45.64084" lon="6.87119">
        <ele>1978.2</ele>
        <time>2016-05-06T09:18:05Z</time>
      </trkpt>
      <trkpt lat="45.64085" lon="6.87119">
        <ele>1978.1</ele>
        <time>2016-05-06T09:18:07Z</time>
      </trkpt>
      <trkpt lat="45.64085" lon="6.87119">
        <ele>1978.6</ele>
        <time>2016-05-06T09:18:09Z</time>
      </trkpt>
      <trkpt lat="45.64086" lon="6.8712">
        <ele>1978.9</ele>
        <time>2016-05-06T09:18:11Z</time>
      </trkpt>
      <trkpt lat="45.64087" lon="6.8712">
        <ele>1979</ele>
        <time>2016-05-06T09:18:13Z</time>
      </trkpt>
      <trkpt lat="45.64087" lon="6.8712">
        <ele>1979.1</ele>
        <time>2016-05-06T09:18:15Z</time>
      </trkpt>
      <trkpt lat="45.64087" lon="6.87121">
        <ele>1979.2</ele>
        <time>2016-05-06T09:18:17Z</time>
      </trkpt>
      <trkpt lat="45.64088" lon="6.87121">
        <ele>1979.8</ele>
        <time>2016-05-06T09:18:19Z</time>
      </trkpt>
      <trkpt lat="45.64089" lon="6.87122">
        <ele>1980.9</ele>
        <time>2016-05-06T09:18:21Z</time>
      </trkpt>
      <trkpt lat="45.6409" lon="6.87122">
        <ele>1981.3</ele>
        <time>2016-05-06T09:18:23Z</time>
      </trkpt>
      <trkpt lat="45.6409" lon="6.87122">
        <ele>1981.9</ele>
        <time>2016-05-06T09:18:25Z</time>
      </trkpt>
      <trkpt lat="45.64092" lon="6.87123">
        <ele>1981.5</ele>
        <time>2016-05-06T09:18:27Z</time>
      </trkpt>
      <trkpt lat="45.64093" lon="6.87123">
        <ele>1982.2</ele>
        <time>2016-05-06T09:18:29Z</time>
      </trkpt>
      <trkpt lat="45.64094" lon="6.87123">
        <ele>1983.5</ele>
        <time>2016-05-06T09:18:31Z</time>
      </trkpt>
      <trkpt lat="45.64094" lon="6.87123">
        <ele>1984.1</ele>
        <time>2016-05-06T09:18:33Z</time>
      </trkpt>
      <trkpt lat="45.64095" lon="6.87123">
        <ele>1984.1</ele>
        <time>2016-05-06T09:18:35Z</time>
      </trkpt>
      <trkpt lat="45.64095" lon="6.87123">
        <ele>1984.5</ele>
        <time>2016-05-06T09:18:37Z</time>
      </trkpt>
      <trkpt lat="45.64096" lon="6.87123">
        <ele>1985.5</ele>
        <time>2016-05-06T09:18:39Z</time>
      </trkpt>
      <trkpt lat="45.64096" lon="6.87124">
        <ele>1986.6</ele>
        <time>2016-05-06T09:18:41Z</time>
      </trkpt>
      <trkpt lat="45.64097" lon="6.87124">
        <ele>1987.3</ele>
        <time>2016-05-06T09:18:43Z</time>
      </trkpt>
      <trkpt lat="45.64098" lon="6.87125">
        <ele>1986.8</ele>
        <time>2016-05-06T09:18:45Z</time>
      </trkpt>
      <trkpt lat="45.64099" lon="6.87125">
        <ele>1986.8</ele>
        <time>2016-05-06T09:18:47Z</time>
      </trkpt>
      <trkpt lat="45.64099" lon="6.87125">
        <ele>1987</ele>
        <time>2016-05-06T09:18:49Z</time>
      </trkpt>
      <trkpt lat="45.64099" lon="6.87125">
        <ele>1987.3</ele>
        <time>2016-05-06T09:18:51Z</time>
      </trkpt>
      <trkpt lat="45.64099" lon="6.87125">
        <ele>1987</ele>
        <time>2016-05-06T09:18:53Z</time>
      </trkpt>
      <trkpt lat="45.641" lon="6.87126">
        <ele>1987.4</ele>
        <time>2016-05-06T09:18:55Z</time>
      </trkpt>
      <trkpt lat="45.64101" lon="6.87126">
        <ele>1987.4</ele>
        <time>2016-05-06T09:18:57Z</time>
      </trkpt>
      <trkpt lat="45.64102" lon="6.87126">
        <ele>1987.3</ele>
        <time>2016-05-06T09:18:59Z</time>
      </trkpt>
      <trkpt lat="45.64103" lon="6.87126">
        <ele>1987.8</ele>
        <time>2016-05-06T09:19:01Z</time>
      </trkpt>
      <trkpt lat="45.64104" lon="6.87127">
        <ele>1989.1</ele>
        <time>2016-05-06T09:19:03Z</time>
      </trkpt>
      <trkpt lat="45.64105" lon="6.87127">
        <ele>1989</ele>
        <time>2016-05-06T09:19:05Z</time>
      </trkpt>
      <trkpt lat="45.64106" lon="6.87127">
        <ele>1989.2</ele>
        <time>2016-05-06T09:19:07Z</time>
      </trkpt>
      <trkpt lat="45.64107" lon="6.87127">
        <ele>1989.8</ele>
        <time>2016-05-06T09:19:09Z</time>
      </trkpt>
      <trkpt lat="45.64107" lon="6.87127">
        <ele>1990.1</ele>
        <time>2016-05-06T09:19:11Z</time>
      </trkpt>
      <trkpt lat="45.64108" lon="6.87127">
        <ele>1990.1</ele>
        <time>2016-05-06T09:19:13Z</time>
      </trkpt>
      <trkpt lat="45.64109" lon="6.87127">
        <ele>1990.3</ele>
        <time>2016-05-06T09:19:15Z</time>
      </trkpt>
      <trkpt lat="45.6411" lon="6.87127">
        <ele>1990.3</ele>
        <time>2016-05-06T09:19:17Z</time>
      </trkpt>
      <trkpt lat="45.6411" lon="6.87127">
        <ele>1990.7</ele>
        <time>2016-05-06T09:19:19Z</time>
      </trkpt>
      <trkpt lat="45.64112" lon="6.87127">
        <ele>1991.3</ele>
        <time>2016-05-06T09:19:21Z</time>
      </trkpt>
      <trkpt lat="45.64113" lon="6.87127">
        <ele>1992.1</ele>
        <time>2016-05-06T09:19:23Z</time>
      </trkpt>
      <trkpt lat="45.64114" lon="6.87127">
        <ele>1992.4</ele>
        <time>2016-05-06T09:19:25Z</time>
      </trkpt>
      <trkpt lat="45.64115" lon="6.87127">
        <ele>1992.9</ele>
        <time>2016-05-06T09:19:27Z</time>
      </trkpt>
      <trkpt lat="45.64116" lon="6.87128">
        <ele>1993.1</ele>
        <time>2016-05-06T09:19:29Z</time>
      </trkpt>
      <trkpt lat="45.64117" lon="6.87128">
        <ele>1992.9</ele>
        <time>2016-05-06T09:19:31Z</time>
      </trkpt>
      <trkpt lat="45.64118" lon="6.87128">
        <ele>1992.6</ele>
        <time>2016-05-06T09:19:33Z</time>
      </trkpt>
      <trkpt lat="45.64119" lon="6.87128">
        <ele>1992.3</ele>
        <time>2016-05-06T09:19:35Z</time>
      </trkpt>
      <trkpt lat="45.64119" lon="6.87128">
        <ele>1992.1</ele>
        <time>2016-05-06T09:19:37Z</time>
      </trkpt>
      <trkpt lat="45.6412" lon="6.87128">
        <ele>1992.2</ele>
        <time>2016-05-06T09:19:39Z</time>
      </trkpt>
      <trkpt lat="45.64121" lon="6.87128">
        <ele>1992.6</ele>
        <time>2016-05-06T09:19:41Z</time>
      </trkpt>
      <trkpt lat="45.64123" lon="6.87128">
        <ele>1993.4</ele>
        <time>2016-05-06T09:19:43Z</time>
      </trkpt>
      <trkpt lat="45.64124" lon="6.87128">
        <ele>1994.1</ele>
        <time>2016-05-06T09:19:45Z</time>
      </trkpt>
      <trkpt lat="45.64125" lon="6.87128">
        <ele>1994.5</ele>
        <time>2016-05-06T09:19:47Z</time>
      </trkpt>
      <trkpt lat="45.64126" lon="6.87128">
        <ele>1994.6</ele>
        <time>2016-05-06T09:19:49Z</time>
      </trkpt>
      <trkpt lat="45.64127" lon="6.87128">
        <ele>1994.4</ele>
        <time>2016-05-06T09:19:51Z</time>
      </trkpt>
      <trkpt lat="45.64128" lon="6.87129">
        <ele>1994.3</ele>
        <time>2016-05-06T09:19:53Z</time>
      </trkpt>
      <trkpt lat="45.64128" lon="6.87129">
        <ele>1994.3</ele>
        <time>2016-05-06T09:19:55Z</time>
      </trkpt>
      <trkpt lat="45.64129" lon="6.87129">
        <ele>1994.6</ele>
        <time>2016-05-06T09:19:57Z</time>
      </trkpt>
      <trkpt lat="45.6413" lon="6.87129">
        <ele>1995.1</ele>
        <time>2016-05-06T09:19:59Z</time>
      </trkpt>
      <trkpt lat="45.6413" lon="6.87129">
        <ele>1995.6</ele>
        <time>2016-05-06T09:20:01Z</time>
      </trkpt>
      <trkpt lat="45.64131" lon="6.87129">
        <ele>1995.8</ele>
        <time>2016-05-06T09:20:03Z</time>
      </trkpt>
      <trkpt lat="45.64132" lon="6.87129">
        <ele>1995.7</ele>
        <time>2016-05-06T09:20:05Z</time>
      </trkpt>
      <trkpt lat="45.64133" lon="6.87129">
        <ele>1995.9</ele>
        <time>2016-05-06T09:20:07Z</time>
      </trkpt>
      <trkpt lat="45.64134" lon="6.8713">
        <ele>1995.7</ele>
        <time>2016-05-06T09:20:09Z</time>
      </trkpt>
      <trkpt lat="45.64135" lon="6.8713">
        <ele>1995.6</ele>
        <time>2016-05-06T09:20:11Z</time>
      </trkpt>
      <trkpt lat="45.64136" lon="6.87131">
        <ele>1995.4</ele>
        <time>2016-05-06T09:20:13Z</time>
      </trkpt>
      <trkpt lat="45.64137" lon="6.87131">
        <ele>1995.4</ele>
        <time>2016-05-06T09:20:15Z</time>
      </trkpt>
      <trkpt lat="45.64137" lon="6.87131">
        <ele>1995.8</ele>
        <time>2016-05-06T09:20:17Z</time>
      </trkpt>
      <trkpt lat="45.64138" lon="6.87131">
        <ele>1996.4</ele>
        <time>2016-05-06T09:20:19Z</time>
      </trkpt>
      <trkpt lat="45.64139" lon="6.87131">
        <ele>1997</ele>
        <time>2016-05-06T09:20:21Z</time>
      </trkpt>
      <trkpt lat="45.6414" lon="6.87131">
        <ele>1997.7</ele>
        <time>2016-05-06T09:20:23Z</time>
      </trkpt>
      <trkpt lat="45.64141" lon="6.87131">
        <ele>1998.5</ele>
        <time>2016-05-06T09:20:25Z</time>
      </trkpt>
      <trkpt lat="45.64142" lon="6.8713">
        <ele>1998.9</ele>
        <time>2016-05-06T09:20:27Z</time>
      </trkpt>
      <trkpt lat="45.64143" lon="6.87129">
        <ele>2000</ele>
        <time>2016-05-06T09:20:29Z</time>
      </trkpt>
      <trkpt lat="45.64144" lon="6.87128">
        <ele>2001.4</ele>
        <time>2016-05-06T09:20:31Z</time>
      </trkpt>
      <trkpt lat="45.64145" lon="6.87128">
        <ele>2002</ele>
        <time>2016-05-06T09:20:33Z</time>
      </trkpt>
      <trkpt lat="45.64146" lon="6.87128">
        <ele>2001.9</ele>
        <time>2016-05-06T09:20:35Z</time>
      </trkpt>
      <trkpt lat="45.64147" lon="6.87128">
        <ele>2001.2</ele>
        <time>2016-05-06T09:20:37Z</time>
      </trkpt>
      <trkpt lat="45.64148" lon="6.87129">
        <ele>2000.8</ele>
        <time>2016-05-06T09:20:39Z</time>
      </trkpt>
      <trkpt lat="45.64147" lon="6.87129">
        <ele>2000.2</ele>
        <time>2016-05-06T09:20:41Z</time>
      </trkpt>
      <trkpt lat="45.64147" lon="6.8713">
        <ele>2000.2</ele>
        <time>2016-05-06T09:20:43Z</time>
      </trkpt>
      <trkpt lat="45.64147" lon="6.8713">
        <ele>2001.8</ele>
        <time>2016-05-06T09:20:45Z</time>
      </trkpt>
      <trkpt lat="45.64147" lon="6.8713">
        <ele>2002.7</ele>
        <time>2016-05-06T09:20:47Z</time>
      </trkpt>
      <trkpt lat="45.64146" lon="6.87131">
        <ele>2003.1</ele>
        <time>2016-05-06T09:20:49Z</time>
      </trkpt>
      <trkpt lat="45.64146" lon="6.87131">
        <ele>2003.1</ele>
        <time>2016-05-06T09:20:51Z</time>
      </trkpt>
      <trkpt lat="45.64146" lon="6.87131">
        <ele>2003.1</ele>
        <time>2016-05-06T09:20:53Z</time>
      </trkpt>
      <trkpt lat="45.64146" lon="6.87131">
        <ele>2003.5</ele>
        <time>2016-05-06T09:20:55Z</time>
      </trkpt>
      <trkpt lat="45.64146" lon="6.87131">
        <ele>2002.6</ele>
        <time>2016-05-06T09:20:57Z</time>
      </trkpt>
      <trkpt lat="45.64146" lon="6.87131">
        <ele>2001.5</ele>
        <time>2016-05-06T09:20:59Z</time>
      </trkpt>
      <trkpt lat="45.64146" lon="6.87131">
        <ele>2001.3</ele>
        <time>2016-05-06T09:21:01Z</time>
      </trkpt>
      <trkpt lat="45.64146" lon="6.87132">
        <ele>2001.1</ele>
        <time>2016-05-06T09:21:03Z</time>
      </trkpt>
      <trkpt lat="45.64146" lon="6.87132">
        <ele>2000.8</ele>
        <time>2016-05-06T09:21:05Z</time>
      </trkpt>
      <trkpt lat="45.64146" lon="6.87131">
        <ele>2000.8</ele>
        <time>2016-05-06T09:21:07Z</time>
      </trkpt>
      <trkpt lat="45.64146" lon="6.87131">
        <ele>1999.6</ele>
        <time>2016-05-06T09:21:09Z</time>
      </trkpt>
      <trkpt lat="45.64146" lon="6.87132">
        <ele>1999.4</ele>
        <time>2016-05-06T09:21:11Z</time>
      </trkpt>
      <trkpt lat="45.64146" lon="6.87132">
        <ele>2000.5</ele>
        <time>2016-05-06T09:21:13Z</time>
      </trkpt>
      <trkpt lat="45.64146" lon="6.87132">
        <ele>2001.5</ele>
        <time>2016-05-06T09:21:15Z</time>
      </trkpt>
      <trkpt lat="45.64146" lon="6.87132">
        <ele>2002.2</ele>
        <time>2016-05-06T09:21:17Z</time>
      </trkpt>
      <trkpt lat="45.64147" lon="6.87131">
        <ele>2001.6</ele>
        <time>2016-05-06T09:21:19Z</time>
      </trkpt>
      <trkpt lat="45.64147" lon="6.87132">
        <ele>2001.7</ele>
        <time>2016-05-06T09:21:21Z</time>
      </trkpt>
      <trkpt lat="45.64147" lon="6.87132">
        <ele>2001.9</ele>
        <time>2016-05-06T09:21:23Z</time>
      </trkpt>
      <trkpt lat="45.64147" lon="6.87132">
        <ele>2002</ele>
        <time>2016-05-06T09:21:25Z</time>
      </trkpt>
      <trkpt lat="45.64147" lon="6.87132">
        <ele>2002.1</ele>
        <time>2016-05-06T09:21:27Z</time>
      </trkpt>
      <trkpt lat="45.64147" lon="6.87132">
        <ele>2002.1</ele>
        <time>2016-05-06T09:21:29Z</time>
      </trkpt>
      <trkpt lat="45.64147" lon="6.87132">
        <ele>2002</ele>
        <time>2016-05-06T09:21:31Z</time>
      </trkpt>
      <trkpt lat="45.64147" lon="6.87132">
        <ele>2001.8</ele>
        <time>2016-05-06T09:21:33Z</time>
      </trkpt>
      <trkpt lat="45.64147" lon="6.87133">
        <ele>2001.1</ele>
        <time>2016-05-06T09:21:35Z</time>
      </trkpt>
      <trkpt lat="45.64148" lon="6.87133">
        <ele>2001.6</ele>
        <time>2016-05-06T09:21:37Z</time>
      </trkpt>
      <trkpt lat="45.64148" lon="6.87133">
        <ele>2002.3</ele>
        <time>2016-05-06T09:21:39Z</time>
      </trkpt>
      <trkpt lat="45.64148" lon="6.87132">
        <ele>2002.6</ele>
        <time>2016-05-06T09:21:41Z</time>
      </trkpt>
      <trkpt lat="45.64148" lon="6.87132">
        <ele>2002.8</ele>
        <time>2016-05-06T09:21:43Z</time>
      </trkpt>
      <trkpt lat="45.64148" lon="6.87132">
        <ele>2003</ele>
        <time>2016-05-06T09:21:45Z</time>
      </trkpt>
      <trkpt lat="45.64148" lon="6.87132">
        <ele>2002.9</ele>
        <time>2016-05-06T09:21:47Z</time>
      </trkpt>
      <trkpt lat="45.64148" lon="6.87132">
        <ele>2002.7</ele>
        <time>2016-05-06T09:21:49Z</time>
      </trkpt>
      <trkpt lat="45.64148" lon="6.87132">
        <ele>2002.4</ele>
        <time>2016-05-06T09:21:51Z</time>
      </trkpt>
      <trkpt lat="45.64148" lon="6.87132">
        <ele>2002.1</ele>
        <time>2016-05-06T09:21:53Z</time>
      </trkpt>
      <trkpt lat="45.64148" lon="6.87131">
        <ele>2002</ele>
        <time>2016-05-06T09:21:55Z</time>
      </trkpt>
      <trkpt lat="45.64148" lon="6.87132">
        <ele>2002</ele>
        <time>2016-05-06T09:21:57Z</time>
      </trkpt>
      <trkpt lat="45.64149" lon="6.87133">
        <ele>2001.5</ele>
        <time>2016-05-06T09:21:59Z</time>
      </trkpt>
      <trkpt lat="45.6415" lon="6.87134">
        <ele>2001.4</ele>
        <time>2016-05-06T09:22:01Z</time>
      </trkpt>
      <trkpt lat="45.64151" lon="6.87135">
        <ele>2001</ele>
        <time>2016-05-06T09:22:03Z</time>
      </trkpt>
      <trkpt lat="45.64152" lon="6.87135">
        <ele>2000.9</ele>
        <time>2016-05-06T09:22:05Z</time>
      </trkpt>
      <trkpt lat="45.64153" lon="6.87136">
        <ele>2000.8</ele>
        <time>2016-05-06T09:22:07Z</time>
      </trkpt>
      <trkpt lat="45.64154" lon="6.87137">
        <ele>2000.7</ele>
        <time>2016-05-06T09:22:09Z</time>
      </trkpt>
      <trkpt lat="45.64155" lon="6.87138">
        <ele>2000.5</ele>
        <time>2016-05-06T09:22:11Z</time>
      </trkpt>
      <trkpt lat="45.64156" lon="6.87138">
        <ele>2000.6</ele>
        <time>2016-05-06T09:22:13Z</time>
      </trkpt>
      <trkpt lat="45.64158" lon="6.87138">
        <ele>2000.5</ele>
        <time>2016-05-06T09:22:15Z</time>
      </trkpt>
      <trkpt lat="45.64158" lon="6.87139">
        <ele>2000.1</ele>
        <time>2016-05-06T09:22:17Z</time>
      </trkpt>
      <trkpt lat="45.64159" lon="6.87139">
        <ele>2000.5</ele>
        <time>2016-05-06T09:22:19Z</time>
      </trkpt>
      <trkpt lat="45.6416" lon="6.8714">
        <ele>2001.1</ele>
        <time>2016-05-06T09:22:21Z</time>
      </trkpt>
      <trkpt lat="45.64161" lon="6.8714">
        <ele>2001.4</ele>
        <time>2016-05-06T09:22:23Z</time>
      </trkpt>
      <trkpt lat="45.64162" lon="6.87141">
        <ele>2001.9</ele>
        <time>2016-05-06T09:22:25Z</time>
      </trkpt>
      <trkpt lat="45.64163" lon="6.87141">
        <ele>2002.4</ele>
        <time>2016-05-06T09:22:27Z</time>
      </trkpt>
      <trkpt lat="45.64164" lon="6.87142">
        <ele>2002.8</ele>
        <time>2016-05-06T09:22:29Z</time>
      </trkpt>
      <trkpt lat="45.64164" lon="6.87142">
        <ele>2003.4</ele>
        <time>2016-05-06T09:22:31Z</time>
      </trkpt>
      <trkpt lat="45.64165" lon="6.87142">
        <ele>2003.9</ele>
        <time>2016-05-06T09:22:33Z</time>
      </trkpt>
      <trkpt lat="45.64166" lon="6.87142">
        <ele>2004.6</ele>
        <time>2016-05-06T09:22:35Z</time>
      </trkpt>
      <trkpt lat="45.64166" lon="6.87142">
        <ele>2005.5</ele>
        <time>2016-05-06T09:22:37Z</time>
      </trkpt>
      <trkpt lat="45.64167" lon="6.87142">
        <ele>2006.6</ele>
        <time>2016-05-06T09:22:39Z</time>
      </trkpt>
      <trkpt lat="45.64167" lon="6.87143">
        <ele>2007.4</ele>
        <time>2016-05-06T09:22:41Z</time>
      </trkpt>
      <trkpt lat="45.64168" lon="6.87143">
        <ele>2007.9</ele>
        <time>2016-05-06T09:22:43Z</time>
      </trkpt>
      <trkpt lat="45.64168" lon="6.87143">
        <ele>2008.2</ele>
        <time>2016-05-06T09:22:45Z</time>
      </trkpt>
      <trkpt lat="45.64169" lon="6.87144">
        <ele>2008.5</ele>
        <time>2016-05-06T09:22:47Z</time>
      </trkpt>
      <trkpt lat="45.6417" lon="6.87145">
        <ele>2008.5</ele>
        <time>2016-05-06T09:22:49Z</time>
      </trkpt>
      <trkpt lat="45.64172" lon="6.87145">
        <ele>2008.9</ele>
        <time>2016-05-06T09:22:51Z</time>
      </trkpt>
      <trkpt lat="45.64172" lon="6.87146">
        <ele>2009.2</ele>
        <time>2016-05-06T09:22:53Z</time>
      </trkpt>
      <trkpt lat="45.64173" lon="6.87146">
        <ele>2009.3</ele>
        <time>2016-05-06T09:22:55Z</time>
      </trkpt>
      <trkpt lat="45.64174" lon="6.87147">
        <ele>2009.4</ele>
        <time>2016-05-06T09:22:57Z</time>
      </trkpt>
      <trkpt lat="45.64174" lon="6.87147">
        <ele>2009.7</ele>
        <time>2016-05-06T09:22:59Z</time>
      </trkpt>
      <trkpt lat="45.64175" lon="6.87147">
        <ele>2010.8</ele>
        <time>2016-05-06T09:23:01Z</time>
      </trkpt>
      <trkpt lat="45.64176" lon="6.87147">
        <ele>2011.6</ele>
        <time>2016-05-06T09:23:03Z</time>
      </trkpt>
      <trkpt lat="45.64176" lon="6.87148">
        <ele>2012.5</ele>
        <time>2016-05-06T09:23:05Z</time>
      </trkpt>
      <trkpt lat="45.64176" lon="6.87148">
        <ele>2012.7</ele>
        <time>2016-05-06T09:23:07Z</time>
      </trkpt>
      <trkpt lat="45.64177" lon="6.87148">
        <ele>2012</ele>
        <time>2016-05-06T09:23:09Z</time>
      </trkpt>
      <trkpt lat="45.64177" lon="6.87148">
        <ele>2011.6</ele>
        <time>2016-05-06T09:23:11Z</time>
      </trkpt>
      <trkpt lat="45.64178" lon="6.87149">
        <ele>2011.4</ele>
        <time>2016-05-06T09:23:13Z</time>
      </trkpt>
      <trkpt lat="45.64179" lon="6.87149">
        <ele>2011.4</ele>
        <time>2016-05-06T09:23:15Z</time>
      </trkpt>
      <trkpt lat="45.6418" lon="6.8715">
        <ele>2010.9</ele>
        <time>2016-05-06T09:23:17Z</time>
      </trkpt>
      <trkpt lat="45.64181" lon="6.87151">
        <ele>2010.8</ele>
        <time>2016-05-06T09:23:19Z</time>
      </trkpt>
      <trkpt lat="45.64182" lon="6.87151">
        <ele>2011.4</ele>
        <time>2016-05-06T09:23:21Z</time>
      </trkpt>
      <trkpt lat="45.64182" lon="6.87151">
        <ele>2011.4</ele>
        <time>2016-05-06T09:23:23Z</time>
      </trkpt>
      <trkpt lat="45.64183" lon="6.87151">
        <ele>2011.8</ele>
        <time>2016-05-06T09:23:25Z</time>
      </trkpt>
      <trkpt lat="45.64184" lon="6.87151">
        <ele>2012.6</ele>
        <time>2016-05-06T09:23:27Z</time>
      </trkpt>
      <trkpt lat="45.64185" lon="6.87151">
        <ele>2013.5</ele>
        <time>2016-05-06T09:23:29Z</time>
      </trkpt>
      <trkpt lat="45.64185" lon="6.87151">
        <ele>2012.6</ele>
        <time>2016-05-06T09:23:31Z</time>
      </trkpt>
      <trkpt lat="45.64186" lon="6.87151">
        <ele>2013.1</ele>
        <time>2016-05-06T09:23:33Z</time>
      </trkpt>
      <trkpt lat="45.64186" lon="6.87151">
        <ele>2013.6</ele>
        <time>2016-05-06T09:23:35Z</time>
      </trkpt>
      <trkpt lat="45.64187" lon="6.87152">
        <ele>2013.5</ele>
        <time>2016-05-06T09:23:37Z</time>
      </trkpt>
      <trkpt lat="45.64189" lon="6.87152">
        <ele>2015.2</ele>
        <time>2016-05-06T09:23:39Z</time>
      </trkpt>
      <trkpt lat="45.6419" lon="6.87152">
        <ele>2017.8</ele>
        <time>2016-05-06T09:23:41Z</time>
      </trkpt>
      <trkpt lat="45.64191" lon="6.87152">
        <ele>2017.9</ele>
        <time>2016-05-06T09:23:43Z</time>
      </trkpt>
      <trkpt lat="45.64191" lon="6.87152">
        <ele>2018.1</ele>
        <time>2016-05-06T09:23:45Z</time>
      </trkpt>
      <trkpt lat="45.64192" lon="6.87152">
        <ele>2018.2</ele>
        <time>2016-05-06T09:23:47Z</time>
      </trkpt>
      <trkpt lat="45.64193" lon="6.87152">
        <ele>2019.3</ele>
        <time>2016-05-06T09:23:49Z</time>
      </trkpt>
      <trkpt lat="45.64194" lon="6.87152">
        <ele>2020</ele>
        <time>2016-05-06T09:23:51Z</time>
      </trkpt>
      <trkpt lat="45.64195" lon="6.87152">
        <ele>2019.7</ele>
        <time>2016-05-06T09:23:53Z</time>
      </trkpt>
      <trkpt lat="45.64195" lon="6.87152">
        <ele>2019.7</ele>
        <time>2016-05-06T09:23:55Z</time>
      </trkpt>
      <trkpt lat="45.64196" lon="6.87152">
        <ele>2019.7</ele>
        <time>2016-05-06T09:23:57Z</time>
      </trkpt>
      <trkpt lat="45.64196" lon="6.87152">
        <ele>2020.2</ele>
        <time>2016-05-06T09:23:59Z</time>
      </trkpt>
      <trkpt lat="45.64197" lon="6.87152">
        <ele>2019.8</ele>
        <time>2016-05-06T09:24:01Z</time>
      </trkpt>
      <trkpt lat="45.64198" lon="6.87152">
        <ele>2020</ele>
        <time>2016-05-06T09:24:03Z</time>
      </trkpt>
      <trkpt lat="45.64199" lon="6.87152">
        <ele>2020.6</ele>
        <time>2016-05-06T09:24:05Z</time>
      </trkpt>
      <trkpt lat="45.642" lon="6.87152">
        <ele>2020.5</ele>
        <time>2016-05-06T09:24:07Z</time>
      </trkpt>
      <trkpt lat="45.64201" lon="6.87152">
        <ele>2019.9</ele>
        <time>2016-05-06T09:24:09Z</time>
      </trkpt>
      <trkpt lat="45.64202" lon="6.87152">
        <ele>2019</ele>
        <time>2016-05-06T09:24:11Z</time>
      </trkpt>
      <trkpt lat="45.64203" lon="6.87152">
        <ele>2019.2</ele>
        <time>2016-05-06T09:24:13Z</time>
      </trkpt>
      <trkpt lat="45.64203" lon="6.87152">
        <ele>2020.3</ele>
        <time>2016-05-06T09:24:15Z</time>
      </trkpt>
      <trkpt lat="45.64204" lon="6.87152">
        <ele>2020.8</ele>
        <time>2016-05-06T09:24:17Z</time>
      </trkpt>
      <trkpt lat="45.64205" lon="6.87152">
        <ele>2021.1</ele>
        <time>2016-05-06T09:24:19Z</time>
      </trkpt>
      <trkpt lat="45.64206" lon="6.87152">
        <ele>2021.1</ele>
        <time>2016-05-06T09:24:21Z</time>
      </trkpt>
      <trkpt lat="45.64207" lon="6.87153">
        <ele>2020.8</ele>
        <time>2016-05-06T09:24:23Z</time>
      </trkpt>
      <trkpt lat="45.64208" lon="6.87153">
        <ele>2020.8</ele>
        <time>2016-05-06T09:24:25Z</time>
      </trkpt>
      <trkpt lat="45.64208" lon="6.87153">
        <ele>2020.9</ele>
        <time>2016-05-06T09:24:27Z</time>
      </trkpt>
      <trkpt lat="45.64208" lon="6.87153">
        <ele>2020.4</ele>
        <time>2016-05-06T09:24:29Z</time>
      </trkpt>
      <trkpt lat="45.64208" lon="6.87153">
        <ele>2019.9</ele>
        <time>2016-05-06T09:24:31Z</time>
      </trkpt>
      <trkpt lat="45.64208" lon="6.87153">
        <ele>2019.7</ele>
        <time>2016-05-06T09:24:33Z</time>
      </trkpt>
      <trkpt lat="45.64208" lon="6.87153">
        <ele>2019.4</ele>
        <time>2016-05-06T09:24:35Z</time>
      </trkpt>
      <trkpt lat="45.64208" lon="6.87153">
        <ele>2018.4</ele>
        <time>2016-05-06T09:24:37Z</time>
      </trkpt>
      <trkpt lat="45.64208" lon="6.87153">
        <ele>2018.2</ele>
        <time>2016-05-06T09:24:39Z</time>
      </trkpt>
      <trkpt lat="45.64209" lon="6.87153">
        <ele>2019.2</ele>
        <time>2016-05-06T09:24:41Z</time>
      </trkpt>
      <trkpt lat="45.6421" lon="6.87154">
        <ele>2019.2</ele>
        <time>2016-05-06T09:24:43Z</time>
      </trkpt>
      <trkpt lat="45.6421" lon="6.87154">
        <ele>2019.3</ele>
        <time>2016-05-06T09:24:45Z</time>
      </trkpt>
      <trkpt lat="45.64211" lon="6.87153">
        <ele>2019.7</ele>
        <time>2016-05-06T09:24:47Z</time>
      </trkpt>
      <trkpt lat="45.64212" lon="6.87153">
        <ele>2020.1</ele>
        <time>2016-05-06T09:24:49Z</time>
      </trkpt>
      <trkpt lat="45.64212" lon="6.87154">
        <ele>2019.8</ele>
        <time>2016-05-06T09:24:51Z</time>
      </trkpt>
      <trkpt lat="45.64212" lon="6.87154">
        <ele>2019.6</ele>
        <time>2016-05-06T09:24:53Z</time>
      </trkpt>
      <trkpt lat="45.64212" lon="6.87155">
        <ele>2019.6</ele>
        <time>2016-05-06T09:24:55Z</time>
      </trkpt>
      <trkpt lat="45.64212" lon="6.87154">
        <ele>2019.5</ele>
        <time>2016-05-06T09:24:57Z</time>
      </trkpt>
      <trkpt lat="45.64212" lon="6.87154">
        <ele>2019.2</ele>
        <time>2016-05-06T09:24:59Z</time>
      </trkpt>
      <trkpt lat="45.64212" lon="6.87154">
        <ele>2018.9</ele>
        <time>2016-05-06T09:25:01Z</time>
      </trkpt>
      <trkpt lat="45.64212" lon="6.87154">
        <ele>2019.8</ele>
        <time>2016-05-06T09:25:03Z</time>
      </trkpt>
      <trkpt lat="45.64213" lon="6.87154">
        <ele>2021.9</ele>
        <time>2016-05-06T09:25:05Z</time>
      </trkpt>
      <trkpt lat="45.64214" lon="6.87153">
        <ele>2024.2</ele>
        <time>2016-05-06T09:25:07Z</time>
      </trkpt>
      <trkpt lat="45.64214" lon="6.87153">
        <ele>2025.5</ele>
        <time>2016-05-06T09:25:09Z</time>
      </trkpt>
      <trkpt lat="45.64215" lon="6.87153">
        <ele>2025.3</ele>
        <time>2016-05-06T09:25:11Z</time>
      </trkpt>
      <trkpt lat="45.64215" lon="6.87153">
        <ele>2026.1</ele>
        <time>2016-05-06T09:25:13Z</time>
      </trkpt>
      <trkpt lat="45.64216" lon="6.87152">
        <ele>2026.5</ele>
        <time>2016-05-06T09:25:15Z</time>
      </trkpt>
      <trkpt lat="45.64217" lon="6.87152">
        <ele>2027.1</ele>
        <time>2016-05-06T09:25:17Z</time>
      </trkpt>
      <trkpt lat="45.64218" lon="6.87151">
        <ele>2027.3</ele>
        <time>2016-05-06T09:25:19Z</time>
      </trkpt>
      <trkpt lat="45.64219" lon="6.87151">
        <ele>2027.8</ele>
        <time>2016-05-06T09:25:21Z</time>
      </trkpt>
      <trkpt lat="45.6422" lon="6.8715">
        <ele>2028.8</ele>
        <time>2016-05-06T09:25:23Z</time>
      </trkpt>
      <trkpt lat="45.64221" lon="6.8715">
        <ele>2029.7</ele>
        <time>2016-05-06T09:25:25Z</time>
      </trkpt>
      <trkpt lat="45.64222" lon="6.87149">
        <ele>2030.2</ele>
        <time>2016-05-06T09:25:27Z</time>
      </trkpt>
      <trkpt lat="45.64223" lon="6.87149">
        <ele>2030.6</ele>
        <time>2016-05-06T09:25:29Z</time>
      </trkpt>
      <trkpt lat="45.64224" lon="6.87149">
        <ele>2030.8</ele>
        <time>2016-05-06T09:25:31Z</time>
      </trkpt>
      <trkpt lat="45.64226" lon="6.87148">
        <ele>2030.8</ele>
        <time>2016-05-06T09:25:33Z</time>
      </trkpt>
      <trkpt lat="45.64226" lon="6.87148">
        <ele>2030.6</ele>
        <time>2016-05-06T09:25:35Z</time>
      </trkpt>
      <trkpt lat="45.64227" lon="6.87148">
        <ele>2030.8</ele>
        <time>2016-05-06T09:25:37Z</time>
      </trkpt>
      <trkpt lat="45.64228" lon="6.87147">
        <ele>2030</ele>
        <time>2016-05-06T09:25:39Z</time>
      </trkpt>
      <trkpt lat="45.64229" lon="6.87147">
        <ele>2030.6</ele>
        <time>2016-05-06T09:25:41Z</time>
      </trkpt>
      <trkpt lat="45.6423" lon="6.87147">
        <ele>2031.6</ele>
        <time>2016-05-06T09:25:43Z</time>
      </trkpt>
      <trkpt lat="45.64231" lon="6.87146">
        <ele>2031.7</ele>
        <time>2016-05-06T09:25:45Z</time>
      </trkpt>
      <trkpt lat="45.64232" lon="6.87146">
        <ele>2032</ele>
        <time>2016-05-06T09:25:47Z</time>
      </trkpt>
      <trkpt lat="45.64233" lon="6.87145">
        <ele>2031.9</ele>
        <time>2016-05-06T09:25:49Z</time>
      </trkpt>
      <trkpt lat="45.64234" lon="6.87145">
        <ele>2031.6</ele>
        <time>2016-05-06T09:25:51Z</time>
      </trkpt>
      <trkpt lat="45.64235" lon="6.87144">
        <ele>2031.9</ele>
        <time>2016-05-06T09:25:53Z</time>
      </trkpt>
      <trkpt lat="45.64237" lon="6.87144">
        <ele>2032.7</ele>
        <time>2016-05-06T09:25:55Z</time>
      </trkpt>
      <trkpt lat="45.64238" lon="6.87144">
        <ele>2033.5</ele>
        <time>2016-05-06T09:25:57Z</time>
      </trkpt>
      <trkpt lat="45.64239" lon="6.87143">
        <ele>2034</ele>
        <time>2016-05-06T09:25:59Z</time>
      </trkpt>
      <trkpt lat="45.6424" lon="6.87143">
        <ele>2033.7</ele>
        <time>2016-05-06T09:26:01Z</time>
      </trkpt>
      <trkpt lat="45.64241" lon="6.87142">
        <ele>2033</ele>
        <time>2016-05-06T09:26:03Z</time>
      </trkpt>
      <trkpt lat="45.64241" lon="6.87142">
        <ele>2032.3</ele>
        <time>2016-05-06T09:26:05Z</time>
      </trkpt>
      <trkpt lat="45.64242" lon="6.87142">
        <ele>2032.3</ele>
        <time>2016-05-06T09:26:07Z</time>
      </trkpt>
      <trkpt lat="45.64243" lon="6.87142">
        <ele>2032.8</ele>
        <time>2016-05-06T09:26:09Z</time>
      </trkpt>
      <trkpt lat="45.64244" lon="6.87141">
        <ele>2033</ele>
        <time>2016-05-06T09:26:11Z</time>
      </trkpt>
      <trkpt lat="45.64244" lon="6.87141">
        <ele>2033.3</ele>
        <time>2016-05-06T09:26:13Z</time>
      </trkpt>
      <trkpt lat="45.64246" lon="6.87141">
        <ele>2033.7</ele>
        <time>2016-05-06T09:26:15Z</time>
      </trkpt>
      <trkpt lat="45.64246" lon="6.8714">
        <ele>2034.5</ele>
        <time>2016-05-06T09:26:17Z</time>
      </trkpt>
      <trkpt lat="45.64247" lon="6.8714">
        <ele>2035.6</ele>
        <time>2016-05-06T09:26:19Z</time>
      </trkpt>
      <trkpt lat="45.64247" lon="6.8714">
        <ele>2035.5</ele>
        <time>2016-05-06T09:26:21Z</time>
      </trkpt>
      <trkpt lat="45.64247" lon="6.8714">
        <ele>2034.5</ele>
        <time>2016-05-06T09:26:23Z</time>
      </trkpt>
      <trkpt lat="45.64247" lon="6.8714">
        <ele>2033.6</ele>
        <time>2016-05-06T09:26:25Z</time>
      </trkpt>
      <trkpt lat="45.64247" lon="6.8714">
        <ele>2032.5</ele>
        <time>2016-05-06T09:26:27Z</time>
      </trkpt>
      <trkpt lat="45.64247" lon="6.8714">
        <ele>2031.7</ele>
        <time>2016-05-06T09:26:29Z</time>
      </trkpt>
      <trkpt lat="45.64247" lon="6.8714">
        <ele>2031.3</ele>
        <time>2016-05-06T09:26:31Z</time>
      </trkpt>
      <trkpt lat="45.64247" lon="6.8714">
        <ele>2031.2</ele>
        <time>2016-05-06T09:26:33Z</time>
      </trkpt>
      <trkpt lat="45.64247" lon="6.8714">
        <ele>2031.1</ele>
        <time>2016-05-06T09:26:35Z</time>
      </trkpt>
      <trkpt lat="45.64247" lon="6.8714">
        <ele>2030.8</ele>
        <time>2016-05-06T09:26:37Z</time>
      </trkpt>
      <trkpt lat="45.64247" lon="6.8714">
        <ele>2030.9</ele>
        <time>2016-05-06T09:26:39Z</time>
      </trkpt>
      <trkpt lat="45.64247" lon="6.8714">
        <ele>2031.2</ele>
        <time>2016-05-06T09:26:41Z</time>
      </trkpt>
      <trkpt lat="45.64247" lon="6.8714">
        <ele>2031.3</ele>
        <time>2016-05-06T09:26:43Z</time>
      </trkpt>
      <trkpt lat="45.64247" lon="6.8714">
        <ele>2031.3</ele>
        <time>2016-05-06T09:26:45Z</time>
      </trkpt>
      <trkpt lat="45.64247" lon="6.8714">
        <ele>2031.1</ele>
        <time>2016-05-06T09:26:47Z</time>
      </trkpt>
      <trkpt lat="45.64247" lon="6.8714">
        <ele>2031</ele>
        <time>2016-05-06T09:26:49Z</time>
      </trkpt>
      <trkpt lat="45.64248" lon="6.8714">
        <ele>2031.5</ele>
        <time>2016-05-06T09:26:51Z</time>
      </trkpt>
      <trkpt lat="45.64249" lon="6.87139">
        <ele>2032.9</ele>
        <time>2016-05-06T09:26:53Z</time>
      </trkpt>
      <trkpt lat="45.6425" lon="6.87139">
        <ele>2034.9</ele>
        <time>2016-05-06T09:26:55Z</time>
      </trkpt>
      <trkpt lat="45.64251" lon="6.87138">
        <ele>2036.3</ele>
        <time>2016-05-06T09:26:57Z</time>
      </trkpt>
      <trkpt lat="45.64252" lon="6.87138">
        <ele>2036.5</ele>
        <time>2016-05-06T09:26:59Z</time>
      </trkpt>
      <trkpt lat="45.64254" lon="6.87137">
        <ele>2036.8</ele>
        <time>2016-05-06T09:27:01Z</time>
      </trkpt>
      <trkpt lat="45.64255" lon="6.87137">
        <ele>2037.3</ele>
        <time>2016-05-06T09:27:03Z</time>
      </trkpt>
      <trkpt lat="45.64256" lon="6.87136">
        <ele>2039</ele>
        <time>2016-05-06T09:27:05Z</time>
      </trkpt>
      <trkpt lat="45.64258" lon="6.87136">
        <ele>2040.4</ele>
        <time>2016-05-06T09:27:07Z</time>
      </trkpt>
      <trkpt lat="45.64258" lon="6.87136">
        <ele>2042</ele>
        <time>2016-05-06T09:27:09Z</time>
      </trkpt>
      <trkpt lat="45.64259" lon="6.87135">
        <ele>2042.3</ele>
        <time>2016-05-06T09:27:11Z</time>
      </trkpt>
      <trkpt lat="45.6426" lon="6.87135">
        <ele>2042.8</ele>
        <time>2016-05-06T09:27:13Z</time>
      </trkpt>
      <trkpt lat="45.64262" lon="6.87134">
        <ele>2043.1</ele>
        <time>2016-05-06T09:27:15Z</time>
      </trkpt>
      <trkpt lat="45.64263" lon="6.87134">
        <ele>2044.1</ele>
        <time>2016-05-06T09:27:17Z</time>
      </trkpt>
      <trkpt lat="45.64264" lon="6.87134">
        <ele>2044.2</ele>
        <time>2016-05-06T09:27:19Z</time>
      </trkpt>
      <trkpt lat="45.64265" lon="6.87133">
        <ele>2044.6</ele>
        <time>2016-05-06T09:27:21Z</time>
      </trkpt>
      <trkpt lat="45.64266" lon="6.87133">
        <ele>2045.9</ele>
        <time>2016-05-06T09:27:23Z</time>
      </trkpt>
      <trkpt lat="45.64267" lon="6.87133">
        <ele>2046.2</ele>
        <time>2016-05-06T09:27:25Z</time>
      </trkpt>
      <trkpt lat="45.64268" lon="6.87132">
        <ele>2044.9</ele>
        <time>2016-05-06T09:27:27Z</time>
      </trkpt>
      <trkpt lat="45.64269" lon="6.87132">
        <ele>2044.7</ele>
        <time>2016-05-06T09:27:29Z</time>
      </trkpt>
      <trkpt lat="45.64271" lon="6.87131">
        <ele>2045.3</ele>
        <time>2016-05-06T09:27:31Z</time>
      </trkpt>
      <trkpt lat="45.64272" lon="6.87131">
        <ele>2046</ele>
        <time>2016-05-06T09:27:33Z</time>
      </trkpt>
      <trkpt lat="45.64272" lon="6.87131">
        <ele>2045.4</ele>
        <time>2016-05-06T09:27:35Z</time>
      </trkpt>
      <trkpt lat="45.64273" lon="6.8713">
        <ele>2044</ele>
        <time>2016-05-06T09:27:37Z</time>
      </trkpt>
      <trkpt lat="45.64274" lon="6.8713">
        <ele>2043</ele>
        <time>2016-05-06T09:27:39Z</time>
      </trkpt>
      <trkpt lat="45.64274" lon="6.8713">
        <ele>2042.9</ele>
        <time>2016-05-06T09:27:41Z</time>
      </trkpt>
      <trkpt lat="45.64275" lon="6.87129">
        <ele>2043.5</ele>
        <time>2016-05-06T09:27:43Z</time>
      </trkpt>
      <trkpt lat="45.64276" lon="6.87129">
        <ele>2043.8</ele>
        <time>2016-05-06T09:27:45Z</time>
      </trkpt>
      <trkpt lat="45.64277" lon="6.87129">
        <ele>2044.1</ele>
        <time>2016-05-06T09:27:47Z</time>
      </trkpt>
      <trkpt lat="45.64278" lon="6.87129">
        <ele>2043.7</ele>
        <time>2016-05-06T09:27:49Z</time>
      </trkpt>
      <trkpt lat="45.64279" lon="6.87128">
        <ele>2042.7</ele>
        <time>2016-05-06T09:27:51Z</time>
      </trkpt>
      <trkpt lat="45.6428" lon="6.87128">
        <ele>2042.6</ele>
        <time>2016-05-06T09:27:53Z</time>
      </trkpt>
      <trkpt lat="45.64282" lon="6.87128">
        <ele>2042.6</ele>
        <time>2016-05-06T09:27:55Z</time>
      </trkpt>
      <trkpt lat="45.64283" lon="6.87128">
        <ele>2042.8</ele>
        <time>2016-05-06T09:27:57Z</time>
      </trkpt>
      <trkpt lat="45.64285" lon="6.87127">
        <ele>2042.5</ele>
        <time>2016-05-06T09:27:59Z</time>
      </trkpt>
      <trkpt lat="45.64287" lon="6.87127">
        <ele>2042.5</ele>
        <time>2016-05-06T09:28:01Z</time>
      </trkpt>
      <trkpt lat="45.64288" lon="6.87127">
        <ele>2042.6</ele>
        <time>2016-05-06T09:28:03Z</time>
      </trkpt>
      <trkpt lat="45.6429" lon="6.87128">
        <ele>2042.9</ele>
        <time>2016-05-06T09:28:05Z</time>
      </trkpt>
      <trkpt lat="45.64292" lon="6.87128">
        <ele>2043.5</ele>
        <time>2016-05-06T09:28:07Z</time>
      </trkpt>
      <trkpt lat="45.64293" lon="6.87127">
        <ele>2044.4</ele>
        <time>2016-05-06T09:28:09Z</time>
      </trkpt>
      <trkpt lat="45.64294" lon="6.87127">
        <ele>2045.5</ele>
        <time>2016-05-06T09:28:11Z</time>
      </trkpt>
      <trkpt lat="45.64296" lon="6.87127">
        <ele>2046.3</ele>
        <time>2016-05-06T09:28:13Z</time>
      </trkpt>
      <trkpt lat="45.64297" lon="6.87127">
        <ele>2046.9</ele>
        <time>2016-05-06T09:28:15Z</time>
      </trkpt>
      <trkpt lat="45.64298" lon="6.87126">
        <ele>2048</ele>
        <time>2016-05-06T09:28:17Z</time>
      </trkpt>
      <trkpt lat="45.643" lon="6.87126">
        <ele>2048.6</ele>
        <time>2016-05-06T09:28:19Z</time>
      </trkpt>
      <trkpt lat="45.64302" lon="6.87125">
        <ele>2048.8</ele>
        <time>2016-05-06T09:28:21Z</time>
      </trkpt>
      <trkpt lat="45.64303" lon="6.87125">
        <ele>2048.6</ele>
        <time>2016-05-06T09:28:23Z</time>
      </trkpt>
      <trkpt lat="45.64304" lon="6.87124">
        <ele>2049.4</ele>
        <time>2016-05-06T09:28:25Z</time>
      </trkpt>
      <trkpt lat="45.64306" lon="6.87124">
        <ele>2049.8</ele>
        <time>2016-05-06T09:28:27Z</time>
      </trkpt>
      <trkpt lat="45.64307" lon="6.87124">
        <ele>2050</ele>
        <time>2016-05-06T09:28:29Z</time>
      </trkpt>
      <trkpt lat="45.64308" lon="6.87124">
        <ele>2050</ele>
        <time>2016-05-06T09:28:31Z</time>
      </trkpt>
      <trkpt lat="45.6431" lon="6.87124">
        <ele>2050.1</ele>
        <time>2016-05-06T09:28:33Z</time>
      </trkpt>
      <trkpt lat="45.64311" lon="6.87124">
        <ele>2049.8</ele>
        <time>2016-05-06T09:28:35Z</time>
      </trkpt>
      <trkpt lat="45.64312" lon="6.87123">
        <ele>2049.6</ele>
        <time>2016-05-06T09:28:37Z</time>
      </trkpt>
      <trkpt lat="45.64314" lon="6.87123">
        <ele>2049.4</ele>
        <time>2016-05-06T09:28:39Z</time>
      </trkpt>
      <trkpt lat="45.64315" lon="6.87122">
        <ele>2049.4</ele>
        <time>2016-05-06T09:28:41Z</time>
      </trkpt>
      <trkpt lat="45.64317" lon="6.87122">
        <ele>2049</ele>
        <time>2016-05-06T09:28:43Z</time>
      </trkpt>
      <trkpt lat="45.64318" lon="6.87122">
        <ele>2048.9</ele>
        <time>2016-05-06T09:28:45Z</time>
      </trkpt>
      <trkpt lat="45.6432" lon="6.87121">
        <ele>2049</ele>
        <time>2016-05-06T09:28:47Z</time>
      </trkpt>
      <trkpt lat="45.64322" lon="6.87121">
        <ele>2048.7</ele>
        <time>2016-05-06T09:28:49Z</time>
      </trkpt>
      <trkpt lat="45.64323" lon="6.87121">
        <ele>2048.3</ele>
        <time>2016-05-06T09:28:51Z</time>
      </trkpt>
      <trkpt lat="45.64325" lon="6.87121">
        <ele>2048.2</ele>
        <time>2016-05-06T09:28:53Z</time>
      </trkpt>
      <trkpt lat="45.64326" lon="6.87121">
        <ele>2048</ele>
        <time>2016-05-06T09:28:55Z</time>
      </trkpt>
      <trkpt lat="45.64327" lon="6.87121">
        <ele>2047.7</ele>
        <time>2016-05-06T09:28:57Z</time>
      </trkpt>
      <trkpt lat="45.64329" lon="6.87121">
        <ele>2047.2</ele>
        <time>2016-05-06T09:28:59Z</time>
      </trkpt>
      <trkpt lat="45.64331" lon="6.87121">
        <ele>2046.9</ele>
        <time>2016-05-06T09:29:01Z</time>
      </trkpt>
      <trkpt lat="45.64332" lon="6.87121">
        <ele>2047.1</ele>
        <time>2016-05-06T09:29:03Z</time>
      </trkpt>
      <trkpt lat="45.64334" lon="6.87122">
        <ele>2047.3</ele>
        <time>2016-05-06T09:29:05Z</time>
      </trkpt>
      <trkpt lat="45.64335" lon="6.87122">
        <ele>2046.9</ele>
        <time>2016-05-06T09:29:07Z</time>
      </trkpt>
      <trkpt lat="45.64337" lon="6.87122">
        <ele>2047</ele>
        <time>2016-05-06T09:29:09Z</time>
      </trkpt>
      <trkpt lat="45.64339" lon="6.87122">
        <ele>2046.9</ele>
        <time>2016-05-06T09:29:11Z</time>
      </trkpt>
      <trkpt lat="45.6434" lon="6.87122">
        <ele>2047</ele>
        <time>2016-05-06T09:29:13Z</time>
      </trkpt>
      <trkpt lat="45.64342" lon="6.87122">
        <ele>2047.2</ele>
        <time>2016-05-06T09:29:15Z</time>
      </trkpt>
      <trkpt lat="45.64344" lon="6.87123">
        <ele>2047.6</ele>
        <time>2016-05-06T09:29:17Z</time>
      </trkpt>
      <trkpt lat="45.64345" lon="6.87123">
        <ele>2048.1</ele>
        <time>2016-05-06T09:29:19Z</time>
      </trkpt>
      <trkpt lat="45.64346" lon="6.87123">
        <ele>2048.1</ele>
        <time>2016-05-06T09:29:21Z</time>
      </trkpt>
      <trkpt lat="45.64348" lon="6.87123">
        <ele>2048.3</ele>
        <time>2016-05-06T09:29:23Z</time>
      </trkpt>
      <trkpt lat="45.64349" lon="6.87123">
        <ele>2048.4</ele>
        <time>2016-05-06T09:29:25Z</time>
      </trkpt>
      <trkpt lat="45.6435" lon="6.87123">
        <ele>2048.4</ele>
        <time>2016-05-06T09:29:27Z</time>
      </trkpt>
      <trkpt lat="45.64352" lon="6.87123">
        <ele>2048.6</ele>
        <time>2016-05-06T09:29:29Z</time>
      </trkpt>
      <trkpt lat="45.64353" lon="6.87123">
        <ele>2048.5</ele>
        <time>2016-05-06T09:29:31Z</time>
      </trkpt>
      <trkpt lat="45.64354" lon="6.87124">
        <ele>2049</ele>
        <time>2016-05-06T09:29:33Z</time>
      </trkpt>
      <trkpt lat="45.64356" lon="6.87124">
        <ele>2049.4</ele>
        <time>2016-05-06T09:29:35Z</time>
      </trkpt>
      <trkpt lat="45.64357" lon="6.87124">
        <ele>2049.8</ele>
        <time>2016-05-06T09:29:37Z</time>
      </trkpt>
      <trkpt lat="45.64357" lon="6.87124">
        <ele>2050.6</ele>
        <time>2016-05-06T09:29:39Z</time>
      </trkpt>
      <trkpt lat="45.64359" lon="6.87124">
        <ele>2051</ele>
        <time>2016-05-06T09:29:41Z</time>
      </trkpt>
      <trkpt lat="45.6436" lon="6.87124">
        <ele>2050.8</ele>
        <time>2016-05-06T09:29:43Z</time>
      </trkpt>
      <trkpt lat="45.64362" lon="6.87124">
        <ele>2050.6</ele>
        <time>2016-05-06T09:29:45Z</time>
      </trkpt>
      <trkpt lat="45.64363" lon="6.87124">
        <ele>2051.4</ele>
        <time>2016-05-06T09:29:47Z</time>
      </trkpt>
      <trkpt lat="45.64364" lon="6.87124">
        <ele>2051.4</ele>
        <time>2016-05-06T09:29:49Z</time>
      </trkpt>
      <trkpt lat="45.64366" lon="6.87124">
        <ele>2051.6</ele>
        <time>2016-05-06T09:29:51Z</time>
      </trkpt>
      <trkpt lat="45.64367" lon="6.87124">
        <ele>2051.6</ele>
        <time>2016-05-06T09:29:53Z</time>
      </trkpt>
      <trkpt lat="45.64369" lon="6.87125">
        <ele>2051.2</ele>
        <time>2016-05-06T09:29:55Z</time>
      </trkpt>
      <trkpt lat="45.6437" lon="6.87125">
        <ele>2050.9</ele>
        <time>2016-05-06T09:29:57Z</time>
      </trkpt>
      <trkpt lat="45.64371" lon="6.87125">
        <ele>2050.9</ele>
        <time>2016-05-06T09:29:59Z</time>
      </trkpt>
      <trkpt lat="45.64372" lon="6.87125">
        <ele>2050.9</ele>
        <time>2016-05-06T09:30:01Z</time>
      </trkpt>
      <trkpt lat="45.64373" lon="6.87125">
        <ele>2051.2</ele>
        <time>2016-05-06T09:30:03Z</time>
      </trkpt>
      <trkpt lat="45.64375" lon="6.87126">
        <ele>2053.1</ele>
        <time>2016-05-06T09:30:05Z</time>
      </trkpt>
      <trkpt lat="45.64376" lon="6.87126">
        <ele>2054.8</ele>
        <time>2016-05-06T09:30:07Z</time>
      </trkpt>
      <trkpt lat="45.64377" lon="6.87126">
        <ele>2055.5</ele>
        <time>2016-05-06T09:30:09Z</time>
      </trkpt>
      <trkpt lat="45.64379" lon="6.87126">
        <ele>2056.2</ele>
        <time>2016-05-06T09:30:11Z</time>
      </trkpt>
      <trkpt lat="45.6438" lon="6.87126">
        <ele>2057.4</ele>
        <time>2016-05-06T09:30:13Z</time>
      </trkpt>
      <trkpt lat="45.64381" lon="6.87126">
        <ele>2058.1</ele>
        <time>2016-05-06T09:30:15Z</time>
      </trkpt>
      <trkpt lat="45.64382" lon="6.87126">
        <ele>2058.9</ele>
        <time>2016-05-06T09:30:17Z</time>
      </trkpt>
      <trkpt lat="45.64383" lon="6.87126">
        <ele>2059.2</ele>
        <time>2016-05-06T09:30:19Z</time>
      </trkpt>
      <trkpt lat="45.64384" lon="6.87126">
        <ele>2058.9</ele>
        <time>2016-05-06T09:30:21Z</time>
      </trkpt>
      <trkpt lat="45.64386" lon="6.87126">
        <ele>2058.5</ele>
        <time>2016-05-06T09:30:23Z</time>
      </trkpt>
      <trkpt lat="45.64388" lon="6.87127">
        <ele>2058.5</ele>
        <time>2016-05-06T09:30:25Z</time>
      </trkpt>
      <trkpt lat="45.64389" lon="6.87127">
        <ele>2058.9</ele>
        <time>2016-05-06T09:30:27Z</time>
      </trkpt>
      <trkpt lat="45.64391" lon="6.87127">
        <ele>2059</ele>
        <time>2016-05-06T09:30:29Z</time>
      </trkpt>
      <trkpt lat="45.64392" lon="6.87127">
        <ele>2058.2</ele>
        <time>2016-05-06T09:30:31Z</time>
      </trkpt>
      <trkpt lat="45.64393" lon="6.87127">
        <ele>2058</ele>
        <time>2016-05-06T09:30:33Z</time>
      </trkpt>
      <trkpt lat="45.64394" lon="6.87127">
        <ele>2058.5</ele>
        <time>2016-05-06T09:30:35Z</time>
      </trkpt>
      <trkpt lat="45.64395" lon="6.87127">
        <ele>2059.1</ele>
        <time>2016-05-06T09:30:37Z</time>
      </trkpt>
      <trkpt lat="45.64396" lon="6.87127">
        <ele>2059</ele>
        <time>2016-05-06T09:30:39Z</time>
      </trkpt>
      <trkpt lat="45.64397" lon="6.87126">
        <ele>2058.4</ele>
        <time>2016-05-06T09:30:41Z</time>
      </trkpt>
      <trkpt lat="45.64398" lon="6.87126">
        <ele>2057.9</ele>
        <time>2016-05-06T09:30:43Z</time>
      </trkpt>
      <trkpt lat="45.64399" lon="6.87126">
        <ele>2058.1</ele>
        <time>2016-05-06T09:30:45Z</time>
      </trkpt>
      <trkpt lat="45.644" lon="6.87126">
        <ele>2058.3</ele>
        <time>2016-05-06T09:30:47Z</time>
      </trkpt>
      <trkpt lat="45.64402" lon="6.87126">
        <ele>2058.1</ele>
        <time>2016-05-06T09:30:49Z</time>
      </trkpt>
      <trkpt lat="45.64403" lon="6.87127">
        <ele>2057.8</ele>
        <time>2016-05-06T09:30:51Z</time>
      </trkpt>
      <trkpt lat="45.64404" lon="6.87127">
        <ele>2057.3</ele>
        <time>2016-05-06T09:30:53Z</time>
      </trkpt>
      <trkpt lat="45.64406" lon="6.87127">
        <ele>2057.2</ele>
        <time>2016-05-06T09:30:55Z</time>
      </trkpt>
      <trkpt lat="45.64406" lon="6.87127">
        <ele>2057.6</ele>
        <time>2016-05-06T09:30:57Z</time>
      </trkpt>
      <trkpt lat="45.64407" lon="6.87127">
        <ele>2057.9</ele>
        <time>2016-05-06T09:30:59Z</time>
      </trkpt>
      <trkpt lat="45.64409" lon="6.87127">
        <ele>2058.2</ele>
        <time>2016-05-06T09:31:01Z</time>
      </trkpt>
      <trkpt lat="45.6441" lon="6.87127">
        <ele>2058.6</ele>
        <time>2016-05-06T09:31:03Z</time>
      </trkpt>
      <trkpt lat="45.64411" lon="6.87127">
        <ele>2058.9</ele>
        <time>2016-05-06T09:31:05Z</time>
      </trkpt>
      <trkpt lat="45.64412" lon="6.87127">
        <ele>2059.3</ele>
        <time>2016-05-06T09:31:07Z</time>
      </trkpt>
      <trkpt lat="45.64413" lon="6.87127">
        <ele>2060.2</ele>
        <time>2016-05-06T09:31:09Z</time>
      </trkpt>
      <trkpt lat="45.64415" lon="6.87127">
        <ele>2060.6</ele>
        <time>2016-05-06T09:31:11Z</time>
      </trkpt>
      <trkpt lat="45.64416" lon="6.87128">
        <ele>2061.1</ele>
        <time>2016-05-06T09:31:13Z</time>
      </trkpt>
      <trkpt lat="45.64417" lon="6.87127">
        <ele>2061.8</ele>
        <time>2016-05-06T09:31:15Z</time>
      </trkpt>
      <trkpt lat="45.64418" lon="6.87128">
        <ele>2062.3</ele>
        <time>2016-05-06T09:31:17Z</time>
      </trkpt>
      <trkpt lat="45.64419" lon="6.87127">
        <ele>2062.3</ele>
        <time>2016-05-06T09:31:19Z</time>
      </trkpt>
      <trkpt lat="45.6442" lon="6.87128">
        <ele>2062.6</ele>
        <time>2016-05-06T09:31:21Z</time>
      </trkpt>
      <trkpt lat="45.64421" lon="6.87128">
        <ele>2063.1</ele>
        <time>2016-05-06T09:31:23Z</time>
      </trkpt>
      <trkpt lat="45.64423" lon="6.87128">
        <ele>2063.1</ele>
        <time>2016-05-06T09:31:25Z</time>
      </trkpt>
      <trkpt lat="45.64423" lon="6.87127">
        <ele>2062.7</ele>
        <time>2016-05-06T09:31:27Z</time>
      </trkpt>
      <trkpt lat="45.64424" lon="6.87127">
        <ele>2062.7</ele>
        <time>2016-05-06T09:31:29Z</time>
      </trkpt>
      <trkpt lat="45.64425" lon="6.87128">
        <ele>2062.6</ele>
        <time>2016-05-06T09:31:31Z</time>
      </trkpt>
      <trkpt lat="45.64427" lon="6.87128">
        <ele>2062.6</ele>
        <time>2016-05-06T09:31:33Z</time>
      </trkpt>
      <trkpt lat="45.64428" lon="6.87128">
        <ele>2062.5</ele>
        <time>2016-05-06T09:31:35Z</time>
      </trkpt>
      <trkpt lat="45.64429" lon="6.87128">
        <ele>2063.1</ele>
        <time>2016-05-06T09:31:37Z</time>
      </trkpt>
      <trkpt lat="45.64431" lon="6.87128">
        <ele>2064.2</ele>
        <time>2016-05-06T09:31:39Z</time>
      </trkpt>
      <trkpt lat="45.64431" lon="6.87128">
        <ele>2064.9</ele>
        <time>2016-05-06T09:31:41Z</time>
      </trkpt>
      <trkpt lat="45.64433" lon="6.87128">
        <ele>2065.2</ele>
        <time>2016-05-06T09:31:43Z</time>
      </trkpt>
      <trkpt lat="45.64434" lon="6.87129">
        <ele>2065.4</ele>
        <time>2016-05-06T09:31:45Z</time>
      </trkpt>
      <trkpt lat="45.64435" lon="6.87129">
        <ele>2065.3</ele>
        <time>2016-05-06T09:31:47Z</time>
      </trkpt>
      <trkpt lat="45.64436" lon="6.87129">
        <ele>2064.9</ele>
        <time>2016-05-06T09:31:49Z</time>
      </trkpt>
      <trkpt lat="45.64437" lon="6.87129">
        <ele>2064.8</ele>
        <time>2016-05-06T09:31:51Z</time>
      </trkpt>
      <trkpt lat="45.64438" lon="6.87129">
        <ele>2064.9</ele>
        <time>2016-05-06T09:31:53Z</time>
      </trkpt>
      <trkpt lat="45.64439" lon="6.87129">
        <ele>2065.5</ele>
        <time>2016-05-06T09:31:55Z</time>
      </trkpt>
      <trkpt lat="45.64439" lon="6.87129">
        <ele>2066.3</ele>
        <time>2016-05-06T09:31:57Z</time>
      </trkpt>
      <trkpt lat="45.6444" lon="6.87129">
        <ele>2067.4</ele>
        <time>2016-05-06T09:31:59Z</time>
      </trkpt>
      <trkpt lat="45.64441" lon="6.87129">
        <ele>2067.4</ele>
        <time>2016-05-06T09:32:01Z</time>
      </trkpt>
      <trkpt lat="45.64443" lon="6.87129">
        <ele>2068.4</ele>
        <time>2016-05-06T09:32:03Z</time>
      </trkpt>
      <trkpt lat="45.64443" lon="6.87129">
        <ele>2069.2</ele>
        <time>2016-05-06T09:32:05Z</time>
      </trkpt>
      <trkpt lat="45.64444" lon="6.87129">
        <ele>2069.9</ele>
        <time>2016-05-06T09:32:07Z</time>
      </trkpt>
      <trkpt lat="45.64446" lon="6.87129">
        <ele>2069.9</ele>
        <time>2016-05-06T09:32:09Z</time>
      </trkpt>
      <trkpt lat="45.64447" lon="6.8713">
        <ele>2069.1</ele>
        <time>2016-05-06T09:32:11Z</time>
      </trkpt>
      <trkpt lat="45.64448" lon="6.8713">
        <ele>2068.8</ele>
        <time>2016-05-06T09:32:13Z</time>
      </trkpt>
      <trkpt lat="45.64448" lon="6.87131">
        <ele>2068.9</ele>
        <time>2016-05-06T09:32:15Z</time>
      </trkpt>
      <trkpt lat="45.6445" lon="6.87131">
        <ele>2069.1</ele>
        <time>2016-05-06T09:32:17Z</time>
      </trkpt>
      <trkpt lat="45.64451" lon="6.87131">
        <ele>2069.6</ele>
        <time>2016-05-06T09:32:19Z</time>
      </trkpt>
      <trkpt lat="45.64452" lon="6.87131">
        <ele>2069.5</ele>
        <time>2016-05-06T09:32:21Z</time>
      </trkpt>
      <trkpt lat="45.64453" lon="6.87132">
        <ele>2069.2</ele>
        <time>2016-05-06T09:32:23Z</time>
      </trkpt>
      <trkpt lat="45.64454" lon="6.87132">
        <ele>2069.2</ele>
        <time>2016-05-06T09:32:25Z</time>
      </trkpt>
      <trkpt lat="45.64455" lon="6.87132">
        <ele>2069.2</ele>
        <time>2016-05-06T09:32:27Z</time>
      </trkpt>
      <trkpt lat="45.64456" lon="6.87132">
        <ele>2069.1</ele>
        <time>2016-05-06T09:32:29Z</time>
      </trkpt>
      <trkpt lat="45.64458" lon="6.87132">
        <ele>2069</ele>
        <time>2016-05-06T09:32:31Z</time>
      </trkpt>
      <trkpt lat="45.64459" lon="6.87132">
        <ele>2069.1</ele>
        <time>2016-05-06T09:32:33Z</time>
      </trkpt>
      <trkpt lat="45.6446" lon="6.87132">
        <ele>2069.8</ele>
        <time>2016-05-06T09:32:35Z</time>
      </trkpt>
      <trkpt lat="45.64461" lon="6.87133">
        <ele>2070.1</ele>
        <time>2016-05-06T09:32:37Z</time>
      </trkpt>
      <trkpt lat="45.64462" lon="6.87133">
        <ele>2070.3</ele>
        <time>2016-05-06T09:32:39Z</time>
      </trkpt>
      <trkpt lat="45.64463" lon="6.87133">
        <ele>2070.4</ele>
        <time>2016-05-06T09:32:41Z</time>
      </trkpt>
      <trkpt lat="45.64465" lon="6.87133">
        <ele>2070.6</ele>
        <time>2016-05-06T09:32:43Z</time>
      </trkpt>
      <trkpt lat="45.64467" lon="6.87133">
        <ele>2070.9</ele>
        <time>2016-05-06T09:32:45Z</time>
      </trkpt>
      <trkpt lat="45.64468" lon="6.87133">
        <ele>2071.4</ele>
        <time>2016-05-06T09:32:47Z</time>
      </trkpt>
      <trkpt lat="45.6447" lon="6.87133">
        <ele>2071.8</ele>
        <time>2016-05-06T09:32:49Z</time>
      </trkpt>
      <trkpt lat="45.64471" lon="6.87133">
        <ele>2072.1</ele>
        <time>2016-05-06T09:32:51Z</time>
      </trkpt>
      <trkpt lat="45.64472" lon="6.87133">
        <ele>2072.4</ele>
        <time>2016-05-06T09:32:53Z</time>
      </trkpt>
      <trkpt lat="45.64474" lon="6.87133">
        <ele>2073.1</ele>
        <time>2016-05-06T09:32:55Z</time>
      </trkpt>
      <trkpt lat="45.64475" lon="6.87133">
        <ele>2074.1</ele>
        <time>2016-05-06T09:32:57Z</time>
      </trkpt>
      <trkpt lat="45.64476" lon="6.87134">
        <ele>2074.6</ele>
        <time>2016-05-06T09:32:59Z</time>
      </trkpt>
      <trkpt lat="45.64477" lon="6.87134">
        <ele>2074.9</ele>
        <time>2016-05-06T09:33:01Z</time>
      </trkpt>
      <trkpt lat="45.64478" lon="6.87134">
        <ele>2074.6</ele>
        <time>2016-05-06T09:33:03Z</time>
      </trkpt>
      <trkpt lat="45.64479" lon="6.87134">
        <ele>2075</ele>
        <time>2016-05-06T09:33:05Z</time>
      </trkpt>
      <trkpt lat="45.64479" lon="6.87134">
        <ele>2074.8</ele>
        <time>2016-05-06T09:33:07Z</time>
      </trkpt>
      <trkpt lat="45.6448" lon="6.87134">
        <ele>2075.1</ele>
        <time>2016-05-06T09:33:09Z</time>
      </trkpt>
      <trkpt lat="45.6448" lon="6.87133">
        <ele>2075.3</ele>
        <time>2016-05-06T09:33:11Z</time>
      </trkpt>
      <trkpt lat="45.64482" lon="6.87133">
        <ele>2076.1</ele>
        <time>2016-05-06T09:33:13Z</time>
      </trkpt>
      <trkpt lat="45.64483" lon="6.87134">
        <ele>2076.3</ele>
        <time>2016-05-06T09:33:15Z</time>
      </trkpt>
      <trkpt lat="45.64484" lon="6.87134">
        <ele>2075.5</ele>
        <time>2016-05-06T09:33:17Z</time>
      </trkpt>
      <trkpt lat="45.64485" lon="6.87134">
        <ele>2075.4</ele>
        <time>2016-05-06T09:33:19Z</time>
      </trkpt>
      <trkpt lat="45.64485" lon="6.87134">
        <ele>2075.7</ele>
        <time>2016-05-06T09:33:21Z</time>
      </trkpt>
      <trkpt lat="45.64486" lon="6.87135">
        <ele>2075.9</ele>
        <time>2016-05-06T09:33:23Z</time>
      </trkpt>
      <trkpt lat="45.64487" lon="6.87135">
        <ele>2076.3</ele>
        <time>2016-05-06T09:33:25Z</time>
      </trkpt>
      <trkpt lat="45.64489" lon="6.87135">
        <ele>2077.1</ele>
        <time>2016-05-06T09:33:27Z</time>
      </trkpt>
      <trkpt lat="45.6449" lon="6.87135">
        <ele>2077.6</ele>
        <time>2016-05-06T09:33:29Z</time>
      </trkpt>
      <trkpt lat="45.64491" lon="6.87135">
        <ele>2078.4</ele>
        <time>2016-05-06T09:33:31Z</time>
      </trkpt>
      <trkpt lat="45.64491" lon="6.87135">
        <ele>2079.4</ele>
        <time>2016-05-06T09:33:33Z</time>
      </trkpt>
      <trkpt lat="45.64492" lon="6.87135">
        <ele>2080.1</ele>
        <time>2016-05-06T09:33:35Z</time>
      </trkpt>
      <trkpt lat="45.64493" lon="6.87135">
        <ele>2080.4</ele>
        <time>2016-05-06T09:33:37Z</time>
      </trkpt>
      <trkpt lat="45.64494" lon="6.87135">
        <ele>2080.7</ele>
        <time>2016-05-06T09:33:39Z</time>
      </trkpt>
      <trkpt lat="45.64495" lon="6.87135">
        <ele>2080.7</ele>
        <time>2016-05-06T09:33:41Z</time>
      </trkpt>
      <trkpt lat="45.64495" lon="6.87136">
        <ele>2080.9</ele>
        <time>2016-05-06T09:33:43Z</time>
      </trkpt>
      <trkpt lat="45.64496" lon="6.87136">
        <ele>2081</ele>
        <time>2016-05-06T09:33:45Z</time>
      </trkpt>
      <trkpt lat="45.64497" lon="6.87136">
        <ele>2081.2</ele>
        <time>2016-05-06T09:33:47Z</time>
      </trkpt>
      <trkpt lat="45.64499" lon="6.87136">
        <ele>2081.7</ele>
        <time>2016-05-06T09:33:49Z</time>
      </trkpt>
      <trkpt lat="45.64499" lon="6.87136">
        <ele>2082.7</ele>
        <time>2016-05-06T09:33:51Z</time>
      </trkpt>
      <trkpt lat="45.645" lon="6.87136">
        <ele>2083.1</ele>
        <time>2016-05-06T09:33:53Z</time>
      </trkpt>
      <trkpt lat="45.645" lon="6.87136">
        <ele>2084.4</ele>
        <time>2016-05-06T09:33:55Z</time>
      </trkpt>
      <trkpt lat="45.64502" lon="6.87136">
        <ele>2084.9</ele>
        <time>2016-05-06T09:33:57Z</time>
      </trkpt>
      <trkpt lat="45.64503" lon="6.87136">
        <ele>2084.9</ele>
        <time>2016-05-06T09:33:59Z</time>
      </trkpt>
      <trkpt lat="45.64503" lon="6.87136">
        <ele>2085</ele>
        <time>2016-05-06T09:34:01Z</time>
      </trkpt>
      <trkpt lat="45.64504" lon="6.87136">
        <ele>2085.3</ele>
        <time>2016-05-06T09:34:03Z</time>
      </trkpt>
      <trkpt lat="45.64505" lon="6.87136">
        <ele>2084.9</ele>
        <time>2016-05-06T09:34:05Z</time>
      </trkpt>
      <trkpt lat="45.64506" lon="6.87136">
        <ele>2084.9</ele>
        <time>2016-05-06T09:34:07Z</time>
      </trkpt>
      <trkpt lat="45.64506" lon="6.87136">
        <ele>2084.9</ele>
        <time>2016-05-06T09:34:09Z</time>
      </trkpt>
      <trkpt lat="45.64507" lon="6.87136">
        <ele>2084.8</ele>
        <time>2016-05-06T09:34:11Z</time>
      </trkpt>
      <trkpt lat="45.64508" lon="6.87137">
        <ele>2085.1</ele>
        <time>2016-05-06T09:34:13Z</time>
      </trkpt>
      <trkpt lat="45.64509" lon="6.87137">
        <ele>2085.8</ele>
        <time>2016-05-06T09:34:15Z</time>
      </trkpt>
      <trkpt lat="45.6451" lon="6.87137">
        <ele>2085.9</ele>
        <time>2016-05-06T09:34:17Z</time>
      </trkpt>
      <trkpt lat="45.64511" lon="6.87137">
        <ele>2086</ele>
        <time>2016-05-06T09:34:19Z</time>
      </trkpt>
      <trkpt lat="45.64512" lon="6.87137">
        <ele>2086.4</ele>
        <time>2016-05-06T09:34:21Z</time>
      </trkpt>
      <trkpt lat="45.64513" lon="6.87137">
        <ele>2086.1</ele>
        <time>2016-05-06T09:34:23Z</time>
      </trkpt>
      <trkpt lat="45.64514" lon="6.87137">
        <ele>2086.4</ele>
        <time>2016-05-06T09:34:25Z</time>
      </trkpt>
      <trkpt lat="45.64515" lon="6.87137">
        <ele>2086.4</ele>
        <time>2016-05-06T09:34:27Z</time>
      </trkpt>
      <trkpt lat="45.64516" lon="6.87137">
        <ele>2086.5</ele>
        <time>2016-05-06T09:34:29Z</time>
      </trkpt>
      <trkpt lat="45.64516" lon="6.87137">
        <ele>2086.6</ele>
        <time>2016-05-06T09:34:31Z</time>
      </trkpt>
      <trkpt lat="45.64517" lon="6.87137">
        <ele>2086.8</ele>
        <time>2016-05-06T09:34:33Z</time>
      </trkpt>
      <trkpt lat="45.64518" lon="6.87137">
        <ele>2086.9</ele>
        <time>2016-05-06T09:34:35Z</time>
      </trkpt>
      <trkpt lat="45.64519" lon="6.87138">
        <ele>2087.3</ele>
        <time>2016-05-06T09:34:37Z</time>
      </trkpt>
      <trkpt lat="45.6452" lon="6.87138">
        <ele>2087.2</ele>
        <time>2016-05-06T09:34:39Z</time>
      </trkpt>
      <trkpt lat="45.6452" lon="6.87138">
        <ele>2087.5</ele>
        <time>2016-05-06T09:34:41Z</time>
      </trkpt>
      <trkpt lat="45.64521" lon="6.87138">
        <ele>2088.3</ele>
        <time>2016-05-06T09:34:43Z</time>
      </trkpt>
      <trkpt lat="45.64522" lon="6.87138">
        <ele>2089.6</ele>
        <time>2016-05-06T09:34:45Z</time>
      </trkpt>
      <trkpt lat="45.64523" lon="6.87138">
        <ele>2090.6</ele>
        <time>2016-05-06T09:34:47Z</time>
      </trkpt>
      <trkpt lat="45.64524" lon="6.87139">
        <ele>2090.9</ele>
        <time>2016-05-06T09:34:49Z</time>
      </trkpt>
      <trkpt lat="45.64525" lon="6.87138">
        <ele>2090.9</ele>
        <time>2016-05-06T09:34:51Z</time>
      </trkpt>
      <trkpt lat="45.64526" lon="6.87138">
        <ele>2091.3</ele>
        <time>2016-05-06T09:34:53Z</time>
      </trkpt>
      <trkpt lat="45.64526" lon="6.87139">
        <ele>2092.1</ele>
        <time>2016-05-06T09:34:55Z</time>
      </trkpt>
      <trkpt lat="45.64527" lon="6.87139">
        <ele>2092.7</ele>
        <time>2016-05-06T09:34:57Z</time>
      </trkpt>
      <trkpt lat="45.64528" lon="6.87139">
        <ele>2094</ele>
        <time>2016-05-06T09:34:59Z</time>
      </trkpt>
      <trkpt lat="45.64529" lon="6.87139">
        <ele>2095</ele>
        <time>2016-05-06T09:35:01Z</time>
      </trkpt>
      <trkpt lat="45.64529" lon="6.87139">
        <ele>2096.1</ele>
        <time>2016-05-06T09:35:03Z</time>
      </trkpt>
      <trkpt lat="45.6453" lon="6.87139">
        <ele>2096.2</ele>
        <time>2016-05-06T09:35:05Z</time>
      </trkpt>
      <trkpt lat="45.64531" lon="6.8714">
        <ele>2096.7</ele>
        <time>2016-05-06T09:35:07Z</time>
      </trkpt>
      <trkpt lat="45.64532" lon="6.8714">
        <ele>2097.4</ele>
        <time>2016-05-06T09:35:09Z</time>
      </trkpt>
      <trkpt lat="45.64533" lon="6.8714">
        <ele>2097.6</ele>
        <time>2016-05-06T09:35:11Z</time>
      </trkpt>
      <trkpt lat="45.64534" lon="6.8714">
        <ele>2097.2</ele>
        <time>2016-05-06T09:35:13Z</time>
      </trkpt>
      <trkpt lat="45.64535" lon="6.87141">
        <ele>2096.3</ele>
        <time>2016-05-06T09:35:15Z</time>
      </trkpt>
      <trkpt lat="45.64535" lon="6.87141">
        <ele>2096.4</ele>
        <time>2016-05-06T09:35:17Z</time>
      </trkpt>
      <trkpt lat="45.64536" lon="6.87141">
        <ele>2096.9</ele>
        <time>2016-05-06T09:35:19Z</time>
      </trkpt>
      <trkpt lat="45.64537" lon="6.87141">
        <ele>2097.1</ele>
        <time>2016-05-06T09:35:21Z</time>
      </trkpt>
      <trkpt lat="45.64538" lon="6.8714">
        <ele>2097.1</ele>
        <time>2016-05-06T09:35:23Z</time>
      </trkpt>
      <trkpt lat="45.64539" lon="6.8714">
        <ele>2097.3</ele>
        <time>2016-05-06T09:35:25Z</time>
      </trkpt>
      <trkpt lat="45.64539" lon="6.87141">
        <ele>2097.2</ele>
        <time>2016-05-06T09:35:27Z</time>
      </trkpt>
      <trkpt lat="45.6454" lon="6.87141">
        <ele>2098.1</ele>
        <time>2016-05-06T09:35:29Z</time>
      </trkpt>
      <trkpt lat="45.64541" lon="6.87141">
        <ele>2098.7</ele>
        <time>2016-05-06T09:35:31Z</time>
      </trkpt>
      <trkpt lat="45.64542" lon="6.87141">
        <ele>2098.5</ele>
        <time>2016-05-06T09:35:33Z</time>
      </trkpt>
      <trkpt lat="45.64544" lon="6.87141">
        <ele>2098.9</ele>
        <time>2016-05-06T09:35:35Z</time>
      </trkpt>
      <trkpt lat="45.64544" lon="6.87141">
        <ele>2100.1</ele>
        <time>2016-05-06T09:35:37Z</time>
      </trkpt>
      <trkpt lat="45.64545" lon="6.87141">
        <ele>2100.5</ele>
        <time>2016-05-06T09:35:39Z</time>
      </trkpt>
      <trkpt lat="45.64546" lon="6.87141">
        <ele>2100.8</ele>
        <time>2016-05-06T09:35:41Z</time>
      </trkpt>
      <trkpt lat="45.64546" lon="6.87141">
        <ele>2101.1</ele>
        <time>2016-05-06T09:35:43Z</time>
      </trkpt>
      <trkpt lat="45.64547" lon="6.87141">
        <ele>2099.8</ele>
        <time>2016-05-06T09:35:45Z</time>
      </trkpt>
      <trkpt lat="45.64548" lon="6.87141">
        <ele>2099</ele>
        <time>2016-05-06T09:35:47Z</time>
      </trkpt>
      <trkpt lat="45.6455" lon="6.87141">
        <ele>2098.9</ele>
        <time>2016-05-06T09:35:49Z</time>
      </trkpt>
      <trkpt lat="45.64551" lon="6.87141">
        <ele>2098.8</ele>
        <time>2016-05-06T09:35:51Z</time>
      </trkpt>
      <trkpt lat="45.64551" lon="6.87142">
        <ele>2098.6</ele>
        <time>2016-05-06T09:35:53Z</time>
      </trkpt>
      <trkpt lat="45.64552" lon="6.87142">
        <ele>2098.9</ele>
        <time>2016-05-06T09:35:55Z</time>
      </trkpt>
      <trkpt lat="45.64553" lon="6.87142">
        <ele>2098.7</ele>
        <time>2016-05-06T09:35:57Z</time>
      </trkpt>
      <trkpt lat="45.64554" lon="6.87142">
        <ele>2099.2</ele>
        <time>2016-05-06T09:35:59Z</time>
      </trkpt>
      <trkpt lat="45.64555" lon="6.87142">
        <ele>2099.5</ele>
        <time>2016-05-06T09:36:01Z</time>
      </trkpt>
      <trkpt lat="45.64556" lon="6.87143">
        <ele>2100</ele>
        <time>2016-05-06T09:36:03Z</time>
      </trkpt>
      <trkpt lat="45.64557" lon="6.87143">
        <ele>2100.3</ele>
        <time>2016-05-06T09:36:05Z</time>
      </trkpt>
      <trkpt lat="45.64557" lon="6.87142">
        <ele>2100.3</ele>
        <time>2016-05-06T09:36:07Z</time>
      </trkpt>
      <trkpt lat="45.64558" lon="6.87143">
        <ele>2100.4</ele>
        <time>2016-05-06T09:36:09Z</time>
      </trkpt>
      <trkpt lat="45.64559" lon="6.87143">
        <ele>2100.6</ele>
        <time>2016-05-06T09:36:11Z</time>
      </trkpt>
      <trkpt lat="45.64559" lon="6.87143">
        <ele>2101.8</ele>
        <time>2016-05-06T09:36:13Z</time>
      </trkpt>
      <trkpt lat="45.6456" lon="6.87143">
        <ele>2103.3</ele>
        <time>2016-05-06T09:36:15Z</time>
      </trkpt>
      <trkpt lat="45.6456" lon="6.87143">
        <ele>2104.7</ele>
        <time>2016-05-06T09:36:17Z</time>
      </trkpt>
      <trkpt lat="45.6456" lon="6.87143">
        <ele>2103</ele>
        <time>2016-05-06T09:36:19Z</time>
      </trkpt>
      <trkpt lat="45.6456" lon="6.87144">
        <ele>2101.6</ele>
        <time>2016-05-06T09:36:21Z</time>
      </trkpt>
      <trkpt lat="45.64561" lon="6.87144">
        <ele>2100.4</ele>
        <time>2016-05-06T09:36:23Z</time>
      </trkpt>
      <trkpt lat="45.64561" lon="6.87144">
        <ele>2100.2</ele>
        <time>2016-05-06T09:36:25Z</time>
      </trkpt>
      <trkpt lat="45.64562" lon="6.87144">
        <ele>2100.6</ele>
        <time>2016-05-06T09:36:27Z</time>
      </trkpt>
      <trkpt lat="45.64563" lon="6.87144">
        <ele>2100.8</ele>
        <time>2016-05-06T09:36:29Z</time>
      </trkpt>
      <trkpt lat="45.64564" lon="6.87144">
        <ele>2100.9</ele>
        <time>2016-05-06T09:36:31Z</time>
      </trkpt>
      <trkpt lat="45.64565" lon="6.87144">
        <ele>2101.2</ele>
        <time>2016-05-06T09:36:33Z</time>
      </trkpt>
      <trkpt lat="45.64565" lon="6.87144">
        <ele>2101.7</ele>
        <time>2016-05-06T09:36:35Z</time>
      </trkpt>
      <trkpt lat="45.64566" lon="6.87144">
        <ele>2101.7</ele>
        <time>2016-05-06T09:36:37Z</time>
      </trkpt>
      <trkpt lat="45.64567" lon="6.87144">
        <ele>2102.6</ele>
        <time>2016-05-06T09:36:39Z</time>
      </trkpt>
      <trkpt lat="45.64567" lon="6.87144">
        <ele>2103.4</ele>
        <time>2016-05-06T09:36:41Z</time>
      </trkpt>
      <trkpt lat="45.64568" lon="6.87144">
        <ele>2104</ele>
        <time>2016-05-06T09:36:43Z</time>
      </trkpt>
      <trkpt lat="45.64569" lon="6.87144">
        <ele>2104.6</ele>
        <time>2016-05-06T09:36:45Z</time>
      </trkpt>
      <trkpt lat="45.64571" lon="6.87144">
        <ele>2105.2</ele>
        <time>2016-05-06T09:36:47Z</time>
      </trkpt>
      <trkpt lat="45.64572" lon="6.87144">
        <ele>2105.6</ele>
        <time>2016-05-06T09:36:49Z</time>
      </trkpt>
      <trkpt lat="45.64573" lon="6.87143">
        <ele>2105.9</ele>
        <time>2016-05-06T09:36:51Z</time>
      </trkpt>
      <trkpt lat="45.64575" lon="6.87143">
        <ele>2107.1</ele>
        <time>2016-05-06T09:36:53Z</time>
      </trkpt>
      <trkpt lat="45.64576" lon="6.87143">
        <ele>2107.8</ele>
        <time>2016-05-06T09:36:55Z</time>
      </trkpt>
      <trkpt lat="45.64578" lon="6.87143">
        <ele>2108.5</ele>
        <time>2016-05-06T09:36:57Z</time>
      </trkpt>
      <trkpt lat="45.64579" lon="6.87143">
        <ele>2108.9</ele>
        <time>2016-05-06T09:36:59Z</time>
      </trkpt>
      <trkpt lat="45.6458" lon="6.87143">
        <ele>2109.1</ele>
        <time>2016-05-06T09:37:01Z</time>
      </trkpt>
      <trkpt lat="45.64581" lon="6.87143">
        <ele>2109.2</ele>
        <time>2016-05-06T09:37:03Z</time>
      </trkpt>
      <trkpt lat="45.64581" lon="6.87143">
        <ele>2109.5</ele>
        <time>2016-05-06T09:37:05Z</time>
      </trkpt>
      <trkpt lat="45.64582" lon="6.87142">
        <ele>2109.2</ele>
        <time>2016-05-06T09:37:07Z</time>
      </trkpt>
      <trkpt lat="45.64583" lon="6.87142">
        <ele>2109.5</ele>
        <time>2016-05-06T09:37:09Z</time>
      </trkpt>
      <trkpt lat="45.64584" lon="6.87142">
        <ele>2109.3</ele>
        <time>2016-05-06T09:37:11Z</time>
      </trkpt>
      <trkpt lat="45.64584" lon="6.87142">
        <ele>2109.6</ele>
        <time>2016-05-06T09:37:13Z</time>
      </trkpt>
      <trkpt lat="45.64585" lon="6.87142">
        <ele>2110.2</ele>
        <time>2016-05-06T09:37:15Z</time>
      </trkpt>
      <trkpt lat="45.64587" lon="6.87141">
        <ele>2111</ele>
        <time>2016-05-06T09:37:17Z</time>
      </trkpt>
      <trkpt lat="45.64588" lon="6.87141">
        <ele>2111.2</ele>
        <time>2016-05-06T09:37:19Z</time>
      </trkpt>
      <trkpt lat="45.6459" lon="6.87141">
        <ele>2111.3</ele>
        <time>2016-05-06T09:37:21Z</time>
      </trkpt>
      <trkpt lat="45.64591" lon="6.8714">
        <ele>2111.7</ele>
        <time>2016-05-06T09:37:23Z</time>
      </trkpt>
      <trkpt lat="45.64591" lon="6.8714">
        <ele>2111.9</ele>
        <time>2016-05-06T09:37:25Z</time>
      </trkpt>
      <trkpt lat="45.64592" lon="6.8714">
        <ele>2112.2</ele>
        <time>2016-05-06T09:37:27Z</time>
      </trkpt>
      <trkpt lat="45.64593" lon="6.8714">
        <ele>2112.5</ele>
        <time>2016-05-06T09:37:29Z</time>
      </trkpt>
      <trkpt lat="45.64594" lon="6.8714">
        <ele>2112.6</ele>
        <time>2016-05-06T09:37:31Z</time>
      </trkpt>
      <trkpt lat="45.64594" lon="6.87139">
        <ele>2112.5</ele>
        <time>2016-05-06T09:37:33Z</time>
      </trkpt>
      <trkpt lat="45.64595" lon="6.87139">
        <ele>2112.3</ele>
        <time>2016-05-06T09:37:35Z</time>
      </trkpt>
      <trkpt lat="45.64596" lon="6.87139">
        <ele>2112.4</ele>
        <time>2016-05-06T09:37:37Z</time>
      </trkpt>
      <trkpt lat="45.64597" lon="6.87139">
        <ele>2112.5</ele>
        <time>2016-05-06T09:37:39Z</time>
      </trkpt>
      <trkpt lat="45.64599" lon="6.87138">
        <ele>2112.6</ele>
        <time>2016-05-06T09:37:41Z</time>
      </trkpt>
      <trkpt lat="45.646" lon="6.87138">
        <ele>2112.9</ele>
        <time>2016-05-06T09:37:43Z</time>
      </trkpt>
      <trkpt lat="45.64601" lon="6.87138">
        <ele>2113.3</ele>
        <time>2016-05-06T09:37:45Z</time>
      </trkpt>
      <trkpt lat="45.64601" lon="6.87138">
        <ele>2113.4</ele>
        <time>2016-05-06T09:37:47Z</time>
      </trkpt>
      <trkpt lat="45.64602" lon="6.87138">
        <ele>2113.7</ele>
        <time>2016-05-06T09:37:49Z</time>
      </trkpt>
      <trkpt lat="45.64603" lon="6.87138">
        <ele>2114.1</ele>
        <time>2016-05-06T09:37:51Z</time>
      </trkpt>
      <trkpt lat="45.64604" lon="6.87138">
        <ele>2114.6</ele>
        <time>2016-05-06T09:37:53Z</time>
      </trkpt>
      <trkpt lat="45.64605" lon="6.87138">
        <ele>2114.7</ele>
        <time>2016-05-06T09:37:55Z</time>
      </trkpt>
      <trkpt lat="45.64606" lon="6.87138">
        <ele>2115</ele>
        <time>2016-05-06T09:37:57Z</time>
      </trkpt>
      <trkpt lat="45.64607" lon="6.87138">
        <ele>2115.5</ele>
        <time>2016-05-06T09:37:59Z</time>
      </trkpt>
      <trkpt lat="45.64608" lon="6.87138">
        <ele>2115.6</ele>
        <time>2016-05-06T09:38:01Z</time>
      </trkpt>
      <trkpt lat="45.64608" lon="6.87138">
        <ele>2115.5</ele>
        <time>2016-05-06T09:38:03Z</time>
      </trkpt>
      <trkpt lat="45.64609" lon="6.87138">
        <ele>2115.5</ele>
        <time>2016-05-06T09:38:05Z</time>
      </trkpt>
      <trkpt lat="45.64609" lon="6.87138">
        <ele>2116.1</ele>
        <time>2016-05-06T09:38:07Z</time>
      </trkpt>
      <trkpt lat="45.6461" lon="6.87138">
        <ele>2116.3</ele>
        <time>2016-05-06T09:38:09Z</time>
      </trkpt>
      <trkpt lat="45.6461" lon="6.87138">
        <ele>2116.5</ele>
        <time>2016-05-06T09:38:11Z</time>
      </trkpt>
      <trkpt lat="45.64611" lon="6.87138">
        <ele>2116.8</ele>
        <time>2016-05-06T09:38:13Z</time>
      </trkpt>
      <trkpt lat="45.64612" lon="6.87138">
        <ele>2117</ele>
        <time>2016-05-06T09:38:15Z</time>
      </trkpt>
      <trkpt lat="45.64612" lon="6.87138">
        <ele>2117.5</ele>
        <time>2016-05-06T09:38:17Z</time>
      </trkpt>
      <trkpt lat="45.64613" lon="6.87138">
        <ele>2118.1</ele>
        <time>2016-05-06T09:38:19Z</time>
      </trkpt>
      <trkpt lat="45.64613" lon="6.87137">
        <ele>2118.6</ele>
        <time>2016-05-06T09:38:21Z</time>
      </trkpt>
      <trkpt lat="45.64615" lon="6.87137">
        <ele>2119.7</ele>
        <time>2016-05-06T09:38:23Z</time>
      </trkpt>
      <trkpt lat="45.64616" lon="6.87136">
        <ele>2120.3</ele>
        <time>2016-05-06T09:38:25Z</time>
      </trkpt>
      <trkpt lat="45.64617" lon="6.87136">
        <ele>2120.7</ele>
        <time>2016-05-06T09:38:27Z</time>
      </trkpt>
      <trkpt lat="45.64617" lon="6.87136">
        <ele>2121</ele>
        <time>2016-05-06T09:38:29Z</time>
      </trkpt>
      <trkpt lat="45.64618" lon="6.87136">
        <ele>2121.9</ele>
        <time>2016-05-06T09:38:31Z</time>
      </trkpt>
      <trkpt lat="45.64619" lon="6.87136">
        <ele>2122.6</ele>
        <time>2016-05-06T09:38:33Z</time>
      </trkpt>
      <trkpt lat="45.6462" lon="6.87135">
        <ele>2124.2</ele>
        <time>2016-05-06T09:38:35Z</time>
      </trkpt>
      <trkpt lat="45.6462" lon="6.87135">
        <ele>2125.6</ele>
        <time>2016-05-06T09:38:37Z</time>
      </trkpt>
      <trkpt lat="45.64621" lon="6.87135">
        <ele>2126.4</ele>
        <time>2016-05-06T09:38:39Z</time>
      </trkpt>
      <trkpt lat="45.64621" lon="6.87134">
        <ele>2126.1</ele>
        <time>2016-05-06T09:38:41Z</time>
      </trkpt>
      <trkpt lat="45.64623" lon="6.87134">
        <ele>2126.6</ele>
        <time>2016-05-06T09:38:43Z</time>
      </trkpt>
      <trkpt lat="45.64623" lon="6.87134">
        <ele>2127.1</ele>
        <time>2016-05-06T09:38:45Z</time>
      </trkpt>
      <trkpt lat="45.64624" lon="6.87133">
        <ele>2127.2</ele>
        <time>2016-05-06T09:38:47Z</time>
      </trkpt>
      <trkpt lat="45.64625" lon="6.87133">
        <ele>2128</ele>
        <time>2016-05-06T09:38:49Z</time>
      </trkpt>
      <trkpt lat="45.64625" lon="6.87133">
        <ele>2127.9</ele>
        <time>2016-05-06T09:38:51Z</time>
      </trkpt>
      <trkpt lat="45.64626" lon="6.87133">
        <ele>2128.2</ele>
        <time>2016-05-06T09:38:53Z</time>
      </trkpt>
      <trkpt lat="45.64627" lon="6.87133">
        <ele>2128.5</ele>
        <time>2016-05-06T09:38:55Z</time>
      </trkpt>
      <trkpt lat="45.64627" lon="6.87133">
        <ele>2128.8</ele>
        <time>2016-05-06T09:38:57Z</time>
      </trkpt>
      <trkpt lat="45.64628" lon="6.87132">
        <ele>2128.6</ele>
        <time>2016-05-06T09:38:59Z</time>
      </trkpt>
      <trkpt lat="45.64629" lon="6.87132">
        <ele>2128.8</ele>
        <time>2016-05-06T09:39:01Z</time>
      </trkpt>
      <trkpt lat="45.6463" lon="6.87132">
        <ele>2129.4</ele>
        <time>2016-05-06T09:39:03Z</time>
      </trkpt>
      <trkpt lat="45.64631" lon="6.87132">
        <ele>2129.9</ele>
        <time>2016-05-06T09:39:05Z</time>
      </trkpt>
      <trkpt lat="45.64631" lon="6.87132">
        <ele>2130.7</ele>
        <time>2016-05-06T09:39:07Z</time>
      </trkpt>
      <trkpt lat="45.64633" lon="6.87132">
        <ele>2131.5</ele>
        <time>2016-05-06T09:39:09Z</time>
      </trkpt>
      <trkpt lat="45.64633" lon="6.87132">
        <ele>2132</ele>
        <time>2016-05-06T09:39:11Z</time>
      </trkpt>
      <trkpt lat="45.64634" lon="6.87131">
        <ele>2131.9</ele>
        <time>2016-05-06T09:39:13Z</time>
      </trkpt>
      <trkpt lat="45.64635" lon="6.87131">
        <ele>2132.4</ele>
        <time>2016-05-06T09:39:15Z</time>
      </trkpt>
      <trkpt lat="45.64636" lon="6.87131">
        <ele>2132.1</ele>
        <time>2016-05-06T09:39:17Z</time>
      </trkpt>
      <trkpt lat="45.64636" lon="6.8713">
        <ele>2133.2</ele>
        <time>2016-05-06T09:39:19Z</time>
      </trkpt>
      <trkpt lat="45.64637" lon="6.8713">
        <ele>2134.4</ele>
        <time>2016-05-06T09:39:21Z</time>
      </trkpt>
      <trkpt lat="45.64638" lon="6.8713">
        <ele>2135.2</ele>
        <time>2016-05-06T09:39:23Z</time>
      </trkpt>
      <trkpt lat="45.64639" lon="6.87129">
        <ele>2136</ele>
        <time>2016-05-06T09:39:25Z</time>
      </trkpt>
      <trkpt lat="45.64639" lon="6.87129">
        <ele>2136.3</ele>
        <time>2016-05-06T09:39:27Z</time>
      </trkpt>
      <trkpt lat="45.6464" lon="6.87128">
        <ele>2137</ele>
        <time>2016-05-06T09:39:29Z</time>
      </trkpt>
      <trkpt lat="45.6464" lon="6.87128">
        <ele>2137.2</ele>
        <time>2016-05-06T09:39:31Z</time>
      </trkpt>
      <trkpt lat="45.64641" lon="6.87128">
        <ele>2138.1</ele>
        <time>2016-05-06T09:39:33Z</time>
      </trkpt>
      <trkpt lat="45.64642" lon="6.87127">
        <ele>2138</ele>
        <time>2016-05-06T09:39:35Z</time>
      </trkpt>
      <trkpt lat="45.64643" lon="6.87127">
        <ele>2137.9</ele>
        <time>2016-05-06T09:39:37Z</time>
      </trkpt>
      <trkpt lat="45.64643" lon="6.87127">
        <ele>2137.2</ele>
        <time>2016-05-06T09:39:39Z</time>
      </trkpt>
      <trkpt lat="45.64644" lon="6.87126">
        <ele>2137.8</ele>
        <time>2016-05-06T09:39:41Z</time>
      </trkpt>
      <trkpt lat="45.64644" lon="6.87126">
        <ele>2138.8</ele>
        <time>2016-05-06T09:39:43Z</time>
      </trkpt>
      <trkpt lat="45.64645" lon="6.87126">
        <ele>2139.3</ele>
        <time>2016-05-06T09:39:45Z</time>
      </trkpt>
      <trkpt lat="45.64647" lon="6.87126">
        <ele>2139.4</ele>
        <time>2016-05-06T09:39:47Z</time>
      </trkpt>
      <trkpt lat="45.64647" lon="6.87126">
        <ele>2139.4</ele>
        <time>2016-05-06T09:39:49Z</time>
      </trkpt>
      <trkpt lat="45.64648" lon="6.87126">
        <ele>2139.9</ele>
        <time>2016-05-06T09:39:51Z</time>
      </trkpt>
      <trkpt lat="45.64649" lon="6.87125">
        <ele>2140.9</ele>
        <time>2016-05-06T09:39:53Z</time>
      </trkpt>
      <trkpt lat="45.6465" lon="6.87125">
        <ele>2140.9</ele>
        <time>2016-05-06T09:39:55Z</time>
      </trkpt>
      <trkpt lat="45.6465" lon="6.87125">
        <ele>2140.5</ele>
        <time>2016-05-06T09:39:57Z</time>
      </trkpt>
      <trkpt lat="45.64652" lon="6.87124">
        <ele>2140.8</ele>
        <time>2016-05-06T09:39:59Z</time>
      </trkpt>
      <trkpt lat="45.64653" lon="6.87124">
        <ele>2140.2</ele>
        <time>2016-05-06T09:40:01Z</time>
      </trkpt>
      <trkpt lat="45.64655" lon="6.87123">
        <ele>2139.4</ele>
        <time>2016-05-06T09:40:03Z</time>
      </trkpt>
      <trkpt lat="45.64656" lon="6.87122">
        <ele>2138.1</ele>
        <time>2016-05-06T09:40:05Z</time>
      </trkpt>
      <trkpt lat="45.64656" lon="6.87122">
        <ele>2137.3</ele>
        <time>2016-05-06T09:40:07Z</time>
      </trkpt>
      <trkpt lat="45.64656" lon="6.87122">
        <ele>2135.4</ele>
        <time>2016-05-06T09:40:09Z</time>
      </trkpt>
      <trkpt lat="45.64656" lon="6.87123">
        <ele>2134</ele>
        <time>2016-05-06T09:40:11Z</time>
      </trkpt>
      <trkpt lat="45.64656" lon="6.87123">
        <ele>2133.6</ele>
        <time>2016-05-06T09:40:13Z</time>
      </trkpt>
      <trkpt lat="45.64656" lon="6.87122">
        <ele>2134.4</ele>
        <time>2016-05-06T09:40:15Z</time>
      </trkpt>
      <trkpt lat="45.64656" lon="6.87122">
        <ele>2135.3</ele>
        <time>2016-05-06T09:40:17Z</time>
      </trkpt>
      <trkpt lat="45.64656" lon="6.87122">
        <ele>2135.9</ele>
        <time>2016-05-06T09:40:19Z</time>
      </trkpt>
      <trkpt lat="45.64657" lon="6.87122">
        <ele>2135.3</ele>
        <time>2016-05-06T09:40:21Z</time>
      </trkpt>
      <trkpt lat="45.64657" lon="6.87122">
        <ele>2135.7</ele>
        <time>2016-05-06T09:40:23Z</time>
      </trkpt>
      <trkpt lat="45.64657" lon="6.87122">
        <ele>2135.8</ele>
        <time>2016-05-06T09:40:25Z</time>
      </trkpt>
      <trkpt lat="45.64657" lon="6.87122">
        <ele>2136.3</ele>
        <time>2016-05-06T09:40:27Z</time>
      </trkpt>
      <trkpt lat="45.64657" lon="6.87122">
        <ele>2136.3</ele>
        <time>2016-05-06T09:40:29Z</time>
      </trkpt>
      <trkpt lat="45.64657" lon="6.87122">
        <ele>2135.7</ele>
        <time>2016-05-06T09:40:31Z</time>
      </trkpt>
      <trkpt lat="45.64657" lon="6.87122">
        <ele>2135</ele>
        <time>2016-05-06T09:40:33Z</time>
      </trkpt>
      <trkpt lat="45.64657" lon="6.87122">
        <ele>2134.3</ele>
        <time>2016-05-06T09:40:35Z</time>
      </trkpt>
      <trkpt lat="45.64657" lon="6.87122">
        <ele>2134.6</ele>
        <time>2016-05-06T09:40:37Z</time>
      </trkpt>
      <trkpt lat="45.64657" lon="6.87122">
        <ele>2135.2</ele>
        <time>2016-05-06T09:40:39Z</time>
      </trkpt>
      <trkpt lat="45.64657" lon="6.87122">
        <ele>2136</ele>
        <time>2016-05-06T09:40:41Z</time>
      </trkpt>
      <trkpt lat="45.64656" lon="6.87122">
        <ele>2136.4</ele>
        <time>2016-05-06T09:40:43Z</time>
      </trkpt>
      <trkpt lat="45.64656" lon="6.87121">
        <ele>2137.2</ele>
        <time>2016-05-06T09:40:45Z</time>
      </trkpt>
      <trkpt lat="45.64657" lon="6.87121">
        <ele>2137.5</ele>
        <time>2016-05-06T09:40:47Z</time>
      </trkpt>
      <trkpt lat="45.64657" lon="6.87121">
        <ele>2137.7</ele>
        <time>2016-05-06T09:40:49Z</time>
      </trkpt>
      <trkpt lat="45.64656" lon="6.87122">
        <ele>2138</ele>
        <time>2016-05-06T09:40:51Z</time>
      </trkpt>
      <trkpt lat="45.64656" lon="6.87122">
        <ele>2138.1</ele>
        <time>2016-05-06T09:40:53Z</time>
      </trkpt>
      <trkpt lat="45.64657" lon="6.87122">
        <ele>2138.4</ele>
        <time>2016-05-06T09:40:55Z</time>
      </trkpt>
      <trkpt lat="45.64657" lon="6.87122">
        <ele>2138.2</ele>
        <time>2016-05-06T09:40:57Z</time>
      </trkpt>
      <trkpt lat="45.64657" lon="6.87122">
        <ele>2137.8</ele>
        <time>2016-05-06T09:40:59Z</time>
      </trkpt>
      <trkpt lat="45.64657" lon="6.87122">
        <ele>2139</ele>
        <time>2016-05-06T09:41:01Z</time>
      </trkpt>
      <trkpt lat="45.64657" lon="6.87122">
        <ele>2139.2</ele>
        <time>2016-05-06T09:41:03Z</time>
      </trkpt>
      <trkpt lat="45.64657" lon="6.87122">
        <ele>2139.1</ele>
        <time>2016-05-06T09:41:05Z</time>
      </trkpt>
      <trkpt lat="45.64657" lon="6.87121">
        <ele>2139.4</ele>
        <time>2016-05-06T09:41:07Z</time>
      </trkpt>
      <trkpt lat="45.64658" lon="6.87121">
        <ele>2139.5</ele>
        <time>2016-05-06T09:41:09Z</time>
      </trkpt>
      <trkpt lat="45.64659" lon="6.87121">
        <ele>2139.2</ele>
        <time>2016-05-06T09:41:11Z</time>
      </trkpt>
      <trkpt lat="45.64661" lon="6.87121">
        <ele>2139.8</ele>
        <time>2016-05-06T09:41:13Z</time>
      </trkpt>
      <trkpt lat="45.64662" lon="6.87121">
        <ele>2140.1</ele>
        <time>2016-05-06T09:41:15Z</time>
      </trkpt>
      <trkpt lat="45.64663" lon="6.8712">
        <ele>2140.6</ele>
        <time>2016-05-06T09:41:17Z</time>
      </trkpt>
      <trkpt lat="45.64664" lon="6.8712">
        <ele>2140.9</ele>
        <time>2016-05-06T09:41:19Z</time>
      </trkpt>
      <trkpt lat="45.64664" lon="6.87118">
        <ele>2140.6</ele>
        <time>2016-05-06T09:41:21Z</time>
      </trkpt>
      <trkpt lat="45.64666" lon="6.87117">
        <ele>2139.7</ele>
        <time>2016-05-06T09:41:23Z</time>
      </trkpt>
      <trkpt lat="45.64667" lon="6.87115">
        <ele>2139</ele>
        <time>2016-05-06T09:41:25Z</time>
      </trkpt>
      <trkpt lat="45.64668" lon="6.87114">
        <ele>2138</ele>
        <time>2016-05-06T09:41:27Z</time>
      </trkpt>
      <trkpt lat="45.64669" lon="6.87114">
        <ele>2137.3</ele>
        <time>2016-05-06T09:41:29Z</time>
      </trkpt>
      <trkpt lat="45.64669" lon="6.87113">
        <ele>2137.2</ele>
        <time>2016-05-06T09:41:31Z</time>
      </trkpt>
      <trkpt lat="45.6467" lon="6.87113">
        <ele>2137.5</ele>
        <time>2016-05-06T09:41:33Z</time>
      </trkpt>
      <trkpt lat="45.64671" lon="6.87112">
        <ele>2138.5</ele>
        <time>2016-05-06T09:41:35Z</time>
      </trkpt>
      <trkpt lat="45.64672" lon="6.87111">
        <ele>2138.8</ele>
        <time>2016-05-06T09:41:37Z</time>
      </trkpt>
      <trkpt lat="45.64673" lon="6.87111">
        <ele>2139.4</ele>
        <time>2016-05-06T09:41:39Z</time>
      </trkpt>
      <trkpt lat="45.64675" lon="6.8711">
        <ele>2138.9</ele>
        <time>2016-05-06T09:41:41Z</time>
      </trkpt>
      <trkpt lat="45.64676" lon="6.8711">
        <ele>2138</ele>
        <time>2016-05-06T09:41:43Z</time>
      </trkpt>
      <trkpt lat="45.64677" lon="6.8711">
        <ele>2137.3</ele>
        <time>2016-05-06T09:41:45Z</time>
      </trkpt>
      <trkpt lat="45.64678" lon="6.8711">
        <ele>2136.9</ele>
        <time>2016-05-06T09:41:47Z</time>
      </trkpt>
      <trkpt lat="45.6468" lon="6.8711">
        <ele>2136.8</ele>
        <time>2016-05-06T09:41:49Z</time>
      </trkpt>
      <trkpt lat="45.64681" lon="6.8711">
        <ele>2136.6</ele>
        <time>2016-05-06T09:41:51Z</time>
      </trkpt>
      <trkpt lat="45.64682" lon="6.8711">
        <ele>2136.5</ele>
        <time>2016-05-06T09:41:53Z</time>
      </trkpt>
      <trkpt lat="45.64683" lon="6.8711">
        <ele>2136.6</ele>
        <time>2016-05-06T09:41:55Z</time>
      </trkpt>
      <trkpt lat="45.64684" lon="6.8711">
        <ele>2136.6</ele>
        <time>2016-05-06T09:41:57Z</time>
      </trkpt>
      <trkpt lat="45.64685" lon="6.87109">
        <ele>2136.9</ele>
        <time>2016-05-06T09:41:59Z</time>
      </trkpt>
      <trkpt lat="45.64687" lon="6.87109">
        <ele>2137.3</ele>
        <time>2016-05-06T09:42:01Z</time>
      </trkpt>
      <trkpt lat="45.64688" lon="6.87109">
        <ele>2137.4</ele>
        <time>2016-05-06T09:42:03Z</time>
      </trkpt>
      <trkpt lat="45.6469" lon="6.87109">
        <ele>2137.5</ele>
        <time>2016-05-06T09:42:05Z</time>
      </trkpt>
      <trkpt lat="45.64691" lon="6.87109">
        <ele>2137.4</ele>
        <time>2016-05-06T09:42:07Z</time>
      </trkpt>
      <trkpt lat="45.64693" lon="6.87109">
        <ele>2137.3</ele>
        <time>2016-05-06T09:42:09Z</time>
      </trkpt>
      <trkpt lat="45.64694" lon="6.87109">
        <ele>2137.2</ele>
        <time>2016-05-06T09:42:11Z</time>
      </trkpt>
      <trkpt lat="45.64695" lon="6.87109">
        <ele>2137.3</ele>
        <time>2016-05-06T09:42:13Z</time>
      </trkpt>
      <trkpt lat="45.64697" lon="6.87108">
        <ele>2138.1</ele>
        <time>2016-05-06T09:42:15Z</time>
      </trkpt>
      <trkpt lat="45.64698" lon="6.87108">
        <ele>2138.6</ele>
        <time>2016-05-06T09:42:17Z</time>
      </trkpt>
      <trkpt lat="45.64698" lon="6.87108">
        <ele>2138.9</ele>
        <time>2016-05-06T09:42:19Z</time>
      </trkpt>
      <trkpt lat="45.647" lon="6.87107">
        <ele>2138.8</ele>
        <time>2016-05-06T09:42:21Z</time>
      </trkpt>
      <trkpt lat="45.64701" lon="6.87107">
        <ele>2139.2</ele>
        <time>2016-05-06T09:42:23Z</time>
      </trkpt>
      <trkpt lat="45.64702" lon="6.87107">
        <ele>2139.5</ele>
        <time>2016-05-06T09:42:25Z</time>
      </trkpt>
      <trkpt lat="45.64704" lon="6.87107">
        <ele>2139.6</ele>
        <time>2016-05-06T09:42:27Z</time>
      </trkpt>
      <trkpt lat="45.64705" lon="6.87107">
        <ele>2139.6</ele>
        <time>2016-05-06T09:42:29Z</time>
      </trkpt>
      <trkpt lat="45.64706" lon="6.87107">
        <ele>2139.5</ele>
        <time>2016-05-06T09:42:31Z</time>
      </trkpt>
      <trkpt lat="45.64707" lon="6.87107">
        <ele>2139.9</ele>
        <time>2016-05-06T09:42:33Z</time>
      </trkpt>
      <trkpt lat="45.64709" lon="6.87107">
        <ele>2139.9</ele>
        <time>2016-05-06T09:42:35Z</time>
      </trkpt>
      <trkpt lat="45.64709" lon="6.87107">
        <ele>2140.2</ele>
        <time>2016-05-06T09:42:37Z</time>
      </trkpt>
      <trkpt lat="45.6471" lon="6.87107">
        <ele>2140.5</ele>
        <time>2016-05-06T09:42:39Z</time>
      </trkpt>
      <trkpt lat="45.64711" lon="6.87107">
        <ele>2140.8</ele>
        <time>2016-05-06T09:42:41Z</time>
      </trkpt>
      <trkpt lat="45.64712" lon="6.87107">
        <ele>2141.3</ele>
        <time>2016-05-06T09:42:43Z</time>
      </trkpt>
      <trkpt lat="45.64713" lon="6.87107">
        <ele>2141.4</ele>
        <time>2016-05-06T09:42:45Z</time>
      </trkpt>
      <trkpt lat="45.64714" lon="6.87107">
        <ele>2141.3</ele>
        <time>2016-05-06T09:42:47Z</time>
      </trkpt>
      <trkpt lat="45.64715" lon="6.87107">
        <ele>2141.2</ele>
        <time>2016-05-06T09:42:49Z</time>
      </trkpt>
      <trkpt lat="45.64716" lon="6.87107">
        <ele>2141.8</ele>
        <time>2016-05-06T09:42:51Z</time>
      </trkpt>
      <trkpt lat="45.64717" lon="6.87107">
        <ele>2141.9</ele>
        <time>2016-05-06T09:42:53Z</time>
      </trkpt>
      <trkpt lat="45.64718" lon="6.87107">
        <ele>2142.5</ele>
        <time>2016-05-06T09:42:55Z</time>
      </trkpt>
      <trkpt lat="45.64719" lon="6.87107">
        <ele>2142.8</ele>
        <time>2016-05-06T09:42:57Z</time>
      </trkpt>
      <trkpt lat="45.64719" lon="6.87107">
        <ele>2142.9</ele>
        <time>2016-05-06T09:42:59Z</time>
      </trkpt>
      <trkpt lat="45.6472" lon="6.87107">
        <ele>2143.5</ele>
        <time>2016-05-06T09:43:01Z</time>
      </trkpt>
      <trkpt lat="45.64721" lon="6.87107">
        <ele>2144</ele>
        <time>2016-05-06T09:43:03Z</time>
      </trkpt>
      <trkpt lat="45.64722" lon="6.87107">
        <ele>2144.3</ele>
        <time>2016-05-06T09:43:05Z</time>
      </trkpt>
      <trkpt lat="45.64723" lon="6.87107">
        <ele>2144.9</ele>
        <time>2016-05-06T09:43:07Z</time>
      </trkpt>
      <trkpt lat="45.64724" lon="6.87107">
        <ele>2145.4</ele>
        <time>2016-05-06T09:43:09Z</time>
      </trkpt>
      <trkpt lat="45.64725" lon="6.87107">
        <ele>2146.2</ele>
        <time>2016-05-06T09:43:11Z</time>
      </trkpt>
      <trkpt lat="45.64726" lon="6.87107">
        <ele>2146.5</ele>
        <time>2016-05-06T09:43:13Z</time>
      </trkpt>
      <trkpt lat="45.64727" lon="6.87107">
        <ele>2146.7</ele>
        <time>2016-05-06T09:43:15Z</time>
      </trkpt>
      <trkpt lat="45.64728" lon="6.87107">
        <ele>2146.6</ele>
        <time>2016-05-06T09:43:17Z</time>
      </trkpt>
      <trkpt lat="45.64729" lon="6.87107">
        <ele>2147.6</ele>
        <time>2016-05-06T09:43:19Z</time>
      </trkpt>
      <trkpt lat="45.64731" lon="6.87107">
        <ele>2148.5</ele>
        <time>2016-05-06T09:43:21Z</time>
      </trkpt>
      <trkpt lat="45.64732" lon="6.87107">
        <ele>2149.7</ele>
        <time>2016-05-06T09:43:23Z</time>
      </trkpt>
      <trkpt lat="45.64734" lon="6.87107">
        <ele>2150.8</ele>
        <time>2016-05-06T09:43:25Z</time>
      </trkpt>
      <trkpt lat="45.64735" lon="6.87107">
        <ele>2151.6</ele>
        <time>2016-05-06T09:43:27Z</time>
      </trkpt>
      <trkpt lat="45.64737" lon="6.87107">
        <ele>2152.1</ele>
        <time>2016-05-06T09:43:29Z</time>
      </trkpt>
      <trkpt lat="45.64738" lon="6.87107">
        <ele>2152.4</ele>
        <time>2016-05-06T09:43:31Z</time>
      </trkpt>
      <trkpt lat="45.64739" lon="6.87107">
        <ele>2152.7</ele>
        <time>2016-05-06T09:43:33Z</time>
      </trkpt>
      <trkpt lat="45.6474" lon="6.87108">
        <ele>2153</ele>
        <time>2016-05-06T09:43:35Z</time>
      </trkpt>
      <trkpt lat="45.64742" lon="6.87107">
        <ele>2153</ele>
        <time>2016-05-06T09:43:37Z</time>
      </trkpt>
      <trkpt lat="45.64743" lon="6.87107">
        <ele>2153.1</ele>
        <time>2016-05-06T09:43:39Z</time>
      </trkpt>
      <trkpt lat="45.64744" lon="6.87107">
        <ele>2153.2</ele>
        <time>2016-05-06T09:43:41Z</time>
      </trkpt>
      <trkpt lat="45.64745" lon="6.87107">
        <ele>2153.1</ele>
        <time>2016-05-06T09:43:43Z</time>
      </trkpt>
      <trkpt lat="45.64747" lon="6.87108">
        <ele>2153.3</ele>
        <time>2016-05-06T09:43:45Z</time>
      </trkpt>
      <trkpt lat="45.64748" lon="6.87108">
        <ele>2153.7</ele>
        <time>2016-05-06T09:43:47Z</time>
      </trkpt>
      <trkpt lat="45.64749" lon="6.87108">
        <ele>2153.6</ele>
        <time>2016-05-06T09:43:49Z</time>
      </trkpt>
      <trkpt lat="45.64751" lon="6.87108">
        <ele>2153.6</ele>
        <time>2016-05-06T09:43:51Z</time>
      </trkpt>
      <trkpt lat="45.64753" lon="6.87108">
        <ele>2153.8</ele>
        <time>2016-05-06T09:43:53Z</time>
      </trkpt>
      <trkpt lat="45.64754" lon="6.87108">
        <ele>2154</ele>
        <time>2016-05-06T09:43:55Z</time>
      </trkpt>
      <trkpt lat="45.64756" lon="6.87108">
        <ele>2154.1</ele>
        <time>2016-05-06T09:43:57Z</time>
      </trkpt>
      <trkpt lat="45.64757" lon="6.87108">
        <ele>2154.1</ele>
        <time>2016-05-06T09:43:59Z</time>
      </trkpt>
      <trkpt lat="45.64758" lon="6.87108">
        <ele>2154.2</ele>
        <time>2016-05-06T09:44:01Z</time>
      </trkpt>
      <trkpt lat="45.6476" lon="6.87108">
        <ele>2154.2</ele>
        <time>2016-05-06T09:44:03Z</time>
      </trkpt>
      <trkpt lat="45.64761" lon="6.87108">
        <ele>2154.2</ele>
        <time>2016-05-06T09:44:05Z</time>
      </trkpt>
      <trkpt lat="45.64762" lon="6.87108">
        <ele>2154.5</ele>
        <time>2016-05-06T09:44:07Z</time>
      </trkpt>
      <trkpt lat="45.64762" lon="6.87108">
        <ele>2155</ele>
        <time>2016-05-06T09:44:09Z</time>
      </trkpt>
      <trkpt lat="45.64763" lon="6.87108">
        <ele>2155.1</ele>
        <time>2016-05-06T09:44:11Z</time>
      </trkpt>
      <trkpt lat="45.64763" lon="6.87108">
        <ele>2155.4</ele>
        <time>2016-05-06T09:44:13Z</time>
      </trkpt>
      <trkpt lat="45.64764" lon="6.87108">
        <ele>2155.8</ele>
        <time>2016-05-06T09:44:15Z</time>
      </trkpt>
      <trkpt lat="45.64765" lon="6.87108">
        <ele>2156</ele>
        <time>2016-05-06T09:44:17Z</time>
      </trkpt>
      <trkpt lat="45.64766" lon="6.87108">
        <ele>2156.3</ele>
        <time>2016-05-06T09:44:19Z</time>
      </trkpt>
      <trkpt lat="45.64767" lon="6.87108">
        <ele>2156.5</ele>
        <time>2016-05-06T09:44:21Z</time>
      </trkpt>
      <trkpt lat="45.64769" lon="6.87108">
        <ele>2156.7</ele>
        <time>2016-05-06T09:44:23Z</time>
      </trkpt>
      <trkpt lat="45.6477" lon="6.87108">
        <ele>2156.7</ele>
        <time>2016-05-06T09:44:25Z</time>
      </trkpt>
      <trkpt lat="45.64772" lon="6.87109">
        <ele>2156.9</ele>
        <time>2016-05-06T09:44:27Z</time>
      </trkpt>
      <trkpt lat="45.64773" lon="6.87109">
        <ele>2157.6</ele>
        <time>2016-05-06T09:44:29Z</time>
      </trkpt>
      <trkpt lat="45.64774" lon="6.87109">
        <ele>2159.2</ele>
        <time>2016-05-06T09:44:31Z</time>
      </trkpt>
      <trkpt lat="45.64775" lon="6.87109">
        <ele>2159.9</ele>
        <time>2016-05-06T09:44:33Z</time>
      </trkpt>
      <trkpt lat="45.64777" lon="6.87109">
        <ele>2160.4</ele>
        <time>2016-05-06T09:44:35Z</time>
      </trkpt>
      <trkpt lat="45.64778" lon="6.87109">
        <ele>2160.8</ele>
        <time>2016-05-06T09:44:37Z</time>
      </trkpt>
      <trkpt lat="45.64779" lon="6.87109">
        <ele>2160.9</ele>
        <time>2016-05-06T09:44:39Z</time>
      </trkpt>
      <trkpt lat="45.6478" lon="6.87109">
        <ele>2161.1</ele>
        <time>2016-05-06T09:44:41Z</time>
      </trkpt>
      <trkpt lat="45.64781" lon="6.87109">
        <ele>2161.5</ele>
        <time>2016-05-06T09:44:43Z</time>
      </trkpt>
      <trkpt lat="45.64781" lon="6.8711">
        <ele>2162.2</ele>
        <time>2016-05-06T09:44:45Z</time>
      </trkpt>
      <trkpt lat="45.64782" lon="6.8711">
        <ele>2162.2</ele>
        <time>2016-05-06T09:44:47Z</time>
      </trkpt>
      <trkpt lat="45.64783" lon="6.8711">
        <ele>2162.7</ele>
        <time>2016-05-06T09:44:49Z</time>
      </trkpt>
      <trkpt lat="45.64783" lon="6.8711">
        <ele>2163.2</ele>
        <time>2016-05-06T09:44:51Z</time>
      </trkpt>
      <trkpt lat="45.64784" lon="6.8711">
        <ele>2163.4</ele>
        <time>2016-05-06T09:44:53Z</time>
      </trkpt>
      <trkpt lat="45.64785" lon="6.8711">
        <ele>2163.6</ele>
        <time>2016-05-06T09:44:55Z</time>
      </trkpt>
      <trkpt lat="45.64786" lon="6.8711">
        <ele>2163.6</ele>
        <time>2016-05-06T09:44:57Z</time>
      </trkpt>
      <trkpt lat="45.64786" lon="6.8711">
        <ele>2163.7</ele>
        <time>2016-05-06T09:44:59Z</time>
      </trkpt>
      <trkpt lat="45.64787" lon="6.8711">
        <ele>2164.2</ele>
        <time>2016-05-06T09:45:01Z</time>
      </trkpt>
      <trkpt lat="45.64788" lon="6.8711">
        <ele>2164.3</ele>
        <time>2016-05-06T09:45:03Z</time>
      </trkpt>
      <trkpt lat="45.64789" lon="6.8711">
        <ele>2164.5</ele>
        <time>2016-05-06T09:45:05Z</time>
      </trkpt>
      <trkpt lat="45.6479" lon="6.8711">
        <ele>2164.3</ele>
        <time>2016-05-06T09:45:07Z</time>
      </trkpt>
      <trkpt lat="45.64792" lon="6.8711">
        <ele>2164.5</ele>
        <time>2016-05-06T09:45:09Z</time>
      </trkpt>
      <trkpt lat="45.64793" lon="6.8711">
        <ele>2164.6</ele>
        <time>2016-05-06T09:45:11Z</time>
      </trkpt>
      <trkpt lat="45.64794" lon="6.8711">
        <ele>2165</ele>
        <time>2016-05-06T09:45:13Z</time>
      </trkpt>
      <trkpt lat="45.64796" lon="6.8711">
        <ele>2165.3</ele>
        <time>2016-05-06T09:45:15Z</time>
      </trkpt>
      <trkpt lat="45.64797" lon="6.8711">
        <ele>2165.7</ele>
        <time>2016-05-06T09:45:17Z</time>
      </trkpt>
      <trkpt lat="45.64798" lon="6.8711">
        <ele>2166</ele>
        <time>2016-05-06T09:45:19Z</time>
      </trkpt>
      <trkpt lat="45.64799" lon="6.8711">
        <ele>2166.7</ele>
        <time>2016-05-06T09:45:21Z</time>
      </trkpt>
      <trkpt lat="45.648" lon="6.8711">
        <ele>2167.3</ele>
        <time>2016-05-06T09:45:23Z</time>
      </trkpt>
      <trkpt lat="45.64801" lon="6.87111">
        <ele>2167.5</ele>
        <time>2016-05-06T09:45:25Z</time>
      </trkpt>
      <trkpt lat="45.64802" lon="6.87111">
        <ele>2167.5</ele>
        <time>2016-05-06T09:45:27Z</time>
      </trkpt>
      <trkpt lat="45.64803" lon="6.87111">
        <ele>2167.6</ele>
        <time>2016-05-06T09:45:29Z</time>
      </trkpt>
      <trkpt lat="45.64804" lon="6.87111">
        <ele>2167.4</ele>
        <time>2016-05-06T09:45:31Z</time>
      </trkpt>
      <trkpt lat="45.64806" lon="6.87111">
        <ele>2167.5</ele>
        <time>2016-05-06T09:45:33Z</time>
      </trkpt>
      <trkpt lat="45.64807" lon="6.87111">
        <ele>2167.9</ele>
        <time>2016-05-06T09:45:35Z</time>
      </trkpt>
      <trkpt lat="45.64808" lon="6.87112">
        <ele>2167.7</ele>
        <time>2016-05-06T09:45:37Z</time>
      </trkpt>
      <trkpt lat="45.64809" lon="6.87112">
        <ele>2167.9</ele>
        <time>2016-05-06T09:45:39Z</time>
      </trkpt>
      <trkpt lat="45.64809" lon="6.87111">
        <ele>2167.9</ele>
        <time>2016-05-06T09:45:41Z</time>
      </trkpt>
      <trkpt lat="45.6481" lon="6.87111">
        <ele>2167.8</ele>
        <time>2016-05-06T09:45:43Z</time>
      </trkpt>
      <trkpt lat="45.64811" lon="6.87111">
        <ele>2168.3</ele>
        <time>2016-05-06T09:45:45Z</time>
      </trkpt>
      <trkpt lat="45.64812" lon="6.87111">
        <ele>2168.7</ele>
        <time>2016-05-06T09:45:47Z</time>
      </trkpt>
      <trkpt lat="45.64813" lon="6.87112">
        <ele>2169.2</ele>
        <time>2016-05-06T09:45:49Z</time>
      </trkpt>
      <trkpt lat="45.64815" lon="6.87112">
        <ele>2169.8</ele>
        <time>2016-05-06T09:45:51Z</time>
      </trkpt>
      <trkpt lat="45.64816" lon="6.87112">
        <ele>2170</ele>
        <time>2016-05-06T09:45:53Z</time>
      </trkpt>
      <trkpt lat="45.64817" lon="6.87112">
        <ele>2170</ele>
        <time>2016-05-06T09:45:55Z</time>
      </trkpt>
      <trkpt lat="45.64818" lon="6.87112">
        <ele>2170.6</ele>
        <time>2016-05-06T09:45:57Z</time>
      </trkpt>
      <trkpt lat="45.64818" lon="6.87113">
        <ele>2170.5</ele>
        <time>2016-05-06T09:45:59Z</time>
      </trkpt>
      <trkpt lat="45.6482" lon="6.87113">
        <ele>2171.5</ele>
        <time>2016-05-06T09:46:01Z</time>
      </trkpt>
      <trkpt lat="45.64821" lon="6.87113">
        <ele>2172.3</ele>
        <time>2016-05-06T09:46:03Z</time>
      </trkpt>
      <trkpt lat="45.64822" lon="6.87113">
        <ele>2172.6</ele>
        <time>2016-05-06T09:46:05Z</time>
      </trkpt>
      <trkpt lat="45.64824" lon="6.87114">
        <ele>2172.1</ele>
        <time>2016-05-06T09:46:07Z</time>
      </trkpt>
      <trkpt lat="45.64825" lon="6.87114">
        <ele>2171.6</ele>
        <time>2016-05-06T09:46:09Z</time>
      </trkpt>
      <trkpt lat="45.64826" lon="6.87114">
        <ele>2171.3</ele>
        <time>2016-05-06T09:46:11Z</time>
      </trkpt>
      <trkpt lat="45.64827" lon="6.87114">
        <ele>2171.8</ele>
        <time>2016-05-06T09:46:13Z</time>
      </trkpt>
      <trkpt lat="45.64828" lon="6.87114">
        <ele>2172</ele>
        <time>2016-05-06T09:46:15Z</time>
      </trkpt>
      <trkpt lat="45.64829" lon="6.87115">
        <ele>2172</ele>
        <time>2016-05-06T09:46:17Z</time>
      </trkpt>
      <trkpt lat="45.6483" lon="6.87115">
        <ele>2172.1</ele>
        <time>2016-05-06T09:46:19Z</time>
      </trkpt>
      <trkpt lat="45.64831" lon="6.87115">
        <ele>2171.7</ele>
        <time>2016-05-06T09:46:21Z</time>
      </trkpt>
      <trkpt lat="45.64832" lon="6.87115">
        <ele>2171.8</ele>
        <time>2016-05-06T09:46:23Z</time>
      </trkpt>
      <trkpt lat="45.64834" lon="6.87116">
        <ele>2171.9</ele>
        <time>2016-05-06T09:46:25Z</time>
      </trkpt>
      <trkpt lat="45.64835" lon="6.87116">
        <ele>2172.1</ele>
        <time>2016-05-06T09:46:27Z</time>
      </trkpt>
      <trkpt lat="45.64836" lon="6.87116">
        <ele>2172.4</ele>
        <time>2016-05-06T09:46:29Z</time>
      </trkpt>
      <trkpt lat="45.64838" lon="6.87116">
        <ele>2172.2</ele>
        <time>2016-05-06T09:46:31Z</time>
      </trkpt>
      <trkpt lat="45.64839" lon="6.87117">
        <ele>2172.1</ele>
        <time>2016-05-06T09:46:33Z</time>
      </trkpt>
      <trkpt lat="45.64841" lon="6.87117">
        <ele>2172.1</ele>
        <time>2016-05-06T09:46:35Z</time>
      </trkpt>
      <trkpt lat="45.64842" lon="6.87118">
        <ele>2172.3</ele>
        <time>2016-05-06T09:46:37Z</time>
      </trkpt>
      <trkpt lat="45.64843" lon="6.87118">
        <ele>2172.3</ele>
        <time>2016-05-06T09:46:39Z</time>
      </trkpt>
      <trkpt lat="45.64845" lon="6.87118">
        <ele>2172.1</ele>
        <time>2016-05-06T09:46:41Z</time>
      </trkpt>
      <trkpt lat="45.64846" lon="6.87118">
        <ele>2171.8</ele>
        <time>2016-05-06T09:46:43Z</time>
      </trkpt>
      <trkpt lat="45.64847" lon="6.87119">
        <ele>2171.6</ele>
        <time>2016-05-06T09:46:45Z</time>
      </trkpt>
      <trkpt lat="45.64849" lon="6.87119">
        <ele>2171.7</ele>
        <time>2016-05-06T09:46:47Z</time>
      </trkpt>
      <trkpt lat="45.64851" lon="6.87119">
        <ele>2171.9</ele>
        <time>2016-05-06T09:46:49Z</time>
      </trkpt>
      <trkpt lat="45.64852" lon="6.87119">
        <ele>2172.1</ele>
        <time>2016-05-06T09:46:51Z</time>
      </trkpt>
      <trkpt lat="45.64853" lon="6.8712">
        <ele>2172</ele>
        <time>2016-05-06T09:46:53Z</time>
      </trkpt>
      <trkpt lat="45.64855" lon="6.8712">
        <ele>2171.8</ele>
        <time>2016-05-06T09:46:55Z</time>
      </trkpt>
      <trkpt lat="45.64857" lon="6.87121">
        <ele>2171.8</ele>
        <time>2016-05-06T09:46:57Z</time>
      </trkpt>
      <trkpt lat="45.64858" lon="6.87121">
        <ele>2172</ele>
        <time>2016-05-06T09:46:59Z</time>
      </trkpt>
      <trkpt lat="45.6486" lon="6.87121">
        <ele>2172.5</ele>
        <time>2016-05-06T09:47:01Z</time>
      </trkpt>
      <trkpt lat="45.64861" lon="6.87122">
        <ele>2172.8</ele>
        <time>2016-05-06T09:47:03Z</time>
      </trkpt>
      <trkpt lat="45.64861" lon="6.87122">
        <ele>2173.1</ele>
        <time>2016-05-06T09:47:05Z</time>
      </trkpt>
      <trkpt lat="45.64862" lon="6.87123">
        <ele>2173.1</ele>
        <time>2016-05-06T09:47:07Z</time>
      </trkpt>
      <trkpt lat="45.64863" lon="6.87123">
        <ele>2172.8</ele>
        <time>2016-05-06T09:47:09Z</time>
      </trkpt>
      <trkpt lat="45.64863" lon="6.87123">
        <ele>2173.2</ele>
        <time>2016-05-06T09:47:11Z</time>
      </trkpt>
      <trkpt lat="45.64864" lon="6.87123">
        <ele>2173.5</ele>
        <time>2016-05-06T09:47:13Z</time>
      </trkpt>
      <trkpt lat="45.64866" lon="6.87123">
        <ele>2173.8</ele>
        <time>2016-05-06T09:47:15Z</time>
      </trkpt>
      <trkpt lat="45.64867" lon="6.87123">
        <ele>2174.3</ele>
        <time>2016-05-06T09:47:17Z</time>
      </trkpt>
      <trkpt lat="45.64868" lon="6.87123">
        <ele>2175.2</ele>
        <time>2016-05-06T09:47:19Z</time>
      </trkpt>
      <trkpt lat="45.64869" lon="6.87123">
        <ele>2175.7</ele>
        <time>2016-05-06T09:47:21Z</time>
      </trkpt>
      <trkpt lat="45.64869" lon="6.87123">
        <ele>2176</ele>
        <time>2016-05-06T09:47:23Z</time>
      </trkpt>
      <trkpt lat="45.6487" lon="6.87123">
        <ele>2176.2</ele>
        <time>2016-05-06T09:47:25Z</time>
      </trkpt>
      <trkpt lat="45.6487" lon="6.87123">
        <ele>2176.4</ele>
        <time>2016-05-06T09:47:27Z</time>
      </trkpt>
      <trkpt lat="45.64872" lon="6.87123">
        <ele>2176.7</ele>
        <time>2016-05-06T09:47:29Z</time>
      </trkpt>
      <trkpt lat="45.64873" lon="6.87123">
        <ele>2177</ele>
        <time>2016-05-06T09:47:31Z</time>
      </trkpt>
      <trkpt lat="45.64874" lon="6.87124">
        <ele>2177.9</ele>
        <time>2016-05-06T09:47:33Z</time>
      </trkpt>
      <trkpt lat="45.64874" lon="6.87124">
        <ele>2178.4</ele>
        <time>2016-05-06T09:47:35Z</time>
      </trkpt>
      <trkpt lat="45.64875" lon="6.87124">
        <ele>2178.3</ele>
        <time>2016-05-06T09:47:37Z</time>
      </trkpt>
      <trkpt lat="45.64876" lon="6.87124">
        <ele>2178.3</ele>
        <time>2016-05-06T09:47:39Z</time>
      </trkpt>
      <trkpt lat="45.64877" lon="6.87124">
        <ele>2178.3</ele>
        <time>2016-05-06T09:47:41Z</time>
      </trkpt>
      <trkpt lat="45.64877" lon="6.87124">
        <ele>2178.5</ele>
        <time>2016-05-06T09:47:43Z</time>
      </trkpt>
      <trkpt lat="45.64879" lon="6.87124">
        <ele>2179</ele>
        <time>2016-05-06T09:47:45Z</time>
      </trkpt>
      <trkpt lat="45.64879" lon="6.87124">
        <ele>2179.4</ele>
        <time>2016-05-06T09:47:47Z</time>
      </trkpt>
      <trkpt lat="45.6488" lon="6.87124">
        <ele>2179.7</ele>
        <time>2016-05-06T09:47:49Z</time>
      </trkpt>
      <trkpt lat="45.64881" lon="6.87124">
        <ele>2179.4</ele>
        <time>2016-05-06T09:47:51Z</time>
      </trkpt>
      <trkpt lat="45.64881" lon="6.87125">
        <ele>2179.6</ele>
        <time>2016-05-06T09:47:53Z</time>
      </trkpt>
      <trkpt lat="45.64882" lon="6.87125">
        <ele>2180</ele>
        <time>2016-05-06T09:47:55Z</time>
      </trkpt>
      <trkpt lat="45.64883" lon="6.87125">
        <ele>2180.5</ele>
        <time>2016-05-06T09:47:57Z</time>
      </trkpt>
      <trkpt lat="45.64884" lon="6.87125">
        <ele>2180.7</ele>
        <time>2016-05-06T09:47:59Z</time>
      </trkpt>
      <trkpt lat="45.64884" lon="6.87125">
        <ele>2181.4</ele>
        <time>2016-05-06T09:48:01Z</time>
      </trkpt>
      <trkpt lat="45.64885" lon="6.87125">
        <ele>2181.7</ele>
        <time>2016-05-06T09:48:03Z</time>
      </trkpt>
      <trkpt lat="45.64886" lon="6.87126">
        <ele>2181.9</ele>
        <time>2016-05-06T09:48:05Z</time>
      </trkpt>
      <trkpt lat="45.64887" lon="6.87126">
        <ele>2182.4</ele>
        <time>2016-05-06T09:48:07Z</time>
      </trkpt>
      <trkpt lat="45.64888" lon="6.87126">
        <ele>2182.6</ele>
        <time>2016-05-06T09:48:09Z</time>
      </trkpt>
      <trkpt lat="45.64888" lon="6.87126">
        <ele>2182.5</ele>
        <time>2016-05-06T09:48:11Z</time>
      </trkpt>
      <trkpt lat="45.64889" lon="6.87125">
        <ele>2182.8</ele>
        <time>2016-05-06T09:48:13Z</time>
      </trkpt>
      <trkpt lat="45.6489" lon="6.87126">
        <ele>2183.3</ele>
        <time>2016-05-06T09:48:15Z</time>
      </trkpt>
      <trkpt lat="45.64891" lon="6.87126">
        <ele>2184</ele>
        <time>2016-05-06T09:48:17Z</time>
      </trkpt>
      <trkpt lat="45.64892" lon="6.87126">
        <ele>2184.1</ele>
        <time>2016-05-06T09:48:19Z</time>
      </trkpt>
      <trkpt lat="45.64893" lon="6.87126">
        <ele>2184.4</ele>
        <time>2016-05-06T09:48:21Z</time>
      </trkpt>
      <trkpt lat="45.64894" lon="6.87127">
        <ele>2184.9</ele>
        <time>2016-05-06T09:48:23Z</time>
      </trkpt>
      <trkpt lat="45.64894" lon="6.87127">
        <ele>2185.9</ele>
        <time>2016-05-06T09:48:25Z</time>
      </trkpt>
      <trkpt lat="45.64895" lon="6.87127">
        <ele>2186.5</ele>
        <time>2016-05-06T09:48:27Z</time>
      </trkpt>
      <trkpt lat="45.64896" lon="6.87127">
        <ele>2186.6</ele>
        <time>2016-05-06T09:48:29Z</time>
      </trkpt>
      <trkpt lat="45.64897" lon="6.87127">
        <ele>2186.5</ele>
        <time>2016-05-06T09:48:31Z</time>
      </trkpt>
      <trkpt lat="45.64897" lon="6.87128">
        <ele>2186.4</ele>
        <time>2016-05-06T09:48:33Z</time>
      </trkpt>
      <trkpt lat="45.64898" lon="6.87128">
        <ele>2186.8</ele>
        <time>2016-05-06T09:48:35Z</time>
      </trkpt>
      <trkpt lat="45.649" lon="6.87128">
        <ele>2186.7</ele>
        <time>2016-05-06T09:48:37Z</time>
      </trkpt>
      <trkpt lat="45.649" lon="6.87128">
        <ele>2186.6</ele>
        <time>2016-05-06T09:48:39Z</time>
      </trkpt>
      <trkpt lat="45.64901" lon="6.87128">
        <ele>2186.8</ele>
        <time>2016-05-06T09:48:41Z</time>
      </trkpt>
      <trkpt lat="45.64901" lon="6.87129">
        <ele>2187.3</ele>
        <time>2016-05-06T09:48:43Z</time>
      </trkpt>
      <trkpt lat="45.64903" lon="6.87129">
        <ele>2187.9</ele>
        <time>2016-05-06T09:48:45Z</time>
      </trkpt>
      <trkpt lat="45.64903" lon="6.87129">
        <ele>2188.4</ele>
        <time>2016-05-06T09:48:47Z</time>
      </trkpt>
      <trkpt lat="45.64904" lon="6.87129">
        <ele>2189.1</ele>
        <time>2016-05-06T09:48:49Z</time>
      </trkpt>
      <trkpt lat="45.64904" lon="6.87129">
        <ele>2189.6</ele>
        <time>2016-05-06T09:48:51Z</time>
      </trkpt>
      <trkpt lat="45.64905" lon="6.87129">
        <ele>2189.8</ele>
        <time>2016-05-06T09:48:53Z</time>
      </trkpt>
      <trkpt lat="45.64906" lon="6.8713">
        <ele>2190.2</ele>
        <time>2016-05-06T09:48:55Z</time>
      </trkpt>
      <trkpt lat="45.64907" lon="6.8713">
        <ele>2190.6</ele>
        <time>2016-05-06T09:48:57Z</time>
      </trkpt>
      <trkpt lat="45.64907" lon="6.8713">
        <ele>2191</ele>
        <time>2016-05-06T09:48:59Z</time>
      </trkpt>
      <trkpt lat="45.64908" lon="6.8713">
        <ele>2191</ele>
        <time>2016-05-06T09:49:01Z</time>
      </trkpt>
      <trkpt lat="45.6491" lon="6.87131">
        <ele>2191.4</ele>
        <time>2016-05-06T09:49:03Z</time>
      </trkpt>
      <trkpt lat="45.64911" lon="6.87131">
        <ele>2191.6</ele>
        <time>2016-05-06T09:49:05Z</time>
      </trkpt>
      <trkpt lat="45.64912" lon="6.87131">
        <ele>2191.4</ele>
        <time>2016-05-06T09:49:07Z</time>
      </trkpt>
      <trkpt lat="45.64913" lon="6.87131">
        <ele>2191.1</ele>
        <time>2016-05-06T09:49:09Z</time>
      </trkpt>
      <trkpt lat="45.64914" lon="6.87132">
        <ele>2191</ele>
        <time>2016-05-06T09:49:11Z</time>
      </trkpt>
      <trkpt lat="45.64914" lon="6.87132">
        <ele>2191</ele>
        <time>2016-05-06T09:49:13Z</time>
      </trkpt>
      <trkpt lat="45.64915" lon="6.87132">
        <ele>2190.9</ele>
        <time>2016-05-06T09:49:15Z</time>
      </trkpt>
      <trkpt lat="45.64916" lon="6.87133">
        <ele>2190.9</ele>
        <time>2016-05-06T09:49:17Z</time>
      </trkpt>
      <trkpt lat="45.64917" lon="6.87133">
        <ele>2191</ele>
        <time>2016-05-06T09:49:19Z</time>
      </trkpt>
      <trkpt lat="45.64919" lon="6.87133">
        <ele>2190.9</ele>
        <time>2016-05-06T09:49:21Z</time>
      </trkpt>
      <trkpt lat="45.64919" lon="6.87134">
        <ele>2191.1</ele>
        <time>2016-05-06T09:49:23Z</time>
      </trkpt>
      <trkpt lat="45.6492" lon="6.87134">
        <ele>2191.4</ele>
        <time>2016-05-06T09:49:25Z</time>
      </trkpt>
      <trkpt lat="45.64921" lon="6.87134">
        <ele>2191.6</ele>
        <time>2016-05-06T09:49:27Z</time>
      </trkpt>
      <trkpt lat="45.64922" lon="6.87135">
        <ele>2192</ele>
        <time>2016-05-06T09:49:29Z</time>
      </trkpt>
      <trkpt lat="45.64922" lon="6.87135">
        <ele>2192.5</ele>
        <time>2016-05-06T09:49:31Z</time>
      </trkpt>
      <trkpt lat="45.64923" lon="6.87135">
        <ele>2192.7</ele>
        <time>2016-05-06T09:49:33Z</time>
      </trkpt>
      <trkpt lat="45.64924" lon="6.87135">
        <ele>2193.1</ele>
        <time>2016-05-06T09:49:35Z</time>
      </trkpt>
      <trkpt lat="45.64924" lon="6.87136">
        <ele>2193.4</ele>
        <time>2016-05-06T09:49:37Z</time>
      </trkpt>
      <trkpt lat="45.64926" lon="6.87136">
        <ele>2193.9</ele>
        <time>2016-05-06T09:49:39Z</time>
      </trkpt>
      <trkpt lat="45.64927" lon="6.87136">
        <ele>2194.2</ele>
        <time>2016-05-06T09:49:41Z</time>
      </trkpt>
      <trkpt lat="45.64928" lon="6.87137">
        <ele>2193.9</ele>
        <time>2016-05-06T09:49:43Z</time>
      </trkpt>
      <trkpt lat="45.64928" lon="6.87137">
        <ele>2193.8</ele>
        <time>2016-05-06T09:49:45Z</time>
      </trkpt>
      <trkpt lat="45.6493" lon="6.87138">
        <ele>2194.1</ele>
        <time>2016-05-06T09:49:47Z</time>
      </trkpt>
      <trkpt lat="45.64931" lon="6.87139">
        <ele>2194.3</ele>
        <time>2016-05-06T09:49:49Z</time>
      </trkpt>
      <trkpt lat="45.64931" lon="6.87139">
        <ele>2194.3</ele>
        <time>2016-05-06T09:49:51Z</time>
      </trkpt>
      <trkpt lat="45.64932" lon="6.87139">
        <ele>2194.5</ele>
        <time>2016-05-06T09:49:53Z</time>
      </trkpt>
      <trkpt lat="45.64933" lon="6.87139">
        <ele>2194.9</ele>
        <time>2016-05-06T09:49:55Z</time>
      </trkpt>
      <trkpt lat="45.64934" lon="6.8714">
        <ele>2195.3</ele>
        <time>2016-05-06T09:49:57Z</time>
      </trkpt>
      <trkpt lat="45.64935" lon="6.8714">
        <ele>2195.5</ele>
        <time>2016-05-06T09:49:59Z</time>
      </trkpt>
      <trkpt lat="45.64935" lon="6.87141">
        <ele>2195.9</ele>
        <time>2016-05-06T09:50:01Z</time>
      </trkpt>
      <trkpt lat="45.64936" lon="6.87141">
        <ele>2196.1</ele>
        <time>2016-05-06T09:50:03Z</time>
      </trkpt>
      <trkpt lat="45.64937" lon="6.87142">
        <ele>2196.2</ele>
        <time>2016-05-06T09:50:05Z</time>
      </trkpt>
      <trkpt lat="45.64938" lon="6.87142">
        <ele>2196.4</ele>
        <time>2016-05-06T09:50:07Z</time>
      </trkpt>
      <trkpt lat="45.6494" lon="6.87143">
        <ele>2196.7</ele>
        <time>2016-05-06T09:50:09Z</time>
      </trkpt>
      <trkpt lat="45.64941" lon="6.87144">
        <ele>2197.2</ele>
        <time>2016-05-06T09:50:11Z</time>
      </trkpt>
      <trkpt lat="45.64942" lon="6.87144">
        <ele>2198</ele>
        <time>2016-05-06T09:50:13Z</time>
      </trkpt>
      <trkpt lat="45.64943" lon="6.87145">
        <ele>2198.6</ele>
        <time>2016-05-06T09:50:15Z</time>
      </trkpt>
      <trkpt lat="45.64944" lon="6.87145">
        <ele>2199</ele>
        <time>2016-05-06T09:50:17Z</time>
      </trkpt>
      <trkpt lat="45.64945" lon="6.87145">
        <ele>2199.2</ele>
        <time>2016-05-06T09:50:19Z</time>
      </trkpt>
      <trkpt lat="45.64946" lon="6.87146">
        <ele>2199.5</ele>
        <time>2016-05-06T09:50:21Z</time>
      </trkpt>
      <trkpt lat="45.64947" lon="6.87146">
        <ele>2200.4</ele>
        <time>2016-05-06T09:50:23Z</time>
      </trkpt>
      <trkpt lat="45.64948" lon="6.87147">
        <ele>2200.9</ele>
        <time>2016-05-06T09:50:25Z</time>
      </trkpt>
      <trkpt lat="45.64949" lon="6.87148">
        <ele>2201.1</ele>
        <time>2016-05-06T09:50:27Z</time>
      </trkpt>
      <trkpt lat="45.6495" lon="6.87149">
        <ele>2201.5</ele>
        <time>2016-05-06T09:50:29Z</time>
      </trkpt>
      <trkpt lat="45.64951" lon="6.87149">
        <ele>2201.9</ele>
        <time>2016-05-06T09:50:31Z</time>
      </trkpt>
      <trkpt lat="45.64952" lon="6.87149">
        <ele>2202.2</ele>
        <time>2016-05-06T09:50:33Z</time>
      </trkpt>
      <trkpt lat="45.64952" lon="6.87149">
        <ele>2202.3</ele>
        <time>2016-05-06T09:50:35Z</time>
      </trkpt>
      <trkpt lat="45.64953" lon="6.87149">
        <ele>2202.5</ele>
        <time>2016-05-06T09:50:37Z</time>
      </trkpt>
      <trkpt lat="45.64954" lon="6.8715">
        <ele>2203.2</ele>
        <time>2016-05-06T09:50:39Z</time>
      </trkpt>
      <trkpt lat="45.64955" lon="6.87151">
        <ele>2204.4</ele>
        <time>2016-05-06T09:50:41Z</time>
      </trkpt>
      <trkpt lat="45.64956" lon="6.87151">
        <ele>2204.5</ele>
        <time>2016-05-06T09:50:43Z</time>
      </trkpt>
      <trkpt lat="45.64957" lon="6.87152">
        <ele>2204.8</ele>
        <time>2016-05-06T09:50:45Z</time>
      </trkpt>
      <trkpt lat="45.64957" lon="6.87152">
        <ele>2205.5</ele>
        <time>2016-05-06T09:50:47Z</time>
      </trkpt>
      <trkpt lat="45.64958" lon="6.87152">
        <ele>2205.6</ele>
        <time>2016-05-06T09:50:49Z</time>
      </trkpt>
      <trkpt lat="45.64959" lon="6.87153">
        <ele>2205.7</ele>
        <time>2016-05-06T09:50:51Z</time>
      </trkpt>
      <trkpt lat="45.6496" lon="6.87153">
        <ele>2205.8</ele>
        <time>2016-05-06T09:50:53Z</time>
      </trkpt>
      <trkpt lat="45.64961" lon="6.87154">
        <ele>2205.9</ele>
        <time>2016-05-06T09:50:55Z</time>
      </trkpt>
      <trkpt lat="45.64962" lon="6.87154">
        <ele>2206.2</ele>
        <time>2016-05-06T09:50:57Z</time>
      </trkpt>
      <trkpt lat="45.64963" lon="6.87154">
        <ele>2206.5</ele>
        <time>2016-05-06T09:50:59Z</time>
      </trkpt>
      <trkpt lat="45.64963" lon="6.87154">
        <ele>2206.6</ele>
        <time>2016-05-06T09:51:01Z</time>
      </trkpt>
      <trkpt lat="45.64964" lon="6.87154">
        <ele>2206.8</ele>
        <time>2016-05-06T09:51:03Z</time>
      </trkpt>
      <trkpt lat="45.64964" lon="6.87155">
        <ele>2207.5</ele>
        <time>2016-05-06T09:51:05Z</time>
      </trkpt>
      <trkpt lat="45.64965" lon="6.87156">
        <ele>2208.2</ele>
        <time>2016-05-06T09:51:07Z</time>
      </trkpt>
      <trkpt lat="45.64966" lon="6.87156">
        <ele>2208.7</ele>
        <time>2016-05-06T09:51:09Z</time>
      </trkpt>
      <trkpt lat="45.64967" lon="6.87156">
        <ele>2208.9</ele>
        <time>2016-05-06T09:51:11Z</time>
      </trkpt>
      <trkpt lat="45.64968" lon="6.87157">
        <ele>2209.1</ele>
        <time>2016-05-06T09:51:13Z</time>
      </trkpt>
      <trkpt lat="45.64968" lon="6.87158">
        <ele>2209.3</ele>
        <time>2016-05-06T09:51:15Z</time>
      </trkpt>
      <trkpt lat="45.6497" lon="6.87159">
        <ele>2209.9</ele>
        <time>2016-05-06T09:51:17Z</time>
      </trkpt>
      <trkpt lat="45.64971" lon="6.8716">
        <ele>2210.3</ele>
        <time>2016-05-06T09:51:19Z</time>
      </trkpt>
      <trkpt lat="45.64971" lon="6.8716">
        <ele>2211</ele>
        <time>2016-05-06T09:51:21Z</time>
      </trkpt>
      <trkpt lat="45.64972" lon="6.8716">
        <ele>2211.2</ele>
        <time>2016-05-06T09:51:23Z</time>
      </trkpt>
      <trkpt lat="45.64973" lon="6.87161">
        <ele>2211.6</ele>
        <time>2016-05-06T09:51:25Z</time>
      </trkpt>
      <trkpt lat="45.64974" lon="6.87161">
        <ele>2212</ele>
        <time>2016-05-06T09:51:27Z</time>
      </trkpt>
      <trkpt lat="45.64975" lon="6.87162">
        <ele>2212.5</ele>
        <time>2016-05-06T09:51:29Z</time>
      </trkpt>
      <trkpt lat="45.64975" lon="6.87162">
        <ele>2213.1</ele>
        <time>2016-05-06T09:51:31Z</time>
      </trkpt>
      <trkpt lat="45.64976" lon="6.87163">
        <ele>2213.1</ele>
        <time>2016-05-06T09:51:33Z</time>
      </trkpt>
      <trkpt lat="45.64976" lon="6.87164">
        <ele>2213.1</ele>
        <time>2016-05-06T09:51:35Z</time>
      </trkpt>
      <trkpt lat="45.64978" lon="6.87165">
        <ele>2213.4</ele>
        <time>2016-05-06T09:51:37Z</time>
      </trkpt>
      <trkpt lat="45.64979" lon="6.87165">
        <ele>2213.6</ele>
        <time>2016-05-06T09:51:39Z</time>
      </trkpt>
      <trkpt lat="45.6498" lon="6.87166">
        <ele>2214</ele>
        <time>2016-05-06T09:51:41Z</time>
      </trkpt>
      <trkpt lat="45.64981" lon="6.87166">
        <ele>2214.3</ele>
        <time>2016-05-06T09:51:43Z</time>
      </trkpt>
      <trkpt lat="45.64982" lon="6.87167">
        <ele>2214.4</ele>
        <time>2016-05-06T09:51:45Z</time>
      </trkpt>
      <trkpt lat="45.64984" lon="6.87168">
        <ele>2214.5</ele>
        <time>2016-05-06T09:51:47Z</time>
      </trkpt>
      <trkpt lat="45.64985" lon="6.87168">
        <ele>2215.3</ele>
        <time>2016-05-06T09:51:49Z</time>
      </trkpt>
      <trkpt lat="45.64986" lon="6.87169">
        <ele>2215.9</ele>
        <time>2016-05-06T09:51:51Z</time>
      </trkpt>
      <trkpt lat="45.64987" lon="6.87169">
        <ele>2215.9</ele>
        <time>2016-05-06T09:51:53Z</time>
      </trkpt>
      <trkpt lat="45.64988" lon="6.87169">
        <ele>2216</ele>
        <time>2016-05-06T09:51:55Z</time>
      </trkpt>
      <trkpt lat="45.64989" lon="6.87169">
        <ele>2216</ele>
        <time>2016-05-06T09:51:57Z</time>
      </trkpt>
      <trkpt lat="45.6499" lon="6.87169">
        <ele>2216.5</ele>
        <time>2016-05-06T09:51:59Z</time>
      </trkpt>
      <trkpt lat="45.6499" lon="6.87169">
        <ele>2216.5</ele>
        <time>2016-05-06T09:52:01Z</time>
      </trkpt>
      <trkpt lat="45.64991" lon="6.8717">
        <ele>2216.5</ele>
        <time>2016-05-06T09:52:03Z</time>
      </trkpt>
      <trkpt lat="45.64992" lon="6.8717">
        <ele>2216.8</ele>
        <time>2016-05-06T09:52:05Z</time>
      </trkpt>
      <trkpt lat="45.64992" lon="6.8717">
        <ele>2216.7</ele>
        <time>2016-05-06T09:52:07Z</time>
      </trkpt>
      <trkpt lat="45.64993" lon="6.87171">
        <ele>2216.4</ele>
        <time>2016-05-06T09:52:09Z</time>
      </trkpt>
      <trkpt lat="45.64994" lon="6.87171">
        <ele>2216.2</ele>
        <time>2016-05-06T09:52:11Z</time>
      </trkpt>
      <trkpt lat="45.64995" lon="6.87172">
        <ele>2216.4</ele>
        <time>2016-05-06T09:52:13Z</time>
      </trkpt>
      <trkpt lat="45.64996" lon="6.87172">
        <ele>2216.6</ele>
        <time>2016-05-06T09:52:15Z</time>
      </trkpt>
      <trkpt lat="45.64998" lon="6.87174">
        <ele>2216.9</ele>
        <time>2016-05-06T09:52:17Z</time>
      </trkpt>
      <trkpt lat="45.64999" lon="6.87174">
        <ele>2216.8</ele>
        <time>2016-05-06T09:52:19Z</time>
      </trkpt>
      <trkpt lat="45.64999" lon="6.87175">
        <ele>2216.9</ele>
        <time>2016-05-06T09:52:21Z</time>
      </trkpt>
      <trkpt lat="45.65001" lon="6.87175">
        <ele>2217.1</ele>
        <time>2016-05-06T09:52:23Z</time>
      </trkpt>
      <trkpt lat="45.65002" lon="6.87176">
        <ele>2218.5</ele>
        <time>2016-05-06T09:52:25Z</time>
      </trkpt>
      <trkpt lat="45.65004" lon="6.87177">
        <ele>2217.7</ele>
        <time>2016-05-06T09:52:27Z</time>
      </trkpt>
      <trkpt lat="45.65005" lon="6.87177">
        <ele>2216.7</ele>
        <time>2016-05-06T09:52:29Z</time>
      </trkpt>
      <trkpt lat="45.65007" lon="6.87178">
        <ele>2217.1</ele>
        <time>2016-05-06T09:52:31Z</time>
      </trkpt>
      <trkpt lat="45.65008" lon="6.87178">
        <ele>2217.1</ele>
        <time>2016-05-06T09:52:33Z</time>
      </trkpt>
      <trkpt lat="45.65009" lon="6.87179">
        <ele>2217</ele>
        <time>2016-05-06T09:52:35Z</time>
      </trkpt>
      <trkpt lat="45.6501" lon="6.87179">
        <ele>2217.7</ele>
        <time>2016-05-06T09:52:37Z</time>
      </trkpt>
      <trkpt lat="45.65012" lon="6.87179">
        <ele>2217.9</ele>
        <time>2016-05-06T09:52:39Z</time>
      </trkpt>
      <trkpt lat="45.65013" lon="6.8718">
        <ele>2218.6</ele>
        <time>2016-05-06T09:52:41Z</time>
      </trkpt>
      <trkpt lat="45.65015" lon="6.8718">
        <ele>2219.7</ele>
        <time>2016-05-06T09:52:43Z</time>
      </trkpt>
      <trkpt lat="45.65016" lon="6.87181">
        <ele>2219.6</ele>
        <time>2016-05-06T09:52:45Z</time>
      </trkpt>
      <trkpt lat="45.65018" lon="6.87181">
        <ele>2219.6</ele>
        <time>2016-05-06T09:52:47Z</time>
      </trkpt>
      <trkpt lat="45.65019" lon="6.87181">
        <ele>2220.1</ele>
        <time>2016-05-06T09:52:49Z</time>
      </trkpt>
      <trkpt lat="45.65021" lon="6.87182">
        <ele>2220.5</ele>
        <time>2016-05-06T09:52:51Z</time>
      </trkpt>
      <trkpt lat="45.65023" lon="6.87182">
        <ele>2221.2</ele>
        <time>2016-05-06T09:52:53Z</time>
      </trkpt>
      <trkpt lat="45.65024" lon="6.87183">
        <ele>2221.4</ele>
        <time>2016-05-06T09:52:55Z</time>
      </trkpt>
      <trkpt lat="45.65025" lon="6.87183">
        <ele>2222.1</ele>
        <time>2016-05-06T09:52:57Z</time>
      </trkpt>
      <trkpt lat="45.65027" lon="6.87183">
        <ele>2221.8</ele>
        <time>2016-05-06T09:52:59Z</time>
      </trkpt>
      <trkpt lat="45.65028" lon="6.87184">
        <ele>2221.7</ele>
        <time>2016-05-06T09:53:01Z</time>
      </trkpt>
      <trkpt lat="45.65029" lon="6.87185">
        <ele>2221.4</ele>
        <time>2016-05-06T09:53:03Z</time>
      </trkpt>
      <trkpt lat="45.65031" lon="6.87186">
        <ele>2220.8</ele>
        <time>2016-05-06T09:53:05Z</time>
      </trkpt>
      <trkpt lat="45.65032" lon="6.87186">
        <ele>2220.4</ele>
        <time>2016-05-06T09:53:07Z</time>
      </trkpt>
      <trkpt lat="45.65034" lon="6.87187">
        <ele>2220.4</ele>
        <time>2016-05-06T09:53:09Z</time>
      </trkpt>
      <trkpt lat="45.65036" lon="6.87187">
        <ele>2220.1</ele>
        <time>2016-05-06T09:53:11Z</time>
      </trkpt>
      <trkpt lat="45.65037" lon="6.87188">
        <ele>2220.3</ele>
        <time>2016-05-06T09:53:13Z</time>
      </trkpt>
      <trkpt lat="45.65038" lon="6.87189">
        <ele>2220.1</ele>
        <time>2016-05-06T09:53:15Z</time>
      </trkpt>
      <trkpt lat="45.6504" lon="6.87189">
        <ele>2220.1</ele>
        <time>2016-05-06T09:53:17Z</time>
      </trkpt>
      <trkpt lat="45.65041" lon="6.87189">
        <ele>2219.7</ele>
        <time>2016-05-06T09:53:19Z</time>
      </trkpt>
      <trkpt lat="45.65042" lon="6.8719">
        <ele>2219.4</ele>
        <time>2016-05-06T09:53:21Z</time>
      </trkpt>
      <trkpt lat="45.65043" lon="6.8719">
        <ele>2219.4</ele>
        <time>2016-05-06T09:53:23Z</time>
      </trkpt>
      <trkpt lat="45.65044" lon="6.87191">
        <ele>2219.8</ele>
        <time>2016-05-06T09:53:25Z</time>
      </trkpt>
      <trkpt lat="45.65045" lon="6.87192">
        <ele>2219.4</ele>
        <time>2016-05-06T09:53:27Z</time>
      </trkpt>
      <trkpt lat="45.65046" lon="6.87192">
        <ele>2219.5</ele>
        <time>2016-05-06T09:53:29Z</time>
      </trkpt>
      <trkpt lat="45.65047" lon="6.87192">
        <ele>2219.3</ele>
        <time>2016-05-06T09:53:31Z</time>
      </trkpt>
      <trkpt lat="45.65048" lon="6.87193">
        <ele>2219.3</ele>
        <time>2016-05-06T09:53:33Z</time>
      </trkpt>
      <trkpt lat="45.65049" lon="6.87193">
        <ele>2219.1</ele>
        <time>2016-05-06T09:53:35Z</time>
      </trkpt>
      <trkpt lat="45.6505" lon="6.87194">
        <ele>2219.3</ele>
        <time>2016-05-06T09:53:37Z</time>
      </trkpt>
      <trkpt lat="45.65052" lon="6.87194">
        <ele>2219.6</ele>
        <time>2016-05-06T09:53:39Z</time>
      </trkpt>
      <trkpt lat="45.65053" lon="6.87195">
        <ele>2219.7</ele>
        <time>2016-05-06T09:53:41Z</time>
      </trkpt>
      <trkpt lat="45.65054" lon="6.87196">
        <ele>2220.6</ele>
        <time>2016-05-06T09:53:43Z</time>
      </trkpt>
      <trkpt lat="45.65056" lon="6.87197">
        <ele>2221</ele>
        <time>2016-05-06T09:53:45Z</time>
      </trkpt>
      <trkpt lat="45.65057" lon="6.87197">
        <ele>2220.9</ele>
        <time>2016-05-06T09:53:47Z</time>
      </trkpt>
      <trkpt lat="45.65058" lon="6.87198">
        <ele>2220.8</ele>
        <time>2016-05-06T09:53:49Z</time>
      </trkpt>
      <trkpt lat="45.65059" lon="6.87198">
        <ele>2220.7</ele>
        <time>2016-05-06T09:53:51Z</time>
      </trkpt>
      <trkpt lat="45.6506" lon="6.87199">
        <ele>2220.5</ele>
        <time>2016-05-06T09:53:53Z</time>
      </trkpt>
      <trkpt lat="45.65061" lon="6.872">
        <ele>2220.6</ele>
        <time>2016-05-06T09:53:55Z</time>
      </trkpt>
      <trkpt lat="45.65062" lon="6.87201">
        <ele>2220.6</ele>
        <time>2016-05-06T09:53:57Z</time>
      </trkpt>
      <trkpt lat="45.65063" lon="6.87201">
        <ele>2220.6</ele>
        <time>2016-05-06T09:53:59Z</time>
      </trkpt>
      <trkpt lat="45.65065" lon="6.87202">
        <ele>2220.9</ele>
        <time>2016-05-06T09:54:01Z</time>
      </trkpt>
      <trkpt lat="45.65065" lon="6.87202">
        <ele>2221.5</ele>
        <time>2016-05-06T09:54:03Z</time>
      </trkpt>
      <trkpt lat="45.65066" lon="6.87202">
        <ele>2221.7</ele>
        <time>2016-05-06T09:54:05Z</time>
      </trkpt>
      <trkpt lat="45.65067" lon="6.87202">
        <ele>2222.2</ele>
        <time>2016-05-06T09:54:07Z</time>
      </trkpt>
      <trkpt lat="45.65068" lon="6.87202">
        <ele>2222.9</ele>
        <time>2016-05-06T09:54:09Z</time>
      </trkpt>
      <trkpt lat="45.6507" lon="6.87202">
        <ele>2223.8</ele>
        <time>2016-05-06T09:54:11Z</time>
      </trkpt>
      <trkpt lat="45.65071" lon="6.87202">
        <ele>2224.4</ele>
        <time>2016-05-06T09:54:13Z</time>
      </trkpt>
      <trkpt lat="45.65073" lon="6.87202">
        <ele>2224.6</ele>
        <time>2016-05-06T09:54:15Z</time>
      </trkpt>
      <trkpt lat="45.65074" lon="6.87201">
        <ele>2225.1</ele>
        <time>2016-05-06T09:54:17Z</time>
      </trkpt>
      <trkpt lat="45.65075" lon="6.87201">
        <ele>2225.5</ele>
        <time>2016-05-06T09:54:19Z</time>
      </trkpt>
      <trkpt lat="45.65076" lon="6.87201">
        <ele>2226</ele>
        <time>2016-05-06T09:54:21Z</time>
      </trkpt>
      <trkpt lat="45.65078" lon="6.87202">
        <ele>2226.5</ele>
        <time>2016-05-06T09:54:23Z</time>
      </trkpt>
      <trkpt lat="45.65079" lon="6.87203">
        <ele>2226.4</ele>
        <time>2016-05-06T09:54:25Z</time>
      </trkpt>
      <trkpt lat="45.6508" lon="6.87204">
        <ele>2226.1</ele>
        <time>2016-05-06T09:54:27Z</time>
      </trkpt>
      <trkpt lat="45.6508" lon="6.87204">
        <ele>2226.2</ele>
        <time>2016-05-06T09:54:29Z</time>
      </trkpt>
      <trkpt lat="45.65082" lon="6.87205">
        <ele>2226.8</ele>
        <time>2016-05-06T09:54:31Z</time>
      </trkpt>
      <trkpt lat="45.65083" lon="6.87205">
        <ele>2228.4</ele>
        <time>2016-05-06T09:54:33Z</time>
      </trkpt>
      <trkpt lat="45.65084" lon="6.87205">
        <ele>2229.4</ele>
        <time>2016-05-06T09:54:35Z</time>
      </trkpt>
      <trkpt lat="45.65084" lon="6.87206">
        <ele>2229</ele>
        <time>2016-05-06T09:54:37Z</time>
      </trkpt>
      <trkpt lat="45.65085" lon="6.87206">
        <ele>2228.2</ele>
        <time>2016-05-06T09:54:39Z</time>
      </trkpt>
      <trkpt lat="45.65085" lon="6.87206">
        <ele>2227.9</ele>
        <time>2016-05-06T09:54:41Z</time>
      </trkpt>
      <trkpt lat="45.65086" lon="6.87206">
        <ele>2228</ele>
        <time>2016-05-06T09:54:43Z</time>
      </trkpt>
      <trkpt lat="45.65087" lon="6.87206">
        <ele>2228.1</ele>
        <time>2016-05-06T09:54:45Z</time>
      </trkpt>
      <trkpt lat="45.65088" lon="6.87207">
        <ele>2228.1</ele>
        <time>2016-05-06T09:54:47Z</time>
      </trkpt>
      <trkpt lat="45.65089" lon="6.87207">
        <ele>2228.3</ele>
        <time>2016-05-06T09:54:49Z</time>
      </trkpt>
      <trkpt lat="45.65091" lon="6.87207">
        <ele>2228.3</ele>
        <time>2016-05-06T09:54:51Z</time>
      </trkpt>
      <trkpt lat="45.65092" lon="6.87208">
        <ele>2229</ele>
        <time>2016-05-06T09:54:53Z</time>
      </trkpt>
      <trkpt lat="45.65093" lon="6.87209">
        <ele>2228.8</ele>
        <time>2016-05-06T09:54:55Z</time>
      </trkpt>
      <trkpt lat="45.65094" lon="6.8721">
        <ele>2229.1</ele>
        <time>2016-05-06T09:54:57Z</time>
      </trkpt>
      <trkpt lat="45.65095" lon="6.8721">
        <ele>2230</ele>
        <time>2016-05-06T09:54:59Z</time>
      </trkpt>
      <trkpt lat="45.65096" lon="6.8721">
        <ele>2230.5</ele>
        <time>2016-05-06T09:55:01Z</time>
      </trkpt>
      <trkpt lat="45.65098" lon="6.8721">
        <ele>2231.4</ele>
        <time>2016-05-06T09:55:03Z</time>
      </trkpt>
      <trkpt lat="45.65099" lon="6.8721">
        <ele>2232</ele>
        <time>2016-05-06T09:55:05Z</time>
      </trkpt>
      <trkpt lat="45.651" lon="6.8721">
        <ele>2232.5</ele>
        <time>2016-05-06T09:55:07Z</time>
      </trkpt>
      <trkpt lat="45.65101" lon="6.87209">
        <ele>2233.5</ele>
        <time>2016-05-06T09:55:09Z</time>
      </trkpt>
      <trkpt lat="45.65102" lon="6.87209">
        <ele>2233.4</ele>
        <time>2016-05-06T09:55:11Z</time>
      </trkpt>
      <trkpt lat="45.65104" lon="6.87209">
        <ele>2233.1</ele>
        <time>2016-05-06T09:55:13Z</time>
      </trkpt>
      <trkpt lat="45.65106" lon="6.87209">
        <ele>2232.7</ele>
        <time>2016-05-06T09:55:15Z</time>
      </trkpt>
      <trkpt lat="45.65107" lon="6.87209">
        <ele>2232.6</ele>
        <time>2016-05-06T09:55:17Z</time>
      </trkpt>
      <trkpt lat="45.65108" lon="6.87208">
        <ele>2232.3</ele>
        <time>2016-05-06T09:55:19Z</time>
      </trkpt>
      <trkpt lat="45.65109" lon="6.87208">
        <ele>2232.3</ele>
        <time>2016-05-06T09:55:21Z</time>
      </trkpt>
      <trkpt lat="45.65109" lon="6.87208">
        <ele>2232</ele>
        <time>2016-05-06T09:55:23Z</time>
      </trkpt>
      <trkpt lat="45.6511" lon="6.87208">
        <ele>2231.7</ele>
        <time>2016-05-06T09:55:25Z</time>
      </trkpt>
      <trkpt lat="45.65111" lon="6.87207">
        <ele>2231.9</ele>
        <time>2016-05-06T09:55:27Z</time>
      </trkpt>
      <trkpt lat="45.65112" lon="6.87207">
        <ele>2231.7</ele>
        <time>2016-05-06T09:55:29Z</time>
      </trkpt>
      <trkpt lat="45.65113" lon="6.87206">
        <ele>2231.7</ele>
        <time>2016-05-06T09:55:31Z</time>
      </trkpt>
      <trkpt lat="45.65114" lon="6.87206">
        <ele>2231.8</ele>
        <time>2016-05-06T09:55:33Z</time>
      </trkpt>
      <trkpt lat="45.65115" lon="6.87205">
        <ele>2232.1</ele>
        <time>2016-05-06T09:55:35Z</time>
      </trkpt>
      <trkpt lat="45.65116" lon="6.87205">
        <ele>2232.5</ele>
        <time>2016-05-06T09:55:37Z</time>
      </trkpt>
      <trkpt lat="45.65117" lon="6.87204">
        <ele>2232.9</ele>
        <time>2016-05-06T09:55:39Z</time>
      </trkpt>
      <trkpt lat="45.65118" lon="6.87203">
        <ele>2233.2</ele>
        <time>2016-05-06T09:55:41Z</time>
      </trkpt>
      <trkpt lat="45.65119" lon="6.87203">
        <ele>2233.3</ele>
        <time>2016-05-06T09:55:43Z</time>
      </trkpt>
      <trkpt lat="45.65119" lon="6.87203">
        <ele>2233.5</ele>
        <time>2016-05-06T09:55:45Z</time>
      </trkpt>
      <trkpt lat="45.6512" lon="6.87202">
        <ele>2233.4</ele>
        <time>2016-05-06T09:55:47Z</time>
      </trkpt>
      <trkpt lat="45.6512" lon="6.87202">
        <ele>2232.9</ele>
        <time>2016-05-06T09:55:49Z</time>
      </trkpt>
      <trkpt lat="45.6512" lon="6.87203">
        <ele>2232.5</ele>
        <time>2016-05-06T09:55:51Z</time>
      </trkpt>
      <trkpt lat="45.6512" lon="6.87202">
        <ele>2232.8</ele>
        <time>2016-05-06T09:55:53Z</time>
      </trkpt>
      <trkpt lat="45.6512" lon="6.87202">
        <ele>2233.7</ele>
        <time>2016-05-06T09:55:55Z</time>
      </trkpt>
      <trkpt lat="45.65121" lon="6.87203">
        <ele>2233.8</ele>
        <time>2016-05-06T09:55:57Z</time>
      </trkpt>
      <trkpt lat="45.65121" lon="6.87203">
        <ele>2233.5</ele>
        <time>2016-05-06T09:55:59Z</time>
      </trkpt>
      <trkpt lat="45.65122" lon="6.87202">
        <ele>2233.7</ele>
        <time>2016-05-06T09:56:01Z</time>
      </trkpt>
      <trkpt lat="45.65123" lon="6.87202">
        <ele>2233.8</ele>
        <time>2016-05-06T09:56:03Z</time>
      </trkpt>
      <trkpt lat="45.65123" lon="6.87201">
        <ele>2234.4</ele>
        <time>2016-05-06T09:56:05Z</time>
      </trkpt>
      <trkpt lat="45.65124" lon="6.872">
        <ele>2234.7</ele>
        <time>2016-05-06T09:56:07Z</time>
      </trkpt>
      <trkpt lat="45.65125" lon="6.872">
        <ele>2234.9</ele>
        <time>2016-05-06T09:56:09Z</time>
      </trkpt>
      <trkpt lat="45.65126" lon="6.872">
        <ele>2235.3</ele>
        <time>2016-05-06T09:56:11Z</time>
      </trkpt>
      <trkpt lat="45.65127" lon="6.87199">
        <ele>2235.5</ele>
        <time>2016-05-06T09:56:13Z</time>
      </trkpt>
      <trkpt lat="45.65128" lon="6.87199">
        <ele>2236</ele>
        <time>2016-05-06T09:56:15Z</time>
      </trkpt>
      <trkpt lat="45.65129" lon="6.87198">
        <ele>2236.4</ele>
        <time>2016-05-06T09:56:17Z</time>
      </trkpt>
      <trkpt lat="45.65129" lon="6.87198">
        <ele>2237</ele>
        <time>2016-05-06T09:56:19Z</time>
      </trkpt>
      <trkpt lat="45.6513" lon="6.87198">
        <ele>2237.4</ele>
        <time>2016-05-06T09:56:21Z</time>
      </trkpt>
      <trkpt lat="45.65131" lon="6.87197">
        <ele>2238</ele>
        <time>2016-05-06T09:56:23Z</time>
      </trkpt>
      <trkpt lat="45.65131" lon="6.87197">
        <ele>2238.9</ele>
        <time>2016-05-06T09:56:25Z</time>
      </trkpt>
      <trkpt lat="45.65131" lon="6.87197">
        <ele>2239.2</ele>
        <time>2016-05-06T09:56:27Z</time>
      </trkpt>
      <trkpt lat="45.65132" lon="6.87196">
        <ele>2239.4</ele>
        <time>2016-05-06T09:56:29Z</time>
      </trkpt>
      <trkpt lat="45.65132" lon="6.87196">
        <ele>2239.6</ele>
        <time>2016-05-06T09:56:31Z</time>
      </trkpt>
      <trkpt lat="45.65133" lon="6.87196">
        <ele>2240</ele>
        <time>2016-05-06T09:56:33Z</time>
      </trkpt>
      <trkpt lat="45.65134" lon="6.87196">
        <ele>2240.3</ele>
        <time>2016-05-06T09:56:35Z</time>
      </trkpt>
      <trkpt lat="45.65135" lon="6.87196">
        <ele>2239.4</ele>
        <time>2016-05-06T09:56:37Z</time>
      </trkpt>
      <trkpt lat="45.65135" lon="6.87195">
        <ele>2239.9</ele>
        <time>2016-05-06T09:56:39Z</time>
      </trkpt>
      <trkpt lat="45.65136" lon="6.87195">
        <ele>2240.2</ele>
        <time>2016-05-06T09:56:41Z</time>
      </trkpt>
      <trkpt lat="45.65137" lon="6.87195">
        <ele>2240.3</ele>
        <time>2016-05-06T09:56:43Z</time>
      </trkpt>
      <trkpt lat="45.65137" lon="6.87194">
        <ele>2240.8</ele>
        <time>2016-05-06T09:56:45Z</time>
      </trkpt>
      <trkpt lat="45.65138" lon="6.87194">
        <ele>2241.2</ele>
        <time>2016-05-06T09:56:47Z</time>
      </trkpt>
      <trkpt lat="45.65139" lon="6.87194">
        <ele>2241.4</ele>
        <time>2016-05-06T09:56:49Z</time>
      </trkpt>
      <trkpt lat="45.6514" lon="6.87193">
        <ele>2242.3</ele>
        <time>2016-05-06T09:56:51Z</time>
      </trkpt>
      <trkpt lat="45.65141" lon="6.87193">
        <ele>2243.5</ele>
        <time>2016-05-06T09:56:53Z</time>
      </trkpt>
      <trkpt lat="45.65142" lon="6.87192">
        <ele>2243.6</ele>
        <time>2016-05-06T09:56:55Z</time>
      </trkpt>
      <trkpt lat="45.65142" lon="6.87192">
        <ele>2243.6</ele>
        <time>2016-05-06T09:56:57Z</time>
      </trkpt>
      <trkpt lat="45.65143" lon="6.87191">
        <ele>2244</ele>
        <time>2016-05-06T09:56:59Z</time>
      </trkpt>
      <trkpt lat="45.65144" lon="6.87191">
        <ele>2244.1</ele>
        <time>2016-05-06T09:57:01Z</time>
      </trkpt>
      <trkpt lat="45.65145" lon="6.8719">
        <ele>2244.2</ele>
        <time>2016-05-06T09:57:03Z</time>
      </trkpt>
      <trkpt lat="45.65145" lon="6.8719">
        <ele>2244.7</ele>
        <time>2016-05-06T09:57:05Z</time>
      </trkpt>
      <trkpt lat="45.65146" lon="6.87189">
        <ele>2244.9</ele>
        <time>2016-05-06T09:57:07Z</time>
      </trkpt>
      <trkpt lat="45.65147" lon="6.87189">
        <ele>2245.5</ele>
        <time>2016-05-06T09:57:09Z</time>
      </trkpt>
      <trkpt lat="45.65147" lon="6.87188">
        <ele>2246.2</ele>
        <time>2016-05-06T09:57:11Z</time>
      </trkpt>
      <trkpt lat="45.65148" lon="6.87187">
        <ele>2246.3</ele>
        <time>2016-05-06T09:57:13Z</time>
      </trkpt>
      <trkpt lat="45.65149" lon="6.87186">
        <ele>2246.9</ele>
        <time>2016-05-06T09:57:15Z</time>
      </trkpt>
      <trkpt lat="45.6515" lon="6.87186">
        <ele>2247.1</ele>
        <time>2016-05-06T09:57:17Z</time>
      </trkpt>
      <trkpt lat="45.6515" lon="6.87186">
        <ele>2247</ele>
        <time>2016-05-06T09:57:19Z</time>
      </trkpt>
      <trkpt lat="45.65151" lon="6.87185">
        <ele>2247.2</ele>
        <time>2016-05-06T09:57:21Z</time>
      </trkpt>
      <trkpt lat="45.65152" lon="6.87185">
        <ele>2247.4</ele>
        <time>2016-05-06T09:57:23Z</time>
      </trkpt>
      <trkpt lat="45.65152" lon="6.87184">
        <ele>2247.6</ele>
        <time>2016-05-06T09:57:25Z</time>
      </trkpt>
      <trkpt lat="45.65153" lon="6.87183">
        <ele>2247.7</ele>
        <time>2016-05-06T09:57:27Z</time>
      </trkpt>
      <trkpt lat="45.65154" lon="6.87183">
        <ele>2248.6</ele>
        <time>2016-05-06T09:57:29Z</time>
      </trkpt>
      <trkpt lat="45.65155" lon="6.87182">
        <ele>2248.2</ele>
        <time>2016-05-06T09:57:31Z</time>
      </trkpt>
      <trkpt lat="45.65156" lon="6.87182">
        <ele>2248.1</ele>
        <time>2016-05-06T09:57:33Z</time>
      </trkpt>
      <trkpt lat="45.65156" lon="6.87182">
        <ele>2247.5</ele>
        <time>2016-05-06T09:57:35Z</time>
      </trkpt>
      <trkpt lat="45.65156" lon="6.87182">
        <ele>2247.1</ele>
        <time>2016-05-06T09:57:37Z</time>
      </trkpt>
      <trkpt lat="45.65156" lon="6.87182">
        <ele>2247.1</ele>
        <time>2016-05-06T09:57:39Z</time>
      </trkpt>
      <trkpt lat="45.65155" lon="6.87182">
        <ele>2246.8</ele>
        <time>2016-05-06T09:57:41Z</time>
      </trkpt>
      <trkpt lat="45.65155" lon="6.87182">
        <ele>2246.6</ele>
        <time>2016-05-06T09:57:43Z</time>
      </trkpt>
      <trkpt lat="45.65155" lon="6.87182">
        <ele>2246.8</ele>
        <time>2016-05-06T09:57:45Z</time>
      </trkpt>
      <trkpt lat="45.65156" lon="6.87181">
        <ele>2247.6</ele>
        <time>2016-05-06T09:57:47Z</time>
      </trkpt>
      <trkpt lat="45.65157" lon="6.87181">
        <ele>2248</ele>
        <time>2016-05-06T09:57:49Z</time>
      </trkpt>
      <trkpt lat="45.65157" lon="6.8718">
        <ele>2248</ele>
        <time>2016-05-06T09:57:51Z</time>
      </trkpt>
      <trkpt lat="45.65158" lon="6.8718">
        <ele>2248.1</ele>
        <time>2016-05-06T09:57:53Z</time>
      </trkpt>
      <trkpt lat="45.65159" lon="6.8718">
        <ele>2248.6</ele>
        <time>2016-05-06T09:57:55Z</time>
      </trkpt>
      <trkpt lat="45.6516" lon="6.87179">
        <ele>2248.6</ele>
        <time>2016-05-06T09:57:57Z</time>
      </trkpt>
      <trkpt lat="45.65161" lon="6.87179">
        <ele>2248.9</ele>
        <time>2016-05-06T09:57:59Z</time>
      </trkpt>
      <trkpt lat="45.65162" lon="6.87178">
        <ele>2249.1</ele>
        <time>2016-05-06T09:58:01Z</time>
      </trkpt>
      <trkpt lat="45.65162" lon="6.87178">
        <ele>2249.4</ele>
        <time>2016-05-06T09:58:03Z</time>
      </trkpt>
      <trkpt lat="45.65163" lon="6.87178">
        <ele>2249.7</ele>
        <time>2016-05-06T09:58:05Z</time>
      </trkpt>
      <trkpt lat="45.65164" lon="6.87177">
        <ele>2249.9</ele>
        <time>2016-05-06T09:58:07Z</time>
      </trkpt>
      <trkpt lat="45.65164" lon="6.87177">
        <ele>2250.1</ele>
        <time>2016-05-06T09:58:09Z</time>
      </trkpt>
      <trkpt lat="45.65165" lon="6.87176">
        <ele>2250.3</ele>
        <time>2016-05-06T09:58:11Z</time>
      </trkpt>
      <trkpt lat="45.65165" lon="6.87176">
        <ele>2250.7</ele>
        <time>2016-05-06T09:58:13Z</time>
      </trkpt>
      <trkpt lat="45.65166" lon="6.87175">
        <ele>2251.1</ele>
        <time>2016-05-06T09:58:15Z</time>
      </trkpt>
      <trkpt lat="45.65167" lon="6.87175">
        <ele>2251.5</ele>
        <time>2016-05-06T09:58:17Z</time>
      </trkpt>
      <trkpt lat="45.65167" lon="6.87175">
        <ele>2251.8</ele>
        <time>2016-05-06T09:58:19Z</time>
      </trkpt>
      <trkpt lat="45.65167" lon="6.87175">
        <ele>2252</ele>
        <time>2016-05-06T09:58:21Z</time>
      </trkpt>
      <trkpt lat="45.65166" lon="6.87174">
        <ele>2252.2</ele>
        <time>2016-05-06T09:58:23Z</time>
      </trkpt>
      <trkpt lat="45.65166" lon="6.87174">
        <ele>2252</ele>
        <time>2016-05-06T09:58:25Z</time>
      </trkpt>
      <trkpt lat="45.65166" lon="6.87174">
        <ele>2251.7</ele>
        <time>2016-05-06T09:58:27Z</time>
      </trkpt>
      <trkpt lat="45.65166" lon="6.87174">
        <ele>2251.5</ele>
        <time>2016-05-06T09:58:29Z</time>
      </trkpt>
      <trkpt lat="45.65166" lon="6.87174">
        <ele>2251.3</ele>
        <time>2016-05-06T09:58:31Z</time>
      </trkpt>
      <trkpt lat="45.65166" lon="6.87174">
        <ele>2251.5</ele>
        <time>2016-05-06T09:58:33Z</time>
      </trkpt>
      <trkpt lat="45.65167" lon="6.87174">
        <ele>2252</ele>
        <time>2016-05-06T09:58:35Z</time>
      </trkpt>
      <trkpt lat="45.65168" lon="6.87173">
        <ele>2252.5</ele>
        <time>2016-05-06T09:58:37Z</time>
      </trkpt>
      <trkpt lat="45.65169" lon="6.87173">
        <ele>2252.9</ele>
        <time>2016-05-06T09:58:39Z</time>
      </trkpt>
      <trkpt lat="45.6517" lon="6.87171">
        <ele>2253.4</ele>
        <time>2016-05-06T09:58:41Z</time>
      </trkpt>
      <trkpt lat="45.65171" lon="6.87171">
        <ele>2253.7</ele>
        <time>2016-05-06T09:58:43Z</time>
      </trkpt>
      <trkpt lat="45.65172" lon="6.8717">
        <ele>2254</ele>
        <time>2016-05-06T09:58:45Z</time>
      </trkpt>
      <trkpt lat="45.65173" lon="6.8717">
        <ele>2254.5</ele>
        <time>2016-05-06T09:58:47Z</time>
      </trkpt>
      <trkpt lat="45.65174" lon="6.87169">
        <ele>2254.8</ele>
        <time>2016-05-06T09:58:49Z</time>
      </trkpt>
      <trkpt lat="45.65175" lon="6.87168">
        <ele>2255</ele>
        <time>2016-05-06T09:58:51Z</time>
      </trkpt>
      <trkpt lat="45.65176" lon="6.87167">
        <ele>2255.4</ele>
        <time>2016-05-06T09:58:53Z</time>
      </trkpt>
      <trkpt lat="45.65177" lon="6.87166">
        <ele>2255.7</ele>
        <time>2016-05-06T09:58:55Z</time>
      </trkpt>
      <trkpt lat="45.65178" lon="6.87166">
        <ele>2256.1</ele>
        <time>2016-05-06T09:58:57Z</time>
      </trkpt>
      <trkpt lat="45.65179" lon="6.87165">
        <ele>2256.6</ele>
        <time>2016-05-06T09:58:59Z</time>
      </trkpt>
      <trkpt lat="45.6518" lon="6.87164">
        <ele>2257</ele>
        <time>2016-05-06T09:59:01Z</time>
      </trkpt>
      <trkpt lat="45.6518" lon="6.87164">
        <ele>2257.3</ele>
        <time>2016-05-06T09:59:03Z</time>
      </trkpt>
      <trkpt lat="45.65181" lon="6.87163">
        <ele>2257.6</ele>
        <time>2016-05-06T09:59:05Z</time>
      </trkpt>
      <trkpt lat="45.65181" lon="6.87162">
        <ele>2257.9</ele>
        <time>2016-05-06T09:59:07Z</time>
      </trkpt>
      <trkpt lat="45.65182" lon="6.87162">
        <ele>2258.5</ele>
        <time>2016-05-06T09:59:09Z</time>
      </trkpt>
      <trkpt lat="45.65182" lon="6.87161">
        <ele>2259</ele>
        <time>2016-05-06T09:59:11Z</time>
      </trkpt>
      <trkpt lat="45.65183" lon="6.87161">
        <ele>2259.1</ele>
        <time>2016-05-06T09:59:13Z</time>
      </trkpt>
      <trkpt lat="45.65183" lon="6.8716">
        <ele>2259.6</ele>
        <time>2016-05-06T09:59:15Z</time>
      </trkpt>
      <trkpt lat="45.65184" lon="6.8716">
        <ele>2260.1</ele>
        <time>2016-05-06T09:59:17Z</time>
      </trkpt>
      <trkpt lat="45.65184" lon="6.87159">
        <ele>2260.6</ele>
        <time>2016-05-06T09:59:19Z</time>
      </trkpt>
      <trkpt lat="45.65185" lon="6.87158">
        <ele>2261.3</ele>
        <time>2016-05-06T09:59:21Z</time>
      </trkpt>
      <trkpt lat="45.65185" lon="6.87158">
        <ele>2261.4</ele>
        <time>2016-05-06T09:59:23Z</time>
      </trkpt>
      <trkpt lat="45.65186" lon="6.87157">
        <ele>2261.6</ele>
        <time>2016-05-06T09:59:25Z</time>
      </trkpt>
      <trkpt lat="45.65186" lon="6.87156">
        <ele>2261.7</ele>
        <time>2016-05-06T09:59:27Z</time>
      </trkpt>
      <trkpt lat="45.65187" lon="6.87155">
        <ele>2261.8</ele>
        <time>2016-05-06T09:59:29Z</time>
      </trkpt>
      <trkpt lat="45.65187" lon="6.87154">
        <ele>2262.2</ele>
        <time>2016-05-06T09:59:31Z</time>
      </trkpt>
      <trkpt lat="45.65189" lon="6.87153">
        <ele>2262.7</ele>
        <time>2016-05-06T09:59:33Z</time>
      </trkpt>
      <trkpt lat="45.65189" lon="6.87152">
        <ele>2263.1</ele>
        <time>2016-05-06T09:59:35Z</time>
      </trkpt>
      <trkpt lat="45.6519" lon="6.87151">
        <ele>2263.6</ele>
        <time>2016-05-06T09:59:37Z</time>
      </trkpt>
      <trkpt lat="45.6519" lon="6.8715">
        <ele>2264.1</ele>
        <time>2016-05-06T09:59:39Z</time>
      </trkpt>
      <trkpt lat="45.65191" lon="6.87149">
        <ele>2264.4</ele>
        <time>2016-05-06T09:59:41Z</time>
      </trkpt>
      <trkpt lat="45.65191" lon="6.87148">
        <ele>2265</ele>
        <time>2016-05-06T09:59:43Z</time>
      </trkpt>
      <trkpt lat="45.65192" lon="6.87146">
        <ele>2265.5</ele>
        <time>2016-05-06T09:59:45Z</time>
      </trkpt>
      <trkpt lat="45.65192" lon="6.87145">
        <ele>2266.1</ele>
        <time>2016-05-06T09:59:47Z</time>
      </trkpt>
      <trkpt lat="45.65192" lon="6.87144">
        <ele>2266.1</ele>
        <time>2016-05-06T09:59:49Z</time>
      </trkpt>
      <trkpt lat="45.65193" lon="6.87143">
        <ele>2266.3</ele>
        <time>2016-05-06T09:59:51Z</time>
      </trkpt>
      <trkpt lat="45.65193" lon="6.87143">
        <ele>2266.2</ele>
        <time>2016-05-06T09:59:53Z</time>
      </trkpt>
      <trkpt lat="45.65194" lon="6.87142">
        <ele>2266.2</ele>
        <time>2016-05-06T09:59:55Z</time>
      </trkpt>
      <trkpt lat="45.65195" lon="6.87141">
        <ele>2266.5</ele>
        <time>2016-05-06T09:59:57Z</time>
      </trkpt>
      <trkpt lat="45.65196" lon="6.8714">
        <ele>2266.9</ele>
        <time>2016-05-06T09:59:59Z</time>
      </trkpt>
      <trkpt lat="45.65197" lon="6.87139">
        <ele>2267.3</ele>
        <time>2016-05-06T10:00:01Z</time>
      </trkpt>
      <trkpt lat="45.65198" lon="6.87138">
        <ele>2267.4</ele>
        <time>2016-05-06T10:00:03Z</time>
      </trkpt>
      <trkpt lat="45.65199" lon="6.87137">
        <ele>2267.6</ele>
        <time>2016-05-06T10:00:05Z</time>
      </trkpt>
      <trkpt lat="45.65199" lon="6.87137">
        <ele>2267.6</ele>
        <time>2016-05-06T10:00:07Z</time>
      </trkpt>
      <trkpt lat="45.652" lon="6.87137">
        <ele>2267.9</ele>
        <time>2016-05-06T10:00:09Z</time>
      </trkpt>
      <trkpt lat="45.65201" lon="6.87135">
        <ele>2268.2</ele>
        <time>2016-05-06T10:00:11Z</time>
      </trkpt>
      <trkpt lat="45.65202" lon="6.87135">
        <ele>2268.3</ele>
        <time>2016-05-06T10:00:13Z</time>
      </trkpt>
      <trkpt lat="45.65202" lon="6.87134">
        <ele>2268.4</ele>
        <time>2016-05-06T10:00:15Z</time>
      </trkpt>
      <trkpt lat="45.65203" lon="6.87133">
        <ele>2268.6</ele>
        <time>2016-05-06T10:00:17Z</time>
      </trkpt>
      <trkpt lat="45.65204" lon="6.87132">
        <ele>2268.7</ele>
        <time>2016-05-06T10:00:19Z</time>
      </trkpt>
      <trkpt lat="45.65206" lon="6.87131">
        <ele>2268.7</ele>
        <time>2016-05-06T10:00:21Z</time>
      </trkpt>
      <trkpt lat="45.65206" lon="6.87131">
        <ele>2268.8</ele>
        <time>2016-05-06T10:00:23Z</time>
      </trkpt>
      <trkpt lat="45.65206" lon="6.8713">
        <ele>2269</ele>
        <time>2016-05-06T10:00:25Z</time>
      </trkpt>
      <trkpt lat="45.65207" lon="6.87129">
        <ele>2269.2</ele>
        <time>2016-05-06T10:00:27Z</time>
      </trkpt>
      <trkpt lat="45.65208" lon="6.87128">
        <ele>2269.5</ele>
        <time>2016-05-06T10:00:29Z</time>
      </trkpt>
      <trkpt lat="45.65209" lon="6.87128">
        <ele>2269.9</ele>
        <time>2016-05-06T10:00:31Z</time>
      </trkpt>
      <trkpt lat="45.65209" lon="6.87127">
        <ele>2270</ele>
        <time>2016-05-06T10:00:33Z</time>
      </trkpt>
      <trkpt lat="45.6521" lon="6.87126">
        <ele>2270</ele>
        <time>2016-05-06T10:00:35Z</time>
      </trkpt>
      <trkpt lat="45.65211" lon="6.87126">
        <ele>2270.3</ele>
        <time>2016-05-06T10:00:37Z</time>
      </trkpt>
      <trkpt lat="45.65212" lon="6.87125">
        <ele>2270.3</ele>
        <time>2016-05-06T10:00:39Z</time>
      </trkpt>
      <trkpt lat="45.65213" lon="6.87123">
        <ele>2270.5</ele>
        <time>2016-05-06T10:00:41Z</time>
      </trkpt>
      <trkpt lat="45.65214" lon="6.87122">
        <ele>2271.1</ele>
        <time>2016-05-06T10:00:43Z</time>
      </trkpt>
      <trkpt lat="45.65215" lon="6.87122">
        <ele>2271.7</ele>
        <time>2016-05-06T10:00:45Z</time>
      </trkpt>
      <trkpt lat="45.65216" lon="6.87121">
        <ele>2271.5</ele>
        <time>2016-05-06T10:00:47Z</time>
      </trkpt>
      <trkpt lat="45.65217" lon="6.8712">
        <ele>2271.7</ele>
        <time>2016-05-06T10:00:49Z</time>
      </trkpt>
      <trkpt lat="45.65217" lon="6.87119">
        <ele>2271.8</ele>
        <time>2016-05-06T10:00:51Z</time>
      </trkpt>
      <trkpt lat="45.65218" lon="6.87118">
        <ele>2271.9</ele>
        <time>2016-05-06T10:00:53Z</time>
      </trkpt>
      <trkpt lat="45.65219" lon="6.87117">
        <ele>2272</ele>
        <time>2016-05-06T10:00:55Z</time>
      </trkpt>
      <trkpt lat="45.6522" lon="6.87116">
        <ele>2272.1</ele>
        <time>2016-05-06T10:00:57Z</time>
      </trkpt>
      <trkpt lat="45.65221" lon="6.87115">
        <ele>2272.6</ele>
        <time>2016-05-06T10:00:59Z</time>
      </trkpt>
      <trkpt lat="45.65221" lon="6.87114">
        <ele>2273</ele>
        <time>2016-05-06T10:01:01Z</time>
      </trkpt>
      <trkpt lat="45.65222" lon="6.87114">
        <ele>2273.3</ele>
        <time>2016-05-06T10:01:03Z</time>
      </trkpt>
      <trkpt lat="45.65222" lon="6.87113">
        <ele>2273.4</ele>
        <time>2016-05-06T10:01:05Z</time>
      </trkpt>
      <trkpt lat="45.65223" lon="6.87113">
        <ele>2273.5</ele>
        <time>2016-05-06T10:01:07Z</time>
      </trkpt>
      <trkpt lat="45.65223" lon="6.87112">
        <ele>2273.4</ele>
        <time>2016-05-06T10:01:09Z</time>
      </trkpt>
      <trkpt lat="45.65223" lon="6.87112">
        <ele>2273.6</ele>
        <time>2016-05-06T10:01:11Z</time>
      </trkpt>
      <trkpt lat="45.65222" lon="6.87112">
        <ele>2273.7</ele>
        <time>2016-05-06T10:01:13Z</time>
      </trkpt>
      <trkpt lat="45.65222" lon="6.87112">
        <ele>2273.5</ele>
        <time>2016-05-06T10:01:15Z</time>
      </trkpt>
      <trkpt lat="45.65222" lon="6.87112">
        <ele>2273.2</ele>
        <time>2016-05-06T10:01:17Z</time>
      </trkpt>
      <trkpt lat="45.65222" lon="6.87113">
        <ele>2273.1</ele>
        <time>2016-05-06T10:01:19Z</time>
      </trkpt>
      <trkpt lat="45.65222" lon="6.87114">
        <ele>2273</ele>
        <time>2016-05-06T10:01:21Z</time>
      </trkpt>
      <trkpt lat="45.65222" lon="6.87113">
        <ele>2273.4</ele>
        <time>2016-05-06T10:01:23Z</time>
      </trkpt>
      <trkpt lat="45.65222" lon="6.87112">
        <ele>2272.8</ele>
        <time>2016-05-06T10:01:25Z</time>
      </trkpt>
      <trkpt lat="45.65222" lon="6.87112">
        <ele>2273.1</ele>
        <time>2016-05-06T10:01:27Z</time>
      </trkpt>
      <trkpt lat="45.65223" lon="6.87112">
        <ele>2273.1</ele>
        <time>2016-05-06T10:01:29Z</time>
      </trkpt>
      <trkpt lat="45.65223" lon="6.87112">
        <ele>2273.2</ele>
        <time>2016-05-06T10:01:31Z</time>
      </trkpt>
      <trkpt lat="45.65223" lon="6.87111">
        <ele>2273.6</ele>
        <time>2016-05-06T10:01:33Z</time>
      </trkpt>
      <trkpt lat="45.65223" lon="6.87112">
        <ele>2273.9</ele>
        <time>2016-05-06T10:01:35Z</time>
      </trkpt>
      <trkpt lat="45.65223" lon="6.87112">
        <ele>2273.8</ele>
        <time>2016-05-06T10:01:37Z</time>
      </trkpt>
      <trkpt lat="45.65223" lon="6.87112">
        <ele>2273.8</ele>
        <time>2016-05-06T10:01:39Z</time>
      </trkpt>
      <trkpt lat="45.65223" lon="6.87112">
        <ele>2273.7</ele>
        <time>2016-05-06T10:01:41Z</time>
      </trkpt>
      <trkpt lat="45.65223" lon="6.87112">
        <ele>2273.6</ele>
        <time>2016-05-06T10:01:43Z</time>
      </trkpt>
      <trkpt lat="45.65223" lon="6.87112">
        <ele>2273.4</ele>
        <time>2016-05-06T10:01:45Z</time>
      </trkpt>
      <trkpt lat="45.65223" lon="6.87112">
        <ele>2273.4</ele>
        <time>2016-05-06T10:01:47Z</time>
      </trkpt>
      <trkpt lat="45.65223" lon="6.87113">
        <ele>2273.4</ele>
        <time>2016-05-06T10:01:49Z</time>
      </trkpt>
      <trkpt lat="45.65222" lon="6.87112">
        <ele>2273.2</ele>
        <time>2016-05-06T10:01:51Z</time>
      </trkpt>
      <trkpt lat="45.65222" lon="6.87112">
        <ele>2273</ele>
        <time>2016-05-06T10:01:53Z</time>
      </trkpt>
      <trkpt lat="45.65222" lon="6.87112">
        <ele>2272.8</ele>
        <time>2016-05-06T10:01:55Z</time>
      </trkpt>
      <trkpt lat="45.65222" lon="6.87113">
        <ele>2272.7</ele>
        <time>2016-05-06T10:01:57Z</time>
      </trkpt>
      <trkpt lat="45.65222" lon="6.87112">
        <ele>2272.8</ele>
        <time>2016-05-06T10:01:59Z</time>
      </trkpt>
      <trkpt lat="45.65222" lon="6.87112">
        <ele>2272.8</ele>
        <time>2016-05-06T10:02:01Z</time>
      </trkpt>
      <trkpt lat="45.65222" lon="6.87112">
        <ele>2272.8</ele>
        <time>2016-05-06T10:02:03Z</time>
      </trkpt>
      <trkpt lat="45.65222" lon="6.87112">
        <ele>2272.7</ele>
        <time>2016-05-06T10:02:05Z</time>
      </trkpt>
      <trkpt lat="45.65221" lon="6.87112">
        <ele>2272.6</ele>
        <time>2016-05-06T10:02:07Z</time>
      </trkpt>
      <trkpt lat="45.65221" lon="6.87112">
        <ele>2272.6</ele>
        <time>2016-05-06T10:02:09Z</time>
      </trkpt>
      <trkpt lat="45.65221" lon="6.87112">
        <ele>2272.7</ele>
        <time>2016-05-06T10:02:11Z</time>
      </trkpt>
      <trkpt lat="45.65221" lon="6.87112">
        <ele>2272.8</ele>
        <time>2016-05-06T10:02:13Z</time>
      </trkpt>
      <trkpt lat="45.65221" lon="6.87112">
        <ele>2272.6</ele>
        <time>2016-05-06T10:02:15Z</time>
      </trkpt>
      <trkpt lat="45.65221" lon="6.87112">
        <ele>2272.4</ele>
        <time>2016-05-06T10:02:17Z</time>
      </trkpt>
      <trkpt lat="45.65221" lon="6.87112">
        <ele>2272.5</ele>
        <time>2016-05-06T10:02:19Z</time>
      </trkpt>
      <trkpt lat="45.65221" lon="6.87112">
        <ele>2272.6</ele>
        <time>2016-05-06T10:02:21Z</time>
      </trkpt>
      <trkpt lat="45.6522" lon="6.87111">
        <ele>2272.4</ele>
        <time>2016-05-06T10:02:23Z</time>
      </trkpt>
      <trkpt lat="45.6522" lon="6.87111">
        <ele>2272.5</ele>
        <time>2016-05-06T10:02:25Z</time>
      </trkpt>
      <trkpt lat="45.65221" lon="6.87112">
        <ele>2272.8</ele>
        <time>2016-05-06T10:02:27Z</time>
      </trkpt>
      <trkpt lat="45.65221" lon="6.87112">
        <ele>2272.8</ele>
        <time>2016-05-06T10:02:29Z</time>
      </trkpt>
      <trkpt lat="45.65221" lon="6.87112">
        <ele>2272.8</ele>
        <time>2016-05-06T10:02:31Z</time>
      </trkpt>
      <trkpt lat="45.65221" lon="6.87112">
        <ele>2272.8</ele>
        <time>2016-05-06T10:02:33Z</time>
      </trkpt>
      <trkpt lat="45.65221" lon="6.87112">
        <ele>2272.9</ele>
        <time>2016-05-06T10:02:35Z</time>
      </trkpt>
      <trkpt lat="45.65221" lon="6.87112">
        <ele>2273</ele>
        <time>2016-05-06T10:02:37Z</time>
      </trkpt>
      <trkpt lat="45.6522" lon="6.87112">
        <ele>2273.2</ele>
        <time>2016-05-06T10:02:39Z</time>
      </trkpt>
      <trkpt lat="45.6522" lon="6.87112">
        <ele>2273.4</ele>
        <time>2016-05-06T10:02:41Z</time>
      </trkpt>
      <trkpt lat="45.6522" lon="6.87112">
        <ele>2273.4</ele>
        <time>2016-05-06T10:02:43Z</time>
      </trkpt>
      <trkpt lat="45.6522" lon="6.87112">
        <ele>2273.1</ele>
        <time>2016-05-06T10:02:45Z</time>
      </trkpt>
      <trkpt lat="45.6522" lon="6.87112">
        <ele>2272.9</ele>
        <time>2016-05-06T10:02:47Z</time>
      </trkpt>
      <trkpt lat="45.6522" lon="6.87112">
        <ele>2272.8</ele>
        <time>2016-05-06T10:02:49Z</time>
      </trkpt>
      <trkpt lat="45.6522" lon="6.87112">
        <ele>2272.7</ele>
        <time>2016-05-06T10:02:51Z</time>
      </trkpt>
      <trkpt lat="45.6522" lon="6.87112">
        <ele>2272.8</ele>
        <time>2016-05-06T10:02:53Z</time>
      </trkpt>
      <trkpt lat="45.6522" lon="6.87112">
        <ele>2273</ele>
        <time>2016-05-06T10:02:55Z</time>
      </trkpt>
      <trkpt lat="45.6522" lon="6.87112">
        <ele>2272.5</ele>
        <time>2016-05-06T10:02:57Z</time>
      </trkpt>
      <trkpt lat="45.6522" lon="6.87112">
        <ele>2272.1</ele>
        <time>2016-05-06T10:02:59Z</time>
      </trkpt>
      <trkpt lat="45.6522" lon="6.87112">
        <ele>2272</ele>
        <time>2016-05-06T10:03:01Z</time>
      </trkpt>
      <trkpt lat="45.6522" lon="6.87112">
        <ele>2272</ele>
        <time>2016-05-06T10:03:03Z</time>
      </trkpt>
      <trkpt lat="45.6522" lon="6.87113">
        <ele>2272</ele>
        <time>2016-05-06T10:03:05Z</time>
      </trkpt>
      <trkpt lat="45.6522" lon="6.87113">
        <ele>2272</ele>
        <time>2016-05-06T10:03:07Z</time>
      </trkpt>
      <trkpt lat="45.6522" lon="6.87113">
        <ele>2272.4</ele>
        <time>2016-05-06T10:03:09Z</time>
      </trkpt>
      <trkpt lat="45.65219" lon="6.87112">
        <ele>2272.6</ele>
        <time>2016-05-06T10:03:11Z</time>
      </trkpt>
      <trkpt lat="45.65219" lon="6.87112">
        <ele>2272.8</ele>
        <time>2016-05-06T10:03:13Z</time>
      </trkpt>
      <trkpt lat="45.65219" lon="6.87112">
        <ele>2272.9</ele>
        <time>2016-05-06T10:03:15Z</time>
      </trkpt>
      <trkpt lat="45.65221" lon="6.87111">
        <ele>2273.8</ele>
        <time>2016-05-06T10:03:17Z</time>
      </trkpt>
      <trkpt lat="45.65222" lon="6.8711">
        <ele>2274.3</ele>
        <time>2016-05-06T10:03:19Z</time>
      </trkpt>
      <trkpt lat="45.65223" lon="6.87109">
        <ele>2274.7</ele>
        <time>2016-05-06T10:03:21Z</time>
      </trkpt>
      <trkpt lat="45.65225" lon="6.87108">
        <ele>2275.2</ele>
        <time>2016-05-06T10:03:23Z</time>
      </trkpt>
      <trkpt lat="45.65226" lon="6.87107">
        <ele>2275.5</ele>
        <time>2016-05-06T10:03:25Z</time>
      </trkpt>
      <trkpt lat="45.65226" lon="6.87106">
        <ele>2275.6</ele>
        <time>2016-05-06T10:03:27Z</time>
      </trkpt>
      <trkpt lat="45.65227" lon="6.87106">
        <ele>2275.2</ele>
        <time>2016-05-06T10:03:29Z</time>
      </trkpt>
      <trkpt lat="45.65228" lon="6.87105">
        <ele>2274.9</ele>
        <time>2016-05-06T10:03:31Z</time>
      </trkpt>
      <trkpt lat="45.65228" lon="6.87103">
        <ele>2274.9</ele>
        <time>2016-05-06T10:03:33Z</time>
      </trkpt>
      <trkpt lat="45.6523" lon="6.87102">
        <ele>2275.1</ele>
        <time>2016-05-06T10:03:35Z</time>
      </trkpt>
      <trkpt lat="45.65231" lon="6.87101">
        <ele>2275.1</ele>
        <time>2016-05-06T10:03:37Z</time>
      </trkpt>
      <trkpt lat="45.65232" lon="6.871">
        <ele>2275.6</ele>
        <time>2016-05-06T10:03:39Z</time>
      </trkpt>
      <trkpt lat="45.65233" lon="6.871">
        <ele>2275.9</ele>
        <time>2016-05-06T10:03:41Z</time>
      </trkpt>
      <trkpt lat="45.65234" lon="6.87099">
        <ele>2276</ele>
        <time>2016-05-06T10:03:43Z</time>
      </trkpt>
      <trkpt lat="45.65235" lon="6.87098">
        <ele>2276.1</ele>
        <time>2016-05-06T10:03:45Z</time>
      </trkpt>
      <trkpt lat="45.65236" lon="6.87097">
        <ele>2276.1</ele>
        <time>2016-05-06T10:03:47Z</time>
      </trkpt>
      <trkpt lat="45.65237" lon="6.87096">
        <ele>2276.3</ele>
        <time>2016-05-06T10:03:49Z</time>
      </trkpt>
      <trkpt lat="45.65238" lon="6.87095">
        <ele>2276.4</ele>
        <time>2016-05-06T10:03:51Z</time>
      </trkpt>
      <trkpt lat="45.65238" lon="6.87094">
        <ele>2276.8</ele>
        <time>2016-05-06T10:03:53Z</time>
      </trkpt>
      <trkpt lat="45.65239" lon="6.87093">
        <ele>2277.2</ele>
        <time>2016-05-06T10:03:55Z</time>
      </trkpt>
      <trkpt lat="45.6524" lon="6.87092">
        <ele>2277.4</ele>
        <time>2016-05-06T10:03:57Z</time>
      </trkpt>
      <trkpt lat="45.65241" lon="6.8709">
        <ele>2277.6</ele>
        <time>2016-05-06T10:03:59Z</time>
      </trkpt>
      <trkpt lat="45.65242" lon="6.87089">
        <ele>2277.7</ele>
        <time>2016-05-06T10:04:01Z</time>
      </trkpt>
      <trkpt lat="45.65243" lon="6.87088">
        <ele>2277.9</ele>
        <time>2016-05-06T10:04:03Z</time>
      </trkpt>
      <trkpt lat="45.65244" lon="6.87086">
        <ele>2278.1</ele>
        <time>2016-05-06T10:04:05Z</time>
      </trkpt>
      <trkpt lat="45.65244" lon="6.87085">
        <ele>2278.4</ele>
        <time>2016-05-06T10:04:07Z</time>
      </trkpt>
      <trkpt lat="45.65245" lon="6.87084">
        <ele>2278.4</ele>
        <time>2016-05-06T10:04:09Z</time>
      </trkpt>
      <trkpt lat="45.65245" lon="6.87084">
        <ele>2278.3</ele>
        <time>2016-05-06T10:04:11Z</time>
      </trkpt>
      <trkpt lat="45.65246" lon="6.87083">
        <ele>2278.4</ele>
        <time>2016-05-06T10:04:13Z</time>
      </trkpt>
      <trkpt lat="45.65247" lon="6.87082">
        <ele>2278.6</ele>
        <time>2016-05-06T10:04:15Z</time>
      </trkpt>
      <trkpt lat="45.65247" lon="6.87081">
        <ele>2278.8</ele>
        <time>2016-05-06T10:04:17Z</time>
      </trkpt>
      <trkpt lat="45.65248" lon="6.8708">
        <ele>2279.2</ele>
        <time>2016-05-06T10:04:19Z</time>
      </trkpt>
      <trkpt lat="45.65249" lon="6.8708">
        <ele>2279.5</ele>
        <time>2016-05-06T10:04:21Z</time>
      </trkpt>
      <trkpt lat="45.65249" lon="6.87079">
        <ele>2279.8</ele>
        <time>2016-05-06T10:04:23Z</time>
      </trkpt>
      <trkpt lat="45.6525" lon="6.87078">
        <ele>2280.1</ele>
        <time>2016-05-06T10:04:25Z</time>
      </trkpt>
      <trkpt lat="45.6525" lon="6.87077">
        <ele>2280.3</ele>
        <time>2016-05-06T10:04:27Z</time>
      </trkpt>
      <trkpt lat="45.65251" lon="6.87075">
        <ele>2280.9</ele>
        <time>2016-05-06T10:04:29Z</time>
      </trkpt>
      <trkpt lat="45.65252" lon="6.87074">
        <ele>2281.3</ele>
        <time>2016-05-06T10:04:31Z</time>
      </trkpt>
      <trkpt lat="45.65252" lon="6.87073">
        <ele>2281.8</ele>
        <time>2016-05-06T10:04:33Z</time>
      </trkpt>
      <trkpt lat="45.65253" lon="6.87073">
        <ele>2282.2</ele>
        <time>2016-05-06T10:04:35Z</time>
      </trkpt>
      <trkpt lat="45.65254" lon="6.87072">
        <ele>2282.5</ele>
        <time>2016-05-06T10:04:37Z</time>
      </trkpt>
      <trkpt lat="45.65255" lon="6.87071">
        <ele>2282.6</ele>
        <time>2016-05-06T10:04:39Z</time>
      </trkpt>
      <trkpt lat="45.65256" lon="6.8707">
        <ele>2282.8</ele>
        <time>2016-05-06T10:04:41Z</time>
      </trkpt>
      <trkpt lat="45.65257" lon="6.87069">
        <ele>2283.1</ele>
        <time>2016-05-06T10:04:43Z</time>
      </trkpt>
      <trkpt lat="45.65258" lon="6.87068">
        <ele>2283.3</ele>
        <time>2016-05-06T10:04:45Z</time>
      </trkpt>
      <trkpt lat="45.65258" lon="6.87067">
        <ele>2283.4</ele>
        <time>2016-05-06T10:04:47Z</time>
      </trkpt>
      <trkpt lat="45.6526" lon="6.87066">
        <ele>2283.6</ele>
        <time>2016-05-06T10:04:49Z</time>
      </trkpt>
      <trkpt lat="45.65261" lon="6.87066">
        <ele>2284</ele>
        <time>2016-05-06T10:04:51Z</time>
      </trkpt>
      <trkpt lat="45.65262" lon="6.87065">
        <ele>2284.4</ele>
        <time>2016-05-06T10:04:53Z</time>
      </trkpt>
      <trkpt lat="45.65263" lon="6.87064">
        <ele>2284.6</ele>
        <time>2016-05-06T10:04:55Z</time>
      </trkpt>
      <trkpt lat="45.65265" lon="6.87063">
        <ele>2284.7</ele>
        <time>2016-05-06T10:04:57Z</time>
      </trkpt>
      <trkpt lat="45.65266" lon="6.87062">
        <ele>2284.7</ele>
        <time>2016-05-06T10:04:59Z</time>
      </trkpt>
      <trkpt lat="45.65267" lon="6.87061">
        <ele>2284.9</ele>
        <time>2016-05-06T10:05:01Z</time>
      </trkpt>
      <trkpt lat="45.65268" lon="6.87059">
        <ele>2285.2</ele>
        <time>2016-05-06T10:05:03Z</time>
      </trkpt>
      <trkpt lat="45.65269" lon="6.87058">
        <ele>2285.4</ele>
        <time>2016-05-06T10:05:05Z</time>
      </trkpt>
      <trkpt lat="45.6527" lon="6.87057">
        <ele>2285.6</ele>
        <time>2016-05-06T10:05:07Z</time>
      </trkpt>
      <trkpt lat="45.65271" lon="6.87057">
        <ele>2285.8</ele>
        <time>2016-05-06T10:05:09Z</time>
      </trkpt>
      <trkpt lat="45.65271" lon="6.87056">
        <ele>2285.9</ele>
        <time>2016-05-06T10:05:11Z</time>
      </trkpt>
      <trkpt lat="45.65272" lon="6.87056">
        <ele>2286.2</ele>
        <time>2016-05-06T10:05:13Z</time>
      </trkpt>
      <trkpt lat="45.65273" lon="6.87055">
        <ele>2286.4</ele>
        <time>2016-05-06T10:05:15Z</time>
      </trkpt>
      <trkpt lat="45.65274" lon="6.87054">
        <ele>2286.5</ele>
        <time>2016-05-06T10:05:17Z</time>
      </trkpt>
      <trkpt lat="45.65275" lon="6.87053">
        <ele>2286.8</ele>
        <time>2016-05-06T10:05:19Z</time>
      </trkpt>
      <trkpt lat="45.65276" lon="6.87052">
        <ele>2287</ele>
        <time>2016-05-06T10:05:21Z</time>
      </trkpt>
      <trkpt lat="45.65277" lon="6.87051">
        <ele>2287.1</ele>
        <time>2016-05-06T10:05:23Z</time>
      </trkpt>
      <trkpt lat="45.65278" lon="6.8705">
        <ele>2287.4</ele>
        <time>2016-05-06T10:05:25Z</time>
      </trkpt>
      <trkpt lat="45.65279" lon="6.87049">
        <ele>2287.5</ele>
        <time>2016-05-06T10:05:27Z</time>
      </trkpt>
      <trkpt lat="45.6528" lon="6.87048">
        <ele>2287.6</ele>
        <time>2016-05-06T10:05:29Z</time>
      </trkpt>
      <trkpt lat="45.65281" lon="6.87046">
        <ele>2287.8</ele>
        <time>2016-05-06T10:05:31Z</time>
      </trkpt>
      <trkpt lat="45.65282" lon="6.87046">
        <ele>2288.1</ele>
        <time>2016-05-06T10:05:33Z</time>
      </trkpt>
      <trkpt lat="45.65283" lon="6.87045">
        <ele>2288.4</ele>
        <time>2016-05-06T10:05:35Z</time>
      </trkpt>
      <trkpt lat="45.65283" lon="6.87044">
        <ele>2288.5</ele>
        <time>2016-05-06T10:05:37Z</time>
      </trkpt>
      <trkpt lat="45.65283" lon="6.87044">
        <ele>2288.8</ele>
        <time>2016-05-06T10:05:39Z</time>
      </trkpt>
      <trkpt lat="45.65284" lon="6.87043">
        <ele>2288.9</ele>
        <time>2016-05-06T10:05:41Z</time>
      </trkpt>
      <trkpt lat="45.65284" lon="6.87043">
        <ele>2288.9</ele>
        <time>2016-05-06T10:05:43Z</time>
      </trkpt>
      <trkpt lat="45.65285" lon="6.87043">
        <ele>2289</ele>
        <time>2016-05-06T10:05:45Z</time>
      </trkpt>
      <trkpt lat="45.65285" lon="6.87042">
        <ele>2289.3</ele>
        <time>2016-05-06T10:05:47Z</time>
      </trkpt>
      <trkpt lat="45.65286" lon="6.87041">
        <ele>2289.6</ele>
        <time>2016-05-06T10:05:49Z</time>
      </trkpt>
      <trkpt lat="45.65288" lon="6.87041">
        <ele>2290</ele>
        <time>2016-05-06T10:05:51Z</time>
      </trkpt>
      <trkpt lat="45.65289" lon="6.8704">
        <ele>2290.3</ele>
        <time>2016-05-06T10:05:53Z</time>
      </trkpt>
      <trkpt lat="45.6529" lon="6.8704">
        <ele>2290.9</ele>
        <time>2016-05-06T10:05:55Z</time>
      </trkpt>
      <trkpt lat="45.65291" lon="6.87039">
        <ele>2291.2</ele>
        <time>2016-05-06T10:05:57Z</time>
      </trkpt>
      <trkpt lat="45.65291" lon="6.87039">
        <ele>2291.4</ele>
        <time>2016-05-06T10:05:59Z</time>
      </trkpt>
      <trkpt lat="45.65292" lon="6.87038">
        <ele>2291.8</ele>
        <time>2016-05-06T10:06:01Z</time>
      </trkpt>
      <trkpt lat="45.65293" lon="6.87037">
        <ele>2292.2</ele>
        <time>2016-05-06T10:06:03Z</time>
      </trkpt>
      <trkpt lat="45.65294" lon="6.87036">
        <ele>2292.7</ele>
        <time>2016-05-06T10:06:05Z</time>
      </trkpt>
      <trkpt lat="45.65295" lon="6.87035">
        <ele>2292.6</ele>
        <time>2016-05-06T10:06:07Z</time>
      </trkpt>
      <trkpt lat="45.65296" lon="6.87034">
        <ele>2292.9</ele>
        <time>2016-05-06T10:06:09Z</time>
      </trkpt>
      <trkpt lat="45.65296" lon="6.87034">
        <ele>2293.1</ele>
        <time>2016-05-06T10:06:11Z</time>
      </trkpt>
      <trkpt lat="45.65297" lon="6.87033">
        <ele>2293.7</ele>
        <time>2016-05-06T10:06:13Z</time>
      </trkpt>
      <trkpt lat="45.65297" lon="6.87033">
        <ele>2294.1</ele>
        <time>2016-05-06T10:06:15Z</time>
      </trkpt>
      <trkpt lat="45.65298" lon="6.87032">
        <ele>2294.3</ele>
        <time>2016-05-06T10:06:17Z</time>
      </trkpt>
      <trkpt lat="45.65299" lon="6.87031">
        <ele>2294.5</ele>
        <time>2016-05-06T10:06:19Z</time>
      </trkpt>
      <trkpt lat="45.653" lon="6.8703">
        <ele>2294.7</ele>
        <time>2016-05-06T10:06:21Z</time>
      </trkpt>
      <trkpt lat="45.653" lon="6.8703">
        <ele>2295</ele>
        <time>2016-05-06T10:06:23Z</time>
      </trkpt>
      <trkpt lat="45.65301" lon="6.87029">
        <ele>2295.1</ele>
        <time>2016-05-06T10:06:25Z</time>
      </trkpt>
      <trkpt lat="45.65302" lon="6.87028">
        <ele>2295.7</ele>
        <time>2016-05-06T10:06:27Z</time>
      </trkpt>
      <trkpt lat="45.65303" lon="6.87027">
        <ele>2296</ele>
        <time>2016-05-06T10:06:29Z</time>
      </trkpt>
      <trkpt lat="45.65304" lon="6.87026">
        <ele>2296.2</ele>
        <time>2016-05-06T10:06:31Z</time>
      </trkpt>
      <trkpt lat="45.65305" lon="6.87025">
        <ele>2296.5</ele>
        <time>2016-05-06T10:06:33Z</time>
      </trkpt>
      <trkpt lat="45.65305" lon="6.87025">
        <ele>2296.8</ele>
        <time>2016-05-06T10:06:35Z</time>
      </trkpt>
      <trkpt lat="45.65306" lon="6.87024">
        <ele>2297</ele>
        <time>2016-05-06T10:06:37Z</time>
      </trkpt>
      <trkpt lat="45.65307" lon="6.87023">
        <ele>2297.3</ele>
        <time>2016-05-06T10:06:39Z</time>
      </trkpt>
      <trkpt lat="45.65308" lon="6.87023">
        <ele>2297.6</ele>
        <time>2016-05-06T10:06:41Z</time>
      </trkpt>
      <trkpt lat="45.65308" lon="6.87022">
        <ele>2297.6</ele>
        <time>2016-05-06T10:06:43Z</time>
      </trkpt>
      <trkpt lat="45.65309" lon="6.87022">
        <ele>2297.8</ele>
        <time>2016-05-06T10:06:45Z</time>
      </trkpt>
      <trkpt lat="45.65309" lon="6.87022">
        <ele>2297.8</ele>
        <time>2016-05-06T10:06:47Z</time>
      </trkpt>
      <trkpt lat="45.6531" lon="6.87021">
        <ele>2298.1</ele>
        <time>2016-05-06T10:06:49Z</time>
      </trkpt>
      <trkpt lat="45.6531" lon="6.87021">
        <ele>2298.1</ele>
        <time>2016-05-06T10:06:51Z</time>
      </trkpt>
      <trkpt lat="45.6531" lon="6.87021">
        <ele>2298.4</ele>
        <time>2016-05-06T10:06:53Z</time>
      </trkpt>
      <trkpt lat="45.65312" lon="6.8702">
        <ele>2298.6</ele>
        <time>2016-05-06T10:06:55Z</time>
      </trkpt>
      <trkpt lat="45.65312" lon="6.87019">
        <ele>2298.8</ele>
        <time>2016-05-06T10:06:57Z</time>
      </trkpt>
      <trkpt lat="45.65313" lon="6.87018">
        <ele>2299</ele>
        <time>2016-05-06T10:06:59Z</time>
      </trkpt>
      <trkpt lat="45.65313" lon="6.87018">
        <ele>2299.1</ele>
        <time>2016-05-06T10:07:01Z</time>
      </trkpt>
      <trkpt lat="45.65314" lon="6.87017">
        <ele>2299.1</ele>
        <time>2016-05-06T10:07:03Z</time>
      </trkpt>
      <trkpt lat="45.65315" lon="6.87017">
        <ele>2299.4</ele>
        <time>2016-05-06T10:07:05Z</time>
      </trkpt>
      <trkpt lat="45.65315" lon="6.87016">
        <ele>2299.9</ele>
        <time>2016-05-06T10:07:07Z</time>
      </trkpt>
      <trkpt lat="45.65316" lon="6.87015">
        <ele>2300.1</ele>
        <time>2016-05-06T10:07:09Z</time>
      </trkpt>
      <trkpt lat="45.65316" lon="6.87015">
        <ele>2301</ele>
        <time>2016-05-06T10:07:11Z</time>
      </trkpt>
      <trkpt lat="45.65316" lon="6.87015">
        <ele>2301.1</ele>
        <time>2016-05-06T10:07:13Z</time>
      </trkpt>
      <trkpt lat="45.65318" lon="6.87014">
        <ele>2301.4</ele>
        <time>2016-05-06T10:07:15Z</time>
      </trkpt>
      <trkpt lat="45.65319" lon="6.87014">
        <ele>2301.8</ele>
        <time>2016-05-06T10:07:17Z</time>
      </trkpt>
      <trkpt lat="45.6532" lon="6.87013">
        <ele>2301.8</ele>
        <time>2016-05-06T10:07:19Z</time>
      </trkpt>
      <trkpt lat="45.65321" lon="6.87012">
        <ele>2302.5</ele>
        <time>2016-05-06T10:07:21Z</time>
      </trkpt>
      <trkpt lat="45.65322" lon="6.87011">
        <ele>2302.7</ele>
        <time>2016-05-06T10:07:23Z</time>
      </trkpt>
      <trkpt lat="45.65323" lon="6.87011">
        <ele>2302.9</ele>
        <time>2016-05-06T10:07:25Z</time>
      </trkpt>
      <trkpt lat="45.65323" lon="6.87011">
        <ele>2303</ele>
        <time>2016-05-06T10:07:27Z</time>
      </trkpt>
      <trkpt lat="45.65324" lon="6.87011">
        <ele>2303</ele>
        <time>2016-05-06T10:07:29Z</time>
      </trkpt>
      <trkpt lat="45.65325" lon="6.87011">
        <ele>2303.1</ele>
        <time>2016-05-06T10:07:31Z</time>
      </trkpt>
      <trkpt lat="45.65326" lon="6.8701">
        <ele>2303.2</ele>
        <time>2016-05-06T10:07:33Z</time>
      </trkpt>
      <trkpt lat="45.65327" lon="6.8701">
        <ele>2303.4</ele>
        <time>2016-05-06T10:07:35Z</time>
      </trkpt>
      <trkpt lat="45.65328" lon="6.87009">
        <ele>2303.6</ele>
        <time>2016-05-06T10:07:37Z</time>
      </trkpt>
      <trkpt lat="45.65329" lon="6.87009">
        <ele>2303.9</ele>
        <time>2016-05-06T10:07:39Z</time>
      </trkpt>
      <trkpt lat="45.65329" lon="6.87009">
        <ele>2304.3</ele>
        <time>2016-05-06T10:07:41Z</time>
      </trkpt>
      <trkpt lat="45.6533" lon="6.87009">
        <ele>2305.4</ele>
        <time>2016-05-06T10:07:43Z</time>
      </trkpt>
      <trkpt lat="45.65331" lon="6.87008">
        <ele>2305.4</ele>
        <time>2016-05-06T10:07:45Z</time>
      </trkpt>
      <trkpt lat="45.65332" lon="6.87008">
        <ele>2305.4</ele>
        <time>2016-05-06T10:07:47Z</time>
      </trkpt>
      <trkpt lat="45.65333" lon="6.87007">
        <ele>2305.6</ele>
        <time>2016-05-06T10:07:49Z</time>
      </trkpt>
      <trkpt lat="45.65333" lon="6.87007">
        <ele>2305.5</ele>
        <time>2016-05-06T10:07:51Z</time>
      </trkpt>
      <trkpt lat="45.65334" lon="6.87007">
        <ele>2305.4</ele>
        <time>2016-05-06T10:07:53Z</time>
      </trkpt>
      <trkpt lat="45.65335" lon="6.87007">
        <ele>2305.4</ele>
        <time>2016-05-06T10:07:55Z</time>
      </trkpt>
      <trkpt lat="45.65336" lon="6.87006">
        <ele>2305.5</ele>
        <time>2016-05-06T10:07:57Z</time>
      </trkpt>
      <trkpt lat="45.65337" lon="6.87006">
        <ele>2305.8</ele>
        <time>2016-05-06T10:07:59Z</time>
      </trkpt>
      <trkpt lat="45.65339" lon="6.87006">
        <ele>2306</ele>
        <time>2016-05-06T10:08:01Z</time>
      </trkpt>
      <trkpt lat="45.6534" lon="6.87006">
        <ele>2306.1</ele>
        <time>2016-05-06T10:08:03Z</time>
      </trkpt>
      <trkpt lat="45.65341" lon="6.87006">
        <ele>2306.3</ele>
        <time>2016-05-06T10:08:05Z</time>
      </trkpt>
      <trkpt lat="45.65343" lon="6.87006">
        <ele>2306.6</ele>
        <time>2016-05-06T10:08:07Z</time>
      </trkpt>
      <trkpt lat="45.65344" lon="6.87006">
        <ele>2306.6</ele>
        <time>2016-05-06T10:08:09Z</time>
      </trkpt>
      <trkpt lat="45.65345" lon="6.87006">
        <ele>2306.7</ele>
        <time>2016-05-06T10:08:11Z</time>
      </trkpt>
      <trkpt lat="45.65347" lon="6.87006">
        <ele>2307.4</ele>
        <time>2016-05-06T10:08:13Z</time>
      </trkpt>
      <trkpt lat="45.65348" lon="6.87006">
        <ele>2308.4</ele>
        <time>2016-05-06T10:08:15Z</time>
      </trkpt>
      <trkpt lat="45.65349" lon="6.87006">
        <ele>2308.7</ele>
        <time>2016-05-06T10:08:17Z</time>
      </trkpt>
      <trkpt lat="45.6535" lon="6.87006">
        <ele>2309.4</ele>
        <time>2016-05-06T10:08:19Z</time>
      </trkpt>
      <trkpt lat="45.65351" lon="6.87005">
        <ele>2309.6</ele>
        <time>2016-05-06T10:08:21Z</time>
      </trkpt>
      <trkpt lat="45.65351" lon="6.87005">
        <ele>2309.7</ele>
        <time>2016-05-06T10:08:23Z</time>
      </trkpt>
      <trkpt lat="45.65352" lon="6.87006">
        <ele>2309.8</ele>
        <time>2016-05-06T10:08:25Z</time>
      </trkpt>
      <trkpt lat="45.65352" lon="6.87006">
        <ele>2310</ele>
        <time>2016-05-06T10:08:27Z</time>
      </trkpt>
      <trkpt lat="45.65353" lon="6.87006">
        <ele>2310</ele>
        <time>2016-05-06T10:08:29Z</time>
      </trkpt>
      <trkpt lat="45.65354" lon="6.87006">
        <ele>2309.9</ele>
        <time>2016-05-06T10:08:31Z</time>
      </trkpt>
      <trkpt lat="45.65356" lon="6.87007">
        <ele>2310.1</ele>
        <time>2016-05-06T10:08:33Z</time>
      </trkpt>
      <trkpt lat="45.65357" lon="6.87007">
        <ele>2310.5</ele>
        <time>2016-05-06T10:08:35Z</time>
      </trkpt>
      <trkpt lat="45.65357" lon="6.87007">
        <ele>2310.7</ele>
        <time>2016-05-06T10:08:37Z</time>
      </trkpt>
      <trkpt lat="45.65358" lon="6.87007">
        <ele>2310.6</ele>
        <time>2016-05-06T10:08:39Z</time>
      </trkpt>
      <trkpt lat="45.65359" lon="6.87006">
        <ele>2310.9</ele>
        <time>2016-05-06T10:08:41Z</time>
      </trkpt>
      <trkpt lat="45.65359" lon="6.87006">
        <ele>2310.8</ele>
        <time>2016-05-06T10:08:43Z</time>
      </trkpt>
      <trkpt lat="45.6536" lon="6.87007">
        <ele>2311</ele>
        <time>2016-05-06T10:08:45Z</time>
      </trkpt>
      <trkpt lat="45.65361" lon="6.87007">
        <ele>2311.2</ele>
        <time>2016-05-06T10:08:47Z</time>
      </trkpt>
      <trkpt lat="45.65362" lon="6.87008">
        <ele>2311.4</ele>
        <time>2016-05-06T10:08:49Z</time>
      </trkpt>
      <trkpt lat="45.65363" lon="6.87008">
        <ele>2311.7</ele>
        <time>2016-05-06T10:08:51Z</time>
      </trkpt>
      <trkpt lat="45.65364" lon="6.87009">
        <ele>2312</ele>
        <time>2016-05-06T10:08:53Z</time>
      </trkpt>
      <trkpt lat="45.65364" lon="6.87009">
        <ele>2312.6</ele>
        <time>2016-05-06T10:08:55Z</time>
      </trkpt>
      <trkpt lat="45.65365" lon="6.87009">
        <ele>2313.1</ele>
        <time>2016-05-06T10:08:57Z</time>
      </trkpt>
      <trkpt lat="45.65366" lon="6.87009">
        <ele>2313.5</ele>
        <time>2016-05-06T10:08:59Z</time>
      </trkpt>
      <trkpt lat="45.65366" lon="6.87009">
        <ele>2313.4</ele>
        <time>2016-05-06T10:09:01Z</time>
      </trkpt>
      <trkpt lat="45.65367" lon="6.8701">
        <ele>2313.4</ele>
        <time>2016-05-06T10:09:03Z</time>
      </trkpt>
      <trkpt lat="45.65367" lon="6.8701">
        <ele>2313.8</ele>
        <time>2016-05-06T10:09:05Z</time>
      </trkpt>
      <trkpt lat="45.65368" lon="6.8701">
        <ele>2314.3</ele>
        <time>2016-05-06T10:09:07Z</time>
      </trkpt>
      <trkpt lat="45.65368" lon="6.8701">
        <ele>2314.2</ele>
        <time>2016-05-06T10:09:09Z</time>
      </trkpt>
      <trkpt lat="45.6537" lon="6.87011">
        <ele>2314.3</ele>
        <time>2016-05-06T10:09:11Z</time>
      </trkpt>
      <trkpt lat="45.65371" lon="6.87012">
        <ele>2314.2</ele>
        <time>2016-05-06T10:09:13Z</time>
      </trkpt>
      <trkpt lat="45.65372" lon="6.87012">
        <ele>2314.5</ele>
        <time>2016-05-06T10:09:15Z</time>
      </trkpt>
      <trkpt lat="45.65373" lon="6.87013">
        <ele>2314.8</ele>
        <time>2016-05-06T10:09:17Z</time>
      </trkpt>
      <trkpt lat="45.65374" lon="6.87014">
        <ele>2315</ele>
        <time>2016-05-06T10:09:19Z</time>
      </trkpt>
      <trkpt lat="45.65375" lon="6.87014">
        <ele>2315.4</ele>
        <time>2016-05-06T10:09:21Z</time>
      </trkpt>
      <trkpt lat="45.65377" lon="6.87015">
        <ele>2315.6</ele>
        <time>2016-05-06T10:09:23Z</time>
      </trkpt>
      <trkpt lat="45.65378" lon="6.87015">
        <ele>2316.3</ele>
        <time>2016-05-06T10:09:25Z</time>
      </trkpt>
      <trkpt lat="45.65379" lon="6.87016">
        <ele>2316.6</ele>
        <time>2016-05-06T10:09:27Z</time>
      </trkpt>
      <trkpt lat="45.65379" lon="6.87016">
        <ele>2316.7</ele>
        <time>2016-05-06T10:09:29Z</time>
      </trkpt>
      <trkpt lat="45.6538" lon="6.87016">
        <ele>2316.7</ele>
        <time>2016-05-06T10:09:31Z</time>
      </trkpt>
      <trkpt lat="45.65381" lon="6.87017">
        <ele>2316.9</ele>
        <time>2016-05-06T10:09:33Z</time>
      </trkpt>
      <trkpt lat="45.65381" lon="6.87018">
        <ele>2317.1</ele>
        <time>2016-05-06T10:09:35Z</time>
      </trkpt>
      <trkpt lat="45.65382" lon="6.87019">
        <ele>2317.6</ele>
        <time>2016-05-06T10:09:37Z</time>
      </trkpt>
      <trkpt lat="45.65383" lon="6.8702">
        <ele>2317.7</ele>
        <time>2016-05-06T10:09:39Z</time>
      </trkpt>
      <trkpt lat="45.65383" lon="6.87021">
        <ele>2318.2</ele>
        <time>2016-05-06T10:09:41Z</time>
      </trkpt>
      <trkpt lat="45.65384" lon="6.87022">
        <ele>2319.8</ele>
        <time>2016-05-06T10:09:43Z</time>
      </trkpt>
      <trkpt lat="45.65385" lon="6.87023">
        <ele>2321.2</ele>
        <time>2016-05-06T10:09:45Z</time>
      </trkpt>
      <trkpt lat="45.65386" lon="6.87024">
        <ele>2321.3</ele>
        <time>2016-05-06T10:09:47Z</time>
      </trkpt>
      <trkpt lat="45.65387" lon="6.87025">
        <ele>2320.8</ele>
        <time>2016-05-06T10:09:49Z</time>
      </trkpt>
      <trkpt lat="45.65388" lon="6.87026">
        <ele>2320</ele>
        <time>2016-05-06T10:09:51Z</time>
      </trkpt>
      <trkpt lat="45.65388" lon="6.87027">
        <ele>2319.9</ele>
        <time>2016-05-06T10:09:53Z</time>
      </trkpt>
      <trkpt lat="45.65389" lon="6.87027">
        <ele>2320.4</ele>
        <time>2016-05-06T10:09:55Z</time>
      </trkpt>
      <trkpt lat="45.6539" lon="6.87029">
        <ele>2320.2</ele>
        <time>2016-05-06T10:09:57Z</time>
      </trkpt>
      <trkpt lat="45.65391" lon="6.87031">
        <ele>2319.8</ele>
        <time>2016-05-06T10:09:59Z</time>
      </trkpt>
      <trkpt lat="45.65392" lon="6.87032">
        <ele>2319.8</ele>
        <time>2016-05-06T10:10:01Z</time>
      </trkpt>
      <trkpt lat="45.65393" lon="6.87034">
        <ele>2320</ele>
        <time>2016-05-06T10:10:03Z</time>
      </trkpt>
      <trkpt lat="45.65395" lon="6.87035">
        <ele>2320.9</ele>
        <time>2016-05-06T10:10:05Z</time>
      </trkpt>
      <trkpt lat="45.65395" lon="6.87037">
        <ele>2321.4</ele>
        <time>2016-05-06T10:10:07Z</time>
      </trkpt>
      <trkpt lat="45.65397" lon="6.87038">
        <ele>2321</ele>
        <time>2016-05-06T10:10:09Z</time>
      </trkpt>
      <trkpt lat="45.65398" lon="6.8704">
        <ele>2320.8</ele>
        <time>2016-05-06T10:10:11Z</time>
      </trkpt>
      <trkpt lat="45.65399" lon="6.87042">
        <ele>2320.9</ele>
        <time>2016-05-06T10:10:13Z</time>
      </trkpt>
      <trkpt lat="45.654" lon="6.87043">
        <ele>2321.1</ele>
        <time>2016-05-06T10:10:15Z</time>
      </trkpt>
      <trkpt lat="45.65401" lon="6.87045">
        <ele>2321.8</ele>
        <time>2016-05-06T10:10:17Z</time>
      </trkpt>
      <trkpt lat="45.65402" lon="6.87046">
        <ele>2321.9</ele>
        <time>2016-05-06T10:10:19Z</time>
      </trkpt>
      <trkpt lat="45.65403" lon="6.87048">
        <ele>2322</ele>
        <time>2016-05-06T10:10:21Z</time>
      </trkpt>
      <trkpt lat="45.65404" lon="6.87049">
        <ele>2322</ele>
        <time>2016-05-06T10:10:23Z</time>
      </trkpt>
      <trkpt lat="45.65405" lon="6.87051">
        <ele>2322.3</ele>
        <time>2016-05-06T10:10:25Z</time>
      </trkpt>
      <trkpt lat="45.65406" lon="6.87053">
        <ele>2322.4</ele>
        <time>2016-05-06T10:10:27Z</time>
      </trkpt>
      <trkpt lat="45.65407" lon="6.87054">
        <ele>2322.5</ele>
        <time>2016-05-06T10:10:29Z</time>
      </trkpt>
      <trkpt lat="45.65408" lon="6.87056">
        <ele>2322.7</ele>
        <time>2016-05-06T10:10:31Z</time>
      </trkpt>
      <trkpt lat="45.65409" lon="6.87057">
        <ele>2322.4</ele>
        <time>2016-05-06T10:10:33Z</time>
      </trkpt>
      <trkpt lat="45.6541" lon="6.87058">
        <ele>2322.5</ele>
        <time>2016-05-06T10:10:35Z</time>
      </trkpt>
      <trkpt lat="45.6541" lon="6.87059">
        <ele>2322.1</ele>
        <time>2016-05-06T10:10:37Z</time>
      </trkpt>
      <trkpt lat="45.65411" lon="6.87061">
        <ele>2321.6</ele>
        <time>2016-05-06T10:10:39Z</time>
      </trkpt>
      <trkpt lat="45.65412" lon="6.87062">
        <ele>2321.5</ele>
        <time>2016-05-06T10:10:41Z</time>
      </trkpt>
      <trkpt lat="45.65413" lon="6.87064">
        <ele>2321.9</ele>
        <time>2016-05-06T10:10:43Z</time>
      </trkpt>
      <trkpt lat="45.65413" lon="6.87065">
        <ele>2322.2</ele>
        <time>2016-05-06T10:10:45Z</time>
      </trkpt>
      <trkpt lat="45.65414" lon="6.87067">
        <ele>2322.5</ele>
        <time>2016-05-06T10:10:47Z</time>
      </trkpt>
      <trkpt lat="45.65415" lon="6.87068">
        <ele>2322.4</ele>
        <time>2016-05-06T10:10:49Z</time>
      </trkpt>
      <trkpt lat="45.65416" lon="6.87069">
        <ele>2322.7</ele>
        <time>2016-05-06T10:10:51Z</time>
      </trkpt>
      <trkpt lat="45.65417" lon="6.87071">
        <ele>2322.8</ele>
        <time>2016-05-06T10:10:53Z</time>
      </trkpt>
      <trkpt lat="45.65418" lon="6.87072">
        <ele>2323.3</ele>
        <time>2016-05-06T10:10:55Z</time>
      </trkpt>
      <trkpt lat="45.65418" lon="6.87074">
        <ele>2323.1</ele>
        <time>2016-05-06T10:10:57Z</time>
      </trkpt>
      <trkpt lat="45.65419" lon="6.87075">
        <ele>2323</ele>
        <time>2016-05-06T10:10:59Z</time>
      </trkpt>
      <trkpt lat="45.6542" lon="6.87076">
        <ele>2323.6</ele>
        <time>2016-05-06T10:11:01Z</time>
      </trkpt>
      <trkpt lat="45.65421" lon="6.87078">
        <ele>2324.1</ele>
        <time>2016-05-06T10:11:03Z</time>
      </trkpt>
      <trkpt lat="45.65422" lon="6.87078">
        <ele>2324.3</ele>
        <time>2016-05-06T10:11:05Z</time>
      </trkpt>
      <trkpt lat="45.65423" lon="6.8708">
        <ele>2324.5</ele>
        <time>2016-05-06T10:11:07Z</time>
      </trkpt>
      <trkpt lat="45.65423" lon="6.87082">
        <ele>2324.6</ele>
        <time>2016-05-06T10:11:09Z</time>
      </trkpt>
      <trkpt lat="45.65424" lon="6.87083">
        <ele>2324.9</ele>
        <time>2016-05-06T10:11:11Z</time>
      </trkpt>
      <trkpt lat="45.65425" lon="6.87085">
        <ele>2325.2</ele>
        <time>2016-05-06T10:11:13Z</time>
      </trkpt>
      <trkpt lat="45.65426" lon="6.87086">
        <ele>2325.4</ele>
        <time>2016-05-06T10:11:15Z</time>
      </trkpt>
      <trkpt lat="45.65427" lon="6.87087">
        <ele>2325.4</ele>
        <time>2016-05-06T10:11:17Z</time>
      </trkpt>
      <trkpt lat="45.65428" lon="6.87089">
        <ele>2325.6</ele>
        <time>2016-05-06T10:11:19Z</time>
      </trkpt>
      <trkpt lat="45.65429" lon="6.8709">
        <ele>2325.5</ele>
        <time>2016-05-06T10:11:21Z</time>
      </trkpt>
      <trkpt lat="45.6543" lon="6.87092">
        <ele>2325.6</ele>
        <time>2016-05-06T10:11:23Z</time>
      </trkpt>
      <trkpt lat="45.6543" lon="6.87093">
        <ele>2326</ele>
        <time>2016-05-06T10:11:25Z</time>
      </trkpt>
      <trkpt lat="45.65431" lon="6.87095">
        <ele>2326.5</ele>
        <time>2016-05-06T10:11:27Z</time>
      </trkpt>
      <trkpt lat="45.65432" lon="6.87096">
        <ele>2327.1</ele>
        <time>2016-05-06T10:11:29Z</time>
      </trkpt>
      <trkpt lat="45.65433" lon="6.87098">
        <ele>2327.6</ele>
        <time>2016-05-06T10:11:31Z</time>
      </trkpt>
      <trkpt lat="45.65434" lon="6.87099">
        <ele>2327.8</ele>
        <time>2016-05-06T10:11:33Z</time>
      </trkpt>
      <trkpt lat="45.65434" lon="6.87101">
        <ele>2328</ele>
        <time>2016-05-06T10:11:35Z</time>
      </trkpt>
      <trkpt lat="45.65435" lon="6.87102">
        <ele>2327.9</ele>
        <time>2016-05-06T10:11:37Z</time>
      </trkpt>
      <trkpt lat="45.65436" lon="6.87103">
        <ele>2327.7</ele>
        <time>2016-05-06T10:11:39Z</time>
      </trkpt>
      <trkpt lat="45.65437" lon="6.87105">
        <ele>2327.6</ele>
        <time>2016-05-06T10:11:41Z</time>
      </trkpt>
      <trkpt lat="45.65438" lon="6.87105">
        <ele>2327.5</ele>
        <time>2016-05-06T10:11:43Z</time>
      </trkpt>
      <trkpt lat="45.65439" lon="6.87107">
        <ele>2328.1</ele>
        <time>2016-05-06T10:11:45Z</time>
      </trkpt>
      <trkpt lat="45.6544" lon="6.87109">
        <ele>2328.6</ele>
        <time>2016-05-06T10:11:47Z</time>
      </trkpt>
      <trkpt lat="45.65441" lon="6.87111">
        <ele>2329.4</ele>
        <time>2016-05-06T10:11:49Z</time>
      </trkpt>
      <trkpt lat="45.65442" lon="6.87112">
        <ele>2329.9</ele>
        <time>2016-05-06T10:11:51Z</time>
      </trkpt>
      <trkpt lat="45.65443" lon="6.87113">
        <ele>2330</ele>
        <time>2016-05-06T10:11:53Z</time>
      </trkpt>
      <trkpt lat="45.65444" lon="6.87115">
        <ele>2330.1</ele>
        <time>2016-05-06T10:11:55Z</time>
      </trkpt>
      <trkpt lat="45.65445" lon="6.87116">
        <ele>2330.3</ele>
        <time>2016-05-06T10:11:57Z</time>
      </trkpt>
      <trkpt lat="45.65445" lon="6.87117">
        <ele>2330.5</ele>
        <time>2016-05-06T10:11:59Z</time>
      </trkpt>
      <trkpt lat="45.65446" lon="6.87118">
        <ele>2330.8</ele>
        <time>2016-05-06T10:12:01Z</time>
      </trkpt>
      <trkpt lat="45.65447" lon="6.87119">
        <ele>2331.1</ele>
        <time>2016-05-06T10:12:03Z</time>
      </trkpt>
      <trkpt lat="45.65448" lon="6.8712">
        <ele>2331.5</ele>
        <time>2016-05-06T10:12:05Z</time>
      </trkpt>
      <trkpt lat="45.65448" lon="6.87122">
        <ele>2331.8</ele>
        <time>2016-05-06T10:12:07Z</time>
      </trkpt>
      <trkpt lat="45.65449" lon="6.87124">
        <ele>2331.9</ele>
        <time>2016-05-06T10:12:09Z</time>
      </trkpt>
      <trkpt lat="45.6545" lon="6.87125">
        <ele>2332.1</ele>
        <time>2016-05-06T10:12:11Z</time>
      </trkpt>
      <trkpt lat="45.6545" lon="6.87126">
        <ele>2332.4</ele>
        <time>2016-05-06T10:12:13Z</time>
      </trkpt>
      <trkpt lat="45.65451" lon="6.87127">
        <ele>2332.6</ele>
        <time>2016-05-06T10:12:15Z</time>
      </trkpt>
      <trkpt lat="45.65452" lon="6.87128">
        <ele>2332.8</ele>
        <time>2016-05-06T10:12:17Z</time>
      </trkpt>
      <trkpt lat="45.65452" lon="6.87129">
        <ele>2333.4</ele>
        <time>2016-05-06T10:12:19Z</time>
      </trkpt>
      <trkpt lat="45.65453" lon="6.87131">
        <ele>2333.8</ele>
        <time>2016-05-06T10:12:21Z</time>
      </trkpt>
      <trkpt lat="45.65454" lon="6.87132">
        <ele>2334.1</ele>
        <time>2016-05-06T10:12:23Z</time>
      </trkpt>
      <trkpt lat="45.65455" lon="6.87133">
        <ele>2334.5</ele>
        <time>2016-05-06T10:12:25Z</time>
      </trkpt>
      <trkpt lat="45.65455" lon="6.87135">
        <ele>2334.9</ele>
        <time>2016-05-06T10:12:27Z</time>
      </trkpt>
      <trkpt lat="45.65456" lon="6.87136">
        <ele>2335.5</ele>
        <time>2016-05-06T10:12:29Z</time>
      </trkpt>
      <trkpt lat="45.65457" lon="6.87138">
        <ele>2336.5</ele>
        <time>2016-05-06T10:12:31Z</time>
      </trkpt>
      <trkpt lat="45.65458" lon="6.87139">
        <ele>2337</ele>
        <time>2016-05-06T10:12:33Z</time>
      </trkpt>
      <trkpt lat="45.65459" lon="6.87141">
        <ele>2337</ele>
        <time>2016-05-06T10:12:35Z</time>
      </trkpt>
      <trkpt lat="45.6546" lon="6.87142">
        <ele>2336.7</ele>
        <time>2016-05-06T10:12:37Z</time>
      </trkpt>
      <trkpt lat="45.65461" lon="6.87144">
        <ele>2336.7</ele>
        <time>2016-05-06T10:12:39Z</time>
      </trkpt>
      <trkpt lat="45.65462" lon="6.87145">
        <ele>2337.3</ele>
        <time>2016-05-06T10:12:41Z</time>
      </trkpt>
      <trkpt lat="45.65462" lon="6.87147">
        <ele>2338.5</ele>
        <time>2016-05-06T10:12:43Z</time>
      </trkpt>
      <trkpt lat="45.65463" lon="6.87149">
        <ele>2339</ele>
        <time>2016-05-06T10:12:45Z</time>
      </trkpt>
      <trkpt lat="45.65464" lon="6.8715">
        <ele>2338.9</ele>
        <time>2016-05-06T10:12:47Z</time>
      </trkpt>
      <trkpt lat="45.65465" lon="6.87152">
        <ele>2338.7</ele>
        <time>2016-05-06T10:12:49Z</time>
      </trkpt>
      <trkpt lat="45.65466" lon="6.87153">
        <ele>2338.3</ele>
        <time>2016-05-06T10:12:51Z</time>
      </trkpt>
      <trkpt lat="45.65467" lon="6.87154">
        <ele>2338.1</ele>
        <time>2016-05-06T10:12:53Z</time>
      </trkpt>
      <trkpt lat="45.65468" lon="6.87156">
        <ele>2338.2</ele>
        <time>2016-05-06T10:12:55Z</time>
      </trkpt>
      <trkpt lat="45.65469" lon="6.87158">
        <ele>2338.4</ele>
        <time>2016-05-06T10:12:57Z</time>
      </trkpt>
      <trkpt lat="45.6547" lon="6.87159">
        <ele>2338.7</ele>
        <time>2016-05-06T10:12:59Z</time>
      </trkpt>
      <trkpt lat="45.65471" lon="6.8716">
        <ele>2338.9</ele>
        <time>2016-05-06T10:13:01Z</time>
      </trkpt>
      <trkpt lat="45.65472" lon="6.87161">
        <ele>2339.1</ele>
        <time>2016-05-06T10:13:03Z</time>
      </trkpt>
      <trkpt lat="45.65472" lon="6.87163">
        <ele>2339.2</ele>
        <time>2016-05-06T10:13:05Z</time>
      </trkpt>
      <trkpt lat="45.65473" lon="6.87164">
        <ele>2339.2</ele>
        <time>2016-05-06T10:13:07Z</time>
      </trkpt>
      <trkpt lat="45.65474" lon="6.87166">
        <ele>2339.4</ele>
        <time>2016-05-06T10:13:09Z</time>
      </trkpt>
      <trkpt lat="45.65475" lon="6.87167">
        <ele>2339.7</ele>
        <time>2016-05-06T10:13:11Z</time>
      </trkpt>
      <trkpt lat="45.65475" lon="6.87168">
        <ele>2339.7</ele>
        <time>2016-05-06T10:13:13Z</time>
      </trkpt>
      <trkpt lat="45.65476" lon="6.8717">
        <ele>2339.5</ele>
        <time>2016-05-06T10:13:15Z</time>
      </trkpt>
      <trkpt lat="45.65477" lon="6.87171">
        <ele>2339.5</ele>
        <time>2016-05-06T10:13:17Z</time>
      </trkpt>
      <trkpt lat="45.65478" lon="6.87172">
        <ele>2339.7</ele>
        <time>2016-05-06T10:13:19Z</time>
      </trkpt>
      <trkpt lat="45.65478" lon="6.87174">
        <ele>2339.9</ele>
        <time>2016-05-06T10:13:21Z</time>
      </trkpt>
      <trkpt lat="45.65479" lon="6.87176">
        <ele>2340</ele>
        <time>2016-05-06T10:13:23Z</time>
      </trkpt>
      <trkpt lat="45.6548" lon="6.87178">
        <ele>2340</ele>
        <time>2016-05-06T10:13:25Z</time>
      </trkpt>
      <trkpt lat="45.65481" lon="6.87179">
        <ele>2340.2</ele>
        <time>2016-05-06T10:13:27Z</time>
      </trkpt>
      <trkpt lat="45.65481" lon="6.8718">
        <ele>2340.3</ele>
        <time>2016-05-06T10:13:29Z</time>
      </trkpt>
      <trkpt lat="45.65482" lon="6.87182">
        <ele>2340.5</ele>
        <time>2016-05-06T10:13:31Z</time>
      </trkpt>
      <trkpt lat="45.65483" lon="6.87183">
        <ele>2340.9</ele>
        <time>2016-05-06T10:13:33Z</time>
      </trkpt>
      <trkpt lat="45.65483" lon="6.87185">
        <ele>2341.4</ele>
        <time>2016-05-06T10:13:35Z</time>
      </trkpt>
      <trkpt lat="45.65484" lon="6.87186">
        <ele>2341.7</ele>
        <time>2016-05-06T10:13:37Z</time>
      </trkpt>
      <trkpt lat="45.65485" lon="6.87187">
        <ele>2341.6</ele>
        <time>2016-05-06T10:13:39Z</time>
      </trkpt>
      <trkpt lat="45.65486" lon="6.87188">
        <ele>2341.9</ele>
        <time>2016-05-06T10:13:41Z</time>
      </trkpt>
      <trkpt lat="45.65486" lon="6.87188">
        <ele>2342.4</ele>
        <time>2016-05-06T10:13:43Z</time>
      </trkpt>
      <trkpt lat="45.65486" lon="6.87189">
        <ele>2342.7</ele>
        <time>2016-05-06T10:13:45Z</time>
      </trkpt>
      <trkpt lat="45.65487" lon="6.8719">
        <ele>2342.6</ele>
        <time>2016-05-06T10:13:47Z</time>
      </trkpt>
      <trkpt lat="45.65487" lon="6.87192">
        <ele>2342.6</ele>
        <time>2016-05-06T10:13:49Z</time>
      </trkpt>
      <trkpt lat="45.65488" lon="6.87193">
        <ele>2343.2</ele>
        <time>2016-05-06T10:13:51Z</time>
      </trkpt>
      <trkpt lat="45.65488" lon="6.87194">
        <ele>2343.8</ele>
        <time>2016-05-06T10:13:53Z</time>
      </trkpt>
      <trkpt lat="45.65489" lon="6.87196">
        <ele>2344.7</ele>
        <time>2016-05-06T10:13:55Z</time>
      </trkpt>
      <trkpt lat="45.6549" lon="6.87198">
        <ele>2345.3</ele>
        <time>2016-05-06T10:13:57Z</time>
      </trkpt>
      <trkpt lat="45.65491" lon="6.87198">
        <ele>2345.5</ele>
        <time>2016-05-06T10:13:59Z</time>
      </trkpt>
      <trkpt lat="45.65491" lon="6.872">
        <ele>2344.9</ele>
        <time>2016-05-06T10:14:01Z</time>
      </trkpt>
      <trkpt lat="45.65492" lon="6.87201">
        <ele>2344.2</ele>
        <time>2016-05-06T10:14:03Z</time>
      </trkpt>
      <trkpt lat="45.65492" lon="6.87202">
        <ele>2343.6</ele>
        <time>2016-05-06T10:14:05Z</time>
      </trkpt>
      <trkpt lat="45.65493" lon="6.87203">
        <ele>2343.4</ele>
        <time>2016-05-06T10:14:07Z</time>
      </trkpt>
      <trkpt lat="45.65494" lon="6.87204">
        <ele>2343.4</ele>
        <time>2016-05-06T10:14:09Z</time>
      </trkpt>
      <trkpt lat="45.65494" lon="6.87205">
        <ele>2343.5</ele>
        <time>2016-05-06T10:14:11Z</time>
      </trkpt>
      <trkpt lat="45.65495" lon="6.87207">
        <ele>2343.8</ele>
        <time>2016-05-06T10:14:13Z</time>
      </trkpt>
      <trkpt lat="45.65496" lon="6.87208">
        <ele>2344.2</ele>
        <time>2016-05-06T10:14:15Z</time>
      </trkpt>
      <trkpt lat="45.65497" lon="6.87209">
        <ele>2344.8</ele>
        <time>2016-05-06T10:14:17Z</time>
      </trkpt>
      <trkpt lat="45.65498" lon="6.87211">
        <ele>2345.8</ele>
        <time>2016-05-06T10:14:19Z</time>
      </trkpt>
      <trkpt lat="45.65499" lon="6.87212">
        <ele>2345.9</ele>
        <time>2016-05-06T10:14:21Z</time>
      </trkpt>
      <trkpt lat="45.655" lon="6.87213">
        <ele>2345.9</ele>
        <time>2016-05-06T10:14:23Z</time>
      </trkpt>
      <trkpt lat="45.65501" lon="6.87214">
        <ele>2345.7</ele>
        <time>2016-05-06T10:14:25Z</time>
      </trkpt>
      <trkpt lat="45.65501" lon="6.87215">
        <ele>2345.4</ele>
        <time>2016-05-06T10:14:27Z</time>
      </trkpt>
      <trkpt lat="45.65502" lon="6.87216">
        <ele>2345.2</ele>
        <time>2016-05-06T10:14:29Z</time>
      </trkpt>
      <trkpt lat="45.65503" lon="6.87217">
        <ele>2345</ele>
        <time>2016-05-06T10:14:31Z</time>
      </trkpt>
      <trkpt lat="45.65504" lon="6.87218">
        <ele>2345.1</ele>
        <time>2016-05-06T10:14:33Z</time>
      </trkpt>
      <trkpt lat="45.65505" lon="6.87219">
        <ele>2345.4</ele>
        <time>2016-05-06T10:14:35Z</time>
      </trkpt>
      <trkpt lat="45.65506" lon="6.8722">
        <ele>2346</ele>
        <time>2016-05-06T10:14:37Z</time>
      </trkpt>
      <trkpt lat="45.65506" lon="6.87221">
        <ele>2346.2</ele>
        <time>2016-05-06T10:14:39Z</time>
      </trkpt>
      <trkpt lat="45.65507" lon="6.87221">
        <ele>2346.3</ele>
        <time>2016-05-06T10:14:41Z</time>
      </trkpt>
      <trkpt lat="45.65507" lon="6.87222">
        <ele>2346.9</ele>
        <time>2016-05-06T10:14:43Z</time>
      </trkpt>
      <trkpt lat="45.65509" lon="6.87222">
        <ele>2347.6</ele>
        <time>2016-05-06T10:14:45Z</time>
      </trkpt>
      <trkpt lat="45.65509" lon="6.87223">
        <ele>2348</ele>
        <time>2016-05-06T10:14:47Z</time>
      </trkpt>
      <trkpt lat="45.6551" lon="6.87224">
        <ele>2348.3</ele>
        <time>2016-05-06T10:14:49Z</time>
      </trkpt>
      <trkpt lat="45.65511" lon="6.87224">
        <ele>2348.4</ele>
        <time>2016-05-06T10:14:51Z</time>
      </trkpt>
      <trkpt lat="45.65512" lon="6.87224">
        <ele>2348.6</ele>
        <time>2016-05-06T10:14:53Z</time>
      </trkpt>
      <trkpt lat="45.65512" lon="6.87225">
        <ele>2348.9</ele>
        <time>2016-05-06T10:14:55Z</time>
      </trkpt>
      <trkpt lat="45.65513" lon="6.87225">
        <ele>2349.4</ele>
        <time>2016-05-06T10:14:57Z</time>
      </trkpt>
      <trkpt lat="45.65514" lon="6.87226">
        <ele>2349.8</ele>
        <time>2016-05-06T10:14:59Z</time>
      </trkpt>
      <trkpt lat="45.65515" lon="6.87226">
        <ele>2350.6</ele>
        <time>2016-05-06T10:15:01Z</time>
      </trkpt>
      <trkpt lat="45.65516" lon="6.87227">
        <ele>2351.1</ele>
        <time>2016-05-06T10:15:03Z</time>
      </trkpt>
      <trkpt lat="45.65517" lon="6.87228">
        <ele>2351.2</ele>
        <time>2016-05-06T10:15:05Z</time>
      </trkpt>
      <trkpt lat="45.65518" lon="6.87229">
        <ele>2351.4</ele>
        <time>2016-05-06T10:15:07Z</time>
      </trkpt>
      <trkpt lat="45.65519" lon="6.87229">
        <ele>2351.4</ele>
        <time>2016-05-06T10:15:09Z</time>
      </trkpt>
      <trkpt lat="45.6552" lon="6.8723">
        <ele>2351.5</ele>
        <time>2016-05-06T10:15:11Z</time>
      </trkpt>
      <trkpt lat="45.65522" lon="6.87231">
        <ele>2351.5</ele>
        <time>2016-05-06T10:15:13Z</time>
      </trkpt>
      <trkpt lat="45.65523" lon="6.87232">
        <ele>2351.6</ele>
        <time>2016-05-06T10:15:15Z</time>
      </trkpt>
      <trkpt lat="45.65524" lon="6.87233">
        <ele>2351.5</ele>
        <time>2016-05-06T10:15:17Z</time>
      </trkpt>
      <trkpt lat="45.65524" lon="6.87233">
        <ele>2351</ele>
        <time>2016-05-06T10:15:19Z</time>
      </trkpt>
      <trkpt lat="45.65525" lon="6.87233">
        <ele>2350.7</ele>
        <time>2016-05-06T10:15:21Z</time>
      </trkpt>
      <trkpt lat="45.65526" lon="6.87234">
        <ele>2350.8</ele>
        <time>2016-05-06T10:15:23Z</time>
      </trkpt>
      <trkpt lat="45.65527" lon="6.87235">
        <ele>2351.3</ele>
        <time>2016-05-06T10:15:25Z</time>
      </trkpt>
      <trkpt lat="45.65528" lon="6.87236">
        <ele>2351.8</ele>
        <time>2016-05-06T10:15:27Z</time>
      </trkpt>
      <trkpt lat="45.6553" lon="6.87236">
        <ele>2351.8</ele>
        <time>2016-05-06T10:15:29Z</time>
      </trkpt>
      <trkpt lat="45.65531" lon="6.87237">
        <ele>2351.5</ele>
        <time>2016-05-06T10:15:31Z</time>
      </trkpt>
      <trkpt lat="45.65532" lon="6.87237">
        <ele>2351.4</ele>
        <time>2016-05-06T10:15:33Z</time>
      </trkpt>
      <trkpt lat="45.65532" lon="6.87238">
        <ele>2351.1</ele>
        <time>2016-05-06T10:15:35Z</time>
      </trkpt>
      <trkpt lat="45.65534" lon="6.87238">
        <ele>2350.8</ele>
        <time>2016-05-06T10:15:37Z</time>
      </trkpt>
      <trkpt lat="45.65535" lon="6.87239">
        <ele>2350.9</ele>
        <time>2016-05-06T10:15:39Z</time>
      </trkpt>
      <trkpt lat="45.65535" lon="6.87239">
        <ele>2350.8</ele>
        <time>2016-05-06T10:15:41Z</time>
      </trkpt>
      <trkpt lat="45.65537" lon="6.87239">
        <ele>2351</ele>
        <time>2016-05-06T10:15:43Z</time>
      </trkpt>
      <trkpt lat="45.65538" lon="6.8724">
        <ele>2351.2</ele>
        <time>2016-05-06T10:15:45Z</time>
      </trkpt>
      <trkpt lat="45.6554" lon="6.87241">
        <ele>2351.4</ele>
        <time>2016-05-06T10:15:47Z</time>
      </trkpt>
      <trkpt lat="45.65541" lon="6.87242">
        <ele>2351.6</ele>
        <time>2016-05-06T10:15:49Z</time>
      </trkpt>
      <trkpt lat="45.65543" lon="6.87242">
        <ele>2351.7</ele>
        <time>2016-05-06T10:15:51Z</time>
      </trkpt>
      <trkpt lat="45.65544" lon="6.87243">
        <ele>2352.2</ele>
        <time>2016-05-06T10:15:53Z</time>
      </trkpt>
      <trkpt lat="45.65545" lon="6.87244">
        <ele>2352.2</ele>
        <time>2016-05-06T10:15:55Z</time>
      </trkpt>
      <trkpt lat="45.65546" lon="6.87244">
        <ele>2352.6</ele>
        <time>2016-05-06T10:15:57Z</time>
      </trkpt>
      <trkpt lat="45.65547" lon="6.87245">
        <ele>2352.8</ele>
        <time>2016-05-06T10:15:59Z</time>
      </trkpt>
      <trkpt lat="45.65548" lon="6.87246">
        <ele>2353.4</ele>
        <time>2016-05-06T10:16:01Z</time>
      </trkpt>
      <trkpt lat="45.6555" lon="6.87246">
        <ele>2353.5</ele>
        <time>2016-05-06T10:16:03Z</time>
      </trkpt>
      <trkpt lat="45.65551" lon="6.87247">
        <ele>2353.7</ele>
        <time>2016-05-06T10:16:05Z</time>
      </trkpt>
      <trkpt lat="45.65552" lon="6.87247">
        <ele>2353.7</ele>
        <time>2016-05-06T10:16:07Z</time>
      </trkpt>
      <trkpt lat="45.65553" lon="6.87248">
        <ele>2354.4</ele>
        <time>2016-05-06T10:16:09Z</time>
      </trkpt>
      <trkpt lat="45.65554" lon="6.87248">
        <ele>2354.3</ele>
        <time>2016-05-06T10:16:11Z</time>
      </trkpt>
      <trkpt lat="45.65555" lon="6.87249">
        <ele>2354.3</ele>
        <time>2016-05-06T10:16:13Z</time>
      </trkpt>
      <trkpt lat="45.65556" lon="6.87249">
        <ele>2354.4</ele>
        <time>2016-05-06T10:16:15Z</time>
      </trkpt>
      <trkpt lat="45.65557" lon="6.8725">
        <ele>2354.4</ele>
        <time>2016-05-06T10:16:17Z</time>
      </trkpt>
      <trkpt lat="45.65558" lon="6.8725">
        <ele>2354.7</ele>
        <time>2016-05-06T10:16:19Z</time>
      </trkpt>
      <trkpt lat="45.65559" lon="6.87251">
        <ele>2355</ele>
        <time>2016-05-06T10:16:21Z</time>
      </trkpt>
      <trkpt lat="45.6556" lon="6.87251">
        <ele>2355.3</ele>
        <time>2016-05-06T10:16:23Z</time>
      </trkpt>
      <trkpt lat="45.65561" lon="6.87252">
        <ele>2355.6</ele>
        <time>2016-05-06T10:16:25Z</time>
      </trkpt>
      <trkpt lat="45.65562" lon="6.87252">
        <ele>2355.8</ele>
        <time>2016-05-06T10:16:27Z</time>
      </trkpt>
      <trkpt lat="45.65563" lon="6.87253">
        <ele>2356.2</ele>
        <time>2016-05-06T10:16:29Z</time>
      </trkpt>
      <trkpt lat="45.65564" lon="6.87253">
        <ele>2356.7</ele>
        <time>2016-05-06T10:16:31Z</time>
      </trkpt>
      <trkpt lat="45.65565" lon="6.87254">
        <ele>2357.1</ele>
        <time>2016-05-06T10:16:33Z</time>
      </trkpt>
      <trkpt lat="45.65567" lon="6.87255">
        <ele>2357.5</ele>
        <time>2016-05-06T10:16:35Z</time>
      </trkpt>
      <trkpt lat="45.65568" lon="6.87256">
        <ele>2357.9</ele>
        <time>2016-05-06T10:16:37Z</time>
      </trkpt>
      <trkpt lat="45.65569" lon="6.87256">
        <ele>2358.7</ele>
        <time>2016-05-06T10:16:39Z</time>
      </trkpt>
      <trkpt lat="45.6557" lon="6.87257">
        <ele>2359.4</ele>
        <time>2016-05-06T10:16:41Z</time>
      </trkpt>
      <trkpt lat="45.65571" lon="6.87257">
        <ele>2359.9</ele>
        <time>2016-05-06T10:16:43Z</time>
      </trkpt>
      <trkpt lat="45.65572" lon="6.87258">
        <ele>2360.2</ele>
        <time>2016-05-06T10:16:45Z</time>
      </trkpt>
      <trkpt lat="45.65574" lon="6.87259">
        <ele>2360.7</ele>
        <time>2016-05-06T10:16:47Z</time>
      </trkpt>
      <trkpt lat="45.65575" lon="6.8726">
        <ele>2361</ele>
        <time>2016-05-06T10:16:49Z</time>
      </trkpt>
      <trkpt lat="45.65576" lon="6.87261">
        <ele>2361.3</ele>
        <time>2016-05-06T10:16:51Z</time>
      </trkpt>
      <trkpt lat="45.65577" lon="6.87262">
        <ele>2361.2</ele>
        <time>2016-05-06T10:16:53Z</time>
      </trkpt>
      <trkpt lat="45.65578" lon="6.87262">
        <ele>2361.4</ele>
        <time>2016-05-06T10:16:55Z</time>
      </trkpt>
      <trkpt lat="45.65579" lon="6.87263">
        <ele>2361.9</ele>
        <time>2016-05-06T10:16:57Z</time>
      </trkpt>
      <trkpt lat="45.6558" lon="6.87264">
        <ele>2363.4</ele>
        <time>2016-05-06T10:16:59Z</time>
      </trkpt>
      <trkpt lat="45.65581" lon="6.87264">
        <ele>2364.3</ele>
        <time>2016-05-06T10:17:01Z</time>
      </trkpt>
      <trkpt lat="45.65582" lon="6.87265">
        <ele>2364.5</ele>
        <time>2016-05-06T10:17:03Z</time>
      </trkpt>
      <trkpt lat="45.65584" lon="6.87266">
        <ele>2365</ele>
        <time>2016-05-06T10:17:05Z</time>
      </trkpt>
      <trkpt lat="45.65584" lon="6.87266">
        <ele>2364.8</ele>
        <time>2016-05-06T10:17:07Z</time>
      </trkpt>
      <trkpt lat="45.65585" lon="6.87266">
        <ele>2364.2</ele>
        <time>2016-05-06T10:17:09Z</time>
      </trkpt>
      <trkpt lat="45.65586" lon="6.87267">
        <ele>2364.2</ele>
        <time>2016-05-06T10:17:11Z</time>
      </trkpt>
      <trkpt lat="45.65588" lon="6.87269">
        <ele>2364</ele>
        <time>2016-05-06T10:17:13Z</time>
      </trkpt>
      <trkpt lat="45.65589" lon="6.8727">
        <ele>2364</ele>
        <time>2016-05-06T10:17:15Z</time>
      </trkpt>
      <trkpt lat="45.6559" lon="6.87271">
        <ele>2364.1</ele>
        <time>2016-05-06T10:17:17Z</time>
      </trkpt>
      <trkpt lat="45.65591" lon="6.87272">
        <ele>2364.3</ele>
        <time>2016-05-06T10:17:19Z</time>
      </trkpt>
      <trkpt lat="45.65592" lon="6.87273">
        <ele>2364.2</ele>
        <time>2016-05-06T10:17:21Z</time>
      </trkpt>
      <trkpt lat="45.65593" lon="6.87274">
        <ele>2364.3</ele>
        <time>2016-05-06T10:17:23Z</time>
      </trkpt>
      <trkpt lat="45.65594" lon="6.87275">
        <ele>2364.4</ele>
        <time>2016-05-06T10:17:25Z</time>
      </trkpt>
      <trkpt lat="45.65595" lon="6.87275">
        <ele>2364.7</ele>
        <time>2016-05-06T10:17:27Z</time>
      </trkpt>
      <trkpt lat="45.65596" lon="6.87276">
        <ele>2365</ele>
        <time>2016-05-06T10:17:29Z</time>
      </trkpt>
      <trkpt lat="45.65597" lon="6.87277">
        <ele>2365.1</ele>
        <time>2016-05-06T10:17:31Z</time>
      </trkpt>
      <trkpt lat="45.65598" lon="6.87278">
        <ele>2365.4</ele>
        <time>2016-05-06T10:17:33Z</time>
      </trkpt>
      <trkpt lat="45.65599" lon="6.87279">
        <ele>2365.7</ele>
        <time>2016-05-06T10:17:35Z</time>
      </trkpt>
      <trkpt lat="45.65599" lon="6.8728">
        <ele>2365.9</ele>
        <time>2016-05-06T10:17:37Z</time>
      </trkpt>
      <trkpt lat="45.656" lon="6.87281">
        <ele>2365.9</ele>
        <time>2016-05-06T10:17:39Z</time>
      </trkpt>
      <trkpt lat="45.656" lon="6.87282">
        <ele>2366.1</ele>
        <time>2016-05-06T10:17:41Z</time>
      </trkpt>
      <trkpt lat="45.65601" lon="6.87284">
        <ele>2366.5</ele>
        <time>2016-05-06T10:17:43Z</time>
      </trkpt>
      <trkpt lat="45.65602" lon="6.87285">
        <ele>2366.6</ele>
        <time>2016-05-06T10:17:45Z</time>
      </trkpt>
      <trkpt lat="45.65603" lon="6.87286">
        <ele>2366.7</ele>
        <time>2016-05-06T10:17:47Z</time>
      </trkpt>
      <trkpt lat="45.65604" lon="6.87288">
        <ele>2367.1</ele>
        <time>2016-05-06T10:17:49Z</time>
      </trkpt>
      <trkpt lat="45.65605" lon="6.8729">
        <ele>2367.3</ele>
        <time>2016-05-06T10:17:51Z</time>
      </trkpt>
      <trkpt lat="45.65606" lon="6.87291">
        <ele>2367.6</ele>
        <time>2016-05-06T10:17:53Z</time>
      </trkpt>
      <trkpt lat="45.65607" lon="6.87292">
        <ele>2367.9</ele>
        <time>2016-05-06T10:17:55Z</time>
      </trkpt>
      <trkpt lat="45.65607" lon="6.87293">
        <ele>2368.2</ele>
        <time>2016-05-06T10:17:57Z</time>
      </trkpt>
      <trkpt lat="45.65608" lon="6.87294">
        <ele>2368</ele>
        <time>2016-05-06T10:17:59Z</time>
      </trkpt>
      <trkpt lat="45.65608" lon="6.87295">
        <ele>2367.9</ele>
        <time>2016-05-06T10:18:01Z</time>
      </trkpt>
      <trkpt lat="45.65609" lon="6.87297">
        <ele>2368.1</ele>
        <time>2016-05-06T10:18:03Z</time>
      </trkpt>
      <trkpt lat="45.6561" lon="6.87299">
        <ele>2368.3</ele>
        <time>2016-05-06T10:18:05Z</time>
      </trkpt>
      <trkpt lat="45.65611" lon="6.873">
        <ele>2369</ele>
        <time>2016-05-06T10:18:07Z</time>
      </trkpt>
      <trkpt lat="45.65611" lon="6.87301">
        <ele>2369.7</ele>
        <time>2016-05-06T10:18:09Z</time>
      </trkpt>
      <trkpt lat="45.65612" lon="6.87303">
        <ele>2370.2</ele>
        <time>2016-05-06T10:18:11Z</time>
      </trkpt>
      <trkpt lat="45.65613" lon="6.87305">
        <ele>2370</ele>
        <time>2016-05-06T10:18:13Z</time>
      </trkpt>
      <trkpt lat="45.65613" lon="6.87307">
        <ele>2370</ele>
        <time>2016-05-06T10:18:15Z</time>
      </trkpt>
      <trkpt lat="45.65614" lon="6.87309">
        <ele>2370.1</ele>
        <time>2016-05-06T10:18:17Z</time>
      </trkpt>
      <trkpt lat="45.65614" lon="6.87311">
        <ele>2370.3</ele>
        <time>2016-05-06T10:18:19Z</time>
      </trkpt>
      <trkpt lat="45.65615" lon="6.87312">
        <ele>2370.5</ele>
        <time>2016-05-06T10:18:21Z</time>
      </trkpt>
      <trkpt lat="45.65615" lon="6.87313">
        <ele>2370.2</ele>
        <time>2016-05-06T10:18:23Z</time>
      </trkpt>
      <trkpt lat="45.65616" lon="6.87315">
        <ele>2370.8</ele>
        <time>2016-05-06T10:18:25Z</time>
      </trkpt>
      <trkpt lat="45.65616" lon="6.87317">
        <ele>2371</ele>
        <time>2016-05-06T10:18:27Z</time>
      </trkpt>
      <trkpt lat="45.65617" lon="6.87318">
        <ele>2370.5</ele>
        <time>2016-05-06T10:18:29Z</time>
      </trkpt>
      <trkpt lat="45.65617" lon="6.8732">
        <ele>2370.2</ele>
        <time>2016-05-06T10:18:31Z</time>
      </trkpt>
      <trkpt lat="45.65618" lon="6.87322">
        <ele>2370</ele>
        <time>2016-05-06T10:18:33Z</time>
      </trkpt>
      <trkpt lat="45.65619" lon="6.87323">
        <ele>2370.4</ele>
        <time>2016-05-06T10:18:35Z</time>
      </trkpt>
      <trkpt lat="45.6562" lon="6.87325">
        <ele>2370.7</ele>
        <time>2016-05-06T10:18:37Z</time>
      </trkpt>
      <trkpt lat="45.6562" lon="6.87327">
        <ele>2370.9</ele>
        <time>2016-05-06T10:18:39Z</time>
      </trkpt>
      <trkpt lat="45.65621" lon="6.87329">
        <ele>2371.2</ele>
        <time>2016-05-06T10:18:41Z</time>
      </trkpt>
      <trkpt lat="45.65622" lon="6.87331">
        <ele>2371.6</ele>
        <time>2016-05-06T10:18:43Z</time>
      </trkpt>
      <trkpt lat="45.65622" lon="6.87333">
        <ele>2372.5</ele>
        <time>2016-05-06T10:18:45Z</time>
      </trkpt>
      <trkpt lat="45.65623" lon="6.87334">
        <ele>2373</ele>
        <time>2016-05-06T10:18:47Z</time>
      </trkpt>
      <trkpt lat="45.65624" lon="6.87337">
        <ele>2372.9</ele>
        <time>2016-05-06T10:18:49Z</time>
      </trkpt>
      <trkpt lat="45.65625" lon="6.87339">
        <ele>2372.9</ele>
        <time>2016-05-06T10:18:51Z</time>
      </trkpt>
      <trkpt lat="45.65625" lon="6.8734">
        <ele>2372.9</ele>
        <time>2016-05-06T10:18:53Z</time>
      </trkpt>
      <trkpt lat="45.65626" lon="6.87342">
        <ele>2373.5</ele>
        <time>2016-05-06T10:18:55Z</time>
      </trkpt>
      <trkpt lat="45.65627" lon="6.87344">
        <ele>2373.8</ele>
        <time>2016-05-06T10:18:57Z</time>
      </trkpt>
      <trkpt lat="45.65628" lon="6.87346">
        <ele>2373.8</ele>
        <time>2016-05-06T10:18:59Z</time>
      </trkpt>
      <trkpt lat="45.65629" lon="6.87348">
        <ele>2373.6</ele>
        <time>2016-05-06T10:19:01Z</time>
      </trkpt>
      <trkpt lat="45.6563" lon="6.8735">
        <ele>2373.9</ele>
        <time>2016-05-06T10:19:03Z</time>
      </trkpt>
      <trkpt lat="45.6563" lon="6.87351">
        <ele>2373.8</ele>
        <time>2016-05-06T10:19:05Z</time>
      </trkpt>
      <trkpt lat="45.65631" lon="6.87352">
        <ele>2374.2</ele>
        <time>2016-05-06T10:19:07Z</time>
      </trkpt>
      <trkpt lat="45.65632" lon="6.87354">
        <ele>2374</ele>
        <time>2016-05-06T10:19:09Z</time>
      </trkpt>
      <trkpt lat="45.65633" lon="6.87356">
        <ele>2373.7</ele>
        <time>2016-05-06T10:19:11Z</time>
      </trkpt>
      <trkpt lat="45.65633" lon="6.87357">
        <ele>2373.5</ele>
        <time>2016-05-06T10:19:13Z</time>
      </trkpt>
      <trkpt lat="45.65635" lon="6.87359">
        <ele>2373.7</ele>
        <time>2016-05-06T10:19:15Z</time>
      </trkpt>
      <trkpt lat="45.65636" lon="6.87361">
        <ele>2374.1</ele>
        <time>2016-05-06T10:19:17Z</time>
      </trkpt>
      <trkpt lat="45.65637" lon="6.87363">
        <ele>2374.7</ele>
        <time>2016-05-06T10:19:19Z</time>
      </trkpt>
      <trkpt lat="45.65638" lon="6.87364">
        <ele>2375</ele>
        <time>2016-05-06T10:19:21Z</time>
      </trkpt>
      <trkpt lat="45.65638" lon="6.87366">
        <ele>2375.6</ele>
        <time>2016-05-06T10:19:23Z</time>
      </trkpt>
      <trkpt lat="45.65639" lon="6.87367">
        <ele>2375.9</ele>
        <time>2016-05-06T10:19:25Z</time>
      </trkpt>
      <trkpt lat="45.6564" lon="6.87369">
        <ele>2376</ele>
        <time>2016-05-06T10:19:27Z</time>
      </trkpt>
      <trkpt lat="45.65641" lon="6.8737">
        <ele>2376.4</ele>
        <time>2016-05-06T10:19:29Z</time>
      </trkpt>
      <trkpt lat="45.65642" lon="6.87371">
        <ele>2376.7</ele>
        <time>2016-05-06T10:19:31Z</time>
      </trkpt>
      <trkpt lat="45.65643" lon="6.87373">
        <ele>2377.3</ele>
        <time>2016-05-06T10:19:33Z</time>
      </trkpt>
      <trkpt lat="45.65644" lon="6.87374">
        <ele>2378.1</ele>
        <time>2016-05-06T10:19:35Z</time>
      </trkpt>
      <trkpt lat="45.65645" lon="6.87376">
        <ele>2378.5</ele>
        <time>2016-05-06T10:19:37Z</time>
      </trkpt>
      <trkpt lat="45.65646" lon="6.87377">
        <ele>2378.7</ele>
        <time>2016-05-06T10:19:39Z</time>
      </trkpt>
      <trkpt lat="45.65647" lon="6.87379">
        <ele>2378.9</ele>
        <time>2016-05-06T10:19:41Z</time>
      </trkpt>
      <trkpt lat="45.65647" lon="6.8738">
        <ele>2379.1</ele>
        <time>2016-05-06T10:19:43Z</time>
      </trkpt>
      <trkpt lat="45.65648" lon="6.87381">
        <ele>2379</ele>
        <time>2016-05-06T10:19:45Z</time>
      </trkpt>
      <trkpt lat="45.65649" lon="6.87382">
        <ele>2379.2</ele>
        <time>2016-05-06T10:19:47Z</time>
      </trkpt>
      <trkpt lat="45.6565" lon="6.87383">
        <ele>2379.4</ele>
        <time>2016-05-06T10:19:49Z</time>
      </trkpt>
      <trkpt lat="45.65651" lon="6.87385">
        <ele>2379.7</ele>
        <time>2016-05-06T10:19:51Z</time>
      </trkpt>
      <trkpt lat="45.65652" lon="6.87386">
        <ele>2380.1</ele>
        <time>2016-05-06T10:19:53Z</time>
      </trkpt>
      <trkpt lat="45.65653" lon="6.87387">
        <ele>2380.3</ele>
        <time>2016-05-06T10:19:55Z</time>
      </trkpt>
      <trkpt lat="45.65653" lon="6.87389">
        <ele>2380.6</ele>
        <time>2016-05-06T10:19:57Z</time>
      </trkpt>
      <trkpt lat="45.65654" lon="6.8739">
        <ele>2381.4</ele>
        <time>2016-05-06T10:19:59Z</time>
      </trkpt>
      <trkpt lat="45.65655" lon="6.87392">
        <ele>2381.5</ele>
        <time>2016-05-06T10:20:01Z</time>
      </trkpt>
      <trkpt lat="45.65656" lon="6.87393">
        <ele>2381.7</ele>
        <time>2016-05-06T10:20:03Z</time>
      </trkpt>
      <trkpt lat="45.65657" lon="6.87394">
        <ele>2382</ele>
        <time>2016-05-06T10:20:05Z</time>
      </trkpt>
      <trkpt lat="45.65657" lon="6.87396">
        <ele>2382.2</ele>
        <time>2016-05-06T10:20:07Z</time>
      </trkpt>
      <trkpt lat="45.65658" lon="6.87397">
        <ele>2382.2</ele>
        <time>2016-05-06T10:20:09Z</time>
      </trkpt>
      <trkpt lat="45.65659" lon="6.87399">
        <ele>2382.1</ele>
        <time>2016-05-06T10:20:11Z</time>
      </trkpt>
      <trkpt lat="45.6566" lon="6.87401">
        <ele>2381.9</ele>
        <time>2016-05-06T10:20:13Z</time>
      </trkpt>
      <trkpt lat="45.65661" lon="6.87402">
        <ele>2382</ele>
        <time>2016-05-06T10:20:15Z</time>
      </trkpt>
      <trkpt lat="45.65661" lon="6.87404">
        <ele>2382.3</ele>
        <time>2016-05-06T10:20:17Z</time>
      </trkpt>
      <trkpt lat="45.65662" lon="6.87405">
        <ele>2382.4</ele>
        <time>2016-05-06T10:20:19Z</time>
      </trkpt>
      <trkpt lat="45.65663" lon="6.87406">
        <ele>2382.7</ele>
        <time>2016-05-06T10:20:21Z</time>
      </trkpt>
      <trkpt lat="45.65663" lon="6.87408">
        <ele>2383</ele>
        <time>2016-05-06T10:20:23Z</time>
      </trkpt>
      <trkpt lat="45.65664" lon="6.8741">
        <ele>2383.2</ele>
        <time>2016-05-06T10:20:25Z</time>
      </trkpt>
      <trkpt lat="45.65664" lon="6.87411">
        <ele>2383.5</ele>
        <time>2016-05-06T10:20:27Z</time>
      </trkpt>
      <trkpt lat="45.65665" lon="6.87414">
        <ele>2383.7</ele>
        <time>2016-05-06T10:20:29Z</time>
      </trkpt>
      <trkpt lat="45.65666" lon="6.87416">
        <ele>2384.1</ele>
        <time>2016-05-06T10:20:31Z</time>
      </trkpt>
      <trkpt lat="45.65666" lon="6.87418">
        <ele>2384.2</ele>
        <time>2016-05-06T10:20:33Z</time>
      </trkpt>
      <trkpt lat="45.65667" lon="6.8742">
        <ele>2384.3</ele>
        <time>2016-05-06T10:20:35Z</time>
      </trkpt>
      <trkpt lat="45.65667" lon="6.87422">
        <ele>2384.3</ele>
        <time>2016-05-06T10:20:37Z</time>
      </trkpt>
      <trkpt lat="45.65668" lon="6.87424">
        <ele>2384.4</ele>
        <time>2016-05-06T10:20:39Z</time>
      </trkpt>
      <trkpt lat="45.65668" lon="6.87426">
        <ele>2384.7</ele>
        <time>2016-05-06T10:20:41Z</time>
      </trkpt>
      <trkpt lat="45.65668" lon="6.87427">
        <ele>2384.9</ele>
        <time>2016-05-06T10:20:43Z</time>
      </trkpt>
      <trkpt lat="45.65668" lon="6.87428">
        <ele>2385.2</ele>
        <time>2016-05-06T10:20:45Z</time>
      </trkpt>
      <trkpt lat="45.65668" lon="6.8743">
        <ele>2385.7</ele>
        <time>2016-05-06T10:20:47Z</time>
      </trkpt>
      <trkpt lat="45.65668" lon="6.87433">
        <ele>2385.7</ele>
        <time>2016-05-06T10:20:49Z</time>
      </trkpt>
      <trkpt lat="45.65668" lon="6.87435">
        <ele>2385.6</ele>
        <time>2016-05-06T10:20:51Z</time>
      </trkpt>
      <trkpt lat="45.65668" lon="6.87436">
        <ele>2385.6</ele>
        <time>2016-05-06T10:20:53Z</time>
      </trkpt>
      <trkpt lat="45.65669" lon="6.87437">
        <ele>2385.8</ele>
        <time>2016-05-06T10:20:55Z</time>
      </trkpt>
      <trkpt lat="45.65669" lon="6.87439">
        <ele>2386</ele>
        <time>2016-05-06T10:20:57Z</time>
      </trkpt>
      <trkpt lat="45.65668" lon="6.8744">
        <ele>2386.6</ele>
        <time>2016-05-06T10:20:59Z</time>
      </trkpt>
      <trkpt lat="45.65668" lon="6.87442">
        <ele>2387.2</ele>
        <time>2016-05-06T10:21:01Z</time>
      </trkpt>
      <trkpt lat="45.65668" lon="6.87444">
        <ele>2387.4</ele>
        <time>2016-05-06T10:21:03Z</time>
      </trkpt>
      <trkpt lat="45.65668" lon="6.87446">
        <ele>2387.1</ele>
        <time>2016-05-06T10:21:05Z</time>
      </trkpt>
      <trkpt lat="45.65668" lon="6.87448">
        <ele>2387</ele>
        <time>2016-05-06T10:21:07Z</time>
      </trkpt>
      <trkpt lat="45.65668" lon="6.87449">
        <ele>2386.8</ele>
        <time>2016-05-06T10:21:09Z</time>
      </trkpt>
      <trkpt lat="45.65667" lon="6.87451">
        <ele>2387.2</ele>
        <time>2016-05-06T10:21:11Z</time>
      </trkpt>
      <trkpt lat="45.65667" lon="6.87451">
        <ele>2387.7</ele>
        <time>2016-05-06T10:21:13Z</time>
      </trkpt>
      <trkpt lat="45.65668" lon="6.87451">
        <ele>2387.9</ele>
        <time>2016-05-06T10:21:15Z</time>
      </trkpt>
      <trkpt lat="45.65668" lon="6.8745">
        <ele>2387.4</ele>
        <time>2016-05-06T10:21:17Z</time>
      </trkpt>
      <trkpt lat="45.65668" lon="6.87451">
        <ele>2387.2</ele>
        <time>2016-05-06T10:21:19Z</time>
      </trkpt>
      <trkpt lat="45.65668" lon="6.87452">
        <ele>2387.4</ele>
        <time>2016-05-06T10:21:21Z</time>
      </trkpt>
      <trkpt lat="45.65668" lon="6.87454">
        <ele>2387.5</ele>
        <time>2016-05-06T10:21:23Z</time>
      </trkpt>
      <trkpt lat="45.65668" lon="6.87455">
        <ele>2387.4</ele>
        <time>2016-05-06T10:21:25Z</time>
      </trkpt>
      <trkpt lat="45.65668" lon="6.87457">
        <ele>2387.5</ele>
        <time>2016-05-06T10:21:27Z</time>
      </trkpt>
      <trkpt lat="45.65668" lon="6.87458">
        <ele>2388.2</ele>
        <time>2016-05-06T10:21:29Z</time>
      </trkpt>
      <trkpt lat="45.65667" lon="6.8746">
        <ele>2388.7</ele>
        <time>2016-05-06T10:21:31Z</time>
      </trkpt>
      <trkpt lat="45.65667" lon="6.87462">
        <ele>2389.1</ele>
        <time>2016-05-06T10:21:33Z</time>
      </trkpt>
      <trkpt lat="45.65667" lon="6.87464">
        <ele>2388.7</ele>
        <time>2016-05-06T10:21:35Z</time>
      </trkpt>
      <trkpt lat="45.65667" lon="6.87467">
        <ele>2388.9</ele>
        <time>2016-05-06T10:21:37Z</time>
      </trkpt>
      <trkpt lat="45.65666" lon="6.87469">
        <ele>2389.1</ele>
        <time>2016-05-06T10:21:39Z</time>
      </trkpt>
      <trkpt lat="45.65666" lon="6.87471">
        <ele>2389</ele>
        <time>2016-05-06T10:21:41Z</time>
      </trkpt>
      <trkpt lat="45.65666" lon="6.87474">
        <ele>2389</ele>
        <time>2016-05-06T10:21:43Z</time>
      </trkpt>
      <trkpt lat="45.65666" lon="6.87476">
        <ele>2389</ele>
        <time>2016-05-06T10:21:45Z</time>
      </trkpt>
      <trkpt lat="45.65666" lon="6.87479">
        <ele>2389.2</ele>
        <time>2016-05-06T10:21:47Z</time>
      </trkpt>
      <trkpt lat="45.65666" lon="6.87481">
        <ele>2389.6</ele>
        <time>2016-05-06T10:21:49Z</time>
      </trkpt>
      <trkpt lat="45.65666" lon="6.87483">
        <ele>2389.9</ele>
        <time>2016-05-06T10:21:51Z</time>
      </trkpt>
      <trkpt lat="45.65666" lon="6.87486">
        <ele>2389.9</ele>
        <time>2016-05-06T10:21:53Z</time>
      </trkpt>
      <trkpt lat="45.65666" lon="6.87489">
        <ele>2389.4</ele>
        <time>2016-05-06T10:21:55Z</time>
      </trkpt>
      <trkpt lat="45.65667" lon="6.87491">
        <ele>2389.6</ele>
        <time>2016-05-06T10:21:57Z</time>
      </trkpt>
      <trkpt lat="45.65667" lon="6.87493">
        <ele>2389.8</ele>
        <time>2016-05-06T10:21:59Z</time>
      </trkpt>
      <trkpt lat="45.65668" lon="6.87495">
        <ele>2389.7</ele>
        <time>2016-05-06T10:22:01Z</time>
      </trkpt>
      <trkpt lat="45.65669" lon="6.87498">
        <ele>2389.8</ele>
        <time>2016-05-06T10:22:03Z</time>
      </trkpt>
      <trkpt lat="45.6567" lon="6.87499">
        <ele>2390</ele>
        <time>2016-05-06T10:22:05Z</time>
      </trkpt>
      <trkpt lat="45.6567" lon="6.87501">
        <ele>2390.2</ele>
        <time>2016-05-06T10:22:07Z</time>
      </trkpt>
      <trkpt lat="45.65671" lon="6.87503">
        <ele>2390.3</ele>
        <time>2016-05-06T10:22:09Z</time>
      </trkpt>
      <trkpt lat="45.65672" lon="6.87505">
        <ele>2390.2</ele>
        <time>2016-05-06T10:22:11Z</time>
      </trkpt>
      <trkpt lat="45.65673" lon="6.87506">
        <ele>2390.3</ele>
        <time>2016-05-06T10:22:13Z</time>
      </trkpt>
      <trkpt lat="45.65674" lon="6.87508">
        <ele>2390.6</ele>
        <time>2016-05-06T10:22:15Z</time>
      </trkpt>
      <trkpt lat="45.65675" lon="6.8751">
        <ele>2390.9</ele>
        <time>2016-05-06T10:22:17Z</time>
      </trkpt>
      <trkpt lat="45.65676" lon="6.87511">
        <ele>2391</ele>
        <time>2016-05-06T10:22:19Z</time>
      </trkpt>
      <trkpt lat="45.65677" lon="6.87514">
        <ele>2391.2</ele>
        <time>2016-05-06T10:22:21Z</time>
      </trkpt>
      <trkpt lat="45.65678" lon="6.87515">
        <ele>2391.5</ele>
        <time>2016-05-06T10:22:23Z</time>
      </trkpt>
      <trkpt lat="45.65679" lon="6.87516">
        <ele>2391.7</ele>
        <time>2016-05-06T10:22:25Z</time>
      </trkpt>
      <trkpt lat="45.6568" lon="6.87518">
        <ele>2392.1</ele>
        <time>2016-05-06T10:22:27Z</time>
      </trkpt>
      <trkpt lat="45.65681" lon="6.87521">
        <ele>2392.3</ele>
        <time>2016-05-06T10:22:29Z</time>
      </trkpt>
      <trkpt lat="45.65682" lon="6.87522">
        <ele>2392.3</ele>
        <time>2016-05-06T10:22:31Z</time>
      </trkpt>
      <trkpt lat="45.65683" lon="6.87524">
        <ele>2392.3</ele>
        <time>2016-05-06T10:22:33Z</time>
      </trkpt>
      <trkpt lat="45.65684" lon="6.87526">
        <ele>2392.6</ele>
        <time>2016-05-06T10:22:35Z</time>
      </trkpt>
      <trkpt lat="45.65685" lon="6.87527">
        <ele>2392.8</ele>
        <time>2016-05-06T10:22:37Z</time>
      </trkpt>
      <trkpt lat="45.65686" lon="6.87529">
        <ele>2393.5</ele>
        <time>2016-05-06T10:22:39Z</time>
      </trkpt>
      <trkpt lat="45.65687" lon="6.8753">
        <ele>2393.8</ele>
        <time>2016-05-06T10:22:41Z</time>
      </trkpt>
      <trkpt lat="45.65688" lon="6.87532">
        <ele>2394.6</ele>
        <time>2016-05-06T10:22:43Z</time>
      </trkpt>
      <trkpt lat="45.65689" lon="6.87534">
        <ele>2394.7</ele>
        <time>2016-05-06T10:22:45Z</time>
      </trkpt>
      <trkpt lat="45.6569" lon="6.87535">
        <ele>2394.6</ele>
        <time>2016-05-06T10:22:47Z</time>
      </trkpt>
      <trkpt lat="45.65691" lon="6.87536">
        <ele>2394.6</ele>
        <time>2016-05-06T10:22:49Z</time>
      </trkpt>
      <trkpt lat="45.65692" lon="6.87537">
        <ele>2395.2</ele>
        <time>2016-05-06T10:22:51Z</time>
      </trkpt>
      <trkpt lat="45.65692" lon="6.87539">
        <ele>2395.4</ele>
        <time>2016-05-06T10:22:53Z</time>
      </trkpt>
      <trkpt lat="45.65693" lon="6.8754">
        <ele>2396.1</ele>
        <time>2016-05-06T10:22:55Z</time>
      </trkpt>
      <trkpt lat="45.65694" lon="6.87542">
        <ele>2396.2</ele>
        <time>2016-05-06T10:22:57Z</time>
      </trkpt>
      <trkpt lat="45.65695" lon="6.87543">
        <ele>2396.7</ele>
        <time>2016-05-06T10:22:59Z</time>
      </trkpt>
      <trkpt lat="45.65696" lon="6.87544">
        <ele>2397.4</ele>
        <time>2016-05-06T10:23:01Z</time>
      </trkpt>
      <trkpt lat="45.65697" lon="6.87545">
        <ele>2398.3</ele>
        <time>2016-05-06T10:23:03Z</time>
      </trkpt>
      <trkpt lat="45.65698" lon="6.87547">
        <ele>2398.7</ele>
        <time>2016-05-06T10:23:05Z</time>
      </trkpt>
      <trkpt lat="45.65699" lon="6.87548">
        <ele>2399.1</ele>
        <time>2016-05-06T10:23:07Z</time>
      </trkpt>
      <trkpt lat="45.657" lon="6.8755">
        <ele>2399.6</ele>
        <time>2016-05-06T10:23:09Z</time>
      </trkpt>
      <trkpt lat="45.657" lon="6.87551">
        <ele>2399.7</ele>
        <time>2016-05-06T10:23:11Z</time>
      </trkpt>
      <trkpt lat="45.65701" lon="6.87552">
        <ele>2400.1</ele>
        <time>2016-05-06T10:23:13Z</time>
      </trkpt>
      <trkpt lat="45.65702" lon="6.87554">
        <ele>2400.4</ele>
        <time>2016-05-06T10:23:15Z</time>
      </trkpt>
      <trkpt lat="45.65703" lon="6.87555">
        <ele>2399.1</ele>
        <time>2016-05-06T10:23:17Z</time>
      </trkpt>
      <trkpt lat="45.65704" lon="6.87556">
        <ele>2399</ele>
        <time>2016-05-06T10:23:19Z</time>
      </trkpt>
      <trkpt lat="45.65705" lon="6.87558">
        <ele>2399.5</ele>
        <time>2016-05-06T10:23:21Z</time>
      </trkpt>
      <trkpt lat="45.65706" lon="6.8756">
        <ele>2399.6</ele>
        <time>2016-05-06T10:23:23Z</time>
      </trkpt>
      <trkpt lat="45.65707" lon="6.87562">
        <ele>2398.7</ele>
        <time>2016-05-06T10:23:25Z</time>
      </trkpt>
      <trkpt lat="45.65708" lon="6.87563">
        <ele>2398</ele>
        <time>2016-05-06T10:23:27Z</time>
      </trkpt>
      <trkpt lat="45.65709" lon="6.87564">
        <ele>2397.7</ele>
        <time>2016-05-06T10:23:29Z</time>
      </trkpt>
      <trkpt lat="45.6571" lon="6.87566">
        <ele>2397.1</ele>
        <time>2016-05-06T10:23:31Z</time>
      </trkpt>
      <trkpt lat="45.65711" lon="6.87567">
        <ele>2396.4</ele>
        <time>2016-05-06T10:23:33Z</time>
      </trkpt>
      <trkpt lat="45.65712" lon="6.87569">
        <ele>2396.1</ele>
        <time>2016-05-06T10:23:35Z</time>
      </trkpt>
      <trkpt lat="45.65713" lon="6.87571">
        <ele>2396.2</ele>
        <time>2016-05-06T10:23:37Z</time>
      </trkpt>
      <trkpt lat="45.65714" lon="6.87572">
        <ele>2395.4</ele>
        <time>2016-05-06T10:23:39Z</time>
      </trkpt>
      <trkpt lat="45.65716" lon="6.87574">
        <ele>2395.7</ele>
        <time>2016-05-06T10:23:41Z</time>
      </trkpt>
      <trkpt lat="45.65717" lon="6.87575">
        <ele>2396.1</ele>
        <time>2016-05-06T10:23:43Z</time>
      </trkpt>
      <trkpt lat="45.65718" lon="6.87577">
        <ele>2397.1</ele>
        <time>2016-05-06T10:23:45Z</time>
      </trkpt>
      <trkpt lat="45.65719" lon="6.87579">
        <ele>2397.8</ele>
        <time>2016-05-06T10:23:47Z</time>
      </trkpt>
      <trkpt lat="45.6572" lon="6.8758">
        <ele>2397.5</ele>
        <time>2016-05-06T10:23:49Z</time>
      </trkpt>
      <trkpt lat="45.65722" lon="6.87582">
        <ele>2397.6</ele>
        <time>2016-05-06T10:23:51Z</time>
      </trkpt>
      <trkpt lat="45.65723" lon="6.87584">
        <ele>2397</ele>
        <time>2016-05-06T10:23:53Z</time>
      </trkpt>
      <trkpt lat="45.65724" lon="6.87587">
        <ele>2397.4</ele>
        <time>2016-05-06T10:23:55Z</time>
      </trkpt>
      <trkpt lat="45.65725" lon="6.87589">
        <ele>2397.9</ele>
        <time>2016-05-06T10:23:57Z</time>
      </trkpt>
      <trkpt lat="45.65727" lon="6.8759">
        <ele>2398.3</ele>
        <time>2016-05-06T10:23:59Z</time>
      </trkpt>
      <trkpt lat="45.65729" lon="6.8759">
        <ele>2398.5</ele>
        <time>2016-05-06T10:24:01Z</time>
      </trkpt>
      <trkpt lat="45.6573" lon="6.87591">
        <ele>2398.6</ele>
        <time>2016-05-06T10:24:03Z</time>
      </trkpt>
      <trkpt lat="45.65731" lon="6.87591">
        <ele>2398.2</ele>
        <time>2016-05-06T10:24:05Z</time>
      </trkpt>
      <trkpt lat="45.65732" lon="6.87593">
        <ele>2398</ele>
        <time>2016-05-06T10:24:07Z</time>
      </trkpt>
      <trkpt lat="45.65734" lon="6.87593">
        <ele>2398.6</ele>
        <time>2016-05-06T10:24:09Z</time>
      </trkpt>
      <trkpt lat="45.65735" lon="6.87594">
        <ele>2399.6</ele>
        <time>2016-05-06T10:24:11Z</time>
      </trkpt>
      <trkpt lat="45.65736" lon="6.87596">
        <ele>2400</ele>
        <time>2016-05-06T10:24:13Z</time>
      </trkpt>
      <trkpt lat="45.65738" lon="6.87598">
        <ele>2399.5</ele>
        <time>2016-05-06T10:24:15Z</time>
      </trkpt>
      <trkpt lat="45.65739" lon="6.87599">
        <ele>2400.6</ele>
        <time>2016-05-06T10:24:17Z</time>
      </trkpt>
      <trkpt lat="45.65741" lon="6.876">
        <ele>2401.4</ele>
        <time>2016-05-06T10:24:19Z</time>
      </trkpt>
      <trkpt lat="45.65742" lon="6.87602">
        <ele>2401.9</ele>
        <time>2016-05-06T10:24:21Z</time>
      </trkpt>
      <trkpt lat="45.65743" lon="6.87604">
        <ele>2402.2</ele>
        <time>2016-05-06T10:24:23Z</time>
      </trkpt>
      <trkpt lat="45.65743" lon="6.87604">
        <ele>2401.9</ele>
        <time>2016-05-06T10:24:25Z</time>
      </trkpt>
      <trkpt lat="45.65743" lon="6.87604">
        <ele>2401.7</ele>
        <time>2016-05-06T10:24:27Z</time>
      </trkpt>
      <trkpt lat="45.65743" lon="6.87604">
        <ele>2402.1</ele>
        <time>2016-05-06T10:24:29Z</time>
      </trkpt>
      <trkpt lat="45.65743" lon="6.87604">
        <ele>2402.5</ele>
        <time>2016-05-06T10:24:31Z</time>
      </trkpt>
      <trkpt lat="45.65743" lon="6.87604">
        <ele>2402.6</ele>
        <time>2016-05-06T10:24:33Z</time>
      </trkpt>
      <trkpt lat="45.65744" lon="6.87604">
        <ele>2401.8</ele>
        <time>2016-05-06T10:24:35Z</time>
      </trkpt>
      <trkpt lat="45.65744" lon="6.87604">
        <ele>2401.9</ele>
        <time>2016-05-06T10:24:37Z</time>
      </trkpt>
      <trkpt lat="45.65744" lon="6.87604">
        <ele>2402.2</ele>
        <time>2016-05-06T10:24:39Z</time>
      </trkpt>
      <trkpt lat="45.65744" lon="6.87605">
        <ele>2402.4</ele>
        <time>2016-05-06T10:24:41Z</time>
      </trkpt>
      <trkpt lat="45.65744" lon="6.87605">
        <ele>2402.2</ele>
        <time>2016-05-06T10:24:43Z</time>
      </trkpt>
      <trkpt lat="45.65744" lon="6.87606">
        <ele>2402.3</ele>
        <time>2016-05-06T10:24:45Z</time>
      </trkpt>
      <trkpt lat="45.65744" lon="6.87607">
        <ele>2401.9</ele>
        <time>2016-05-06T10:24:47Z</time>
      </trkpt>
      <trkpt lat="45.65744" lon="6.87608">
        <ele>2401.9</ele>
        <time>2016-05-06T10:24:49Z</time>
      </trkpt>
      <trkpt lat="45.65745" lon="6.87609">
        <ele>2401.7</ele>
        <time>2016-05-06T10:24:51Z</time>
      </trkpt>
      <trkpt lat="45.65746" lon="6.87609">
        <ele>2401.2</ele>
        <time>2016-05-06T10:24:53Z</time>
      </trkpt>
      <trkpt lat="45.65746" lon="6.87609">
        <ele>2401.1</ele>
        <time>2016-05-06T10:24:55Z</time>
      </trkpt>
      <trkpt lat="45.65745" lon="6.8761">
        <ele>2401.2</ele>
        <time>2016-05-06T10:24:57Z</time>
      </trkpt>
      <trkpt lat="45.65745" lon="6.8761">
        <ele>2401</ele>
        <time>2016-05-06T10:24:59Z</time>
      </trkpt>
      <trkpt lat="45.65746" lon="6.8761">
        <ele>2401.2</ele>
        <time>2016-05-06T10:25:01Z</time>
      </trkpt>
      <trkpt lat="45.65746" lon="6.8761">
        <ele>2401.4</ele>
        <time>2016-05-06T10:25:03Z</time>
      </trkpt>
      <trkpt lat="45.65746" lon="6.8761">
        <ele>2401.3</ele>
        <time>2016-05-06T10:25:05Z</time>
      </trkpt>
      <trkpt lat="45.65746" lon="6.8761">
        <ele>2401.8</ele>
        <time>2016-05-06T10:25:07Z</time>
      </trkpt>
      <trkpt lat="45.65745" lon="6.8761">
        <ele>2402.1</ele>
        <time>2016-05-06T10:25:09Z</time>
      </trkpt>
      <trkpt lat="45.65746" lon="6.8761">
        <ele>2401.7</ele>
        <time>2016-05-06T10:25:11Z</time>
      </trkpt>
      <trkpt lat="45.65745" lon="6.8761">
        <ele>2401.8</ele>
        <time>2016-05-06T10:25:13Z</time>
      </trkpt>
      <trkpt lat="45.65745" lon="6.87609">
        <ele>2401.7</ele>
        <time>2016-05-06T10:25:15Z</time>
      </trkpt>
      <trkpt lat="45.65744" lon="6.8761">
        <ele>2401.7</ele>
        <time>2016-05-06T10:25:17Z</time>
      </trkpt>
      <trkpt lat="45.65744" lon="6.87609">
        <ele>2401.7</ele>
        <time>2016-05-06T10:25:19Z</time>
      </trkpt>
      <trkpt lat="45.65744" lon="6.87609">
        <ele>2401.8</ele>
        <time>2016-05-06T10:25:21Z</time>
      </trkpt>
      <trkpt lat="45.65744" lon="6.87608">
        <ele>2401.8</ele>
        <time>2016-05-06T10:25:23Z</time>
      </trkpt>
      <trkpt lat="45.65744" lon="6.87608">
        <ele>2402</ele>
        <time>2016-05-06T10:25:25Z</time>
      </trkpt>
      <trkpt lat="45.65744" lon="6.87608">
        <ele>2401.9</ele>
        <time>2016-05-06T10:25:27Z</time>
      </trkpt>
      <trkpt lat="45.65743" lon="6.87608">
        <ele>2401.9</ele>
        <time>2016-05-06T10:25:29Z</time>
      </trkpt>
      <trkpt lat="45.65743" lon="6.87608">
        <ele>2402</ele>
        <time>2016-05-06T10:25:31Z</time>
      </trkpt>
      <trkpt lat="45.65742" lon="6.87608">
        <ele>2402.2</ele>
        <time>2016-05-06T10:25:33Z</time>
      </trkpt>
      <trkpt lat="45.65742" lon="6.87608">
        <ele>2401.9</ele>
        <time>2016-05-06T10:25:35Z</time>
      </trkpt>
      <trkpt lat="45.65742" lon="6.87608">
        <ele>2401.9</ele>
        <time>2016-05-06T10:25:37Z</time>
      </trkpt>
      <trkpt lat="45.65742" lon="6.87608">
        <ele>2401.8</ele>
        <time>2016-05-06T10:25:39Z</time>
      </trkpt>
      <trkpt lat="45.65742" lon="6.87608">
        <ele>2401.9</ele>
        <time>2016-05-06T10:25:41Z</time>
      </trkpt>
      <trkpt lat="45.65742" lon="6.87608">
        <ele>2402</ele>
        <time>2016-05-06T10:25:43Z</time>
      </trkpt>
      <trkpt lat="45.65741" lon="6.87608">
        <ele>2401.9</ele>
        <time>2016-05-06T10:25:45Z</time>
      </trkpt>
      <trkpt lat="45.65741" lon="6.87607">
        <ele>2401.5</ele>
        <time>2016-05-06T10:25:47Z</time>
      </trkpt>
      <trkpt lat="45.65741" lon="6.87607">
        <ele>2401.7</ele>
        <time>2016-05-06T10:25:49Z</time>
      </trkpt>
      <trkpt lat="45.65741" lon="6.87607">
        <ele>2401.9</ele>
        <time>2016-05-06T10:25:51Z</time>
      </trkpt>
      <trkpt lat="45.65741" lon="6.87607">
        <ele>2401.9</ele>
        <time>2016-05-06T10:25:53Z</time>
      </trkpt>
      <trkpt lat="45.65741" lon="6.87607">
        <ele>2401.9</ele>
        <time>2016-05-06T10:25:55Z</time>
      </trkpt>
      <trkpt lat="45.65741" lon="6.87607">
        <ele>2401.8</ele>
        <time>2016-05-06T10:25:57Z</time>
      </trkpt>
      <trkpt lat="45.65741" lon="6.87606">
        <ele>2401.8</ele>
        <time>2016-05-06T10:25:59Z</time>
      </trkpt>
      <trkpt lat="45.65741" lon="6.87606">
        <ele>2401.5</ele>
        <time>2016-05-06T10:26:01Z</time>
      </trkpt>
      <trkpt lat="45.65741" lon="6.87606">
        <ele>2401.5</ele>
        <time>2016-05-06T10:26:03Z</time>
      </trkpt>
      <trkpt lat="45.6574" lon="6.87606">
        <ele>2401.7</ele>
        <time>2016-05-06T10:26:05Z</time>
      </trkpt>
      <trkpt lat="45.6574" lon="6.87606">
        <ele>2401.5</ele>
        <time>2016-05-06T10:26:07Z</time>
      </trkpt>
      <trkpt lat="45.65741" lon="6.87606">
        <ele>2401.3</ele>
        <time>2016-05-06T10:26:09Z</time>
      </trkpt>
      <trkpt lat="45.65741" lon="6.87607">
        <ele>2401.4</ele>
        <time>2016-05-06T10:26:11Z</time>
      </trkpt>
      <trkpt lat="45.6574" lon="6.87607">
        <ele>2401.5</ele>
        <time>2016-05-06T10:26:13Z</time>
      </trkpt>
      <trkpt lat="45.6574" lon="6.87607">
        <ele>2401.7</ele>
        <time>2016-05-06T10:26:15Z</time>
      </trkpt>
      <trkpt lat="45.65741" lon="6.87607">
        <ele>2401.7</ele>
        <time>2016-05-06T10:26:17Z</time>
      </trkpt>
      <trkpt lat="45.65741" lon="6.87607">
        <ele>2401.6</ele>
        <time>2016-05-06T10:26:19Z</time>
      </trkpt>
      <trkpt lat="45.65742" lon="6.87607">
        <ele>2401.6</ele>
        <time>2016-05-06T10:26:21Z</time>
      </trkpt>
      <trkpt lat="45.65742" lon="6.87607">
        <ele>2401.4</ele>
        <time>2016-05-06T10:26:23Z</time>
      </trkpt>
      <trkpt lat="45.65742" lon="6.87607">
        <ele>2401.3</ele>
        <time>2016-05-06T10:26:25Z</time>
      </trkpt>
      <trkpt lat="45.65742" lon="6.87607">
        <ele>2401.4</ele>
        <time>2016-05-06T10:26:27Z</time>
      </trkpt>
      <trkpt lat="45.65743" lon="6.87607">
        <ele>2401.7</ele>
        <time>2016-05-06T10:26:29Z</time>
      </trkpt>
      <trkpt lat="45.65742" lon="6.87607">
        <ele>2401.9</ele>
        <time>2016-05-06T10:26:31Z</time>
      </trkpt>
      <trkpt lat="45.65742" lon="6.87607">
        <ele>2402</ele>
        <time>2016-05-06T10:26:33Z</time>
      </trkpt>
      <trkpt lat="45.65743" lon="6.87607">
        <ele>2402</ele>
        <time>2016-05-06T10:26:35Z</time>
      </trkpt>
      <trkpt lat="45.65743" lon="6.87607">
        <ele>2402.4</ele>
        <time>2016-05-06T10:26:37Z</time>
      </trkpt>
      <trkpt lat="45.65743" lon="6.87607">
        <ele>2402.2</ele>
        <time>2016-05-06T10:26:39Z</time>
      </trkpt>
      <trkpt lat="45.65743" lon="6.87607">
        <ele>2402.1</ele>
        <time>2016-05-06T10:26:41Z</time>
      </trkpt>
      <trkpt lat="45.65743" lon="6.87607">
        <ele>2402.1</ele>
        <time>2016-05-06T10:26:43Z</time>
      </trkpt>
      <trkpt lat="45.65743" lon="6.87607">
        <ele>2401.9</ele>
        <time>2016-05-06T10:26:45Z</time>
      </trkpt>
      <trkpt lat="45.65743" lon="6.87607">
        <ele>2402</ele>
        <time>2016-05-06T10:26:47Z</time>
      </trkpt>
      <trkpt lat="45.65742" lon="6.87607">
        <ele>2402</ele>
        <time>2016-05-06T10:26:49Z</time>
      </trkpt>
      <trkpt lat="45.65742" lon="6.87607">
        <ele>2401.9</ele>
        <time>2016-05-06T10:26:51Z</time>
      </trkpt>
      <trkpt lat="45.65742" lon="6.87607">
        <ele>2402</ele>
        <time>2016-05-06T10:26:53Z</time>
      </trkpt>
      <trkpt lat="45.65742" lon="6.87607">
        <ele>2402</ele>
        <time>2016-05-06T10:26:55Z</time>
      </trkpt>
      <trkpt lat="45.65741" lon="6.87607">
        <ele>2401.9</ele>
        <time>2016-05-06T10:26:57Z</time>
      </trkpt>
      <trkpt lat="45.65741" lon="6.87608">
        <ele>2401.8</ele>
        <time>2016-05-06T10:26:59Z</time>
      </trkpt>
      <trkpt lat="45.65741" lon="6.87608">
        <ele>2401.7</ele>
        <time>2016-05-06T10:27:01Z</time>
      </trkpt>
      <trkpt lat="45.65741" lon="6.87608">
        <ele>2401.8</ele>
        <time>2016-05-06T10:27:03Z</time>
      </trkpt>
      <trkpt lat="45.65741" lon="6.87608">
        <ele>2401.9</ele>
        <time>2016-05-06T10:27:05Z</time>
      </trkpt>
      <trkpt lat="45.65741" lon="6.87608">
        <ele>2402</ele>
        <time>2016-05-06T10:27:07Z</time>
      </trkpt>
      <trkpt lat="45.65741" lon="6.87608">
        <ele>2402</ele>
        <time>2016-05-06T10:27:09Z</time>
      </trkpt>
      <trkpt lat="45.65741" lon="6.87609">
        <ele>2401.8</ele>
        <time>2016-05-06T10:27:11Z</time>
      </trkpt>
      <trkpt lat="45.65742" lon="6.87609">
        <ele>2401.7</ele>
        <time>2016-05-06T10:27:13Z</time>
      </trkpt>
      <trkpt lat="45.65742" lon="6.8761">
        <ele>2401.3</ele>
        <time>2016-05-06T10:27:15Z</time>
      </trkpt>
      <trkpt lat="45.65742" lon="6.8761">
        <ele>2401.2</ele>
        <time>2016-05-06T10:27:17Z</time>
      </trkpt>
      <trkpt lat="45.65742" lon="6.8761">
        <ele>2401.3</ele>
        <time>2016-05-06T10:27:19Z</time>
      </trkpt>
      <trkpt lat="45.65742" lon="6.8761">
        <ele>2401.1</ele>
        <time>2016-05-06T10:27:21Z</time>
      </trkpt>
      <trkpt lat="45.65742" lon="6.8761">
        <ele>2401</ele>
        <time>2016-05-06T10:27:23Z</time>
      </trkpt>
      <trkpt lat="45.65742" lon="6.8761">
        <ele>2401</ele>
        <time>2016-05-06T10:27:25Z</time>
      </trkpt>
      <trkpt lat="45.65742" lon="6.8761">
        <ele>2401.4</ele>
        <time>2016-05-06T10:27:27Z</time>
      </trkpt>
      <trkpt lat="45.65742" lon="6.8761">
        <ele>2401.8</ele>
        <time>2016-05-06T10:27:29Z</time>
      </trkpt>
      <trkpt lat="45.65742" lon="6.8761">
        <ele>2402</ele>
        <time>2016-05-06T10:27:31Z</time>
      </trkpt>
      <trkpt lat="45.65742" lon="6.8761">
        <ele>2402</ele>
        <time>2016-05-06T10:27:33Z</time>
      </trkpt>
      <trkpt lat="45.65742" lon="6.8761">
        <ele>2401.7</ele>
        <time>2016-05-06T10:27:35Z</time>
      </trkpt>
      <trkpt lat="45.65742" lon="6.87611">
        <ele>2401.5</ele>
        <time>2016-05-06T10:27:37Z</time>
      </trkpt>
      <trkpt lat="45.65742" lon="6.87611">
        <ele>2401.4</ele>
        <time>2016-05-06T10:27:39Z</time>
      </trkpt>
      <trkpt lat="45.65742" lon="6.87611">
        <ele>2401.2</ele>
        <time>2016-05-06T10:27:41Z</time>
      </trkpt>
      <trkpt lat="45.65742" lon="6.87611">
        <ele>2401</ele>
        <time>2016-05-06T10:27:43Z</time>
      </trkpt>
      <trkpt lat="45.65742" lon="6.87611">
        <ele>2401</ele>
        <time>2016-05-06T10:27:45Z</time>
      </trkpt>
      <trkpt lat="45.65743" lon="6.87611">
        <ele>2401.1</ele>
        <time>2016-05-06T10:27:47Z</time>
      </trkpt>
      <trkpt lat="45.65743" lon="6.87611">
        <ele>2401.2</ele>
        <time>2016-05-06T10:27:49Z</time>
      </trkpt>
      <trkpt lat="45.65743" lon="6.87611">
        <ele>2401.4</ele>
        <time>2016-05-06T10:27:51Z</time>
      </trkpt>
      <trkpt lat="45.65743" lon="6.87611">
        <ele>2401.4</ele>
        <time>2016-05-06T10:27:53Z</time>
      </trkpt>
      <trkpt lat="45.65743" lon="6.87612">
        <ele>2401.1</ele>
        <time>2016-05-06T10:27:55Z</time>
      </trkpt>
      <trkpt lat="45.65743" lon="6.87612">
        <ele>2401.2</ele>
        <time>2016-05-06T10:27:57Z</time>
      </trkpt>
      <trkpt lat="45.65743" lon="6.87612">
        <ele>2401.2</ele>
        <time>2016-05-06T10:27:59Z</time>
      </trkpt>
      <trkpt lat="45.65743" lon="6.87612">
        <ele>2401.2</ele>
        <time>2016-05-06T10:28:01Z</time>
      </trkpt>
      <trkpt lat="45.65743" lon="6.87612">
        <ele>2401.1</ele>
        <time>2016-05-06T10:28:03Z</time>
      </trkpt>
      <trkpt lat="45.65743" lon="6.87612">
        <ele>2401</ele>
        <time>2016-05-06T10:28:05Z</time>
      </trkpt>
      <trkpt lat="45.65742" lon="6.87612">
        <ele>2401.1</ele>
        <time>2016-05-06T10:28:07Z</time>
      </trkpt>
      <trkpt lat="45.65742" lon="6.87612">
        <ele>2401.2</ele>
        <time>2016-05-06T10:28:09Z</time>
      </trkpt>
      <trkpt lat="45.65743" lon="6.87612">
        <ele>2401.3</ele>
        <time>2016-05-06T10:28:11Z</time>
      </trkpt>
      <trkpt lat="45.65742" lon="6.87612">
        <ele>2401.3</ele>
        <time>2016-05-06T10:28:13Z</time>
      </trkpt>
      <trkpt lat="45.65742" lon="6.87611">
        <ele>2401.3</ele>
        <time>2016-05-06T10:28:15Z</time>
      </trkpt>
      <trkpt lat="45.65743" lon="6.87611">
        <ele>2401.3</ele>
        <time>2016-05-06T10:28:17Z</time>
      </trkpt>
      <trkpt lat="45.65743" lon="6.87611">
        <ele>2401.3</ele>
        <time>2016-05-06T10:28:19Z</time>
      </trkpt>
      <trkpt lat="45.65743" lon="6.87611">
        <ele>2401.1</ele>
        <time>2016-05-06T10:28:21Z</time>
      </trkpt>
      <trkpt lat="45.65743" lon="6.87611">
        <ele>2401.1</ele>
        <time>2016-05-06T10:28:23Z</time>
      </trkpt>
      <trkpt lat="45.65743" lon="6.87611">
        <ele>2401.1</ele>
        <time>2016-05-06T10:28:25Z</time>
      </trkpt>
      <trkpt lat="45.65743" lon="6.87611">
        <ele>2401.1</ele>
        <time>2016-05-06T10:28:27Z</time>
      </trkpt>
      <trkpt lat="45.65743" lon="6.87611">
        <ele>2400.9</ele>
        <time>2016-05-06T10:28:29Z</time>
      </trkpt>
      <trkpt lat="45.65743" lon="6.87611">
        <ele>2400.8</ele>
        <time>2016-05-06T10:28:31Z</time>
      </trkpt>
      <trkpt lat="45.65743" lon="6.87611">
        <ele>2400.8</ele>
        <time>2016-05-06T10:28:33Z</time>
      </trkpt>
      <trkpt lat="45.65743" lon="6.87611">
        <ele>2400.7</ele>
        <time>2016-05-06T10:28:35Z</time>
      </trkpt>
      <trkpt lat="45.65743" lon="6.87611">
        <ele>2400.7</ele>
        <time>2016-05-06T10:28:37Z</time>
      </trkpt>
      <trkpt lat="45.65742" lon="6.87611">
        <ele>2400.7</ele>
        <time>2016-05-06T10:28:39Z</time>
      </trkpt>
      <trkpt lat="45.65742" lon="6.87611">
        <ele>2400.6</ele>
        <time>2016-05-06T10:28:41Z</time>
      </trkpt>
      <trkpt lat="45.65743" lon="6.87611">
        <ele>2400.5</ele>
        <time>2016-05-06T10:28:43Z</time>
      </trkpt>
      <trkpt lat="45.65743" lon="6.87611">
        <ele>2400.5</ele>
        <time>2016-05-06T10:28:45Z</time>
      </trkpt>
      <trkpt lat="45.65743" lon="6.8761">
        <ele>2400.6</ele>
        <time>2016-05-06T10:28:47Z</time>
      </trkpt>
      <trkpt lat="45.65743" lon="6.8761">
        <ele>2400.9</ele>
        <time>2016-05-06T10:28:49Z</time>
      </trkpt>
      <trkpt lat="45.65743" lon="6.8761">
        <ele>2401</ele>
        <time>2016-05-06T10:28:51Z</time>
      </trkpt>
      <trkpt lat="45.65742" lon="6.8761">
        <ele>2401</ele>
        <time>2016-05-06T10:28:53Z</time>
      </trkpt>
      <trkpt lat="45.65742" lon="6.8761">
        <ele>2401.2</ele>
        <time>2016-05-06T10:28:55Z</time>
      </trkpt>
      <trkpt lat="45.65742" lon="6.8761">
        <ele>2401.3</ele>
        <time>2016-05-06T10:28:57Z</time>
      </trkpt>
      <trkpt lat="45.65742" lon="6.8761">
        <ele>2401.5</ele>
        <time>2016-05-06T10:28:59Z</time>
      </trkpt>
      <trkpt lat="45.65742" lon="6.8761">
        <ele>2401.1</ele>
        <time>2016-05-06T10:29:01Z</time>
      </trkpt>
      <trkpt lat="45.65742" lon="6.8761">
        <ele>2401</ele>
        <time>2016-05-06T10:29:03Z</time>
      </trkpt>
      <trkpt lat="45.65742" lon="6.87611">
        <ele>2400.9</ele>
        <time>2016-05-06T10:29:05Z</time>
      </trkpt>
      <trkpt lat="45.65741" lon="6.87611">
        <ele>2400.9</ele>
        <time>2016-05-06T10:29:07Z</time>
      </trkpt>
      <trkpt lat="45.65741" lon="6.87611">
        <ele>2400.8</ele>
        <time>2016-05-06T10:29:09Z</time>
      </trkpt>
      <trkpt lat="45.65741" lon="6.87611">
        <ele>2400.8</ele>
        <time>2016-05-06T10:29:11Z</time>
      </trkpt>
      <trkpt lat="45.65741" lon="6.87611">
        <ele>2400.8</ele>
        <time>2016-05-06T10:29:13Z</time>
      </trkpt>
      <trkpt lat="45.6574" lon="6.87611">
        <ele>2401</ele>
        <time>2016-05-06T10:29:15Z</time>
      </trkpt>
      <trkpt lat="45.65741" lon="6.87611">
        <ele>2401.2</ele>
        <time>2016-05-06T10:29:17Z</time>
      </trkpt>
      <trkpt lat="45.6574" lon="6.87611">
        <ele>2401.2</ele>
        <time>2016-05-06T10:29:19Z</time>
      </trkpt>
      <trkpt lat="45.6574" lon="6.87611">
        <ele>2401.1</ele>
        <time>2016-05-06T10:29:21Z</time>
      </trkpt>
      <trkpt lat="45.6574" lon="6.87611">
        <ele>2401</ele>
        <time>2016-05-06T10:29:23Z</time>
      </trkpt>
      <trkpt lat="45.6574" lon="6.87611">
        <ele>2401.1</ele>
        <time>2016-05-06T10:29:25Z</time>
      </trkpt>
      <trkpt lat="45.6574" lon="6.87611">
        <ele>2401.2</ele>
        <time>2016-05-06T10:29:27Z</time>
      </trkpt>
      <trkpt lat="45.6574" lon="6.87611">
        <ele>2401.6</ele>
        <time>2016-05-06T10:29:29Z</time>
      </trkpt>
      <trkpt lat="45.6574" lon="6.87611">
        <ele>2401.8</ele>
        <time>2016-05-06T10:29:31Z</time>
      </trkpt>
      <trkpt lat="45.6574" lon="6.87611">
        <ele>2401.6</ele>
        <time>2016-05-06T10:29:33Z</time>
      </trkpt>
      <trkpt lat="45.6574" lon="6.87611">
        <ele>2401.3</ele>
        <time>2016-05-06T10:29:35Z</time>
      </trkpt>
      <trkpt lat="45.6574" lon="6.87611">
        <ele>2401</ele>
        <time>2016-05-06T10:29:37Z</time>
      </trkpt>
      <trkpt lat="45.6574" lon="6.87611">
        <ele>2400.9</ele>
        <time>2016-05-06T10:29:39Z</time>
      </trkpt>
      <trkpt lat="45.6574" lon="6.87611">
        <ele>2401</ele>
        <time>2016-05-06T10:29:41Z</time>
      </trkpt>
      <trkpt lat="45.6574" lon="6.87611">
        <ele>2401.1</ele>
        <time>2016-05-06T10:29:43Z</time>
      </trkpt>
      <trkpt lat="45.6574" lon="6.87611">
        <ele>2401.2</ele>
        <time>2016-05-06T10:29:45Z</time>
      </trkpt>
      <trkpt lat="45.65739" lon="6.87611">
        <ele>2401.3</ele>
        <time>2016-05-06T10:29:47Z</time>
      </trkpt>
      <trkpt lat="45.65739" lon="6.87611">
        <ele>2401.2</ele>
        <time>2016-05-06T10:29:49Z</time>
      </trkpt>
      <trkpt lat="45.65739" lon="6.87611">
        <ele>2401.3</ele>
        <time>2016-05-06T10:29:51Z</time>
      </trkpt>
      <trkpt lat="45.65739" lon="6.87611">
        <ele>2401.4</ele>
        <time>2016-05-06T10:29:53Z</time>
      </trkpt>
      <trkpt lat="45.65739" lon="6.87611">
        <ele>2401.6</ele>
        <time>2016-05-06T10:29:55Z</time>
      </trkpt>
      <trkpt lat="45.65739" lon="6.87611">
        <ele>2401.6</ele>
        <time>2016-05-06T10:29:57Z</time>
      </trkpt>
      <trkpt lat="45.65739" lon="6.87611">
        <ele>2401.6</ele>
        <time>2016-05-06T10:29:59Z</time>
      </trkpt>
      <trkpt lat="45.65739" lon="6.87611">
        <ele>2401.7</ele>
        <time>2016-05-06T10:30:01Z</time>
      </trkpt>
      <trkpt lat="45.65739" lon="6.87611">
        <ele>2401.7</ele>
        <time>2016-05-06T10:30:03Z</time>
      </trkpt>
      <trkpt lat="45.65739" lon="6.8761">
        <ele>2401.6</ele>
        <time>2016-05-06T10:30:05Z</time>
      </trkpt>
      <trkpt lat="45.65739" lon="6.8761">
        <ele>2401.6</ele>
        <time>2016-05-06T10:30:07Z</time>
      </trkpt>
      <trkpt lat="45.6574" lon="6.87611">
        <ele>2401.6</ele>
        <time>2016-05-06T10:30:09Z</time>
      </trkpt>
      <trkpt lat="45.6574" lon="6.87612">
        <ele>2401.6</ele>
        <time>2016-05-06T10:30:11Z</time>
      </trkpt>
      <trkpt lat="45.6574" lon="6.87612">
        <ele>2401.7</ele>
        <time>2016-05-06T10:30:13Z</time>
      </trkpt>
      <trkpt lat="45.6574" lon="6.87612">
        <ele>2401.9</ele>
        <time>2016-05-06T10:30:15Z</time>
      </trkpt>
      <trkpt lat="45.6574" lon="6.87611">
        <ele>2402.3</ele>
        <time>2016-05-06T10:30:17Z</time>
      </trkpt>
      <trkpt lat="45.65741" lon="6.87611">
        <ele>2402.1</ele>
        <time>2016-05-06T10:30:19Z</time>
      </trkpt>
      <trkpt lat="45.65741" lon="6.87611">
        <ele>2402</ele>
        <time>2016-05-06T10:30:21Z</time>
      </trkpt>
      <trkpt lat="45.65741" lon="6.87611">
        <ele>2402</ele>
        <time>2016-05-06T10:30:23Z</time>
      </trkpt>
      <trkpt lat="45.65741" lon="6.87611">
        <ele>2401.9</ele>
        <time>2016-05-06T10:30:25Z</time>
      </trkpt>
      <trkpt lat="45.65741" lon="6.87611">
        <ele>2402</ele>
        <time>2016-05-06T10:30:27Z</time>
      </trkpt>
      <trkpt lat="45.65741" lon="6.87611">
        <ele>2402</ele>
        <time>2016-05-06T10:30:29Z</time>
      </trkpt>
      <trkpt lat="45.65741" lon="6.87611">
        <ele>2402</ele>
        <time>2016-05-06T10:30:31Z</time>
      </trkpt>
      <trkpt lat="45.65742" lon="6.87611">
        <ele>2402.1</ele>
        <time>2016-05-06T10:30:33Z</time>
      </trkpt>
      <trkpt lat="45.65742" lon="6.87611">
        <ele>2402.2</ele>
        <time>2016-05-06T10:30:35Z</time>
      </trkpt>
      <trkpt lat="45.65742" lon="6.87611">
        <ele>2402.4</ele>
        <time>2016-05-06T10:30:37Z</time>
      </trkpt>
      <trkpt lat="45.65742" lon="6.87611">
        <ele>2402.4</ele>
        <time>2016-05-06T10:30:39Z</time>
      </trkpt>
      <trkpt lat="45.65742" lon="6.8761">
        <ele>2402.3</ele>
        <time>2016-05-06T10:30:41Z</time>
      </trkpt>
      <trkpt lat="45.65742" lon="6.8761">
        <ele>2402.3</ele>
        <time>2016-05-06T10:30:43Z</time>
      </trkpt>
      <trkpt lat="45.65742" lon="6.8761">
        <ele>2402.3</ele>
        <time>2016-05-06T10:30:45Z</time>
      </trkpt>
      <trkpt lat="45.65742" lon="6.8761">
        <ele>2402.2</ele>
        <time>2016-05-06T10:30:47Z</time>
      </trkpt>
      <trkpt lat="45.65742" lon="6.8761">
        <ele>2402.1</ele>
        <time>2016-05-06T10:30:49Z</time>
      </trkpt>
      <trkpt lat="45.65742" lon="6.87609">
        <ele>2402.3</ele>
        <time>2016-05-06T10:30:51Z</time>
      </trkpt>
      <trkpt lat="45.65742" lon="6.87609">
        <ele>2402.4</ele>
        <time>2016-05-06T10:30:53Z</time>
      </trkpt>
      <trkpt lat="45.6574" lon="6.8761">
        <ele>2402.6</ele>
        <time>2016-05-06T10:30:55Z</time>
      </trkpt>
      <trkpt lat="45.65741" lon="6.87609">
        <ele>2403.2</ele>
        <time>2016-05-06T10:30:57Z</time>
      </trkpt>
      <trkpt lat="45.65741" lon="6.87609">
        <ele>2403.4</ele>
        <time>2016-05-06T10:30:59Z</time>
      </trkpt>
      <trkpt lat="45.65741" lon="6.87608">
        <ele>2403.6</ele>
        <time>2016-05-06T10:31:01Z</time>
      </trkpt>
      <trkpt lat="45.65741" lon="6.87608">
        <ele>2403.6</ele>
        <time>2016-05-06T10:31:03Z</time>
      </trkpt>
      <trkpt lat="45.65739" lon="6.87608">
        <ele>2403.7</ele>
        <time>2016-05-06T10:31:05Z</time>
      </trkpt>
      <trkpt lat="45.6574" lon="6.87604">
        <ele>2404</ele>
        <time>2016-05-06T10:31:07Z</time>
      </trkpt>
      <trkpt lat="45.65741" lon="6.87601">
        <ele>2403.6</ele>
        <time>2016-05-06T10:31:09Z</time>
      </trkpt>
      <trkpt lat="45.65743" lon="6.87599">
        <ele>2403.7</ele>
        <time>2016-05-06T10:31:11Z</time>
      </trkpt>
      <trkpt lat="45.65745" lon="6.87599">
        <ele>2403.5</ele>
        <time>2016-05-06T10:31:13Z</time>
      </trkpt>
      <trkpt lat="45.65747" lon="6.876">
        <ele>2403.4</ele>
        <time>2016-05-06T10:31:15Z</time>
      </trkpt>
      <trkpt lat="45.65749" lon="6.87601">
        <ele>2403.8</ele>
        <time>2016-05-06T10:31:17Z</time>
      </trkpt>
      <trkpt lat="45.65749" lon="6.87601">
        <ele>2402.5</ele>
        <time>2016-05-06T10:31:19Z</time>
      </trkpt>
      <trkpt lat="45.65748" lon="6.87601">
        <ele>2402.9</ele>
        <time>2016-05-06T10:31:21Z</time>
      </trkpt>
      <trkpt lat="45.65747" lon="6.87601">
        <ele>2403.2</ele>
        <time>2016-05-06T10:31:23Z</time>
      </trkpt>
      <trkpt lat="45.65746" lon="6.87602">
        <ele>2403.3</ele>
        <time>2016-05-06T10:31:25Z</time>
      </trkpt>
      <trkpt lat="45.65745" lon="6.87603">
        <ele>2403.6</ele>
        <time>2016-05-06T10:31:27Z</time>
      </trkpt>
      <trkpt lat="45.65744" lon="6.87602">
        <ele>2403.6</ele>
        <time>2016-05-06T10:31:29Z</time>
      </trkpt>
      <trkpt lat="45.65743" lon="6.87602">
        <ele>2404.1</ele>
        <time>2016-05-06T10:31:31Z</time>
      </trkpt>
      <trkpt lat="45.65744" lon="6.87602">
        <ele>2404.8</ele>
        <time>2016-05-06T10:31:33Z</time>
      </trkpt>
      <trkpt lat="45.65743" lon="6.87602">
        <ele>2404.6</ele>
        <time>2016-05-06T10:31:35Z</time>
      </trkpt>
      <trkpt lat="45.65743" lon="6.87602">
        <ele>2404.3</ele>
        <time>2016-05-06T10:31:37Z</time>
      </trkpt>
      <trkpt lat="45.65743" lon="6.87603">
        <ele>2404.6</ele>
        <time>2016-05-06T10:31:39Z</time>
      </trkpt>
      <trkpt lat="45.65743" lon="6.87603">
        <ele>2404.7</ele>
        <time>2016-05-06T10:31:41Z</time>
      </trkpt>
      <trkpt lat="45.65743" lon="6.87603">
        <ele>2404.3</ele>
        <time>2016-05-06T10:31:43Z</time>
      </trkpt>
      <trkpt lat="45.65743" lon="6.87603">
        <ele>2404</ele>
        <time>2016-05-06T10:31:45Z</time>
      </trkpt>
      <trkpt lat="45.65743" lon="6.87603">
        <ele>2403.6</ele>
        <time>2016-05-06T10:31:47Z</time>
      </trkpt>
      <trkpt lat="45.65744" lon="6.87603">
        <ele>2403.4</ele>
        <time>2016-05-06T10:31:49Z</time>
      </trkpt>
      <trkpt lat="45.65744" lon="6.87604">
        <ele>2403.3</ele>
        <time>2016-05-06T10:31:51Z</time>
      </trkpt>
      <trkpt lat="45.65744" lon="6.87604">
        <ele>2403.1</ele>
        <time>2016-05-06T10:31:53Z</time>
      </trkpt>
      <trkpt lat="45.65744" lon="6.87604">
        <ele>2402.4</ele>
        <time>2016-05-06T10:31:55Z</time>
      </trkpt>
      <trkpt lat="45.65744" lon="6.87604">
        <ele>2402.6</ele>
        <time>2016-05-06T10:31:57Z</time>
      </trkpt>
      <trkpt lat="45.65745" lon="6.87604">
        <ele>2403</ele>
        <time>2016-05-06T10:31:59Z</time>
      </trkpt>
      <trkpt lat="45.65745" lon="6.87604">
        <ele>2403</ele>
        <time>2016-05-06T10:32:01Z</time>
      </trkpt>
      <trkpt lat="45.65745" lon="6.87603">
        <ele>2403.7</ele>
        <time>2016-05-06T10:32:03Z</time>
      </trkpt>
      <trkpt lat="45.65745" lon="6.87603">
        <ele>2404</ele>
        <time>2016-05-06T10:32:05Z</time>
      </trkpt>
      <trkpt lat="45.65744" lon="6.87604">
        <ele>2403.7</ele>
        <time>2016-05-06T10:32:07Z</time>
      </trkpt>
      <trkpt lat="45.65744" lon="6.87603">
        <ele>2402.8</ele>
        <time>2016-05-06T10:32:09Z</time>
      </trkpt>
      <trkpt lat="45.65744" lon="6.87603">
        <ele>2402.8</ele>
        <time>2016-05-06T10:32:11Z</time>
      </trkpt>
      <trkpt lat="45.65744" lon="6.87603">
        <ele>2403.2</ele>
        <time>2016-05-06T10:32:13Z</time>
      </trkpt>
      <trkpt lat="45.65744" lon="6.87604">
        <ele>2403.5</ele>
        <time>2016-05-06T10:32:15Z</time>
      </trkpt>
      <trkpt lat="45.65745" lon="6.87607">
        <ele>2403.3</ele>
        <time>2016-05-06T10:32:17Z</time>
      </trkpt>
      <trkpt lat="45.65745" lon="6.87608">
        <ele>2403.2</ele>
        <time>2016-05-06T10:32:19Z</time>
      </trkpt>
      <trkpt lat="45.65746" lon="6.87608">
        <ele>2402.9</ele>
        <time>2016-05-06T10:32:21Z</time>
      </trkpt>
      <trkpt lat="45.65746" lon="6.87607">
        <ele>2402.6</ele>
        <time>2016-05-06T10:32:23Z</time>
      </trkpt>
      <trkpt lat="45.65746" lon="6.87607">
        <ele>2402.6</ele>
        <time>2016-05-06T10:32:25Z</time>
      </trkpt>
      <trkpt lat="45.65746" lon="6.87607">
        <ele>2402.4</ele>
        <time>2016-05-06T10:32:27Z</time>
      </trkpt>
      <trkpt lat="45.65746" lon="6.87608">
        <ele>2401.9</ele>
        <time>2016-05-06T10:32:29Z</time>
      </trkpt>
      <trkpt lat="45.65746" lon="6.87608">
        <ele>2402.3</ele>
        <time>2016-05-06T10:32:31Z</time>
      </trkpt>
      <trkpt lat="45.65747" lon="6.87608">
        <ele>2401.7</ele>
        <time>2016-05-06T10:32:33Z</time>
      </trkpt>
      <trkpt lat="45.65747" lon="6.87608">
        <ele>2402.1</ele>
        <time>2016-05-06T10:32:35Z</time>
      </trkpt>
      <trkpt lat="45.65747" lon="6.87608">
        <ele>2402.4</ele>
        <time>2016-05-06T10:32:37Z</time>
      </trkpt>
      <trkpt lat="45.65747" lon="6.87608">
        <ele>2402.3</ele>
        <time>2016-05-06T10:32:39Z</time>
      </trkpt>
      <trkpt lat="45.65747" lon="6.87609">
        <ele>2402.1</ele>
        <time>2016-05-06T10:32:41Z</time>
      </trkpt>
      <trkpt lat="45.65747" lon="6.87609">
        <ele>2401.7</ele>
        <time>2016-05-06T10:32:43Z</time>
      </trkpt>
      <trkpt lat="45.65746" lon="6.87609">
        <ele>2401.6</ele>
        <time>2016-05-06T10:32:45Z</time>
      </trkpt>
      <trkpt lat="45.65747" lon="6.87609">
        <ele>2401.6</ele>
        <time>2016-05-06T10:32:47Z</time>
      </trkpt>
      <trkpt lat="45.65747" lon="6.87609">
        <ele>2401.8</ele>
        <time>2016-05-06T10:32:49Z</time>
      </trkpt>
      <trkpt lat="45.65747" lon="6.87609">
        <ele>2401.7</ele>
        <time>2016-05-06T10:32:51Z</time>
      </trkpt>
      <trkpt lat="45.65747" lon="6.87609">
        <ele>2401.7</ele>
        <time>2016-05-06T10:32:53Z</time>
      </trkpt>
      <trkpt lat="45.65747" lon="6.87609">
        <ele>2401.6</ele>
        <time>2016-05-06T10:32:55Z</time>
      </trkpt>
      <trkpt lat="45.65747" lon="6.87609">
        <ele>2401.5</ele>
        <time>2016-05-06T10:32:57Z</time>
      </trkpt>
      <trkpt lat="45.65747" lon="6.87608">
        <ele>2401.4</ele>
        <time>2016-05-06T10:32:59Z</time>
      </trkpt>
      <trkpt lat="45.65747" lon="6.87608">
        <ele>2401.4</ele>
        <time>2016-05-06T10:33:01Z</time>
      </trkpt>
      <trkpt lat="45.65747" lon="6.87608">
        <ele>2401.6</ele>
        <time>2016-05-06T10:33:03Z</time>
      </trkpt>
      <trkpt lat="45.65747" lon="6.87607">
        <ele>2402.1</ele>
        <time>2016-05-06T10:33:05Z</time>
      </trkpt>
      <trkpt lat="45.65747" lon="6.87607">
        <ele>2402.2</ele>
        <time>2016-05-06T10:33:07Z</time>
      </trkpt>
      <trkpt lat="45.65747" lon="6.87607">
        <ele>2401.7</ele>
        <time>2016-05-06T10:33:09Z</time>
      </trkpt>
      <trkpt lat="45.65747" lon="6.87607">
        <ele>2402</ele>
        <time>2016-05-06T10:33:11Z</time>
      </trkpt>
      <trkpt lat="45.65747" lon="6.87606">
        <ele>2402.2</ele>
        <time>2016-05-06T10:33:13Z</time>
      </trkpt>
      <trkpt lat="45.65747" lon="6.87606">
        <ele>2402.2</ele>
        <time>2016-05-06T10:33:15Z</time>
      </trkpt>
      <trkpt lat="45.65747" lon="6.87606">
        <ele>2402.1</ele>
        <time>2016-05-06T10:33:17Z</time>
      </trkpt>
      <trkpt lat="45.65747" lon="6.87607">
        <ele>2401.9</ele>
        <time>2016-05-06T10:33:19Z</time>
      </trkpt>
      <trkpt lat="45.65746" lon="6.87607">
        <ele>2401.4</ele>
        <time>2016-05-06T10:33:21Z</time>
      </trkpt>
      <trkpt lat="45.65745" lon="6.87606">
        <ele>2401.5</ele>
        <time>2016-05-06T10:33:23Z</time>
      </trkpt>
      <trkpt lat="45.65746" lon="6.87606">
        <ele>2401.5</ele>
        <time>2016-05-06T10:33:25Z</time>
      </trkpt>
      <trkpt lat="45.65746" lon="6.87606">
        <ele>2401.2</ele>
        <time>2016-05-06T10:33:27Z</time>
      </trkpt>
      <trkpt lat="45.65746" lon="6.87607">
        <ele>2401.4</ele>
        <time>2016-05-06T10:33:29Z</time>
      </trkpt>
      <trkpt lat="45.65746" lon="6.87607">
        <ele>2401.3</ele>
        <time>2016-05-06T10:33:31Z</time>
      </trkpt>
      <trkpt lat="45.65746" lon="6.87608">
        <ele>2401.3</ele>
        <time>2016-05-06T10:33:33Z</time>
      </trkpt>
      <trkpt lat="45.65746" lon="6.87608">
        <ele>2401.4</ele>
        <time>2016-05-06T10:33:35Z</time>
      </trkpt>
      <trkpt lat="45.65746" lon="6.87609">
        <ele>2401.4</ele>
        <time>2016-05-06T10:33:37Z</time>
      </trkpt>
      <trkpt lat="45.65746" lon="6.8761">
        <ele>2401.6</ele>
        <time>2016-05-06T10:33:39Z</time>
      </trkpt>
      <trkpt lat="45.65746" lon="6.8761">
        <ele>2401.4</ele>
        <time>2016-05-06T10:33:41Z</time>
      </trkpt>
      <trkpt lat="45.65746" lon="6.87609">
        <ele>2401.3</ele>
        <time>2016-05-06T10:33:43Z</time>
      </trkpt>
      <trkpt lat="45.65746" lon="6.87609">
        <ele>2401.4</ele>
        <time>2016-05-06T10:33:45Z</time>
      </trkpt>
      <trkpt lat="45.65745" lon="6.87609">
        <ele>2401.5</ele>
        <time>2016-05-06T10:33:47Z</time>
      </trkpt>
      <trkpt lat="45.65745" lon="6.87608">
        <ele>2401.6</ele>
        <time>2016-05-06T10:33:49Z</time>
      </trkpt>
      <trkpt lat="45.65745" lon="6.87608">
        <ele>2401.6</ele>
        <time>2016-05-06T10:33:51Z</time>
      </trkpt>
      <trkpt lat="45.65745" lon="6.87607">
        <ele>2401.6</ele>
        <time>2016-05-06T10:33:53Z</time>
      </trkpt>
      <trkpt lat="45.65744" lon="6.87607">
        <ele>2401.6</ele>
        <time>2016-05-06T10:33:55Z</time>
      </trkpt>
      <trkpt lat="45.65744" lon="6.87607">
        <ele>2401.5</ele>
        <time>2016-05-06T10:33:57Z</time>
      </trkpt>
      <trkpt lat="45.65744" lon="6.87607">
        <ele>2401.6</ele>
        <time>2016-05-06T10:33:59Z</time>
      </trkpt>
      <trkpt lat="45.65744" lon="6.87607">
        <ele>2401.7</ele>
        <time>2016-05-06T10:34:01Z</time>
      </trkpt>
      <trkpt lat="45.65744" lon="6.87607">
        <ele>2402.1</ele>
        <time>2016-05-06T10:34:03Z</time>
      </trkpt>
      <trkpt lat="45.65745" lon="6.87607">
        <ele>2402.6</ele>
        <time>2016-05-06T10:34:05Z</time>
      </trkpt>
      <trkpt lat="45.65745" lon="6.87607">
        <ele>2402.7</ele>
        <time>2016-05-06T10:34:07Z</time>
      </trkpt>
      <trkpt lat="45.65745" lon="6.87606">
        <ele>2402.8</ele>
        <time>2016-05-06T10:34:09Z</time>
      </trkpt>
      <trkpt lat="45.65745" lon="6.87606">
        <ele>2402.8</ele>
        <time>2016-05-06T10:34:11Z</time>
      </trkpt>
      <trkpt lat="45.65745" lon="6.87605">
        <ele>2402.5</ele>
        <time>2016-05-06T10:34:13Z</time>
      </trkpt>
      <trkpt lat="45.65744" lon="6.87605">
        <ele>2402.3</ele>
        <time>2016-05-06T10:34:15Z</time>
      </trkpt>
      <trkpt lat="45.65744" lon="6.87605">
        <ele>2402.1</ele>
        <time>2016-05-06T10:34:17Z</time>
      </trkpt>
      <trkpt lat="45.65744" lon="6.87605">
        <ele>2401.9</ele>
        <time>2016-05-06T10:34:19Z</time>
      </trkpt>
      <trkpt lat="45.65744" lon="6.87605">
        <ele>2401.9</ele>
        <time>2016-05-06T10:34:21Z</time>
      </trkpt>
      <trkpt lat="45.65744" lon="6.87604">
        <ele>2402</ele>
        <time>2016-05-06T10:34:23Z</time>
      </trkpt>
      <trkpt lat="45.65744" lon="6.87604">
        <ele>2401.7</ele>
        <time>2016-05-06T10:34:25Z</time>
      </trkpt>
      <trkpt lat="45.65743" lon="6.87604">
        <ele>2401.8</ele>
        <time>2016-05-06T10:34:27Z</time>
      </trkpt>
      <trkpt lat="45.65743" lon="6.87603">
        <ele>2401.8</ele>
        <time>2016-05-06T10:34:29Z</time>
      </trkpt>
      <trkpt lat="45.65743" lon="6.87603">
        <ele>2401.8</ele>
        <time>2016-05-06T10:34:31Z</time>
      </trkpt>
      <trkpt lat="45.65743" lon="6.87603">
        <ele>2401.7</ele>
        <time>2016-05-06T10:34:33Z</time>
      </trkpt>
      <trkpt lat="45.65743" lon="6.87603">
        <ele>2401.6</ele>
        <time>2016-05-06T10:34:35Z</time>
      </trkpt>
      <trkpt lat="45.65743" lon="6.87603">
        <ele>2401.4</ele>
        <time>2016-05-06T10:34:37Z</time>
      </trkpt>
      <trkpt lat="45.65743" lon="6.87603">
        <ele>2401.6</ele>
        <time>2016-05-06T10:34:39Z</time>
      </trkpt>
      <trkpt lat="45.65743" lon="6.87603">
        <ele>2401.6</ele>
        <time>2016-05-06T10:34:41Z</time>
      </trkpt>
      <trkpt lat="45.65743" lon="6.87603">
        <ele>2401.6</ele>
        <time>2016-05-06T10:34:43Z</time>
      </trkpt>
      <trkpt lat="45.65743" lon="6.87603">
        <ele>2401.7</ele>
        <time>2016-05-06T10:34:45Z</time>
      </trkpt>
      <trkpt lat="45.65743" lon="6.87603">
        <ele>2401.8</ele>
        <time>2016-05-06T10:34:47Z</time>
      </trkpt>
      <trkpt lat="45.65743" lon="6.87603">
        <ele>2401.6</ele>
        <time>2016-05-06T10:34:49Z</time>
      </trkpt>
      <trkpt lat="45.65743" lon="6.87603">
        <ele>2401.5</ele>
        <time>2016-05-06T10:34:51Z</time>
      </trkpt>
      <trkpt lat="45.65743" lon="6.87603">
        <ele>2401.6</ele>
        <time>2016-05-06T10:34:53Z</time>
      </trkpt>
      <trkpt lat="45.65743" lon="6.87603">
        <ele>2401.7</ele>
        <time>2016-05-06T10:34:55Z</time>
      </trkpt>
      <trkpt lat="45.65742" lon="6.87603">
        <ele>2401.8</ele>
        <time>2016-05-06T10:34:57Z</time>
      </trkpt>
      <trkpt lat="45.65743" lon="6.87604">
        <ele>2401.8</ele>
        <time>2016-05-06T10:34:59Z</time>
      </trkpt>
      <trkpt lat="45.65744" lon="6.87604">
        <ele>2401.8</ele>
        <time>2016-05-06T10:35:01Z</time>
      </trkpt>
      <trkpt lat="45.65744" lon="6.87604">
        <ele>2401.7</ele>
        <time>2016-05-06T10:35:03Z</time>
      </trkpt>
      <trkpt lat="45.65744" lon="6.87604">
        <ele>2401.6</ele>
        <time>2016-05-06T10:35:05Z</time>
      </trkpt>
      <trkpt lat="45.65744" lon="6.87604">
        <ele>2401.6</ele>
        <time>2016-05-06T10:35:07Z</time>
      </trkpt>
      <trkpt lat="45.65745" lon="6.87604">
        <ele>2401.5</ele>
        <time>2016-05-06T10:35:09Z</time>
      </trkpt>
      <trkpt lat="45.65745" lon="6.87604">
        <ele>2401.4</ele>
        <time>2016-05-06T10:35:11Z</time>
      </trkpt>
      <trkpt lat="45.65745" lon="6.87604">
        <ele>2401.7</ele>
        <time>2016-05-06T10:35:13Z</time>
      </trkpt>
      <trkpt lat="45.65746" lon="6.87604">
        <ele>2401.8</ele>
        <time>2016-05-06T10:35:15Z</time>
      </trkpt>
      <trkpt lat="45.65746" lon="6.87604">
        <ele>2401.8</ele>
        <time>2016-05-06T10:35:17Z</time>
      </trkpt>
      <trkpt lat="45.65746" lon="6.87604">
        <ele>2401.9</ele>
        <time>2016-05-06T10:35:19Z</time>
      </trkpt>
      <trkpt lat="45.65746" lon="6.87603">
        <ele>2401.9</ele>
        <time>2016-05-06T10:35:21Z</time>
      </trkpt>
      <trkpt lat="45.65746" lon="6.87603">
        <ele>2402</ele>
        <time>2016-05-06T10:35:23Z</time>
      </trkpt>
      <trkpt lat="45.65746" lon="6.87603">
        <ele>2402.3</ele>
        <time>2016-05-06T10:35:25Z</time>
      </trkpt>
      <trkpt lat="45.65746" lon="6.87603">
        <ele>2402.2</ele>
        <time>2016-05-06T10:35:27Z</time>
      </trkpt>
      <trkpt lat="45.65746" lon="6.87603">
        <ele>2401.8</ele>
        <time>2016-05-06T10:35:29Z</time>
      </trkpt>
      <trkpt lat="45.65747" lon="6.87603">
        <ele>2401.4</ele>
        <time>2016-05-06T10:35:31Z</time>
      </trkpt>
      <trkpt lat="45.65747" lon="6.87604">
        <ele>2401.5</ele>
        <time>2016-05-06T10:35:33Z</time>
      </trkpt>
      <trkpt lat="45.65747" lon="6.87604">
        <ele>2401.6</ele>
        <time>2016-05-06T10:35:35Z</time>
      </trkpt>
      <trkpt lat="45.65747" lon="6.87604">
        <ele>2401.1</ele>
        <time>2016-05-06T10:35:37Z</time>
      </trkpt>
      <trkpt lat="45.65746" lon="6.87603">
        <ele>2401.1</ele>
        <time>2016-05-06T10:35:39Z</time>
      </trkpt>
      <trkpt lat="45.65746" lon="6.87604">
        <ele>2400.9</ele>
        <time>2016-05-06T10:35:41Z</time>
      </trkpt>
      <trkpt lat="45.65745" lon="6.87604">
        <ele>2400.7</ele>
        <time>2016-05-06T10:35:43Z</time>
      </trkpt>
      <trkpt lat="45.65746" lon="6.87603">
        <ele>2400.6</ele>
        <time>2016-05-06T10:35:45Z</time>
      </trkpt>
      <trkpt lat="45.65745" lon="6.87603">
        <ele>2400.8</ele>
        <time>2016-05-06T10:35:47Z</time>
      </trkpt>
      <trkpt lat="45.65745" lon="6.87603">
        <ele>2400.9</ele>
        <time>2016-05-06T10:35:49Z</time>
      </trkpt>
      <trkpt lat="45.65746" lon="6.87603">
        <ele>2401</ele>
        <time>2016-05-06T10:35:51Z</time>
      </trkpt>
      <trkpt lat="45.65746" lon="6.87603">
        <ele>2400.9</ele>
        <time>2016-05-06T10:35:53Z</time>
      </trkpt>
      <trkpt lat="45.65746" lon="6.87603">
        <ele>2400.8</ele>
        <time>2016-05-06T10:35:55Z</time>
      </trkpt>
      <trkpt lat="45.65746" lon="6.87603">
        <ele>2400.8</ele>
        <time>2016-05-06T10:35:57Z</time>
      </trkpt>
      <trkpt lat="45.65746" lon="6.87603">
        <ele>2400.8</ele>
        <time>2016-05-06T10:35:59Z</time>
      </trkpt>
      <trkpt lat="45.65746" lon="6.87603">
        <ele>2401.1</ele>
        <time>2016-05-06T10:36:01Z</time>
      </trkpt>
      <trkpt lat="45.65746" lon="6.87604">
        <ele>2400.8</ele>
        <time>2016-05-06T10:36:03Z</time>
      </trkpt>
      <trkpt lat="45.65746" lon="6.87604">
        <ele>2400.5</ele>
        <time>2016-05-06T10:36:05Z</time>
      </trkpt>
      <trkpt lat="45.65746" lon="6.87604">
        <ele>2400.4</ele>
        <time>2016-05-06T10:36:07Z</time>
      </trkpt>
      <trkpt lat="45.65745" lon="6.87604">
        <ele>2400.4</ele>
        <time>2016-05-06T10:36:09Z</time>
      </trkpt>
      <trkpt lat="45.65745" lon="6.87604">
        <ele>2400.2</ele>
        <time>2016-05-06T10:36:11Z</time>
      </trkpt>
      <trkpt lat="45.65744" lon="6.87603">
        <ele>2400.1</ele>
        <time>2016-05-06T10:36:13Z</time>
      </trkpt>
      <trkpt lat="45.65744" lon="6.87603">
        <ele>2400.1</ele>
        <time>2016-05-06T10:36:15Z</time>
      </trkpt>
      <trkpt lat="45.65744" lon="6.87603">
        <ele>2399.5</ele>
        <time>2016-05-06T10:36:17Z</time>
      </trkpt>
      <trkpt lat="45.65744" lon="6.87604">
        <ele>2399.7</ele>
        <time>2016-05-06T10:36:19Z</time>
      </trkpt>
      <trkpt lat="45.65744" lon="6.87605">
        <ele>2399.8</ele>
        <time>2016-05-06T10:36:21Z</time>
      </trkpt>
      <trkpt lat="45.65744" lon="6.87605">
        <ele>2400</ele>
        <time>2016-05-06T10:36:23Z</time>
      </trkpt>
      <trkpt lat="45.65743" lon="6.87605">
        <ele>2400.2</ele>
        <time>2016-05-06T10:36:25Z</time>
      </trkpt>
      <trkpt lat="45.65743" lon="6.87605">
        <ele>2400.3</ele>
        <time>2016-05-06T10:36:27Z</time>
      </trkpt>
      <trkpt lat="45.65744" lon="6.87605">
        <ele>2400.4</ele>
        <time>2016-05-06T10:36:29Z</time>
      </trkpt>
      <trkpt lat="45.65744" lon="6.87606">
        <ele>2400.6</ele>
        <time>2016-05-06T10:36:31Z</time>
      </trkpt>
      <trkpt lat="45.65745" lon="6.87606">
        <ele>2400.6</ele>
        <time>2016-05-06T10:36:33Z</time>
      </trkpt>
      <trkpt lat="45.65745" lon="6.87606">
        <ele>2400.9</ele>
        <time>2016-05-06T10:36:35Z</time>
      </trkpt>
      <trkpt lat="45.65745" lon="6.87605">
        <ele>2400.8</ele>
        <time>2016-05-06T10:36:37Z</time>
      </trkpt>
      <trkpt lat="45.65745" lon="6.87605">
        <ele>2400.9</ele>
        <time>2016-05-06T10:36:39Z</time>
      </trkpt>
      <trkpt lat="45.65746" lon="6.87605">
        <ele>2400.6</ele>
        <time>2016-05-06T10:36:41Z</time>
      </trkpt>
      <trkpt lat="45.65746" lon="6.87605">
        <ele>2400.6</ele>
        <time>2016-05-06T10:36:43Z</time>
      </trkpt>
      <trkpt lat="45.65746" lon="6.87605">
        <ele>2400.7</ele>
        <time>2016-05-06T10:36:45Z</time>
      </trkpt>
      <trkpt lat="45.65746" lon="6.87604">
        <ele>2400.8</ele>
        <time>2016-05-06T10:36:47Z</time>
      </trkpt>
      <trkpt lat="45.65745" lon="6.87604">
        <ele>2400.7</ele>
        <time>2016-05-06T10:36:49Z</time>
      </trkpt>
      <trkpt lat="45.65746" lon="6.87604">
        <ele>2400.6</ele>
        <time>2016-05-06T10:36:51Z</time>
      </trkpt>
      <trkpt lat="45.65746" lon="6.87604">
        <ele>2400.5</ele>
        <time>2016-05-06T10:36:53Z</time>
      </trkpt>
      <trkpt lat="45.65746" lon="6.87604">
        <ele>2400.1</ele>
        <time>2016-05-06T10:36:55Z</time>
      </trkpt>
      <trkpt lat="45.65746" lon="6.87605">
        <ele>2400.2</ele>
        <time>2016-05-06T10:36:57Z</time>
      </trkpt>
      <trkpt lat="45.65745" lon="6.87604">
        <ele>2400.4</ele>
        <time>2016-05-06T10:36:59Z</time>
      </trkpt>
      <trkpt lat="45.65745" lon="6.87604">
        <ele>2400.8</ele>
        <time>2016-05-06T10:37:01Z</time>
      </trkpt>
      <trkpt lat="45.65745" lon="6.87603">
        <ele>2400.7</ele>
        <time>2016-05-06T10:37:03Z</time>
      </trkpt>
      <trkpt lat="45.65746" lon="6.87603">
        <ele>2400.3</ele>
        <time>2016-05-06T10:37:05Z</time>
      </trkpt>
      <trkpt lat="45.65745" lon="6.87603">
        <ele>2400.8</ele>
        <time>2016-05-06T10:37:07Z</time>
      </trkpt>
      <trkpt lat="45.65745" lon="6.87603">
        <ele>2401.1</ele>
        <time>2016-05-06T10:37:09Z</time>
      </trkpt>
      <trkpt lat="45.65745" lon="6.87603">
        <ele>2401.5</ele>
        <time>2016-05-06T10:37:11Z</time>
      </trkpt>
      <trkpt lat="45.65744" lon="6.87603">
        <ele>2401.4</ele>
        <time>2016-05-06T10:37:13Z</time>
      </trkpt>
      <trkpt lat="45.65745" lon="6.87603">
        <ele>2401.2</ele>
        <time>2016-05-06T10:37:15Z</time>
      </trkpt>
      <trkpt lat="45.65744" lon="6.87603">
        <ele>2401.3</ele>
        <time>2016-05-06T10:37:17Z</time>
      </trkpt>
      <trkpt lat="45.65744" lon="6.87603">
        <ele>2401.6</ele>
        <time>2016-05-06T10:37:19Z</time>
      </trkpt>
      <trkpt lat="45.65745" lon="6.87603">
        <ele>2401.8</ele>
        <time>2016-05-06T10:37:21Z</time>
      </trkpt>
      <trkpt lat="45.65745" lon="6.87603">
        <ele>2401.8</ele>
        <time>2016-05-06T10:37:23Z</time>
      </trkpt>
      <trkpt lat="45.65745" lon="6.87603">
        <ele>2401.9</ele>
        <time>2016-05-06T10:37:25Z</time>
      </trkpt>
      <trkpt lat="45.65745" lon="6.87603">
        <ele>2402</ele>
        <time>2016-05-06T10:37:27Z</time>
      </trkpt>
      <trkpt lat="45.65745" lon="6.87603">
        <ele>2402</ele>
        <time>2016-05-06T10:37:29Z</time>
      </trkpt>
      <trkpt lat="45.65745" lon="6.87603">
        <ele>2402.1</ele>
        <time>2016-05-06T10:37:31Z</time>
      </trkpt>
      <trkpt lat="45.65746" lon="6.87603">
        <ele>2402.1</ele>
        <time>2016-05-06T10:37:33Z</time>
      </trkpt>
      <trkpt lat="45.65746" lon="6.87603">
        <ele>2402.4</ele>
        <time>2016-05-06T10:37:35Z</time>
      </trkpt>
      <trkpt lat="45.65746" lon="6.87603">
        <ele>2402.4</ele>
        <time>2016-05-06T10:37:37Z</time>
      </trkpt>
      <trkpt lat="45.65747" lon="6.87604">
        <ele>2402.8</ele>
        <time>2016-05-06T10:37:39Z</time>
      </trkpt>
      <trkpt lat="45.65746" lon="6.87604">
        <ele>2402.7</ele>
        <time>2016-05-06T10:37:41Z</time>
      </trkpt>
      <trkpt lat="45.65746" lon="6.87604">
        <ele>2402.5</ele>
        <time>2016-05-06T10:37:43Z</time>
      </trkpt>
      <trkpt lat="45.65746" lon="6.87604">
        <ele>2403</ele>
        <time>2016-05-06T10:37:45Z</time>
      </trkpt>
      <trkpt lat="45.65746" lon="6.87604">
        <ele>2403.3</ele>
        <time>2016-05-06T10:37:47Z</time>
      </trkpt>
      <trkpt lat="45.65746" lon="6.87604">
        <ele>2403.3</ele>
        <time>2016-05-06T10:37:49Z</time>
      </trkpt>
      <trkpt lat="45.65746" lon="6.87603">
        <ele>2403.1</ele>
        <time>2016-05-06T10:37:51Z</time>
      </trkpt>
      <trkpt lat="45.65746" lon="6.87603">
        <ele>2402.9</ele>
        <time>2016-05-06T10:37:53Z</time>
      </trkpt>
      <trkpt lat="45.65746" lon="6.87603">
        <ele>2402.5</ele>
        <time>2016-05-06T10:37:55Z</time>
      </trkpt>
      <trkpt lat="45.65745" lon="6.87603">
        <ele>2402.4</ele>
        <time>2016-05-06T10:37:57Z</time>
      </trkpt>
      <trkpt lat="45.65745" lon="6.87603">
        <ele>2402.5</ele>
        <time>2016-05-06T10:37:59Z</time>
      </trkpt>
      <trkpt lat="45.65745" lon="6.87603">
        <ele>2402.5</ele>
        <time>2016-05-06T10:38:01Z</time>
      </trkpt>
      <trkpt lat="45.65745" lon="6.87604">
        <ele>2402.4</ele>
        <time>2016-05-06T10:38:03Z</time>
      </trkpt>
      <trkpt lat="45.65745" lon="6.87603">
        <ele>2402.4</ele>
        <time>2016-05-06T10:38:05Z</time>
      </trkpt>
      <trkpt lat="45.65745" lon="6.87603">
        <ele>2402.9</ele>
        <time>2016-05-06T10:38:07Z</time>
      </trkpt>
      <trkpt lat="45.65744" lon="6.87603">
        <ele>2402</ele>
        <time>2016-05-06T10:38:09Z</time>
      </trkpt>
      <trkpt lat="45.65745" lon="6.87603">
        <ele>2402.4</ele>
        <time>2016-05-06T10:38:11Z</time>
      </trkpt>
      <trkpt lat="45.65744" lon="6.87604">
        <ele>2399.8</ele>
        <time>2016-05-06T10:38:13Z</time>
      </trkpt>
      <trkpt lat="45.65744" lon="6.87603">
        <ele>2400.5</ele>
        <time>2016-05-06T10:38:15Z</time>
      </trkpt>
      <trkpt lat="45.65745" lon="6.87604">
        <ele>2402</ele>
        <time>2016-05-06T10:38:17Z</time>
      </trkpt>
      <trkpt lat="45.65745" lon="6.87604">
        <ele>2402.6</ele>
        <time>2016-05-06T10:38:19Z</time>
      </trkpt>
      <trkpt lat="45.65746" lon="6.87604">
        <ele>2402.6</ele>
        <time>2016-05-06T10:38:21Z</time>
      </trkpt>
      <trkpt lat="45.65746" lon="6.87605">
        <ele>2402.8</ele>
        <time>2016-05-06T10:38:23Z</time>
      </trkpt>
      <trkpt lat="45.65746" lon="6.87604">
        <ele>2402.9</ele>
        <time>2016-05-06T10:38:25Z</time>
      </trkpt>
      <trkpt lat="45.65747" lon="6.87605">
        <ele>2402.9</ele>
        <time>2016-05-06T10:38:27Z</time>
      </trkpt>
      <trkpt lat="45.65747" lon="6.87605">
        <ele>2402.9</ele>
        <time>2016-05-06T10:38:29Z</time>
      </trkpt>
      <trkpt lat="45.65746" lon="6.87604">
        <ele>2402.5</ele>
        <time>2016-05-06T10:38:31Z</time>
      </trkpt>
      <trkpt lat="45.65746" lon="6.87604">
        <ele>2402.9</ele>
        <time>2016-05-06T10:38:33Z</time>
      </trkpt>
      <trkpt lat="45.65746" lon="6.87604">
        <ele>2403</ele>
        <time>2016-05-06T10:38:35Z</time>
      </trkpt>
      <trkpt lat="45.65745" lon="6.87604">
        <ele>2403.4</ele>
        <time>2016-05-06T10:38:37Z</time>
      </trkpt>
      <trkpt lat="45.65746" lon="6.87603">
        <ele>2403.4</ele>
        <time>2016-05-06T10:38:39Z</time>
      </trkpt>
      <trkpt lat="45.65746" lon="6.87603">
        <ele>2403.6</ele>
        <time>2016-05-06T10:38:41Z</time>
      </trkpt>
      <trkpt lat="45.65746" lon="6.87603">
        <ele>2404.5</ele>
        <time>2016-05-06T10:38:43Z</time>
      </trkpt>
      <trkpt lat="45.65746" lon="6.87603">
        <ele>2405</ele>
        <time>2016-05-06T10:38:45Z</time>
      </trkpt>
      <trkpt lat="45.65745" lon="6.87603">
        <ele>2404.4</ele>
        <time>2016-05-06T10:38:47Z</time>
      </trkpt>
      <trkpt lat="45.65745" lon="6.87603">
        <ele>2404.2</ele>
        <time>2016-05-06T10:38:49Z</time>
      </trkpt>
      <trkpt lat="45.65745" lon="6.87603">
        <ele>2404</ele>
        <time>2016-05-06T10:38:51Z</time>
      </trkpt>
      <trkpt lat="45.65745" lon="6.87602">
        <ele>2403.9</ele>
        <time>2016-05-06T10:38:53Z</time>
      </trkpt>
      <trkpt lat="45.65745" lon="6.87602">
        <ele>2403.4</ele>
        <time>2016-05-06T10:38:55Z</time>
      </trkpt>
      <trkpt lat="45.65745" lon="6.87603">
        <ele>2403.3</ele>
        <time>2016-05-06T10:38:57Z</time>
      </trkpt>
      <trkpt lat="45.65744" lon="6.87603">
        <ele>2403.4</ele>
        <time>2016-05-06T10:38:59Z</time>
      </trkpt>
      <trkpt lat="45.65743" lon="6.87602">
        <ele>2403.1</ele>
        <time>2016-05-06T10:39:01Z</time>
      </trkpt>
      <trkpt lat="45.65743" lon="6.87602">
        <ele>2403.5</ele>
        <time>2016-05-06T10:39:03Z</time>
      </trkpt>
      <trkpt lat="45.65743" lon="6.87601">
        <ele>2403.2</ele>
        <time>2016-05-06T10:39:05Z</time>
      </trkpt>
      <trkpt lat="45.65744" lon="6.87601">
        <ele>2403.4</ele>
        <time>2016-05-06T10:39:07Z</time>
      </trkpt>
      <trkpt lat="45.65744" lon="6.87602">
        <ele>2404</ele>
        <time>2016-05-06T10:39:09Z</time>
      </trkpt>
      <trkpt lat="45.65743" lon="6.87602">
        <ele>2403.8</ele>
        <time>2016-05-06T10:39:11Z</time>
      </trkpt>
      <trkpt lat="45.65743" lon="6.87603">
        <ele>2403.8</ele>
        <time>2016-05-06T10:39:13Z</time>
      </trkpt>
      <trkpt lat="45.65744" lon="6.87603">
        <ele>2403.7</ele>
        <time>2016-05-06T10:39:15Z</time>
      </trkpt>
      <trkpt lat="45.65744" lon="6.87603">
        <ele>2403.7</ele>
        <time>2016-05-06T10:39:17Z</time>
      </trkpt>
      <trkpt lat="45.65745" lon="6.87604">
        <ele>2403.8</ele>
        <time>2016-05-06T10:39:19Z</time>
      </trkpt>
      <trkpt lat="45.65746" lon="6.87605">
        <ele>2403.6</ele>
        <time>2016-05-06T10:39:21Z</time>
      </trkpt>
      <trkpt lat="45.65746" lon="6.87605">
        <ele>2403.6</ele>
        <time>2016-05-06T10:39:23Z</time>
      </trkpt>
      <trkpt lat="45.65746" lon="6.87605">
        <ele>2403</ele>
        <time>2016-05-06T10:39:25Z</time>
      </trkpt>
      <trkpt lat="45.65746" lon="6.87605">
        <ele>2403.2</ele>
        <time>2016-05-06T10:39:27Z</time>
      </trkpt>
      <trkpt lat="45.65746" lon="6.87604">
        <ele>2403.4</ele>
        <time>2016-05-06T10:39:29Z</time>
      </trkpt>
      <trkpt lat="45.65746" lon="6.87605">
        <ele>2403.7</ele>
        <time>2016-05-06T10:39:31Z</time>
      </trkpt>
      <trkpt lat="45.65745" lon="6.87605">
        <ele>2404</ele>
        <time>2016-05-06T10:39:33Z</time>
      </trkpt>
      <trkpt lat="45.65745" lon="6.87605">
        <ele>2404.1</ele>
        <time>2016-05-06T10:39:35Z</time>
      </trkpt>
      <trkpt lat="45.65744" lon="6.87605">
        <ele>2404.2</ele>
        <time>2016-05-06T10:39:37Z</time>
      </trkpt>
      <trkpt lat="45.65744" lon="6.87604">
        <ele>2404.4</ele>
        <time>2016-05-06T10:39:39Z</time>
      </trkpt>
      <trkpt lat="45.65744" lon="6.87604">
        <ele>2404.5</ele>
        <time>2016-05-06T10:39:41Z</time>
      </trkpt>
      <trkpt lat="45.65744" lon="6.87604">
        <ele>2404.5</ele>
        <time>2016-05-06T10:39:43Z</time>
      </trkpt>
      <trkpt lat="45.65743" lon="6.87604">
        <ele>2404.2</ele>
        <time>2016-05-06T10:39:45Z</time>
      </trkpt>
      <trkpt lat="45.65743" lon="6.87605">
        <ele>2404</ele>
        <time>2016-05-06T10:39:47Z</time>
      </trkpt>
      <trkpt lat="45.65742" lon="6.87605">
        <ele>2403.8</ele>
        <time>2016-05-06T10:39:49Z</time>
      </trkpt>
      <trkpt lat="45.65742" lon="6.87605">
        <ele>2403.7</ele>
        <time>2016-05-06T10:39:51Z</time>
      </trkpt>
      <trkpt lat="45.65742" lon="6.87604">
        <ele>2403.5</ele>
        <time>2016-05-06T10:39:53Z</time>
      </trkpt>
      <trkpt lat="45.65743" lon="6.87605">
        <ele>2403.1</ele>
        <time>2016-05-06T10:39:55Z</time>
      </trkpt>
      <trkpt lat="45.65744" lon="6.87604">
        <ele>2403.6</ele>
        <time>2016-05-06T10:39:57Z</time>
      </trkpt>
      <trkpt lat="45.65745" lon="6.87603">
        <ele>2403.9</ele>
        <time>2016-05-06T10:39:59Z</time>
      </trkpt>
      <trkpt lat="45.65745" lon="6.87603">
        <ele>2403.8</ele>
        <time>2016-05-06T10:40:01Z</time>
      </trkpt>
      <trkpt lat="45.65745" lon="6.87603">
        <ele>2403.7</ele>
        <time>2016-05-06T10:40:03Z</time>
      </trkpt>
      <trkpt lat="45.65745" lon="6.87603">
        <ele>2403.7</ele>
        <time>2016-05-06T10:40:05Z</time>
      </trkpt>
      <trkpt lat="45.65746" lon="6.87603">
        <ele>2403.6</ele>
        <time>2016-05-06T10:40:07Z</time>
      </trkpt>
      <trkpt lat="45.65746" lon="6.87603">
        <ele>2403.6</ele>
        <time>2016-05-06T10:40:09Z</time>
      </trkpt>
      <trkpt lat="45.65745" lon="6.87603">
        <ele>2403.3</ele>
        <time>2016-05-06T10:40:11Z</time>
      </trkpt>
      <trkpt lat="45.65745" lon="6.87602">
        <ele>2403.2</ele>
        <time>2016-05-06T10:40:13Z</time>
      </trkpt>
      <trkpt lat="45.65745" lon="6.87603">
        <ele>2403.3</ele>
        <time>2016-05-06T10:40:15Z</time>
      </trkpt>
      <trkpt lat="45.65745" lon="6.87603">
        <ele>2403.1</ele>
        <time>2016-05-06T10:40:17Z</time>
      </trkpt>
      <trkpt lat="45.65745" lon="6.87603">
        <ele>2403.3</ele>
        <time>2016-05-06T10:40:19Z</time>
      </trkpt>
      <trkpt lat="45.65745" lon="6.87603">
        <ele>2403.2</ele>
        <time>2016-05-06T10:40:21Z</time>
      </trkpt>
      <trkpt lat="45.65745" lon="6.87602">
        <ele>2403</ele>
        <time>2016-05-06T10:40:23Z</time>
      </trkpt>
      <trkpt lat="45.65745" lon="6.87602">
        <ele>2402.7</ele>
        <time>2016-05-06T10:40:25Z</time>
      </trkpt>
      <trkpt lat="45.65745" lon="6.87602">
        <ele>2402.6</ele>
        <time>2016-05-06T10:40:27Z</time>
      </trkpt>
      <trkpt lat="45.65745" lon="6.87601">
        <ele>2402.4</ele>
        <time>2016-05-06T10:40:29Z</time>
      </trkpt>
      <trkpt lat="45.65744" lon="6.87601">
        <ele>2402.6</ele>
        <time>2016-05-06T10:40:31Z</time>
      </trkpt>
      <trkpt lat="45.65743" lon="6.87601">
        <ele>2402.9</ele>
        <time>2016-05-06T10:40:33Z</time>
      </trkpt>
      <trkpt lat="45.65743" lon="6.87602">
        <ele>2402.9</ele>
        <time>2016-05-06T10:40:35Z</time>
      </trkpt>
      <trkpt lat="45.65743" lon="6.87602">
        <ele>2403.1</ele>
        <time>2016-05-06T10:40:37Z</time>
      </trkpt>
      <trkpt lat="45.65743" lon="6.87602">
        <ele>2403</ele>
        <time>2016-05-06T10:40:39Z</time>
      </trkpt>
      <trkpt lat="45.65743" lon="6.87602">
        <ele>2403.2</ele>
        <time>2016-05-06T10:40:41Z</time>
      </trkpt>
      <trkpt lat="45.65743" lon="6.87601">
        <ele>2403.3</ele>
        <time>2016-05-06T10:40:43Z</time>
      </trkpt>
      <trkpt lat="45.65742" lon="6.87601">
        <ele>2403.3</ele>
        <time>2016-05-06T10:40:45Z</time>
      </trkpt>
      <trkpt lat="45.65742" lon="6.876">
        <ele>2403.7</ele>
        <time>2016-05-06T10:40:47Z</time>
      </trkpt>
      <trkpt lat="45.65741" lon="6.87599">
        <ele>2403.3</ele>
        <time>2016-05-06T10:40:49Z</time>
      </trkpt>
      <trkpt lat="45.65741" lon="6.87597">
        <ele>2402.9</ele>
        <time>2016-05-06T10:40:51Z</time>
      </trkpt>
      <trkpt lat="45.65741" lon="6.87597">
        <ele>2403.2</ele>
        <time>2016-05-06T10:40:53Z</time>
      </trkpt>
      <trkpt lat="45.65741" lon="6.87597">
        <ele>2403.1</ele>
        <time>2016-05-06T10:40:55Z</time>
      </trkpt>
      <trkpt lat="45.65742" lon="6.87597">
        <ele>2403.3</ele>
        <time>2016-05-06T10:40:57Z</time>
      </trkpt>
      <trkpt lat="45.65742" lon="6.87597">
        <ele>2403.8</ele>
        <time>2016-05-06T10:40:59Z</time>
      </trkpt>
      <trkpt lat="45.65742" lon="6.87598">
        <ele>2404.2</ele>
        <time>2016-05-06T10:41:01Z</time>
      </trkpt>
      <trkpt lat="45.65742" lon="6.87598">
        <ele>2404.2</ele>
        <time>2016-05-06T10:41:03Z</time>
      </trkpt>
      <trkpt lat="45.65742" lon="6.87598">
        <ele>2404.6</ele>
        <time>2016-05-06T10:41:05Z</time>
      </trkpt>
      <trkpt lat="45.65743" lon="6.876">
        <ele>2405</ele>
        <time>2016-05-06T10:41:07Z</time>
      </trkpt>
      <trkpt lat="45.65743" lon="6.87599">
        <ele>2404.4</ele>
        <time>2016-05-06T10:41:09Z</time>
      </trkpt>
      <trkpt lat="45.65744" lon="6.87599">
        <ele>2404</ele>
        <time>2016-05-06T10:41:11Z</time>
      </trkpt>
      <trkpt lat="45.65744" lon="6.876">
        <ele>2403.7</ele>
        <time>2016-05-06T10:41:13Z</time>
      </trkpt>
      <trkpt lat="45.65744" lon="6.876">
        <ele>2403.4</ele>
        <time>2016-05-06T10:41:15Z</time>
      </trkpt>
      <trkpt lat="45.65744" lon="6.87601">
        <ele>2403.5</ele>
        <time>2016-05-06T10:41:17Z</time>
      </trkpt>
      <trkpt lat="45.65744" lon="6.87601">
        <ele>2403.7</ele>
        <time>2016-05-06T10:41:19Z</time>
      </trkpt>
      <trkpt lat="45.65744" lon="6.87601">
        <ele>2403.6</ele>
        <time>2016-05-06T10:41:21Z</time>
      </trkpt>
      <trkpt lat="45.65744" lon="6.87602">
        <ele>2404</ele>
        <time>2016-05-06T10:41:23Z</time>
      </trkpt>
      <trkpt lat="45.65744" lon="6.87602">
        <ele>2404.1</ele>
        <time>2016-05-06T10:41:25Z</time>
      </trkpt>
      <trkpt lat="45.65744" lon="6.87602">
        <ele>2404.1</ele>
        <time>2016-05-06T10:41:27Z</time>
      </trkpt>
      <trkpt lat="45.65744" lon="6.87602">
        <ele>2403.9</ele>
        <time>2016-05-06T10:41:29Z</time>
      </trkpt>
      <trkpt lat="45.65744" lon="6.87603">
        <ele>2403.9</ele>
        <time>2016-05-06T10:41:31Z</time>
      </trkpt>
      <trkpt lat="45.65743" lon="6.87605">
        <ele>2404</ele>
        <time>2016-05-06T10:41:33Z</time>
      </trkpt>
      <trkpt lat="45.65743" lon="6.87607">
        <ele>2404.3</ele>
        <time>2016-05-06T10:41:35Z</time>
      </trkpt>
      <trkpt lat="45.65742" lon="6.87609">
        <ele>2404.3</ele>
        <time>2016-05-06T10:41:37Z</time>
      </trkpt>
      <trkpt lat="45.65741" lon="6.87612">
        <ele>2404.3</ele>
        <time>2016-05-06T10:41:39Z</time>
      </trkpt>
      <trkpt lat="45.6574" lon="6.87614">
        <ele>2404.3</ele>
        <time>2016-05-06T10:41:41Z</time>
      </trkpt>
      <trkpt lat="45.65741" lon="6.87614">
        <ele>2404.2</ele>
        <time>2016-05-06T10:41:43Z</time>
      </trkpt>
      <trkpt lat="45.65741" lon="6.87614">
        <ele>2404.6</ele>
        <time>2016-05-06T10:41:45Z</time>
      </trkpt>
      <trkpt lat="45.65741" lon="6.87614">
        <ele>2404.9</ele>
        <time>2016-05-06T10:41:47Z</time>
      </trkpt>
      <trkpt lat="45.65741" lon="6.87614">
        <ele>2404.6</ele>
        <time>2016-05-06T10:41:49Z</time>
      </trkpt>
      <trkpt lat="45.65741" lon="6.87614">
        <ele>2404.7</ele>
        <time>2016-05-06T10:41:51Z</time>
      </trkpt>
      <trkpt lat="45.65741" lon="6.87614">
        <ele>2405.1</ele>
        <time>2016-05-06T10:41:53Z</time>
      </trkpt>
      <trkpt lat="45.65741" lon="6.87614">
        <ele>2405.2</ele>
        <time>2016-05-06T10:41:55Z</time>
      </trkpt>
      <trkpt lat="45.6574" lon="6.87616">
        <ele>2405.6</ele>
        <time>2016-05-06T10:41:57Z</time>
      </trkpt>
      <trkpt lat="45.65739" lon="6.87618">
        <ele>2406.2</ele>
        <time>2016-05-06T10:41:59Z</time>
      </trkpt>
      <trkpt lat="45.65737" lon="6.87621">
        <ele>2405.4</ele>
        <time>2016-05-06T10:42:01Z</time>
      </trkpt>
      <trkpt lat="45.65737" lon="6.87624">
        <ele>2404.5</ele>
        <time>2016-05-06T10:42:03Z</time>
      </trkpt>
      <trkpt lat="45.65736" lon="6.87628">
        <ele>2403.8</ele>
        <time>2016-05-06T10:42:05Z</time>
      </trkpt>
      <trkpt lat="45.65736" lon="6.87634">
        <ele>2403.7</ele>
        <time>2016-05-06T10:42:07Z</time>
      </trkpt>
      <trkpt lat="45.65736" lon="6.87642">
        <ele>2402.5</ele>
        <time>2016-05-06T10:42:09Z</time>
      </trkpt>
      <trkpt lat="45.65737" lon="6.8765">
        <ele>2401.3</ele>
        <time>2016-05-06T10:42:11Z</time>
      </trkpt>
      <trkpt lat="45.65736" lon="6.87659">
        <ele>2400.4</ele>
        <time>2016-05-06T10:42:13Z</time>
      </trkpt>
      <trkpt lat="45.65738" lon="6.87671">
        <ele>2398.4</ele>
        <time>2016-05-06T10:42:15Z</time>
      </trkpt>
      <trkpt lat="45.65742" lon="6.87683">
        <ele>2396.6</ele>
        <time>2016-05-06T10:42:17Z</time>
      </trkpt>
      <trkpt lat="45.65745" lon="6.87696">
        <ele>2393.9</ele>
        <time>2016-05-06T10:42:19Z</time>
      </trkpt>
      <trkpt lat="45.65747" lon="6.87708">
        <ele>2392.5</ele>
        <time>2016-05-06T10:42:21Z</time>
      </trkpt>
      <trkpt lat="45.6575" lon="6.87721">
        <ele>2390.2</ele>
        <time>2016-05-06T10:42:23Z</time>
      </trkpt>
      <trkpt lat="45.65755" lon="6.87733">
        <ele>2387.6</ele>
        <time>2016-05-06T10:42:25Z</time>
      </trkpt>
      <trkpt lat="45.65761" lon="6.87744">
        <ele>2384.4</ele>
        <time>2016-05-06T10:42:27Z</time>
      </trkpt>
      <trkpt lat="45.65768" lon="6.87753">
        <ele>2381.3</ele>
        <time>2016-05-06T10:42:29Z</time>
      </trkpt>
      <trkpt lat="45.65776" lon="6.87761">
        <ele>2379.7</ele>
        <time>2016-05-06T10:42:31Z</time>
      </trkpt>
      <trkpt lat="45.65781" lon="6.87756">
        <ele>2377.8</ele>
        <time>2016-05-06T10:42:33Z</time>
      </trkpt>
      <trkpt lat="45.65788" lon="6.87749">
        <ele>2375.7</ele>
        <time>2016-05-06T10:42:35Z</time>
      </trkpt>
      <trkpt lat="45.65792" lon="6.87736">
        <ele>2372</ele>
        <time>2016-05-06T10:42:37Z</time>
      </trkpt>
      <trkpt lat="45.65795" lon="6.87722">
        <ele>2369.3</ele>
        <time>2016-05-06T10:42:39Z</time>
      </trkpt>
      <trkpt lat="45.65794" lon="6.87706">
        <ele>2367</ele>
        <time>2016-05-06T10:42:41Z</time>
      </trkpt>
      <trkpt lat="45.65795" lon="6.8769">
        <ele>2363</ele>
        <time>2016-05-06T10:42:43Z</time>
      </trkpt>
      <trkpt lat="45.65801" lon="6.87682">
        <ele>2360.4</ele>
        <time>2016-05-06T10:42:45Z</time>
      </trkpt>
      <trkpt lat="45.65808" lon="6.8768">
        <ele>2358.2</ele>
        <time>2016-05-06T10:42:47Z</time>
      </trkpt>
      <trkpt lat="45.65809" lon="6.8769">
        <ele>2355.6</ele>
        <time>2016-05-06T10:42:49Z</time>
      </trkpt>
      <trkpt lat="45.65808" lon="6.87691">
        <ele>2354.4</ele>
        <time>2016-05-06T10:42:51Z</time>
      </trkpt>
      <trkpt lat="45.65809" lon="6.87691">
        <ele>2353</ele>
        <time>2016-05-06T10:42:53Z</time>
      </trkpt>
      <trkpt lat="45.65808" lon="6.87691">
        <ele>2351.9</ele>
        <time>2016-05-06T10:42:55Z</time>
      </trkpt>
      <trkpt lat="45.65807" lon="6.87691">
        <ele>2351.2</ele>
        <time>2016-05-06T10:42:57Z</time>
      </trkpt>
      <trkpt lat="45.65807" lon="6.87691">
        <ele>2350.9</ele>
        <time>2016-05-06T10:42:59Z</time>
      </trkpt>
      <trkpt lat="45.65808" lon="6.87692">
        <ele>2351</ele>
        <time>2016-05-06T10:43:01Z</time>
      </trkpt>
      <trkpt lat="45.65808" lon="6.87692">
        <ele>2351</ele>
        <time>2016-05-06T10:43:03Z</time>
      </trkpt>
      <trkpt lat="45.65808" lon="6.87692">
        <ele>2351.1</ele>
        <time>2016-05-06T10:43:05Z</time>
      </trkpt>
      <trkpt lat="45.65808" lon="6.87692">
        <ele>2351.1</ele>
        <time>2016-05-06T10:43:07Z</time>
      </trkpt>
      <trkpt lat="45.65808" lon="6.87692">
        <ele>2351.2</ele>
        <time>2016-05-06T10:43:09Z</time>
      </trkpt>
      <trkpt lat="45.65808" lon="6.87692">
        <ele>2351.3</ele>
        <time>2016-05-06T10:43:11Z</time>
      </trkpt>
      <trkpt lat="45.65808" lon="6.87692">
        <ele>2351.2</ele>
        <time>2016-05-06T10:43:13Z</time>
      </trkpt>
      <trkpt lat="45.65808" lon="6.87693">
        <ele>2350.4</ele>
        <time>2016-05-06T10:43:15Z</time>
      </trkpt>
      <trkpt lat="45.65811" lon="6.87699">
        <ele>2349.9</ele>
        <time>2016-05-06T10:43:17Z</time>
      </trkpt>
      <trkpt lat="45.65815" lon="6.87713">
        <ele>2350.6</ele>
        <time>2016-05-06T10:43:19Z</time>
      </trkpt>
      <trkpt lat="45.65822" lon="6.87734">
        <ele>2347.8</ele>
        <time>2016-05-06T10:43:21Z</time>
      </trkpt>
      <trkpt lat="45.65826" lon="6.87748">
        <ele>2346.3</ele>
        <time>2016-05-06T10:43:23Z</time>
      </trkpt>
      <trkpt lat="45.65835" lon="6.8776">
        <ele>2342.6</ele>
        <time>2016-05-06T10:43:25Z</time>
      </trkpt>
      <trkpt lat="45.65838" lon="6.87778">
        <ele>2339.6</ele>
        <time>2016-05-06T10:43:27Z</time>
      </trkpt>
      <trkpt lat="45.6584" lon="6.87796">
        <ele>2336.8</ele>
        <time>2016-05-06T10:43:29Z</time>
      </trkpt>
      <trkpt lat="45.65845" lon="6.87814">
        <ele>2332</ele>
        <time>2016-05-06T10:43:31Z</time>
      </trkpt>
      <trkpt lat="45.65848" lon="6.87835">
        <ele>2327.6</ele>
        <time>2016-05-06T10:43:33Z</time>
      </trkpt>
      <trkpt lat="45.65855" lon="6.87857">
        <ele>2324.3</ele>
        <time>2016-05-06T10:43:35Z</time>
      </trkpt>
      <trkpt lat="45.65869" lon="6.87873">
        <ele>2320.7</ele>
        <time>2016-05-06T10:43:37Z</time>
      </trkpt>
      <trkpt lat="45.65886" lon="6.87887">
        <ele>2315.2</ele>
        <time>2016-05-06T10:43:39Z</time>
      </trkpt>
      <trkpt lat="45.65906" lon="6.87894">
        <ele>2309.7</ele>
        <time>2016-05-06T10:43:41Z</time>
      </trkpt>
      <trkpt lat="45.65925" lon="6.87905">
        <ele>2304.7</ele>
        <time>2016-05-06T10:43:43Z</time>
      </trkpt>
      <trkpt lat="45.65945" lon="6.87918">
        <ele>2295.8</ele>
        <time>2016-05-06T10:43:45Z</time>
      </trkpt>
      <trkpt lat="45.65967" lon="6.87934">
        <ele>2289.6</ele>
        <time>2016-05-06T10:43:47Z</time>
      </trkpt>
      <trkpt lat="45.65991" lon="6.87953">
        <ele>2280.6</ele>
        <time>2016-05-06T10:43:49Z</time>
      </trkpt>
      <trkpt lat="45.66016" lon="6.87973">
        <ele>2272.5</ele>
        <time>2016-05-06T10:43:51Z</time>
      </trkpt>
      <trkpt lat="45.6604" lon="6.87995">
        <ele>2263.5</ele>
        <time>2016-05-06T10:43:53Z</time>
      </trkpt>
      <trkpt lat="45.66066" lon="6.88015">
        <ele>2255.2</ele>
        <time>2016-05-06T10:43:55Z</time>
      </trkpt>
      <trkpt lat="45.66089" lon="6.88027">
        <ele>2248.9</ele>
        <time>2016-05-06T10:43:57Z</time>
      </trkpt>
      <trkpt lat="45.66109" lon="6.88022">
        <ele>2244.9</ele>
        <time>2016-05-06T10:43:59Z</time>
      </trkpt>
      <trkpt lat="45.66121" lon="6.88009">
        <ele>2242.4</ele>
        <time>2016-05-06T10:44:01Z</time>
      </trkpt>
      <trkpt lat="45.66126" lon="6.87996">
        <ele>2239.9</ele>
        <time>2016-05-06T10:44:03Z</time>
      </trkpt>
      <trkpt lat="45.66129" lon="6.87988">
        <ele>2237.8</ele>
        <time>2016-05-06T10:44:05Z</time>
      </trkpt>
      <trkpt lat="45.66131" lon="6.87984">
        <ele>2236.4</ele>
        <time>2016-05-06T10:44:07Z</time>
      </trkpt>
      <trkpt lat="45.66132" lon="6.87984">
        <ele>2235.6</ele>
        <time>2016-05-06T10:44:09Z</time>
      </trkpt>
      <trkpt lat="45.66132" lon="6.87983">
        <ele>2234.8</ele>
        <time>2016-05-06T10:44:11Z</time>
      </trkpt>
      <trkpt lat="45.66132" lon="6.87982">
        <ele>2234.4</ele>
        <time>2016-05-06T10:44:13Z</time>
      </trkpt>
      <trkpt lat="45.66133" lon="6.87981">
        <ele>2234.2</ele>
        <time>2016-05-06T10:44:15Z</time>
      </trkpt>
      <trkpt lat="45.66132" lon="6.87979">
        <ele>2234</ele>
        <time>2016-05-06T10:44:17Z</time>
      </trkpt>
      <trkpt lat="45.66132" lon="6.87977">
        <ele>2233.5</ele>
        <time>2016-05-06T10:44:19Z</time>
      </trkpt>
      <trkpt lat="45.66133" lon="6.87973">
        <ele>2233.3</ele>
        <time>2016-05-06T10:44:21Z</time>
      </trkpt>
      <trkpt lat="45.66134" lon="6.8797">
        <ele>2233.2</ele>
        <time>2016-05-06T10:44:23Z</time>
      </trkpt>
      <trkpt lat="45.66136" lon="6.87966">
        <ele>2233.3</ele>
        <time>2016-05-06T10:44:25Z</time>
      </trkpt>
      <trkpt lat="45.66138" lon="6.87964">
        <ele>2233.6</ele>
        <time>2016-05-06T10:44:27Z</time>
      </trkpt>
      <trkpt lat="45.6614" lon="6.87961">
        <ele>2233.7</ele>
        <time>2016-05-06T10:44:29Z</time>
      </trkpt>
      <trkpt lat="45.66142" lon="6.87959">
        <ele>2233.7</ele>
        <time>2016-05-06T10:44:31Z</time>
      </trkpt>
      <trkpt lat="45.66144" lon="6.87958">
        <ele>2233.9</ele>
        <time>2016-05-06T10:44:33Z</time>
      </trkpt>
      <trkpt lat="45.66146" lon="6.87957">
        <ele>2233.9</ele>
        <time>2016-05-06T10:44:35Z</time>
      </trkpt>
      <trkpt lat="45.66149" lon="6.87957">
        <ele>2232.4</ele>
        <time>2016-05-06T10:44:37Z</time>
      </trkpt>
      <trkpt lat="45.66149" lon="6.87957">
        <ele>2232.8</ele>
        <time>2016-05-06T10:44:39Z</time>
      </trkpt>
      <trkpt lat="45.66149" lon="6.87957">
        <ele>2233.6</ele>
        <time>2016-05-06T10:44:41Z</time>
      </trkpt>
      <trkpt lat="45.66149" lon="6.87957">
        <ele>2234.1</ele>
        <time>2016-05-06T10:44:43Z</time>
      </trkpt>
      <trkpt lat="45.66149" lon="6.87957">
        <ele>2234.4</ele>
        <time>2016-05-06T10:44:45Z</time>
      </trkpt>
      <trkpt lat="45.66149" lon="6.87956">
        <ele>2234.2</ele>
        <time>2016-05-06T10:44:47Z</time>
      </trkpt>
      <trkpt lat="45.66149" lon="6.87957">
        <ele>2234.2</ele>
        <time>2016-05-06T10:44:49Z</time>
      </trkpt>
      <trkpt lat="45.66149" lon="6.87957">
        <ele>2234</ele>
        <time>2016-05-06T10:44:51Z</time>
      </trkpt>
      <trkpt lat="45.6615" lon="6.87957">
        <ele>2234</ele>
        <time>2016-05-06T10:44:53Z</time>
      </trkpt>
      <trkpt lat="45.6615" lon="6.87957">
        <ele>2234</ele>
        <time>2016-05-06T10:44:55Z</time>
      </trkpt>
      <trkpt lat="45.66149" lon="6.87957">
        <ele>2234.1</ele>
        <time>2016-05-06T10:44:57Z</time>
      </trkpt>
      <trkpt lat="45.66149" lon="6.87957">
        <ele>2234.1</ele>
        <time>2016-05-06T10:44:59Z</time>
      </trkpt>
      <trkpt lat="45.66149" lon="6.87957">
        <ele>2234.2</ele>
        <time>2016-05-06T10:45:01Z</time>
      </trkpt>
      <trkpt lat="45.66149" lon="6.87957">
        <ele>2234.2</ele>
        <time>2016-05-06T10:45:03Z</time>
      </trkpt>
      <trkpt lat="45.66149" lon="6.87958">
        <ele>2234.3</ele>
        <time>2016-05-06T10:45:05Z</time>
      </trkpt>
      <trkpt lat="45.66149" lon="6.87957">
        <ele>2234.3</ele>
        <time>2016-05-06T10:45:07Z</time>
      </trkpt>
      <trkpt lat="45.66149" lon="6.87957">
        <ele>2234.3</ele>
        <time>2016-05-06T10:45:09Z</time>
      </trkpt>
      <trkpt lat="45.66149" lon="6.87957">
        <ele>2234.4</ele>
        <time>2016-05-06T10:45:11Z</time>
      </trkpt>
      <trkpt lat="45.66149" lon="6.87957">
        <ele>2234.2</ele>
        <time>2016-05-06T10:45:13Z</time>
      </trkpt>
      <trkpt lat="45.66149" lon="6.87957">
        <ele>2234.2</ele>
        <time>2016-05-06T10:45:15Z</time>
      </trkpt>
      <trkpt lat="45.66149" lon="6.87956">
        <ele>2234.1</ele>
        <time>2016-05-06T10:45:17Z</time>
      </trkpt>
      <trkpt lat="45.66149" lon="6.87956">
        <ele>2234.4</ele>
        <time>2016-05-06T10:45:19Z</time>
      </trkpt>
      <trkpt lat="45.66149" lon="6.87956">
        <ele>2234.3</ele>
        <time>2016-05-06T10:45:21Z</time>
      </trkpt>
      <trkpt lat="45.66149" lon="6.87956">
        <ele>2234.2</ele>
        <time>2016-05-06T10:45:23Z</time>
      </trkpt>
      <trkpt lat="45.66149" lon="6.87956">
        <ele>2234.3</ele>
        <time>2016-05-06T10:45:25Z</time>
      </trkpt>
      <trkpt lat="45.66149" lon="6.87956">
        <ele>2234.3</ele>
        <time>2016-05-06T10:45:27Z</time>
      </trkpt>
      <trkpt lat="45.66149" lon="6.87956">
        <ele>2234.3</ele>
        <time>2016-05-06T10:45:29Z</time>
      </trkpt>
      <trkpt lat="45.66149" lon="6.87956">
        <ele>2233.3</ele>
        <time>2016-05-06T10:45:31Z</time>
      </trkpt>
      <trkpt lat="45.66149" lon="6.87956">
        <ele>2234</ele>
        <time>2016-05-06T10:45:33Z</time>
      </trkpt>
      <trkpt lat="45.66149" lon="6.87956">
        <ele>2234.1</ele>
        <time>2016-05-06T10:45:35Z</time>
      </trkpt>
      <trkpt lat="45.6615" lon="6.87956">
        <ele>2234.2</ele>
        <time>2016-05-06T10:45:37Z</time>
      </trkpt>
      <trkpt lat="45.6615" lon="6.87956">
        <ele>2234.4</ele>
        <time>2016-05-06T10:45:39Z</time>
      </trkpt>
      <trkpt lat="45.66152" lon="6.87955">
        <ele>2234.4</ele>
        <time>2016-05-06T10:45:41Z</time>
      </trkpt>
      <trkpt lat="45.66154" lon="6.87954">
        <ele>2234.6</ele>
        <time>2016-05-06T10:45:43Z</time>
      </trkpt>
      <trkpt lat="45.66157" lon="6.87954">
        <ele>2234.8</ele>
        <time>2016-05-06T10:45:45Z</time>
      </trkpt>
      <trkpt lat="45.6616" lon="6.87957">
        <ele>2235</ele>
        <time>2016-05-06T10:45:47Z</time>
      </trkpt>
      <trkpt lat="45.66162" lon="6.87959">
        <ele>2235.1</ele>
        <time>2016-05-06T10:45:49Z</time>
      </trkpt>
      <trkpt lat="45.66163" lon="6.8796">
        <ele>2235.2</ele>
        <time>2016-05-06T10:45:51Z</time>
      </trkpt>
      <trkpt lat="45.66164" lon="6.87961">
        <ele>2235.1</ele>
        <time>2016-05-06T10:45:53Z</time>
      </trkpt>
      <trkpt lat="45.66166" lon="6.87962">
        <ele>2235</ele>
        <time>2016-05-06T10:45:55Z</time>
      </trkpt>
      <trkpt lat="45.66166" lon="6.87962">
        <ele>2234.6</ele>
        <time>2016-05-06T10:45:57Z</time>
      </trkpt>
      <trkpt lat="45.66166" lon="6.87962">
        <ele>2234.4</ele>
        <time>2016-05-06T10:45:59Z</time>
      </trkpt>
      <trkpt lat="45.66166" lon="6.87963">
        <ele>2234.4</ele>
        <time>2016-05-06T10:46:01Z</time>
      </trkpt>
      <trkpt lat="45.66166" lon="6.87963">
        <ele>2234.5</ele>
        <time>2016-05-06T10:46:03Z</time>
      </trkpt>
      <trkpt lat="45.66166" lon="6.87963">
        <ele>2234.5</ele>
        <time>2016-05-06T10:46:05Z</time>
      </trkpt>
      <trkpt lat="45.66166" lon="6.87963">
        <ele>2234.5</ele>
        <time>2016-05-06T10:46:07Z</time>
      </trkpt>
      <trkpt lat="45.66166" lon="6.87963">
        <ele>2234.4</ele>
        <time>2016-05-06T10:46:09Z</time>
      </trkpt>
      <trkpt lat="45.66165" lon="6.87963">
        <ele>2234.3</ele>
        <time>2016-05-06T10:46:11Z</time>
      </trkpt>
      <trkpt lat="45.66165" lon="6.87963">
        <ele>2234.1</ele>
        <time>2016-05-06T10:46:13Z</time>
      </trkpt>
      <trkpt lat="45.66165" lon="6.87962">
        <ele>2234.4</ele>
        <time>2016-05-06T10:46:15Z</time>
      </trkpt>
      <trkpt lat="45.66165" lon="6.87962">
        <ele>2234.6</ele>
        <time>2016-05-06T10:46:17Z</time>
      </trkpt>
      <trkpt lat="45.66166" lon="6.87962">
        <ele>2234.7</ele>
        <time>2016-05-06T10:46:19Z</time>
      </trkpt>
      <trkpt lat="45.66166" lon="6.87962">
        <ele>2234.9</ele>
        <time>2016-05-06T10:46:21Z</time>
      </trkpt>
      <trkpt lat="45.66166" lon="6.87962">
        <ele>2234.9</ele>
        <time>2016-05-06T10:46:23Z</time>
      </trkpt>
      <trkpt lat="45.66166" lon="6.87962">
        <ele>2234.9</ele>
        <time>2016-05-06T10:46:25Z</time>
      </trkpt>
      <trkpt lat="45.66166" lon="6.87962">
        <ele>2234.9</ele>
        <time>2016-05-06T10:46:27Z</time>
      </trkpt>
      <trkpt lat="45.66166" lon="6.87961">
        <ele>2234.8</ele>
        <time>2016-05-06T10:46:29Z</time>
      </trkpt>
      <trkpt lat="45.66166" lon="6.87962">
        <ele>2234.8</ele>
        <time>2016-05-06T10:46:31Z</time>
      </trkpt>
      <trkpt lat="45.66166" lon="6.87962">
        <ele>2234.8</ele>
        <time>2016-05-06T10:46:33Z</time>
      </trkpt>
      <trkpt lat="45.66166" lon="6.87962">
        <ele>2234.8</ele>
        <time>2016-05-06T10:46:35Z</time>
      </trkpt>
      <trkpt lat="45.66167" lon="6.87962">
        <ele>2234.8</ele>
        <time>2016-05-06T10:46:37Z</time>
      </trkpt>
      <trkpt lat="45.66168" lon="6.87963">
        <ele>2234.8</ele>
        <time>2016-05-06T10:46:39Z</time>
      </trkpt>
      <trkpt lat="45.66171" lon="6.87964">
        <ele>2234.9</ele>
        <time>2016-05-06T10:46:41Z</time>
      </trkpt>
      <trkpt lat="45.66177" lon="6.87966">
        <ele>2235</ele>
        <time>2016-05-06T10:46:43Z</time>
      </trkpt>
      <trkpt lat="45.66186" lon="6.87971">
        <ele>2234.2</ele>
        <time>2016-05-06T10:46:45Z</time>
      </trkpt>
      <trkpt lat="45.66194" lon="6.87973">
        <ele>2233.8</ele>
        <time>2016-05-06T10:46:47Z</time>
      </trkpt>
      <trkpt lat="45.662" lon="6.87969">
        <ele>2232.8</ele>
        <time>2016-05-06T10:46:49Z</time>
      </trkpt>
      <trkpt lat="45.66204" lon="6.87961">
        <ele>2231.7</ele>
        <time>2016-05-06T10:46:51Z</time>
      </trkpt>
      <trkpt lat="45.66206" lon="6.87951">
        <ele>2230.7</ele>
        <time>2016-05-06T10:46:53Z</time>
      </trkpt>
      <trkpt lat="45.66207" lon="6.87942">
        <ele>2229.8</ele>
        <time>2016-05-06T10:46:55Z</time>
      </trkpt>
      <trkpt lat="45.66208" lon="6.87932">
        <ele>2229.1</ele>
        <time>2016-05-06T10:46:57Z</time>
      </trkpt>
      <trkpt lat="45.66209" lon="6.87923">
        <ele>2228.6</ele>
        <time>2016-05-06T10:46:59Z</time>
      </trkpt>
      <trkpt lat="45.66211" lon="6.87915">
        <ele>2228</ele>
        <time>2016-05-06T10:47:01Z</time>
      </trkpt>
      <trkpt lat="45.66212" lon="6.87907">
        <ele>2227.5</ele>
        <time>2016-05-06T10:47:03Z</time>
      </trkpt>
      <trkpt lat="45.66215" lon="6.879">
        <ele>2227.4</ele>
        <time>2016-05-06T10:47:05Z</time>
      </trkpt>
      <trkpt lat="45.66219" lon="6.87892">
        <ele>2226.9</ele>
        <time>2016-05-06T10:47:07Z</time>
      </trkpt>
      <trkpt lat="45.66223" lon="6.87886">
        <ele>2226.6</ele>
        <time>2016-05-06T10:47:09Z</time>
      </trkpt>
      <trkpt lat="45.66227" lon="6.87885">
        <ele>2226.5</ele>
        <time>2016-05-06T10:47:11Z</time>
      </trkpt>
      <trkpt lat="45.66227" lon="6.87885">
        <ele>2226.2</ele>
        <time>2016-05-06T10:47:13Z</time>
      </trkpt>
      <trkpt lat="45.66228" lon="6.87884">
        <ele>2226.1</ele>
        <time>2016-05-06T10:47:15Z</time>
      </trkpt>
      <trkpt lat="45.66228" lon="6.87885">
        <ele>2225.2</ele>
        <time>2016-05-06T10:47:17Z</time>
      </trkpt>
      <trkpt lat="45.66228" lon="6.87885">
        <ele>2224.5</ele>
        <time>2016-05-06T10:47:19Z</time>
      </trkpt>
      <trkpt lat="45.66228" lon="6.87885">
        <ele>2225.1</ele>
        <time>2016-05-06T10:47:21Z</time>
      </trkpt>
      <trkpt lat="45.66228" lon="6.87886">
        <ele>2225.2</ele>
        <time>2016-05-06T10:47:23Z</time>
      </trkpt>
      <trkpt lat="45.66228" lon="6.87886">
        <ele>2225.4</ele>
        <time>2016-05-06T10:47:25Z</time>
      </trkpt>
      <trkpt lat="45.66228" lon="6.87887">
        <ele>2225.5</ele>
        <time>2016-05-06T10:47:27Z</time>
      </trkpt>
      <trkpt lat="45.66228" lon="6.87887">
        <ele>2225.4</ele>
        <time>2016-05-06T10:47:29Z</time>
      </trkpt>
      <trkpt lat="45.66228" lon="6.87887">
        <ele>2225.4</ele>
        <time>2016-05-06T10:47:31Z</time>
      </trkpt>
      <trkpt lat="45.66228" lon="6.87887">
        <ele>2225.3</ele>
        <time>2016-05-06T10:47:33Z</time>
      </trkpt>
      <trkpt lat="45.66228" lon="6.87887">
        <ele>2225.4</ele>
        <time>2016-05-06T10:47:35Z</time>
      </trkpt>
      <trkpt lat="45.66228" lon="6.87887">
        <ele>2225.5</ele>
        <time>2016-05-06T10:47:37Z</time>
      </trkpt>
      <trkpt lat="45.66228" lon="6.87887">
        <ele>2225.4</ele>
        <time>2016-05-06T10:47:39Z</time>
      </trkpt>
      <trkpt lat="45.66228" lon="6.87886">
        <ele>2225.5</ele>
        <time>2016-05-06T10:47:41Z</time>
      </trkpt>
      <trkpt lat="45.66228" lon="6.87886">
        <ele>2225.5</ele>
        <time>2016-05-06T10:47:43Z</time>
      </trkpt>
      <trkpt lat="45.66229" lon="6.87886">
        <ele>2225.2</ele>
        <time>2016-05-06T10:47:45Z</time>
      </trkpt>
      <trkpt lat="45.66229" lon="6.87886">
        <ele>2225.2</ele>
        <time>2016-05-06T10:47:47Z</time>
      </trkpt>
      <trkpt lat="45.66229" lon="6.87886">
        <ele>2225.3</ele>
        <time>2016-05-06T10:47:49Z</time>
      </trkpt>
      <trkpt lat="45.66229" lon="6.87886">
        <ele>2225.3</ele>
        <time>2016-05-06T10:47:51Z</time>
      </trkpt>
      <trkpt lat="45.66229" lon="6.87886">
        <ele>2225.2</ele>
        <time>2016-05-06T10:47:53Z</time>
      </trkpt>
      <trkpt lat="45.6623" lon="6.87886">
        <ele>2225.2</ele>
        <time>2016-05-06T10:47:55Z</time>
      </trkpt>
      <trkpt lat="45.66229" lon="6.87886">
        <ele>2225.2</ele>
        <time>2016-05-06T10:47:57Z</time>
      </trkpt>
      <trkpt lat="45.66229" lon="6.87887">
        <ele>2225.2</ele>
        <time>2016-05-06T10:47:59Z</time>
      </trkpt>
      <trkpt lat="45.66229" lon="6.87887">
        <ele>2225.2</ele>
        <time>2016-05-06T10:48:01Z</time>
      </trkpt>
      <trkpt lat="45.66229" lon="6.87887">
        <ele>2225.2</ele>
        <time>2016-05-06T10:48:03Z</time>
      </trkpt>
      <trkpt lat="45.66229" lon="6.87887">
        <ele>2225.3</ele>
        <time>2016-05-06T10:48:05Z</time>
      </trkpt>
      <trkpt lat="45.66229" lon="6.87887">
        <ele>2225.3</ele>
        <time>2016-05-06T10:48:07Z</time>
      </trkpt>
      <trkpt lat="45.66229" lon="6.87887">
        <ele>2225.4</ele>
        <time>2016-05-06T10:48:09Z</time>
      </trkpt>
      <trkpt lat="45.66229" lon="6.87887">
        <ele>2225.3</ele>
        <time>2016-05-06T10:48:11Z</time>
      </trkpt>
      <trkpt lat="45.66229" lon="6.87887">
        <ele>2225.3</ele>
        <time>2016-05-06T10:48:13Z</time>
      </trkpt>
      <trkpt lat="45.66229" lon="6.87887">
        <ele>2225.2</ele>
        <time>2016-05-06T10:48:15Z</time>
      </trkpt>
      <trkpt lat="45.66229" lon="6.87887">
        <ele>2225.2</ele>
        <time>2016-05-06T10:48:17Z</time>
      </trkpt>
      <trkpt lat="45.66229" lon="6.87887">
        <ele>2225.3</ele>
        <time>2016-05-06T10:48:19Z</time>
      </trkpt>
      <trkpt lat="45.66229" lon="6.87887">
        <ele>2225.3</ele>
        <time>2016-05-06T10:48:21Z</time>
      </trkpt>
      <trkpt lat="45.66229" lon="6.87887">
        <ele>2225.4</ele>
        <time>2016-05-06T10:48:23Z</time>
      </trkpt>
      <trkpt lat="45.66229" lon="6.87887">
        <ele>2225.2</ele>
        <time>2016-05-06T10:48:25Z</time>
      </trkpt>
      <trkpt lat="45.66229" lon="6.87887">
        <ele>2225.2</ele>
        <time>2016-05-06T10:48:27Z</time>
      </trkpt>
      <trkpt lat="45.66229" lon="6.87887">
        <ele>2225.3</ele>
        <time>2016-05-06T10:48:29Z</time>
      </trkpt>
      <trkpt lat="45.66229" lon="6.87885">
        <ele>2225.5</ele>
        <time>2016-05-06T10:48:31Z</time>
      </trkpt>
      <trkpt lat="45.66233" lon="6.87881">
        <ele>2225.5</ele>
        <time>2016-05-06T10:48:33Z</time>
      </trkpt>
      <trkpt lat="45.66242" lon="6.87872">
        <ele>2225.7</ele>
        <time>2016-05-06T10:48:35Z</time>
      </trkpt>
      <trkpt lat="45.66254" lon="6.87859">
        <ele>2224.8</ele>
        <time>2016-05-06T10:48:37Z</time>
      </trkpt>
      <trkpt lat="45.66269" lon="6.87844">
        <ele>2221.7</ele>
        <time>2016-05-06T10:48:39Z</time>
      </trkpt>
      <trkpt lat="45.66286" lon="6.8783">
        <ele>2219.9</ele>
        <time>2016-05-06T10:48:41Z</time>
      </trkpt>
      <trkpt lat="45.66302" lon="6.87816">
        <ele>2217.3</ele>
        <time>2016-05-06T10:48:43Z</time>
      </trkpt>
      <trkpt lat="45.66317" lon="6.87799">
        <ele>2215.2</ele>
        <time>2016-05-06T10:48:45Z</time>
      </trkpt>
      <trkpt lat="45.66327" lon="6.87777">
        <ele>2213</ele>
        <time>2016-05-06T10:48:47Z</time>
      </trkpt>
      <trkpt lat="45.66337" lon="6.87754">
        <ele>2211.7</ele>
        <time>2016-05-06T10:48:49Z</time>
      </trkpt>
      <trkpt lat="45.66348" lon="6.87733">
        <ele>2209.9</ele>
        <time>2016-05-06T10:48:51Z</time>
      </trkpt>
      <trkpt lat="45.66356" lon="6.87715">
        <ele>2208.2</ele>
        <time>2016-05-06T10:48:53Z</time>
      </trkpt>
      <trkpt lat="45.66361" lon="6.87697">
        <ele>2206.5</ele>
        <time>2016-05-06T10:48:55Z</time>
      </trkpt>
      <trkpt lat="45.66367" lon="6.87677">
        <ele>2204.9</ele>
        <time>2016-05-06T10:48:57Z</time>
      </trkpt>
      <trkpt lat="45.66368" lon="6.87658">
        <ele>2202.7</ele>
        <time>2016-05-06T10:48:59Z</time>
      </trkpt>
      <trkpt lat="45.66366" lon="6.87646">
        <ele>2200.7</ele>
        <time>2016-05-06T10:49:01Z</time>
      </trkpt>
      <trkpt lat="45.66366" lon="6.87637">
        <ele>2199.7</ele>
        <time>2016-05-06T10:49:03Z</time>
      </trkpt>
      <trkpt lat="45.66368" lon="6.87631">
        <ele>2199.4</ele>
        <time>2016-05-06T10:49:05Z</time>
      </trkpt>
      <trkpt lat="45.66371" lon="6.87626">
        <ele>2199.5</ele>
        <time>2016-05-06T10:49:07Z</time>
      </trkpt>
      <trkpt lat="45.66373" lon="6.87621">
        <ele>2199.4</ele>
        <time>2016-05-06T10:49:09Z</time>
      </trkpt>
      <trkpt lat="45.66376" lon="6.87615">
        <ele>2199.5</ele>
        <time>2016-05-06T10:49:11Z</time>
      </trkpt>
      <trkpt lat="45.66381" lon="6.87604">
        <ele>2199.4</ele>
        <time>2016-05-06T10:49:13Z</time>
      </trkpt>
      <trkpt lat="45.66386" lon="6.87592">
        <ele>2199.3</ele>
        <time>2016-05-06T10:49:15Z</time>
      </trkpt>
      <trkpt lat="45.66391" lon="6.8758">
        <ele>2199</ele>
        <time>2016-05-06T10:49:17Z</time>
      </trkpt>
      <trkpt lat="45.66398" lon="6.87567">
        <ele>2199</ele>
        <time>2016-05-06T10:49:19Z</time>
      </trkpt>
      <trkpt lat="45.66405" lon="6.87554">
        <ele>2199</ele>
        <time>2016-05-06T10:49:21Z</time>
      </trkpt>
      <trkpt lat="45.66414" lon="6.8754">
        <ele>2198.9</ele>
        <time>2016-05-06T10:49:23Z</time>
      </trkpt>
      <trkpt lat="45.66422" lon="6.8752">
        <ele>2197</ele>
        <time>2016-05-06T10:49:25Z</time>
      </trkpt>
      <trkpt lat="45.66428" lon="6.87502">
        <ele>2195</ele>
        <time>2016-05-06T10:49:27Z</time>
      </trkpt>
      <trkpt lat="45.66433" lon="6.87484">
        <ele>2193.3</ele>
        <time>2016-05-06T10:49:29Z</time>
      </trkpt>
      <trkpt lat="45.66436" lon="6.87464">
        <ele>2191.2</ele>
        <time>2016-05-06T10:49:31Z</time>
      </trkpt>
      <trkpt lat="45.66437" lon="6.8745">
        <ele>2189.7</ele>
        <time>2016-05-06T10:49:33Z</time>
      </trkpt>
      <trkpt lat="45.66439" lon="6.87438">
        <ele>2188.5</ele>
        <time>2016-05-06T10:49:35Z</time>
      </trkpt>
      <trkpt lat="45.66441" lon="6.87429">
        <ele>2187.6</ele>
        <time>2016-05-06T10:49:37Z</time>
      </trkpt>
      <trkpt lat="45.66443" lon="6.8742">
        <ele>2186.7</ele>
        <time>2016-05-06T10:49:39Z</time>
      </trkpt>
      <trkpt lat="45.66444" lon="6.87412">
        <ele>2185.9</ele>
        <time>2016-05-06T10:49:41Z</time>
      </trkpt>
      <trkpt lat="45.66446" lon="6.87404">
        <ele>2185.2</ele>
        <time>2016-05-06T10:49:43Z</time>
      </trkpt>
      <trkpt lat="45.66448" lon="6.87395">
        <ele>2184.9</ele>
        <time>2016-05-06T10:49:45Z</time>
      </trkpt>
      <trkpt lat="45.66451" lon="6.87387">
        <ele>2184.7</ele>
        <time>2016-05-06T10:49:47Z</time>
      </trkpt>
      <trkpt lat="45.66453" lon="6.87381">
        <ele>2184.4</ele>
        <time>2016-05-06T10:49:49Z</time>
      </trkpt>
      <trkpt lat="45.66456" lon="6.87376">
        <ele>2184.1</ele>
        <time>2016-05-06T10:49:51Z</time>
      </trkpt>
      <trkpt lat="45.6646" lon="6.87372">
        <ele>2184.2</ele>
        <time>2016-05-06T10:49:53Z</time>
      </trkpt>
      <trkpt lat="45.66465" lon="6.87369">
        <ele>2184.2</ele>
        <time>2016-05-06T10:49:55Z</time>
      </trkpt>
      <trkpt lat="45.66469" lon="6.87366">
        <ele>2184.2</ele>
        <time>2016-05-06T10:49:57Z</time>
      </trkpt>
      <trkpt lat="45.66474" lon="6.87364">
        <ele>2183.9</ele>
        <time>2016-05-06T10:49:59Z</time>
      </trkpt>
      <trkpt lat="45.66478" lon="6.87362">
        <ele>2183.7</ele>
        <time>2016-05-06T10:50:01Z</time>
      </trkpt>
      <trkpt lat="45.66483" lon="6.87358">
        <ele>2183.9</ele>
        <time>2016-05-06T10:50:03Z</time>
      </trkpt>
      <trkpt lat="45.66489" lon="6.87355">
        <ele>2183.9</ele>
        <time>2016-05-06T10:50:05Z</time>
      </trkpt>
      <trkpt lat="45.66494" lon="6.87352">
        <ele>2184.3</ele>
        <time>2016-05-06T10:50:07Z</time>
      </trkpt>
      <trkpt lat="45.66497" lon="6.8735">
        <ele>2184.8</ele>
        <time>2016-05-06T10:50:09Z</time>
      </trkpt>
      <trkpt lat="45.66501" lon="6.87348">
        <ele>2184.9</ele>
        <time>2016-05-06T10:50:11Z</time>
      </trkpt>
      <trkpt lat="45.66505" lon="6.87347">
        <ele>2184.8</ele>
        <time>2016-05-06T10:50:13Z</time>
      </trkpt>
      <trkpt lat="45.66509" lon="6.87345">
        <ele>2184.6</ele>
        <time>2016-05-06T10:50:15Z</time>
      </trkpt>
      <trkpt lat="45.66512" lon="6.87343">
        <ele>2184.2</ele>
        <time>2016-05-06T10:50:17Z</time>
      </trkpt>
      <trkpt lat="45.66514" lon="6.87342">
        <ele>2183.7</ele>
        <time>2016-05-06T10:50:19Z</time>
      </trkpt>
      <trkpt lat="45.66515" lon="6.87342">
        <ele>2183.1</ele>
        <time>2016-05-06T10:50:21Z</time>
      </trkpt>
      <trkpt lat="45.66515" lon="6.87342">
        <ele>2182.7</ele>
        <time>2016-05-06T10:50:23Z</time>
      </trkpt>
      <trkpt lat="45.66515" lon="6.87342">
        <ele>2182.6</ele>
        <time>2016-05-06T10:50:25Z</time>
      </trkpt>
      <trkpt lat="45.66515" lon="6.87342">
        <ele>2182.5</ele>
        <time>2016-05-06T10:50:27Z</time>
      </trkpt>
      <trkpt lat="45.66515" lon="6.87342">
        <ele>2182.5</ele>
        <time>2016-05-06T10:50:29Z</time>
      </trkpt>
      <trkpt lat="45.66515" lon="6.87342">
        <ele>2182.3</ele>
        <time>2016-05-06T10:50:31Z</time>
      </trkpt>
      <trkpt lat="45.66515" lon="6.87341">
        <ele>2182.1</ele>
        <time>2016-05-06T10:50:33Z</time>
      </trkpt>
      <trkpt lat="45.66515" lon="6.87343">
        <ele>2181.6</ele>
        <time>2016-05-06T10:50:35Z</time>
      </trkpt>
      <trkpt lat="45.66515" lon="6.87343">
        <ele>2181.2</ele>
        <time>2016-05-06T10:50:37Z</time>
      </trkpt>
      <trkpt lat="45.66515" lon="6.87344">
        <ele>2181.1</ele>
        <time>2016-05-06T10:50:39Z</time>
      </trkpt>
      <trkpt lat="45.66515" lon="6.87344">
        <ele>2181.1</ele>
        <time>2016-05-06T10:50:41Z</time>
      </trkpt>
      <trkpt lat="45.66515" lon="6.87344">
        <ele>2180.9</ele>
        <time>2016-05-06T10:50:43Z</time>
      </trkpt>
      <trkpt lat="45.66515" lon="6.87345">
        <ele>2180.7</ele>
        <time>2016-05-06T10:50:45Z</time>
      </trkpt>
      <trkpt lat="45.66515" lon="6.87345">
        <ele>2180.4</ele>
        <time>2016-05-06T10:50:47Z</time>
      </trkpt>
      <trkpt lat="45.66515" lon="6.87344">
        <ele>2180.2</ele>
        <time>2016-05-06T10:50:49Z</time>
      </trkpt>
      <trkpt lat="45.66514" lon="6.87345">
        <ele>2179.9</ele>
        <time>2016-05-06T10:50:51Z</time>
      </trkpt>
      <trkpt lat="45.66515" lon="6.87345">
        <ele>2180.2</ele>
        <time>2016-05-06T10:50:53Z</time>
      </trkpt>
      <trkpt lat="45.66515" lon="6.87345">
        <ele>2180.4</ele>
        <time>2016-05-06T10:50:55Z</time>
      </trkpt>
      <trkpt lat="45.66515" lon="6.87345">
        <ele>2180.4</ele>
        <time>2016-05-06T10:50:57Z</time>
      </trkpt>
      <trkpt lat="45.66514" lon="6.87345">
        <ele>2180.6</ele>
        <time>2016-05-06T10:50:59Z</time>
      </trkpt>
      <trkpt lat="45.66514" lon="6.87345">
        <ele>2180.8</ele>
        <time>2016-05-06T10:51:01Z</time>
      </trkpt>
      <trkpt lat="45.66514" lon="6.87345">
        <ele>2180.7</ele>
        <time>2016-05-06T10:51:03Z</time>
      </trkpt>
      <trkpt lat="45.66514" lon="6.87345">
        <ele>2180.4</ele>
        <time>2016-05-06T10:51:05Z</time>
      </trkpt>
      <trkpt lat="45.66514" lon="6.87346">
        <ele>2180.3</ele>
        <time>2016-05-06T10:51:07Z</time>
      </trkpt>
      <trkpt lat="45.66513" lon="6.87346">
        <ele>2180.1</ele>
        <time>2016-05-06T10:51:09Z</time>
      </trkpt>
      <trkpt lat="45.66513" lon="6.87346">
        <ele>2179.8</ele>
        <time>2016-05-06T10:51:11Z</time>
      </trkpt>
      <trkpt lat="45.66513" lon="6.87346">
        <ele>2179.7</ele>
        <time>2016-05-06T10:51:13Z</time>
      </trkpt>
      <trkpt lat="45.66513" lon="6.87346">
        <ele>2179.8</ele>
        <time>2016-05-06T10:51:15Z</time>
      </trkpt>
      <trkpt lat="45.66513" lon="6.87346">
        <ele>2179.7</ele>
        <time>2016-05-06T10:51:17Z</time>
      </trkpt>
      <trkpt lat="45.66513" lon="6.87346">
        <ele>2179.8</ele>
        <time>2016-05-06T10:51:19Z</time>
      </trkpt>
      <trkpt lat="45.66513" lon="6.87346">
        <ele>2180</ele>
        <time>2016-05-06T10:51:21Z</time>
      </trkpt>
      <trkpt lat="45.66513" lon="6.87346">
        <ele>2180</ele>
        <time>2016-05-06T10:51:23Z</time>
      </trkpt>
      <trkpt lat="45.66513" lon="6.87345">
        <ele>2179.8</ele>
        <time>2016-05-06T10:51:25Z</time>
      </trkpt>
      <trkpt lat="45.66513" lon="6.87345">
        <ele>2179.7</ele>
        <time>2016-05-06T10:51:27Z</time>
      </trkpt>
      <trkpt lat="45.66513" lon="6.87345">
        <ele>2180.1</ele>
        <time>2016-05-06T10:51:29Z</time>
      </trkpt>
      <trkpt lat="45.66513" lon="6.87345">
        <ele>2181.1</ele>
        <time>2016-05-06T10:51:31Z</time>
      </trkpt>
      <trkpt lat="45.66514" lon="6.87344">
        <ele>2181.5</ele>
        <time>2016-05-06T10:51:33Z</time>
      </trkpt>
      <trkpt lat="45.66513" lon="6.87344">
        <ele>2181.9</ele>
        <time>2016-05-06T10:51:35Z</time>
      </trkpt>
      <trkpt lat="45.66514" lon="6.87344">
        <ele>2181.6</ele>
        <time>2016-05-06T10:51:37Z</time>
      </trkpt>
      <trkpt lat="45.66514" lon="6.87344">
        <ele>2181.9</ele>
        <time>2016-05-06T10:51:39Z</time>
      </trkpt>
      <trkpt lat="45.66514" lon="6.87343">
        <ele>2181.9</ele>
        <time>2016-05-06T10:51:41Z</time>
      </trkpt>
      <trkpt lat="45.66514" lon="6.87343">
        <ele>2182.1</ele>
        <time>2016-05-06T10:51:43Z</time>
      </trkpt>
      <trkpt lat="45.66514" lon="6.87342">
        <ele>2182.8</ele>
        <time>2016-05-06T10:51:45Z</time>
      </trkpt>
      <trkpt lat="45.66514" lon="6.87342">
        <ele>2182.7</ele>
        <time>2016-05-06T10:51:47Z</time>
      </trkpt>
      <trkpt lat="45.66514" lon="6.87342">
        <ele>2182.5</ele>
        <time>2016-05-06T10:51:49Z</time>
      </trkpt>
      <trkpt lat="45.66514" lon="6.87342">
        <ele>2182.1</ele>
        <time>2016-05-06T10:51:51Z</time>
      </trkpt>
      <trkpt lat="45.66514" lon="6.87342">
        <ele>2183.1</ele>
        <time>2016-05-06T10:51:53Z</time>
      </trkpt>
      <trkpt lat="45.66515" lon="6.87343">
        <ele>2181.4</ele>
        <time>2016-05-06T10:51:55Z</time>
      </trkpt>
      <trkpt lat="45.66515" lon="6.87341">
        <ele>2182.5</ele>
        <time>2016-05-06T10:51:57Z</time>
      </trkpt>
      <trkpt lat="45.66515" lon="6.87341">
        <ele>2182.7</ele>
        <time>2016-05-06T10:51:59Z</time>
      </trkpt>
      <trkpt lat="45.66515" lon="6.87341">
        <ele>2182.3</ele>
        <time>2016-05-06T10:52:01Z</time>
      </trkpt>
      <trkpt lat="45.66515" lon="6.87341">
        <ele>2181.8</ele>
        <time>2016-05-06T10:52:03Z</time>
      </trkpt>
      <trkpt lat="45.66515" lon="6.87342">
        <ele>2181.3</ele>
        <time>2016-05-06T10:52:05Z</time>
      </trkpt>
      <trkpt lat="45.66515" lon="6.87342">
        <ele>2181</ele>
        <time>2016-05-06T10:52:07Z</time>
      </trkpt>
      <trkpt lat="45.66515" lon="6.87342">
        <ele>2180.7</ele>
        <time>2016-05-06T10:52:09Z</time>
      </trkpt>
      <trkpt lat="45.66515" lon="6.87342">
        <ele>2180.6</ele>
        <time>2016-05-06T10:52:11Z</time>
      </trkpt>
      <trkpt lat="45.66515" lon="6.87342">
        <ele>2180.3</ele>
        <time>2016-05-06T10:52:13Z</time>
      </trkpt>
      <trkpt lat="45.66515" lon="6.87343">
        <ele>2180.2</ele>
        <time>2016-05-06T10:52:15Z</time>
      </trkpt>
      <trkpt lat="45.66515" lon="6.87343">
        <ele>2180.2</ele>
        <time>2016-05-06T10:52:17Z</time>
      </trkpt>
      <trkpt lat="45.66515" lon="6.87343">
        <ele>2180.1</ele>
        <time>2016-05-06T10:52:19Z</time>
      </trkpt>
      <trkpt lat="45.66514" lon="6.87343">
        <ele>2180</ele>
        <time>2016-05-06T10:52:21Z</time>
      </trkpt>
      <trkpt lat="45.66514" lon="6.87343">
        <ele>2180.1</ele>
        <time>2016-05-06T10:52:23Z</time>
      </trkpt>
      <trkpt lat="45.66514" lon="6.87343">
        <ele>2180.2</ele>
        <time>2016-05-06T10:52:25Z</time>
      </trkpt>
      <trkpt lat="45.66514" lon="6.87343">
        <ele>2180.3</ele>
        <time>2016-05-06T10:52:27Z</time>
      </trkpt>
      <trkpt lat="45.66514" lon="6.87343">
        <ele>2180.4</ele>
        <time>2016-05-06T10:52:29Z</time>
      </trkpt>
      <trkpt lat="45.66514" lon="6.87343">
        <ele>2180.3</ele>
        <time>2016-05-06T10:52:31Z</time>
      </trkpt>
      <trkpt lat="45.66514" lon="6.87343">
        <ele>2180</ele>
        <time>2016-05-06T10:52:33Z</time>
      </trkpt>
      <trkpt lat="45.66514" lon="6.87343">
        <ele>2179.9</ele>
        <time>2016-05-06T10:52:35Z</time>
      </trkpt>
      <trkpt lat="45.66514" lon="6.87343">
        <ele>2179.9</ele>
        <time>2016-05-06T10:52:37Z</time>
      </trkpt>
      <trkpt lat="45.66514" lon="6.87342">
        <ele>2180.2</ele>
        <time>2016-05-06T10:52:39Z</time>
      </trkpt>
      <trkpt lat="45.66514" lon="6.87342">
        <ele>2180.4</ele>
        <time>2016-05-06T10:52:41Z</time>
      </trkpt>
      <trkpt lat="45.66513" lon="6.87342">
        <ele>2180.4</ele>
        <time>2016-05-06T10:52:43Z</time>
      </trkpt>
      <trkpt lat="45.66513" lon="6.87342">
        <ele>2180.3</ele>
        <time>2016-05-06T10:52:45Z</time>
      </trkpt>
      <trkpt lat="45.66513" lon="6.87343">
        <ele>2180</ele>
        <time>2016-05-06T10:52:47Z</time>
      </trkpt>
      <trkpt lat="45.66513" lon="6.87343">
        <ele>2179.8</ele>
        <time>2016-05-06T10:52:49Z</time>
      </trkpt>
      <trkpt lat="45.66513" lon="6.87343">
        <ele>2180</ele>
        <time>2016-05-06T10:52:51Z</time>
      </trkpt>
      <trkpt lat="45.66513" lon="6.87342">
        <ele>2179.7</ele>
        <time>2016-05-06T10:52:53Z</time>
      </trkpt>
      <trkpt lat="45.66513" lon="6.87343">
        <ele>2179.7</ele>
        <time>2016-05-06T10:52:55Z</time>
      </trkpt>
      <trkpt lat="45.66513" lon="6.87342">
        <ele>2179.6</ele>
        <time>2016-05-06T10:52:57Z</time>
      </trkpt>
      <trkpt lat="45.66513" lon="6.87342">
        <ele>2179.7</ele>
        <time>2016-05-06T10:52:59Z</time>
      </trkpt>
      <trkpt lat="45.66513" lon="6.87342">
        <ele>2179.8</ele>
        <time>2016-05-06T10:53:01Z</time>
      </trkpt>
      <trkpt lat="45.66513" lon="6.87342">
        <ele>2179.8</ele>
        <time>2016-05-06T10:53:03Z</time>
      </trkpt>
      <trkpt lat="45.66513" lon="6.87342">
        <ele>2179.7</ele>
        <time>2016-05-06T10:53:05Z</time>
      </trkpt>
      <trkpt lat="45.66513" lon="6.87342">
        <ele>2179.6</ele>
        <time>2016-05-06T10:53:07Z</time>
      </trkpt>
      <trkpt lat="45.66513" lon="6.87342">
        <ele>2179.8</ele>
        <time>2016-05-06T10:53:09Z</time>
      </trkpt>
      <trkpt lat="45.66513" lon="6.87342">
        <ele>2179.9</ele>
        <time>2016-05-06T10:53:11Z</time>
      </trkpt>
      <trkpt lat="45.66513" lon="6.87342">
        <ele>2180</ele>
        <time>2016-05-06T10:53:13Z</time>
      </trkpt>
      <trkpt lat="45.66513" lon="6.87342">
        <ele>2180.1</ele>
        <time>2016-05-06T10:53:15Z</time>
      </trkpt>
      <trkpt lat="45.66512" lon="6.87343">
        <ele>2179.8</ele>
        <time>2016-05-06T10:53:17Z</time>
      </trkpt>
      <trkpt lat="45.66512" lon="6.87342">
        <ele>2179.9</ele>
        <time>2016-05-06T10:53:19Z</time>
      </trkpt>
      <trkpt lat="45.66511" lon="6.87343">
        <ele>2179.9</ele>
        <time>2016-05-06T10:53:21Z</time>
      </trkpt>
      <trkpt lat="45.66511" lon="6.87343">
        <ele>2180</ele>
        <time>2016-05-06T10:53:23Z</time>
      </trkpt>
      <trkpt lat="45.66511" lon="6.87342">
        <ele>2180.1</ele>
        <time>2016-05-06T10:53:25Z</time>
      </trkpt>
      <trkpt lat="45.66512" lon="6.87343">
        <ele>2180.2</ele>
        <time>2016-05-06T10:53:27Z</time>
      </trkpt>
      <trkpt lat="45.66512" lon="6.87343">
        <ele>2180</ele>
        <time>2016-05-06T10:53:29Z</time>
      </trkpt>
      <trkpt lat="45.66512" lon="6.87343">
        <ele>2179.9</ele>
        <time>2016-05-06T10:53:31Z</time>
      </trkpt>
      <trkpt lat="45.66512" lon="6.87343">
        <ele>2179.8</ele>
        <time>2016-05-06T10:53:33Z</time>
      </trkpt>
      <trkpt lat="45.66512" lon="6.87343">
        <ele>2180.2</ele>
        <time>2016-05-06T10:53:35Z</time>
      </trkpt>
      <trkpt lat="45.66512" lon="6.87343">
        <ele>2180.1</ele>
        <time>2016-05-06T10:53:37Z</time>
      </trkpt>
      <trkpt lat="45.66512" lon="6.87343">
        <ele>2180</ele>
        <time>2016-05-06T10:53:39Z</time>
      </trkpt>
      <trkpt lat="45.66512" lon="6.87343">
        <ele>2180.1</ele>
        <time>2016-05-06T10:53:41Z</time>
      </trkpt>
      <trkpt lat="45.66512" lon="6.87342">
        <ele>2180.4</ele>
        <time>2016-05-06T10:53:43Z</time>
      </trkpt>
      <trkpt lat="45.66512" lon="6.87342">
        <ele>2180.1</ele>
        <time>2016-05-06T10:53:45Z</time>
      </trkpt>
      <trkpt lat="45.66512" lon="6.87342">
        <ele>2180</ele>
        <time>2016-05-06T10:53:47Z</time>
      </trkpt>
      <trkpt lat="45.66513" lon="6.87342">
        <ele>2180.3</ele>
        <time>2016-05-06T10:53:49Z</time>
      </trkpt>
      <trkpt lat="45.66513" lon="6.87342">
        <ele>2180.8</ele>
        <time>2016-05-06T10:53:51Z</time>
      </trkpt>
      <trkpt lat="45.66512" lon="6.87342">
        <ele>2180.9</ele>
        <time>2016-05-06T10:53:53Z</time>
      </trkpt>
      <trkpt lat="45.66512" lon="6.87342">
        <ele>2180.5</ele>
        <time>2016-05-06T10:53:55Z</time>
      </trkpt>
      <trkpt lat="45.66513" lon="6.87342">
        <ele>2180.2</ele>
        <time>2016-05-06T10:53:57Z</time>
      </trkpt>
      <trkpt lat="45.66513" lon="6.87342">
        <ele>2180.5</ele>
        <time>2016-05-06T10:53:59Z</time>
      </trkpt>
      <trkpt lat="45.66513" lon="6.87341">
        <ele>2180.4</ele>
        <time>2016-05-06T10:54:01Z</time>
      </trkpt>
      <trkpt lat="45.66513" lon="6.87341">
        <ele>2181.2</ele>
        <time>2016-05-06T10:54:03Z</time>
      </trkpt>
      <trkpt lat="45.66514" lon="6.87341">
        <ele>2182.9</ele>
        <time>2016-05-06T10:54:05Z</time>
      </trkpt>
      <trkpt lat="45.66515" lon="6.87341">
        <ele>2183.3</ele>
        <time>2016-05-06T10:54:07Z</time>
      </trkpt>
      <trkpt lat="45.66514" lon="6.87341">
        <ele>2183.3</ele>
        <time>2016-05-06T10:54:09Z</time>
      </trkpt>
      <trkpt lat="45.66514" lon="6.87341">
        <ele>2182.8</ele>
        <time>2016-05-06T10:54:11Z</time>
      </trkpt>
      <trkpt lat="45.66514" lon="6.87341">
        <ele>2182.5</ele>
        <time>2016-05-06T10:54:13Z</time>
      </trkpt>
      <trkpt lat="45.66514" lon="6.87341">
        <ele>2182</ele>
        <time>2016-05-06T10:54:15Z</time>
      </trkpt>
      <trkpt lat="45.66514" lon="6.87341">
        <ele>2181.6</ele>
        <time>2016-05-06T10:54:17Z</time>
      </trkpt>
      <trkpt lat="45.66514" lon="6.87341">
        <ele>2181.5</ele>
        <time>2016-05-06T10:54:19Z</time>
      </trkpt>
      <trkpt lat="45.66514" lon="6.87342">
        <ele>2181.6</ele>
        <time>2016-05-06T10:54:21Z</time>
      </trkpt>
      <trkpt lat="45.66514" lon="6.87342">
        <ele>2181.2</ele>
        <time>2016-05-06T10:54:23Z</time>
      </trkpt>
      <trkpt lat="45.66514" lon="6.87342">
        <ele>2181.5</ele>
        <time>2016-05-06T10:54:25Z</time>
      </trkpt>
      <trkpt lat="45.66514" lon="6.87342">
        <ele>2181.4</ele>
        <time>2016-05-06T10:54:27Z</time>
      </trkpt>
      <trkpt lat="45.66514" lon="6.87342">
        <ele>2181.2</ele>
        <time>2016-05-06T10:54:29Z</time>
      </trkpt>
      <trkpt lat="45.66514" lon="6.87342">
        <ele>2181.4</ele>
        <time>2016-05-06T10:54:31Z</time>
      </trkpt>
      <trkpt lat="45.66514" lon="6.87342">
        <ele>2181.7</ele>
        <time>2016-05-06T10:54:33Z</time>
      </trkpt>
      <trkpt lat="45.66515" lon="6.87342">
        <ele>2181.7</ele>
        <time>2016-05-06T10:54:35Z</time>
      </trkpt>
      <trkpt lat="45.66515" lon="6.87342">
        <ele>2181.7</ele>
        <time>2016-05-06T10:54:37Z</time>
      </trkpt>
      <trkpt lat="45.66515" lon="6.87342">
        <ele>2182</ele>
        <time>2016-05-06T10:54:39Z</time>
      </trkpt>
      <trkpt lat="45.66515" lon="6.87341">
        <ele>2182.3</ele>
        <time>2016-05-06T10:54:41Z</time>
      </trkpt>
      <trkpt lat="45.66515" lon="6.87341">
        <ele>2182.3</ele>
        <time>2016-05-06T10:54:43Z</time>
      </trkpt>
      <trkpt lat="45.66515" lon="6.87341">
        <ele>2182.5</ele>
        <time>2016-05-06T10:54:45Z</time>
      </trkpt>
      <trkpt lat="45.66515" lon="6.87341">
        <ele>2183.1</ele>
        <time>2016-05-06T10:54:47Z</time>
      </trkpt>
      <trkpt lat="45.66515" lon="6.87341">
        <ele>2183</ele>
        <time>2016-05-06T10:54:49Z</time>
      </trkpt>
      <trkpt lat="45.66516" lon="6.87341">
        <ele>2182.6</ele>
        <time>2016-05-06T10:54:51Z</time>
      </trkpt>
      <trkpt lat="45.66516" lon="6.87341">
        <ele>2182.3</ele>
        <time>2016-05-06T10:54:53Z</time>
      </trkpt>
      <trkpt lat="45.66516" lon="6.87341">
        <ele>2182.2</ele>
        <time>2016-05-06T10:54:55Z</time>
      </trkpt>
      <trkpt lat="45.66516" lon="6.87341">
        <ele>2182.3</ele>
        <time>2016-05-06T10:54:57Z</time>
      </trkpt>
      <trkpt lat="45.66516" lon="6.87341">
        <ele>2182</ele>
        <time>2016-05-06T10:54:59Z</time>
      </trkpt>
      <trkpt lat="45.66516" lon="6.87341">
        <ele>2182.1</ele>
        <time>2016-05-06T10:55:01Z</time>
      </trkpt>
      <trkpt lat="45.66515" lon="6.87342">
        <ele>2182.4</ele>
        <time>2016-05-06T10:55:03Z</time>
      </trkpt>
      <trkpt lat="45.66515" lon="6.87342">
        <ele>2182.5</ele>
        <time>2016-05-06T10:55:05Z</time>
      </trkpt>
      <trkpt lat="45.66515" lon="6.87342">
        <ele>2182.1</ele>
        <time>2016-05-06T10:55:07Z</time>
      </trkpt>
      <trkpt lat="45.66515" lon="6.87341">
        <ele>2181.9</ele>
        <time>2016-05-06T10:55:09Z</time>
      </trkpt>
      <trkpt lat="45.66514" lon="6.87341">
        <ele>2181.9</ele>
        <time>2016-05-06T10:55:11Z</time>
      </trkpt>
      <trkpt lat="45.66515" lon="6.87342">
        <ele>2181.6</ele>
        <time>2016-05-06T10:55:13Z</time>
      </trkpt>
      <trkpt lat="45.66515" lon="6.87341">
        <ele>2182.3</ele>
        <time>2016-05-06T10:55:15Z</time>
      </trkpt>
      <trkpt lat="45.66515" lon="6.87341">
        <ele>2181.9</ele>
        <time>2016-05-06T10:55:17Z</time>
      </trkpt>
      <trkpt lat="45.66515" lon="6.87341">
        <ele>2181.7</ele>
        <time>2016-05-06T10:55:19Z</time>
      </trkpt>
      <trkpt lat="45.66514" lon="6.87341">
        <ele>2181.7</ele>
        <time>2016-05-06T10:55:21Z</time>
      </trkpt>
      <trkpt lat="45.66514" lon="6.87342">
        <ele>2181.3</ele>
        <time>2016-05-06T10:55:23Z</time>
      </trkpt>
      <trkpt lat="45.66514" lon="6.87342">
        <ele>2181.5</ele>
        <time>2016-05-06T10:55:25Z</time>
      </trkpt>
      <trkpt lat="45.66513" lon="6.87343">
        <ele>2181.9</ele>
        <time>2016-05-06T10:55:27Z</time>
      </trkpt>
      <trkpt lat="45.66513" lon="6.87343">
        <ele>2181.6</ele>
        <time>2016-05-06T10:55:29Z</time>
      </trkpt>
      <trkpt lat="45.66514" lon="6.87343">
        <ele>2181.5</ele>
        <time>2016-05-06T10:55:31Z</time>
      </trkpt>
      <trkpt lat="45.66515" lon="6.87342">
        <ele>2181.3</ele>
        <time>2016-05-06T10:55:33Z</time>
      </trkpt>
      <trkpt lat="45.66514" lon="6.87343">
        <ele>2181.4</ele>
        <time>2016-05-06T10:55:35Z</time>
      </trkpt>
      <trkpt lat="45.66513" lon="6.87343">
        <ele>2181.8</ele>
        <time>2016-05-06T10:55:37Z</time>
      </trkpt>
      <trkpt lat="45.66513" lon="6.87344">
        <ele>2182.1</ele>
        <time>2016-05-06T10:55:39Z</time>
      </trkpt>
      <trkpt lat="45.66513" lon="6.87344">
        <ele>2182.2</ele>
        <time>2016-05-06T10:55:41Z</time>
      </trkpt>
      <trkpt lat="45.66514" lon="6.87344">
        <ele>2181.8</ele>
        <time>2016-05-06T10:55:43Z</time>
      </trkpt>
      <trkpt lat="45.66513" lon="6.87344">
        <ele>2181.3</ele>
        <time>2016-05-06T10:55:45Z</time>
      </trkpt>
      <trkpt lat="45.66512" lon="6.87343">
        <ele>2180.9</ele>
        <time>2016-05-06T10:55:47Z</time>
      </trkpt>
      <trkpt lat="45.66512" lon="6.87344">
        <ele>2181.5</ele>
        <time>2016-05-06T10:55:49Z</time>
      </trkpt>
      <trkpt lat="45.66513" lon="6.87343">
        <ele>2181.7</ele>
        <time>2016-05-06T10:55:51Z</time>
      </trkpt>
      <trkpt lat="45.66513" lon="6.87343">
        <ele>2181.9</ele>
        <time>2016-05-06T10:55:53Z</time>
      </trkpt>
      <trkpt lat="45.66512" lon="6.87342">
        <ele>2181.9</ele>
        <time>2016-05-06T10:55:55Z</time>
      </trkpt>
      <trkpt lat="45.66513" lon="6.87342">
        <ele>2182</ele>
        <time>2016-05-06T10:55:57Z</time>
      </trkpt>
      <trkpt lat="45.66513" lon="6.87341">
        <ele>2181.6</ele>
        <time>2016-05-06T10:55:59Z</time>
      </trkpt>
      <trkpt lat="45.66514" lon="6.8734">
        <ele>2181.6</ele>
        <time>2016-05-06T10:56:01Z</time>
      </trkpt>
      <trkpt lat="45.66514" lon="6.87339">
        <ele>2181.6</ele>
        <time>2016-05-06T10:56:03Z</time>
      </trkpt>
      <trkpt lat="45.66513" lon="6.87338">
        <ele>2181.8</ele>
        <time>2016-05-06T10:56:05Z</time>
      </trkpt>
      <trkpt lat="45.66513" lon="6.87338">
        <ele>2181.9</ele>
        <time>2016-05-06T10:56:07Z</time>
      </trkpt>
      <trkpt lat="45.66513" lon="6.87337">
        <ele>2181.8</ele>
        <time>2016-05-06T10:56:09Z</time>
      </trkpt>
      <trkpt lat="45.66513" lon="6.87337">
        <ele>2182.1</ele>
        <time>2016-05-06T10:56:11Z</time>
      </trkpt>
      <trkpt lat="45.66513" lon="6.87337">
        <ele>2182.4</ele>
        <time>2016-05-06T10:56:13Z</time>
      </trkpt>
      <trkpt lat="45.66513" lon="6.87337">
        <ele>2182.4</ele>
        <time>2016-05-06T10:56:15Z</time>
      </trkpt>
      <trkpt lat="45.66513" lon="6.87337">
        <ele>2182.7</ele>
        <time>2016-05-06T10:56:17Z</time>
      </trkpt>
      <trkpt lat="45.66513" lon="6.87338">
        <ele>2182.8</ele>
        <time>2016-05-06T10:56:19Z</time>
      </trkpt>
      <trkpt lat="45.66513" lon="6.87338">
        <ele>2182.7</ele>
        <time>2016-05-06T10:56:21Z</time>
      </trkpt>
      <trkpt lat="45.66513" lon="6.87338">
        <ele>2182.7</ele>
        <time>2016-05-06T10:56:23Z</time>
      </trkpt>
      <trkpt lat="45.66513" lon="6.87338">
        <ele>2182.7</ele>
        <time>2016-05-06T10:56:25Z</time>
      </trkpt>
      <trkpt lat="45.66513" lon="6.87338">
        <ele>2182.6</ele>
        <time>2016-05-06T10:56:27Z</time>
      </trkpt>
      <trkpt lat="45.66513" lon="6.87339">
        <ele>2182.4</ele>
        <time>2016-05-06T10:56:29Z</time>
      </trkpt>
      <trkpt lat="45.66513" lon="6.8734">
        <ele>2182.3</ele>
        <time>2016-05-06T10:56:31Z</time>
      </trkpt>
      <trkpt lat="45.66513" lon="6.8734">
        <ele>2182.4</ele>
        <time>2016-05-06T10:56:33Z</time>
      </trkpt>
      <trkpt lat="45.66513" lon="6.8734">
        <ele>2182.4</ele>
        <time>2016-05-06T10:56:35Z</time>
      </trkpt>
      <trkpt lat="45.66513" lon="6.87341">
        <ele>2182.1</ele>
        <time>2016-05-06T10:56:37Z</time>
      </trkpt>
      <trkpt lat="45.66513" lon="6.87341">
        <ele>2182.1</ele>
        <time>2016-05-06T10:56:39Z</time>
      </trkpt>
      <trkpt lat="45.66512" lon="6.87342">
        <ele>2182</ele>
        <time>2016-05-06T10:56:41Z</time>
      </trkpt>
      <trkpt lat="45.66511" lon="6.87342">
        <ele>2181.9</ele>
        <time>2016-05-06T10:56:43Z</time>
      </trkpt>
      <trkpt lat="45.66511" lon="6.87342">
        <ele>2181.6</ele>
        <time>2016-05-06T10:56:45Z</time>
      </trkpt>
      <trkpt lat="45.66511" lon="6.87343">
        <ele>2181.8</ele>
        <time>2016-05-06T10:56:47Z</time>
      </trkpt>
      <trkpt lat="45.66511" lon="6.87343">
        <ele>2182</ele>
        <time>2016-05-06T10:56:49Z</time>
      </trkpt>
      <trkpt lat="45.66511" lon="6.87343">
        <ele>2182.2</ele>
        <time>2016-05-06T10:56:51Z</time>
      </trkpt>
      <trkpt lat="45.66511" lon="6.87343">
        <ele>2182.5</ele>
        <time>2016-05-06T10:56:53Z</time>
      </trkpt>
      <trkpt lat="45.66511" lon="6.87343">
        <ele>2182.4</ele>
        <time>2016-05-06T10:56:55Z</time>
      </trkpt>
      <trkpt lat="45.66512" lon="6.87343">
        <ele>2182.4</ele>
        <time>2016-05-06T10:56:57Z</time>
      </trkpt>
      <trkpt lat="45.66513" lon="6.87343">
        <ele>2182.2</ele>
        <time>2016-05-06T10:56:59Z</time>
      </trkpt>
      <trkpt lat="45.66514" lon="6.87343">
        <ele>2182.3</ele>
        <time>2016-05-06T10:57:01Z</time>
      </trkpt>
      <trkpt lat="45.66515" lon="6.87342">
        <ele>2182.3</ele>
        <time>2016-05-06T10:57:03Z</time>
      </trkpt>
      <trkpt lat="45.66515" lon="6.87342">
        <ele>2182.1</ele>
        <time>2016-05-06T10:57:05Z</time>
      </trkpt>
      <trkpt lat="45.66516" lon="6.87342">
        <ele>2182.2</ele>
        <time>2016-05-06T10:57:07Z</time>
      </trkpt>
      <trkpt lat="45.66517" lon="6.87343">
        <ele>2182.4</ele>
        <time>2016-05-06T10:57:09Z</time>
      </trkpt>
      <trkpt lat="45.66518" lon="6.87343">
        <ele>2182.5</ele>
        <time>2016-05-06T10:57:11Z</time>
      </trkpt>
      <trkpt lat="45.66519" lon="6.87343">
        <ele>2182.5</ele>
        <time>2016-05-06T10:57:13Z</time>
      </trkpt>
      <trkpt lat="45.6652" lon="6.87343">
        <ele>2182.5</ele>
        <time>2016-05-06T10:57:15Z</time>
      </trkpt>
      <trkpt lat="45.6652" lon="6.87343">
        <ele>2182.6</ele>
        <time>2016-05-06T10:57:17Z</time>
      </trkpt>
      <trkpt lat="45.66521" lon="6.87342">
        <ele>2182.8</ele>
        <time>2016-05-06T10:57:19Z</time>
      </trkpt>
      <trkpt lat="45.66522" lon="6.87343">
        <ele>2183</ele>
        <time>2016-05-06T10:57:21Z</time>
      </trkpt>
      <trkpt lat="45.66522" lon="6.87342">
        <ele>2183.3</ele>
        <time>2016-05-06T10:57:23Z</time>
      </trkpt>
      <trkpt lat="45.66522" lon="6.87342">
        <ele>2183.4</ele>
        <time>2016-05-06T10:57:25Z</time>
      </trkpt>
      <trkpt lat="45.66523" lon="6.87343">
        <ele>2183.5</ele>
        <time>2016-05-06T10:57:27Z</time>
      </trkpt>
      <trkpt lat="45.66524" lon="6.87343">
        <ele>2183.4</ele>
        <time>2016-05-06T10:57:29Z</time>
      </trkpt>
      <trkpt lat="45.66524" lon="6.87343">
        <ele>2183.5</ele>
        <time>2016-05-06T10:57:31Z</time>
      </trkpt>
      <trkpt lat="45.66524" lon="6.87343">
        <ele>2183.8</ele>
        <time>2016-05-06T10:57:33Z</time>
      </trkpt>
      <trkpt lat="45.66525" lon="6.87343">
        <ele>2183.9</ele>
        <time>2016-05-06T10:57:35Z</time>
      </trkpt>
      <trkpt lat="45.66525" lon="6.87342">
        <ele>2184.1</ele>
        <time>2016-05-06T10:57:37Z</time>
      </trkpt>
      <trkpt lat="45.66526" lon="6.87343">
        <ele>2183.9</ele>
        <time>2016-05-06T10:57:39Z</time>
      </trkpt>
      <trkpt lat="45.66526" lon="6.87343">
        <ele>2184.1</ele>
        <time>2016-05-06T10:57:41Z</time>
      </trkpt>
      <trkpt lat="45.66526" lon="6.87342">
        <ele>2184.3</ele>
        <time>2016-05-06T10:57:43Z</time>
      </trkpt>
      <trkpt lat="45.66527" lon="6.87343">
        <ele>2184.5</ele>
        <time>2016-05-06T10:57:45Z</time>
      </trkpt>
      <trkpt lat="45.66528" lon="6.87343">
        <ele>2185</ele>
        <time>2016-05-06T10:57:47Z</time>
      </trkpt>
      <trkpt lat="45.66528" lon="6.87345">
        <ele>2185</ele>
        <time>2016-05-06T10:57:49Z</time>
      </trkpt>
      <trkpt lat="45.66528" lon="6.87346">
        <ele>2185</ele>
        <time>2016-05-06T10:57:51Z</time>
      </trkpt>
      <trkpt lat="45.66528" lon="6.87346">
        <ele>2185.2</ele>
        <time>2016-05-06T10:57:53Z</time>
      </trkpt>
      <trkpt lat="45.66528" lon="6.87347">
        <ele>2185.1</ele>
        <time>2016-05-06T10:57:55Z</time>
      </trkpt>
      <trkpt lat="45.66528" lon="6.87347">
        <ele>2185</ele>
        <time>2016-05-06T10:57:57Z</time>
      </trkpt>
      <trkpt lat="45.66528" lon="6.87347">
        <ele>2185.1</ele>
        <time>2016-05-06T10:57:59Z</time>
      </trkpt>
      <trkpt lat="45.66528" lon="6.87347">
        <ele>2185.2</ele>
        <time>2016-05-06T10:58:01Z</time>
      </trkpt>
      <trkpt lat="45.66529" lon="6.87347">
        <ele>2185.4</ele>
        <time>2016-05-06T10:58:03Z</time>
      </trkpt>
      <trkpt lat="45.66529" lon="6.87348">
        <ele>2185.3</ele>
        <time>2016-05-06T10:58:05Z</time>
      </trkpt>
      <trkpt lat="45.6653" lon="6.87348">
        <ele>2185.3</ele>
        <time>2016-05-06T10:58:07Z</time>
      </trkpt>
      <trkpt lat="45.66531" lon="6.87349">
        <ele>2185.3</ele>
        <time>2016-05-06T10:58:09Z</time>
      </trkpt>
      <trkpt lat="45.66531" lon="6.87349">
        <ele>2185.4</ele>
        <time>2016-05-06T10:58:11Z</time>
      </trkpt>
      <trkpt lat="45.66531" lon="6.87349">
        <ele>2185.7</ele>
        <time>2016-05-06T10:58:13Z</time>
      </trkpt>
      <trkpt lat="45.66531" lon="6.87349">
        <ele>2185.8</ele>
        <time>2016-05-06T10:58:15Z</time>
      </trkpt>
      <trkpt lat="45.66532" lon="6.87349">
        <ele>2185.9</ele>
        <time>2016-05-06T10:58:17Z</time>
      </trkpt>
      <trkpt lat="45.66532" lon="6.87349">
        <ele>2186.2</ele>
        <time>2016-05-06T10:58:19Z</time>
      </trkpt>
      <trkpt lat="45.66533" lon="6.87349">
        <ele>2186.4</ele>
        <time>2016-05-06T10:58:21Z</time>
      </trkpt>
      <trkpt lat="45.66533" lon="6.8735">
        <ele>2186.5</ele>
        <time>2016-05-06T10:58:23Z</time>
      </trkpt>
      <trkpt lat="45.66534" lon="6.8735">
        <ele>2186.5</ele>
        <time>2016-05-06T10:58:25Z</time>
      </trkpt>
      <trkpt lat="45.66534" lon="6.8735">
        <ele>2186.6</ele>
        <time>2016-05-06T10:58:27Z</time>
      </trkpt>
      <trkpt lat="45.66535" lon="6.8735">
        <ele>2186.6</ele>
        <time>2016-05-06T10:58:29Z</time>
      </trkpt>
      <trkpt lat="45.66535" lon="6.8735">
        <ele>2186.8</ele>
        <time>2016-05-06T10:58:31Z</time>
      </trkpt>
      <trkpt lat="45.66535" lon="6.87351">
        <ele>2187.1</ele>
        <time>2016-05-06T10:58:33Z</time>
      </trkpt>
      <trkpt lat="45.66536" lon="6.87351">
        <ele>2186.9</ele>
        <time>2016-05-06T10:58:35Z</time>
      </trkpt>
      <trkpt lat="45.66536" lon="6.87352">
        <ele>2187</ele>
        <time>2016-05-06T10:58:37Z</time>
      </trkpt>
      <trkpt lat="45.66536" lon="6.87351">
        <ele>2187.2</ele>
        <time>2016-05-06T10:58:39Z</time>
      </trkpt>
      <trkpt lat="45.66536" lon="6.87351">
        <ele>2186.5</ele>
        <time>2016-05-06T10:58:41Z</time>
      </trkpt>
      <trkpt lat="45.66536" lon="6.87352">
        <ele>2186.6</ele>
        <time>2016-05-06T10:58:43Z</time>
      </trkpt>
      <trkpt lat="45.66536" lon="6.87352">
        <ele>2186.6</ele>
        <time>2016-05-06T10:58:45Z</time>
      </trkpt>
      <trkpt lat="45.66536" lon="6.87352">
        <ele>2186.7</ele>
        <time>2016-05-06T10:58:47Z</time>
      </trkpt>
      <trkpt lat="45.66536" lon="6.87352">
        <ele>2186.9</ele>
        <time>2016-05-06T10:58:49Z</time>
      </trkpt>
      <trkpt lat="45.66536" lon="6.87352">
        <ele>2186.8</ele>
        <time>2016-05-06T10:58:51Z</time>
      </trkpt>
      <trkpt lat="45.66536" lon="6.87352">
        <ele>2186.6</ele>
        <time>2016-05-06T10:58:53Z</time>
      </trkpt>
      <trkpt lat="45.66536" lon="6.87352">
        <ele>2186.3</ele>
        <time>2016-05-06T10:58:55Z</time>
      </trkpt>
      <trkpt lat="45.66536" lon="6.87353">
        <ele>2186.5</ele>
        <time>2016-05-06T10:58:57Z</time>
      </trkpt>
      <trkpt lat="45.66536" lon="6.87353">
        <ele>2186.8</ele>
        <time>2016-05-06T10:58:59Z</time>
      </trkpt>
      <trkpt lat="45.66536" lon="6.87353">
        <ele>2187.1</ele>
        <time>2016-05-06T10:59:01Z</time>
      </trkpt>
      <trkpt lat="45.66535" lon="6.87352">
        <ele>2187.3</ele>
        <time>2016-05-06T10:59:03Z</time>
      </trkpt>
      <trkpt lat="45.66535" lon="6.87352">
        <ele>2187.4</ele>
        <time>2016-05-06T10:59:05Z</time>
      </trkpt>
      <trkpt lat="45.66535" lon="6.87352">
        <ele>2187.2</ele>
        <time>2016-05-06T10:59:07Z</time>
      </trkpt>
      <trkpt lat="45.66534" lon="6.87352">
        <ele>2187.1</ele>
        <time>2016-05-06T10:59:09Z</time>
      </trkpt>
      <trkpt lat="45.66534" lon="6.87351">
        <ele>2186.9</ele>
        <time>2016-05-06T10:59:11Z</time>
      </trkpt>
      <trkpt lat="45.66534" lon="6.87351">
        <ele>2186.9</ele>
        <time>2016-05-06T10:59:13Z</time>
      </trkpt>
      <trkpt lat="45.66534" lon="6.87351">
        <ele>2187</ele>
        <time>2016-05-06T10:59:15Z</time>
      </trkpt>
      <trkpt lat="45.66534" lon="6.87352">
        <ele>2187</ele>
        <time>2016-05-06T10:59:17Z</time>
      </trkpt>
      <trkpt lat="45.66534" lon="6.87352">
        <ele>2186.8</ele>
        <time>2016-05-06T10:59:19Z</time>
      </trkpt>
      <trkpt lat="45.66534" lon="6.87353">
        <ele>2186.9</ele>
        <time>2016-05-06T10:59:21Z</time>
      </trkpt>
      <trkpt lat="45.66534" lon="6.87354">
        <ele>2187</ele>
        <time>2016-05-06T10:59:23Z</time>
      </trkpt>
      <trkpt lat="45.66535" lon="6.87354">
        <ele>2187.1</ele>
        <time>2016-05-06T10:59:25Z</time>
      </trkpt>
      <trkpt lat="45.66536" lon="6.87354">
        <ele>2187.2</ele>
        <time>2016-05-06T10:59:27Z</time>
      </trkpt>
      <trkpt lat="45.66536" lon="6.87354">
        <ele>2187.4</ele>
        <time>2016-05-06T10:59:29Z</time>
      </trkpt>
      <trkpt lat="45.66536" lon="6.87355">
        <ele>2187.4</ele>
        <time>2016-05-06T10:59:31Z</time>
      </trkpt>
      <trkpt lat="45.66536" lon="6.87355">
        <ele>2187.3</ele>
        <time>2016-05-06T10:59:33Z</time>
      </trkpt>
      <trkpt lat="45.66537" lon="6.87355">
        <ele>2187.4</ele>
        <time>2016-05-06T10:59:35Z</time>
      </trkpt>
      <trkpt lat="45.66537" lon="6.87355">
        <ele>2187.4</ele>
        <time>2016-05-06T10:59:37Z</time>
      </trkpt>
      <trkpt lat="45.66537" lon="6.87355">
        <ele>2187.6</ele>
        <time>2016-05-06T10:59:39Z</time>
      </trkpt>
      <trkpt lat="45.66537" lon="6.87355">
        <ele>2187.7</ele>
        <time>2016-05-06T10:59:41Z</time>
      </trkpt>
      <trkpt lat="45.66537" lon="6.87355">
        <ele>2187.9</ele>
        <time>2016-05-06T10:59:43Z</time>
      </trkpt>
      <trkpt lat="45.66537" lon="6.87355">
        <ele>2187.8</ele>
        <time>2016-05-06T10:59:45Z</time>
      </trkpt>
      <trkpt lat="45.66537" lon="6.87355">
        <ele>2188</ele>
        <time>2016-05-06T10:59:47Z</time>
      </trkpt>
      <trkpt lat="45.66537" lon="6.87355">
        <ele>2188</ele>
        <time>2016-05-06T10:59:49Z</time>
      </trkpt>
      <trkpt lat="45.66536" lon="6.87355">
        <ele>2187.6</ele>
        <time>2016-05-06T10:59:51Z</time>
      </trkpt>
      <trkpt lat="45.66536" lon="6.87354">
        <ele>2187.8</ele>
        <time>2016-05-06T10:59:53Z</time>
      </trkpt>
      <trkpt lat="45.66537" lon="6.87354">
        <ele>2187.8</ele>
        <time>2016-05-06T10:59:55Z</time>
      </trkpt>
      <trkpt lat="45.66536" lon="6.87354">
        <ele>2187.8</ele>
        <time>2016-05-06T10:59:57Z</time>
      </trkpt>
      <trkpt lat="45.66536" lon="6.87354">
        <ele>2187.9</ele>
        <time>2016-05-06T10:59:59Z</time>
      </trkpt>
      <trkpt lat="45.66536" lon="6.87354">
        <ele>2187.3</ele>
        <time>2016-05-06T11:00:01Z</time>
      </trkpt>
      <trkpt lat="45.66536" lon="6.87354">
        <ele>2187.7</ele>
        <time>2016-05-06T11:00:03Z</time>
      </trkpt>
      <trkpt lat="45.66536" lon="6.87354">
        <ele>2188</ele>
        <time>2016-05-06T11:00:05Z</time>
      </trkpt>
      <trkpt lat="45.66537" lon="6.87354">
        <ele>2187.8</ele>
        <time>2016-05-06T11:00:07Z</time>
      </trkpt>
      <trkpt lat="45.66536" lon="6.87353">
        <ele>2187.4</ele>
        <time>2016-05-06T11:00:09Z</time>
      </trkpt>
      <trkpt lat="45.66533" lon="6.87356">
        <ele>2187.4</ele>
        <time>2016-05-06T11:00:11Z</time>
      </trkpt>
      <trkpt lat="45.6653" lon="6.87359">
        <ele>2187.7</ele>
        <time>2016-05-06T11:00:13Z</time>
      </trkpt>
      <trkpt lat="45.66527" lon="6.87354">
        <ele>2187.7</ele>
        <time>2016-05-06T11:00:15Z</time>
      </trkpt>
      <trkpt lat="45.6653" lon="6.87347">
        <ele>2187.5</ele>
        <time>2016-05-06T11:00:17Z</time>
      </trkpt>
      <trkpt lat="45.66534" lon="6.87343">
        <ele>2187.5</ele>
        <time>2016-05-06T11:00:19Z</time>
      </trkpt>
      <trkpt lat="45.66539" lon="6.8734">
        <ele>2187.6</ele>
        <time>2016-05-06T11:00:21Z</time>
      </trkpt>
      <trkpt lat="45.66546" lon="6.87336">
        <ele>2187.7</ele>
        <time>2016-05-06T11:00:23Z</time>
      </trkpt>
      <trkpt lat="45.66553" lon="6.87334">
        <ele>2188.1</ele>
        <time>2016-05-06T11:00:25Z</time>
      </trkpt>
      <trkpt lat="45.66559" lon="6.87333">
        <ele>2188.4</ele>
        <time>2016-05-06T11:00:27Z</time>
      </trkpt>
      <trkpt lat="45.66564" lon="6.87332">
        <ele>2188.3</ele>
        <time>2016-05-06T11:00:29Z</time>
      </trkpt>
      <trkpt lat="45.66566" lon="6.8733">
        <ele>2188.6</ele>
        <time>2016-05-06T11:00:31Z</time>
      </trkpt>
      <trkpt lat="45.66562" lon="6.87331">
        <ele>2188.3</ele>
        <time>2016-05-06T11:00:33Z</time>
      </trkpt>
      <trkpt lat="45.66557" lon="6.87338">
        <ele>2188</ele>
        <time>2016-05-06T11:00:35Z</time>
      </trkpt>
      <trkpt lat="45.66554" lon="6.87345">
        <ele>2188.2</ele>
        <time>2016-05-06T11:00:37Z</time>
      </trkpt>
      <trkpt lat="45.66552" lon="6.87351">
        <ele>2189</ele>
        <time>2016-05-06T11:00:39Z</time>
      </trkpt>
      <trkpt lat="45.6655" lon="6.87358">
        <ele>2190</ele>
        <time>2016-05-06T11:00:41Z</time>
      </trkpt>
      <trkpt lat="45.66547" lon="6.87366">
        <ele>2190.3</ele>
        <time>2016-05-06T11:00:43Z</time>
      </trkpt>
      <trkpt lat="45.66545" lon="6.87371">
        <ele>2190.8</ele>
        <time>2016-05-06T11:00:45Z</time>
      </trkpt>
      <trkpt lat="45.66541" lon="6.87376">
        <ele>2191.3</ele>
        <time>2016-05-06T11:00:47Z</time>
      </trkpt>
      <trkpt lat="45.66539" lon="6.87377">
        <ele>2191.6</ele>
        <time>2016-05-06T11:00:49Z</time>
      </trkpt>
      <trkpt lat="45.6654" lon="6.8737">
        <ele>2192.1</ele>
        <time>2016-05-06T11:00:51Z</time>
      </trkpt>
      <trkpt lat="45.66549" lon="6.87366">
        <ele>2192.4</ele>
        <time>2016-05-06T11:00:53Z</time>
      </trkpt>
      <trkpt lat="45.66557" lon="6.87363">
        <ele>2193.2</ele>
        <time>2016-05-06T11:00:55Z</time>
      </trkpt>
      <trkpt lat="45.66564" lon="6.8736">
        <ele>2193.6</ele>
        <time>2016-05-06T11:00:57Z</time>
      </trkpt>
      <trkpt lat="45.66572" lon="6.87358">
        <ele>2193.8</ele>
        <time>2016-05-06T11:00:59Z</time>
      </trkpt>
      <trkpt lat="45.66578" lon="6.87358">
        <ele>2193.7</ele>
        <time>2016-05-06T11:01:01Z</time>
      </trkpt>
      <trkpt lat="45.66582" lon="6.87358">
        <ele>2193.5</ele>
        <time>2016-05-06T11:01:03Z</time>
      </trkpt>
      <trkpt lat="45.66583" lon="6.87357">
        <ele>2193.4</ele>
        <time>2016-05-06T11:01:05Z</time>
      </trkpt>
      <trkpt lat="45.6658" lon="6.87359">
        <ele>2193.1</ele>
        <time>2016-05-06T11:01:07Z</time>
      </trkpt>
      <trkpt lat="45.66575" lon="6.87367">
        <ele>2192.9</ele>
        <time>2016-05-06T11:01:09Z</time>
      </trkpt>
      <trkpt lat="45.66572" lon="6.87372">
        <ele>2194</ele>
        <time>2016-05-06T11:01:11Z</time>
      </trkpt>
      <trkpt lat="45.66566" lon="6.87378">
        <ele>2194.8</ele>
        <time>2016-05-06T11:01:13Z</time>
      </trkpt>
      <trkpt lat="45.66562" lon="6.87389">
        <ele>2195.5</ele>
        <time>2016-05-06T11:01:15Z</time>
      </trkpt>
      <trkpt lat="45.6656" lon="6.87398">
        <ele>2196.4</ele>
        <time>2016-05-06T11:01:17Z</time>
      </trkpt>
      <trkpt lat="45.66559" lon="6.87401">
        <ele>2197.4</ele>
        <time>2016-05-06T11:01:19Z</time>
      </trkpt>
      <trkpt lat="45.66558" lon="6.87401">
        <ele>2199</ele>
        <time>2016-05-06T11:01:21Z</time>
      </trkpt>
      <trkpt lat="45.66562" lon="6.87396">
        <ele>2199.8</ele>
        <time>2016-05-06T11:01:23Z</time>
      </trkpt>
      <trkpt lat="45.66569" lon="6.87392">
        <ele>2200.4</ele>
        <time>2016-05-06T11:01:25Z</time>
      </trkpt>
      <trkpt lat="45.66576" lon="6.87389">
        <ele>2200.7</ele>
        <time>2016-05-06T11:01:27Z</time>
      </trkpt>
      <trkpt lat="45.66584" lon="6.87386">
        <ele>2200.7</ele>
        <time>2016-05-06T11:01:29Z</time>
      </trkpt>
      <trkpt lat="45.66591" lon="6.87385">
        <ele>2201.5</ele>
        <time>2016-05-06T11:01:31Z</time>
      </trkpt>
      <trkpt lat="45.66596" lon="6.87384">
        <ele>2201.5</ele>
        <time>2016-05-06T11:01:33Z</time>
      </trkpt>
      <trkpt lat="45.66601" lon="6.87383">
        <ele>2201.7</ele>
        <time>2016-05-06T11:01:35Z</time>
      </trkpt>
      <trkpt lat="45.66603" lon="6.87382">
        <ele>2201.6</ele>
        <time>2016-05-06T11:01:37Z</time>
      </trkpt>
      <trkpt lat="45.66604" lon="6.87382">
        <ele>2201.2</ele>
        <time>2016-05-06T11:01:39Z</time>
      </trkpt>
      <trkpt lat="45.66604" lon="6.87382">
        <ele>2200.6</ele>
        <time>2016-05-06T11:01:41Z</time>
      </trkpt>
      <trkpt lat="45.66604" lon="6.87382">
        <ele>2200.2</ele>
        <time>2016-05-06T11:01:43Z</time>
      </trkpt>
      <trkpt lat="45.66604" lon="6.87382">
        <ele>2199.9</ele>
        <time>2016-05-06T11:01:45Z</time>
      </trkpt>
      <trkpt lat="45.66605" lon="6.87381">
        <ele>2199.8</ele>
        <time>2016-05-06T11:01:47Z</time>
      </trkpt>
      <trkpt lat="45.66604" lon="6.87381">
        <ele>2199.5</ele>
        <time>2016-05-06T11:01:49Z</time>
      </trkpt>
      <trkpt lat="45.66599" lon="6.87385">
        <ele>2198.9</ele>
        <time>2016-05-06T11:01:51Z</time>
      </trkpt>
      <trkpt lat="45.66597" lon="6.87393">
        <ele>2199.1</ele>
        <time>2016-05-06T11:01:53Z</time>
      </trkpt>
      <trkpt lat="45.66597" lon="6.874">
        <ele>2198.6</ele>
        <time>2016-05-06T11:01:55Z</time>
      </trkpt>
      <trkpt lat="45.66596" lon="6.87403">
        <ele>2200.1</ele>
        <time>2016-05-06T11:01:57Z</time>
      </trkpt>
      <trkpt lat="45.66593" lon="6.87409">
        <ele>2200.7</ele>
        <time>2016-05-06T11:01:59Z</time>
      </trkpt>
      <trkpt lat="45.6659" lon="6.87415">
        <ele>2202.3</ele>
        <time>2016-05-06T11:02:01Z</time>
      </trkpt>
      <trkpt lat="45.66588" lon="6.8742">
        <ele>2203</ele>
        <time>2016-05-06T11:02:03Z</time>
      </trkpt>
      <trkpt lat="45.66586" lon="6.87422">
        <ele>2204.1</ele>
        <time>2016-05-06T11:02:05Z</time>
      </trkpt>
      <trkpt lat="45.66584" lon="6.8742">
        <ele>2204.6</ele>
        <time>2016-05-06T11:02:07Z</time>
      </trkpt>
      <trkpt lat="45.66587" lon="6.87419">
        <ele>2205.2</ele>
        <time>2016-05-06T11:02:09Z</time>
      </trkpt>
      <trkpt lat="45.66593" lon="6.87418">
        <ele>2205.5</ele>
        <time>2016-05-06T11:02:11Z</time>
      </trkpt>
      <trkpt lat="45.66598" lon="6.87419">
        <ele>2205.9</ele>
        <time>2016-05-06T11:02:13Z</time>
      </trkpt>
      <trkpt lat="45.66603" lon="6.87418">
        <ele>2205.6</ele>
        <time>2016-05-06T11:02:15Z</time>
      </trkpt>
      <trkpt lat="45.66608" lon="6.87416">
        <ele>2205.1</ele>
        <time>2016-05-06T11:02:17Z</time>
      </trkpt>
      <trkpt lat="45.66613" lon="6.87412">
        <ele>2204.5</ele>
        <time>2016-05-06T11:02:19Z</time>
      </trkpt>
      <trkpt lat="45.66619" lon="6.87407">
        <ele>2204.2</ele>
        <time>2016-05-06T11:02:21Z</time>
      </trkpt>
      <trkpt lat="45.66626" lon="6.87404">
        <ele>2203.9</ele>
        <time>2016-05-06T11:02:23Z</time>
      </trkpt>
      <trkpt lat="45.66633" lon="6.87401">
        <ele>2203.7</ele>
        <time>2016-05-06T11:02:25Z</time>
      </trkpt>
      <trkpt lat="45.66638" lon="6.874">
        <ele>2203.8</ele>
        <time>2016-05-06T11:02:27Z</time>
      </trkpt>
      <trkpt lat="45.66639" lon="6.87398">
        <ele>2203</ele>
        <time>2016-05-06T11:02:29Z</time>
      </trkpt>
      <trkpt lat="45.66636" lon="6.87398">
        <ele>2202.5</ele>
        <time>2016-05-06T11:02:31Z</time>
      </trkpt>
      <trkpt lat="45.66631" lon="6.87401">
        <ele>2201.9</ele>
        <time>2016-05-06T11:02:33Z</time>
      </trkpt>
      <trkpt lat="45.66626" lon="6.87402">
        <ele>2201.5</ele>
        <time>2016-05-06T11:02:35Z</time>
      </trkpt>
      <trkpt lat="45.6662" lon="6.874">
        <ele>2201</ele>
        <time>2016-05-06T11:02:37Z</time>
      </trkpt>
      <trkpt lat="45.66616" lon="6.87399">
        <ele>2200.5</ele>
        <time>2016-05-06T11:02:39Z</time>
      </trkpt>
      <trkpt lat="45.66612" lon="6.87398">
        <ele>2199.9</ele>
        <time>2016-05-06T11:02:41Z</time>
      </trkpt>
      <trkpt lat="45.6661" lon="6.87398">
        <ele>2199.4</ele>
        <time>2016-05-06T11:02:43Z</time>
      </trkpt>
      <trkpt lat="45.66609" lon="6.87399">
        <ele>2199.6</ele>
        <time>2016-05-06T11:02:45Z</time>
      </trkpt>
      <trkpt lat="45.66609" lon="6.87399">
        <ele>2200</ele>
        <time>2016-05-06T11:02:47Z</time>
      </trkpt>
      <trkpt lat="45.66609" lon="6.87399">
        <ele>2200.1</ele>
        <time>2016-05-06T11:02:49Z</time>
      </trkpt>
      <trkpt lat="45.66609" lon="6.87399">
        <ele>2199.9</ele>
        <time>2016-05-06T11:02:51Z</time>
      </trkpt>
      <trkpt lat="45.66609" lon="6.87399">
        <ele>2200.1</ele>
        <time>2016-05-06T11:02:53Z</time>
      </trkpt>
      <trkpt lat="45.66609" lon="6.874">
        <ele>2200</ele>
        <time>2016-05-06T11:02:55Z</time>
      </trkpt>
      <trkpt lat="45.66609" lon="6.874">
        <ele>2200.2</ele>
        <time>2016-05-06T11:02:57Z</time>
      </trkpt>
      <trkpt lat="45.66609" lon="6.874">
        <ele>2200.3</ele>
        <time>2016-05-06T11:02:59Z</time>
      </trkpt>
      <trkpt lat="45.66609" lon="6.874">
        <ele>2200.3</ele>
        <time>2016-05-06T11:03:01Z</time>
      </trkpt>
      <trkpt lat="45.66609" lon="6.874">
        <ele>2200.4</ele>
        <time>2016-05-06T11:03:03Z</time>
      </trkpt>
      <trkpt lat="45.6661" lon="6.87401">
        <ele>2200.4</ele>
        <time>2016-05-06T11:03:05Z</time>
      </trkpt>
      <trkpt lat="45.6661" lon="6.87401">
        <ele>2200.6</ele>
        <time>2016-05-06T11:03:07Z</time>
      </trkpt>
      <trkpt lat="45.6661" lon="6.87402">
        <ele>2200.5</ele>
        <time>2016-05-06T11:03:09Z</time>
      </trkpt>
      <trkpt lat="45.66609" lon="6.87402">
        <ele>2200.6</ele>
        <time>2016-05-06T11:03:11Z</time>
      </trkpt>
      <trkpt lat="45.6661" lon="6.87398">
        <ele>2200.4</ele>
        <time>2016-05-06T11:03:13Z</time>
      </trkpt>
      <trkpt lat="45.66615" lon="6.87392">
        <ele>2200.4</ele>
        <time>2016-05-06T11:03:15Z</time>
      </trkpt>
      <trkpt lat="45.66622" lon="6.87391">
        <ele>2200.4</ele>
        <time>2016-05-06T11:03:17Z</time>
      </trkpt>
      <trkpt lat="45.66626" lon="6.8739">
        <ele>2200.4</ele>
        <time>2016-05-06T11:03:19Z</time>
      </trkpt>
      <trkpt lat="45.66627" lon="6.87389">
        <ele>2200.5</ele>
        <time>2016-05-06T11:03:21Z</time>
      </trkpt>
      <trkpt lat="45.66625" lon="6.87389">
        <ele>2200.2</ele>
        <time>2016-05-06T11:03:23Z</time>
      </trkpt>
      <trkpt lat="45.66622" lon="6.87395">
        <ele>2199.9</ele>
        <time>2016-05-06T11:03:25Z</time>
      </trkpt>
      <trkpt lat="45.66619" lon="6.87401">
        <ele>2199.9</ele>
        <time>2016-05-06T11:03:27Z</time>
      </trkpt>
      <trkpt lat="45.66617" lon="6.87407">
        <ele>2199.7</ele>
        <time>2016-05-06T11:03:29Z</time>
      </trkpt>
      <trkpt lat="45.66616" lon="6.87413">
        <ele>2200</ele>
        <time>2016-05-06T11:03:31Z</time>
      </trkpt>
      <trkpt lat="45.66615" lon="6.87418">
        <ele>2199.9</ele>
        <time>2016-05-06T11:03:33Z</time>
      </trkpt>
      <trkpt lat="45.66613" lon="6.87424">
        <ele>2200.2</ele>
        <time>2016-05-06T11:03:35Z</time>
      </trkpt>
      <trkpt lat="45.6661" lon="6.8743">
        <ele>2200.6</ele>
        <time>2016-05-06T11:03:37Z</time>
      </trkpt>
      <trkpt lat="45.66608" lon="6.87437">
        <ele>2200.7</ele>
        <time>2016-05-06T11:03:39Z</time>
      </trkpt>
      <trkpt lat="45.66606" lon="6.87442">
        <ele>2201</ele>
        <time>2016-05-06T11:03:41Z</time>
      </trkpt>
      <trkpt lat="45.66605" lon="6.87445">
        <ele>2202</ele>
        <time>2016-05-06T11:03:43Z</time>
      </trkpt>
      <trkpt lat="45.66605" lon="6.87442">
        <ele>2203.2</ele>
        <time>2016-05-06T11:03:45Z</time>
      </trkpt>
      <trkpt lat="45.66612" lon="6.87435">
        <ele>2204.3</ele>
        <time>2016-05-06T11:03:47Z</time>
      </trkpt>
      <trkpt lat="45.66622" lon="6.87429">
        <ele>2204.8</ele>
        <time>2016-05-06T11:03:49Z</time>
      </trkpt>
      <trkpt lat="45.6663" lon="6.87427">
        <ele>2206</ele>
        <time>2016-05-06T11:03:51Z</time>
      </trkpt>
      <trkpt lat="45.66635" lon="6.87424">
        <ele>2206.4</ele>
        <time>2016-05-06T11:03:53Z</time>
      </trkpt>
      <trkpt lat="45.6664" lon="6.87423">
        <ele>2207.3</ele>
        <time>2016-05-06T11:03:55Z</time>
      </trkpt>
      <trkpt lat="45.66647" lon="6.87421">
        <ele>2207.6</ele>
        <time>2016-05-06T11:03:57Z</time>
      </trkpt>
      <trkpt lat="45.66655" lon="6.8742">
        <ele>2207.8</ele>
        <time>2016-05-06T11:03:59Z</time>
      </trkpt>
      <trkpt lat="45.66661" lon="6.87421">
        <ele>2208.1</ele>
        <time>2016-05-06T11:04:01Z</time>
      </trkpt>
      <trkpt lat="45.66663" lon="6.87418">
        <ele>2207.1</ele>
        <time>2016-05-06T11:04:03Z</time>
      </trkpt>
      <trkpt lat="45.66656" lon="6.87419">
        <ele>2206.2</ele>
        <time>2016-05-06T11:04:05Z</time>
      </trkpt>
      <trkpt lat="45.66649" lon="6.87429">
        <ele>2205.8</ele>
        <time>2016-05-06T11:04:07Z</time>
      </trkpt>
      <trkpt lat="45.66643" lon="6.8744">
        <ele>2205.6</ele>
        <time>2016-05-06T11:04:09Z</time>
      </trkpt>
      <trkpt lat="45.66636" lon="6.87451">
        <ele>2205.4</ele>
        <time>2016-05-06T11:04:11Z</time>
      </trkpt>
      <trkpt lat="45.6663" lon="6.87463">
        <ele>2205.1</ele>
        <time>2016-05-06T11:04:13Z</time>
      </trkpt>
      <trkpt lat="45.66624" lon="6.87474">
        <ele>2205.5</ele>
        <time>2016-05-06T11:04:15Z</time>
      </trkpt>
      <trkpt lat="45.66618" lon="6.87485">
        <ele>2207.7</ele>
        <time>2016-05-06T11:04:17Z</time>
      </trkpt>
      <trkpt lat="45.66615" lon="6.87494">
        <ele>2210</ele>
        <time>2016-05-06T11:04:19Z</time>
      </trkpt>
      <trkpt lat="45.66612" lon="6.87496">
        <ele>2211</ele>
        <time>2016-05-06T11:04:21Z</time>
      </trkpt>
      <trkpt lat="45.66611" lon="6.87495">
        <ele>2211.4</ele>
        <time>2016-05-06T11:04:23Z</time>
      </trkpt>
      <trkpt lat="45.66612" lon="6.87494">
        <ele>2211.1</ele>
        <time>2016-05-06T11:04:25Z</time>
      </trkpt>
      <trkpt lat="45.66611" lon="6.87492">
        <ele>2210.8</ele>
        <time>2016-05-06T11:04:27Z</time>
      </trkpt>
      <trkpt lat="45.66611" lon="6.8749">
        <ele>2210.7</ele>
        <time>2016-05-06T11:04:29Z</time>
      </trkpt>
      <trkpt lat="45.6661" lon="6.87489">
        <ele>2210.9</ele>
        <time>2016-05-06T11:04:31Z</time>
      </trkpt>
      <trkpt lat="45.6661" lon="6.87488">
        <ele>2211.1</ele>
        <time>2016-05-06T11:04:33Z</time>
      </trkpt>
      <trkpt lat="45.6661" lon="6.87488">
        <ele>2211</ele>
        <time>2016-05-06T11:04:35Z</time>
      </trkpt>
      <trkpt lat="45.6661" lon="6.87488">
        <ele>2211</ele>
        <time>2016-05-06T11:04:37Z</time>
      </trkpt>
      <trkpt lat="45.6661" lon="6.87489">
        <ele>2211</ele>
        <time>2016-05-06T11:04:39Z</time>
      </trkpt>
      <trkpt lat="45.6661" lon="6.87489">
        <ele>2211.1</ele>
        <time>2016-05-06T11:04:41Z</time>
      </trkpt>
      <trkpt lat="45.6661" lon="6.87489">
        <ele>2211.2</ele>
        <time>2016-05-06T11:04:43Z</time>
      </trkpt>
      <trkpt lat="45.6661" lon="6.87488">
        <ele>2211.2</ele>
        <time>2016-05-06T11:04:45Z</time>
      </trkpt>
      <trkpt lat="45.6661" lon="6.87488">
        <ele>2211.3</ele>
        <time>2016-05-06T11:04:47Z</time>
      </trkpt>
      <trkpt lat="45.6661" lon="6.87487">
        <ele>2211.4</ele>
        <time>2016-05-06T11:04:49Z</time>
      </trkpt>
      <trkpt lat="45.6661" lon="6.87487">
        <ele>2211.4</ele>
        <time>2016-05-06T11:04:51Z</time>
      </trkpt>
      <trkpt lat="45.6661" lon="6.87487">
        <ele>2211.4</ele>
        <time>2016-05-06T11:04:53Z</time>
      </trkpt>
      <trkpt lat="45.6661" lon="6.87487">
        <ele>2211.5</ele>
        <time>2016-05-06T11:04:55Z</time>
      </trkpt>
      <trkpt lat="45.6661" lon="6.87487">
        <ele>2211.7</ele>
        <time>2016-05-06T11:04:57Z</time>
      </trkpt>
      <trkpt lat="45.66611" lon="6.87487">
        <ele>2211.8</ele>
        <time>2016-05-06T11:04:59Z</time>
      </trkpt>
      <trkpt lat="45.66611" lon="6.87487">
        <ele>2211.9</ele>
        <time>2016-05-06T11:05:01Z</time>
      </trkpt>
      <trkpt lat="45.66611" lon="6.87487">
        <ele>2211.9</ele>
        <time>2016-05-06T11:05:03Z</time>
      </trkpt>
      <trkpt lat="45.66611" lon="6.87487">
        <ele>2212.1</ele>
        <time>2016-05-06T11:05:05Z</time>
      </trkpt>
      <trkpt lat="45.66611" lon="6.87488">
        <ele>2212.1</ele>
        <time>2016-05-06T11:05:07Z</time>
      </trkpt>
      <trkpt lat="45.66612" lon="6.87488">
        <ele>2212.1</ele>
        <time>2016-05-06T11:05:09Z</time>
      </trkpt>
      <trkpt lat="45.66611" lon="6.87488">
        <ele>2212.2</ele>
        <time>2016-05-06T11:05:11Z</time>
      </trkpt>
      <trkpt lat="45.66611" lon="6.87487">
        <ele>2212.1</ele>
        <time>2016-05-06T11:05:13Z</time>
      </trkpt>
      <trkpt lat="45.66611" lon="6.87488">
        <ele>2212</ele>
        <time>2016-05-06T11:05:15Z</time>
      </trkpt>
      <trkpt lat="45.66611" lon="6.87488">
        <ele>2212.1</ele>
        <time>2016-05-06T11:05:17Z</time>
      </trkpt>
      <trkpt lat="45.66611" lon="6.87488">
        <ele>2212.1</ele>
        <time>2016-05-06T11:05:19Z</time>
      </trkpt>
      <trkpt lat="45.66611" lon="6.87488">
        <ele>2212.1</ele>
        <time>2016-05-06T11:05:21Z</time>
      </trkpt>
      <trkpt lat="45.66611" lon="6.87488">
        <ele>2211.8</ele>
        <time>2016-05-06T11:05:23Z</time>
      </trkpt>
      <trkpt lat="45.66611" lon="6.87488">
        <ele>2211.8</ele>
        <time>2016-05-06T11:05:25Z</time>
      </trkpt>
      <trkpt lat="45.66611" lon="6.87487">
        <ele>2211.7</ele>
        <time>2016-05-06T11:05:27Z</time>
      </trkpt>
      <trkpt lat="45.66612" lon="6.87487">
        <ele>2211.6</ele>
        <time>2016-05-06T11:05:29Z</time>
      </trkpt>
      <trkpt lat="45.66612" lon="6.87487">
        <ele>2211.6</ele>
        <time>2016-05-06T11:05:31Z</time>
      </trkpt>
      <trkpt lat="45.66612" lon="6.87486">
        <ele>2211.6</ele>
        <time>2016-05-06T11:05:33Z</time>
      </trkpt>
      <trkpt lat="45.66612" lon="6.87486">
        <ele>2211.5</ele>
        <time>2016-05-06T11:05:35Z</time>
      </trkpt>
      <trkpt lat="45.66612" lon="6.87485">
        <ele>2211.4</ele>
        <time>2016-05-06T11:05:37Z</time>
      </trkpt>
      <trkpt lat="45.66613" lon="6.87485">
        <ele>2211.4</ele>
        <time>2016-05-06T11:05:39Z</time>
      </trkpt>
      <trkpt lat="45.66612" lon="6.87486">
        <ele>2211.3</ele>
        <time>2016-05-06T11:05:41Z</time>
      </trkpt>
      <trkpt lat="45.66611" lon="6.87487">
        <ele>2211.6</ele>
        <time>2016-05-06T11:05:43Z</time>
      </trkpt>
      <trkpt lat="45.66611" lon="6.87487">
        <ele>2211.6</ele>
        <time>2016-05-06T11:05:45Z</time>
      </trkpt>
      <trkpt lat="45.66611" lon="6.87487">
        <ele>2211.5</ele>
        <time>2016-05-06T11:05:47Z</time>
      </trkpt>
      <trkpt lat="45.66611" lon="6.87486">
        <ele>2211.3</ele>
        <time>2016-05-06T11:05:49Z</time>
      </trkpt>
      <trkpt lat="45.66611" lon="6.87486">
        <ele>2211.2</ele>
        <time>2016-05-06T11:05:51Z</time>
      </trkpt>
      <trkpt lat="45.66611" lon="6.87485">
        <ele>2211.3</ele>
        <time>2016-05-06T11:05:53Z</time>
      </trkpt>
      <trkpt lat="45.66611" lon="6.87485">
        <ele>2211.1</ele>
        <time>2016-05-06T11:05:55Z</time>
      </trkpt>
      <trkpt lat="45.66611" lon="6.87485">
        <ele>2211</ele>
        <time>2016-05-06T11:05:57Z</time>
      </trkpt>
      <trkpt lat="45.66611" lon="6.87484">
        <ele>2210.9</ele>
        <time>2016-05-06T11:05:59Z</time>
      </trkpt>
      <trkpt lat="45.66611" lon="6.87485">
        <ele>2211</ele>
        <time>2016-05-06T11:06:01Z</time>
      </trkpt>
      <trkpt lat="45.6661" lon="6.87485">
        <ele>2211.1</ele>
        <time>2016-05-06T11:06:03Z</time>
      </trkpt>
      <trkpt lat="45.6661" lon="6.87485">
        <ele>2211.1</ele>
        <time>2016-05-06T11:06:05Z</time>
      </trkpt>
      <trkpt lat="45.66611" lon="6.87485">
        <ele>2211.1</ele>
        <time>2016-05-06T11:06:07Z</time>
      </trkpt>
      <trkpt lat="45.66611" lon="6.87484">
        <ele>2211.3</ele>
        <time>2016-05-06T11:06:09Z</time>
      </trkpt>
      <trkpt lat="45.66611" lon="6.87484">
        <ele>2211.5</ele>
        <time>2016-05-06T11:06:11Z</time>
      </trkpt>
      <trkpt lat="45.66611" lon="6.87484">
        <ele>2211.4</ele>
        <time>2016-05-06T11:06:13Z</time>
      </trkpt>
      <trkpt lat="45.66611" lon="6.87483">
        <ele>2211.2</ele>
        <time>2016-05-06T11:06:15Z</time>
      </trkpt>
      <trkpt lat="45.66611" lon="6.87483">
        <ele>2211.1</ele>
        <time>2016-05-06T11:06:17Z</time>
      </trkpt>
      <trkpt lat="45.66611" lon="6.87483">
        <ele>2211.1</ele>
        <time>2016-05-06T11:06:19Z</time>
      </trkpt>
      <trkpt lat="45.66611" lon="6.87483">
        <ele>2211</ele>
        <time>2016-05-06T11:06:21Z</time>
      </trkpt>
      <trkpt lat="45.66611" lon="6.87482">
        <ele>2211</ele>
        <time>2016-05-06T11:06:23Z</time>
      </trkpt>
      <trkpt lat="45.66612" lon="6.87482">
        <ele>2211.1</ele>
        <time>2016-05-06T11:06:25Z</time>
      </trkpt>
      <trkpt lat="45.66612" lon="6.87483">
        <ele>2211.1</ele>
        <time>2016-05-06T11:06:27Z</time>
      </trkpt>
      <trkpt lat="45.66612" lon="6.87483">
        <ele>2211.2</ele>
        <time>2016-05-06T11:06:29Z</time>
      </trkpt>
      <trkpt lat="45.66612" lon="6.87484">
        <ele>2211.2</ele>
        <time>2016-05-06T11:06:31Z</time>
      </trkpt>
      <trkpt lat="45.66611" lon="6.87485">
        <ele>2211.3</ele>
        <time>2016-05-06T11:06:33Z</time>
      </trkpt>
      <trkpt lat="45.66611" lon="6.87485">
        <ele>2211.2</ele>
        <time>2016-05-06T11:06:35Z</time>
      </trkpt>
      <trkpt lat="45.6661" lon="6.87485">
        <ele>2211</ele>
        <time>2016-05-06T11:06:37Z</time>
      </trkpt>
      <trkpt lat="45.6661" lon="6.87487">
        <ele>2211.6</ele>
        <time>2016-05-06T11:06:39Z</time>
      </trkpt>
      <trkpt lat="45.6661" lon="6.87488">
        <ele>2211.7</ele>
        <time>2016-05-06T11:06:41Z</time>
      </trkpt>
      <trkpt lat="45.6661" lon="6.87488">
        <ele>2211.9</ele>
        <time>2016-05-06T11:06:43Z</time>
      </trkpt>
      <trkpt lat="45.6661" lon="6.87488">
        <ele>2211.3</ele>
        <time>2016-05-06T11:06:45Z</time>
      </trkpt>
      <trkpt lat="45.6661" lon="6.87489">
        <ele>2211</ele>
        <time>2016-05-06T11:06:47Z</time>
      </trkpt>
      <trkpt lat="45.6661" lon="6.87489">
        <ele>2210.8</ele>
        <time>2016-05-06T11:06:49Z</time>
      </trkpt>
      <trkpt lat="45.6661" lon="6.8749">
        <ele>2210.9</ele>
        <time>2016-05-06T11:06:51Z</time>
      </trkpt>
      <trkpt lat="45.6661" lon="6.8749">
        <ele>2211.2</ele>
        <time>2016-05-06T11:06:53Z</time>
      </trkpt>
      <trkpt lat="45.6661" lon="6.8749">
        <ele>2211.4</ele>
        <time>2016-05-06T11:06:55Z</time>
      </trkpt>
      <trkpt lat="45.6661" lon="6.87489">
        <ele>2211.7</ele>
        <time>2016-05-06T11:06:57Z</time>
      </trkpt>
      <trkpt lat="45.6661" lon="6.87489">
        <ele>2211.8</ele>
        <time>2016-05-06T11:06:59Z</time>
      </trkpt>
      <trkpt lat="45.6661" lon="6.87489">
        <ele>2211.9</ele>
        <time>2016-05-06T11:07:01Z</time>
      </trkpt>
      <trkpt lat="45.6661" lon="6.87489">
        <ele>2211.9</ele>
        <time>2016-05-06T11:07:03Z</time>
      </trkpt>
      <trkpt lat="45.6661" lon="6.87489">
        <ele>2211.7</ele>
        <time>2016-05-06T11:07:05Z</time>
      </trkpt>
      <trkpt lat="45.6661" lon="6.87489">
        <ele>2211.6</ele>
        <time>2016-05-06T11:07:07Z</time>
      </trkpt>
      <trkpt lat="45.6661" lon="6.87489">
        <ele>2211.7</ele>
        <time>2016-05-06T11:07:09Z</time>
      </trkpt>
      <trkpt lat="45.6661" lon="6.87489">
        <ele>2211.8</ele>
        <time>2016-05-06T11:07:11Z</time>
      </trkpt>
      <trkpt lat="45.6661" lon="6.87489">
        <ele>2211.9</ele>
        <time>2016-05-06T11:07:13Z</time>
      </trkpt>
      <trkpt lat="45.6661" lon="6.87488">
        <ele>2211.9</ele>
        <time>2016-05-06T11:07:15Z</time>
      </trkpt>
      <trkpt lat="45.6661" lon="6.87488">
        <ele>2212</ele>
        <time>2016-05-06T11:07:17Z</time>
      </trkpt>
      <trkpt lat="45.6661" lon="6.87488">
        <ele>2211.7</ele>
        <time>2016-05-06T11:07:19Z</time>
      </trkpt>
      <trkpt lat="45.6661" lon="6.87488">
        <ele>2211.6</ele>
        <time>2016-05-06T11:07:21Z</time>
      </trkpt>
      <trkpt lat="45.6661" lon="6.87488">
        <ele>2211.5</ele>
        <time>2016-05-06T11:07:23Z</time>
      </trkpt>
      <trkpt lat="45.6661" lon="6.87488">
        <ele>2211.5</ele>
        <time>2016-05-06T11:07:25Z</time>
      </trkpt>
      <trkpt lat="45.6661" lon="6.87488">
        <ele>2211.3</ele>
        <time>2016-05-06T11:07:27Z</time>
      </trkpt>
      <trkpt lat="45.6661" lon="6.87488">
        <ele>2211.5</ele>
        <time>2016-05-06T11:07:29Z</time>
      </trkpt>
      <trkpt lat="45.6661" lon="6.87488">
        <ele>2211.4</ele>
        <time>2016-05-06T11:07:31Z</time>
      </trkpt>
      <trkpt lat="45.6661" lon="6.87487">
        <ele>2211.5</ele>
        <time>2016-05-06T11:07:33Z</time>
      </trkpt>
      <trkpt lat="45.6661" lon="6.87487">
        <ele>2211.4</ele>
        <time>2016-05-06T11:07:35Z</time>
      </trkpt>
      <trkpt lat="45.6661" lon="6.87487">
        <ele>2211.3</ele>
        <time>2016-05-06T11:07:37Z</time>
      </trkpt>
      <trkpt lat="45.6661" lon="6.87487">
        <ele>2211.3</ele>
        <time>2016-05-06T11:07:39Z</time>
      </trkpt>
      <trkpt lat="45.6661" lon="6.87487">
        <ele>2211.5</ele>
        <time>2016-05-06T11:07:41Z</time>
      </trkpt>
      <trkpt lat="45.6661" lon="6.87486">
        <ele>2211.3</ele>
        <time>2016-05-06T11:07:43Z</time>
      </trkpt>
      <trkpt lat="45.6661" lon="6.87486">
        <ele>2211.3</ele>
        <time>2016-05-06T11:07:45Z</time>
      </trkpt>
      <trkpt lat="45.6661" lon="6.87485">
        <ele>2211.3</ele>
        <time>2016-05-06T11:07:47Z</time>
      </trkpt>
      <trkpt lat="45.6661" lon="6.87486">
        <ele>2211.4</ele>
        <time>2016-05-06T11:07:49Z</time>
      </trkpt>
      <trkpt lat="45.6661" lon="6.87486">
        <ele>2211.5</ele>
        <time>2016-05-06T11:07:51Z</time>
      </trkpt>
      <trkpt lat="45.66611" lon="6.87486">
        <ele>2211.3</ele>
        <time>2016-05-06T11:07:53Z</time>
      </trkpt>
      <trkpt lat="45.66611" lon="6.87487">
        <ele>2211.3</ele>
        <time>2016-05-06T11:07:55Z</time>
      </trkpt>
      <trkpt lat="45.66611" lon="6.87486">
        <ele>2211.3</ele>
        <time>2016-05-06T11:07:57Z</time>
      </trkpt>
      <trkpt lat="45.66611" lon="6.87486">
        <ele>2211.3</ele>
        <time>2016-05-06T11:07:59Z</time>
      </trkpt>
      <trkpt lat="45.66612" lon="6.87485">
        <ele>2211.4</ele>
        <time>2016-05-06T11:08:01Z</time>
      </trkpt>
      <trkpt lat="45.66612" lon="6.87485">
        <ele>2211.4</ele>
        <time>2016-05-06T11:08:03Z</time>
      </trkpt>
      <trkpt lat="45.66612" lon="6.87486">
        <ele>2211.3</ele>
        <time>2016-05-06T11:08:05Z</time>
      </trkpt>
      <trkpt lat="45.66612" lon="6.87487">
        <ele>2211.3</ele>
        <time>2016-05-06T11:08:07Z</time>
      </trkpt>
      <trkpt lat="45.66611" lon="6.87487">
        <ele>2211.3</ele>
        <time>2016-05-06T11:08:09Z</time>
      </trkpt>
      <trkpt lat="45.66611" lon="6.87486">
        <ele>2211.2</ele>
        <time>2016-05-06T11:08:11Z</time>
      </trkpt>
      <trkpt lat="45.66611" lon="6.87487">
        <ele>2211.2</ele>
        <time>2016-05-06T11:08:13Z</time>
      </trkpt>
      <trkpt lat="45.66611" lon="6.87487">
        <ele>2211.3</ele>
        <time>2016-05-06T11:08:15Z</time>
      </trkpt>
      <trkpt lat="45.6661" lon="6.87487">
        <ele>2211.3</ele>
        <time>2016-05-06T11:08:17Z</time>
      </trkpt>
      <trkpt lat="45.6661" lon="6.87488">
        <ele>2211.4</ele>
        <time>2016-05-06T11:08:19Z</time>
      </trkpt>
      <trkpt lat="45.6661" lon="6.87488">
        <ele>2211.5</ele>
        <time>2016-05-06T11:08:21Z</time>
      </trkpt>
      <trkpt lat="45.6661" lon="6.87488">
        <ele>2211.5</ele>
        <time>2016-05-06T11:08:23Z</time>
      </trkpt>
      <trkpt lat="45.66609" lon="6.87488">
        <ele>2211.5</ele>
        <time>2016-05-06T11:08:25Z</time>
      </trkpt>
      <trkpt lat="45.66609" lon="6.87489">
        <ele>2211.5</ele>
        <time>2016-05-06T11:08:27Z</time>
      </trkpt>
      <trkpt lat="45.66609" lon="6.87489">
        <ele>2211.5</ele>
        <time>2016-05-06T11:08:29Z</time>
      </trkpt>
      <trkpt lat="45.66609" lon="6.87489">
        <ele>2211.5</ele>
        <time>2016-05-06T11:08:31Z</time>
      </trkpt>
      <trkpt lat="45.66609" lon="6.87489">
        <ele>2211.6</ele>
        <time>2016-05-06T11:08:33Z</time>
      </trkpt>
      <trkpt lat="45.66609" lon="6.87489">
        <ele>2211.5</ele>
        <time>2016-05-06T11:08:35Z</time>
      </trkpt>
      <trkpt lat="45.66609" lon="6.87489">
        <ele>2211.5</ele>
        <time>2016-05-06T11:08:37Z</time>
      </trkpt>
      <trkpt lat="45.66609" lon="6.8749">
        <ele>2211.5</ele>
        <time>2016-05-06T11:08:39Z</time>
      </trkpt>
      <trkpt lat="45.66609" lon="6.8749">
        <ele>2211.4</ele>
        <time>2016-05-06T11:08:41Z</time>
      </trkpt>
      <trkpt lat="45.66609" lon="6.8749">
        <ele>2211.4</ele>
        <time>2016-05-06T11:08:43Z</time>
      </trkpt>
      <trkpt lat="45.66609" lon="6.8749">
        <ele>2211.3</ele>
        <time>2016-05-06T11:08:45Z</time>
      </trkpt>
      <trkpt lat="45.66609" lon="6.8749">
        <ele>2211.3</ele>
        <time>2016-05-06T11:08:47Z</time>
      </trkpt>
      <trkpt lat="45.66609" lon="6.87491">
        <ele>2211.3</ele>
        <time>2016-05-06T11:08:49Z</time>
      </trkpt>
      <trkpt lat="45.66609" lon="6.87491">
        <ele>2211.5</ele>
        <time>2016-05-06T11:08:51Z</time>
      </trkpt>
      <trkpt lat="45.66609" lon="6.87491">
        <ele>2211.6</ele>
        <time>2016-05-06T11:08:53Z</time>
      </trkpt>
      <trkpt lat="45.66609" lon="6.8749">
        <ele>2211.5</ele>
        <time>2016-05-06T11:08:55Z</time>
      </trkpt>
      <trkpt lat="45.6661" lon="6.8749">
        <ele>2211.6</ele>
        <time>2016-05-06T11:08:57Z</time>
      </trkpt>
      <trkpt lat="45.6661" lon="6.8749">
        <ele>2211.6</ele>
        <time>2016-05-06T11:08:59Z</time>
      </trkpt>
      <trkpt lat="45.6661" lon="6.8749">
        <ele>2211.5</ele>
        <time>2016-05-06T11:09:01Z</time>
      </trkpt>
      <trkpt lat="45.6661" lon="6.87491">
        <ele>2211.7</ele>
        <time>2016-05-06T11:09:03Z</time>
      </trkpt>
      <trkpt lat="45.6661" lon="6.87491">
        <ele>2211.8</ele>
        <time>2016-05-06T11:09:05Z</time>
      </trkpt>
      <trkpt lat="45.6661" lon="6.87491">
        <ele>2211.9</ele>
        <time>2016-05-06T11:09:07Z</time>
      </trkpt>
      <trkpt lat="45.6661" lon="6.87491">
        <ele>2211.8</ele>
        <time>2016-05-06T11:09:09Z</time>
      </trkpt>
      <trkpt lat="45.6661" lon="6.87491">
        <ele>2211.9</ele>
        <time>2016-05-06T11:09:11Z</time>
      </trkpt>
      <trkpt lat="45.6661" lon="6.87491">
        <ele>2211.9</ele>
        <time>2016-05-06T11:09:13Z</time>
      </trkpt>
      <trkpt lat="45.6661" lon="6.87492">
        <ele>2211.7</ele>
        <time>2016-05-06T11:09:15Z</time>
      </trkpt>
      <trkpt lat="45.6661" lon="6.87491">
        <ele>2211.7</ele>
        <time>2016-05-06T11:09:17Z</time>
      </trkpt>
      <trkpt lat="45.6661" lon="6.8749">
        <ele>2211.8</ele>
        <time>2016-05-06T11:09:19Z</time>
      </trkpt>
      <trkpt lat="45.6661" lon="6.87489">
        <ele>2211.7</ele>
        <time>2016-05-06T11:09:21Z</time>
      </trkpt>
      <trkpt lat="45.6661" lon="6.87488">
        <ele>2211.6</ele>
        <time>2016-05-06T11:09:23Z</time>
      </trkpt>
      <trkpt lat="45.6661" lon="6.87488">
        <ele>2211.6</ele>
        <time>2016-05-06T11:09:25Z</time>
      </trkpt>
      <trkpt lat="45.6661" lon="6.87487">
        <ele>2211.5</ele>
        <time>2016-05-06T11:09:27Z</time>
      </trkpt>
      <trkpt lat="45.66609" lon="6.87487">
        <ele>2211.5</ele>
        <time>2016-05-06T11:09:29Z</time>
      </trkpt>
      <trkpt lat="45.66609" lon="6.87486">
        <ele>2211.5</ele>
        <time>2016-05-06T11:09:31Z</time>
      </trkpt>
      <trkpt lat="45.66609" lon="6.87486">
        <ele>2211.6</ele>
        <time>2016-05-06T11:09:33Z</time>
      </trkpt>
      <trkpt lat="45.66609" lon="6.87485">
        <ele>2211.7</ele>
        <time>2016-05-06T11:09:35Z</time>
      </trkpt>
      <trkpt lat="45.66609" lon="6.87485">
        <ele>2211.8</ele>
        <time>2016-05-06T11:09:37Z</time>
      </trkpt>
      <trkpt lat="45.66609" lon="6.87485">
        <ele>2212</ele>
        <time>2016-05-06T11:09:39Z</time>
      </trkpt>
      <trkpt lat="45.66609" lon="6.87485">
        <ele>2212</ele>
        <time>2016-05-06T11:09:41Z</time>
      </trkpt>
      <trkpt lat="45.66609" lon="6.87485">
        <ele>2212</ele>
        <time>2016-05-06T11:09:43Z</time>
      </trkpt>
      <trkpt lat="45.66609" lon="6.87484">
        <ele>2212</ele>
        <time>2016-05-06T11:09:45Z</time>
      </trkpt>
      <trkpt lat="45.66609" lon="6.87484">
        <ele>2212</ele>
        <time>2016-05-06T11:09:47Z</time>
      </trkpt>
      <trkpt lat="45.66609" lon="6.87484">
        <ele>2211.8</ele>
        <time>2016-05-06T11:09:49Z</time>
      </trkpt>
      <trkpt lat="45.66609" lon="6.87484">
        <ele>2211.8</ele>
        <time>2016-05-06T11:09:51Z</time>
      </trkpt>
      <trkpt lat="45.66608" lon="6.87484">
        <ele>2211.8</ele>
        <time>2016-05-06T11:09:53Z</time>
      </trkpt>
      <trkpt lat="45.66608" lon="6.87484">
        <ele>2211.8</ele>
        <time>2016-05-06T11:09:55Z</time>
      </trkpt>
      <trkpt lat="45.66608" lon="6.87484">
        <ele>2211.8</ele>
        <time>2016-05-06T11:09:57Z</time>
      </trkpt>
      <trkpt lat="45.66608" lon="6.87484">
        <ele>2211.9</ele>
        <time>2016-05-06T11:09:59Z</time>
      </trkpt>
      <trkpt lat="45.66608" lon="6.87484">
        <ele>2211.9</ele>
        <time>2016-05-06T11:10:01Z</time>
      </trkpt>
      <trkpt lat="45.66608" lon="6.87485">
        <ele>2211.9</ele>
        <time>2016-05-06T11:10:03Z</time>
      </trkpt>
      <trkpt lat="45.66608" lon="6.87485">
        <ele>2211.8</ele>
        <time>2016-05-06T11:10:05Z</time>
      </trkpt>
      <trkpt lat="45.66607" lon="6.87486">
        <ele>2211.8</ele>
        <time>2016-05-06T11:10:07Z</time>
      </trkpt>
      <trkpt lat="45.66607" lon="6.87486">
        <ele>2211.7</ele>
        <time>2016-05-06T11:10:09Z</time>
      </trkpt>
      <trkpt lat="45.66607" lon="6.87486">
        <ele>2211.7</ele>
        <time>2016-05-06T11:10:11Z</time>
      </trkpt>
      <trkpt lat="45.66607" lon="6.87486">
        <ele>2211.7</ele>
        <time>2016-05-06T11:10:13Z</time>
      </trkpt>
      <trkpt lat="45.66607" lon="6.87486">
        <ele>2211.7</ele>
        <time>2016-05-06T11:10:15Z</time>
      </trkpt>
      <trkpt lat="45.66608" lon="6.87485">
        <ele>2211.7</ele>
        <time>2016-05-06T11:10:17Z</time>
      </trkpt>
      <trkpt lat="45.66608" lon="6.87485">
        <ele>2211.8</ele>
        <time>2016-05-06T11:10:19Z</time>
      </trkpt>
      <trkpt lat="45.66608" lon="6.87485">
        <ele>2211.9</ele>
        <time>2016-05-06T11:10:21Z</time>
      </trkpt>
      <trkpt lat="45.66608" lon="6.87484">
        <ele>2211.9</ele>
        <time>2016-05-06T11:10:23Z</time>
      </trkpt>
      <trkpt lat="45.66608" lon="6.87484">
        <ele>2211.8</ele>
        <time>2016-05-06T11:10:25Z</time>
      </trkpt>
      <trkpt lat="45.66609" lon="6.87484">
        <ele>2211.9</ele>
        <time>2016-05-06T11:10:27Z</time>
      </trkpt>
      <trkpt lat="45.66609" lon="6.87484">
        <ele>2211.8</ele>
        <time>2016-05-06T11:10:29Z</time>
      </trkpt>
      <trkpt lat="45.66609" lon="6.87484">
        <ele>2211.8</ele>
        <time>2016-05-06T11:10:31Z</time>
      </trkpt>
      <trkpt lat="45.66609" lon="6.87484">
        <ele>2211.8</ele>
        <time>2016-05-06T11:10:33Z</time>
      </trkpt>
      <trkpt lat="45.6661" lon="6.87484">
        <ele>2211.8</ele>
        <time>2016-05-06T11:10:35Z</time>
      </trkpt>
      <trkpt lat="45.6661" lon="6.87484">
        <ele>2212</ele>
        <time>2016-05-06T11:10:37Z</time>
      </trkpt>
      <trkpt lat="45.6661" lon="6.87484">
        <ele>2212</ele>
        <time>2016-05-06T11:10:39Z</time>
      </trkpt>
      <trkpt lat="45.6661" lon="6.87483">
        <ele>2211.8</ele>
        <time>2016-05-06T11:10:41Z</time>
      </trkpt>
      <trkpt lat="45.66609" lon="6.87483">
        <ele>2211.8</ele>
        <time>2016-05-06T11:10:43Z</time>
      </trkpt>
      <trkpt lat="45.66609" lon="6.87483">
        <ele>2211.7</ele>
        <time>2016-05-06T11:10:45Z</time>
      </trkpt>
      <trkpt lat="45.66609" lon="6.87483">
        <ele>2211.6</ele>
        <time>2016-05-06T11:10:47Z</time>
      </trkpt>
      <trkpt lat="45.66609" lon="6.87483">
        <ele>2211.6</ele>
        <time>2016-05-06T11:10:49Z</time>
      </trkpt>
      <trkpt lat="45.66609" lon="6.87484">
        <ele>2211.8</ele>
        <time>2016-05-06T11:10:51Z</time>
      </trkpt>
      <trkpt lat="45.66609" lon="6.87484">
        <ele>2212</ele>
        <time>2016-05-06T11:10:53Z</time>
      </trkpt>
      <trkpt lat="45.66609" lon="6.87485">
        <ele>2212</ele>
        <time>2016-05-06T11:10:55Z</time>
      </trkpt>
      <trkpt lat="45.6661" lon="6.87486">
        <ele>2212</ele>
        <time>2016-05-06T11:10:57Z</time>
      </trkpt>
      <trkpt lat="45.6661" lon="6.87486">
        <ele>2211.9</ele>
        <time>2016-05-06T11:10:59Z</time>
      </trkpt>
      <trkpt lat="45.6661" lon="6.87487">
        <ele>2211.9</ele>
        <time>2016-05-06T11:11:01Z</time>
      </trkpt>
      <trkpt lat="45.66611" lon="6.87487">
        <ele>2211.9</ele>
        <time>2016-05-06T11:11:03Z</time>
      </trkpt>
      <trkpt lat="45.6661" lon="6.87486">
        <ele>2211.6</ele>
        <time>2016-05-06T11:11:05Z</time>
      </trkpt>
      <trkpt lat="45.6661" lon="6.87486">
        <ele>2211.8</ele>
        <time>2016-05-06T11:11:07Z</time>
      </trkpt>
      <trkpt lat="45.6661" lon="6.87486">
        <ele>2211.9</ele>
        <time>2016-05-06T11:11:09Z</time>
      </trkpt>
      <trkpt lat="45.6661" lon="6.87487">
        <ele>2211.9</ele>
        <time>2016-05-06T11:11:11Z</time>
      </trkpt>
      <trkpt lat="45.6661" lon="6.87488">
        <ele>2211.9</ele>
        <time>2016-05-06T11:11:13Z</time>
      </trkpt>
      <trkpt lat="45.6661" lon="6.87487">
        <ele>2211.1</ele>
        <time>2016-05-06T11:11:15Z</time>
      </trkpt>
      <trkpt lat="45.6661" lon="6.87486">
        <ele>2210.4</ele>
        <time>2016-05-06T11:11:17Z</time>
      </trkpt>
      <trkpt lat="45.66612" lon="6.87475">
        <ele>2210.8</ele>
        <time>2016-05-06T11:11:19Z</time>
      </trkpt>
      <trkpt lat="45.66621" lon="6.8747">
        <ele>2211.3</ele>
        <time>2016-05-06T11:11:21Z</time>
      </trkpt>
      <trkpt lat="45.66631" lon="6.87469">
        <ele>2212</ele>
        <time>2016-05-06T11:11:23Z</time>
      </trkpt>
      <trkpt lat="45.66638" lon="6.87467">
        <ele>2212.4</ele>
        <time>2016-05-06T11:11:25Z</time>
      </trkpt>
      <trkpt lat="45.66644" lon="6.87465">
        <ele>2212.6</ele>
        <time>2016-05-06T11:11:27Z</time>
      </trkpt>
      <trkpt lat="45.66649" lon="6.87462">
        <ele>2213.1</ele>
        <time>2016-05-06T11:11:29Z</time>
      </trkpt>
      <trkpt lat="45.66656" lon="6.87459">
        <ele>2213.5</ele>
        <time>2016-05-06T11:11:31Z</time>
      </trkpt>
      <trkpt lat="45.66663" lon="6.87458">
        <ele>2214.3</ele>
        <time>2016-05-06T11:11:33Z</time>
      </trkpt>
      <trkpt lat="45.6667" lon="6.87458">
        <ele>2214.5</ele>
        <time>2016-05-06T11:11:35Z</time>
      </trkpt>
      <trkpt lat="45.66677" lon="6.87458">
        <ele>2214.7</ele>
        <time>2016-05-06T11:11:37Z</time>
      </trkpt>
      <trkpt lat="45.66683" lon="6.8746">
        <ele>2214.9</ele>
        <time>2016-05-06T11:11:39Z</time>
      </trkpt>
      <trkpt lat="45.66689" lon="6.8746">
        <ele>2214.6</ele>
        <time>2016-05-06T11:11:41Z</time>
      </trkpt>
      <trkpt lat="45.66695" lon="6.87461">
        <ele>2214.3</ele>
        <time>2016-05-06T11:11:43Z</time>
      </trkpt>
      <trkpt lat="45.66697" lon="6.87456">
        <ele>2213.1</ele>
        <time>2016-05-06T11:11:45Z</time>
      </trkpt>
      <trkpt lat="45.66691" lon="6.87456">
        <ele>2211.5</ele>
        <time>2016-05-06T11:11:47Z</time>
      </trkpt>
      <trkpt lat="45.66686" lon="6.87467">
        <ele>2211.7</ele>
        <time>2016-05-06T11:11:49Z</time>
      </trkpt>
      <trkpt lat="45.66684" lon="6.87476">
        <ele>2212.8</ele>
        <time>2016-05-06T11:11:51Z</time>
      </trkpt>
      <trkpt lat="45.66681" lon="6.87485">
        <ele>2214.3</ele>
        <time>2016-05-06T11:11:53Z</time>
      </trkpt>
      <trkpt lat="45.66679" lon="6.87496">
        <ele>2215.8</ele>
        <time>2016-05-06T11:11:55Z</time>
      </trkpt>
      <trkpt lat="45.66678" lon="6.87506">
        <ele>2216.8</ele>
        <time>2016-05-06T11:11:57Z</time>
      </trkpt>
      <trkpt lat="45.66676" lon="6.87514">
        <ele>2217.4</ele>
        <time>2016-05-06T11:11:59Z</time>
      </trkpt>
      <trkpt lat="45.66674" lon="6.87521">
        <ele>2218.1</ele>
        <time>2016-05-06T11:12:01Z</time>
      </trkpt>
      <trkpt lat="45.66671" lon="6.87532">
        <ele>2218.8</ele>
        <time>2016-05-06T11:12:03Z</time>
      </trkpt>
      <trkpt lat="45.66667" lon="6.87547">
        <ele>2219.6</ele>
        <time>2016-05-06T11:12:05Z</time>
      </trkpt>
      <trkpt lat="45.66664" lon="6.87566">
        <ele>2216.9</ele>
        <time>2016-05-06T11:12:07Z</time>
      </trkpt>
      <trkpt lat="45.66661" lon="6.87583">
        <ele>2214.8</ele>
        <time>2016-05-06T11:12:09Z</time>
      </trkpt>
      <trkpt lat="45.66659" lon="6.87598">
        <ele>2213.2</ele>
        <time>2016-05-06T11:12:11Z</time>
      </trkpt>
      <trkpt lat="45.66658" lon="6.87607">
        <ele>2212.3</ele>
        <time>2016-05-06T11:12:13Z</time>
      </trkpt>
      <trkpt lat="45.66655" lon="6.87607">
        <ele>2212.8</ele>
        <time>2016-05-06T11:12:15Z</time>
      </trkpt>
      <trkpt lat="45.66657" lon="6.87596">
        <ele>2213</ele>
        <time>2016-05-06T11:12:17Z</time>
      </trkpt>
      <trkpt lat="45.66664" lon="6.87586">
        <ele>2213.3</ele>
        <time>2016-05-06T11:12:19Z</time>
      </trkpt>
      <trkpt lat="45.6667" lon="6.87579">
        <ele>2213.8</ele>
        <time>2016-05-06T11:12:21Z</time>
      </trkpt>
      <trkpt lat="45.66676" lon="6.87573">
        <ele>2214.3</ele>
        <time>2016-05-06T11:12:23Z</time>
      </trkpt>
      <trkpt lat="45.66682" lon="6.87567">
        <ele>2214.8</ele>
        <time>2016-05-06T11:12:25Z</time>
      </trkpt>
      <trkpt lat="45.66688" lon="6.87564">
        <ele>2215.8</ele>
        <time>2016-05-06T11:12:27Z</time>
      </trkpt>
      <trkpt lat="45.66694" lon="6.8756">
        <ele>2216.7</ele>
        <time>2016-05-06T11:12:29Z</time>
      </trkpt>
      <trkpt lat="45.66699" lon="6.87556">
        <ele>2217.4</ele>
        <time>2016-05-06T11:12:31Z</time>
      </trkpt>
      <trkpt lat="45.66706" lon="6.87552">
        <ele>2218.2</ele>
        <time>2016-05-06T11:12:33Z</time>
      </trkpt>
      <trkpt lat="45.66714" lon="6.87547">
        <ele>2218.6</ele>
        <time>2016-05-06T11:12:35Z</time>
      </trkpt>
      <trkpt lat="45.66722" lon="6.87542">
        <ele>2219</ele>
        <time>2016-05-06T11:12:37Z</time>
      </trkpt>
      <trkpt lat="45.6673" lon="6.87538">
        <ele>2219.7</ele>
        <time>2016-05-06T11:12:39Z</time>
      </trkpt>
      <trkpt lat="45.66739" lon="6.87535">
        <ele>2220</ele>
        <time>2016-05-06T11:12:41Z</time>
      </trkpt>
      <trkpt lat="45.6675" lon="6.87532">
        <ele>2220</ele>
        <time>2016-05-06T11:12:43Z</time>
      </trkpt>
      <trkpt lat="45.6676" lon="6.87529">
        <ele>2220.2</ele>
        <time>2016-05-06T11:12:45Z</time>
      </trkpt>
      <trkpt lat="45.6677" lon="6.87527">
        <ele>2219.8</ele>
        <time>2016-05-06T11:12:47Z</time>
      </trkpt>
      <trkpt lat="45.66779" lon="6.87525">
        <ele>2219.5</ele>
        <time>2016-05-06T11:12:49Z</time>
      </trkpt>
      <trkpt lat="45.66786" lon="6.87525">
        <ele>2218.9</ele>
        <time>2016-05-06T11:12:51Z</time>
      </trkpt>
      <trkpt lat="45.66786" lon="6.87522">
        <ele>2218.2</ele>
        <time>2016-05-06T11:12:53Z</time>
      </trkpt>
      <trkpt lat="45.66778" lon="6.87523">
        <ele>2217</ele>
        <time>2016-05-06T11:12:55Z</time>
      </trkpt>
      <trkpt lat="45.66774" lon="6.87533">
        <ele>2217</ele>
        <time>2016-05-06T11:12:57Z</time>
      </trkpt>
      <trkpt lat="45.66772" lon="6.87541">
        <ele>2218</ele>
        <time>2016-05-06T11:12:59Z</time>
      </trkpt>
      <trkpt lat="45.66767" lon="6.87546">
        <ele>2219.1</ele>
        <time>2016-05-06T11:13:01Z</time>
      </trkpt>
      <trkpt lat="45.66756" lon="6.87553">
        <ele>2219.4</ele>
        <time>2016-05-06T11:13:03Z</time>
      </trkpt>
      <trkpt lat="45.66748" lon="6.87568">
        <ele>2219.3</ele>
        <time>2016-05-06T11:13:05Z</time>
      </trkpt>
      <trkpt lat="45.66743" lon="6.87583">
        <ele>2219.4</ele>
        <time>2016-05-06T11:13:07Z</time>
      </trkpt>
      <trkpt lat="45.66739" lon="6.87599">
        <ele>2219.4</ele>
        <time>2016-05-06T11:13:09Z</time>
      </trkpt>
      <trkpt lat="45.66735" lon="6.87613">
        <ele>2219.4</ele>
        <time>2016-05-06T11:13:11Z</time>
      </trkpt>
      <trkpt lat="45.6673" lon="6.87627">
        <ele>2219.5</ele>
        <time>2016-05-06T11:13:13Z</time>
      </trkpt>
      <trkpt lat="45.66726" lon="6.87642">
        <ele>2219.4</ele>
        <time>2016-05-06T11:13:15Z</time>
      </trkpt>
      <trkpt lat="45.66722" lon="6.87656">
        <ele>2219.6</ele>
        <time>2016-05-06T11:13:17Z</time>
      </trkpt>
      <trkpt lat="45.6672" lon="6.87667">
        <ele>2220.3</ele>
        <time>2016-05-06T11:13:19Z</time>
      </trkpt>
      <trkpt lat="45.66715" lon="6.87676">
        <ele>2222.3</ele>
        <time>2016-05-06T11:13:21Z</time>
      </trkpt>
      <trkpt lat="45.66712" lon="6.87686">
        <ele>2223.4</ele>
        <time>2016-05-06T11:13:23Z</time>
      </trkpt>
      <trkpt lat="45.66709" lon="6.87696">
        <ele>2224.1</ele>
        <time>2016-05-06T11:13:25Z</time>
      </trkpt>
      <trkpt lat="45.66704" lon="6.87703">
        <ele>2225.5</ele>
        <time>2016-05-06T11:13:27Z</time>
      </trkpt>
      <trkpt lat="45.66699" lon="6.87698">
        <ele>2226.9</ele>
        <time>2016-05-06T11:13:29Z</time>
      </trkpt>
      <trkpt lat="45.66705" lon="6.87683">
        <ele>2227.9</ele>
        <time>2016-05-06T11:13:31Z</time>
      </trkpt>
      <trkpt lat="45.66717" lon="6.87673">
        <ele>2229</ele>
        <time>2016-05-06T11:13:33Z</time>
      </trkpt>
      <trkpt lat="45.66731" lon="6.87665">
        <ele>2229.2</ele>
        <time>2016-05-06T11:13:35Z</time>
      </trkpt>
      <trkpt lat="45.66743" lon="6.87658">
        <ele>2228.9</ele>
        <time>2016-05-06T11:13:37Z</time>
      </trkpt>
      <trkpt lat="45.66751" lon="6.87652">
        <ele>2229.4</ele>
        <time>2016-05-06T11:13:39Z</time>
      </trkpt>
      <trkpt lat="45.66757" lon="6.87646">
        <ele>2230.2</ele>
        <time>2016-05-06T11:13:41Z</time>
      </trkpt>
      <trkpt lat="45.66764" lon="6.87639">
        <ele>2231.2</ele>
        <time>2016-05-06T11:13:43Z</time>
      </trkpt>
      <trkpt lat="45.66772" lon="6.87635">
        <ele>2232.6</ele>
        <time>2016-05-06T11:13:45Z</time>
      </trkpt>
      <trkpt lat="45.6678" lon="6.87631">
        <ele>2233.8</ele>
        <time>2016-05-06T11:13:47Z</time>
      </trkpt>
      <trkpt lat="45.6679" lon="6.87627">
        <ele>2234.6</ele>
        <time>2016-05-06T11:13:49Z</time>
      </trkpt>
      <trkpt lat="45.66801" lon="6.87626">
        <ele>2235.5</ele>
        <time>2016-05-06T11:13:51Z</time>
      </trkpt>
      <trkpt lat="45.66813" lon="6.87625">
        <ele>2236</ele>
        <time>2016-05-06T11:13:53Z</time>
      </trkpt>
      <trkpt lat="45.66827" lon="6.87625">
        <ele>2235.2</ele>
        <time>2016-05-06T11:13:55Z</time>
      </trkpt>
      <trkpt lat="45.6684" lon="6.87627">
        <ele>2234.4</ele>
        <time>2016-05-06T11:13:57Z</time>
      </trkpt>
      <trkpt lat="45.66853" lon="6.87629">
        <ele>2232.6</ele>
        <time>2016-05-06T11:13:59Z</time>
      </trkpt>
      <trkpt lat="45.66866" lon="6.87631">
        <ele>2230.7</ele>
        <time>2016-05-06T11:14:01Z</time>
      </trkpt>
      <trkpt lat="45.66879" lon="6.87631">
        <ele>2228.7</ele>
        <time>2016-05-06T11:14:03Z</time>
      </trkpt>
      <trkpt lat="45.66891" lon="6.87631">
        <ele>2226.7</ele>
        <time>2016-05-06T11:14:05Z</time>
      </trkpt>
      <trkpt lat="45.66901" lon="6.87633">
        <ele>2225.2</ele>
        <time>2016-05-06T11:14:07Z</time>
      </trkpt>
      <trkpt lat="45.66907" lon="6.87635">
        <ele>2224</ele>
        <time>2016-05-06T11:14:09Z</time>
      </trkpt>
      <trkpt lat="45.66908" lon="6.87634">
        <ele>2222.1</ele>
        <time>2016-05-06T11:14:11Z</time>
      </trkpt>
      <trkpt lat="45.66902" lon="6.87633">
        <ele>2219.8</ele>
        <time>2016-05-06T11:14:13Z</time>
      </trkpt>
      <trkpt lat="45.66896" lon="6.87642">
        <ele>2218.9</ele>
        <time>2016-05-06T11:14:15Z</time>
      </trkpt>
      <trkpt lat="45.66893" lon="6.87652">
        <ele>2219.1</ele>
        <time>2016-05-06T11:14:17Z</time>
      </trkpt>
      <trkpt lat="45.66887" lon="6.87655">
        <ele>2219.6</ele>
        <time>2016-05-06T11:14:19Z</time>
      </trkpt>
      <trkpt lat="45.66881" lon="6.8766">
        <ele>2220.4</ele>
        <time>2016-05-06T11:14:21Z</time>
      </trkpt>
      <trkpt lat="45.66877" lon="6.87665">
        <ele>2221.8</ele>
        <time>2016-05-06T11:14:23Z</time>
      </trkpt>
      <trkpt lat="45.66871" lon="6.8767">
        <ele>2223.1</ele>
        <time>2016-05-06T11:14:25Z</time>
      </trkpt>
      <trkpt lat="45.66868" lon="6.87677">
        <ele>2225</ele>
        <time>2016-05-06T11:14:27Z</time>
      </trkpt>
      <trkpt lat="45.66867" lon="6.87682">
        <ele>2226.8</ele>
        <time>2016-05-06T11:14:29Z</time>
      </trkpt>
      <trkpt lat="45.66864" lon="6.8768">
        <ele>2228.1</ele>
        <time>2016-05-06T11:14:31Z</time>
      </trkpt>
      <trkpt lat="45.66868" lon="6.87676">
        <ele>2228.9</ele>
        <time>2016-05-06T11:14:33Z</time>
      </trkpt>
      <trkpt lat="45.66875" lon="6.87674">
        <ele>2229.8</ele>
        <time>2016-05-06T11:14:35Z</time>
      </trkpt>
      <trkpt lat="45.66885" lon="6.87675">
        <ele>2230.2</ele>
        <time>2016-05-06T11:14:37Z</time>
      </trkpt>
      <trkpt lat="45.66895" lon="6.87676">
        <ele>2229.9</ele>
        <time>2016-05-06T11:14:39Z</time>
      </trkpt>
      <trkpt lat="45.66904" lon="6.87677">
        <ele>2229.1</ele>
        <time>2016-05-06T11:14:41Z</time>
      </trkpt>
      <trkpt lat="45.66911" lon="6.87675">
        <ele>2228.3</ele>
        <time>2016-05-06T11:14:43Z</time>
      </trkpt>
      <trkpt lat="45.66917" lon="6.87674">
        <ele>2228.4</ele>
        <time>2016-05-06T11:14:45Z</time>
      </trkpt>
      <trkpt lat="45.66923" lon="6.87675">
        <ele>2228</ele>
        <time>2016-05-06T11:14:47Z</time>
      </trkpt>
      <trkpt lat="45.66926" lon="6.87675">
        <ele>2227.5</ele>
        <time>2016-05-06T11:14:49Z</time>
      </trkpt>
      <trkpt lat="45.66924" lon="6.87674">
        <ele>2226.2</ele>
        <time>2016-05-06T11:14:51Z</time>
      </trkpt>
      <trkpt lat="45.66922" lon="6.87676">
        <ele>2225.6</ele>
        <time>2016-05-06T11:14:53Z</time>
      </trkpt>
      <trkpt lat="45.66919" lon="6.87678">
        <ele>2225.8</ele>
        <time>2016-05-06T11:14:55Z</time>
      </trkpt>
      <trkpt lat="45.66914" lon="6.87679">
        <ele>2225.6</ele>
        <time>2016-05-06T11:14:57Z</time>
      </trkpt>
      <trkpt lat="45.66907" lon="6.87686">
        <ele>2225.4</ele>
        <time>2016-05-06T11:14:59Z</time>
      </trkpt>
      <trkpt lat="45.66904" lon="6.87694">
        <ele>2226</ele>
        <time>2016-05-06T11:15:01Z</time>
      </trkpt>
      <trkpt lat="45.66901" lon="6.87698">
        <ele>2226.9</ele>
        <time>2016-05-06T11:15:03Z</time>
      </trkpt>
      <trkpt lat="45.66898" lon="6.87702">
        <ele>2227.7</ele>
        <time>2016-05-06T11:15:05Z</time>
      </trkpt>
      <trkpt lat="45.66892" lon="6.87704">
        <ele>2228.7</ele>
        <time>2016-05-06T11:15:07Z</time>
      </trkpt>
      <trkpt lat="45.66887" lon="6.8771">
        <ele>2229.6</ele>
        <time>2016-05-06T11:15:09Z</time>
      </trkpt>
      <trkpt lat="45.66881" lon="6.87715">
        <ele>2231.2</ele>
        <time>2016-05-06T11:15:11Z</time>
      </trkpt>
      <trkpt lat="45.66873" lon="6.87723">
        <ele>2232.2</ele>
        <time>2016-05-06T11:15:13Z</time>
      </trkpt>
      <trkpt lat="45.66868" lon="6.87735">
        <ele>2234.5</ele>
        <time>2016-05-06T11:15:15Z</time>
      </trkpt>
      <trkpt lat="45.66867" lon="6.87742">
        <ele>2236.6</ele>
        <time>2016-05-06T11:15:17Z</time>
      </trkpt>
      <trkpt lat="45.66862" lon="6.87747">
        <ele>2238.3</ele>
        <time>2016-05-06T11:15:19Z</time>
      </trkpt>
      <trkpt lat="45.66858" lon="6.87755">
        <ele>2240.2</ele>
        <time>2016-05-06T11:15:21Z</time>
      </trkpt>
      <trkpt lat="45.66856" lon="6.87762">
        <ele>2242.3</ele>
        <time>2016-05-06T11:15:23Z</time>
      </trkpt>
      <trkpt lat="45.66848" lon="6.87769">
        <ele>2243.7</ele>
        <time>2016-05-06T11:15:25Z</time>
      </trkpt>
      <trkpt lat="45.66842" lon="6.87782">
        <ele>2245.2</ele>
        <time>2016-05-06T11:15:27Z</time>
      </trkpt>
      <trkpt lat="45.66841" lon="6.87792">
        <ele>2246.4</ele>
        <time>2016-05-06T11:15:29Z</time>
      </trkpt>
      <trkpt lat="45.66838" lon="6.87799">
        <ele>2248</ele>
        <time>2016-05-06T11:15:31Z</time>
      </trkpt>
      <trkpt lat="45.66834" lon="6.87805">
        <ele>2249.8</ele>
        <time>2016-05-06T11:15:33Z</time>
      </trkpt>
      <trkpt lat="45.66829" lon="6.8781">
        <ele>2252.7</ele>
        <time>2016-05-06T11:15:35Z</time>
      </trkpt>
      <trkpt lat="45.66823" lon="6.87819">
        <ele>2254.8</ele>
        <time>2016-05-06T11:15:37Z</time>
      </trkpt>
      <trkpt lat="45.66822" lon="6.87826">
        <ele>2257.8</ele>
        <time>2016-05-06T11:15:39Z</time>
      </trkpt>
      <trkpt lat="45.66819" lon="6.87828">
        <ele>2259.8</ele>
        <time>2016-05-06T11:15:41Z</time>
      </trkpt>
      <trkpt lat="45.66821" lon="6.87822">
        <ele>2261.3</ele>
        <time>2016-05-06T11:15:43Z</time>
      </trkpt>
      <trkpt lat="45.66828" lon="6.87818">
        <ele>2262.4</ele>
        <time>2016-05-06T11:15:45Z</time>
      </trkpt>
      <trkpt lat="45.66838" lon="6.87814">
        <ele>2263</ele>
        <time>2016-05-06T11:15:47Z</time>
      </trkpt>
      <trkpt lat="45.66852" lon="6.87811">
        <ele>2262.4</ele>
        <time>2016-05-06T11:15:49Z</time>
      </trkpt>
      <trkpt lat="45.66866" lon="6.87809">
        <ele>2262</ele>
        <time>2016-05-06T11:15:51Z</time>
      </trkpt>
      <trkpt lat="45.66877" lon="6.87806">
        <ele>2260.5</ele>
        <time>2016-05-06T11:15:53Z</time>
      </trkpt>
      <trkpt lat="45.66887" lon="6.87802">
        <ele>2259.5</ele>
        <time>2016-05-06T11:15:55Z</time>
      </trkpt>
      <trkpt lat="45.66899" lon="6.87799">
        <ele>2258.2</ele>
        <time>2016-05-06T11:15:57Z</time>
      </trkpt>
      <trkpt lat="45.66911" lon="6.87796">
        <ele>2257.1</ele>
        <time>2016-05-06T11:15:59Z</time>
      </trkpt>
      <trkpt lat="45.66923" lon="6.87793">
        <ele>2255.8</ele>
        <time>2016-05-06T11:16:01Z</time>
      </trkpt>
      <trkpt lat="45.66935" lon="6.87792">
        <ele>2254.4</ele>
        <time>2016-05-06T11:16:03Z</time>
      </trkpt>
      <trkpt lat="45.66945" lon="6.87792">
        <ele>2253</ele>
        <time>2016-05-06T11:16:05Z</time>
      </trkpt>
      <trkpt lat="45.66957" lon="6.87792">
        <ele>2251.8</ele>
        <time>2016-05-06T11:16:07Z</time>
      </trkpt>
      <trkpt lat="45.66969" lon="6.87794">
        <ele>2250.4</ele>
        <time>2016-05-06T11:16:09Z</time>
      </trkpt>
      <trkpt lat="45.66981" lon="6.87794">
        <ele>2248.3</ele>
        <time>2016-05-06T11:16:11Z</time>
      </trkpt>
      <trkpt lat="45.66992" lon="6.87795">
        <ele>2246.3</ele>
        <time>2016-05-06T11:16:13Z</time>
      </trkpt>
      <trkpt lat="45.67005" lon="6.87795">
        <ele>2245.3</ele>
        <time>2016-05-06T11:16:15Z</time>
      </trkpt>
      <trkpt lat="45.67017" lon="6.87799">
        <ele>2243.5</ele>
        <time>2016-05-06T11:16:17Z</time>
      </trkpt>
      <trkpt lat="45.67028" lon="6.87805">
        <ele>2242.3</ele>
        <time>2016-05-06T11:16:19Z</time>
      </trkpt>
      <trkpt lat="45.67039" lon="6.87809">
        <ele>2240.1</ele>
        <time>2016-05-06T11:16:21Z</time>
      </trkpt>
      <trkpt lat="45.67051" lon="6.87813">
        <ele>2237.8</ele>
        <time>2016-05-06T11:16:23Z</time>
      </trkpt>
      <trkpt lat="45.67061" lon="6.87817">
        <ele>2235.7</ele>
        <time>2016-05-06T11:16:25Z</time>
      </trkpt>
      <trkpt lat="45.67071" lon="6.8782">
        <ele>2233.9</ele>
        <time>2016-05-06T11:16:27Z</time>
      </trkpt>
      <trkpt lat="45.6708" lon="6.87823">
        <ele>2232.2</ele>
        <time>2016-05-06T11:16:29Z</time>
      </trkpt>
      <trkpt lat="45.67089" lon="6.87826">
        <ele>2230.8</ele>
        <time>2016-05-06T11:16:31Z</time>
      </trkpt>
      <trkpt lat="45.67098" lon="6.8783">
        <ele>2229.4</ele>
        <time>2016-05-06T11:16:33Z</time>
      </trkpt>
      <trkpt lat="45.67106" lon="6.87835">
        <ele>2228.2</ele>
        <time>2016-05-06T11:16:35Z</time>
      </trkpt>
      <trkpt lat="45.67113" lon="6.87842">
        <ele>2226.6</ele>
        <time>2016-05-06T11:16:37Z</time>
      </trkpt>
      <trkpt lat="45.67117" lon="6.87848">
        <ele>2224.5</ele>
        <time>2016-05-06T11:16:39Z</time>
      </trkpt>
      <trkpt lat="45.67127" lon="6.8785">
        <ele>2222.1</ele>
        <time>2016-05-06T11:16:41Z</time>
      </trkpt>
      <trkpt lat="45.67143" lon="6.87846">
        <ele>2217.6</ele>
        <time>2016-05-06T11:16:43Z</time>
      </trkpt>
      <trkpt lat="45.67157" lon="6.87836">
        <ele>2212.5</ele>
        <time>2016-05-06T11:16:45Z</time>
      </trkpt>
      <trkpt lat="45.67168" lon="6.87822">
        <ele>2206.3</ele>
        <time>2016-05-06T11:16:47Z</time>
      </trkpt>
      <trkpt lat="45.67178" lon="6.87804">
        <ele>2199.1</ele>
        <time>2016-05-06T11:16:49Z</time>
      </trkpt>
      <trkpt lat="45.6719" lon="6.87779">
        <ele>2192</ele>
        <time>2016-05-06T11:16:51Z</time>
      </trkpt>
      <trkpt lat="45.67198" lon="6.87752">
        <ele>2185.6</ele>
        <time>2016-05-06T11:16:53Z</time>
      </trkpt>
      <trkpt lat="45.67209" lon="6.87729">
        <ele>2180.2</ele>
        <time>2016-05-06T11:16:55Z</time>
      </trkpt>
      <trkpt lat="45.67222" lon="6.87708">
        <ele>2176.2</ele>
        <time>2016-05-06T11:16:57Z</time>
      </trkpt>
      <trkpt lat="45.67231" lon="6.87694">
        <ele>2172.9</ele>
        <time>2016-05-06T11:16:59Z</time>
      </trkpt>
      <trkpt lat="45.67236" lon="6.87682">
        <ele>2171.4</ele>
        <time>2016-05-06T11:17:01Z</time>
      </trkpt>
      <trkpt lat="45.67245" lon="6.87674">
        <ele>2170.5</ele>
        <time>2016-05-06T11:17:03Z</time>
      </trkpt>
      <trkpt lat="45.67259" lon="6.87665">
        <ele>2170.6</ele>
        <time>2016-05-06T11:17:05Z</time>
      </trkpt>
      <trkpt lat="45.67276" lon="6.87653">
        <ele>2169.4</ele>
        <time>2016-05-06T11:17:07Z</time>
      </trkpt>
      <trkpt lat="45.6729" lon="6.87638">
        <ele>2168.5</ele>
        <time>2016-05-06T11:17:09Z</time>
      </trkpt>
      <trkpt lat="45.67304" lon="6.87621">
        <ele>2167.7</ele>
        <time>2016-05-06T11:17:11Z</time>
      </trkpt>
      <trkpt lat="45.67318" lon="6.87606">
        <ele>2167.2</ele>
        <time>2016-05-06T11:17:13Z</time>
      </trkpt>
      <trkpt lat="45.67331" lon="6.87594">
        <ele>2166.8</ele>
        <time>2016-05-06T11:17:15Z</time>
      </trkpt>
      <trkpt lat="45.67344" lon="6.87581">
        <ele>2166.4</ele>
        <time>2016-05-06T11:17:17Z</time>
      </trkpt>
      <trkpt lat="45.67357" lon="6.87569">
        <ele>2166.1</ele>
        <time>2016-05-06T11:17:19Z</time>
      </trkpt>
      <trkpt lat="45.67369" lon="6.87556">
        <ele>2165.8</ele>
        <time>2016-05-06T11:17:21Z</time>
      </trkpt>
      <trkpt lat="45.67379" lon="6.87544">
        <ele>2165.5</ele>
        <time>2016-05-06T11:17:23Z</time>
      </trkpt>
      <trkpt lat="45.67389" lon="6.8753">
        <ele>2165.4</ele>
        <time>2016-05-06T11:17:25Z</time>
      </trkpt>
      <trkpt lat="45.67398" lon="6.87517">
        <ele>2165.4</ele>
        <time>2016-05-06T11:17:27Z</time>
      </trkpt>
      <trkpt lat="45.67408" lon="6.87507">
        <ele>2165.8</ele>
        <time>2016-05-06T11:17:29Z</time>
      </trkpt>
      <trkpt lat="45.67417" lon="6.87499">
        <ele>2166.1</ele>
        <time>2016-05-06T11:17:31Z</time>
      </trkpt>
      <trkpt lat="45.67424" lon="6.87493">
        <ele>2165.9</ele>
        <time>2016-05-06T11:17:33Z</time>
      </trkpt>
      <trkpt lat="45.67428" lon="6.87486">
        <ele>2166</ele>
        <time>2016-05-06T11:17:35Z</time>
      </trkpt>
      <trkpt lat="45.67428" lon="6.87472">
        <ele>2166.2</ele>
        <time>2016-05-06T11:17:37Z</time>
      </trkpt>
      <trkpt lat="45.6743" lon="6.87462">
        <ele>2166.8</ele>
        <time>2016-05-06T11:17:39Z</time>
      </trkpt>
      <trkpt lat="45.6743" lon="6.87452">
        <ele>2167.9</ele>
        <time>2016-05-06T11:17:41Z</time>
      </trkpt>
      <trkpt lat="45.67431" lon="6.8744">
        <ele>2169.3</ele>
        <time>2016-05-06T11:17:43Z</time>
      </trkpt>
      <trkpt lat="45.67432" lon="6.87428">
        <ele>2170.7</ele>
        <time>2016-05-06T11:17:45Z</time>
      </trkpt>
      <trkpt lat="45.67433" lon="6.87421">
        <ele>2172.8</ele>
        <time>2016-05-06T11:17:47Z</time>
      </trkpt>
      <trkpt lat="45.67431" lon="6.87411">
        <ele>2174.9</ele>
        <time>2016-05-06T11:17:49Z</time>
      </trkpt>
      <trkpt lat="45.67428" lon="6.87402">
        <ele>2176.9</ele>
        <time>2016-05-06T11:17:51Z</time>
      </trkpt>
      <trkpt lat="45.67423" lon="6.87393">
        <ele>2178.7</ele>
        <time>2016-05-06T11:17:53Z</time>
      </trkpt>
      <trkpt lat="45.67413" lon="6.87389">
        <ele>2180.1</ele>
        <time>2016-05-06T11:17:55Z</time>
      </trkpt>
      <trkpt lat="45.67403" lon="6.87393">
        <ele>2180.1</ele>
        <time>2016-05-06T11:17:57Z</time>
      </trkpt>
      <trkpt lat="45.67395" lon="6.87401">
        <ele>2179.3</ele>
        <time>2016-05-06T11:17:59Z</time>
      </trkpt>
      <trkpt lat="45.67385" lon="6.87409">
        <ele>2177.4</ele>
        <time>2016-05-06T11:18:01Z</time>
      </trkpt>
      <trkpt lat="45.67377" lon="6.87403">
        <ele>2175.3</ele>
        <time>2016-05-06T11:18:03Z</time>
      </trkpt>
      <trkpt lat="45.67373" lon="6.87396">
        <ele>2173.7</ele>
        <time>2016-05-06T11:18:05Z</time>
      </trkpt>
      <trkpt lat="45.6737" lon="6.87388">
        <ele>2173.2</ele>
        <time>2016-05-06T11:18:07Z</time>
      </trkpt>
      <trkpt lat="45.67366" lon="6.8738">
        <ele>2173.7</ele>
        <time>2016-05-06T11:18:09Z</time>
      </trkpt>
      <trkpt lat="45.67363" lon="6.87371">
        <ele>2174.8</ele>
        <time>2016-05-06T11:18:11Z</time>
      </trkpt>
      <trkpt lat="45.67359" lon="6.87361">
        <ele>2176.4</ele>
        <time>2016-05-06T11:18:13Z</time>
      </trkpt>
      <trkpt lat="45.67357" lon="6.87353">
        <ele>2178.3</ele>
        <time>2016-05-06T11:18:15Z</time>
      </trkpt>
      <trkpt lat="45.67354" lon="6.87342">
        <ele>2180.1</ele>
        <time>2016-05-06T11:18:17Z</time>
      </trkpt>
      <trkpt lat="45.67352" lon="6.87332">
        <ele>2181.9</ele>
        <time>2016-05-06T11:18:19Z</time>
      </trkpt>
      <trkpt lat="45.67351" lon="6.87325">
        <ele>2183.7</ele>
        <time>2016-05-06T11:18:21Z</time>
      </trkpt>
      <trkpt lat="45.6735" lon="6.87318">
        <ele>2185.4</ele>
        <time>2016-05-06T11:18:23Z</time>
      </trkpt>
      <trkpt lat="45.6735" lon="6.87311">
        <ele>2187.2</ele>
        <time>2016-05-06T11:18:25Z</time>
      </trkpt>
      <trkpt lat="45.67349" lon="6.87302">
        <ele>2189.1</ele>
        <time>2016-05-06T11:18:27Z</time>
      </trkpt>
      <trkpt lat="45.67349" lon="6.87294">
        <ele>2191.1</ele>
        <time>2016-05-06T11:18:29Z</time>
      </trkpt>
      <trkpt lat="45.67348" lon="6.87286">
        <ele>2193.3</ele>
        <time>2016-05-06T11:18:31Z</time>
      </trkpt>
      <trkpt lat="45.67346" lon="6.87274">
        <ele>2195.3</ele>
        <time>2016-05-06T11:18:33Z</time>
      </trkpt>
      <trkpt lat="45.67347" lon="6.87267">
        <ele>2198</ele>
        <time>2016-05-06T11:18:35Z</time>
      </trkpt>
      <trkpt lat="45.67348" lon="6.87261">
        <ele>2200</ele>
        <time>2016-05-06T11:18:37Z</time>
      </trkpt>
      <trkpt lat="45.67346" lon="6.8725">
        <ele>2202</ele>
        <time>2016-05-06T11:18:39Z</time>
      </trkpt>
      <trkpt lat="45.67347" lon="6.87241">
        <ele>2203.9</ele>
        <time>2016-05-06T11:18:41Z</time>
      </trkpt>
      <trkpt lat="45.67347" lon="6.87234">
        <ele>2206</ele>
        <time>2016-05-06T11:18:43Z</time>
      </trkpt>
      <trkpt lat="45.67345" lon="6.87227">
        <ele>2207.8</ele>
        <time>2016-05-06T11:18:45Z</time>
      </trkpt>
      <trkpt lat="45.67342" lon="6.87218">
        <ele>2209.9</ele>
        <time>2016-05-06T11:18:47Z</time>
      </trkpt>
      <trkpt lat="45.67341" lon="6.8721">
        <ele>2212.1</ele>
        <time>2016-05-06T11:18:49Z</time>
      </trkpt>
      <trkpt lat="45.67341" lon="6.87201">
        <ele>2214.9</ele>
        <time>2016-05-06T11:18:51Z</time>
      </trkpt>
      <trkpt lat="45.6734" lon="6.87192">
        <ele>2217.3</ele>
        <time>2016-05-06T11:18:53Z</time>
      </trkpt>
      <trkpt lat="45.6734" lon="6.87185">
        <ele>2220.2</ele>
        <time>2016-05-06T11:18:55Z</time>
      </trkpt>
      <trkpt lat="45.6734" lon="6.87176">
        <ele>2223.1</ele>
        <time>2016-05-06T11:18:57Z</time>
      </trkpt>
      <trkpt lat="45.67338" lon="6.87167">
        <ele>2225.8</ele>
        <time>2016-05-06T11:18:59Z</time>
      </trkpt>
      <trkpt lat="45.67339" lon="6.87156">
        <ele>2228.3</ele>
        <time>2016-05-06T11:19:01Z</time>
      </trkpt>
      <trkpt lat="45.67341" lon="6.87148">
        <ele>2231.2</ele>
        <time>2016-05-06T11:19:03Z</time>
      </trkpt>
      <trkpt lat="45.67341" lon="6.87138">
        <ele>2233.5</ele>
        <time>2016-05-06T11:19:05Z</time>
      </trkpt>
      <trkpt lat="45.67343" lon="6.87129">
        <ele>2236.1</ele>
        <time>2016-05-06T11:19:07Z</time>
      </trkpt>
      <trkpt lat="45.67344" lon="6.87122">
        <ele>2238.7</ele>
        <time>2016-05-06T11:19:09Z</time>
      </trkpt>
      <trkpt lat="45.67344" lon="6.87118">
        <ele>2241.2</ele>
        <time>2016-05-06T11:19:11Z</time>
      </trkpt>
      <trkpt lat="45.67343" lon="6.87111">
        <ele>2243.5</ele>
        <time>2016-05-06T11:19:13Z</time>
      </trkpt>
      <trkpt lat="45.67343" lon="6.87102">
        <ele>2245.8</ele>
        <time>2016-05-06T11:19:15Z</time>
      </trkpt>
      <trkpt lat="45.67342" lon="6.8709">
        <ele>2248.8</ele>
        <time>2016-05-06T11:19:17Z</time>
      </trkpt>
      <trkpt lat="45.67343" lon="6.87084">
        <ele>2252</ele>
        <time>2016-05-06T11:19:19Z</time>
      </trkpt>
      <trkpt lat="45.67342" lon="6.87075">
        <ele>2254.9</ele>
        <time>2016-05-06T11:19:21Z</time>
      </trkpt>
      <trkpt lat="45.67343" lon="6.87064">
        <ele>2258.2</ele>
        <time>2016-05-06T11:19:23Z</time>
      </trkpt>
      <trkpt lat="45.67345" lon="6.87057">
        <ele>2261.3</ele>
        <time>2016-05-06T11:19:25Z</time>
      </trkpt>
      <trkpt lat="45.67346" lon="6.87044">
        <ele>2264.4</ele>
        <time>2016-05-06T11:19:27Z</time>
      </trkpt>
      <trkpt lat="45.67352" lon="6.87035">
        <ele>2267.7</ele>
        <time>2016-05-06T11:19:29Z</time>
      </trkpt>
      <trkpt lat="45.6736" lon="6.87028">
        <ele>2271</ele>
        <time>2016-05-06T11:19:31Z</time>
      </trkpt>
      <trkpt lat="45.67369" lon="6.87024">
        <ele>2273.6</ele>
        <time>2016-05-06T11:19:33Z</time>
      </trkpt>
      <trkpt lat="45.67376" lon="6.87022">
        <ele>2275.6</ele>
        <time>2016-05-06T11:19:35Z</time>
      </trkpt>
      <trkpt lat="45.67377" lon="6.87015">
        <ele>2276.8</ele>
        <time>2016-05-06T11:19:37Z</time>
      </trkpt>
      <trkpt lat="45.67376" lon="6.87003">
        <ele>2278.4</ele>
        <time>2016-05-06T11:19:39Z</time>
      </trkpt>
      <trkpt lat="45.67376" lon="6.8699">
        <ele>2280.4</ele>
        <time>2016-05-06T11:19:41Z</time>
      </trkpt>
      <trkpt lat="45.67379" lon="6.86981">
        <ele>2283.4</ele>
        <time>2016-05-06T11:19:43Z</time>
      </trkpt>
      <trkpt lat="45.6738" lon="6.86968">
        <ele>2285.7</ele>
        <time>2016-05-06T11:19:45Z</time>
      </trkpt>
      <trkpt lat="45.67383" lon="6.86958">
        <ele>2289.4</ele>
        <time>2016-05-06T11:19:47Z</time>
      </trkpt>
      <trkpt lat="45.67383" lon="6.86943">
        <ele>2292.5</ele>
        <time>2016-05-06T11:19:49Z</time>
      </trkpt>
      <trkpt lat="45.67389" lon="6.86932">
        <ele>2296</ele>
        <time>2016-05-06T11:19:51Z</time>
      </trkpt>
      <trkpt lat="45.67392" lon="6.8692">
        <ele>2299.3</ele>
        <time>2016-05-06T11:19:53Z</time>
      </trkpt>
      <trkpt lat="45.67396" lon="6.86907">
        <ele>2302.4</ele>
        <time>2016-05-06T11:19:55Z</time>
      </trkpt>
      <trkpt lat="45.67399" lon="6.869">
        <ele>2305.7</ele>
        <time>2016-05-06T11:19:57Z</time>
      </trkpt>
      <trkpt lat="45.674" lon="6.86891">
        <ele>2308.7</ele>
        <time>2016-05-06T11:19:59Z</time>
      </trkpt>
      <trkpt lat="45.67403" lon="6.86884">
        <ele>2311.8</ele>
        <time>2016-05-06T11:20:01Z</time>
      </trkpt>
      <trkpt lat="45.67402" lon="6.8687">
        <ele>2314.8</ele>
        <time>2016-05-06T11:20:03Z</time>
      </trkpt>
      <trkpt lat="45.67406" lon="6.86859">
        <ele>2318.3</ele>
        <time>2016-05-06T11:20:05Z</time>
      </trkpt>
      <trkpt lat="45.67411" lon="6.86855">
        <ele>2322</ele>
        <time>2016-05-06T11:20:07Z</time>
      </trkpt>
      <trkpt lat="45.67413" lon="6.86847">
        <ele>2325.1</ele>
        <time>2016-05-06T11:20:09Z</time>
      </trkpt>
      <trkpt lat="45.67418" lon="6.86835">
        <ele>2327.9</ele>
        <time>2016-05-06T11:20:11Z</time>
      </trkpt>
      <trkpt lat="45.67425" lon="6.86829">
        <ele>2331.3</ele>
        <time>2016-05-06T11:20:13Z</time>
      </trkpt>
      <trkpt lat="45.67428" lon="6.86816">
        <ele>2334.4</ele>
        <time>2016-05-06T11:20:15Z</time>
      </trkpt>
      <trkpt lat="45.67434" lon="6.86801">
        <ele>2338.5</ele>
        <time>2016-05-06T11:20:17Z</time>
      </trkpt>
      <trkpt lat="45.67444" lon="6.86791">
        <ele>2342.4</ele>
        <time>2016-05-06T11:20:19Z</time>
      </trkpt>
      <trkpt lat="45.67454" lon="6.86786">
        <ele>2346.3</ele>
        <time>2016-05-06T11:20:21Z</time>
      </trkpt>
      <trkpt lat="45.67464" lon="6.86785">
        <ele>2349.2</ele>
        <time>2016-05-06T11:20:23Z</time>
      </trkpt>
      <trkpt lat="45.67472" lon="6.86787">
        <ele>2351.2</ele>
        <time>2016-05-06T11:20:25Z</time>
      </trkpt>
      <trkpt lat="45.67478" lon="6.86789">
        <ele>2352.7</ele>
        <time>2016-05-06T11:20:27Z</time>
      </trkpt>
      <trkpt lat="45.67483" lon="6.8679">
        <ele>2353.7</ele>
        <time>2016-05-06T11:20:29Z</time>
      </trkpt>
      <trkpt lat="45.67487" lon="6.86792">
        <ele>2354.6</ele>
        <time>2016-05-06T11:20:31Z</time>
      </trkpt>
      <trkpt lat="45.67491" lon="6.86793">
        <ele>2355.1</ele>
        <time>2016-05-06T11:20:33Z</time>
      </trkpt>
      <trkpt lat="45.67493" lon="6.86791">
        <ele>2355.2</ele>
        <time>2016-05-06T11:20:35Z</time>
      </trkpt>
      <trkpt lat="45.67496" lon="6.86778">
        <ele>2355.6</ele>
        <time>2016-05-06T11:20:37Z</time>
      </trkpt>
      <trkpt lat="45.67499" lon="6.86767">
        <ele>2357.2</ele>
        <time>2016-05-06T11:20:39Z</time>
      </trkpt>
      <trkpt lat="45.67499" lon="6.86754">
        <ele>2359.3</ele>
        <time>2016-05-06T11:20:41Z</time>
      </trkpt>
      <trkpt lat="45.67502" lon="6.86743">
        <ele>2362.9</ele>
        <time>2016-05-06T11:20:43Z</time>
      </trkpt>
      <trkpt lat="45.67505" lon="6.86737">
        <ele>2366.5</ele>
        <time>2016-05-06T11:20:45Z</time>
      </trkpt>
      <trkpt lat="45.67507" lon="6.86726">
        <ele>2369.8</ele>
        <time>2016-05-06T11:20:47Z</time>
      </trkpt>
      <trkpt lat="45.67511" lon="6.8672">
        <ele>2373.4</ele>
        <time>2016-05-06T11:20:49Z</time>
      </trkpt>
      <trkpt lat="45.67511" lon="6.86706">
        <ele>2376.7</ele>
        <time>2016-05-06T11:20:51Z</time>
      </trkpt>
      <trkpt lat="45.67515" lon="6.86695">
        <ele>2380.6</ele>
        <time>2016-05-06T11:20:53Z</time>
      </trkpt>
      <trkpt lat="45.6752" lon="6.8669">
        <ele>2384.6</ele>
        <time>2016-05-06T11:20:55Z</time>
      </trkpt>
      <trkpt lat="45.67523" lon="6.86675">
        <ele>2387.7</ele>
        <time>2016-05-06T11:20:57Z</time>
      </trkpt>
      <trkpt lat="45.6753" lon="6.86664">
        <ele>2391.5</ele>
        <time>2016-05-06T11:20:59Z</time>
      </trkpt>
      <trkpt lat="45.67538" lon="6.86661">
        <ele>2395.1</ele>
        <time>2016-05-06T11:21:01Z</time>
      </trkpt>
      <trkpt lat="45.67542" lon="6.86653">
        <ele>2398</ele>
        <time>2016-05-06T11:21:03Z</time>
      </trkpt>
      <trkpt lat="45.67547" lon="6.86637">
        <ele>2400.5</ele>
        <time>2016-05-06T11:21:05Z</time>
      </trkpt>
      <trkpt lat="45.67557" lon="6.86625">
        <ele>2403.5</ele>
        <time>2016-05-06T11:21:07Z</time>
      </trkpt>
      <trkpt lat="45.67566" lon="6.8662">
        <ele>2407</ele>
        <time>2016-05-06T11:21:09Z</time>
      </trkpt>
      <trkpt lat="45.67573" lon="6.86617">
        <ele>2409.6</ele>
        <time>2016-05-06T11:21:11Z</time>
      </trkpt>
      <trkpt lat="45.67576" lon="6.86603">
        <ele>2411.6</ele>
        <time>2016-05-06T11:21:13Z</time>
      </trkpt>
      <trkpt lat="45.67583" lon="6.86588">
        <ele>2414</ele>
        <time>2016-05-06T11:21:15Z</time>
      </trkpt>
      <trkpt lat="45.67591" lon="6.8658">
        <ele>2417</ele>
        <time>2016-05-06T11:21:17Z</time>
      </trkpt>
      <trkpt lat="45.67597" lon="6.86575">
        <ele>2419.7</ele>
        <time>2016-05-06T11:21:19Z</time>
      </trkpt>
      <trkpt lat="45.676" lon="6.86571">
        <ele>2422.1</ele>
        <time>2016-05-06T11:21:21Z</time>
      </trkpt>
      <trkpt lat="45.67601" lon="6.86569">
        <ele>2424</ele>
        <time>2016-05-06T11:21:23Z</time>
      </trkpt>
      <trkpt lat="45.67602" lon="6.86563">
        <ele>2425.3</ele>
        <time>2016-05-06T11:21:25Z</time>
      </trkpt>
      <trkpt lat="45.67607" lon="6.86548">
        <ele>2426.6</ele>
        <time>2016-05-06T11:21:27Z</time>
      </trkpt>
      <trkpt lat="45.67615" lon="6.86538">
        <ele>2429.2</ele>
        <time>2016-05-06T11:21:29Z</time>
      </trkpt>
      <trkpt lat="45.67624" lon="6.86531">
        <ele>2432.1</ele>
        <time>2016-05-06T11:21:31Z</time>
      </trkpt>
      <trkpt lat="45.67633" lon="6.86524">
        <ele>2434.7</ele>
        <time>2016-05-06T11:21:33Z</time>
      </trkpt>
      <trkpt lat="45.67641" lon="6.86519">
        <ele>2437.2</ele>
        <time>2016-05-06T11:21:35Z</time>
      </trkpt>
      <trkpt lat="45.67647" lon="6.86516">
        <ele>2439.3</ele>
        <time>2016-05-06T11:21:37Z</time>
      </trkpt>
      <trkpt lat="45.67648" lon="6.86506">
        <ele>2440.5</ele>
        <time>2016-05-06T11:21:39Z</time>
      </trkpt>
      <trkpt lat="45.67653" lon="6.86494">
        <ele>2442.9</ele>
        <time>2016-05-06T11:21:41Z</time>
      </trkpt>
      <trkpt lat="45.67658" lon="6.86487">
        <ele>2445.4</ele>
        <time>2016-05-06T11:21:43Z</time>
      </trkpt>
      <trkpt lat="45.6766" lon="6.8647">
        <ele>2447.2</ele>
        <time>2016-05-06T11:21:45Z</time>
      </trkpt>
      <trkpt lat="45.67666" lon="6.86457">
        <ele>2450.3</ele>
        <time>2016-05-06T11:21:47Z</time>
      </trkpt>
      <trkpt lat="45.67672" lon="6.8645">
        <ele>2453.8</ele>
        <time>2016-05-06T11:21:49Z</time>
      </trkpt>
      <trkpt lat="45.67676" lon="6.86446">
        <ele>2456.8</ele>
        <time>2016-05-06T11:21:51Z</time>
      </trkpt>
      <trkpt lat="45.67678" lon="6.86433">
        <ele>2458.5</ele>
        <time>2016-05-06T11:21:53Z</time>
      </trkpt>
      <trkpt lat="45.67684" lon="6.86419">
        <ele>2460.4</ele>
        <time>2016-05-06T11:21:55Z</time>
      </trkpt>
      <trkpt lat="45.6769" lon="6.8641">
        <ele>2462.6</ele>
        <time>2016-05-06T11:21:57Z</time>
      </trkpt>
      <trkpt lat="45.67696" lon="6.86402">
        <ele>2464.5</ele>
        <time>2016-05-06T11:21:59Z</time>
      </trkpt>
      <trkpt lat="45.67699" lon="6.86397">
        <ele>2466.3</ele>
        <time>2016-05-06T11:22:01Z</time>
      </trkpt>
      <trkpt lat="45.67702" lon="6.86383">
        <ele>2468</ele>
        <time>2016-05-06T11:22:03Z</time>
      </trkpt>
      <trkpt lat="45.67707" lon="6.86369">
        <ele>2469.8</ele>
        <time>2016-05-06T11:22:05Z</time>
      </trkpt>
      <trkpt lat="45.67712" lon="6.86359">
        <ele>2472.3</ele>
        <time>2016-05-06T11:22:07Z</time>
      </trkpt>
      <trkpt lat="45.67717" lon="6.86351">
        <ele>2474.7</ele>
        <time>2016-05-06T11:22:09Z</time>
      </trkpt>
      <trkpt lat="45.67722" lon="6.86344">
        <ele>2477.4</ele>
        <time>2016-05-06T11:22:11Z</time>
      </trkpt>
      <trkpt lat="45.67727" lon="6.86337">
        <ele>2479.9</ele>
        <time>2016-05-06T11:22:13Z</time>
      </trkpt>
      <trkpt lat="45.67728" lon="6.86331">
        <ele>2481.8</ele>
        <time>2016-05-06T11:22:15Z</time>
      </trkpt>
      <trkpt lat="45.67726" lon="6.86325">
        <ele>2482.6</ele>
        <time>2016-05-06T11:22:17Z</time>
      </trkpt>
      <trkpt lat="45.67723" lon="6.86329">
        <ele>2482.2</ele>
        <time>2016-05-06T11:22:19Z</time>
      </trkpt>
      <trkpt lat="45.67722" lon="6.86342">
        <ele>2480</ele>
        <time>2016-05-06T11:22:21Z</time>
      </trkpt>
      <trkpt lat="45.6772" lon="6.86357">
        <ele>2477.8</ele>
        <time>2016-05-06T11:22:23Z</time>
      </trkpt>
      <trkpt lat="45.6772" lon="6.86372">
        <ele>2475.9</ele>
        <time>2016-05-06T11:22:25Z</time>
      </trkpt>
      <trkpt lat="45.6772" lon="6.86385">
        <ele>2474.9</ele>
        <time>2016-05-06T11:22:27Z</time>
      </trkpt>
      <trkpt lat="45.67719" lon="6.86398">
        <ele>2473.8</ele>
        <time>2016-05-06T11:22:29Z</time>
      </trkpt>
      <trkpt lat="45.6772" lon="6.86409">
        <ele>2472.9</ele>
        <time>2016-05-06T11:22:31Z</time>
      </trkpt>
      <trkpt lat="45.6772" lon="6.86417">
        <ele>2472.5</ele>
        <time>2016-05-06T11:22:33Z</time>
      </trkpt>
      <trkpt lat="45.67721" lon="6.86425">
        <ele>2471.9</ele>
        <time>2016-05-06T11:22:35Z</time>
      </trkpt>
      <trkpt lat="45.67721" lon="6.86431">
        <ele>2471.3</ele>
        <time>2016-05-06T11:22:37Z</time>
      </trkpt>
      <trkpt lat="45.67721" lon="6.86434">
        <ele>2471.4</ele>
        <time>2016-05-06T11:22:39Z</time>
      </trkpt>
      <trkpt lat="45.67719" lon="6.86436">
        <ele>2472.3</ele>
        <time>2016-05-06T11:22:41Z</time>
      </trkpt>
      <trkpt lat="45.67716" lon="6.86435">
        <ele>2474.2</ele>
        <time>2016-05-06T11:22:43Z</time>
      </trkpt>
      <trkpt lat="45.67717" lon="6.86425">
        <ele>2475.1</ele>
        <time>2016-05-06T11:22:45Z</time>
      </trkpt>
      <trkpt lat="45.67723" lon="6.86417">
        <ele>2476.4</ele>
        <time>2016-05-06T11:22:47Z</time>
      </trkpt>
      <trkpt lat="45.67728" lon="6.8641">
        <ele>2478.2</ele>
        <time>2016-05-06T11:22:49Z</time>
      </trkpt>
      <trkpt lat="45.67733" lon="6.86402">
        <ele>2479.8</ele>
        <time>2016-05-06T11:22:51Z</time>
      </trkpt>
      <trkpt lat="45.67738" lon="6.86395">
        <ele>2481.4</ele>
        <time>2016-05-06T11:22:53Z</time>
      </trkpt>
      <trkpt lat="45.67743" lon="6.86387">
        <ele>2483.2</ele>
        <time>2016-05-06T11:22:55Z</time>
      </trkpt>
      <trkpt lat="45.6775" lon="6.86381">
        <ele>2484.9</ele>
        <time>2016-05-06T11:22:57Z</time>
      </trkpt>
      <trkpt lat="45.67756" lon="6.86374">
        <ele>2486.6</ele>
        <time>2016-05-06T11:22:59Z</time>
      </trkpt>
      <trkpt lat="45.67762" lon="6.86368">
        <ele>2488.3</ele>
        <time>2016-05-06T11:23:01Z</time>
      </trkpt>
      <trkpt lat="45.67769" lon="6.86363">
        <ele>2489.9</ele>
        <time>2016-05-06T11:23:03Z</time>
      </trkpt>
      <trkpt lat="45.67776" lon="6.8636">
        <ele>2491.7</ele>
        <time>2016-05-06T11:23:05Z</time>
      </trkpt>
      <trkpt lat="45.67784" lon="6.86354">
        <ele>2493.9</ele>
        <time>2016-05-06T11:23:07Z</time>
      </trkpt>
      <trkpt lat="45.67788" lon="6.86344">
        <ele>2496.1</ele>
        <time>2016-05-06T11:23:09Z</time>
      </trkpt>
      <trkpt lat="45.67787" lon="6.86338">
        <ele>2498.2</ele>
        <time>2016-05-06T11:23:11Z</time>
      </trkpt>
      <trkpt lat="45.67786" lon="6.86337">
        <ele>2499.3</ele>
        <time>2016-05-06T11:23:13Z</time>
      </trkpt>
      <trkpt lat="45.67784" lon="6.86337">
        <ele>2499.8</ele>
        <time>2016-05-06T11:23:15Z</time>
      </trkpt>
      <trkpt lat="45.67783" lon="6.86345">
        <ele>2497.9</ele>
        <time>2016-05-06T11:23:17Z</time>
      </trkpt>
      <trkpt lat="45.67784" lon="6.86358">
        <ele>2494.8</ele>
        <time>2016-05-06T11:23:19Z</time>
      </trkpt>
      <trkpt lat="45.67787" lon="6.86372">
        <ele>2491.6</ele>
        <time>2016-05-06T11:23:21Z</time>
      </trkpt>
      <trkpt lat="45.6779" lon="6.86387">
        <ele>2489.1</ele>
        <time>2016-05-06T11:23:23Z</time>
      </trkpt>
      <trkpt lat="45.67793" lon="6.86403">
        <ele>2486.9</ele>
        <time>2016-05-06T11:23:25Z</time>
      </trkpt>
      <trkpt lat="45.67797" lon="6.86419">
        <ele>2486.5</ele>
        <time>2016-05-06T11:23:27Z</time>
      </trkpt>
      <trkpt lat="45.678" lon="6.86434">
        <ele>2488.1</ele>
        <time>2016-05-06T11:23:29Z</time>
      </trkpt>
      <trkpt lat="45.67805" lon="6.86449">
        <ele>2489.5</ele>
        <time>2016-05-06T11:23:31Z</time>
      </trkpt>
      <trkpt lat="45.67812" lon="6.86462">
        <ele>2487.9</ele>
        <time>2016-05-06T11:23:33Z</time>
      </trkpt>
      <trkpt lat="45.67821" lon="6.86474">
        <ele>2484.5</ele>
        <time>2016-05-06T11:23:35Z</time>
      </trkpt>
      <trkpt lat="45.67829" lon="6.86486">
        <ele>2480.1</ele>
        <time>2016-05-06T11:23:37Z</time>
      </trkpt>
      <trkpt lat="45.67837" lon="6.86497">
        <ele>2474.1</ele>
        <time>2016-05-06T11:23:39Z</time>
      </trkpt>
      <trkpt lat="45.67845" lon="6.86507">
        <ele>2469.5</ele>
        <time>2016-05-06T11:23:41Z</time>
      </trkpt>
      <trkpt lat="45.67845" lon="6.86516">
        <ele>2466.9</ele>
        <time>2016-05-06T11:23:43Z</time>
      </trkpt>
      <trkpt lat="45.67843" lon="6.86514">
        <ele>2465.8</ele>
        <time>2016-05-06T11:23:45Z</time>
      </trkpt>
      <trkpt lat="45.67845" lon="6.86502">
        <ele>2465.2</ele>
        <time>2016-05-06T11:23:47Z</time>
      </trkpt>
      <trkpt lat="45.67849" lon="6.86485">
        <ele>2465.1</ele>
        <time>2016-05-06T11:23:49Z</time>
      </trkpt>
      <trkpt lat="45.67856" lon="6.86476">
        <ele>2465.7</ele>
        <time>2016-05-06T11:23:51Z</time>
      </trkpt>
      <trkpt lat="45.6786" lon="6.86474">
        <ele>2466.3</ele>
        <time>2016-05-06T11:23:53Z</time>
      </trkpt>
      <trkpt lat="45.67859" lon="6.86468">
        <ele>2466.8</ele>
        <time>2016-05-06T11:23:55Z</time>
      </trkpt>
      <trkpt lat="45.6786" lon="6.8646">
        <ele>2467.4</ele>
        <time>2016-05-06T11:23:57Z</time>
      </trkpt>
      <trkpt lat="45.67861" lon="6.86455">
        <ele>2468.1</ele>
        <time>2016-05-06T11:23:59Z</time>
      </trkpt>
      <trkpt lat="45.67861" lon="6.86447">
        <ele>2468.8</ele>
        <time>2016-05-06T11:24:01Z</time>
      </trkpt>
      <trkpt lat="45.67862" lon="6.86445">
        <ele>2469.5</ele>
        <time>2016-05-06T11:24:03Z</time>
      </trkpt>
      <trkpt lat="45.67861" lon="6.8644">
        <ele>2470.2</ele>
        <time>2016-05-06T11:24:05Z</time>
      </trkpt>
      <trkpt lat="45.67861" lon="6.86435">
        <ele>2471</ele>
        <time>2016-05-06T11:24:07Z</time>
      </trkpt>
      <trkpt lat="45.67861" lon="6.86434">
        <ele>2471.8</ele>
        <time>2016-05-06T11:24:09Z</time>
      </trkpt>
      <trkpt lat="45.67861" lon="6.8643">
        <ele>2472.4</ele>
        <time>2016-05-06T11:24:11Z</time>
      </trkpt>
      <trkpt lat="45.67861" lon="6.86427">
        <ele>2473.3</ele>
        <time>2016-05-06T11:24:13Z</time>
      </trkpt>
      <trkpt lat="45.6786" lon="6.86422">
        <ele>2474.2</ele>
        <time>2016-05-06T11:24:15Z</time>
      </trkpt>
      <trkpt lat="45.6786" lon="6.86419">
        <ele>2475</ele>
        <time>2016-05-06T11:24:17Z</time>
      </trkpt>
      <trkpt lat="45.6786" lon="6.86416">
        <ele>2475.9</ele>
        <time>2016-05-06T11:24:19Z</time>
      </trkpt>
      <trkpt lat="45.6786" lon="6.86414">
        <ele>2477.2</ele>
        <time>2016-05-06T11:24:21Z</time>
      </trkpt>
      <trkpt lat="45.6786" lon="6.86412">
        <ele>2477.5</ele>
        <time>2016-05-06T11:24:23Z</time>
      </trkpt>
      <trkpt lat="45.6786" lon="6.86412">
        <ele>2478.3</ele>
        <time>2016-05-06T11:24:25Z</time>
      </trkpt>
      <trkpt lat="45.67858" lon="6.86409">
        <ele>2478.9</ele>
        <time>2016-05-06T11:24:27Z</time>
      </trkpt>
      <trkpt lat="45.67858" lon="6.86408">
        <ele>2479.5</ele>
        <time>2016-05-06T11:24:29Z</time>
      </trkpt>
      <trkpt lat="45.67858" lon="6.86408">
        <ele>2480</ele>
        <time>2016-05-06T11:24:31Z</time>
      </trkpt>
      <trkpt lat="45.67857" lon="6.86407">
        <ele>2480.2</ele>
        <time>2016-05-06T11:24:33Z</time>
      </trkpt>
      <trkpt lat="45.67857" lon="6.86404">
        <ele>2480.7</ele>
        <time>2016-05-06T11:24:35Z</time>
      </trkpt>
      <trkpt lat="45.67856" lon="6.86399">
        <ele>2481.4</ele>
        <time>2016-05-06T11:24:37Z</time>
      </trkpt>
      <trkpt lat="45.67854" lon="6.86394">
        <ele>2482.2</ele>
        <time>2016-05-06T11:24:39Z</time>
      </trkpt>
      <trkpt lat="45.67853" lon="6.86389">
        <ele>2483.5</ele>
        <time>2016-05-06T11:24:41Z</time>
      </trkpt>
      <trkpt lat="45.67852" lon="6.86383">
        <ele>2484.9</ele>
        <time>2016-05-06T11:24:43Z</time>
      </trkpt>
      <trkpt lat="45.67851" lon="6.86378">
        <ele>2486.2</ele>
        <time>2016-05-06T11:24:45Z</time>
      </trkpt>
      <trkpt lat="45.67851" lon="6.86375">
        <ele>2488</ele>
        <time>2016-05-06T11:24:47Z</time>
      </trkpt>
      <trkpt lat="45.67849" lon="6.86378">
        <ele>2489.3</ele>
        <time>2016-05-06T11:24:49Z</time>
      </trkpt>
      <trkpt lat="45.6785" lon="6.8639">
        <ele>2489.1</ele>
        <time>2016-05-06T11:24:51Z</time>
      </trkpt>
      <trkpt lat="45.67857" lon="6.86401">
        <ele>2487.2</ele>
        <time>2016-05-06T11:24:53Z</time>
      </trkpt>
      <trkpt lat="45.67862" lon="6.8641">
        <ele>2484</ele>
        <time>2016-05-06T11:24:55Z</time>
      </trkpt>
      <trkpt lat="45.67867" lon="6.86419">
        <ele>2481.7</ele>
        <time>2016-05-06T11:24:57Z</time>
      </trkpt>
      <trkpt lat="45.67871" lon="6.86429">
        <ele>2479.7</ele>
        <time>2016-05-06T11:24:59Z</time>
      </trkpt>
      <trkpt lat="45.67875" lon="6.86441">
        <ele>2477.8</ele>
        <time>2016-05-06T11:25:01Z</time>
      </trkpt>
      <trkpt lat="45.67878" lon="6.86451">
        <ele>2476.2</ele>
        <time>2016-05-06T11:25:03Z</time>
      </trkpt>
      <trkpt lat="45.67879" lon="6.8646">
        <ele>2475</ele>
        <time>2016-05-06T11:25:05Z</time>
      </trkpt>
      <trkpt lat="45.67879" lon="6.86471">
        <ele>2473.6</ele>
        <time>2016-05-06T11:25:07Z</time>
      </trkpt>
      <trkpt lat="45.6788" lon="6.86481">
        <ele>2471.8</ele>
        <time>2016-05-06T11:25:09Z</time>
      </trkpt>
      <trkpt lat="45.67881" lon="6.86493">
        <ele>2470.3</ele>
        <time>2016-05-06T11:25:11Z</time>
      </trkpt>
      <trkpt lat="45.67883" lon="6.86506">
        <ele>2468.8</ele>
        <time>2016-05-06T11:25:13Z</time>
      </trkpt>
      <trkpt lat="45.67885" lon="6.86519">
        <ele>2467.3</ele>
        <time>2016-05-06T11:25:15Z</time>
      </trkpt>
      <trkpt lat="45.67887" lon="6.86532">
        <ele>2465.9</ele>
        <time>2016-05-06T11:25:17Z</time>
      </trkpt>
      <trkpt lat="45.6789" lon="6.86546">
        <ele>2464.6</ele>
        <time>2016-05-06T11:25:19Z</time>
      </trkpt>
      <trkpt lat="45.67893" lon="6.8656">
        <ele>2462.8</ele>
        <time>2016-05-06T11:25:21Z</time>
      </trkpt>
      <trkpt lat="45.67894" lon="6.86572">
        <ele>2462</ele>
        <time>2016-05-06T11:25:23Z</time>
      </trkpt>
      <trkpt lat="45.67895" lon="6.86583">
        <ele>2461.2</ele>
        <time>2016-05-06T11:25:25Z</time>
      </trkpt>
      <trkpt lat="45.67896" lon="6.86592">
        <ele>2460.7</ele>
        <time>2016-05-06T11:25:27Z</time>
      </trkpt>
      <trkpt lat="45.67897" lon="6.866">
        <ele>2460.4</ele>
        <time>2016-05-06T11:25:29Z</time>
      </trkpt>
      <trkpt lat="45.67895" lon="6.86607">
        <ele>2460.1</ele>
        <time>2016-05-06T11:25:31Z</time>
      </trkpt>
      <trkpt lat="45.67893" lon="6.86608">
        <ele>2460.1</ele>
        <time>2016-05-06T11:25:33Z</time>
      </trkpt>
      <trkpt lat="45.67893" lon="6.86603">
        <ele>2460.3</ele>
        <time>2016-05-06T11:25:35Z</time>
      </trkpt>
      <trkpt lat="45.67894" lon="6.86598">
        <ele>2460.6</ele>
        <time>2016-05-06T11:25:37Z</time>
      </trkpt>
      <trkpt lat="45.67895" lon="6.86592">
        <ele>2461.2</ele>
        <time>2016-05-06T11:25:39Z</time>
      </trkpt>
      <trkpt lat="45.67897" lon="6.86586">
        <ele>2461.7</ele>
        <time>2016-05-06T11:25:41Z</time>
      </trkpt>
      <trkpt lat="45.67899" lon="6.8658">
        <ele>2462.4</ele>
        <time>2016-05-06T11:25:43Z</time>
      </trkpt>
      <trkpt lat="45.67901" lon="6.8657">
        <ele>2463.1</ele>
        <time>2016-05-06T11:25:45Z</time>
      </trkpt>
      <trkpt lat="45.67906" lon="6.86563">
        <ele>2464.4</ele>
        <time>2016-05-06T11:25:47Z</time>
      </trkpt>
      <trkpt lat="45.67911" lon="6.86562">
        <ele>2465.8</ele>
        <time>2016-05-06T11:25:49Z</time>
      </trkpt>
      <trkpt lat="45.67912" lon="6.86561">
        <ele>2466.3</ele>
        <time>2016-05-06T11:25:51Z</time>
      </trkpt>
      <trkpt lat="45.67912" lon="6.86552">
        <ele>2466.8</ele>
        <time>2016-05-06T11:25:53Z</time>
      </trkpt>
      <trkpt lat="45.67916" lon="6.86547">
        <ele>2467.4</ele>
        <time>2016-05-06T11:25:55Z</time>
      </trkpt>
      <trkpt lat="45.67917" lon="6.86545">
        <ele>2467.9</ele>
        <time>2016-05-06T11:25:57Z</time>
      </trkpt>
      <trkpt lat="45.67917" lon="6.86537">
        <ele>2468.2</ele>
        <time>2016-05-06T11:25:59Z</time>
      </trkpt>
      <trkpt lat="45.67919" lon="6.86528">
        <ele>2468.5</ele>
        <time>2016-05-06T11:26:01Z</time>
      </trkpt>
      <trkpt lat="45.67922" lon="6.86521">
        <ele>2469</ele>
        <time>2016-05-06T11:26:03Z</time>
      </trkpt>
      <trkpt lat="45.67923" lon="6.86516">
        <ele>2469.7</ele>
        <time>2016-05-06T11:26:05Z</time>
      </trkpt>
      <trkpt lat="45.67922" lon="6.86511">
        <ele>2470.3</ele>
        <time>2016-05-06T11:26:07Z</time>
      </trkpt>
      <trkpt lat="45.67922" lon="6.86504">
        <ele>2471.4</ele>
        <time>2016-05-06T11:26:09Z</time>
      </trkpt>
      <trkpt lat="45.67922" lon="6.86498">
        <ele>2472.4</ele>
        <time>2016-05-06T11:26:11Z</time>
      </trkpt>
      <trkpt lat="45.67921" lon="6.86487">
        <ele>2473.6</ele>
        <time>2016-05-06T11:26:13Z</time>
      </trkpt>
      <trkpt lat="45.67923" lon="6.86479">
        <ele>2475.2</ele>
        <time>2016-05-06T11:26:15Z</time>
      </trkpt>
      <trkpt lat="45.67927" lon="6.86473">
        <ele>2477.2</ele>
        <time>2016-05-06T11:26:17Z</time>
      </trkpt>
      <trkpt lat="45.6793" lon="6.86464">
        <ele>2478.8</ele>
        <time>2016-05-06T11:26:19Z</time>
      </trkpt>
      <trkpt lat="45.67934" lon="6.86456">
        <ele>2480.1</ele>
        <time>2016-05-06T11:26:21Z</time>
      </trkpt>
      <trkpt lat="45.67935" lon="6.86447">
        <ele>2481.1</ele>
        <time>2016-05-06T11:26:23Z</time>
      </trkpt>
      <trkpt lat="45.67938" lon="6.86443">
        <ele>2482.3</ele>
        <time>2016-05-06T11:26:25Z</time>
      </trkpt>
      <trkpt lat="45.67938" lon="6.86437">
        <ele>2483.2</ele>
        <time>2016-05-06T11:26:27Z</time>
      </trkpt>
      <trkpt lat="45.67939" lon="6.86434">
        <ele>2484.4</ele>
        <time>2016-05-06T11:26:29Z</time>
      </trkpt>
      <trkpt lat="45.67938" lon="6.86428">
        <ele>2485.3</ele>
        <time>2016-05-06T11:26:31Z</time>
      </trkpt>
      <trkpt lat="45.67939" lon="6.86425">
        <ele>2486.3</ele>
        <time>2016-05-06T11:26:33Z</time>
      </trkpt>
      <trkpt lat="45.67938" lon="6.86421">
        <ele>2487.3</ele>
        <time>2016-05-06T11:26:35Z</time>
      </trkpt>
      <trkpt lat="45.67938" lon="6.86421">
        <ele>2488.2</ele>
        <time>2016-05-06T11:26:37Z</time>
      </trkpt>
      <trkpt lat="45.67938" lon="6.86422">
        <ele>2488.5</ele>
        <time>2016-05-06T11:26:39Z</time>
      </trkpt>
      <trkpt lat="45.67938" lon="6.86422">
        <ele>2488.5</ele>
        <time>2016-05-06T11:26:41Z</time>
      </trkpt>
      <trkpt lat="45.67938" lon="6.8642">
        <ele>2488.5</ele>
        <time>2016-05-06T11:26:43Z</time>
      </trkpt>
      <trkpt lat="45.67938" lon="6.86417">
        <ele>2488.7</ele>
        <time>2016-05-06T11:26:45Z</time>
      </trkpt>
      <trkpt lat="45.67938" lon="6.86415">
        <ele>2488.8</ele>
        <time>2016-05-06T11:26:47Z</time>
      </trkpt>
      <trkpt lat="45.67937" lon="6.86413">
        <ele>2489.3</ele>
        <time>2016-05-06T11:26:49Z</time>
      </trkpt>
      <trkpt lat="45.67937" lon="6.86413">
        <ele>2489.8</ele>
        <time>2016-05-06T11:26:51Z</time>
      </trkpt>
      <trkpt lat="45.67937" lon="6.86411">
        <ele>2490.1</ele>
        <time>2016-05-06T11:26:53Z</time>
      </trkpt>
      <trkpt lat="45.67937" lon="6.86409">
        <ele>2490.3</ele>
        <time>2016-05-06T11:26:55Z</time>
      </trkpt>
      <trkpt lat="45.67937" lon="6.86408">
        <ele>2490.6</ele>
        <time>2016-05-06T11:26:57Z</time>
      </trkpt>
      <trkpt lat="45.67937" lon="6.86408">
        <ele>2490.8</ele>
        <time>2016-05-06T11:26:59Z</time>
      </trkpt>
      <trkpt lat="45.67936" lon="6.86408">
        <ele>2490.9</ele>
        <time>2016-05-06T11:27:01Z</time>
      </trkpt>
      <trkpt lat="45.67936" lon="6.86407">
        <ele>2491.1</ele>
        <time>2016-05-06T11:27:03Z</time>
      </trkpt>
      <trkpt lat="45.67937" lon="6.86408">
        <ele>2491.3</ele>
        <time>2016-05-06T11:27:05Z</time>
      </trkpt>
      <trkpt lat="45.67937" lon="6.86408">
        <ele>2491.4</ele>
        <time>2016-05-06T11:27:07Z</time>
      </trkpt>
      <trkpt lat="45.67936" lon="6.86408">
        <ele>2491.6</ele>
        <time>2016-05-06T11:27:09Z</time>
      </trkpt>
      <trkpt lat="45.67936" lon="6.86409">
        <ele>2491.5</ele>
        <time>2016-05-06T11:27:11Z</time>
      </trkpt>
      <trkpt lat="45.67937" lon="6.86412">
        <ele>2491.3</ele>
        <time>2016-05-06T11:27:13Z</time>
      </trkpt>
      <trkpt lat="45.67932" lon="6.86415">
        <ele>2490.9</ele>
        <time>2016-05-06T11:27:15Z</time>
      </trkpt>
      <trkpt lat="45.67925" lon="6.86414">
        <ele>2490.6</ele>
        <time>2016-05-06T11:27:17Z</time>
      </trkpt>
      <trkpt lat="45.67924" lon="6.86411">
        <ele>2490.3</ele>
        <time>2016-05-06T11:27:19Z</time>
      </trkpt>
      <trkpt lat="45.67923" lon="6.86407">
        <ele>2490.3</ele>
        <time>2016-05-06T11:27:21Z</time>
      </trkpt>
      <trkpt lat="45.67922" lon="6.86403">
        <ele>2490.5</ele>
        <time>2016-05-06T11:27:23Z</time>
      </trkpt>
      <trkpt lat="45.67922" lon="6.864">
        <ele>2490.8</ele>
        <time>2016-05-06T11:27:25Z</time>
      </trkpt>
      <trkpt lat="45.67921" lon="6.86397">
        <ele>2491.1</ele>
        <time>2016-05-06T11:27:27Z</time>
      </trkpt>
      <trkpt lat="45.6792" lon="6.86395">
        <ele>2491.7</ele>
        <time>2016-05-06T11:27:29Z</time>
      </trkpt>
      <trkpt lat="45.6792" lon="6.86393">
        <ele>2492.1</ele>
        <time>2016-05-06T11:27:31Z</time>
      </trkpt>
      <trkpt lat="45.67921" lon="6.86393">
        <ele>2492.4</ele>
        <time>2016-05-06T11:27:33Z</time>
      </trkpt>
      <trkpt lat="45.67919" lon="6.8639">
        <ele>2492.6</ele>
        <time>2016-05-06T11:27:35Z</time>
      </trkpt>
      <trkpt lat="45.67919" lon="6.86389">
        <ele>2493.4</ele>
        <time>2016-05-06T11:27:37Z</time>
      </trkpt>
      <trkpt lat="45.67919" lon="6.86386">
        <ele>2493.8</ele>
        <time>2016-05-06T11:27:39Z</time>
      </trkpt>
      <trkpt lat="45.6792" lon="6.86384">
        <ele>2494.3</ele>
        <time>2016-05-06T11:27:41Z</time>
      </trkpt>
      <trkpt lat="45.6792" lon="6.86382">
        <ele>2494.8</ele>
        <time>2016-05-06T11:27:43Z</time>
      </trkpt>
      <trkpt lat="45.6792" lon="6.86378">
        <ele>2495.6</ele>
        <time>2016-05-06T11:27:45Z</time>
      </trkpt>
      <trkpt lat="45.67922" lon="6.86371">
        <ele>2496.3</ele>
        <time>2016-05-06T11:27:47Z</time>
      </trkpt>
      <trkpt lat="45.67925" lon="6.86367">
        <ele>2497.3</ele>
        <time>2016-05-06T11:27:49Z</time>
      </trkpt>
      <trkpt lat="45.67925" lon="6.86367">
        <ele>2498.1</ele>
        <time>2016-05-06T11:27:51Z</time>
      </trkpt>
      <trkpt lat="45.67925" lon="6.86366">
        <ele>2498.9</ele>
        <time>2016-05-06T11:27:53Z</time>
      </trkpt>
      <trkpt lat="45.67926" lon="6.8637">
        <ele>2499</ele>
        <time>2016-05-06T11:27:55Z</time>
      </trkpt>
      <trkpt lat="45.67926" lon="6.86378">
        <ele>2498.6</ele>
        <time>2016-05-06T11:27:57Z</time>
      </trkpt>
      <trkpt lat="45.67926" lon="6.86386">
        <ele>2498</ele>
        <time>2016-05-06T11:27:59Z</time>
      </trkpt>
      <trkpt lat="45.67926" lon="6.86389">
        <ele>2497</ele>
        <time>2016-05-06T11:28:01Z</time>
      </trkpt>
      <trkpt lat="45.67926" lon="6.86388">
        <ele>2496.1</ele>
        <time>2016-05-06T11:28:03Z</time>
      </trkpt>
      <trkpt lat="45.67925" lon="6.86384">
        <ele>2495.4</ele>
        <time>2016-05-06T11:28:05Z</time>
      </trkpt>
      <trkpt lat="45.67924" lon="6.86381">
        <ele>2495.5</ele>
        <time>2016-05-06T11:28:07Z</time>
      </trkpt>
      <trkpt lat="45.67923" lon="6.86376">
        <ele>2495.5</ele>
        <time>2016-05-06T11:28:09Z</time>
      </trkpt>
      <trkpt lat="45.67923" lon="6.8637">
        <ele>2496.1</ele>
        <time>2016-05-06T11:28:11Z</time>
      </trkpt>
      <trkpt lat="45.67923" lon="6.86364">
        <ele>2497</ele>
        <time>2016-05-06T11:28:13Z</time>
      </trkpt>
      <trkpt lat="45.67924" lon="6.86357">
        <ele>2497.6</ele>
        <time>2016-05-06T11:28:15Z</time>
      </trkpt>
      <trkpt lat="45.67925" lon="6.8635">
        <ele>2498.4</ele>
        <time>2016-05-06T11:28:17Z</time>
      </trkpt>
      <trkpt lat="45.67927" lon="6.86342">
        <ele>2499.1</ele>
        <time>2016-05-06T11:28:19Z</time>
      </trkpt>
      <trkpt lat="45.67926" lon="6.86338">
        <ele>2500</ele>
        <time>2016-05-06T11:28:21Z</time>
      </trkpt>
      <trkpt lat="45.67926" lon="6.86334">
        <ele>2500.7</ele>
        <time>2016-05-06T11:28:23Z</time>
      </trkpt>
      <trkpt lat="45.67925" lon="6.86329">
        <ele>2501.4</ele>
        <time>2016-05-06T11:28:25Z</time>
      </trkpt>
      <trkpt lat="45.67925" lon="6.86324">
        <ele>2502.5</ele>
        <time>2016-05-06T11:28:27Z</time>
      </trkpt>
      <trkpt lat="45.67926" lon="6.86317">
        <ele>2503.6</ele>
        <time>2016-05-06T11:28:29Z</time>
      </trkpt>
      <trkpt lat="45.6793" lon="6.86313">
        <ele>2505.2</ele>
        <time>2016-05-06T11:28:31Z</time>
      </trkpt>
      <trkpt lat="45.67931" lon="6.86306">
        <ele>2506.5</ele>
        <time>2016-05-06T11:28:33Z</time>
      </trkpt>
      <trkpt lat="45.67931" lon="6.86301">
        <ele>2507.8</ele>
        <time>2016-05-06T11:28:35Z</time>
      </trkpt>
      <trkpt lat="45.67931" lon="6.86296">
        <ele>2509.2</ele>
        <time>2016-05-06T11:28:37Z</time>
      </trkpt>
      <trkpt lat="45.67931" lon="6.86291">
        <ele>2510.4</ele>
        <time>2016-05-06T11:28:39Z</time>
      </trkpt>
      <trkpt lat="45.67931" lon="6.86287">
        <ele>2511.9</ele>
        <time>2016-05-06T11:28:41Z</time>
      </trkpt>
      <trkpt lat="45.67931" lon="6.8628">
        <ele>2513</ele>
        <time>2016-05-06T11:28:43Z</time>
      </trkpt>
      <trkpt lat="45.67933" lon="6.86273">
        <ele>2514.4</ele>
        <time>2016-05-06T11:28:45Z</time>
      </trkpt>
      <trkpt lat="45.67938" lon="6.8627">
        <ele>2515.7</ele>
        <time>2016-05-06T11:28:47Z</time>
      </trkpt>
      <trkpt lat="45.67943" lon="6.86272">
        <ele>2517.2</ele>
        <time>2016-05-06T11:28:49Z</time>
      </trkpt>
      <trkpt lat="45.67945" lon="6.86273">
        <ele>2518</ele>
        <time>2016-05-06T11:28:51Z</time>
      </trkpt>
      <trkpt lat="45.67945" lon="6.86272">
        <ele>2518.4</ele>
        <time>2016-05-06T11:28:53Z</time>
      </trkpt>
      <trkpt lat="45.67945" lon="6.8627">
        <ele>2518.9</ele>
        <time>2016-05-06T11:28:55Z</time>
      </trkpt>
      <trkpt lat="45.67946" lon="6.86264">
        <ele>2519.3</ele>
        <time>2016-05-06T11:28:57Z</time>
      </trkpt>
      <trkpt lat="45.67948" lon="6.86257">
        <ele>2520.1</ele>
        <time>2016-05-06T11:28:59Z</time>
      </trkpt>
      <trkpt lat="45.67951" lon="6.86247">
        <ele>2520.7</ele>
        <time>2016-05-06T11:29:01Z</time>
      </trkpt>
      <trkpt lat="45.67954" lon="6.86234">
        <ele>2521.7</ele>
        <time>2016-05-06T11:29:03Z</time>
      </trkpt>
      <trkpt lat="45.67956" lon="6.86221">
        <ele>2522.7</ele>
        <time>2016-05-06T11:29:05Z</time>
      </trkpt>
      <trkpt lat="45.67956" lon="6.86204">
        <ele>2523.9</ele>
        <time>2016-05-06T11:29:07Z</time>
      </trkpt>
      <trkpt lat="45.6796" lon="6.86192">
        <ele>2525.3</ele>
        <time>2016-05-06T11:29:09Z</time>
      </trkpt>
      <trkpt lat="45.67966" lon="6.86187">
        <ele>2526.7</ele>
        <time>2016-05-06T11:29:11Z</time>
      </trkpt>
      <trkpt lat="45.67969" lon="6.86185">
        <ele>2527.9</ele>
        <time>2016-05-06T11:29:13Z</time>
      </trkpt>
      <trkpt lat="45.67969" lon="6.86185">
        <ele>2528.6</ele>
        <time>2016-05-06T11:29:15Z</time>
      </trkpt>
      <trkpt lat="45.67969" lon="6.86185">
        <ele>2529</ele>
        <time>2016-05-06T11:29:17Z</time>
      </trkpt>
      <trkpt lat="45.67969" lon="6.86185">
        <ele>2529.4</ele>
        <time>2016-05-06T11:29:19Z</time>
      </trkpt>
      <trkpt lat="45.67969" lon="6.86185">
        <ele>2529.4</ele>
        <time>2016-05-06T11:29:21Z</time>
      </trkpt>
      <trkpt lat="45.67969" lon="6.86186">
        <ele>2529.8</ele>
        <time>2016-05-06T11:29:23Z</time>
      </trkpt>
      <trkpt lat="45.67968" lon="6.86186">
        <ele>2529.8</ele>
        <time>2016-05-06T11:29:25Z</time>
      </trkpt>
      <trkpt lat="45.67968" lon="6.86187">
        <ele>2530.1</ele>
        <time>2016-05-06T11:29:27Z</time>
      </trkpt>
      <trkpt lat="45.67968" lon="6.86187">
        <ele>2530.2</ele>
        <time>2016-05-06T11:29:29Z</time>
      </trkpt>
      <trkpt lat="45.67968" lon="6.86186">
        <ele>2530.4</ele>
        <time>2016-05-06T11:29:31Z</time>
      </trkpt>
      <trkpt lat="45.67968" lon="6.86186">
        <ele>2530.8</ele>
        <time>2016-05-06T11:29:33Z</time>
      </trkpt>
      <trkpt lat="45.67968" lon="6.86186">
        <ele>2531</ele>
        <time>2016-05-06T11:29:35Z</time>
      </trkpt>
      <trkpt lat="45.67968" lon="6.86186">
        <ele>2531.2</ele>
        <time>2016-05-06T11:29:37Z</time>
      </trkpt>
      <trkpt lat="45.67968" lon="6.86186">
        <ele>2531</ele>
        <time>2016-05-06T11:29:39Z</time>
      </trkpt>
      <trkpt lat="45.67968" lon="6.86187">
        <ele>2530.8</ele>
        <time>2016-05-06T11:29:41Z</time>
      </trkpt>
      <trkpt lat="45.67968" lon="6.86186">
        <ele>2530.6</ele>
        <time>2016-05-06T11:29:43Z</time>
      </trkpt>
      <trkpt lat="45.67968" lon="6.86186">
        <ele>2530.5</ele>
        <time>2016-05-06T11:29:45Z</time>
      </trkpt>
      <trkpt lat="45.67968" lon="6.86186">
        <ele>2530.5</ele>
        <time>2016-05-06T11:29:47Z</time>
      </trkpt>
      <trkpt lat="45.67968" lon="6.86186">
        <ele>2530.4</ele>
        <time>2016-05-06T11:29:49Z</time>
      </trkpt>
      <trkpt lat="45.67968" lon="6.86186">
        <ele>2530.3</ele>
        <time>2016-05-06T11:29:51Z</time>
      </trkpt>
      <trkpt lat="45.67968" lon="6.86186">
        <ele>2530.2</ele>
        <time>2016-05-06T11:29:53Z</time>
      </trkpt>
      <trkpt lat="45.67968" lon="6.86186">
        <ele>2530.2</ele>
        <time>2016-05-06T11:29:55Z</time>
      </trkpt>
      <trkpt lat="45.67968" lon="6.86186">
        <ele>2530.3</ele>
        <time>2016-05-06T11:29:57Z</time>
      </trkpt>
      <trkpt lat="45.67968" lon="6.86186">
        <ele>2530.3</ele>
        <time>2016-05-06T11:29:59Z</time>
      </trkpt>
      <trkpt lat="45.67968" lon="6.86186">
        <ele>2530.3</ele>
        <time>2016-05-06T11:30:01Z</time>
      </trkpt>
      <trkpt lat="45.67968" lon="6.86186">
        <ele>2530.2</ele>
        <time>2016-05-06T11:30:03Z</time>
      </trkpt>
      <trkpt lat="45.67968" lon="6.86186">
        <ele>2530.2</ele>
        <time>2016-05-06T11:30:05Z</time>
      </trkpt>
      <trkpt lat="45.67968" lon="6.86185">
        <ele>2530.2</ele>
        <time>2016-05-06T11:30:07Z</time>
      </trkpt>
      <trkpt lat="45.67968" lon="6.86186">
        <ele>2530.2</ele>
        <time>2016-05-06T11:30:09Z</time>
      </trkpt>
      <trkpt lat="45.67968" lon="6.86185">
        <ele>2530.2</ele>
        <time>2016-05-06T11:30:11Z</time>
      </trkpt>
      <trkpt lat="45.67968" lon="6.86185">
        <ele>2530.1</ele>
        <time>2016-05-06T11:30:13Z</time>
      </trkpt>
      <trkpt lat="45.67968" lon="6.86185">
        <ele>2530.2</ele>
        <time>2016-05-06T11:30:15Z</time>
      </trkpt>
      <trkpt lat="45.67968" lon="6.86185">
        <ele>2530.2</ele>
        <time>2016-05-06T11:30:17Z</time>
      </trkpt>
      <trkpt lat="45.67968" lon="6.86185">
        <ele>2529.9</ele>
        <time>2016-05-06T11:30:19Z</time>
      </trkpt>
      <trkpt lat="45.67968" lon="6.86185">
        <ele>2530</ele>
        <time>2016-05-06T11:30:21Z</time>
      </trkpt>
      <trkpt lat="45.67969" lon="6.86185">
        <ele>2530</ele>
        <time>2016-05-06T11:30:23Z</time>
      </trkpt>
      <trkpt lat="45.67969" lon="6.86186">
        <ele>2529.8</ele>
        <time>2016-05-06T11:30:25Z</time>
      </trkpt>
      <trkpt lat="45.67969" lon="6.86186">
        <ele>2529.8</ele>
        <time>2016-05-06T11:30:27Z</time>
      </trkpt>
      <trkpt lat="45.67968" lon="6.86186">
        <ele>2529.8</ele>
        <time>2016-05-06T11:30:29Z</time>
      </trkpt>
      <trkpt lat="45.67968" lon="6.86186">
        <ele>2529.8</ele>
        <time>2016-05-06T11:30:31Z</time>
      </trkpt>
      <trkpt lat="45.67968" lon="6.86187">
        <ele>2529.7</ele>
        <time>2016-05-06T11:30:33Z</time>
      </trkpt>
      <trkpt lat="45.67968" lon="6.86188">
        <ele>2529.6</ele>
        <time>2016-05-06T11:30:35Z</time>
      </trkpt>
      <trkpt lat="45.67968" lon="6.86189">
        <ele>2529.6</ele>
        <time>2016-05-06T11:30:37Z</time>
      </trkpt>
      <trkpt lat="45.67967" lon="6.86189">
        <ele>2529.4</ele>
        <time>2016-05-06T11:30:39Z</time>
      </trkpt>
      <trkpt lat="45.67967" lon="6.8619">
        <ele>2529.3</ele>
        <time>2016-05-06T11:30:41Z</time>
      </trkpt>
      <trkpt lat="45.67967" lon="6.8619">
        <ele>2529.3</ele>
        <time>2016-05-06T11:30:43Z</time>
      </trkpt>
      <trkpt lat="45.67967" lon="6.86191">
        <ele>2529.3</ele>
        <time>2016-05-06T11:30:45Z</time>
      </trkpt>
      <trkpt lat="45.67967" lon="6.86191">
        <ele>2529.4</ele>
        <time>2016-05-06T11:30:47Z</time>
      </trkpt>
      <trkpt lat="45.67967" lon="6.86192">
        <ele>2529.6</ele>
        <time>2016-05-06T11:30:49Z</time>
      </trkpt>
      <trkpt lat="45.67967" lon="6.86192">
        <ele>2529.6</ele>
        <time>2016-05-06T11:30:51Z</time>
      </trkpt>
      <trkpt lat="45.67967" lon="6.86192">
        <ele>2529.7</ele>
        <time>2016-05-06T11:30:53Z</time>
      </trkpt>
      <trkpt lat="45.67967" lon="6.86192">
        <ele>2529.8</ele>
        <time>2016-05-06T11:30:55Z</time>
      </trkpt>
      <trkpt lat="45.67967" lon="6.86192">
        <ele>2529.8</ele>
        <time>2016-05-06T11:30:57Z</time>
      </trkpt>
      <trkpt lat="45.67967" lon="6.86192">
        <ele>2530</ele>
        <time>2016-05-06T11:30:59Z</time>
      </trkpt>
      <trkpt lat="45.67968" lon="6.86192">
        <ele>2530</ele>
        <time>2016-05-06T11:31:01Z</time>
      </trkpt>
      <trkpt lat="45.67967" lon="6.86192">
        <ele>2530</ele>
        <time>2016-05-06T11:31:03Z</time>
      </trkpt>
      <trkpt lat="45.67967" lon="6.86192">
        <ele>2529.9</ele>
        <time>2016-05-06T11:31:05Z</time>
      </trkpt>
      <trkpt lat="45.67967" lon="6.86193">
        <ele>2529.9</ele>
        <time>2016-05-06T11:31:07Z</time>
      </trkpt>
      <trkpt lat="45.67967" lon="6.86193">
        <ele>2529.9</ele>
        <time>2016-05-06T11:31:09Z</time>
      </trkpt>
      <trkpt lat="45.67967" lon="6.86193">
        <ele>2530</ele>
        <time>2016-05-06T11:31:11Z</time>
      </trkpt>
      <trkpt lat="45.67967" lon="6.86193">
        <ele>2529.8</ele>
        <time>2016-05-06T11:31:13Z</time>
      </trkpt>
      <trkpt lat="45.67967" lon="6.86193">
        <ele>2529.8</ele>
        <time>2016-05-06T11:31:15Z</time>
      </trkpt>
      <trkpt lat="45.67966" lon="6.86193">
        <ele>2529.8</ele>
        <time>2016-05-06T11:31:17Z</time>
      </trkpt>
      <trkpt lat="45.67967" lon="6.86193">
        <ele>2529.8</ele>
        <time>2016-05-06T11:31:19Z</time>
      </trkpt>
      <trkpt lat="45.67966" lon="6.86192">
        <ele>2529.8</ele>
        <time>2016-05-06T11:31:21Z</time>
      </trkpt>
      <trkpt lat="45.67966" lon="6.86191">
        <ele>2529.9</ele>
        <time>2016-05-06T11:31:23Z</time>
      </trkpt>
      <trkpt lat="45.67967" lon="6.86191">
        <ele>2529</ele>
        <time>2016-05-06T11:31:25Z</time>
      </trkpt>
      <trkpt lat="45.67967" lon="6.86191">
        <ele>2529.3</ele>
        <time>2016-05-06T11:31:27Z</time>
      </trkpt>
      <trkpt lat="45.67967" lon="6.8619">
        <ele>2529.3</ele>
        <time>2016-05-06T11:31:29Z</time>
      </trkpt>
      <trkpt lat="45.67967" lon="6.8619">
        <ele>2529.1</ele>
        <time>2016-05-06T11:31:31Z</time>
      </trkpt>
      <trkpt lat="45.67967" lon="6.8619">
        <ele>2529</ele>
        <time>2016-05-06T11:31:33Z</time>
      </trkpt>
      <trkpt lat="45.67968" lon="6.86189">
        <ele>2529.1</ele>
        <time>2016-05-06T11:31:35Z</time>
      </trkpt>
      <trkpt lat="45.67967" lon="6.86188">
        <ele>2529.2</ele>
        <time>2016-05-06T11:31:37Z</time>
      </trkpt>
      <trkpt lat="45.67967" lon="6.86188">
        <ele>2529.2</ele>
        <time>2016-05-06T11:31:39Z</time>
      </trkpt>
      <trkpt lat="45.67967" lon="6.86188">
        <ele>2529.5</ele>
        <time>2016-05-06T11:31:41Z</time>
      </trkpt>
      <trkpt lat="45.67967" lon="6.86188">
        <ele>2528.9</ele>
        <time>2016-05-06T11:31:43Z</time>
      </trkpt>
      <trkpt lat="45.67967" lon="6.86188">
        <ele>2528.7</ele>
        <time>2016-05-06T11:31:45Z</time>
      </trkpt>
      <trkpt lat="45.67968" lon="6.86188">
        <ele>2528.6</ele>
        <time>2016-05-06T11:31:47Z</time>
      </trkpt>
      <trkpt lat="45.67968" lon="6.86188">
        <ele>2528.8</ele>
        <time>2016-05-06T11:31:49Z</time>
      </trkpt>
      <trkpt lat="45.67968" lon="6.86187">
        <ele>2529.1</ele>
        <time>2016-05-06T11:31:51Z</time>
      </trkpt>
      <trkpt lat="45.67969" lon="6.86187">
        <ele>2529.2</ele>
        <time>2016-05-06T11:31:53Z</time>
      </trkpt>
      <trkpt lat="45.67969" lon="6.86187">
        <ele>2529.2</ele>
        <time>2016-05-06T11:31:55Z</time>
      </trkpt>
      <trkpt lat="45.67969" lon="6.86186">
        <ele>2529.2</ele>
        <time>2016-05-06T11:31:57Z</time>
      </trkpt>
      <trkpt lat="45.67969" lon="6.86186">
        <ele>2529.1</ele>
        <time>2016-05-06T11:31:59Z</time>
      </trkpt>
      <trkpt lat="45.67969" lon="6.86187">
        <ele>2526.7</ele>
        <time>2016-05-06T11:32:01Z</time>
      </trkpt>
      <trkpt lat="45.67968" lon="6.86187">
        <ele>2526.3</ele>
        <time>2016-05-06T11:32:03Z</time>
      </trkpt>
      <trkpt lat="45.67968" lon="6.86188">
        <ele>2527.6</ele>
        <time>2016-05-06T11:32:05Z</time>
      </trkpt>
      <trkpt lat="45.67968" lon="6.86187">
        <ele>2527.8</ele>
        <time>2016-05-06T11:32:07Z</time>
      </trkpt>
      <trkpt lat="45.67968" lon="6.86187">
        <ele>2528.2</ele>
        <time>2016-05-06T11:32:09Z</time>
      </trkpt>
      <trkpt lat="45.67969" lon="6.86187">
        <ele>2528.4</ele>
        <time>2016-05-06T11:32:11Z</time>
      </trkpt>
      <trkpt lat="45.67969" lon="6.86187">
        <ele>2528.5</ele>
        <time>2016-05-06T11:32:13Z</time>
      </trkpt>
      <trkpt lat="45.67969" lon="6.86187">
        <ele>2528.9</ele>
        <time>2016-05-06T11:32:15Z</time>
      </trkpt>
      <trkpt lat="45.67969" lon="6.86187">
        <ele>2529.1</ele>
        <time>2016-05-06T11:32:17Z</time>
      </trkpt>
      <trkpt lat="45.67969" lon="6.86187">
        <ele>2528.8</ele>
        <time>2016-05-06T11:32:19Z</time>
      </trkpt>
      <trkpt lat="45.67969" lon="6.86187">
        <ele>2528.9</ele>
        <time>2016-05-06T11:32:21Z</time>
      </trkpt>
      <trkpt lat="45.67968" lon="6.86188">
        <ele>2529.1</ele>
        <time>2016-05-06T11:32:23Z</time>
      </trkpt>
      <trkpt lat="45.67968" lon="6.86187">
        <ele>2528.9</ele>
        <time>2016-05-06T11:32:25Z</time>
      </trkpt>
      <trkpt lat="45.67968" lon="6.86187">
        <ele>2529</ele>
        <time>2016-05-06T11:32:27Z</time>
      </trkpt>
      <trkpt lat="45.67967" lon="6.86186">
        <ele>2528.9</ele>
        <time>2016-05-06T11:32:29Z</time>
      </trkpt>
      <trkpt lat="45.67967" lon="6.86186">
        <ele>2529</ele>
        <time>2016-05-06T11:32:31Z</time>
      </trkpt>
      <trkpt lat="45.67967" lon="6.86186">
        <ele>2529</ele>
        <time>2016-05-06T11:32:33Z</time>
      </trkpt>
      <trkpt lat="45.67968" lon="6.86186">
        <ele>2528.8</ele>
        <time>2016-05-06T11:32:35Z</time>
      </trkpt>
      <trkpt lat="45.67968" lon="6.86186">
        <ele>2528.9</ele>
        <time>2016-05-06T11:32:37Z</time>
      </trkpt>
      <trkpt lat="45.67968" lon="6.86185">
        <ele>2529.1</ele>
        <time>2016-05-06T11:32:39Z</time>
      </trkpt>
      <trkpt lat="45.67968" lon="6.86186">
        <ele>2529.3</ele>
        <time>2016-05-06T11:32:41Z</time>
      </trkpt>
      <trkpt lat="45.67968" lon="6.86186">
        <ele>2529.6</ele>
        <time>2016-05-06T11:32:43Z</time>
      </trkpt>
      <trkpt lat="45.67968" lon="6.86186">
        <ele>2529.8</ele>
        <time>2016-05-06T11:32:45Z</time>
      </trkpt>
      <trkpt lat="45.67968" lon="6.86187">
        <ele>2529.8</ele>
        <time>2016-05-06T11:32:47Z</time>
      </trkpt>
      <trkpt lat="45.67969" lon="6.86187">
        <ele>2529.1</ele>
        <time>2016-05-06T11:32:49Z</time>
      </trkpt>
      <trkpt lat="45.67968" lon="6.86186">
        <ele>2528.9</ele>
        <time>2016-05-06T11:32:51Z</time>
      </trkpt>
      <trkpt lat="45.67969" lon="6.86187">
        <ele>2529</ele>
        <time>2016-05-06T11:32:53Z</time>
      </trkpt>
      <trkpt lat="45.67969" lon="6.86187">
        <ele>2529.1</ele>
        <time>2016-05-06T11:32:55Z</time>
      </trkpt>
      <trkpt lat="45.67969" lon="6.86187">
        <ele>2529.1</ele>
        <time>2016-05-06T11:32:57Z</time>
      </trkpt>
      <trkpt lat="45.67968" lon="6.86187">
        <ele>2529.2</ele>
        <time>2016-05-06T11:32:59Z</time>
      </trkpt>
      <trkpt lat="45.67968" lon="6.86186">
        <ele>2529.1</ele>
        <time>2016-05-06T11:33:01Z</time>
      </trkpt>
      <trkpt lat="45.67968" lon="6.86186">
        <ele>2529</ele>
        <time>2016-05-06T11:33:03Z</time>
      </trkpt>
      <trkpt lat="45.67968" lon="6.86186">
        <ele>2528.9</ele>
        <time>2016-05-06T11:33:05Z</time>
      </trkpt>
      <trkpt lat="45.67968" lon="6.86186">
        <ele>2528.9</ele>
        <time>2016-05-06T11:33:07Z</time>
      </trkpt>
      <trkpt lat="45.67968" lon="6.86186">
        <ele>2529</ele>
        <time>2016-05-06T11:33:09Z</time>
      </trkpt>
      <trkpt lat="45.67968" lon="6.86186">
        <ele>2528.9</ele>
        <time>2016-05-06T11:33:11Z</time>
      </trkpt>
      <trkpt lat="45.67968" lon="6.86186">
        <ele>2528.9</ele>
        <time>2016-05-06T11:33:13Z</time>
      </trkpt>
      <trkpt lat="45.67968" lon="6.86186">
        <ele>2528.9</ele>
        <time>2016-05-06T11:33:15Z</time>
      </trkpt>
      <trkpt lat="45.67968" lon="6.86185">
        <ele>2529.1</ele>
        <time>2016-05-06T11:33:17Z</time>
      </trkpt>
      <trkpt lat="45.67969" lon="6.86185">
        <ele>2529.3</ele>
        <time>2016-05-06T11:33:19Z</time>
      </trkpt>
      <trkpt lat="45.67969" lon="6.86185">
        <ele>2529.4</ele>
        <time>2016-05-06T11:33:21Z</time>
      </trkpt>
      <trkpt lat="45.67968" lon="6.86185">
        <ele>2528.4</ele>
        <time>2016-05-06T11:33:23Z</time>
      </trkpt>
      <trkpt lat="45.67969" lon="6.86185">
        <ele>2528.9</ele>
        <time>2016-05-06T11:33:25Z</time>
      </trkpt>
      <trkpt lat="45.67969" lon="6.86186">
        <ele>2529.7</ele>
        <time>2016-05-06T11:33:27Z</time>
      </trkpt>
      <trkpt lat="45.67969" lon="6.86186">
        <ele>2530</ele>
        <time>2016-05-06T11:33:29Z</time>
      </trkpt>
      <trkpt lat="45.6797" lon="6.86186">
        <ele>2529.9</ele>
        <time>2016-05-06T11:33:31Z</time>
      </trkpt>
      <trkpt lat="45.6797" lon="6.86186">
        <ele>2529.7</ele>
        <time>2016-05-06T11:33:33Z</time>
      </trkpt>
      <trkpt lat="45.6797" lon="6.86187">
        <ele>2530.1</ele>
        <time>2016-05-06T11:33:35Z</time>
      </trkpt>
      <trkpt lat="45.6797" lon="6.86186">
        <ele>2529.8</ele>
        <time>2016-05-06T11:33:37Z</time>
      </trkpt>
      <trkpt lat="45.6797" lon="6.86186">
        <ele>2529.7</ele>
        <time>2016-05-06T11:33:39Z</time>
      </trkpt>
      <trkpt lat="45.6797" lon="6.86187">
        <ele>2530</ele>
        <time>2016-05-06T11:33:41Z</time>
      </trkpt>
      <trkpt lat="45.6797" lon="6.86187">
        <ele>2530.1</ele>
        <time>2016-05-06T11:33:43Z</time>
      </trkpt>
      <trkpt lat="45.6797" lon="6.86187">
        <ele>2528.9</ele>
        <time>2016-05-06T11:33:45Z</time>
      </trkpt>
      <trkpt lat="45.6797" lon="6.86186">
        <ele>2529.4</ele>
        <time>2016-05-06T11:33:47Z</time>
      </trkpt>
      <trkpt lat="45.6797" lon="6.86186">
        <ele>2529.6</ele>
        <time>2016-05-06T11:33:49Z</time>
      </trkpt>
      <trkpt lat="45.67971" lon="6.86186">
        <ele>2529.8</ele>
        <time>2016-05-06T11:33:51Z</time>
      </trkpt>
      <trkpt lat="45.6797" lon="6.86187">
        <ele>2530</ele>
        <time>2016-05-06T11:33:53Z</time>
      </trkpt>
      <trkpt lat="45.6797" lon="6.86187">
        <ele>2530.1</ele>
        <time>2016-05-06T11:33:55Z</time>
      </trkpt>
      <trkpt lat="45.6797" lon="6.86187">
        <ele>2530.3</ele>
        <time>2016-05-06T11:33:57Z</time>
      </trkpt>
      <trkpt lat="45.67969" lon="6.86187">
        <ele>2530.5</ele>
        <time>2016-05-06T11:33:59Z</time>
      </trkpt>
      <trkpt lat="45.67969" lon="6.86188">
        <ele>2530.5</ele>
        <time>2016-05-06T11:34:01Z</time>
      </trkpt>
      <trkpt lat="45.67969" lon="6.86189">
        <ele>2530.4</ele>
        <time>2016-05-06T11:34:03Z</time>
      </trkpt>
      <trkpt lat="45.67969" lon="6.86188">
        <ele>2530</ele>
        <time>2016-05-06T11:34:05Z</time>
      </trkpt>
      <trkpt lat="45.67969" lon="6.86188">
        <ele>2529.8</ele>
        <time>2016-05-06T11:34:07Z</time>
      </trkpt>
      <trkpt lat="45.67969" lon="6.86188">
        <ele>2530.2</ele>
        <time>2016-05-06T11:34:09Z</time>
      </trkpt>
      <trkpt lat="45.67969" lon="6.86188">
        <ele>2530.2</ele>
        <time>2016-05-06T11:34:11Z</time>
      </trkpt>
      <trkpt lat="45.6797" lon="6.86188">
        <ele>2530.3</ele>
        <time>2016-05-06T11:34:13Z</time>
      </trkpt>
      <trkpt lat="45.6797" lon="6.86188">
        <ele>2530.3</ele>
        <time>2016-05-06T11:34:15Z</time>
      </trkpt>
      <trkpt lat="45.6797" lon="6.86188">
        <ele>2530</ele>
        <time>2016-05-06T11:34:17Z</time>
      </trkpt>
      <trkpt lat="45.6797" lon="6.86188">
        <ele>2530.6</ele>
        <time>2016-05-06T11:34:19Z</time>
      </trkpt>
      <trkpt lat="45.6797" lon="6.86188">
        <ele>2530.8</ele>
        <time>2016-05-06T11:34:21Z</time>
      </trkpt>
      <trkpt lat="45.6797" lon="6.86187">
        <ele>2530.9</ele>
        <time>2016-05-06T11:34:23Z</time>
      </trkpt>
      <trkpt lat="45.6797" lon="6.86187">
        <ele>2530.9</ele>
        <time>2016-05-06T11:34:25Z</time>
      </trkpt>
      <trkpt lat="45.6797" lon="6.86187">
        <ele>2531</ele>
        <time>2016-05-06T11:34:27Z</time>
      </trkpt>
      <trkpt lat="45.6797" lon="6.86187">
        <ele>2531.3</ele>
        <time>2016-05-06T11:34:29Z</time>
      </trkpt>
      <trkpt lat="45.67971" lon="6.86187">
        <ele>2531.5</ele>
        <time>2016-05-06T11:34:31Z</time>
      </trkpt>
      <trkpt lat="45.67971" lon="6.86187">
        <ele>2531.5</ele>
        <time>2016-05-06T11:34:33Z</time>
      </trkpt>
      <trkpt lat="45.6797" lon="6.86187">
        <ele>2531.5</ele>
        <time>2016-05-06T11:34:35Z</time>
      </trkpt>
      <trkpt lat="45.6797" lon="6.86187">
        <ele>2531.3</ele>
        <time>2016-05-06T11:34:37Z</time>
      </trkpt>
      <trkpt lat="45.6797" lon="6.86187">
        <ele>2531</ele>
        <time>2016-05-06T11:34:39Z</time>
      </trkpt>
      <trkpt lat="45.6797" lon="6.86187">
        <ele>2530.5</ele>
        <time>2016-05-06T11:34:41Z</time>
      </trkpt>
      <trkpt lat="45.6797" lon="6.86187">
        <ele>2530.2</ele>
        <time>2016-05-06T11:34:43Z</time>
      </trkpt>
      <trkpt lat="45.6797" lon="6.86187">
        <ele>2529.5</ele>
        <time>2016-05-06T11:34:45Z</time>
      </trkpt>
      <trkpt lat="45.6797" lon="6.86187">
        <ele>2529.1</ele>
        <time>2016-05-06T11:34:47Z</time>
      </trkpt>
      <trkpt lat="45.67971" lon="6.86187">
        <ele>2529.1</ele>
        <time>2016-05-06T11:34:49Z</time>
      </trkpt>
      <trkpt lat="45.67972" lon="6.86186">
        <ele>2529</ele>
        <time>2016-05-06T11:34:51Z</time>
      </trkpt>
      <trkpt lat="45.67972" lon="6.86186">
        <ele>2529</ele>
        <time>2016-05-06T11:34:53Z</time>
      </trkpt>
      <trkpt lat="45.67973" lon="6.86186">
        <ele>2529.1</ele>
        <time>2016-05-06T11:34:55Z</time>
      </trkpt>
      <trkpt lat="45.67972" lon="6.86186">
        <ele>2528.9</ele>
        <time>2016-05-06T11:34:57Z</time>
      </trkpt>
      <trkpt lat="45.67971" lon="6.86186">
        <ele>2528.8</ele>
        <time>2016-05-06T11:34:59Z</time>
      </trkpt>
      <trkpt lat="45.67971" lon="6.86186">
        <ele>2528.7</ele>
        <time>2016-05-06T11:35:01Z</time>
      </trkpt>
      <trkpt lat="45.67971" lon="6.86186">
        <ele>2528.8</ele>
        <time>2016-05-06T11:35:03Z</time>
      </trkpt>
      <trkpt lat="45.6797" lon="6.86186">
        <ele>2528.8</ele>
        <time>2016-05-06T11:35:05Z</time>
      </trkpt>
      <trkpt lat="45.6797" lon="6.86187">
        <ele>2528.8</ele>
        <time>2016-05-06T11:35:07Z</time>
      </trkpt>
      <trkpt lat="45.6797" lon="6.86188">
        <ele>2528.9</ele>
        <time>2016-05-06T11:35:09Z</time>
      </trkpt>
      <trkpt lat="45.6797" lon="6.86189">
        <ele>2528.9</ele>
        <time>2016-05-06T11:35:11Z</time>
      </trkpt>
      <trkpt lat="45.6797" lon="6.8619">
        <ele>2529</ele>
        <time>2016-05-06T11:35:13Z</time>
      </trkpt>
      <trkpt lat="45.6797" lon="6.8619">
        <ele>2529</ele>
        <time>2016-05-06T11:35:15Z</time>
      </trkpt>
      <trkpt lat="45.67969" lon="6.86189">
        <ele>2528.9</ele>
        <time>2016-05-06T11:35:17Z</time>
      </trkpt>
      <trkpt lat="45.67969" lon="6.86189">
        <ele>2528.9</ele>
        <time>2016-05-06T11:35:19Z</time>
      </trkpt>
      <trkpt lat="45.67969" lon="6.86189">
        <ele>2528.7</ele>
        <time>2016-05-06T11:35:21Z</time>
      </trkpt>
      <trkpt lat="45.67969" lon="6.8619">
        <ele>2528.7</ele>
        <time>2016-05-06T11:35:23Z</time>
      </trkpt>
      <trkpt lat="45.67968" lon="6.8619">
        <ele>2528.7</ele>
        <time>2016-05-06T11:35:25Z</time>
      </trkpt>
      <trkpt lat="45.67968" lon="6.8619">
        <ele>2528.7</ele>
        <time>2016-05-06T11:35:27Z</time>
      </trkpt>
      <trkpt lat="45.67968" lon="6.86191">
        <ele>2528.8</ele>
        <time>2016-05-06T11:35:29Z</time>
      </trkpt>
      <trkpt lat="45.67967" lon="6.86193">
        <ele>2528.8</ele>
        <time>2016-05-06T11:35:31Z</time>
      </trkpt>
      <trkpt lat="45.67964" lon="6.86199">
        <ele>2528.5</ele>
        <time>2016-05-06T11:35:33Z</time>
      </trkpt>
      <trkpt lat="45.67961" lon="6.86209">
        <ele>2527.9</ele>
        <time>2016-05-06T11:35:35Z</time>
      </trkpt>
      <trkpt lat="45.67956" lon="6.86223">
        <ele>2527.7</ele>
        <time>2016-05-06T11:35:37Z</time>
      </trkpt>
      <trkpt lat="45.67952" lon="6.8624">
        <ele>2526.9</ele>
        <time>2016-05-06T11:35:39Z</time>
      </trkpt>
      <trkpt lat="45.67945" lon="6.86257">
        <ele>2525.7</ele>
        <time>2016-05-06T11:35:41Z</time>
      </trkpt>
      <trkpt lat="45.67935" lon="6.86272">
        <ele>2524.8</ele>
        <time>2016-05-06T11:35:43Z</time>
      </trkpt>
      <trkpt lat="45.67923" lon="6.86293">
        <ele>2523</ele>
        <time>2016-05-06T11:35:45Z</time>
      </trkpt>
      <trkpt lat="45.67913" lon="6.86313">
        <ele>2520.6</ele>
        <time>2016-05-06T11:35:47Z</time>
      </trkpt>
      <trkpt lat="45.67908" lon="6.86327">
        <ele>2518.4</ele>
        <time>2016-05-06T11:35:49Z</time>
      </trkpt>
      <trkpt lat="45.67905" lon="6.86338">
        <ele>2518.3</ele>
        <time>2016-05-06T11:35:51Z</time>
      </trkpt>
      <trkpt lat="45.67903" lon="6.86351">
        <ele>2517.5</ele>
        <time>2016-05-06T11:35:53Z</time>
      </trkpt>
      <trkpt lat="45.67902" lon="6.86368">
        <ele>2514.6</ele>
        <time>2016-05-06T11:35:55Z</time>
      </trkpt>
      <trkpt lat="45.67902" lon="6.86383">
        <ele>2511</ele>
        <time>2016-05-06T11:35:57Z</time>
      </trkpt>
      <trkpt lat="45.67904" lon="6.86398">
        <ele>2508.6</ele>
        <time>2016-05-06T11:35:59Z</time>
      </trkpt>
      <trkpt lat="45.67907" lon="6.86411">
        <ele>2504.3</ele>
        <time>2016-05-06T11:36:01Z</time>
      </trkpt>
      <trkpt lat="45.67898" lon="6.86421">
        <ele>2500.1</ele>
        <time>2016-05-06T11:36:03Z</time>
      </trkpt>
      <trkpt lat="45.67883" lon="6.8642">
        <ele>2495.8</ele>
        <time>2016-05-06T11:36:05Z</time>
      </trkpt>
      <trkpt lat="45.67866" lon="6.86418">
        <ele>2492</ele>
        <time>2016-05-06T11:36:07Z</time>
      </trkpt>
      <trkpt lat="45.67847" lon="6.86433">
        <ele>2488.4</ele>
        <time>2016-05-06T11:36:09Z</time>
      </trkpt>
      <trkpt lat="45.67835" lon="6.86463">
        <ele>2481.6</ele>
        <time>2016-05-06T11:36:11Z</time>
      </trkpt>
      <trkpt lat="45.67829" lon="6.86492">
        <ele>2478.6</ele>
        <time>2016-05-06T11:36:13Z</time>
      </trkpt>
      <trkpt lat="45.67831" lon="6.86513">
        <ele>2476.2</ele>
        <time>2016-05-06T11:36:15Z</time>
      </trkpt>
      <trkpt lat="45.67834" lon="6.8653">
        <ele>2472.1</ele>
        <time>2016-05-06T11:36:17Z</time>
      </trkpt>
      <trkpt lat="45.67837" lon="6.86544">
        <ele>2469.3</ele>
        <time>2016-05-06T11:36:19Z</time>
      </trkpt>
      <trkpt lat="45.67839" lon="6.86557">
        <ele>2467.3</ele>
        <time>2016-05-06T11:36:21Z</time>
      </trkpt>
      <trkpt lat="45.6784" lon="6.86569">
        <ele>2465.7</ele>
        <time>2016-05-06T11:36:23Z</time>
      </trkpt>
      <trkpt lat="45.67842" lon="6.86582">
        <ele>2463.9</ele>
        <time>2016-05-06T11:36:25Z</time>
      </trkpt>
      <trkpt lat="45.67845" lon="6.86596">
        <ele>2462.1</ele>
        <time>2016-05-06T11:36:27Z</time>
      </trkpt>
      <trkpt lat="45.67848" lon="6.8661">
        <ele>2460.5</ele>
        <time>2016-05-06T11:36:29Z</time>
      </trkpt>
      <trkpt lat="45.6785" lon="6.86623">
        <ele>2459.4</ele>
        <time>2016-05-06T11:36:31Z</time>
      </trkpt>
      <trkpt lat="45.67852" lon="6.86634">
        <ele>2458.3</ele>
        <time>2016-05-06T11:36:33Z</time>
      </trkpt>
      <trkpt lat="45.67853" lon="6.86646">
        <ele>2456.8</ele>
        <time>2016-05-06T11:36:35Z</time>
      </trkpt>
      <trkpt lat="45.67853" lon="6.86655">
        <ele>2455.1</ele>
        <time>2016-05-06T11:36:37Z</time>
      </trkpt>
      <trkpt lat="45.67853" lon="6.86664">
        <ele>2453.7</ele>
        <time>2016-05-06T11:36:39Z</time>
      </trkpt>
      <trkpt lat="45.6785" lon="6.86674">
        <ele>2452.1</ele>
        <time>2016-05-06T11:36:41Z</time>
      </trkpt>
      <trkpt lat="45.67842" lon="6.86688">
        <ele>2450.5</ele>
        <time>2016-05-06T11:36:43Z</time>
      </trkpt>
      <trkpt lat="45.67831" lon="6.86703">
        <ele>2448.8</ele>
        <time>2016-05-06T11:36:45Z</time>
      </trkpt>
      <trkpt lat="45.67817" lon="6.86706">
        <ele>2446.5</ele>
        <time>2016-05-06T11:36:47Z</time>
      </trkpt>
      <trkpt lat="45.678" lon="6.86707">
        <ele>2441.7</ele>
        <time>2016-05-06T11:36:49Z</time>
      </trkpt>
      <trkpt lat="45.67781" lon="6.86699">
        <ele>2437.1</ele>
        <time>2016-05-06T11:36:51Z</time>
      </trkpt>
      <trkpt lat="45.67763" lon="6.86687">
        <ele>2434.3</ele>
        <time>2016-05-06T11:36:53Z</time>
      </trkpt>
      <trkpt lat="45.67747" lon="6.86675">
        <ele>2431.6</ele>
        <time>2016-05-06T11:36:55Z</time>
      </trkpt>
      <trkpt lat="45.6773" lon="6.86669">
        <ele>2428.8</ele>
        <time>2016-05-06T11:36:57Z</time>
      </trkpt>
      <trkpt lat="45.67715" lon="6.86664">
        <ele>2426.3</ele>
        <time>2016-05-06T11:36:59Z</time>
      </trkpt>
      <trkpt lat="45.67706" lon="6.86659">
        <ele>2424.6</ele>
        <time>2016-05-06T11:37:01Z</time>
      </trkpt>
      <trkpt lat="45.67703" lon="6.86659">
        <ele>2424.2</ele>
        <time>2016-05-06T11:37:03Z</time>
      </trkpt>
      <trkpt lat="45.67703" lon="6.86658">
        <ele>2424</ele>
        <time>2016-05-06T11:37:05Z</time>
      </trkpt>
      <trkpt lat="45.67703" lon="6.86658">
        <ele>2423.8</ele>
        <time>2016-05-06T11:37:07Z</time>
      </trkpt>
      <trkpt lat="45.67702" lon="6.86658">
        <ele>2423.7</ele>
        <time>2016-05-06T11:37:09Z</time>
      </trkpt>
      <trkpt lat="45.67702" lon="6.86659">
        <ele>2423.8</ele>
        <time>2016-05-06T11:37:11Z</time>
      </trkpt>
      <trkpt lat="45.67702" lon="6.86658">
        <ele>2423.9</ele>
        <time>2016-05-06T11:37:13Z</time>
      </trkpt>
      <trkpt lat="45.67702" lon="6.86659">
        <ele>2423.8</ele>
        <time>2016-05-06T11:37:15Z</time>
      </trkpt>
      <trkpt lat="45.67702" lon="6.8666">
        <ele>2423.8</ele>
        <time>2016-05-06T11:37:17Z</time>
      </trkpt>
      <trkpt lat="45.67703" lon="6.8666">
        <ele>2423.8</ele>
        <time>2016-05-06T11:37:19Z</time>
      </trkpt>
      <trkpt lat="45.67703" lon="6.8666">
        <ele>2423.7</ele>
        <time>2016-05-06T11:37:21Z</time>
      </trkpt>
      <trkpt lat="45.67703" lon="6.86661">
        <ele>2423.7</ele>
        <time>2016-05-06T11:37:23Z</time>
      </trkpt>
      <trkpt lat="45.67703" lon="6.86662">
        <ele>2423.7</ele>
        <time>2016-05-06T11:37:25Z</time>
      </trkpt>
      <trkpt lat="45.67703" lon="6.86662">
        <ele>2423.8</ele>
        <time>2016-05-06T11:37:27Z</time>
      </trkpt>
      <trkpt lat="45.67703" lon="6.86663">
        <ele>2423.8</ele>
        <time>2016-05-06T11:37:29Z</time>
      </trkpt>
      <trkpt lat="45.67703" lon="6.86663">
        <ele>2423.8</ele>
        <time>2016-05-06T11:37:31Z</time>
      </trkpt>
      <trkpt lat="45.67703" lon="6.86663">
        <ele>2423.7</ele>
        <time>2016-05-06T11:37:33Z</time>
      </trkpt>
      <trkpt lat="45.67703" lon="6.86663">
        <ele>2423.8</ele>
        <time>2016-05-06T11:37:35Z</time>
      </trkpt>
      <trkpt lat="45.67704" lon="6.86663">
        <ele>2423.7</ele>
        <time>2016-05-06T11:37:37Z</time>
      </trkpt>
      <trkpt lat="45.67704" lon="6.86662">
        <ele>2424</ele>
        <time>2016-05-06T11:37:39Z</time>
      </trkpt>
      <trkpt lat="45.67705" lon="6.86661">
        <ele>2423.9</ele>
        <time>2016-05-06T11:37:41Z</time>
      </trkpt>
      <trkpt lat="45.67705" lon="6.86661">
        <ele>2423.8</ele>
        <time>2016-05-06T11:37:43Z</time>
      </trkpt>
      <trkpt lat="45.67706" lon="6.8666">
        <ele>2423.7</ele>
        <time>2016-05-06T11:37:45Z</time>
      </trkpt>
      <trkpt lat="45.67706" lon="6.86661">
        <ele>2423.7</ele>
        <time>2016-05-06T11:37:47Z</time>
      </trkpt>
      <trkpt lat="45.67705" lon="6.86661">
        <ele>2423.4</ele>
        <time>2016-05-06T11:37:49Z</time>
      </trkpt>
      <trkpt lat="45.67705" lon="6.86661">
        <ele>2423.3</ele>
        <time>2016-05-06T11:37:51Z</time>
      </trkpt>
      <trkpt lat="45.67704" lon="6.8666">
        <ele>2423.5</ele>
        <time>2016-05-06T11:37:53Z</time>
      </trkpt>
      <trkpt lat="45.67704" lon="6.8666">
        <ele>2423.8</ele>
        <time>2016-05-06T11:37:55Z</time>
      </trkpt>
      <trkpt lat="45.67704" lon="6.8666">
        <ele>2424</ele>
        <time>2016-05-06T11:37:57Z</time>
      </trkpt>
      <trkpt lat="45.67704" lon="6.8666">
        <ele>2423.6</ele>
        <time>2016-05-06T11:37:59Z</time>
      </trkpt>
      <trkpt lat="45.67704" lon="6.8666">
        <ele>2423.6</ele>
        <time>2016-05-06T11:38:01Z</time>
      </trkpt>
      <trkpt lat="45.67704" lon="6.86661">
        <ele>2423.1</ele>
        <time>2016-05-06T11:38:03Z</time>
      </trkpt>
      <trkpt lat="45.67702" lon="6.86662">
        <ele>2423</ele>
        <time>2016-05-06T11:38:05Z</time>
      </trkpt>
      <trkpt lat="45.67701" lon="6.86663">
        <ele>2423.2</ele>
        <time>2016-05-06T11:38:07Z</time>
      </trkpt>
      <trkpt lat="45.677" lon="6.86664">
        <ele>2422.9</ele>
        <time>2016-05-06T11:38:09Z</time>
      </trkpt>
      <trkpt lat="45.67699" lon="6.86665">
        <ele>2422.9</ele>
        <time>2016-05-06T11:38:11Z</time>
      </trkpt>
      <trkpt lat="45.67699" lon="6.86666">
        <ele>2422.9</ele>
        <time>2016-05-06T11:38:13Z</time>
      </trkpt>
      <trkpt lat="45.67698" lon="6.86668">
        <ele>2422.8</ele>
        <time>2016-05-06T11:38:15Z</time>
      </trkpt>
      <trkpt lat="45.67697" lon="6.86669">
        <ele>2423.1</ele>
        <time>2016-05-06T11:38:17Z</time>
      </trkpt>
      <trkpt lat="45.67697" lon="6.8667">
        <ele>2423.5</ele>
        <time>2016-05-06T11:38:19Z</time>
      </trkpt>
      <trkpt lat="45.67696" lon="6.86672">
        <ele>2424.1</ele>
        <time>2016-05-06T11:38:21Z</time>
      </trkpt>
      <trkpt lat="45.67695" lon="6.86672">
        <ele>2424.3</ele>
        <time>2016-05-06T11:38:23Z</time>
      </trkpt>
      <trkpt lat="45.67693" lon="6.86674">
        <ele>2424.6</ele>
        <time>2016-05-06T11:38:25Z</time>
      </trkpt>
      <trkpt lat="45.67691" lon="6.86675">
        <ele>2425.3</ele>
        <time>2016-05-06T11:38:27Z</time>
      </trkpt>
      <trkpt lat="45.67689" lon="6.86675">
        <ele>2425.9</ele>
        <time>2016-05-06T11:38:29Z</time>
      </trkpt>
      <trkpt lat="45.67687" lon="6.86675">
        <ele>2426.1</ele>
        <time>2016-05-06T11:38:31Z</time>
      </trkpt>
      <trkpt lat="45.67686" lon="6.86675">
        <ele>2426.3</ele>
        <time>2016-05-06T11:38:33Z</time>
      </trkpt>
      <trkpt lat="45.67684" lon="6.86674">
        <ele>2425.8</ele>
        <time>2016-05-06T11:38:35Z</time>
      </trkpt>
      <trkpt lat="45.67681" lon="6.86674">
        <ele>2426.4</ele>
        <time>2016-05-06T11:38:37Z</time>
      </trkpt>
      <trkpt lat="45.67679" lon="6.86673">
        <ele>2426.4</ele>
        <time>2016-05-06T11:38:39Z</time>
      </trkpt>
      <trkpt lat="45.67677" lon="6.86671">
        <ele>2426.4</ele>
        <time>2016-05-06T11:38:41Z</time>
      </trkpt>
      <trkpt lat="45.67676" lon="6.86672">
        <ele>2426.3</ele>
        <time>2016-05-06T11:38:43Z</time>
      </trkpt>
      <trkpt lat="45.67676" lon="6.86675">
        <ele>2426.4</ele>
        <time>2016-05-06T11:38:45Z</time>
      </trkpt>
      <trkpt lat="45.67678" lon="6.86678">
        <ele>2426.2</ele>
        <time>2016-05-06T11:38:47Z</time>
      </trkpt>
      <trkpt lat="45.6768" lon="6.86679">
        <ele>2426.3</ele>
        <time>2016-05-06T11:38:49Z</time>
      </trkpt>
      <trkpt lat="45.67681" lon="6.86681">
        <ele>2426.2</ele>
        <time>2016-05-06T11:38:51Z</time>
      </trkpt>
      <trkpt lat="45.67683" lon="6.86683">
        <ele>2426.2</ele>
        <time>2016-05-06T11:38:53Z</time>
      </trkpt>
      <trkpt lat="45.67685" lon="6.86684">
        <ele>2426.2</ele>
        <time>2016-05-06T11:38:55Z</time>
      </trkpt>
      <trkpt lat="45.67687" lon="6.86687">
        <ele>2426.1</ele>
        <time>2016-05-06T11:38:57Z</time>
      </trkpt>
      <trkpt lat="45.67689" lon="6.86688">
        <ele>2425.9</ele>
        <time>2016-05-06T11:38:59Z</time>
      </trkpt>
      <trkpt lat="45.67691" lon="6.8669">
        <ele>2425.6</ele>
        <time>2016-05-06T11:39:01Z</time>
      </trkpt>
      <trkpt lat="45.67693" lon="6.86691">
        <ele>2425.4</ele>
        <time>2016-05-06T11:39:03Z</time>
      </trkpt>
      <trkpt lat="45.67694" lon="6.8669">
        <ele>2425</ele>
        <time>2016-05-06T11:39:05Z</time>
      </trkpt>
      <trkpt lat="45.67694" lon="6.8669">
        <ele>2424.7</ele>
        <time>2016-05-06T11:39:07Z</time>
      </trkpt>
      <trkpt lat="45.67694" lon="6.8669">
        <ele>2424.1</ele>
        <time>2016-05-06T11:39:09Z</time>
      </trkpt>
      <trkpt lat="45.67693" lon="6.8669">
        <ele>2423.3</ele>
        <time>2016-05-06T11:39:11Z</time>
      </trkpt>
      <trkpt lat="45.67693" lon="6.8669">
        <ele>2423.2</ele>
        <time>2016-05-06T11:39:13Z</time>
      </trkpt>
      <trkpt lat="45.67693" lon="6.8669">
        <ele>2423.1</ele>
        <time>2016-05-06T11:39:15Z</time>
      </trkpt>
      <trkpt lat="45.67694" lon="6.8669">
        <ele>2423.4</ele>
        <time>2016-05-06T11:39:17Z</time>
      </trkpt>
      <trkpt lat="45.67694" lon="6.86689">
        <ele>2422.8</ele>
        <time>2016-05-06T11:39:19Z</time>
      </trkpt>
      <trkpt lat="45.67695" lon="6.86689">
        <ele>2423.2</ele>
        <time>2016-05-06T11:39:21Z</time>
      </trkpt>
      <trkpt lat="45.67695" lon="6.86689">
        <ele>2423.3</ele>
        <time>2016-05-06T11:39:23Z</time>
      </trkpt>
      <trkpt lat="45.67696" lon="6.86689">
        <ele>2422.8</ele>
        <time>2016-05-06T11:39:25Z</time>
      </trkpt>
      <trkpt lat="45.67696" lon="6.86689">
        <ele>2422.6</ele>
        <time>2016-05-06T11:39:27Z</time>
      </trkpt>
      <trkpt lat="45.67696" lon="6.86689">
        <ele>2422.9</ele>
        <time>2016-05-06T11:39:29Z</time>
      </trkpt>
      <trkpt lat="45.67697" lon="6.8669">
        <ele>2423.1</ele>
        <time>2016-05-06T11:39:31Z</time>
      </trkpt>
      <trkpt lat="45.67697" lon="6.86689">
        <ele>2422.9</ele>
        <time>2016-05-06T11:39:33Z</time>
      </trkpt>
      <trkpt lat="45.67696" lon="6.8669">
        <ele>2422.8</ele>
        <time>2016-05-06T11:39:35Z</time>
      </trkpt>
      <trkpt lat="45.67696" lon="6.8669">
        <ele>2422.9</ele>
        <time>2016-05-06T11:39:37Z</time>
      </trkpt>
      <trkpt lat="45.67696" lon="6.8669">
        <ele>2422.9</ele>
        <time>2016-05-06T11:39:39Z</time>
      </trkpt>
      <trkpt lat="45.67696" lon="6.86689">
        <ele>2422.8</ele>
        <time>2016-05-06T11:39:41Z</time>
      </trkpt>
      <trkpt lat="45.67697" lon="6.86688">
        <ele>2422.6</ele>
        <time>2016-05-06T11:39:43Z</time>
      </trkpt>
      <trkpt lat="45.67696" lon="6.86688">
        <ele>2422.8</ele>
        <time>2016-05-06T11:39:45Z</time>
      </trkpt>
      <trkpt lat="45.67696" lon="6.86689">
        <ele>2422.7</ele>
        <time>2016-05-06T11:39:47Z</time>
      </trkpt>
      <trkpt lat="45.67695" lon="6.86689">
        <ele>2422.4</ele>
        <time>2016-05-06T11:39:49Z</time>
      </trkpt>
      <trkpt lat="45.67695" lon="6.86689">
        <ele>2422.5</ele>
        <time>2016-05-06T11:39:51Z</time>
      </trkpt>
      <trkpt lat="45.67697" lon="6.8669">
        <ele>2422.9</ele>
        <time>2016-05-06T11:39:53Z</time>
      </trkpt>
      <trkpt lat="45.67696" lon="6.86689">
        <ele>2422.7</ele>
        <time>2016-05-06T11:39:55Z</time>
      </trkpt>
      <trkpt lat="45.67697" lon="6.86689">
        <ele>2423</ele>
        <time>2016-05-06T11:39:57Z</time>
      </trkpt>
      <trkpt lat="45.67697" lon="6.8669">
        <ele>2422.7</ele>
        <time>2016-05-06T11:39:59Z</time>
      </trkpt>
      <trkpt lat="45.67697" lon="6.8669">
        <ele>2423</ele>
        <time>2016-05-06T11:40:01Z</time>
      </trkpt>
      <trkpt lat="45.67697" lon="6.86691">
        <ele>2422.6</ele>
        <time>2016-05-06T11:40:03Z</time>
      </trkpt>
      <trkpt lat="45.67697" lon="6.8669">
        <ele>2422.1</ele>
        <time>2016-05-06T11:40:05Z</time>
      </trkpt>
      <trkpt lat="45.67696" lon="6.8669">
        <ele>2422.3</ele>
        <time>2016-05-06T11:40:07Z</time>
      </trkpt>
      <trkpt lat="45.67697" lon="6.86691">
        <ele>2422.4</ele>
        <time>2016-05-06T11:40:09Z</time>
      </trkpt>
      <trkpt lat="45.67696" lon="6.86691">
        <ele>2422.4</ele>
        <time>2016-05-06T11:40:11Z</time>
      </trkpt>
      <trkpt lat="45.67697" lon="6.8669">
        <ele>2422.3</ele>
        <time>2016-05-06T11:40:13Z</time>
      </trkpt>
      <trkpt lat="45.67697" lon="6.86691">
        <ele>2422.4</ele>
        <time>2016-05-06T11:40:15Z</time>
      </trkpt>
      <trkpt lat="45.67696" lon="6.86689">
        <ele>2422.3</ele>
        <time>2016-05-06T11:40:17Z</time>
      </trkpt>
      <trkpt lat="45.67697" lon="6.86689">
        <ele>2421.9</ele>
        <time>2016-05-06T11:40:19Z</time>
      </trkpt>
      <trkpt lat="45.67697" lon="6.86688">
        <ele>2422</ele>
        <time>2016-05-06T11:40:21Z</time>
      </trkpt>
      <trkpt lat="45.67697" lon="6.86687">
        <ele>2422.1</ele>
        <time>2016-05-06T11:40:23Z</time>
      </trkpt>
      <trkpt lat="45.67697" lon="6.86687">
        <ele>2422.1</ele>
        <time>2016-05-06T11:40:25Z</time>
      </trkpt>
      <trkpt lat="45.67698" lon="6.86687">
        <ele>2422.1</ele>
        <time>2016-05-06T11:40:27Z</time>
      </trkpt>
      <trkpt lat="45.67698" lon="6.86686">
        <ele>2422</ele>
        <time>2016-05-06T11:40:29Z</time>
      </trkpt>
      <trkpt lat="45.67699" lon="6.86686">
        <ele>2422</ele>
        <time>2016-05-06T11:40:31Z</time>
      </trkpt>
      <trkpt lat="45.67699" lon="6.86685">
        <ele>2422</ele>
        <time>2016-05-06T11:40:33Z</time>
      </trkpt>
      <trkpt lat="45.677" lon="6.86684">
        <ele>2422.2</ele>
        <time>2016-05-06T11:40:35Z</time>
      </trkpt>
      <trkpt lat="45.67699" lon="6.86684">
        <ele>2422.3</ele>
        <time>2016-05-06T11:40:37Z</time>
      </trkpt>
      <trkpt lat="45.67699" lon="6.86686">
        <ele>2422.2</ele>
        <time>2016-05-06T11:40:39Z</time>
      </trkpt>
      <trkpt lat="45.67697" lon="6.86686">
        <ele>2422.2</ele>
        <time>2016-05-06T11:40:41Z</time>
      </trkpt>
      <trkpt lat="45.67697" lon="6.86687">
        <ele>2422.1</ele>
        <time>2016-05-06T11:40:43Z</time>
      </trkpt>
      <trkpt lat="45.67696" lon="6.86687">
        <ele>2422.2</ele>
        <time>2016-05-06T11:40:45Z</time>
      </trkpt>
      <trkpt lat="45.67695" lon="6.86687">
        <ele>2422.3</ele>
        <time>2016-05-06T11:40:47Z</time>
      </trkpt>
      <trkpt lat="45.67695" lon="6.86687">
        <ele>2422.3</ele>
        <time>2016-05-06T11:40:49Z</time>
      </trkpt>
      <trkpt lat="45.67694" lon="6.86687">
        <ele>2422.3</ele>
        <time>2016-05-06T11:40:51Z</time>
      </trkpt>
      <trkpt lat="45.67694" lon="6.86687">
        <ele>2422.5</ele>
        <time>2016-05-06T11:40:53Z</time>
      </trkpt>
      <trkpt lat="45.67694" lon="6.86688">
        <ele>2422.6</ele>
        <time>2016-05-06T11:40:55Z</time>
      </trkpt>
      <trkpt lat="45.67694" lon="6.86687">
        <ele>2422.6</ele>
        <time>2016-05-06T11:40:57Z</time>
      </trkpt>
      <trkpt lat="45.67694" lon="6.86687">
        <ele>2422.5</ele>
        <time>2016-05-06T11:40:59Z</time>
      </trkpt>
      <trkpt lat="45.67694" lon="6.86687">
        <ele>2422.3</ele>
        <time>2016-05-06T11:41:01Z</time>
      </trkpt>
      <trkpt lat="45.67696" lon="6.86688">
        <ele>2422.3</ele>
        <time>2016-05-06T11:41:03Z</time>
      </trkpt>
      <trkpt lat="45.67696" lon="6.86687">
        <ele>2422.1</ele>
        <time>2016-05-06T11:41:05Z</time>
      </trkpt>
      <trkpt lat="45.67697" lon="6.86687">
        <ele>2422.3</ele>
        <time>2016-05-06T11:41:07Z</time>
      </trkpt>
      <trkpt lat="45.67697" lon="6.86689">
        <ele>2422.3</ele>
        <time>2016-05-06T11:41:09Z</time>
      </trkpt>
      <trkpt lat="45.67696" lon="6.8669">
        <ele>2422.2</ele>
        <time>2016-05-06T11:41:11Z</time>
      </trkpt>
      <trkpt lat="45.67696" lon="6.8669">
        <ele>2422.2</ele>
        <time>2016-05-06T11:41:13Z</time>
      </trkpt>
      <trkpt lat="45.67696" lon="6.8669">
        <ele>2422.5</ele>
        <time>2016-05-06T11:41:15Z</time>
      </trkpt>
      <trkpt lat="45.67696" lon="6.8669">
        <ele>2422.6</ele>
        <time>2016-05-06T11:41:17Z</time>
      </trkpt>
      <trkpt lat="45.67696" lon="6.8669">
        <ele>2422.1</ele>
        <time>2016-05-06T11:41:19Z</time>
      </trkpt>
      <trkpt lat="45.67696" lon="6.86689">
        <ele>2422.3</ele>
        <time>2016-05-06T11:41:21Z</time>
      </trkpt>
      <trkpt lat="45.67696" lon="6.86688">
        <ele>2422.3</ele>
        <time>2016-05-06T11:41:23Z</time>
      </trkpt>
      <trkpt lat="45.67696" lon="6.86689">
        <ele>2422.2</ele>
        <time>2016-05-06T11:41:25Z</time>
      </trkpt>
      <trkpt lat="45.67696" lon="6.86689">
        <ele>2422.2</ele>
        <time>2016-05-06T11:41:27Z</time>
      </trkpt>
      <trkpt lat="45.67696" lon="6.86688">
        <ele>2422.6</ele>
        <time>2016-05-06T11:41:29Z</time>
      </trkpt>
      <trkpt lat="45.67695" lon="6.86687">
        <ele>2422.7</ele>
        <time>2016-05-06T11:41:31Z</time>
      </trkpt>
      <trkpt lat="45.67694" lon="6.86686">
        <ele>2422.8</ele>
        <time>2016-05-06T11:41:33Z</time>
      </trkpt>
      <trkpt lat="45.67694" lon="6.86684">
        <ele>2423.3</ele>
        <time>2016-05-06T11:41:35Z</time>
      </trkpt>
      <trkpt lat="45.67695" lon="6.86684">
        <ele>2423.7</ele>
        <time>2016-05-06T11:41:37Z</time>
      </trkpt>
      <trkpt lat="45.67695" lon="6.86684">
        <ele>2423.7</ele>
        <time>2016-05-06T11:41:39Z</time>
      </trkpt>
      <trkpt lat="45.67695" lon="6.86684">
        <ele>2423.7</ele>
        <time>2016-05-06T11:41:41Z</time>
      </trkpt>
      <trkpt lat="45.67695" lon="6.86682">
        <ele>2423.6</ele>
        <time>2016-05-06T11:41:43Z</time>
      </trkpt>
      <trkpt lat="45.67696" lon="6.86685">
        <ele>2423.7</ele>
        <time>2016-05-06T11:41:45Z</time>
      </trkpt>
      <trkpt lat="45.67695" lon="6.86685">
        <ele>2423.8</ele>
        <time>2016-05-06T11:41:47Z</time>
      </trkpt>
      <trkpt lat="45.67696" lon="6.86685">
        <ele>2423.8</ele>
        <time>2016-05-06T11:41:49Z</time>
      </trkpt>
      <trkpt lat="45.67696" lon="6.86685">
        <ele>2424.1</ele>
        <time>2016-05-06T11:41:51Z</time>
      </trkpt>
      <trkpt lat="45.67696" lon="6.86684">
        <ele>2424</ele>
        <time>2016-05-06T11:41:53Z</time>
      </trkpt>
      <trkpt lat="45.67696" lon="6.86684">
        <ele>2424.1</ele>
        <time>2016-05-06T11:41:55Z</time>
      </trkpt>
      <trkpt lat="45.67696" lon="6.86684">
        <ele>2424</ele>
        <time>2016-05-06T11:41:57Z</time>
      </trkpt>
      <trkpt lat="45.67696" lon="6.86684">
        <ele>2424.1</ele>
        <time>2016-05-06T11:41:59Z</time>
      </trkpt>
      <trkpt lat="45.67697" lon="6.86684">
        <ele>2424.1</ele>
        <time>2016-05-06T11:42:01Z</time>
      </trkpt>
      <trkpt lat="45.67698" lon="6.86681">
        <ele>2423.9</ele>
        <time>2016-05-06T11:42:03Z</time>
      </trkpt>
      <trkpt lat="45.67699" lon="6.86681">
        <ele>2423.6</ele>
        <time>2016-05-06T11:42:05Z</time>
      </trkpt>
      <trkpt lat="45.67699" lon="6.86681">
        <ele>2422.4</ele>
        <time>2016-05-06T11:42:07Z</time>
      </trkpt>
      <trkpt lat="45.67699" lon="6.86682">
        <ele>2422.4</ele>
        <time>2016-05-06T11:42:09Z</time>
      </trkpt>
      <trkpt lat="45.67698" lon="6.86684">
        <ele>2422.1</ele>
        <time>2016-05-06T11:42:11Z</time>
      </trkpt>
      <trkpt lat="45.67698" lon="6.86684">
        <ele>2421.8</ele>
        <time>2016-05-06T11:42:13Z</time>
      </trkpt>
      <trkpt lat="45.67697" lon="6.86685">
        <ele>2421.9</ele>
        <time>2016-05-06T11:42:15Z</time>
      </trkpt>
      <trkpt lat="45.67697" lon="6.86685">
        <ele>2422.1</ele>
        <time>2016-05-06T11:42:17Z</time>
      </trkpt>
      <trkpt lat="45.67697" lon="6.86685">
        <ele>2421.8</ele>
        <time>2016-05-06T11:42:19Z</time>
      </trkpt>
      <trkpt lat="45.67697" lon="6.86685">
        <ele>2421.9</ele>
        <time>2016-05-06T11:42:21Z</time>
      </trkpt>
      <trkpt lat="45.67698" lon="6.86684">
        <ele>2422.1</ele>
        <time>2016-05-06T11:42:23Z</time>
      </trkpt>
      <trkpt lat="45.67699" lon="6.86684">
        <ele>2421.9</ele>
        <time>2016-05-06T11:42:25Z</time>
      </trkpt>
      <trkpt lat="45.67699" lon="6.86684">
        <ele>2421.2</ele>
        <time>2016-05-06T11:42:27Z</time>
      </trkpt>
      <trkpt lat="45.67698" lon="6.86685">
        <ele>2421.1</ele>
        <time>2016-05-06T11:42:29Z</time>
      </trkpt>
      <trkpt lat="45.67698" lon="6.86686">
        <ele>2421.5</ele>
        <time>2016-05-06T11:42:31Z</time>
      </trkpt>
      <trkpt lat="45.67697" lon="6.86687">
        <ele>2421.9</ele>
        <time>2016-05-06T11:42:33Z</time>
      </trkpt>
      <trkpt lat="45.67697" lon="6.86686">
        <ele>2421.9</ele>
        <time>2016-05-06T11:42:35Z</time>
      </trkpt>
      <trkpt lat="45.67698" lon="6.86685">
        <ele>2421.9</ele>
        <time>2016-05-06T11:42:37Z</time>
      </trkpt>
      <trkpt lat="45.67699" lon="6.86684">
        <ele>2421.8</ele>
        <time>2016-05-06T11:42:39Z</time>
      </trkpt>
      <trkpt lat="45.67699" lon="6.86685">
        <ele>2421.6</ele>
        <time>2016-05-06T11:42:41Z</time>
      </trkpt>
      <trkpt lat="45.67699" lon="6.86684">
        <ele>2421.1</ele>
        <time>2016-05-06T11:42:43Z</time>
      </trkpt>
      <trkpt lat="45.67699" lon="6.86685">
        <ele>2420.9</ele>
        <time>2016-05-06T11:42:45Z</time>
      </trkpt>
      <trkpt lat="45.67699" lon="6.86684">
        <ele>2420.8</ele>
        <time>2016-05-06T11:42:47Z</time>
      </trkpt>
      <trkpt lat="45.67699" lon="6.86683">
        <ele>2420.4</ele>
        <time>2016-05-06T11:42:49Z</time>
      </trkpt>
      <trkpt lat="45.677" lon="6.86683">
        <ele>2420.7</ele>
        <time>2016-05-06T11:42:51Z</time>
      </trkpt>
      <trkpt lat="45.677" lon="6.86683">
        <ele>2420.5</ele>
        <time>2016-05-06T11:42:53Z</time>
      </trkpt>
      <trkpt lat="45.677" lon="6.86682">
        <ele>2420.7</ele>
        <time>2016-05-06T11:42:55Z</time>
      </trkpt>
      <trkpt lat="45.677" lon="6.86683">
        <ele>2421.1</ele>
        <time>2016-05-06T11:42:57Z</time>
      </trkpt>
      <trkpt lat="45.677" lon="6.86682">
        <ele>2421.2</ele>
        <time>2016-05-06T11:42:59Z</time>
      </trkpt>
      <trkpt lat="45.677" lon="6.86681">
        <ele>2422</ele>
        <time>2016-05-06T11:43:01Z</time>
      </trkpt>
      <trkpt lat="45.677" lon="6.86681">
        <ele>2422.3</ele>
        <time>2016-05-06T11:43:03Z</time>
      </trkpt>
      <trkpt lat="45.677" lon="6.86681">
        <ele>2422.6</ele>
        <time>2016-05-06T11:43:05Z</time>
      </trkpt>
      <trkpt lat="45.677" lon="6.86681">
        <ele>2423</ele>
        <time>2016-05-06T11:43:07Z</time>
      </trkpt>
      <trkpt lat="45.67699" lon="6.86682">
        <ele>2422.9</ele>
        <time>2016-05-06T11:43:09Z</time>
      </trkpt>
      <trkpt lat="45.67699" lon="6.86683">
        <ele>2423</ele>
        <time>2016-05-06T11:43:11Z</time>
      </trkpt>
      <trkpt lat="45.67699" lon="6.86683">
        <ele>2421.4</ele>
        <time>2016-05-06T11:43:13Z</time>
      </trkpt>
      <trkpt lat="45.67699" lon="6.86684">
        <ele>2422.4</ele>
        <time>2016-05-06T11:43:15Z</time>
      </trkpt>
      <trkpt lat="45.67699" lon="6.86684">
        <ele>2422.9</ele>
        <time>2016-05-06T11:43:17Z</time>
      </trkpt>
      <trkpt lat="45.67699" lon="6.86684">
        <ele>2421.6</ele>
        <time>2016-05-06T11:43:19Z</time>
      </trkpt>
      <trkpt lat="45.67699" lon="6.86684">
        <ele>2422.3</ele>
        <time>2016-05-06T11:43:21Z</time>
      </trkpt>
      <trkpt lat="45.67699" lon="6.86683">
        <ele>2422.3</ele>
        <time>2016-05-06T11:43:23Z</time>
      </trkpt>
      <trkpt lat="45.67699" lon="6.86683">
        <ele>2422.4</ele>
        <time>2016-05-06T11:43:25Z</time>
      </trkpt>
      <trkpt lat="45.67699" lon="6.86683">
        <ele>2422.7</ele>
        <time>2016-05-06T11:43:27Z</time>
      </trkpt>
      <trkpt lat="45.677" lon="6.86683">
        <ele>2423.4</ele>
        <time>2016-05-06T11:43:29Z</time>
      </trkpt>
      <trkpt lat="45.677" lon="6.86684">
        <ele>2423.8</ele>
        <time>2016-05-06T11:43:31Z</time>
      </trkpt>
      <trkpt lat="45.67701" lon="6.86685">
        <ele>2423.9</ele>
        <time>2016-05-06T11:43:33Z</time>
      </trkpt>
      <trkpt lat="45.67701" lon="6.86685">
        <ele>2423.6</ele>
        <time>2016-05-06T11:43:35Z</time>
      </trkpt>
      <trkpt lat="45.67701" lon="6.86686">
        <ele>2423.9</ele>
        <time>2016-05-06T11:43:37Z</time>
      </trkpt>
      <trkpt lat="45.67701" lon="6.86685">
        <ele>2423.9</ele>
        <time>2016-05-06T11:43:39Z</time>
      </trkpt>
      <trkpt lat="45.67701" lon="6.86685">
        <ele>2423.9</ele>
        <time>2016-05-06T11:43:41Z</time>
      </trkpt>
      <trkpt lat="45.67701" lon="6.86685">
        <ele>2423.3</ele>
        <time>2016-05-06T11:43:43Z</time>
      </trkpt>
      <trkpt lat="45.677" lon="6.86684">
        <ele>2423.2</ele>
        <time>2016-05-06T11:43:45Z</time>
      </trkpt>
      <trkpt lat="45.677" lon="6.86684">
        <ele>2423.1</ele>
        <time>2016-05-06T11:43:47Z</time>
      </trkpt>
      <trkpt lat="45.677" lon="6.86684">
        <ele>2423.2</ele>
        <time>2016-05-06T11:43:49Z</time>
      </trkpt>
      <trkpt lat="45.677" lon="6.86684">
        <ele>2423.1</ele>
        <time>2016-05-06T11:43:51Z</time>
      </trkpt>
      <trkpt lat="45.677" lon="6.86685">
        <ele>2423.1</ele>
        <time>2016-05-06T11:43:53Z</time>
      </trkpt>
      <trkpt lat="45.677" lon="6.86685">
        <ele>2422.6</ele>
        <time>2016-05-06T11:43:55Z</time>
      </trkpt>
      <trkpt lat="45.67699" lon="6.86684">
        <ele>2422.4</ele>
        <time>2016-05-06T11:43:57Z</time>
      </trkpt>
      <trkpt lat="45.677" lon="6.86684">
        <ele>2422.2</ele>
        <time>2016-05-06T11:43:59Z</time>
      </trkpt>
      <trkpt lat="45.677" lon="6.86684">
        <ele>2422.3</ele>
        <time>2016-05-06T11:44:01Z</time>
      </trkpt>
      <trkpt lat="45.67699" lon="6.86684">
        <ele>2422.5</ele>
        <time>2016-05-06T11:44:03Z</time>
      </trkpt>
      <trkpt lat="45.67698" lon="6.86683">
        <ele>2422.9</ele>
        <time>2016-05-06T11:44:05Z</time>
      </trkpt>
      <trkpt lat="45.67697" lon="6.86683">
        <ele>2423.1</ele>
        <time>2016-05-06T11:44:07Z</time>
      </trkpt>
      <trkpt lat="45.67695" lon="6.86684">
        <ele>2423</ele>
        <time>2016-05-06T11:44:09Z</time>
      </trkpt>
      <trkpt lat="45.67694" lon="6.86685">
        <ele>2422.8</ele>
        <time>2016-05-06T11:44:11Z</time>
      </trkpt>
      <trkpt lat="45.67695" lon="6.86687">
        <ele>2423.4</ele>
        <time>2016-05-06T11:44:13Z</time>
      </trkpt>
      <trkpt lat="45.67696" lon="6.86687">
        <ele>2422.8</ele>
        <time>2016-05-06T11:44:15Z</time>
      </trkpt>
      <trkpt lat="45.67695" lon="6.86687">
        <ele>2423.1</ele>
        <time>2016-05-06T11:44:17Z</time>
      </trkpt>
      <trkpt lat="45.67695" lon="6.86687">
        <ele>2423.5</ele>
        <time>2016-05-06T11:44:19Z</time>
      </trkpt>
      <trkpt lat="45.67695" lon="6.86687">
        <ele>2423.7</ele>
        <time>2016-05-06T11:44:21Z</time>
      </trkpt>
      <trkpt lat="45.67696" lon="6.86686">
        <ele>2423.8</ele>
        <time>2016-05-06T11:44:23Z</time>
      </trkpt>
      <trkpt lat="45.67696" lon="6.86686">
        <ele>2423.9</ele>
        <time>2016-05-06T11:44:25Z</time>
      </trkpt>
      <trkpt lat="45.67696" lon="6.86686">
        <ele>2423.8</ele>
        <time>2016-05-06T11:44:27Z</time>
      </trkpt>
      <trkpt lat="45.67696" lon="6.86687">
        <ele>2424.1</ele>
        <time>2016-05-06T11:44:29Z</time>
      </trkpt>
      <trkpt lat="45.67696" lon="6.86687">
        <ele>2424.1</ele>
        <time>2016-05-06T11:44:31Z</time>
      </trkpt>
      <trkpt lat="45.67696" lon="6.86686">
        <ele>2424.1</ele>
        <time>2016-05-06T11:44:33Z</time>
      </trkpt>
      <trkpt lat="45.67696" lon="6.86686">
        <ele>2424.1</ele>
        <time>2016-05-06T11:44:35Z</time>
      </trkpt>
      <trkpt lat="45.67696" lon="6.86686">
        <ele>2424.1</ele>
        <time>2016-05-06T11:44:37Z</time>
      </trkpt>
      <trkpt lat="45.67697" lon="6.86686">
        <ele>2424</ele>
        <time>2016-05-06T11:44:39Z</time>
      </trkpt>
      <trkpt lat="45.67698" lon="6.86687">
        <ele>2424</ele>
        <time>2016-05-06T11:44:41Z</time>
      </trkpt>
      <trkpt lat="45.67699" lon="6.86688">
        <ele>2423.9</ele>
        <time>2016-05-06T11:44:43Z</time>
      </trkpt>
      <trkpt lat="45.67699" lon="6.86688">
        <ele>2423.7</ele>
        <time>2016-05-06T11:44:45Z</time>
      </trkpt>
      <trkpt lat="45.67699" lon="6.86688">
        <ele>2423.7</ele>
        <time>2016-05-06T11:44:47Z</time>
      </trkpt>
      <trkpt lat="45.67699" lon="6.86688">
        <ele>2423.6</ele>
        <time>2016-05-06T11:44:49Z</time>
      </trkpt>
      <trkpt lat="45.677" lon="6.86687">
        <ele>2423.6</ele>
        <time>2016-05-06T11:44:51Z</time>
      </trkpt>
      <trkpt lat="45.677" lon="6.86687">
        <ele>2423.7</ele>
        <time>2016-05-06T11:44:53Z</time>
      </trkpt>
      <trkpt lat="45.677" lon="6.86686">
        <ele>2423.7</ele>
        <time>2016-05-06T11:44:55Z</time>
      </trkpt>
      <trkpt lat="45.677" lon="6.86686">
        <ele>2423.7</ele>
        <time>2016-05-06T11:44:57Z</time>
      </trkpt>
      <trkpt lat="45.67699" lon="6.86686">
        <ele>2423.8</ele>
        <time>2016-05-06T11:44:59Z</time>
      </trkpt>
      <trkpt lat="45.67699" lon="6.86686">
        <ele>2423.8</ele>
        <time>2016-05-06T11:45:01Z</time>
      </trkpt>
      <trkpt lat="45.677" lon="6.86686">
        <ele>2424</ele>
        <time>2016-05-06T11:45:03Z</time>
      </trkpt>
      <trkpt lat="45.67701" lon="6.86686">
        <ele>2424.1</ele>
        <time>2016-05-06T11:45:05Z</time>
      </trkpt>
      <trkpt lat="45.67701" lon="6.86686">
        <ele>2424.3</ele>
        <time>2016-05-06T11:45:07Z</time>
      </trkpt>
      <trkpt lat="45.67701" lon="6.86686">
        <ele>2424.5</ele>
        <time>2016-05-06T11:45:09Z</time>
      </trkpt>
      <trkpt lat="45.67701" lon="6.86685">
        <ele>2424.4</ele>
        <time>2016-05-06T11:45:11Z</time>
      </trkpt>
      <trkpt lat="45.67701" lon="6.86684">
        <ele>2424.4</ele>
        <time>2016-05-06T11:45:13Z</time>
      </trkpt>
      <trkpt lat="45.67701" lon="6.86685">
        <ele>2424.3</ele>
        <time>2016-05-06T11:45:15Z</time>
      </trkpt>
      <trkpt lat="45.677" lon="6.86686">
        <ele>2424.2</ele>
        <time>2016-05-06T11:45:17Z</time>
      </trkpt>
      <trkpt lat="45.67699" lon="6.86686">
        <ele>2424.1</ele>
        <time>2016-05-06T11:45:19Z</time>
      </trkpt>
      <trkpt lat="45.67699" lon="6.86687">
        <ele>2424.2</ele>
        <time>2016-05-06T11:45:21Z</time>
      </trkpt>
      <trkpt lat="45.67698" lon="6.86687">
        <ele>2424.2</ele>
        <time>2016-05-06T11:45:23Z</time>
      </trkpt>
      <trkpt lat="45.67699" lon="6.86687">
        <ele>2424.3</ele>
        <time>2016-05-06T11:45:25Z</time>
      </trkpt>
      <trkpt lat="45.677" lon="6.86687">
        <ele>2424</ele>
        <time>2016-05-06T11:45:27Z</time>
      </trkpt>
      <trkpt lat="45.677" lon="6.86686">
        <ele>2423.5</ele>
        <time>2016-05-06T11:45:29Z</time>
      </trkpt>
      <trkpt lat="45.677" lon="6.86686">
        <ele>2423.4</ele>
        <time>2016-05-06T11:45:31Z</time>
      </trkpt>
      <trkpt lat="45.677" lon="6.86686">
        <ele>2423.4</ele>
        <time>2016-05-06T11:45:33Z</time>
      </trkpt>
      <trkpt lat="45.677" lon="6.86687">
        <ele>2422.9</ele>
        <time>2016-05-06T11:45:35Z</time>
      </trkpt>
      <trkpt lat="45.677" lon="6.86687">
        <ele>2422.5</ele>
        <time>2016-05-06T11:45:37Z</time>
      </trkpt>
      <trkpt lat="45.677" lon="6.86686">
        <ele>2422.8</ele>
        <time>2016-05-06T11:45:39Z</time>
      </trkpt>
      <trkpt lat="45.677" lon="6.86687">
        <ele>2422.7</ele>
        <time>2016-05-06T11:45:41Z</time>
      </trkpt>
      <trkpt lat="45.677" lon="6.86687">
        <ele>2422.4</ele>
        <time>2016-05-06T11:45:43Z</time>
      </trkpt>
      <trkpt lat="45.677" lon="6.86687">
        <ele>2422.3</ele>
        <time>2016-05-06T11:45:45Z</time>
      </trkpt>
      <trkpt lat="45.677" lon="6.86687">
        <ele>2422.2</ele>
        <time>2016-05-06T11:45:47Z</time>
      </trkpt>
      <trkpt lat="45.677" lon="6.86687">
        <ele>2422.6</ele>
        <time>2016-05-06T11:45:49Z</time>
      </trkpt>
      <trkpt lat="45.677" lon="6.86687">
        <ele>2423</ele>
        <time>2016-05-06T11:45:51Z</time>
      </trkpt>
      <trkpt lat="45.67699" lon="6.86688">
        <ele>2423.1</ele>
        <time>2016-05-06T11:45:53Z</time>
      </trkpt>
      <trkpt lat="45.67699" lon="6.86689">
        <ele>2423</ele>
        <time>2016-05-06T11:45:55Z</time>
      </trkpt>
      <trkpt lat="45.67699" lon="6.86689">
        <ele>2422.8</ele>
        <time>2016-05-06T11:45:57Z</time>
      </trkpt>
      <trkpt lat="45.67699" lon="6.86689">
        <ele>2422.6</ele>
        <time>2016-05-06T11:45:59Z</time>
      </trkpt>
      <trkpt lat="45.67699" lon="6.86689">
        <ele>2422.5</ele>
        <time>2016-05-06T11:46:01Z</time>
      </trkpt>
      <trkpt lat="45.67699" lon="6.8669">
        <ele>2422.4</ele>
        <time>2016-05-06T11:46:03Z</time>
      </trkpt>
      <trkpt lat="45.67699" lon="6.8669">
        <ele>2422.3</ele>
        <time>2016-05-06T11:46:05Z</time>
      </trkpt>
      <trkpt lat="45.67699" lon="6.86691">
        <ele>2422.4</ele>
        <time>2016-05-06T11:46:07Z</time>
      </trkpt>
      <trkpt lat="45.67699" lon="6.86691">
        <ele>2422.4</ele>
        <time>2016-05-06T11:46:09Z</time>
      </trkpt>
      <trkpt lat="45.67699" lon="6.86691">
        <ele>2422.5</ele>
        <time>2016-05-06T11:46:11Z</time>
      </trkpt>
      <trkpt lat="45.67699" lon="6.86692">
        <ele>2422.5</ele>
        <time>2016-05-06T11:46:13Z</time>
      </trkpt>
      <trkpt lat="45.67699" lon="6.86692">
        <ele>2422.4</ele>
        <time>2016-05-06T11:46:15Z</time>
      </trkpt>
      <trkpt lat="45.67699" lon="6.86692">
        <ele>2422.3</ele>
        <time>2016-05-06T11:46:17Z</time>
      </trkpt>
      <trkpt lat="45.677" lon="6.86692">
        <ele>2422.4</ele>
        <time>2016-05-06T11:46:19Z</time>
      </trkpt>
      <trkpt lat="45.677" lon="6.86692">
        <ele>2422.5</ele>
        <time>2016-05-06T11:46:21Z</time>
      </trkpt>
      <trkpt lat="45.67699" lon="6.86693">
        <ele>2422.4</ele>
        <time>2016-05-06T11:46:23Z</time>
      </trkpt>
      <trkpt lat="45.677" lon="6.86693">
        <ele>2422.4</ele>
        <time>2016-05-06T11:46:25Z</time>
      </trkpt>
      <trkpt lat="45.677" lon="6.86693">
        <ele>2422.5</ele>
        <time>2016-05-06T11:46:27Z</time>
      </trkpt>
      <trkpt lat="45.677" lon="6.86693">
        <ele>2422.4</ele>
        <time>2016-05-06T11:46:29Z</time>
      </trkpt>
      <trkpt lat="45.677" lon="6.86693">
        <ele>2422.6</ele>
        <time>2016-05-06T11:46:31Z</time>
      </trkpt>
      <trkpt lat="45.677" lon="6.86693">
        <ele>2422.7</ele>
        <time>2016-05-06T11:46:33Z</time>
      </trkpt>
      <trkpt lat="45.677" lon="6.86693">
        <ele>2422.6</ele>
        <time>2016-05-06T11:46:35Z</time>
      </trkpt>
      <trkpt lat="45.677" lon="6.86694">
        <ele>2422.5</ele>
        <time>2016-05-06T11:46:37Z</time>
      </trkpt>
      <trkpt lat="45.677" lon="6.86694">
        <ele>2422.6</ele>
        <time>2016-05-06T11:46:39Z</time>
      </trkpt>
      <trkpt lat="45.677" lon="6.86695">
        <ele>2422.6</ele>
        <time>2016-05-06T11:46:41Z</time>
      </trkpt>
      <trkpt lat="45.67699" lon="6.86694">
        <ele>2422.1</ele>
        <time>2016-05-06T11:46:43Z</time>
      </trkpt>
      <trkpt lat="45.67699" lon="6.86693">
        <ele>2422.5</ele>
        <time>2016-05-06T11:46:45Z</time>
      </trkpt>
      <trkpt lat="45.67699" lon="6.86693">
        <ele>2423</ele>
        <time>2016-05-06T11:46:47Z</time>
      </trkpt>
      <trkpt lat="45.67699" lon="6.86693">
        <ele>2423</ele>
        <time>2016-05-06T11:46:49Z</time>
      </trkpt>
      <trkpt lat="45.67699" lon="6.86693">
        <ele>2423.1</ele>
        <time>2016-05-06T11:46:51Z</time>
      </trkpt>
      <trkpt lat="45.67699" lon="6.86693">
        <ele>2423.1</ele>
        <time>2016-05-06T11:46:53Z</time>
      </trkpt>
      <trkpt lat="45.67699" lon="6.86693">
        <ele>2422.9</ele>
        <time>2016-05-06T11:46:55Z</time>
      </trkpt>
      <trkpt lat="45.67699" lon="6.86693">
        <ele>2422.8</ele>
        <time>2016-05-06T11:46:57Z</time>
      </trkpt>
      <trkpt lat="45.67698" lon="6.86694">
        <ele>2422.8</ele>
        <time>2016-05-06T11:46:59Z</time>
      </trkpt>
      <trkpt lat="45.67698" lon="6.86695">
        <ele>2422.9</ele>
        <time>2016-05-06T11:47:01Z</time>
      </trkpt>
      <trkpt lat="45.67698" lon="6.86696">
        <ele>2423</ele>
        <time>2016-05-06T11:47:03Z</time>
      </trkpt>
      <trkpt lat="45.67698" lon="6.86696">
        <ele>2423.1</ele>
        <time>2016-05-06T11:47:05Z</time>
      </trkpt>
      <trkpt lat="45.67698" lon="6.86696">
        <ele>2423.1</ele>
        <time>2016-05-06T11:47:07Z</time>
      </trkpt>
      <trkpt lat="45.67698" lon="6.86696">
        <ele>2423</ele>
        <time>2016-05-06T11:47:09Z</time>
      </trkpt>
      <trkpt lat="45.67698" lon="6.86696">
        <ele>2422.9</ele>
        <time>2016-05-06T11:47:11Z</time>
      </trkpt>
      <trkpt lat="45.67698" lon="6.86696">
        <ele>2422.8</ele>
        <time>2016-05-06T11:47:13Z</time>
      </trkpt>
      <trkpt lat="45.67698" lon="6.86696">
        <ele>2422.6</ele>
        <time>2016-05-06T11:47:15Z</time>
      </trkpt>
      <trkpt lat="45.67698" lon="6.86695">
        <ele>2422.3</ele>
        <time>2016-05-06T11:47:17Z</time>
      </trkpt>
      <trkpt lat="45.67698" lon="6.86695">
        <ele>2422.6</ele>
        <time>2016-05-06T11:47:19Z</time>
      </trkpt>
      <trkpt lat="45.67698" lon="6.86694">
        <ele>2422.7</ele>
        <time>2016-05-06T11:47:21Z</time>
      </trkpt>
      <trkpt lat="45.67698" lon="6.86693">
        <ele>2423.2</ele>
        <time>2016-05-06T11:47:23Z</time>
      </trkpt>
      <trkpt lat="45.67698" lon="6.86692">
        <ele>2423.3</ele>
        <time>2016-05-06T11:47:25Z</time>
      </trkpt>
      <trkpt lat="45.67698" lon="6.86691">
        <ele>2423.1</ele>
        <time>2016-05-06T11:47:27Z</time>
      </trkpt>
      <trkpt lat="45.67698" lon="6.8669">
        <ele>2423.4</ele>
        <time>2016-05-06T11:47:29Z</time>
      </trkpt>
      <trkpt lat="45.67698" lon="6.86689">
        <ele>2423.3</ele>
        <time>2016-05-06T11:47:31Z</time>
      </trkpt>
      <trkpt lat="45.67697" lon="6.86688">
        <ele>2423.5</ele>
        <time>2016-05-06T11:47:33Z</time>
      </trkpt>
      <trkpt lat="45.67697" lon="6.8669">
        <ele>2423.3</ele>
        <time>2016-05-06T11:47:35Z</time>
      </trkpt>
      <trkpt lat="45.67697" lon="6.86689">
        <ele>2423.5</ele>
        <time>2016-05-06T11:47:37Z</time>
      </trkpt>
      <trkpt lat="45.67697" lon="6.86688">
        <ele>2423.9</ele>
        <time>2016-05-06T11:47:39Z</time>
      </trkpt>
      <trkpt lat="45.67696" lon="6.86687">
        <ele>2423.8</ele>
        <time>2016-05-06T11:47:41Z</time>
      </trkpt>
      <trkpt lat="45.67697" lon="6.86687">
        <ele>2423.5</ele>
        <time>2016-05-06T11:47:43Z</time>
      </trkpt>
      <trkpt lat="45.67698" lon="6.86686">
        <ele>2423.4</ele>
        <time>2016-05-06T11:47:45Z</time>
      </trkpt>
      <trkpt lat="45.67698" lon="6.86686">
        <ele>2423.8</ele>
        <time>2016-05-06T11:47:47Z</time>
      </trkpt>
      <trkpt lat="45.67698" lon="6.86685">
        <ele>2424.1</ele>
        <time>2016-05-06T11:47:49Z</time>
      </trkpt>
      <trkpt lat="45.67699" lon="6.86684">
        <ele>2423.8</ele>
        <time>2016-05-06T11:47:51Z</time>
      </trkpt>
      <trkpt lat="45.67699" lon="6.86684">
        <ele>2422.6</ele>
        <time>2016-05-06T11:47:53Z</time>
      </trkpt>
      <trkpt lat="45.677" lon="6.86685">
        <ele>2422.6</ele>
        <time>2016-05-06T11:47:55Z</time>
      </trkpt>
      <trkpt lat="45.677" lon="6.86685">
        <ele>2422.5</ele>
        <time>2016-05-06T11:47:57Z</time>
      </trkpt>
      <trkpt lat="45.67701" lon="6.86685">
        <ele>2422.4</ele>
        <time>2016-05-06T11:47:59Z</time>
      </trkpt>
      <trkpt lat="45.67701" lon="6.86684">
        <ele>2422.6</ele>
        <time>2016-05-06T11:48:01Z</time>
      </trkpt>
      <trkpt lat="45.67701" lon="6.86683">
        <ele>2422.6</ele>
        <time>2016-05-06T11:48:03Z</time>
      </trkpt>
      <trkpt lat="45.67702" lon="6.86683">
        <ele>2422.4</ele>
        <time>2016-05-06T11:48:05Z</time>
      </trkpt>
      <trkpt lat="45.67701" lon="6.86683">
        <ele>2422.8</ele>
        <time>2016-05-06T11:48:07Z</time>
      </trkpt>
      <trkpt lat="45.67699" lon="6.86685">
        <ele>2422.4</ele>
        <time>2016-05-06T11:48:09Z</time>
      </trkpt>
      <trkpt lat="45.67698" lon="6.86688">
        <ele>2421.9</ele>
        <time>2016-05-06T11:48:11Z</time>
      </trkpt>
      <trkpt lat="45.67698" lon="6.86688">
        <ele>2422.2</ele>
        <time>2016-05-06T11:48:13Z</time>
      </trkpt>
      <trkpt lat="45.67698" lon="6.86688">
        <ele>2423</ele>
        <time>2016-05-06T11:48:15Z</time>
      </trkpt>
      <trkpt lat="45.67698" lon="6.86688">
        <ele>2423.3</ele>
        <time>2016-05-06T11:48:17Z</time>
      </trkpt>
      <trkpt lat="45.67698" lon="6.86687">
        <ele>2423.4</ele>
        <time>2016-05-06T11:48:19Z</time>
      </trkpt>
      <trkpt lat="45.67697" lon="6.86685">
        <ele>2422.9</ele>
        <time>2016-05-06T11:48:21Z</time>
      </trkpt>
      <trkpt lat="45.67698" lon="6.86685">
        <ele>2423.4</ele>
        <time>2016-05-06T11:48:23Z</time>
      </trkpt>
      <trkpt lat="45.67698" lon="6.86685">
        <ele>2423.2</ele>
        <time>2016-05-06T11:48:25Z</time>
      </trkpt>
      <trkpt lat="45.67699" lon="6.86684">
        <ele>2423.6</ele>
        <time>2016-05-06T11:48:27Z</time>
      </trkpt>
      <trkpt lat="45.67699" lon="6.86684">
        <ele>2423.8</ele>
        <time>2016-05-06T11:48:29Z</time>
      </trkpt>
      <trkpt lat="45.67699" lon="6.86684">
        <ele>2423.7</ele>
        <time>2016-05-06T11:48:31Z</time>
      </trkpt>
      <trkpt lat="45.67698" lon="6.86684">
        <ele>2423.6</ele>
        <time>2016-05-06T11:48:33Z</time>
      </trkpt>
      <trkpt lat="45.67698" lon="6.86684">
        <ele>2423.5</ele>
        <time>2016-05-06T11:48:35Z</time>
      </trkpt>
      <trkpt lat="45.67699" lon="6.86682">
        <ele>2423.4</ele>
        <time>2016-05-06T11:48:37Z</time>
      </trkpt>
      <trkpt lat="45.67699" lon="6.86682">
        <ele>2423.4</ele>
        <time>2016-05-06T11:48:39Z</time>
      </trkpt>
      <trkpt lat="45.67699" lon="6.86683">
        <ele>2422.9</ele>
        <time>2016-05-06T11:48:41Z</time>
      </trkpt>
      <trkpt lat="45.67699" lon="6.86684">
        <ele>2422.5</ele>
        <time>2016-05-06T11:48:43Z</time>
      </trkpt>
      <trkpt lat="45.67699" lon="6.86685">
        <ele>2422.6</ele>
        <time>2016-05-06T11:48:45Z</time>
      </trkpt>
      <trkpt lat="45.67699" lon="6.86685">
        <ele>2422.6</ele>
        <time>2016-05-06T11:48:47Z</time>
      </trkpt>
      <trkpt lat="45.67699" lon="6.86686">
        <ele>2422.3</ele>
        <time>2016-05-06T11:48:49Z</time>
      </trkpt>
      <trkpt lat="45.67698" lon="6.86687">
        <ele>2422.5</ele>
        <time>2016-05-06T11:48:51Z</time>
      </trkpt>
      <trkpt lat="45.67697" lon="6.86687">
        <ele>2422.7</ele>
        <time>2016-05-06T11:48:53Z</time>
      </trkpt>
      <trkpt lat="45.67698" lon="6.86687">
        <ele>2422.8</ele>
        <time>2016-05-06T11:48:55Z</time>
      </trkpt>
      <trkpt lat="45.67697" lon="6.86686">
        <ele>2422.9</ele>
        <time>2016-05-06T11:48:57Z</time>
      </trkpt>
      <trkpt lat="45.67697" lon="6.86686">
        <ele>2423</ele>
        <time>2016-05-06T11:48:59Z</time>
      </trkpt>
      <trkpt lat="45.67697" lon="6.86687">
        <ele>2423.4</ele>
        <time>2016-05-06T11:49:01Z</time>
      </trkpt>
      <trkpt lat="45.67697" lon="6.86687">
        <ele>2423.5</ele>
        <time>2016-05-06T11:49:03Z</time>
      </trkpt>
      <trkpt lat="45.67697" lon="6.86687">
        <ele>2423.9</ele>
        <time>2016-05-06T11:49:05Z</time>
      </trkpt>
      <trkpt lat="45.67697" lon="6.86688">
        <ele>2424</ele>
        <time>2016-05-06T11:49:07Z</time>
      </trkpt>
      <trkpt lat="45.67697" lon="6.86688">
        <ele>2424</ele>
        <time>2016-05-06T11:49:09Z</time>
      </trkpt>
      <trkpt lat="45.67697" lon="6.86688">
        <ele>2423.7</ele>
        <time>2016-05-06T11:49:11Z</time>
      </trkpt>
      <trkpt lat="45.67696" lon="6.86688">
        <ele>2422.9</ele>
        <time>2016-05-06T11:49:13Z</time>
      </trkpt>
      <trkpt lat="45.67697" lon="6.86689">
        <ele>2423.5</ele>
        <time>2016-05-06T11:49:15Z</time>
      </trkpt>
      <trkpt lat="45.67697" lon="6.8669">
        <ele>2423.2</ele>
        <time>2016-05-06T11:49:17Z</time>
      </trkpt>
      <trkpt lat="45.67697" lon="6.86691">
        <ele>2422.8</ele>
        <time>2016-05-06T11:49:19Z</time>
      </trkpt>
      <trkpt lat="45.67697" lon="6.86691">
        <ele>2422.6</ele>
        <time>2016-05-06T11:49:21Z</time>
      </trkpt>
      <trkpt lat="45.67697" lon="6.86693">
        <ele>2423.2</ele>
        <time>2016-05-06T11:49:23Z</time>
      </trkpt>
      <trkpt lat="45.67698" lon="6.86701">
        <ele>2422.8</ele>
        <time>2016-05-06T11:49:25Z</time>
      </trkpt>
      <trkpt lat="45.67699" lon="6.86716">
        <ele>2421.5</ele>
        <time>2016-05-06T11:49:27Z</time>
      </trkpt>
      <trkpt lat="45.67698" lon="6.86728">
        <ele>2420.7</ele>
        <time>2016-05-06T11:49:29Z</time>
      </trkpt>
      <trkpt lat="45.67695" lon="6.86743">
        <ele>2419.2</ele>
        <time>2016-05-06T11:49:31Z</time>
      </trkpt>
      <trkpt lat="45.67685" lon="6.86755">
        <ele>2416.4</ele>
        <time>2016-05-06T11:49:33Z</time>
      </trkpt>
      <trkpt lat="45.67674" lon="6.86771">
        <ele>2412.1</ele>
        <time>2016-05-06T11:49:35Z</time>
      </trkpt>
      <trkpt lat="45.67661" lon="6.86792">
        <ele>2405.7</ele>
        <time>2016-05-06T11:49:37Z</time>
      </trkpt>
      <trkpt lat="45.67651" lon="6.86815">
        <ele>2399.2</ele>
        <time>2016-05-06T11:49:39Z</time>
      </trkpt>
      <trkpt lat="45.67636" lon="6.86834">
        <ele>2393.3</ele>
        <time>2016-05-06T11:49:41Z</time>
      </trkpt>
      <trkpt lat="45.67619" lon="6.86848">
        <ele>2386.6</ele>
        <time>2016-05-06T11:49:43Z</time>
      </trkpt>
      <trkpt lat="45.67603" lon="6.86861">
        <ele>2379.7</ele>
        <time>2016-05-06T11:49:45Z</time>
      </trkpt>
      <trkpt lat="45.67585" lon="6.86877">
        <ele>2372.7</ele>
        <time>2016-05-06T11:49:47Z</time>
      </trkpt>
      <trkpt lat="45.6757" lon="6.86899">
        <ele>2364.4</ele>
        <time>2016-05-06T11:49:49Z</time>
      </trkpt>
      <trkpt lat="45.67558" lon="6.86922">
        <ele>2357.3</ele>
        <time>2016-05-06T11:49:51Z</time>
      </trkpt>
      <trkpt lat="45.67553" lon="6.86951">
        <ele>2349.7</ele>
        <time>2016-05-06T11:49:53Z</time>
      </trkpt>
      <trkpt lat="45.67543" lon="6.86977">
        <ele>2342.8</ele>
        <time>2016-05-06T11:49:55Z</time>
      </trkpt>
      <trkpt lat="45.6754" lon="6.87">
        <ele>2338.1</ele>
        <time>2016-05-06T11:49:57Z</time>
      </trkpt>
      <trkpt lat="45.67542" lon="6.87016">
        <ele>2331.9</ele>
        <time>2016-05-06T11:49:59Z</time>
      </trkpt>
      <trkpt lat="45.67542" lon="6.87033">
        <ele>2328</ele>
        <time>2016-05-06T11:50:01Z</time>
      </trkpt>
      <trkpt lat="45.6754" lon="6.87052">
        <ele>2325.3</ele>
        <time>2016-05-06T11:50:03Z</time>
      </trkpt>
      <trkpt lat="45.67541" lon="6.87072">
        <ele>2323.8</ele>
        <time>2016-05-06T11:50:05Z</time>
      </trkpt>
      <trkpt lat="45.67545" lon="6.87093">
        <ele>2319.1</ele>
        <time>2016-05-06T11:50:07Z</time>
      </trkpt>
      <trkpt lat="45.6755" lon="6.87116">
        <ele>2314.7</ele>
        <time>2016-05-06T11:50:09Z</time>
      </trkpt>
      <trkpt lat="45.67547" lon="6.87134">
        <ele>2310.3</ele>
        <time>2016-05-06T11:50:11Z</time>
      </trkpt>
      <trkpt lat="45.67542" lon="6.87152">
        <ele>2305</ele>
        <time>2016-05-06T11:50:13Z</time>
      </trkpt>
      <trkpt lat="45.67534" lon="6.87167">
        <ele>2300</ele>
        <time>2016-05-06T11:50:15Z</time>
      </trkpt>
      <trkpt lat="45.67526" lon="6.87182">
        <ele>2293.2</ele>
        <time>2016-05-06T11:50:17Z</time>
      </trkpt>
      <trkpt lat="45.67521" lon="6.87198">
        <ele>2287.2</ele>
        <time>2016-05-06T11:50:19Z</time>
      </trkpt>
      <trkpt lat="45.67519" lon="6.87216">
        <ele>2280.2</ele>
        <time>2016-05-06T11:50:21Z</time>
      </trkpt>
      <trkpt lat="45.67509" lon="6.8723">
        <ele>2273.7</ele>
        <time>2016-05-06T11:50:23Z</time>
      </trkpt>
      <trkpt lat="45.6751" lon="6.87255">
        <ele>2266.1</ele>
        <time>2016-05-06T11:50:25Z</time>
      </trkpt>
      <trkpt lat="45.67517" lon="6.87283">
        <ele>2256.5</ele>
        <time>2016-05-06T11:50:27Z</time>
      </trkpt>
      <trkpt lat="45.67524" lon="6.87312">
        <ele>2247.4</ele>
        <time>2016-05-06T11:50:29Z</time>
      </trkpt>
      <trkpt lat="45.67515" lon="6.87336">
        <ele>2239.3</ele>
        <time>2016-05-06T11:50:31Z</time>
      </trkpt>
      <trkpt lat="45.67506" lon="6.87361">
        <ele>2232.5</ele>
        <time>2016-05-06T11:50:33Z</time>
      </trkpt>
      <trkpt lat="45.6749" lon="6.87375">
        <ele>2225.2</ele>
        <time>2016-05-06T11:50:35Z</time>
      </trkpt>
      <trkpt lat="45.67471" lon="6.87386">
        <ele>2218.3</ele>
        <time>2016-05-06T11:50:37Z</time>
      </trkpt>
      <trkpt lat="45.67452" lon="6.87389">
        <ele>2211.2</ele>
        <time>2016-05-06T11:50:39Z</time>
      </trkpt>
      <trkpt lat="45.67441" lon="6.8739">
        <ele>2204.7</ele>
        <time>2016-05-06T11:50:41Z</time>
      </trkpt>
      <trkpt lat="45.67441" lon="6.87406">
        <ele>2198.6</ele>
        <time>2016-05-06T11:50:43Z</time>
      </trkpt>
      <trkpt lat="45.67446" lon="6.87423">
        <ele>2192.7</ele>
        <time>2016-05-06T11:50:45Z</time>
      </trkpt>
      <trkpt lat="45.67452" lon="6.87442">
        <ele>2187.9</ele>
        <time>2016-05-06T11:50:47Z</time>
      </trkpt>
      <trkpt lat="45.67457" lon="6.87464">
        <ele>2184.2</ele>
        <time>2016-05-06T11:50:49Z</time>
      </trkpt>
      <trkpt lat="45.67461" lon="6.87488">
        <ele>2180.4</ele>
        <time>2016-05-06T11:50:51Z</time>
      </trkpt>
      <trkpt lat="45.67464" lon="6.87508">
        <ele>2176.9</ele>
        <time>2016-05-06T11:50:53Z</time>
      </trkpt>
      <trkpt lat="45.67465" lon="6.87522">
        <ele>2174.6</ele>
        <time>2016-05-06T11:50:55Z</time>
      </trkpt>
      <trkpt lat="45.67467" lon="6.87531">
        <ele>2173.1</ele>
        <time>2016-05-06T11:50:57Z</time>
      </trkpt>
      <trkpt lat="45.67467" lon="6.87535">
        <ele>2171.6</ele>
        <time>2016-05-06T11:50:59Z</time>
      </trkpt>
      <trkpt lat="45.67467" lon="6.87536">
        <ele>2170.7</ele>
        <time>2016-05-06T11:51:01Z</time>
      </trkpt>
      <trkpt lat="45.67467" lon="6.87536">
        <ele>2170.1</ele>
        <time>2016-05-06T11:51:03Z</time>
      </trkpt>
      <trkpt lat="45.67466" lon="6.87536">
        <ele>2169.8</ele>
        <time>2016-05-06T11:51:05Z</time>
      </trkpt>
      <trkpt lat="45.67466" lon="6.87537">
        <ele>2169.5</ele>
        <time>2016-05-06T11:51:07Z</time>
      </trkpt>
      <trkpt lat="45.67466" lon="6.87537">
        <ele>2169.3</ele>
        <time>2016-05-06T11:51:09Z</time>
      </trkpt>
      <trkpt lat="45.67466" lon="6.87537">
        <ele>2169.3</ele>
        <time>2016-05-06T11:51:11Z</time>
      </trkpt>
      <trkpt lat="45.67466" lon="6.87537">
        <ele>2169.3</ele>
        <time>2016-05-06T11:51:13Z</time>
      </trkpt>
      <trkpt lat="45.67466" lon="6.87537">
        <ele>2169.2</ele>
        <time>2016-05-06T11:51:15Z</time>
      </trkpt>
      <trkpt lat="45.67467" lon="6.87536">
        <ele>2169</ele>
        <time>2016-05-06T11:51:17Z</time>
      </trkpt>
      <trkpt lat="45.67467" lon="6.87536">
        <ele>2169.1</ele>
        <time>2016-05-06T11:51:19Z</time>
      </trkpt>
      <trkpt lat="45.67467" lon="6.87537">
        <ele>2169.1</ele>
        <time>2016-05-06T11:51:21Z</time>
      </trkpt>
      <trkpt lat="45.67467" lon="6.87537">
        <ele>2169.2</ele>
        <time>2016-05-06T11:51:23Z</time>
      </trkpt>
      <trkpt lat="45.67467" lon="6.87536">
        <ele>2169.2</ele>
        <time>2016-05-06T11:51:25Z</time>
      </trkpt>
      <trkpt lat="45.67467" lon="6.87537">
        <ele>2168.9</ele>
        <time>2016-05-06T11:51:27Z</time>
      </trkpt>
      <trkpt lat="45.67467" lon="6.87537">
        <ele>2168.6</ele>
        <time>2016-05-06T11:51:29Z</time>
      </trkpt>
      <trkpt lat="45.67467" lon="6.87537">
        <ele>2168.4</ele>
        <time>2016-05-06T11:51:31Z</time>
      </trkpt>
      <trkpt lat="45.67466" lon="6.87537">
        <ele>2167.9</ele>
        <time>2016-05-06T11:51:33Z</time>
      </trkpt>
      <trkpt lat="45.67466" lon="6.87537">
        <ele>2167.7</ele>
        <time>2016-05-06T11:51:35Z</time>
      </trkpt>
      <trkpt lat="45.67466" lon="6.87537">
        <ele>2167.8</ele>
        <time>2016-05-06T11:51:37Z</time>
      </trkpt>
      <trkpt lat="45.67466" lon="6.87536">
        <ele>2167.9</ele>
        <time>2016-05-06T11:51:39Z</time>
      </trkpt>
      <trkpt lat="45.67467" lon="6.87536">
        <ele>2167.8</ele>
        <time>2016-05-06T11:51:41Z</time>
      </trkpt>
      <trkpt lat="45.67467" lon="6.87536">
        <ele>2167.9</ele>
        <time>2016-05-06T11:51:43Z</time>
      </trkpt>
      <trkpt lat="45.67467" lon="6.87536">
        <ele>2164.5</ele>
        <time>2016-05-06T11:51:45Z</time>
      </trkpt>
      <trkpt lat="45.67467" lon="6.87536">
        <ele>2165.9</ele>
        <time>2016-05-06T11:51:47Z</time>
      </trkpt>
      <trkpt lat="45.67467" lon="6.87535">
        <ele>2166.8</ele>
        <time>2016-05-06T11:51:49Z</time>
      </trkpt>
      <trkpt lat="45.67467" lon="6.87535">
        <ele>2167</ele>
        <time>2016-05-06T11:51:52Z</time>
      </trkpt>
      <trkpt lat="45.67468" lon="6.87533">
        <ele>2168</ele>
        <time>2016-05-06T11:51:55Z</time>
      </trkpt>
      <trkpt lat="45.67469" lon="6.87533">
        <ele>2167.9</ele>
        <time>2016-05-06T11:51:57Z</time>
      </trkpt>
      <trkpt lat="45.67468" lon="6.87533">
        <ele>2167.9</ele>
        <time>2016-05-06T11:51:59Z</time>
      </trkpt>
      <trkpt lat="45.67469" lon="6.87533">
        <ele>2168.2</ele>
        <time>2016-05-06T11:52:01Z</time>
      </trkpt>
      <trkpt lat="45.67468" lon="6.87532">
        <ele>2168.1</ele>
        <time>2016-05-06T11:52:03Z</time>
      </trkpt>
      <trkpt lat="45.67469" lon="6.87532">
        <ele>2168.2</ele>
        <time>2016-05-06T11:52:05Z</time>
      </trkpt>
      <trkpt lat="45.67469" lon="6.87532">
        <ele>2167.7</ele>
        <time>2016-05-06T11:52:07Z</time>
      </trkpt>
      <trkpt lat="45.67469" lon="6.87532">
        <ele>2167.9</ele>
        <time>2016-05-06T11:52:09Z</time>
      </trkpt>
      <trkpt lat="45.6747" lon="6.87532">
        <ele>2168.1</ele>
        <time>2016-05-06T11:52:11Z</time>
      </trkpt>
      <trkpt lat="45.67469" lon="6.87531">
        <ele>2168.2</ele>
        <time>2016-05-06T11:52:13Z</time>
      </trkpt>
      <trkpt lat="45.6747" lon="6.8753">
        <ele>2168.1</ele>
        <time>2016-05-06T11:52:15Z</time>
      </trkpt>
      <trkpt lat="45.6747" lon="6.8753">
        <ele>2168</ele>
        <time>2016-05-06T11:52:17Z</time>
      </trkpt>
      <trkpt lat="45.6747" lon="6.8753">
        <ele>2168</ele>
        <time>2016-05-06T11:52:19Z</time>
      </trkpt>
      <trkpt lat="45.67471" lon="6.8753">
        <ele>2168</ele>
        <time>2016-05-06T11:52:21Z</time>
      </trkpt>
      <trkpt lat="45.67471" lon="6.8753">
        <ele>2168.1</ele>
        <time>2016-05-06T11:52:23Z</time>
      </trkpt>
      <trkpt lat="45.6747" lon="6.87531">
        <ele>2168.4</ele>
        <time>2016-05-06T11:52:25Z</time>
      </trkpt>
      <trkpt lat="45.67471" lon="6.87531">
        <ele>2168.2</ele>
        <time>2016-05-06T11:52:27Z</time>
      </trkpt>
      <trkpt lat="45.67471" lon="6.87531">
        <ele>2168.1</ele>
        <time>2016-05-06T11:52:29Z</time>
      </trkpt>
      <trkpt lat="45.67471" lon="6.87532">
        <ele>2168.2</ele>
        <time>2016-05-06T11:52:31Z</time>
      </trkpt>
      <trkpt lat="45.67471" lon="6.87532">
        <ele>2167.8</ele>
        <time>2016-05-06T11:52:33Z</time>
      </trkpt>
      <trkpt lat="45.6747" lon="6.87532">
        <ele>2168.3</ele>
        <time>2016-05-06T11:52:35Z</time>
      </trkpt>
      <trkpt lat="45.6747" lon="6.87532">
        <ele>2168.5</ele>
        <time>2016-05-06T11:52:37Z</time>
      </trkpt>
      <trkpt lat="45.67471" lon="6.87532">
        <ele>2168.5</ele>
        <time>2016-05-06T11:52:39Z</time>
      </trkpt>
      <trkpt lat="45.67471" lon="6.87531">
        <ele>2168.4</ele>
        <time>2016-05-06T11:52:41Z</time>
      </trkpt>
      <trkpt lat="45.67471" lon="6.87531">
        <ele>2168.5</ele>
        <time>2016-05-06T11:52:43Z</time>
      </trkpt>
      <trkpt lat="45.67471" lon="6.8753">
        <ele>2168</ele>
        <time>2016-05-06T11:52:45Z</time>
      </trkpt>
      <trkpt lat="45.67471" lon="6.8753">
        <ele>2168</ele>
        <time>2016-05-06T11:52:47Z</time>
      </trkpt>
      <trkpt lat="45.67471" lon="6.8753">
        <ele>2167.8</ele>
        <time>2016-05-06T11:52:49Z</time>
      </trkpt>
      <trkpt lat="45.67471" lon="6.8753">
        <ele>2167.6</ele>
        <time>2016-05-06T11:52:51Z</time>
      </trkpt>
      <trkpt lat="45.67471" lon="6.8753">
        <ele>2167.7</ele>
        <time>2016-05-06T11:52:53Z</time>
      </trkpt>
      <trkpt lat="45.67471" lon="6.87529">
        <ele>2167.7</ele>
        <time>2016-05-06T11:52:55Z</time>
      </trkpt>
      <trkpt lat="45.67471" lon="6.87529">
        <ele>2167.6</ele>
        <time>2016-05-06T11:52:57Z</time>
      </trkpt>
      <trkpt lat="45.6747" lon="6.8753">
        <ele>2167.9</ele>
        <time>2016-05-06T11:52:59Z</time>
      </trkpt>
      <trkpt lat="45.6747" lon="6.8753">
        <ele>2167.5</ele>
        <time>2016-05-06T11:53:01Z</time>
      </trkpt>
      <trkpt lat="45.6747" lon="6.87531">
        <ele>2167.7</ele>
        <time>2016-05-06T11:53:03Z</time>
      </trkpt>
      <trkpt lat="45.6747" lon="6.87531">
        <ele>2168.1</ele>
        <time>2016-05-06T11:53:05Z</time>
      </trkpt>
      <trkpt lat="45.6747" lon="6.87532">
        <ele>2168.2</ele>
        <time>2016-05-06T11:53:07Z</time>
      </trkpt>
      <trkpt lat="45.67469" lon="6.87533">
        <ele>2168.3</ele>
        <time>2016-05-06T11:53:09Z</time>
      </trkpt>
      <trkpt lat="45.6747" lon="6.87532">
        <ele>2168.6</ele>
        <time>2016-05-06T11:53:11Z</time>
      </trkpt>
      <trkpt lat="45.67469" lon="6.87531">
        <ele>2168.6</ele>
        <time>2016-05-06T11:53:13Z</time>
      </trkpt>
      <trkpt lat="45.6747" lon="6.87531">
        <ele>2168.5</ele>
        <time>2016-05-06T11:53:15Z</time>
      </trkpt>
      <trkpt lat="45.6747" lon="6.8753">
        <ele>2168.4</ele>
        <time>2016-05-06T11:53:17Z</time>
      </trkpt>
      <trkpt lat="45.6747" lon="6.87531">
        <ele>2168.3</ele>
        <time>2016-05-06T11:53:19Z</time>
      </trkpt>
      <trkpt lat="45.67471" lon="6.87531">
        <ele>2168.5</ele>
        <time>2016-05-06T11:53:21Z</time>
      </trkpt>
      <trkpt lat="45.6747" lon="6.87531">
        <ele>2168.7</ele>
        <time>2016-05-06T11:53:23Z</time>
      </trkpt>
      <trkpt lat="45.67469" lon="6.87531">
        <ele>2168.7</ele>
        <time>2016-05-06T11:53:25Z</time>
      </trkpt>
      <trkpt lat="45.67468" lon="6.8753">
        <ele>2167.8</ele>
        <time>2016-05-06T11:53:27Z</time>
      </trkpt>
      <trkpt lat="45.67468" lon="6.8753">
        <ele>2168</ele>
        <time>2016-05-06T11:53:29Z</time>
      </trkpt>
      <trkpt lat="45.67468" lon="6.8753">
        <ele>2168.3</ele>
        <time>2016-05-06T11:53:31Z</time>
      </trkpt>
      <trkpt lat="45.67467" lon="6.87531">
        <ele>2168.4</ele>
        <time>2016-05-06T11:53:33Z</time>
      </trkpt>
      <trkpt lat="45.67467" lon="6.87531">
        <ele>2168.5</ele>
        <time>2016-05-06T11:53:35Z</time>
      </trkpt>
      <trkpt lat="45.67467" lon="6.87532">
        <ele>2168.5</ele>
        <time>2016-05-06T11:53:37Z</time>
      </trkpt>
      <trkpt lat="45.67465" lon="6.87532">
        <ele>2168.6</ele>
        <time>2016-05-06T11:53:39Z</time>
      </trkpt>
      <trkpt lat="45.67463" lon="6.87531">
        <ele>2168.2</ele>
        <time>2016-05-06T11:53:41Z</time>
      </trkpt>
      <trkpt lat="45.67463" lon="6.87531">
        <ele>2167.6</ele>
        <time>2016-05-06T11:53:43Z</time>
      </trkpt>
      <trkpt lat="45.67464" lon="6.87532">
        <ele>2167.6</ele>
        <time>2016-05-06T11:53:45Z</time>
      </trkpt>
      <trkpt lat="45.67465" lon="6.87532">
        <ele>2168</ele>
        <time>2016-05-06T11:53:47Z</time>
      </trkpt>
      <trkpt lat="45.67466" lon="6.87532">
        <ele>2168.3</ele>
        <time>2016-05-06T11:53:49Z</time>
      </trkpt>
      <trkpt lat="45.67467" lon="6.87532">
        <ele>2168.4</ele>
        <time>2016-05-06T11:53:51Z</time>
      </trkpt>
      <trkpt lat="45.67467" lon="6.87533">
        <ele>2168.4</ele>
        <time>2016-05-06T11:53:53Z</time>
      </trkpt>
      <trkpt lat="45.67467" lon="6.87533">
        <ele>2168.5</ele>
        <time>2016-05-06T11:53:55Z</time>
      </trkpt>
      <trkpt lat="45.67466" lon="6.87534">
        <ele>2168.4</ele>
        <time>2016-05-06T11:53:57Z</time>
      </trkpt>
      <trkpt lat="45.67466" lon="6.87534">
        <ele>2168.4</ele>
        <time>2016-05-06T11:53:59Z</time>
      </trkpt>
      <trkpt lat="45.67466" lon="6.87534">
        <ele>2168.3</ele>
        <time>2016-05-06T11:54:01Z</time>
      </trkpt>
      <trkpt lat="45.67466" lon="6.87536">
        <ele>2168.1</ele>
        <time>2016-05-06T11:54:03Z</time>
      </trkpt>
      <trkpt lat="45.67467" lon="6.87538">
        <ele>2168.3</ele>
        <time>2016-05-06T11:54:05Z</time>
      </trkpt>
      <trkpt lat="45.67467" lon="6.87539">
        <ele>2168.5</ele>
        <time>2016-05-06T11:54:07Z</time>
      </trkpt>
      <trkpt lat="45.67467" lon="6.8754">
        <ele>2168.4</ele>
        <time>2016-05-06T11:54:09Z</time>
      </trkpt>
      <trkpt lat="45.67467" lon="6.8754">
        <ele>2168.4</ele>
        <time>2016-05-06T11:54:11Z</time>
      </trkpt>
      <trkpt lat="45.67467" lon="6.87542">
        <ele>2168.5</ele>
        <time>2016-05-06T11:54:13Z</time>
      </trkpt>
      <trkpt lat="45.67467" lon="6.87543">
        <ele>2168.3</ele>
        <time>2016-05-06T11:54:15Z</time>
      </trkpt>
      <trkpt lat="45.67467" lon="6.87544">
        <ele>2168.3</ele>
        <time>2016-05-06T11:54:17Z</time>
      </trkpt>
      <trkpt lat="45.67467" lon="6.87544">
        <ele>2168.3</ele>
        <time>2016-05-06T11:54:19Z</time>
      </trkpt>
      <trkpt lat="45.67468" lon="6.87546">
        <ele>2168.1</ele>
        <time>2016-05-06T11:54:21Z</time>
      </trkpt>
      <trkpt lat="45.67468" lon="6.87549">
        <ele>2168.2</ele>
        <time>2016-05-06T11:54:23Z</time>
      </trkpt>
      <trkpt lat="45.67467" lon="6.87549">
        <ele>2168.4</ele>
        <time>2016-05-06T11:54:25Z</time>
      </trkpt>
      <trkpt lat="45.67468" lon="6.8755">
        <ele>2168.5</ele>
        <time>2016-05-06T11:54:27Z</time>
      </trkpt>
      <trkpt lat="45.67468" lon="6.87553">
        <ele>2168.3</ele>
        <time>2016-05-06T11:54:29Z</time>
      </trkpt>
      <trkpt lat="45.67468" lon="6.87554">
        <ele>2168.4</ele>
        <time>2016-05-06T11:54:31Z</time>
      </trkpt>
      <trkpt lat="45.67469" lon="6.87555">
        <ele>2168.3</ele>
        <time>2016-05-06T11:54:33Z</time>
      </trkpt>
      <trkpt lat="45.6747" lon="6.87556">
        <ele>2168.4</ele>
        <time>2016-05-06T11:54:35Z</time>
      </trkpt>
      <trkpt lat="45.67471" lon="6.87558">
        <ele>2168.3</ele>
        <time>2016-05-06T11:54:37Z</time>
      </trkpt>
      <trkpt lat="45.67472" lon="6.87561">
        <ele>2168.4</ele>
        <time>2016-05-06T11:54:39Z</time>
      </trkpt>
      <trkpt lat="45.67473" lon="6.87562">
        <ele>2168.3</ele>
        <time>2016-05-06T11:54:41Z</time>
      </trkpt>
      <trkpt lat="45.67473" lon="6.87564">
        <ele>2168.2</ele>
        <time>2016-05-06T11:54:43Z</time>
      </trkpt>
      <trkpt lat="45.67473" lon="6.87566">
        <ele>2168</ele>
        <time>2016-05-06T11:54:45Z</time>
      </trkpt>
      <trkpt lat="45.67474" lon="6.87567">
        <ele>2168</ele>
        <time>2016-05-06T11:54:47Z</time>
      </trkpt>
      <trkpt lat="45.67474" lon="6.87568">
        <ele>2168.1</ele>
        <time>2016-05-06T11:54:49Z</time>
      </trkpt>
      <trkpt lat="45.67475" lon="6.87567">
        <ele>2168</ele>
        <time>2016-05-06T11:54:51Z</time>
      </trkpt>
      <trkpt lat="45.67475" lon="6.87567">
        <ele>2168.1</ele>
        <time>2016-05-06T11:54:53Z</time>
      </trkpt>
      <trkpt lat="45.67475" lon="6.87567">
        <ele>2168.3</ele>
        <time>2016-05-06T11:54:55Z</time>
      </trkpt>
      <trkpt lat="45.67475" lon="6.87567">
        <ele>2168.3</ele>
        <time>2016-05-06T11:54:57Z</time>
      </trkpt>
      <trkpt lat="45.67475" lon="6.87567">
        <ele>2168.4</ele>
        <time>2016-05-06T11:54:59Z</time>
      </trkpt>
      <trkpt lat="45.67475" lon="6.87567">
        <ele>2168.4</ele>
        <time>2016-05-06T11:55:01Z</time>
      </trkpt>
      <trkpt lat="45.67475" lon="6.87567">
        <ele>2168.5</ele>
        <time>2016-05-06T11:55:03Z</time>
      </trkpt>
      <trkpt lat="45.67475" lon="6.87566">
        <ele>2168.5</ele>
        <time>2016-05-06T11:55:05Z</time>
      </trkpt>
      <trkpt lat="45.67475" lon="6.87566">
        <ele>2168.5</ele>
        <time>2016-05-06T11:55:07Z</time>
      </trkpt>
      <trkpt lat="45.67475" lon="6.87566">
        <ele>2168.5</ele>
        <time>2016-05-06T11:55:09Z</time>
      </trkpt>
      <trkpt lat="45.67476" lon="6.87565">
        <ele>2168.3</ele>
        <time>2016-05-06T11:55:11Z</time>
      </trkpt>
      <trkpt lat="45.67476" lon="6.87565">
        <ele>2168.3</ele>
        <time>2016-05-06T11:55:13Z</time>
      </trkpt>
      <trkpt lat="45.67476" lon="6.87564">
        <ele>2168.5</ele>
        <time>2016-05-06T11:55:15Z</time>
      </trkpt>
      <trkpt lat="45.67476" lon="6.87564">
        <ele>2168.5</ele>
        <time>2016-05-06T11:55:17Z</time>
      </trkpt>
      <trkpt lat="45.67477" lon="6.87563">
        <ele>2168.5</ele>
        <time>2016-05-06T11:55:19Z</time>
      </trkpt>
      <trkpt lat="45.67476" lon="6.87563">
        <ele>2168.5</ele>
        <time>2016-05-06T11:55:21Z</time>
      </trkpt>
      <trkpt lat="45.67477" lon="6.87563">
        <ele>2168.4</ele>
        <time>2016-05-06T11:55:23Z</time>
      </trkpt>
      <trkpt lat="45.67477" lon="6.87565">
        <ele>2168.4</ele>
        <time>2016-05-06T11:55:25Z</time>
      </trkpt>
      <trkpt lat="45.67476" lon="6.87567">
        <ele>2167.7</ele>
        <time>2016-05-06T11:55:27Z</time>
      </trkpt>
      <trkpt lat="45.67476" lon="6.87567">
        <ele>2167.8</ele>
        <time>2016-05-06T11:55:29Z</time>
      </trkpt>
      <trkpt lat="45.67476" lon="6.87569">
        <ele>2168.1</ele>
        <time>2016-05-06T11:55:31Z</time>
      </trkpt>
      <trkpt lat="45.67475" lon="6.8757">
        <ele>2168.4</ele>
        <time>2016-05-06T11:55:33Z</time>
      </trkpt>
      <trkpt lat="45.67475" lon="6.87572">
        <ele>2168.5</ele>
        <time>2016-05-06T11:55:35Z</time>
      </trkpt>
      <trkpt lat="45.67475" lon="6.87574">
        <ele>2168.6</ele>
        <time>2016-05-06T11:55:37Z</time>
      </trkpt>
      <trkpt lat="45.67475" lon="6.87575">
        <ele>2168.5</ele>
        <time>2016-05-06T11:55:39Z</time>
      </trkpt>
      <trkpt lat="45.67475" lon="6.87576">
        <ele>2168.5</ele>
        <time>2016-05-06T11:55:41Z</time>
      </trkpt>
      <trkpt lat="45.67475" lon="6.87579">
        <ele>2168.3</ele>
        <time>2016-05-06T11:55:43Z</time>
      </trkpt>
      <trkpt lat="45.67475" lon="6.87582">
        <ele>2168.2</ele>
        <time>2016-05-06T11:55:45Z</time>
      </trkpt>
      <trkpt lat="45.67475" lon="6.87584">
        <ele>2168.4</ele>
        <time>2016-05-06T11:55:47Z</time>
      </trkpt>
      <trkpt lat="45.67475" lon="6.87585">
        <ele>2168.4</ele>
        <time>2016-05-06T11:55:49Z</time>
      </trkpt>
      <trkpt lat="45.67475" lon="6.87586">
        <ele>2168.4</ele>
        <time>2016-05-06T11:55:51Z</time>
      </trkpt>
      <trkpt lat="45.67474" lon="6.87588">
        <ele>2168.4</ele>
        <time>2016-05-06T11:55:53Z</time>
      </trkpt>
      <trkpt lat="45.67474" lon="6.87589">
        <ele>2168.5</ele>
        <time>2016-05-06T11:55:55Z</time>
      </trkpt>
      <trkpt lat="45.67473" lon="6.87591">
        <ele>2168.3</ele>
        <time>2016-05-06T11:55:57Z</time>
      </trkpt>
      <trkpt lat="45.67474" lon="6.87593">
        <ele>2168.2</ele>
        <time>2016-05-06T11:55:59Z</time>
      </trkpt>
      <trkpt lat="45.67473" lon="6.87595">
        <ele>2168.1</ele>
        <time>2016-05-06T11:56:01Z</time>
      </trkpt>
      <trkpt lat="45.67475" lon="6.87595">
        <ele>2167.9</ele>
        <time>2016-05-06T11:56:03Z</time>
      </trkpt>
      <trkpt lat="45.67475" lon="6.87596">
        <ele>2168.1</ele>
        <time>2016-05-06T11:56:05Z</time>
      </trkpt>
      <trkpt lat="45.67475" lon="6.87597">
        <ele>2168.2</ele>
        <time>2016-05-06T11:56:07Z</time>
      </trkpt>
      <trkpt lat="45.67475" lon="6.87597">
        <ele>2168.3</ele>
        <time>2016-05-06T11:56:09Z</time>
      </trkpt>
      <trkpt lat="45.67475" lon="6.87594">
        <ele>2167.8</ele>
        <time>2016-05-06T11:56:11Z</time>
      </trkpt>
      <trkpt lat="45.67476" lon="6.87587">
        <ele>2168</ele>
        <time>2016-05-06T11:56:13Z</time>
      </trkpt>
      <trkpt lat="45.67476" lon="6.87577">
        <ele>2168.2</ele>
        <time>2016-05-06T11:56:15Z</time>
      </trkpt>
      <trkpt lat="45.67478" lon="6.87567">
        <ele>2168.7</ele>
        <time>2016-05-06T11:56:17Z</time>
      </trkpt>
      <trkpt lat="45.67481" lon="6.87558">
        <ele>2169</ele>
        <time>2016-05-06T11:56:19Z</time>
      </trkpt>
      <trkpt lat="45.67482" lon="6.8755">
        <ele>2169.3</ele>
        <time>2016-05-06T11:56:21Z</time>
      </trkpt>
      <trkpt lat="45.67481" lon="6.87541">
        <ele>2169.3</ele>
        <time>2016-05-06T11:56:23Z</time>
      </trkpt>
      <trkpt lat="45.67482" lon="6.87533">
        <ele>2169.3</ele>
        <time>2016-05-06T11:56:25Z</time>
      </trkpt>
      <trkpt lat="45.6748" lon="6.87524">
        <ele>2169.6</ele>
        <time>2016-05-06T11:56:27Z</time>
      </trkpt>
      <trkpt lat="45.67479" lon="6.87517">
        <ele>2169.9</ele>
        <time>2016-05-06T11:56:29Z</time>
      </trkpt>
      <trkpt lat="45.67478" lon="6.87508">
        <ele>2169.9</ele>
        <time>2016-05-06T11:56:31Z</time>
      </trkpt>
      <trkpt lat="45.67477" lon="6.87502">
        <ele>2169.6</ele>
        <time>2016-05-06T11:56:33Z</time>
      </trkpt>
      <trkpt lat="45.67475" lon="6.87496">
        <ele>2170.1</ele>
        <time>2016-05-06T11:56:35Z</time>
      </trkpt>
      <trkpt lat="45.67473" lon="6.8749">
        <ele>2170.4</ele>
        <time>2016-05-06T11:56:37Z</time>
      </trkpt>
      <trkpt lat="45.6747" lon="6.87482">
        <ele>2170.6</ele>
        <time>2016-05-06T11:56:39Z</time>
      </trkpt>
      <trkpt lat="45.67469" lon="6.87476">
        <ele>2171.4</ele>
        <time>2016-05-06T11:56:41Z</time>
      </trkpt>
      <trkpt lat="45.67467" lon="6.8747">
        <ele>2172</ele>
        <time>2016-05-06T11:56:43Z</time>
      </trkpt>
      <trkpt lat="45.67466" lon="6.87465">
        <ele>2172.3</ele>
        <time>2016-05-06T11:56:45Z</time>
      </trkpt>
      <trkpt lat="45.67464" lon="6.8746">
        <ele>2173.6</ele>
        <time>2016-05-06T11:56:47Z</time>
      </trkpt>
      <trkpt lat="45.67462" lon="6.87454">
        <ele>2174.2</ele>
        <time>2016-05-06T11:56:49Z</time>
      </trkpt>
      <trkpt lat="45.67461" lon="6.8745">
        <ele>2175.5</ele>
        <time>2016-05-06T11:56:51Z</time>
      </trkpt>
      <trkpt lat="45.6746" lon="6.87447">
        <ele>2176.7</ele>
        <time>2016-05-06T11:56:53Z</time>
      </trkpt>
      <trkpt lat="45.67458" lon="6.87442">
        <ele>2177.6</ele>
        <time>2016-05-06T11:56:55Z</time>
      </trkpt>
      <trkpt lat="45.67454" lon="6.87434">
        <ele>2178.6</ele>
        <time>2016-05-06T11:56:57Z</time>
      </trkpt>
      <trkpt lat="45.67451" lon="6.87426">
        <ele>2179.7</ele>
        <time>2016-05-06T11:56:59Z</time>
      </trkpt>
      <trkpt lat="45.67449" lon="6.87419">
        <ele>2180.6</ele>
        <time>2016-05-06T11:57:01Z</time>
      </trkpt>
      <trkpt lat="45.67449" lon="6.87411">
        <ele>2182.2</ele>
        <time>2016-05-06T11:57:03Z</time>
      </trkpt>
      <trkpt lat="45.67447" lon="6.87404">
        <ele>2182.9</ele>
        <time>2016-05-06T11:57:05Z</time>
      </trkpt>
      <trkpt lat="45.67445" lon="6.87397">
        <ele>2184.9</ele>
        <time>2016-05-06T11:57:07Z</time>
      </trkpt>
      <trkpt lat="45.67443" lon="6.87388">
        <ele>2186.6</ele>
        <time>2016-05-06T11:57:09Z</time>
      </trkpt>
      <trkpt lat="45.67441" lon="6.87381">
        <ele>2188.3</ele>
        <time>2016-05-06T11:57:11Z</time>
      </trkpt>
      <trkpt lat="45.6744" lon="6.87374">
        <ele>2190</ele>
        <time>2016-05-06T11:57:13Z</time>
      </trkpt>
      <trkpt lat="45.67438" lon="6.87369">
        <ele>2191.5</ele>
        <time>2016-05-06T11:57:15Z</time>
      </trkpt>
      <trkpt lat="45.67437" lon="6.87365">
        <ele>2192.7</ele>
        <time>2016-05-06T11:57:17Z</time>
      </trkpt>
      <trkpt lat="45.67432" lon="6.87365">
        <ele>2193.8</ele>
        <time>2016-05-06T11:57:19Z</time>
      </trkpt>
      <trkpt lat="45.67432" lon="6.87376">
        <ele>2193</ele>
        <time>2016-05-06T11:57:21Z</time>
      </trkpt>
      <trkpt lat="45.67435" lon="6.87391">
        <ele>2190.6</ele>
        <time>2016-05-06T11:57:23Z</time>
      </trkpt>
      <trkpt lat="45.67439" lon="6.87407">
        <ele>2188.5</ele>
        <time>2016-05-06T11:57:25Z</time>
      </trkpt>
      <trkpt lat="45.67442" lon="6.87425">
        <ele>2185.3</ele>
        <time>2016-05-06T11:57:27Z</time>
      </trkpt>
      <trkpt lat="45.67444" lon="6.87447">
        <ele>2181.4</ele>
        <time>2016-05-06T11:57:29Z</time>
      </trkpt>
      <trkpt lat="45.67447" lon="6.87471">
        <ele>2177.3</ele>
        <time>2016-05-06T11:57:31Z</time>
      </trkpt>
      <trkpt lat="45.67449" lon="6.87496">
        <ele>2173</ele>
        <time>2016-05-06T11:57:33Z</time>
      </trkpt>
      <trkpt lat="45.67448" lon="6.87519">
        <ele>2169.8</ele>
        <time>2016-05-06T11:57:35Z</time>
      </trkpt>
      <trkpt lat="45.67446" lon="6.87536">
        <ele>2167.7</ele>
        <time>2016-05-06T11:57:37Z</time>
      </trkpt>
      <trkpt lat="45.67445" lon="6.87552">
        <ele>2166.4</ele>
        <time>2016-05-06T11:57:39Z</time>
      </trkpt>
      <trkpt lat="45.67443" lon="6.87565">
        <ele>2165.7</ele>
        <time>2016-05-06T11:57:41Z</time>
      </trkpt>
      <trkpt lat="45.6744" lon="6.87577">
        <ele>2165</ele>
        <time>2016-05-06T11:57:43Z</time>
      </trkpt>
      <trkpt lat="45.67439" lon="6.87589">
        <ele>2165.5</ele>
        <time>2016-05-06T11:57:45Z</time>
      </trkpt>
      <trkpt lat="45.67438" lon="6.87599">
        <ele>2165.2</ele>
        <time>2016-05-06T11:57:47Z</time>
      </trkpt>
      <trkpt lat="45.67438" lon="6.87608">
        <ele>2165</ele>
        <time>2016-05-06T11:57:49Z</time>
      </trkpt>
      <trkpt lat="45.67436" lon="6.87617">
        <ele>2165.3</ele>
        <time>2016-05-06T11:57:51Z</time>
      </trkpt>
      <trkpt lat="45.67431" lon="6.87626">
        <ele>2165.4</ele>
        <time>2016-05-06T11:57:53Z</time>
      </trkpt>
      <trkpt lat="45.67426" lon="6.87638">
        <ele>2164.8</ele>
        <time>2016-05-06T11:57:55Z</time>
      </trkpt>
      <trkpt lat="45.67425" lon="6.87647">
        <ele>2163.9</ele>
        <time>2016-05-06T11:57:57Z</time>
      </trkpt>
      <trkpt lat="45.67421" lon="6.87652">
        <ele>2164.2</ele>
        <time>2016-05-06T11:57:59Z</time>
      </trkpt>
      <trkpt lat="45.67416" lon="6.87659">
        <ele>2164.1</ele>
        <time>2016-05-06T11:58:01Z</time>
      </trkpt>
      <trkpt lat="45.67414" lon="6.87666">
        <ele>2164.4</ele>
        <time>2016-05-06T11:58:03Z</time>
      </trkpt>
      <trkpt lat="45.67411" lon="6.87671">
        <ele>2164.7</ele>
        <time>2016-05-06T11:58:05Z</time>
      </trkpt>
      <trkpt lat="45.67405" lon="6.87676">
        <ele>2164.8</ele>
        <time>2016-05-06T11:58:07Z</time>
      </trkpt>
      <trkpt lat="45.67401" lon="6.87684">
        <ele>2165</ele>
        <time>2016-05-06T11:58:09Z</time>
      </trkpt>
      <trkpt lat="45.67397" lon="6.8769">
        <ele>2165.2</ele>
        <time>2016-05-06T11:58:11Z</time>
      </trkpt>
      <trkpt lat="45.67392" lon="6.87693">
        <ele>2165.8</ele>
        <time>2016-05-06T11:58:13Z</time>
      </trkpt>
      <trkpt lat="45.67386" lon="6.87699">
        <ele>2165.4</ele>
        <time>2016-05-06T11:58:15Z</time>
      </trkpt>
      <trkpt lat="45.67382" lon="6.87706">
        <ele>2166</ele>
        <time>2016-05-06T11:58:17Z</time>
      </trkpt>
      <trkpt lat="45.67379" lon="6.87712">
        <ele>2166.2</ele>
        <time>2016-05-06T11:58:19Z</time>
      </trkpt>
      <trkpt lat="45.67375" lon="6.87718">
        <ele>2166.7</ele>
        <time>2016-05-06T11:58:21Z</time>
      </trkpt>
      <trkpt lat="45.6737" lon="6.87722">
        <ele>2167.2</ele>
        <time>2016-05-06T11:58:23Z</time>
      </trkpt>
      <trkpt lat="45.67364" lon="6.87728">
        <ele>2167.3</ele>
        <time>2016-05-06T11:58:25Z</time>
      </trkpt>
      <trkpt lat="45.67361" lon="6.87735">
        <ele>2167.3</ele>
        <time>2016-05-06T11:58:27Z</time>
      </trkpt>
      <trkpt lat="45.67358" lon="6.87741">
        <ele>2168</ele>
        <time>2016-05-06T11:58:29Z</time>
      </trkpt>
      <trkpt lat="45.67354" lon="6.87745">
        <ele>2168.6</ele>
        <time>2016-05-06T11:58:31Z</time>
      </trkpt>
      <trkpt lat="45.67348" lon="6.87747">
        <ele>2169</ele>
        <time>2016-05-06T11:58:33Z</time>
      </trkpt>
      <trkpt lat="45.67343" lon="6.8775">
        <ele>2169.5</ele>
        <time>2016-05-06T11:58:35Z</time>
      </trkpt>
      <trkpt lat="45.67339" lon="6.87751">
        <ele>2169.9</ele>
        <time>2016-05-06T11:58:37Z</time>
      </trkpt>
      <trkpt lat="45.67336" lon="6.87752">
        <ele>2170.4</ele>
        <time>2016-05-06T11:58:39Z</time>
      </trkpt>
      <trkpt lat="45.67331" lon="6.87752">
        <ele>2170.4</ele>
        <time>2016-05-06T11:58:41Z</time>
      </trkpt>
      <trkpt lat="45.67328" lon="6.87754">
        <ele>2170.8</ele>
        <time>2016-05-06T11:58:43Z</time>
      </trkpt>
      <trkpt lat="45.67326" lon="6.87754">
        <ele>2171.3</ele>
        <time>2016-05-06T11:58:45Z</time>
      </trkpt>
      <trkpt lat="45.67321" lon="6.87754">
        <ele>2171.6</ele>
        <time>2016-05-06T11:58:47Z</time>
      </trkpt>
      <trkpt lat="45.67317" lon="6.87759">
        <ele>2171.9</ele>
        <time>2016-05-06T11:58:49Z</time>
      </trkpt>
      <trkpt lat="45.67315" lon="6.8776">
        <ele>2172.4</ele>
        <time>2016-05-06T11:58:51Z</time>
      </trkpt>
      <trkpt lat="45.67311" lon="6.87759">
        <ele>2173.1</ele>
        <time>2016-05-06T11:58:53Z</time>
      </trkpt>
      <trkpt lat="45.67308" lon="6.87762">
        <ele>2173.6</ele>
        <time>2016-05-06T11:58:55Z</time>
      </trkpt>
      <trkpt lat="45.67306" lon="6.87764">
        <ele>2174.1</ele>
        <time>2016-05-06T11:58:57Z</time>
      </trkpt>
      <trkpt lat="45.67302" lon="6.87766">
        <ele>2174.6</ele>
        <time>2016-05-06T11:58:59Z</time>
      </trkpt>
      <trkpt lat="45.67295" lon="6.87775">
        <ele>2174.2</ele>
        <time>2016-05-06T11:59:01Z</time>
      </trkpt>
      <trkpt lat="45.67289" lon="6.87789">
        <ele>2172.8</ele>
        <time>2016-05-06T11:59:03Z</time>
      </trkpt>
      <trkpt lat="45.67286" lon="6.87799">
        <ele>2171.7</ele>
        <time>2016-05-06T11:59:05Z</time>
      </trkpt>
      <trkpt lat="45.67284" lon="6.87799">
        <ele>2171.6</ele>
        <time>2016-05-06T11:59:07Z</time>
      </trkpt>
      <trkpt lat="45.67286" lon="6.87789">
        <ele>2171.3</ele>
        <time>2016-05-06T11:59:09Z</time>
      </trkpt>
      <trkpt lat="45.67288" lon="6.87782">
        <ele>2171.2</ele>
        <time>2016-05-06T11:59:11Z</time>
      </trkpt>
      <trkpt lat="45.67288" lon="6.87778">
        <ele>2171.1</ele>
        <time>2016-05-06T11:59:13Z</time>
      </trkpt>
      <trkpt lat="45.67288" lon="6.87774">
        <ele>2171.2</ele>
        <time>2016-05-06T11:59:15Z</time>
      </trkpt>
      <trkpt lat="45.67287" lon="6.87771">
        <ele>2171.3</ele>
        <time>2016-05-06T11:59:17Z</time>
      </trkpt>
      <trkpt lat="45.67286" lon="6.87767">
        <ele>2171.3</ele>
        <time>2016-05-06T11:59:19Z</time>
      </trkpt>
      <trkpt lat="45.67285" lon="6.87764">
        <ele>2171.6</ele>
        <time>2016-05-06T11:59:21Z</time>
      </trkpt>
      <trkpt lat="45.67284" lon="6.87761">
        <ele>2171.6</ele>
        <time>2016-05-06T11:59:23Z</time>
      </trkpt>
      <trkpt lat="45.67282" lon="6.87756">
        <ele>2172</ele>
        <time>2016-05-06T11:59:25Z</time>
      </trkpt>
      <trkpt lat="45.67282" lon="6.87753">
        <ele>2172.7</ele>
        <time>2016-05-06T11:59:27Z</time>
      </trkpt>
      <trkpt lat="45.67279" lon="6.87749">
        <ele>2173</ele>
        <time>2016-05-06T11:59:29Z</time>
      </trkpt>
      <trkpt lat="45.67277" lon="6.87744">
        <ele>2173.2</ele>
        <time>2016-05-06T11:59:31Z</time>
      </trkpt>
      <trkpt lat="45.67277" lon="6.87743">
        <ele>2173.7</ele>
        <time>2016-05-06T11:59:33Z</time>
      </trkpt>
      <trkpt lat="45.67276" lon="6.87743">
        <ele>2174</ele>
        <time>2016-05-06T11:59:35Z</time>
      </trkpt>
      <trkpt lat="45.67276" lon="6.87743">
        <ele>2174.2</ele>
        <time>2016-05-06T11:59:37Z</time>
      </trkpt>
      <trkpt lat="45.67276" lon="6.87743">
        <ele>2174.3</ele>
        <time>2016-05-06T11:59:39Z</time>
      </trkpt>
      <trkpt lat="45.67276" lon="6.87743">
        <ele>2174.4</ele>
        <time>2016-05-06T11:59:41Z</time>
      </trkpt>
      <trkpt lat="45.67276" lon="6.87743">
        <ele>2174.3</ele>
        <time>2016-05-06T11:59:43Z</time>
      </trkpt>
      <trkpt lat="45.67276" lon="6.87743">
        <ele>2174.3</ele>
        <time>2016-05-06T11:59:45Z</time>
      </trkpt>
      <trkpt lat="45.67275" lon="6.87743">
        <ele>2174.3</ele>
        <time>2016-05-06T11:59:47Z</time>
      </trkpt>
      <trkpt lat="45.67275" lon="6.87743">
        <ele>2174.3</ele>
        <time>2016-05-06T11:59:49Z</time>
      </trkpt>
      <trkpt lat="45.67275" lon="6.87743">
        <ele>2174.3</ele>
        <time>2016-05-06T11:59:51Z</time>
      </trkpt>
      <trkpt lat="45.67275" lon="6.87744">
        <ele>2174.3</ele>
        <time>2016-05-06T11:59:53Z</time>
      </trkpt>
      <trkpt lat="45.67275" lon="6.87744">
        <ele>2174.5</ele>
        <time>2016-05-06T11:59:55Z</time>
      </trkpt>
      <trkpt lat="45.67275" lon="6.87744">
        <ele>2174.5</ele>
        <time>2016-05-06T11:59:57Z</time>
      </trkpt>
      <trkpt lat="45.67275" lon="6.87744">
        <ele>2174.5</ele>
        <time>2016-05-06T11:59:59Z</time>
      </trkpt>
      <trkpt lat="45.67275" lon="6.87745">
        <ele>2174.2</ele>
        <time>2016-05-06T12:00:01Z</time>
      </trkpt>
      <trkpt lat="45.67275" lon="6.87745">
        <ele>2174.3</ele>
        <time>2016-05-06T12:00:03Z</time>
      </trkpt>
      <trkpt lat="45.67275" lon="6.87745">
        <ele>2174.4</ele>
        <time>2016-05-06T12:00:05Z</time>
      </trkpt>
      <trkpt lat="45.67276" lon="6.87745">
        <ele>2174.4</ele>
        <time>2016-05-06T12:00:07Z</time>
      </trkpt>
      <trkpt lat="45.67276" lon="6.87746">
        <ele>2174.3</ele>
        <time>2016-05-06T12:00:09Z</time>
      </trkpt>
      <trkpt lat="45.67276" lon="6.87746">
        <ele>2174.3</ele>
        <time>2016-05-06T12:00:11Z</time>
      </trkpt>
      <trkpt lat="45.67276" lon="6.87745">
        <ele>2174.3</ele>
        <time>2016-05-06T12:00:13Z</time>
      </trkpt>
      <trkpt lat="45.67276" lon="6.87745">
        <ele>2174.4</ele>
        <time>2016-05-06T12:00:15Z</time>
      </trkpt>
      <trkpt lat="45.67275" lon="6.87745">
        <ele>2174.3</ele>
        <time>2016-05-06T12:00:17Z</time>
      </trkpt>
      <trkpt lat="45.67276" lon="6.87744">
        <ele>2174.2</ele>
        <time>2016-05-06T12:00:19Z</time>
      </trkpt>
      <trkpt lat="45.67276" lon="6.87744">
        <ele>2174.3</ele>
        <time>2016-05-06T12:00:21Z</time>
      </trkpt>
      <trkpt lat="45.67276" lon="6.87744">
        <ele>2174.3</ele>
        <time>2016-05-06T12:00:23Z</time>
      </trkpt>
      <trkpt lat="45.67276" lon="6.87744">
        <ele>2173.8</ele>
        <time>2016-05-06T12:00:25Z</time>
      </trkpt>
      <trkpt lat="45.67276" lon="6.87744">
        <ele>2174.4</ele>
        <time>2016-05-06T12:00:27Z</time>
      </trkpt>
      <trkpt lat="45.67277" lon="6.87744">
        <ele>2174.6</ele>
        <time>2016-05-06T12:00:29Z</time>
      </trkpt>
      <trkpt lat="45.67276" lon="6.87744">
        <ele>2174.7</ele>
        <time>2016-05-06T12:00:31Z</time>
      </trkpt>
      <trkpt lat="45.67276" lon="6.87745">
        <ele>2174.6</ele>
        <time>2016-05-06T12:00:33Z</time>
      </trkpt>
      <trkpt lat="45.67276" lon="6.87745">
        <ele>2174.5</ele>
        <time>2016-05-06T12:00:35Z</time>
      </trkpt>
      <trkpt lat="45.67276" lon="6.87744">
        <ele>2174.4</ele>
        <time>2016-05-06T12:00:37Z</time>
      </trkpt>
      <trkpt lat="45.67276" lon="6.87744">
        <ele>2174.5</ele>
        <time>2016-05-06T12:00:39Z</time>
      </trkpt>
      <trkpt lat="45.67276" lon="6.87744">
        <ele>2174.7</ele>
        <time>2016-05-06T12:00:41Z</time>
      </trkpt>
      <trkpt lat="45.67277" lon="6.87746">
        <ele>2174.8</ele>
        <time>2016-05-06T12:00:43Z</time>
      </trkpt>
      <trkpt lat="45.67278" lon="6.87748">
        <ele>2174.6</ele>
        <time>2016-05-06T12:00:45Z</time>
      </trkpt>
      <trkpt lat="45.67278" lon="6.87749">
        <ele>2173</ele>
        <time>2016-05-06T12:00:47Z</time>
      </trkpt>
      <trkpt lat="45.67277" lon="6.87745">
        <ele>2173.9</ele>
        <time>2016-05-06T12:00:49Z</time>
      </trkpt>
      <trkpt lat="45.67276" lon="6.87736">
        <ele>2174.1</ele>
        <time>2016-05-06T12:00:51Z</time>
      </trkpt>
      <trkpt lat="45.67282" lon="6.87725">
        <ele>2174.2</ele>
        <time>2016-05-06T12:00:53Z</time>
      </trkpt>
      <trkpt lat="45.67292" lon="6.87717">
        <ele>2174.3</ele>
        <time>2016-05-06T12:00:55Z</time>
      </trkpt>
      <trkpt lat="45.67305" lon="6.87711">
        <ele>2173.8</ele>
        <time>2016-05-06T12:00:57Z</time>
      </trkpt>
      <trkpt lat="45.6732" lon="6.87702">
        <ele>2172.8</ele>
        <time>2016-05-06T12:00:59Z</time>
      </trkpt>
      <trkpt lat="45.67332" lon="6.87693">
        <ele>2171.6</ele>
        <time>2016-05-06T12:01:01Z</time>
      </trkpt>
      <trkpt lat="45.67342" lon="6.87685">
        <ele>2170.3</ele>
        <time>2016-05-06T12:01:03Z</time>
      </trkpt>
      <trkpt lat="45.67349" lon="6.87681">
        <ele>2169</ele>
        <time>2016-05-06T12:01:05Z</time>
      </trkpt>
      <trkpt lat="45.67354" lon="6.87678">
        <ele>2168.2</ele>
        <time>2016-05-06T12:01:07Z</time>
      </trkpt>
      <trkpt lat="45.67355" lon="6.87676">
        <ele>2167.6</ele>
        <time>2016-05-06T12:01:09Z</time>
      </trkpt>
      <trkpt lat="45.67356" lon="6.87669">
        <ele>2167</ele>
        <time>2016-05-06T12:01:11Z</time>
      </trkpt>
      <trkpt lat="45.6736" lon="6.87661">
        <ele>2166.6</ele>
        <time>2016-05-06T12:01:13Z</time>
      </trkpt>
      <trkpt lat="45.67365" lon="6.87656">
        <ele>2166.6</ele>
        <time>2016-05-06T12:01:15Z</time>
      </trkpt>
      <trkpt lat="45.6737" lon="6.87652">
        <ele>2166.6</ele>
        <time>2016-05-06T12:01:17Z</time>
      </trkpt>
      <trkpt lat="45.67374" lon="6.87645">
        <ele>2166.5</ele>
        <time>2016-05-06T12:01:19Z</time>
      </trkpt>
      <trkpt lat="45.67376" lon="6.87634">
        <ele>2166.1</ele>
        <time>2016-05-06T12:01:21Z</time>
      </trkpt>
      <trkpt lat="45.6738" lon="6.87623">
        <ele>2165.9</ele>
        <time>2016-05-06T12:01:23Z</time>
      </trkpt>
      <trkpt lat="45.67387" lon="6.87614">
        <ele>2166</ele>
        <time>2016-05-06T12:01:25Z</time>
      </trkpt>
      <trkpt lat="45.67394" lon="6.87609">
        <ele>2166</ele>
        <time>2016-05-06T12:01:27Z</time>
      </trkpt>
      <trkpt lat="45.67399" lon="6.87606">
        <ele>2165.7</ele>
        <time>2016-05-06T12:01:29Z</time>
      </trkpt>
      <trkpt lat="45.67401" lon="6.87601">
        <ele>2165.1</ele>
        <time>2016-05-06T12:01:31Z</time>
      </trkpt>
      <trkpt lat="45.67402" lon="6.87594">
        <ele>2164.9</ele>
        <time>2016-05-06T12:01:33Z</time>
      </trkpt>
      <trkpt lat="45.67404" lon="6.87589">
        <ele>2164.9</ele>
        <time>2016-05-06T12:01:35Z</time>
      </trkpt>
      <trkpt lat="45.67405" lon="6.87585">
        <ele>2165.1</ele>
        <time>2016-05-06T12:01:37Z</time>
      </trkpt>
      <trkpt lat="45.67403" lon="6.87577">
        <ele>2165</ele>
        <time>2016-05-06T12:01:39Z</time>
      </trkpt>
      <trkpt lat="45.67405" lon="6.87567">
        <ele>2165.2</ele>
        <time>2016-05-06T12:01:41Z</time>
      </trkpt>
      <trkpt lat="45.67409" lon="6.87558">
        <ele>2165.3</ele>
        <time>2016-05-06T12:01:43Z</time>
      </trkpt>
      <trkpt lat="45.67413" lon="6.8755">
        <ele>2165.4</ele>
        <time>2016-05-06T12:01:45Z</time>
      </trkpt>
      <trkpt lat="45.67416" lon="6.87544">
        <ele>2165.5</ele>
        <time>2016-05-06T12:01:47Z</time>
      </trkpt>
      <trkpt lat="45.6742" lon="6.87538">
        <ele>2165.6</ele>
        <time>2016-05-06T12:01:49Z</time>
      </trkpt>
      <trkpt lat="45.67421" lon="6.8753">
        <ele>2165.9</ele>
        <time>2016-05-06T12:01:51Z</time>
      </trkpt>
      <trkpt lat="45.67422" lon="6.87522">
        <ele>2166.1</ele>
        <time>2016-05-06T12:01:53Z</time>
      </trkpt>
      <trkpt lat="45.67424" lon="6.87514">
        <ele>2166.2</ele>
        <time>2016-05-06T12:01:55Z</time>
      </trkpt>
      <trkpt lat="45.67425" lon="6.87507">
        <ele>2166.4</ele>
        <time>2016-05-06T12:01:57Z</time>
      </trkpt>
      <trkpt lat="45.67426" lon="6.87498">
        <ele>2166.6</ele>
        <time>2016-05-06T12:01:59Z</time>
      </trkpt>
      <trkpt lat="45.67424" lon="6.87488">
        <ele>2166.8</ele>
        <time>2016-05-06T12:02:01Z</time>
      </trkpt>
      <trkpt lat="45.67423" lon="6.87478">
        <ele>2167</ele>
        <time>2016-05-06T12:02:03Z</time>
      </trkpt>
      <trkpt lat="45.67422" lon="6.87472">
        <ele>2167.4</ele>
        <time>2016-05-06T12:02:05Z</time>
      </trkpt>
      <trkpt lat="45.67422" lon="6.87467">
        <ele>2168.2</ele>
        <time>2016-05-06T12:02:07Z</time>
      </trkpt>
      <trkpt lat="45.6742" lon="6.8746">
        <ele>2169.2</ele>
        <time>2016-05-06T12:02:09Z</time>
      </trkpt>
      <trkpt lat="45.67419" lon="6.87452">
        <ele>2169.9</ele>
        <time>2016-05-06T12:02:11Z</time>
      </trkpt>
      <trkpt lat="45.67419" lon="6.87448">
        <ele>2170.8</ele>
        <time>2016-05-06T12:02:13Z</time>
      </trkpt>
      <trkpt lat="45.67415" lon="6.87439">
        <ele>2171.3</ele>
        <time>2016-05-06T12:02:15Z</time>
      </trkpt>
      <trkpt lat="45.67414" lon="6.87432">
        <ele>2172</ele>
        <time>2016-05-06T12:02:17Z</time>
      </trkpt>
      <trkpt lat="45.67412" lon="6.87426">
        <ele>2172.9</ele>
        <time>2016-05-06T12:02:19Z</time>
      </trkpt>
      <trkpt lat="45.67411" lon="6.8742">
        <ele>2173.7</ele>
        <time>2016-05-06T12:02:21Z</time>
      </trkpt>
      <trkpt lat="45.67409" lon="6.87415">
        <ele>2174.5</ele>
        <time>2016-05-06T12:02:23Z</time>
      </trkpt>
      <trkpt lat="45.67407" lon="6.8741">
        <ele>2175.4</ele>
        <time>2016-05-06T12:02:25Z</time>
      </trkpt>
      <trkpt lat="45.67405" lon="6.87406">
        <ele>2176.2</ele>
        <time>2016-05-06T12:02:27Z</time>
      </trkpt>
      <trkpt lat="45.67403" lon="6.87402">
        <ele>2176.7</ele>
        <time>2016-05-06T12:02:29Z</time>
      </trkpt>
      <trkpt lat="45.67401" lon="6.87399">
        <ele>2177.5</ele>
        <time>2016-05-06T12:02:31Z</time>
      </trkpt>
      <trkpt lat="45.674" lon="6.87397">
        <ele>2178.1</ele>
        <time>2016-05-06T12:02:33Z</time>
      </trkpt>
      <trkpt lat="45.67398" lon="6.87392">
        <ele>2178.6</ele>
        <time>2016-05-06T12:02:35Z</time>
      </trkpt>
      <trkpt lat="45.67398" lon="6.8739">
        <ele>2179.3</ele>
        <time>2016-05-06T12:02:37Z</time>
      </trkpt>
      <trkpt lat="45.67397" lon="6.87395">
        <ele>2179.1</ele>
        <time>2016-05-06T12:02:39Z</time>
      </trkpt>
      <trkpt lat="45.674" lon="6.87404">
        <ele>2178.3</ele>
        <time>2016-05-06T12:02:41Z</time>
      </trkpt>
      <trkpt lat="45.67403" lon="6.87415">
        <ele>2176.9</ele>
        <time>2016-05-06T12:02:43Z</time>
      </trkpt>
      <trkpt lat="45.67406" lon="6.87428">
        <ele>2175.1</ele>
        <time>2016-05-06T12:02:45Z</time>
      </trkpt>
      <trkpt lat="45.6741" lon="6.87443">
        <ele>2173.1</ele>
        <time>2016-05-06T12:02:47Z</time>
      </trkpt>
      <trkpt lat="45.67412" lon="6.87457">
        <ele>2171.4</ele>
        <time>2016-05-06T12:02:49Z</time>
      </trkpt>
      <trkpt lat="45.67415" lon="6.87471">
        <ele>2169.6</ele>
        <time>2016-05-06T12:02:51Z</time>
      </trkpt>
      <trkpt lat="45.67418" lon="6.87484">
        <ele>2168.1</ele>
        <time>2016-05-06T12:02:53Z</time>
      </trkpt>
      <trkpt lat="45.6742" lon="6.87495">
        <ele>2166.9</ele>
        <time>2016-05-06T12:02:55Z</time>
      </trkpt>
      <trkpt lat="45.67421" lon="6.87503">
        <ele>2166.2</ele>
        <time>2016-05-06T12:02:57Z</time>
      </trkpt>
      <trkpt lat="45.67422" lon="6.87506">
        <ele>2165.8</ele>
        <time>2016-05-06T12:02:59Z</time>
      </trkpt>
      <trkpt lat="45.67421" lon="6.87505">
        <ele>2165.3</ele>
        <time>2016-05-06T12:03:01Z</time>
      </trkpt>
      <trkpt lat="45.67421" lon="6.87499">
        <ele>2165.8</ele>
        <time>2016-05-06T12:03:03Z</time>
      </trkpt>
      <trkpt lat="45.67423" lon="6.87496">
        <ele>2166.1</ele>
        <time>2016-05-06T12:03:05Z</time>
      </trkpt>
      <trkpt lat="45.67423" lon="6.87495">
        <ele>2166.4</ele>
        <time>2016-05-06T12:03:07Z</time>
      </trkpt>
      <trkpt lat="45.67423" lon="6.8749">
        <ele>2166.4</ele>
        <time>2016-05-06T12:03:09Z</time>
      </trkpt>
      <trkpt lat="45.67424" lon="6.87485">
        <ele>2166.6</ele>
        <time>2016-05-06T12:03:11Z</time>
      </trkpt>
      <trkpt lat="45.67424" lon="6.87483">
        <ele>2167</ele>
        <time>2016-05-06T12:03:13Z</time>
      </trkpt>
      <trkpt lat="45.67424" lon="6.87478">
        <ele>2167.3</ele>
        <time>2016-05-06T12:03:15Z</time>
      </trkpt>
      <trkpt lat="45.67423" lon="6.87475">
        <ele>2167.6</ele>
        <time>2016-05-06T12:03:17Z</time>
      </trkpt>
      <trkpt lat="45.67423" lon="6.87471">
        <ele>2168.3</ele>
        <time>2016-05-06T12:03:19Z</time>
      </trkpt>
      <trkpt lat="45.67423" lon="6.87467">
        <ele>2168.6</ele>
        <time>2016-05-06T12:03:21Z</time>
      </trkpt>
      <trkpt lat="45.67422" lon="6.87461">
        <ele>2169.3</ele>
        <time>2016-05-06T12:03:23Z</time>
      </trkpt>
      <trkpt lat="45.67421" lon="6.87456">
        <ele>2169.7</ele>
        <time>2016-05-06T12:03:25Z</time>
      </trkpt>
      <trkpt lat="45.6742" lon="6.87449">
        <ele>2170.3</ele>
        <time>2016-05-06T12:03:27Z</time>
      </trkpt>
      <trkpt lat="45.6742" lon="6.87444">
        <ele>2170.8</ele>
        <time>2016-05-06T12:03:29Z</time>
      </trkpt>
      <trkpt lat="45.67419" lon="6.87438">
        <ele>2171.3</ele>
        <time>2016-05-06T12:03:31Z</time>
      </trkpt>
      <trkpt lat="45.67418" lon="6.87433">
        <ele>2172.3</ele>
        <time>2016-05-06T12:03:33Z</time>
      </trkpt>
      <trkpt lat="45.67417" lon="6.8743">
        <ele>2173</ele>
        <time>2016-05-06T12:03:35Z</time>
      </trkpt>
      <trkpt lat="45.67416" lon="6.87425">
        <ele>2173.8</ele>
        <time>2016-05-06T12:03:37Z</time>
      </trkpt>
      <trkpt lat="45.67415" lon="6.87422">
        <ele>2174.3</ele>
        <time>2016-05-06T12:03:39Z</time>
      </trkpt>
      <trkpt lat="45.67415" lon="6.87418">
        <ele>2175.1</ele>
        <time>2016-05-06T12:03:41Z</time>
      </trkpt>
      <trkpt lat="45.67414" lon="6.87416">
        <ele>2175.7</ele>
        <time>2016-05-06T12:03:43Z</time>
      </trkpt>
      <trkpt lat="45.67413" lon="6.87412">
        <ele>2176.4</ele>
        <time>2016-05-06T12:03:45Z</time>
      </trkpt>
      <trkpt lat="45.67413" lon="6.8741">
        <ele>2177.1</ele>
        <time>2016-05-06T12:03:47Z</time>
      </trkpt>
      <trkpt lat="45.67413" lon="6.87409">
        <ele>2177.9</ele>
        <time>2016-05-06T12:03:49Z</time>
      </trkpt>
      <trkpt lat="45.67413" lon="6.87406">
        <ele>2178.2</ele>
        <time>2016-05-06T12:03:51Z</time>
      </trkpt>
      <trkpt lat="45.67411" lon="6.87403">
        <ele>2178.9</ele>
        <time>2016-05-06T12:03:53Z</time>
      </trkpt>
      <trkpt lat="45.67409" lon="6.874">
        <ele>2179.3</ele>
        <time>2016-05-06T12:03:55Z</time>
      </trkpt>
      <trkpt lat="45.67409" lon="6.87397">
        <ele>2179.8</ele>
        <time>2016-05-06T12:03:57Z</time>
      </trkpt>
      <trkpt lat="45.67407" lon="6.87394">
        <ele>2180.7</ele>
        <time>2016-05-06T12:03:59Z</time>
      </trkpt>
      <trkpt lat="45.67406" lon="6.87391">
        <ele>2181.5</ele>
        <time>2016-05-06T12:04:01Z</time>
      </trkpt>
      <trkpt lat="45.67404" lon="6.87387">
        <ele>2182.2</ele>
        <time>2016-05-06T12:04:03Z</time>
      </trkpt>
      <trkpt lat="45.67403" lon="6.87385">
        <ele>2183</ele>
        <time>2016-05-06T12:04:05Z</time>
      </trkpt>
      <trkpt lat="45.67402" lon="6.87381">
        <ele>2183.7</ele>
        <time>2016-05-06T12:04:07Z</time>
      </trkpt>
      <trkpt lat="45.67401" lon="6.8738">
        <ele>2184</ele>
        <time>2016-05-06T12:04:09Z</time>
      </trkpt>
      <trkpt lat="45.674" lon="6.87376">
        <ele>2184.1</ele>
        <time>2016-05-06T12:04:11Z</time>
      </trkpt>
      <trkpt lat="45.67399" lon="6.87374">
        <ele>2184.7</ele>
        <time>2016-05-06T12:04:13Z</time>
      </trkpt>
      <trkpt lat="45.67399" lon="6.87375">
        <ele>2185.3</ele>
        <time>2016-05-06T12:04:15Z</time>
      </trkpt>
      <trkpt lat="45.67401" lon="6.8738">
        <ele>2185.1</ele>
        <time>2016-05-06T12:04:17Z</time>
      </trkpt>
      <trkpt lat="45.67404" lon="6.87388">
        <ele>2184</ele>
        <time>2016-05-06T12:04:19Z</time>
      </trkpt>
      <trkpt lat="45.67408" lon="6.87396">
        <ele>2183</ele>
        <time>2016-05-06T12:04:21Z</time>
      </trkpt>
      <trkpt lat="45.67412" lon="6.87407">
        <ele>2181.9</ele>
        <time>2016-05-06T12:04:23Z</time>
      </trkpt>
      <trkpt lat="45.67416" lon="6.87419">
        <ele>2180.1</ele>
        <time>2016-05-06T12:04:25Z</time>
      </trkpt>
      <trkpt lat="45.6742" lon="6.87433">
        <ele>2178.1</ele>
        <time>2016-05-06T12:04:27Z</time>
      </trkpt>
      <trkpt lat="45.67424" lon="6.87446">
        <ele>2175.8</ele>
        <time>2016-05-06T12:04:29Z</time>
      </trkpt>
      <trkpt lat="45.67428" lon="6.87459">
        <ele>2174</ele>
        <time>2016-05-06T12:04:31Z</time>
      </trkpt>
      <trkpt lat="45.67432" lon="6.87471">
        <ele>2172.2</ele>
        <time>2016-05-06T12:04:33Z</time>
      </trkpt>
      <trkpt lat="45.67435" lon="6.87483">
        <ele>2170.7</ele>
        <time>2016-05-06T12:04:35Z</time>
      </trkpt>
      <trkpt lat="45.67438" lon="6.87495">
        <ele>2169.2</ele>
        <time>2016-05-06T12:04:37Z</time>
      </trkpt>
      <trkpt lat="45.6744" lon="6.87506">
        <ele>2168</ele>
        <time>2016-05-06T12:04:39Z</time>
      </trkpt>
      <trkpt lat="45.67441" lon="6.87513">
        <ele>2167.6</ele>
        <time>2016-05-06T12:04:41Z</time>
      </trkpt>
      <trkpt lat="45.67441" lon="6.87516">
        <ele>2167.8</ele>
        <time>2016-05-06T12:04:43Z</time>
      </trkpt>
      <trkpt lat="45.6744" lon="6.8751">
        <ele>2167.7</ele>
        <time>2016-05-06T12:04:45Z</time>
      </trkpt>
      <trkpt lat="45.67442" lon="6.87505">
        <ele>2167.8</ele>
        <time>2016-05-06T12:04:47Z</time>
      </trkpt>
      <trkpt lat="45.67443" lon="6.87502">
        <ele>2167.9</ele>
        <time>2016-05-06T12:04:49Z</time>
      </trkpt>
      <trkpt lat="45.67445" lon="6.87495">
        <ele>2167.9</ele>
        <time>2016-05-06T12:04:51Z</time>
      </trkpt>
      <trkpt lat="45.67446" lon="6.8749">
        <ele>2168.2</ele>
        <time>2016-05-06T12:04:53Z</time>
      </trkpt>
      <trkpt lat="45.67447" lon="6.87485">
        <ele>2168.4</ele>
        <time>2016-05-06T12:04:55Z</time>
      </trkpt>
      <trkpt lat="45.67448" lon="6.8748">
        <ele>2169.2</ele>
        <time>2016-05-06T12:04:57Z</time>
      </trkpt>
      <trkpt lat="45.67449" lon="6.87475">
        <ele>2170</ele>
        <time>2016-05-06T12:04:59Z</time>
      </trkpt>
      <trkpt lat="45.67449" lon="6.87471">
        <ele>2170.4</ele>
        <time>2016-05-06T12:05:01Z</time>
      </trkpt>
      <trkpt lat="45.67449" lon="6.87465">
        <ele>2170.9</ele>
        <time>2016-05-06T12:05:03Z</time>
      </trkpt>
      <trkpt lat="45.67449" lon="6.8746">
        <ele>2171.8</ele>
        <time>2016-05-06T12:05:05Z</time>
      </trkpt>
      <trkpt lat="45.67449" lon="6.87455">
        <ele>2172.5</ele>
        <time>2016-05-06T12:05:07Z</time>
      </trkpt>
      <trkpt lat="45.67449" lon="6.87451">
        <ele>2173.4</ele>
        <time>2016-05-06T12:05:09Z</time>
      </trkpt>
      <trkpt lat="45.67449" lon="6.87447">
        <ele>2174.1</ele>
        <time>2016-05-06T12:05:11Z</time>
      </trkpt>
      <trkpt lat="45.67449" lon="6.87444">
        <ele>2174.8</ele>
        <time>2016-05-06T12:05:13Z</time>
      </trkpt>
      <trkpt lat="45.67448" lon="6.87441">
        <ele>2175.6</ele>
        <time>2016-05-06T12:05:15Z</time>
      </trkpt>
      <trkpt lat="45.67447" lon="6.87437">
        <ele>2176.5</ele>
        <time>2016-05-06T12:05:17Z</time>
      </trkpt>
      <trkpt lat="45.67446" lon="6.87435">
        <ele>2177.2</ele>
        <time>2016-05-06T12:05:19Z</time>
      </trkpt>
      <trkpt lat="45.67445" lon="6.87431">
        <ele>2177.8</ele>
        <time>2016-05-06T12:05:21Z</time>
      </trkpt>
      <trkpt lat="45.67444" lon="6.87429">
        <ele>2178.4</ele>
        <time>2016-05-06T12:05:23Z</time>
      </trkpt>
      <trkpt lat="45.67442" lon="6.87425">
        <ele>2179</ele>
        <time>2016-05-06T12:05:25Z</time>
      </trkpt>
      <trkpt lat="45.67442" lon="6.87423">
        <ele>2179.7</ele>
        <time>2016-05-06T12:05:27Z</time>
      </trkpt>
      <trkpt lat="45.6744" lon="6.87419">
        <ele>2180.2</ele>
        <time>2016-05-06T12:05:29Z</time>
      </trkpt>
      <trkpt lat="45.67439" lon="6.87416">
        <ele>2180.8</ele>
        <time>2016-05-06T12:05:31Z</time>
      </trkpt>
      <trkpt lat="45.67438" lon="6.87413">
        <ele>2181.5</ele>
        <time>2016-05-06T12:05:33Z</time>
      </trkpt>
      <trkpt lat="45.67438" lon="6.87411">
        <ele>2182.3</ele>
        <time>2016-05-06T12:05:35Z</time>
      </trkpt>
      <trkpt lat="45.67437" lon="6.87408">
        <ele>2183.1</ele>
        <time>2016-05-06T12:05:37Z</time>
      </trkpt>
      <trkpt lat="45.67436" lon="6.87405">
        <ele>2183.6</ele>
        <time>2016-05-06T12:05:39Z</time>
      </trkpt>
      <trkpt lat="45.67435" lon="6.87403">
        <ele>2184.3</ele>
        <time>2016-05-06T12:05:41Z</time>
      </trkpt>
      <trkpt lat="45.67433" lon="6.87399">
        <ele>2184.8</ele>
        <time>2016-05-06T12:05:43Z</time>
      </trkpt>
      <trkpt lat="45.67432" lon="6.87396">
        <ele>2185.4</ele>
        <time>2016-05-06T12:05:45Z</time>
      </trkpt>
      <trkpt lat="45.67431" lon="6.87392">
        <ele>2185.8</ele>
        <time>2016-05-06T12:05:47Z</time>
      </trkpt>
      <trkpt lat="45.67431" lon="6.87388">
        <ele>2186.5</ele>
        <time>2016-05-06T12:05:49Z</time>
      </trkpt>
      <trkpt lat="45.6743" lon="6.87384">
        <ele>2187.5</ele>
        <time>2016-05-06T12:05:51Z</time>
      </trkpt>
      <trkpt lat="45.67429" lon="6.87381">
        <ele>2188.5</ele>
        <time>2016-05-06T12:05:53Z</time>
      </trkpt>
      <trkpt lat="45.67429" lon="6.87377">
        <ele>2189.2</ele>
        <time>2016-05-06T12:05:55Z</time>
      </trkpt>
      <trkpt lat="45.67427" lon="6.87372">
        <ele>2189.8</ele>
        <time>2016-05-06T12:05:57Z</time>
      </trkpt>
      <trkpt lat="45.67425" lon="6.87368">
        <ele>2191.1</ele>
        <time>2016-05-06T12:05:59Z</time>
      </trkpt>
      <trkpt lat="45.67425" lon="6.87363">
        <ele>2192.1</ele>
        <time>2016-05-06T12:06:01Z</time>
      </trkpt>
      <trkpt lat="45.67425" lon="6.87358">
        <ele>2193</ele>
        <time>2016-05-06T12:06:03Z</time>
      </trkpt>
      <trkpt lat="45.67425" lon="6.87354">
        <ele>2194</ele>
        <time>2016-05-06T12:06:05Z</time>
      </trkpt>
      <trkpt lat="45.67424" lon="6.87348">
        <ele>2195.2</ele>
        <time>2016-05-06T12:06:07Z</time>
      </trkpt>
      <trkpt lat="45.67423" lon="6.87343">
        <ele>2196.4</ele>
        <time>2016-05-06T12:06:09Z</time>
      </trkpt>
      <trkpt lat="45.67424" lon="6.87342">
        <ele>2197.5</ele>
        <time>2016-05-06T12:06:11Z</time>
      </trkpt>
      <trkpt lat="45.67423" lon="6.87347">
        <ele>2198.1</ele>
        <time>2016-05-06T12:06:13Z</time>
      </trkpt>
      <trkpt lat="45.67427" lon="6.87353">
        <ele>2197.8</ele>
        <time>2016-05-06T12:06:15Z</time>
      </trkpt>
      <trkpt lat="45.6743" lon="6.87361">
        <ele>2196.6</ele>
        <time>2016-05-06T12:06:17Z</time>
      </trkpt>
      <trkpt lat="45.67434" lon="6.8737">
        <ele>2195.4</ele>
        <time>2016-05-06T12:06:19Z</time>
      </trkpt>
      <trkpt lat="45.67438" lon="6.87381">
        <ele>2193.6</ele>
        <time>2016-05-06T12:06:21Z</time>
      </trkpt>
      <trkpt lat="45.67443" lon="6.8739">
        <ele>2191.8</ele>
        <time>2016-05-06T12:06:23Z</time>
      </trkpt>
      <trkpt lat="45.67448" lon="6.87399">
        <ele>2190.5</ele>
        <time>2016-05-06T12:06:25Z</time>
      </trkpt>
      <trkpt lat="45.67452" lon="6.87409">
        <ele>2188.8</ele>
        <time>2016-05-06T12:06:27Z</time>
      </trkpt>
      <trkpt lat="45.67458" lon="6.87419">
        <ele>2186.7</ele>
        <time>2016-05-06T12:06:29Z</time>
      </trkpt>
      <trkpt lat="45.67462" lon="6.87428">
        <ele>2184.7</ele>
        <time>2016-05-06T12:06:31Z</time>
      </trkpt>
      <trkpt lat="45.67466" lon="6.87438">
        <ele>2183</ele>
        <time>2016-05-06T12:06:33Z</time>
      </trkpt>
      <trkpt lat="45.67471" lon="6.87449">
        <ele>2181.6</ele>
        <time>2016-05-06T12:06:35Z</time>
      </trkpt>
      <trkpt lat="45.67477" lon="6.8746">
        <ele>2179.4</ele>
        <time>2016-05-06T12:06:37Z</time>
      </trkpt>
      <trkpt lat="45.67482" lon="6.87471">
        <ele>2177.1</ele>
        <time>2016-05-06T12:06:39Z</time>
      </trkpt>
      <trkpt lat="45.67488" lon="6.87484">
        <ele>2174.9</ele>
        <time>2016-05-06T12:06:41Z</time>
      </trkpt>
      <trkpt lat="45.67493" lon="6.87495">
        <ele>2173</ele>
        <time>2016-05-06T12:06:43Z</time>
      </trkpt>
      <trkpt lat="45.67495" lon="6.87504">
        <ele>2171.8</ele>
        <time>2016-05-06T12:06:45Z</time>
      </trkpt>
      <trkpt lat="45.67497" lon="6.87511">
        <ele>2171</ele>
        <time>2016-05-06T12:06:47Z</time>
      </trkpt>
      <trkpt lat="45.67495" lon="6.87514">
        <ele>2170</ele>
        <time>2016-05-06T12:06:49Z</time>
      </trkpt>
      <trkpt lat="45.67494" lon="6.87509">
        <ele>2170.4</ele>
        <time>2016-05-06T12:06:51Z</time>
      </trkpt>
      <trkpt lat="45.67494" lon="6.87501">
        <ele>2170.8</ele>
        <time>2016-05-06T12:06:53Z</time>
      </trkpt>
      <trkpt lat="45.67492" lon="6.87496">
        <ele>2171.1</ele>
        <time>2016-05-06T12:06:55Z</time>
      </trkpt>
      <trkpt lat="45.67493" lon="6.87492">
        <ele>2171.4</ele>
        <time>2016-05-06T12:06:57Z</time>
      </trkpt>
      <trkpt lat="45.67492" lon="6.87487">
        <ele>2171.8</ele>
        <time>2016-05-06T12:06:59Z</time>
      </trkpt>
      <trkpt lat="45.67492" lon="6.87482">
        <ele>2172.4</ele>
        <time>2016-05-06T12:07:01Z</time>
      </trkpt>
      <trkpt lat="45.67491" lon="6.8748">
        <ele>2173.1</ele>
        <time>2016-05-06T12:07:03Z</time>
      </trkpt>
      <trkpt lat="45.67489" lon="6.87474">
        <ele>2173.8</ele>
        <time>2016-05-06T12:07:05Z</time>
      </trkpt>
      <trkpt lat="45.67488" lon="6.87471">
        <ele>2174.5</ele>
        <time>2016-05-06T12:07:07Z</time>
      </trkpt>
      <trkpt lat="45.67487" lon="6.87467">
        <ele>2175.2</ele>
        <time>2016-05-06T12:07:09Z</time>
      </trkpt>
      <trkpt lat="45.67486" lon="6.87466">
        <ele>2175.7</ele>
        <time>2016-05-06T12:07:11Z</time>
      </trkpt>
      <trkpt lat="45.67486" lon="6.87464">
        <ele>2176.5</ele>
        <time>2016-05-06T12:07:13Z</time>
      </trkpt>
      <trkpt lat="45.67486" lon="6.87461">
        <ele>2176.9</ele>
        <time>2016-05-06T12:07:15Z</time>
      </trkpt>
      <trkpt lat="45.67485" lon="6.87459">
        <ele>2177.5</ele>
        <time>2016-05-06T12:07:17Z</time>
      </trkpt>
      <trkpt lat="45.67484" lon="6.87455">
        <ele>2178.2</ele>
        <time>2016-05-06T12:07:19Z</time>
      </trkpt>
      <trkpt lat="45.67483" lon="6.87452">
        <ele>2178.9</ele>
        <time>2016-05-06T12:07:21Z</time>
      </trkpt>
      <trkpt lat="45.67482" lon="6.8745">
        <ele>2179.8</ele>
        <time>2016-05-06T12:07:23Z</time>
      </trkpt>
      <trkpt lat="45.6748" lon="6.87447">
        <ele>2180.4</ele>
        <time>2016-05-06T12:07:25Z</time>
      </trkpt>
      <trkpt lat="45.67479" lon="6.87445">
        <ele>2181.2</ele>
        <time>2016-05-06T12:07:27Z</time>
      </trkpt>
      <trkpt lat="45.67478" lon="6.87442">
        <ele>2181.9</ele>
        <time>2016-05-06T12:07:29Z</time>
      </trkpt>
      <trkpt lat="45.67477" lon="6.8744">
        <ele>2182.5</ele>
        <time>2016-05-06T12:07:31Z</time>
      </trkpt>
      <trkpt lat="45.67476" lon="6.87436">
        <ele>2183.1</ele>
        <time>2016-05-06T12:07:33Z</time>
      </trkpt>
      <trkpt lat="45.67475" lon="6.87433">
        <ele>2183.5</ele>
        <time>2016-05-06T12:07:35Z</time>
      </trkpt>
      <trkpt lat="45.67473" lon="6.87429">
        <ele>2184.3</ele>
        <time>2016-05-06T12:07:37Z</time>
      </trkpt>
      <trkpt lat="45.67472" lon="6.87426">
        <ele>2185.1</ele>
        <time>2016-05-06T12:07:39Z</time>
      </trkpt>
      <trkpt lat="45.67471" lon="6.87422">
        <ele>2185.7</ele>
        <time>2016-05-06T12:07:41Z</time>
      </trkpt>
      <trkpt lat="45.67469" lon="6.87418">
        <ele>2186.3</ele>
        <time>2016-05-06T12:07:43Z</time>
      </trkpt>
      <trkpt lat="45.67468" lon="6.87414">
        <ele>2187</ele>
        <time>2016-05-06T12:07:45Z</time>
      </trkpt>
      <trkpt lat="45.67468" lon="6.87411">
        <ele>2188</ele>
        <time>2016-05-06T12:07:47Z</time>
      </trkpt>
      <trkpt lat="45.67467" lon="6.87409">
        <ele>2188.7</ele>
        <time>2016-05-06T12:07:49Z</time>
      </trkpt>
      <trkpt lat="45.67466" lon="6.87405">
        <ele>2189.5</ele>
        <time>2016-05-06T12:07:51Z</time>
      </trkpt>
      <trkpt lat="45.67463" lon="6.87399">
        <ele>2190.3</ele>
        <time>2016-05-06T12:07:53Z</time>
      </trkpt>
      <trkpt lat="45.67461" lon="6.87394">
        <ele>2191.3</ele>
        <time>2016-05-06T12:07:55Z</time>
      </trkpt>
      <trkpt lat="45.67459" lon="6.87388">
        <ele>2192</ele>
        <time>2016-05-06T12:07:57Z</time>
      </trkpt>
      <trkpt lat="45.67457" lon="6.87382">
        <ele>2193.2</ele>
        <time>2016-05-06T12:07:59Z</time>
      </trkpt>
      <trkpt lat="45.67457" lon="6.8738">
        <ele>2194.5</ele>
        <time>2016-05-06T12:08:01Z</time>
      </trkpt>
      <trkpt lat="45.67458" lon="6.87384">
        <ele>2195.1</ele>
        <time>2016-05-06T12:08:03Z</time>
      </trkpt>
      <trkpt lat="45.67461" lon="6.87392">
        <ele>2194.4</ele>
        <time>2016-05-06T12:08:05Z</time>
      </trkpt>
      <trkpt lat="45.67465" lon="6.874">
        <ele>2193.1</ele>
        <time>2016-05-06T12:08:07Z</time>
      </trkpt>
      <trkpt lat="45.67469" lon="6.87409">
        <ele>2191.3</ele>
        <time>2016-05-06T12:08:09Z</time>
      </trkpt>
      <trkpt lat="45.67474" lon="6.87417">
        <ele>2190</ele>
        <time>2016-05-06T12:08:11Z</time>
      </trkpt>
      <trkpt lat="45.67477" lon="6.87424">
        <ele>2188.7</ele>
        <time>2016-05-06T12:08:13Z</time>
      </trkpt>
      <trkpt lat="45.67481" lon="6.87431">
        <ele>2187.4</ele>
        <time>2016-05-06T12:08:15Z</time>
      </trkpt>
      <trkpt lat="45.67486" lon="6.87439">
        <ele>2186.4</ele>
        <time>2016-05-06T12:08:17Z</time>
      </trkpt>
      <trkpt lat="45.67491" lon="6.87446">
        <ele>2184.9</ele>
        <time>2016-05-06T12:08:19Z</time>
      </trkpt>
      <trkpt lat="45.67496" lon="6.87454">
        <ele>2183.3</ele>
        <time>2016-05-06T12:08:21Z</time>
      </trkpt>
      <trkpt lat="45.67502" lon="6.87462">
        <ele>2181.5</ele>
        <time>2016-05-06T12:08:23Z</time>
      </trkpt>
      <trkpt lat="45.67508" lon="6.87469">
        <ele>2179.1</ele>
        <time>2016-05-06T12:08:25Z</time>
      </trkpt>
      <trkpt lat="45.67514" lon="6.87478">
        <ele>2177</ele>
        <time>2016-05-06T12:08:27Z</time>
      </trkpt>
      <trkpt lat="45.67518" lon="6.87485">
        <ele>2175.6</ele>
        <time>2016-05-06T12:08:29Z</time>
      </trkpt>
      <trkpt lat="45.67519" lon="6.87489">
        <ele>2175.6</ele>
        <time>2016-05-06T12:08:31Z</time>
      </trkpt>
      <trkpt lat="45.67517" lon="6.87487">
        <ele>2175.5</ele>
        <time>2016-05-06T12:08:33Z</time>
      </trkpt>
      <trkpt lat="45.67517" lon="6.87481">
        <ele>2175.5</ele>
        <time>2016-05-06T12:08:35Z</time>
      </trkpt>
      <trkpt lat="45.67517" lon="6.87475">
        <ele>2175.6</ele>
        <time>2016-05-06T12:08:37Z</time>
      </trkpt>
      <trkpt lat="45.67515" lon="6.87471">
        <ele>2176</ele>
        <time>2016-05-06T12:08:39Z</time>
      </trkpt>
      <trkpt lat="45.67514" lon="6.87468">
        <ele>2176.3</ele>
        <time>2016-05-06T12:08:41Z</time>
      </trkpt>
      <trkpt lat="45.67512" lon="6.87466">
        <ele>2176.8</ele>
        <time>2016-05-06T12:08:43Z</time>
      </trkpt>
      <trkpt lat="45.6751" lon="6.87462">
        <ele>2177.5</ele>
        <time>2016-05-06T12:08:45Z</time>
      </trkpt>
      <trkpt lat="45.67508" lon="6.87459">
        <ele>2178.5</ele>
        <time>2016-05-06T12:08:47Z</time>
      </trkpt>
      <trkpt lat="45.67506" lon="6.87454">
        <ele>2179.7</ele>
        <time>2016-05-06T12:08:49Z</time>
      </trkpt>
      <trkpt lat="45.67505" lon="6.87449">
        <ele>2181.1</ele>
        <time>2016-05-06T12:08:51Z</time>
      </trkpt>
      <trkpt lat="45.67503" lon="6.87443">
        <ele>2182.5</ele>
        <time>2016-05-06T12:08:53Z</time>
      </trkpt>
      <trkpt lat="45.67502" lon="6.8744">
        <ele>2184.2</ele>
        <time>2016-05-06T12:08:55Z</time>
      </trkpt>
      <trkpt lat="45.67502" lon="6.87437">
        <ele>2185.5</ele>
        <time>2016-05-06T12:08:57Z</time>
      </trkpt>
      <trkpt lat="45.67503" lon="6.87435">
        <ele>2186.8</ele>
        <time>2016-05-06T12:08:59Z</time>
      </trkpt>
      <trkpt lat="45.67502" lon="6.87433">
        <ele>2187.4</ele>
        <time>2016-05-06T12:09:01Z</time>
      </trkpt>
      <trkpt lat="45.67499" lon="6.87428">
        <ele>2188.5</ele>
        <time>2016-05-06T12:09:03Z</time>
      </trkpt>
      <trkpt lat="45.67498" lon="6.87424">
        <ele>2189.4</ele>
        <time>2016-05-06T12:09:05Z</time>
      </trkpt>
      <trkpt lat="45.67497" lon="6.87422">
        <ele>2190.4</ele>
        <time>2016-05-06T12:09:07Z</time>
      </trkpt>
      <trkpt lat="45.67495" lon="6.87418">
        <ele>2191.2</ele>
        <time>2016-05-06T12:09:09Z</time>
      </trkpt>
      <trkpt lat="45.67494" lon="6.87414">
        <ele>2192.2</ele>
        <time>2016-05-06T12:09:11Z</time>
      </trkpt>
      <trkpt lat="45.67493" lon="6.87409">
        <ele>2193.2</ele>
        <time>2016-05-06T12:09:13Z</time>
      </trkpt>
      <trkpt lat="45.67492" lon="6.87405">
        <ele>2194.3</ele>
        <time>2016-05-06T12:09:15Z</time>
      </trkpt>
      <trkpt lat="45.67492" lon="6.87401">
        <ele>2195.2</ele>
        <time>2016-05-06T12:09:17Z</time>
      </trkpt>
      <trkpt lat="45.67491" lon="6.87398">
        <ele>2196.5</ele>
        <time>2016-05-06T12:09:19Z</time>
      </trkpt>
      <trkpt lat="45.6749" lon="6.87395">
        <ele>2197.7</ele>
        <time>2016-05-06T12:09:21Z</time>
      </trkpt>
      <trkpt lat="45.67488" lon="6.8739">
        <ele>2198.5</ele>
        <time>2016-05-06T12:09:23Z</time>
      </trkpt>
      <trkpt lat="45.67487" lon="6.87385">
        <ele>2199.5</ele>
        <time>2016-05-06T12:09:25Z</time>
      </trkpt>
      <trkpt lat="45.67485" lon="6.8738">
        <ele>2200.5</ele>
        <time>2016-05-06T12:09:27Z</time>
      </trkpt>
      <trkpt lat="45.67484" lon="6.87377">
        <ele>2201.6</ele>
        <time>2016-05-06T12:09:29Z</time>
      </trkpt>
      <trkpt lat="45.67485" lon="6.87378">
        <ele>2202.2</ele>
        <time>2016-05-06T12:09:31Z</time>
      </trkpt>
      <trkpt lat="45.67489" lon="6.87385">
        <ele>2201.7</ele>
        <time>2016-05-06T12:09:33Z</time>
      </trkpt>
      <trkpt lat="45.67493" lon="6.87391">
        <ele>2200.6</ele>
        <time>2016-05-06T12:09:35Z</time>
      </trkpt>
      <trkpt lat="45.67497" lon="6.87399">
        <ele>2199.9</ele>
        <time>2016-05-06T12:09:37Z</time>
      </trkpt>
      <trkpt lat="45.67502" lon="6.87405">
        <ele>2198.9</ele>
        <time>2016-05-06T12:09:39Z</time>
      </trkpt>
      <trkpt lat="45.67507" lon="6.87412">
        <ele>2197.7</ele>
        <time>2016-05-06T12:09:41Z</time>
      </trkpt>
      <trkpt lat="45.67513" lon="6.87418">
        <ele>2196</ele>
        <time>2016-05-06T12:09:43Z</time>
      </trkpt>
      <trkpt lat="45.67518" lon="6.87427">
        <ele>2194.1</ele>
        <time>2016-05-06T12:09:45Z</time>
      </trkpt>
      <trkpt lat="45.67525" lon="6.87436">
        <ele>2191.7</ele>
        <time>2016-05-06T12:09:47Z</time>
      </trkpt>
      <trkpt lat="45.67533" lon="6.87445">
        <ele>2189.6</ele>
        <time>2016-05-06T12:09:49Z</time>
      </trkpt>
      <trkpt lat="45.67541" lon="6.87455">
        <ele>2187.1</ele>
        <time>2016-05-06T12:09:51Z</time>
      </trkpt>
      <trkpt lat="45.67548" lon="6.87466">
        <ele>2184.4</ele>
        <time>2016-05-06T12:09:53Z</time>
      </trkpt>
      <trkpt lat="45.67552" lon="6.87474">
        <ele>2182.4</ele>
        <time>2016-05-06T12:09:55Z</time>
      </trkpt>
      <trkpt lat="45.67555" lon="6.8748">
        <ele>2181</ele>
        <time>2016-05-06T12:09:57Z</time>
      </trkpt>
      <trkpt lat="45.67557" lon="6.87483">
        <ele>2180</ele>
        <time>2016-05-06T12:09:59Z</time>
      </trkpt>
      <trkpt lat="45.67554" lon="6.87485">
        <ele>2179.8</ele>
        <time>2016-05-06T12:10:01Z</time>
      </trkpt>
      <trkpt lat="45.67555" lon="6.87485">
        <ele>2179.8</ele>
        <time>2016-05-06T12:10:03Z</time>
      </trkpt>
      <trkpt lat="45.67554" lon="6.87485">
        <ele>2179</ele>
        <time>2016-05-06T12:10:06Z</time>
      </trkpt>
      <trkpt lat="45.67554" lon="6.87485">
        <ele>2179.6</ele>
        <time>2016-05-06T12:10:09Z</time>
      </trkpt>
      <trkpt lat="45.67554" lon="6.87485">
        <ele>2179.5</ele>
        <time>2016-05-06T12:10:11Z</time>
      </trkpt>
      <trkpt lat="45.67554" lon="6.87485">
        <ele>2179.5</ele>
        <time>2016-05-06T12:10:13Z</time>
      </trkpt>
      <trkpt lat="45.67553" lon="6.87485">
        <ele>2179.4</ele>
        <time>2016-05-06T12:10:15Z</time>
      </trkpt>
      <trkpt lat="45.67553" lon="6.87485">
        <ele>2179.2</ele>
        <time>2016-05-06T12:10:17Z</time>
      </trkpt>
      <trkpt lat="45.67553" lon="6.87485">
        <ele>2179.1</ele>
        <time>2016-05-06T12:10:19Z</time>
      </trkpt>
      <trkpt lat="45.67553" lon="6.87485">
        <ele>2179.1</ele>
        <time>2016-05-06T12:10:21Z</time>
      </trkpt>
      <trkpt lat="45.67553" lon="6.87485">
        <ele>2179.1</ele>
        <time>2016-05-06T12:10:23Z</time>
      </trkpt>
      <trkpt lat="45.67552" lon="6.87485">
        <ele>2179.2</ele>
        <time>2016-05-06T12:10:25Z</time>
      </trkpt>
      <trkpt lat="45.67552" lon="6.87485">
        <ele>2179.1</ele>
        <time>2016-05-06T12:10:27Z</time>
      </trkpt>
      <trkpt lat="45.67552" lon="6.87485">
        <ele>2179.1</ele>
        <time>2016-05-06T12:10:29Z</time>
      </trkpt>
      <trkpt lat="45.67552" lon="6.87485">
        <ele>2179</ele>
        <time>2016-05-06T12:10:31Z</time>
      </trkpt>
      <trkpt lat="45.67552" lon="6.87485">
        <ele>2179</ele>
        <time>2016-05-06T12:10:33Z</time>
      </trkpt>
      <trkpt lat="45.67552" lon="6.87485">
        <ele>2178.9</ele>
        <time>2016-05-06T12:10:35Z</time>
      </trkpt>
      <trkpt lat="45.67552" lon="6.87485">
        <ele>2179</ele>
        <time>2016-05-06T12:10:37Z</time>
      </trkpt>
      <trkpt lat="45.67552" lon="6.87485">
        <ele>2178.9</ele>
        <time>2016-05-06T12:10:39Z</time>
      </trkpt>
      <trkpt lat="45.67552" lon="6.87485">
        <ele>2178.9</ele>
        <time>2016-05-06T12:10:41Z</time>
      </trkpt>
      <trkpt lat="45.67552" lon="6.87485">
        <ele>2178.9</ele>
        <time>2016-05-06T12:10:43Z</time>
      </trkpt>
      <trkpt lat="45.67552" lon="6.87485">
        <ele>2178.8</ele>
        <time>2016-05-06T12:10:45Z</time>
      </trkpt>
      <trkpt lat="45.67552" lon="6.87485">
        <ele>2178.8</ele>
        <time>2016-05-06T12:10:47Z</time>
      </trkpt>
      <trkpt lat="45.67552" lon="6.87485">
        <ele>2178.7</ele>
        <time>2016-05-06T12:10:49Z</time>
      </trkpt>
      <trkpt lat="45.67551" lon="6.87485">
        <ele>2178.8</ele>
        <time>2016-05-06T12:10:51Z</time>
      </trkpt>
      <trkpt lat="45.67551" lon="6.87484">
        <ele>2178.9</ele>
        <time>2016-05-06T12:10:53Z</time>
      </trkpt>
      <trkpt lat="45.67551" lon="6.87484">
        <ele>2178.9</ele>
        <time>2016-05-06T12:10:55Z</time>
      </trkpt>
      <trkpt lat="45.67551" lon="6.87484">
        <ele>2178.9</ele>
        <time>2016-05-06T12:10:57Z</time>
      </trkpt>
      <trkpt lat="45.67551" lon="6.87484">
        <ele>2178.9</ele>
        <time>2016-05-06T12:10:59Z</time>
      </trkpt>
      <trkpt lat="45.67551" lon="6.87484">
        <ele>2179</ele>
        <time>2016-05-06T12:11:01Z</time>
      </trkpt>
      <trkpt lat="45.67551" lon="6.87484">
        <ele>2179</ele>
        <time>2016-05-06T12:11:03Z</time>
      </trkpt>
      <trkpt lat="45.67551" lon="6.87484">
        <ele>2178.9</ele>
        <time>2016-05-06T12:11:05Z</time>
      </trkpt>
      <trkpt lat="45.67551" lon="6.87484">
        <ele>2178.9</ele>
        <time>2016-05-06T12:11:07Z</time>
      </trkpt>
      <trkpt lat="45.67551" lon="6.87484">
        <ele>2179</ele>
        <time>2016-05-06T12:11:09Z</time>
      </trkpt>
      <trkpt lat="45.67551" lon="6.87485">
        <ele>2179</ele>
        <time>2016-05-06T12:11:11Z</time>
      </trkpt>
      <trkpt lat="45.67551" lon="6.87485">
        <ele>2179</ele>
        <time>2016-05-06T12:11:13Z</time>
      </trkpt>
      <trkpt lat="45.67551" lon="6.87485">
        <ele>2178.9</ele>
        <time>2016-05-06T12:11:15Z</time>
      </trkpt>
      <trkpt lat="45.67551" lon="6.87485">
        <ele>2178.8</ele>
        <time>2016-05-06T12:11:17Z</time>
      </trkpt>
      <trkpt lat="45.67551" lon="6.87485">
        <ele>2178.7</ele>
        <time>2016-05-06T12:11:19Z</time>
      </trkpt>
      <trkpt lat="45.67551" lon="6.87484">
        <ele>2178.8</ele>
        <time>2016-05-06T12:11:21Z</time>
      </trkpt>
      <trkpt lat="45.6755" lon="6.87484">
        <ele>2178.7</ele>
        <time>2016-05-06T12:11:23Z</time>
      </trkpt>
      <trkpt lat="45.67551" lon="6.87484">
        <ele>2178.8</ele>
        <time>2016-05-06T12:11:25Z</time>
      </trkpt>
      <trkpt lat="45.67551" lon="6.87484">
        <ele>2178.9</ele>
        <time>2016-05-06T12:11:27Z</time>
      </trkpt>
      <trkpt lat="45.67551" lon="6.87484">
        <ele>2178.9</ele>
        <time>2016-05-06T12:11:29Z</time>
      </trkpt>
      <trkpt lat="45.6755" lon="6.87484">
        <ele>2178.9</ele>
        <time>2016-05-06T12:11:31Z</time>
      </trkpt>
      <trkpt lat="45.6755" lon="6.87484">
        <ele>2179</ele>
        <time>2016-05-06T12:11:33Z</time>
      </trkpt>
      <trkpt lat="45.6755" lon="6.87484">
        <ele>2179.1</ele>
        <time>2016-05-06T12:11:35Z</time>
      </trkpt>
      <trkpt lat="45.6755" lon="6.87484">
        <ele>2179.2</ele>
        <time>2016-05-06T12:11:37Z</time>
      </trkpt>
      <trkpt lat="45.6755" lon="6.87484">
        <ele>2179.1</ele>
        <time>2016-05-06T12:11:39Z</time>
      </trkpt>
      <trkpt lat="45.6755" lon="6.87484">
        <ele>2179</ele>
        <time>2016-05-06T12:11:41Z</time>
      </trkpt>
      <trkpt lat="45.6755" lon="6.87484">
        <ele>2179</ele>
        <time>2016-05-06T12:11:43Z</time>
      </trkpt>
      <trkpt lat="45.6755" lon="6.87484">
        <ele>2179</ele>
        <time>2016-05-06T12:11:45Z</time>
      </trkpt>
      <trkpt lat="45.67549" lon="6.87483">
        <ele>2179</ele>
        <time>2016-05-06T12:11:47Z</time>
      </trkpt>
      <trkpt lat="45.67549" lon="6.87483">
        <ele>2178.9</ele>
        <time>2016-05-06T12:11:49Z</time>
      </trkpt>
      <trkpt lat="45.67549" lon="6.87483">
        <ele>2179</ele>
        <time>2016-05-06T12:11:51Z</time>
      </trkpt>
      <trkpt lat="45.67549" lon="6.87483">
        <ele>2178.9</ele>
        <time>2016-05-06T12:11:53Z</time>
      </trkpt>
      <trkpt lat="45.67549" lon="6.87484">
        <ele>2178.8</ele>
        <time>2016-05-06T12:11:55Z</time>
      </trkpt>
      <trkpt lat="45.67549" lon="6.87484">
        <ele>2178.8</ele>
        <time>2016-05-06T12:11:57Z</time>
      </trkpt>
      <trkpt lat="45.67549" lon="6.87483">
        <ele>2178.9</ele>
        <time>2016-05-06T12:11:59Z</time>
      </trkpt>
      <trkpt lat="45.67549" lon="6.87483">
        <ele>2178.9</ele>
        <time>2016-05-06T12:12:01Z</time>
      </trkpt>
      <trkpt lat="45.67549" lon="6.87483">
        <ele>2178.9</ele>
        <time>2016-05-06T12:12:03Z</time>
      </trkpt>
      <trkpt lat="45.67549" lon="6.87483">
        <ele>2179</ele>
        <time>2016-05-06T12:12:05Z</time>
      </trkpt>
      <trkpt lat="45.67549" lon="6.87483">
        <ele>2178.9</ele>
        <time>2016-05-06T12:12:07Z</time>
      </trkpt>
      <trkpt lat="45.67549" lon="6.87482">
        <ele>2178.9</ele>
        <time>2016-05-06T12:12:09Z</time>
      </trkpt>
      <trkpt lat="45.67549" lon="6.87481">
        <ele>2178.8</ele>
        <time>2016-05-06T12:12:11Z</time>
      </trkpt>
      <trkpt lat="45.67549" lon="6.87481">
        <ele>2179</ele>
        <time>2016-05-06T12:12:13Z</time>
      </trkpt>
      <trkpt lat="45.67549" lon="6.87481">
        <ele>2179</ele>
        <time>2016-05-06T12:12:15Z</time>
      </trkpt>
      <trkpt lat="45.6755" lon="6.87481">
        <ele>2179.1</ele>
        <time>2016-05-06T12:12:17Z</time>
      </trkpt>
      <trkpt lat="45.6755" lon="6.87481">
        <ele>2179.1</ele>
        <time>2016-05-06T12:12:19Z</time>
      </trkpt>
      <trkpt lat="45.6755" lon="6.87481">
        <ele>2179</ele>
        <time>2016-05-06T12:12:21Z</time>
      </trkpt>
      <trkpt lat="45.6755" lon="6.87482">
        <ele>2179</ele>
        <time>2016-05-06T12:12:23Z</time>
      </trkpt>
      <trkpt lat="45.67551" lon="6.87481">
        <ele>2179</ele>
        <time>2016-05-06T12:12:25Z</time>
      </trkpt>
      <trkpt lat="45.67551" lon="6.87487">
        <ele>2178.8</ele>
        <time>2016-05-06T12:12:27Z</time>
      </trkpt>
      <trkpt lat="45.67549" lon="6.87495">
        <ele>2178.6</ele>
        <time>2016-05-06T12:12:29Z</time>
      </trkpt>
      <trkpt lat="45.67546" lon="6.87507">
        <ele>2177.6</ele>
        <time>2016-05-06T12:12:31Z</time>
      </trkpt>
      <trkpt lat="45.67544" lon="6.87521">
        <ele>2176.4</ele>
        <time>2016-05-06T12:12:33Z</time>
      </trkpt>
      <trkpt lat="45.67541" lon="6.87536">
        <ele>2175.1</ele>
        <time>2016-05-06T12:12:35Z</time>
      </trkpt>
      <trkpt lat="45.67537" lon="6.87547">
        <ele>2174.2</ele>
        <time>2016-05-06T12:12:37Z</time>
      </trkpt>
      <trkpt lat="45.67536" lon="6.87547">
        <ele>2173.1</ele>
        <time>2016-05-06T12:12:39Z</time>
      </trkpt>
      <trkpt lat="45.67536" lon="6.87547">
        <ele>2172.9</ele>
        <time>2016-05-06T12:12:41Z</time>
      </trkpt>
      <trkpt lat="45.67536" lon="6.87546">
        <ele>2172.9</ele>
        <time>2016-05-06T12:12:43Z</time>
      </trkpt>
      <trkpt lat="45.67536" lon="6.87545">
        <ele>2172.9</ele>
        <time>2016-05-06T12:12:45Z</time>
      </trkpt>
      <trkpt lat="45.67536" lon="6.87545">
        <ele>2173</ele>
        <time>2016-05-06T12:12:47Z</time>
      </trkpt>
      <trkpt lat="45.67536" lon="6.87546">
        <ele>2172.8</ele>
        <time>2016-05-06T12:12:49Z</time>
      </trkpt>
      <trkpt lat="45.67535" lon="6.87546">
        <ele>2172.8</ele>
        <time>2016-05-06T12:12:51Z</time>
      </trkpt>
      <trkpt lat="45.67536" lon="6.87546">
        <ele>2172.9</ele>
        <time>2016-05-06T12:12:53Z</time>
      </trkpt>
      <trkpt lat="45.67535" lon="6.87545">
        <ele>2172.9</ele>
        <time>2016-05-06T12:12:55Z</time>
      </trkpt>
      <trkpt lat="45.67533" lon="6.87547">
        <ele>2172.8</ele>
        <time>2016-05-06T12:12:57Z</time>
      </trkpt>
      <trkpt lat="45.67531" lon="6.87556">
        <ele>2172.3</ele>
        <time>2016-05-06T12:12:59Z</time>
      </trkpt>
      <trkpt lat="45.67528" lon="6.87567">
        <ele>2171.7</ele>
        <time>2016-05-06T12:13:01Z</time>
      </trkpt>
      <trkpt lat="45.67525" lon="6.87578">
        <ele>2170.9</ele>
        <time>2016-05-06T12:13:03Z</time>
      </trkpt>
      <trkpt lat="45.67522" lon="6.8759">
        <ele>2170.2</ele>
        <time>2016-05-06T12:13:05Z</time>
      </trkpt>
      <trkpt lat="45.67517" lon="6.87607">
        <ele>2168</ele>
        <time>2016-05-06T12:13:08Z</time>
      </trkpt>
      <trkpt lat="45.67514" lon="6.87624">
        <ele>2168.1</ele>
        <time>2016-05-06T12:13:11Z</time>
      </trkpt>
      <trkpt lat="45.67512" lon="6.87636">
        <ele>2167.5</ele>
        <time>2016-05-06T12:13:13Z</time>
      </trkpt>
      <trkpt lat="45.6751" lon="6.87647">
        <ele>2166.5</ele>
        <time>2016-05-06T12:13:15Z</time>
      </trkpt>
      <trkpt lat="45.67507" lon="6.8766">
        <ele>2166.1</ele>
        <time>2016-05-06T12:13:17Z</time>
      </trkpt>
      <trkpt lat="45.67507" lon="6.8767">
        <ele>2165.9</ele>
        <time>2016-05-06T12:13:19Z</time>
      </trkpt>
      <trkpt lat="45.67507" lon="6.87678">
        <ele>2165.8</ele>
        <time>2016-05-06T12:13:21Z</time>
      </trkpt>
      <trkpt lat="45.67506" lon="6.87683">
        <ele>2165.8</ele>
        <time>2016-05-06T12:13:23Z</time>
      </trkpt>
      <trkpt lat="45.67503" lon="6.87686">
        <ele>2166</ele>
        <time>2016-05-06T12:13:25Z</time>
      </trkpt>
      <trkpt lat="45.675" lon="6.87692">
        <ele>2166.3</ele>
        <time>2016-05-06T12:13:27Z</time>
      </trkpt>
      <trkpt lat="45.67498" lon="6.87698">
        <ele>2166</ele>
        <time>2016-05-06T12:13:29Z</time>
      </trkpt>
      <trkpt lat="45.67495" lon="6.877">
        <ele>2166.3</ele>
        <time>2016-05-06T12:13:31Z</time>
      </trkpt>
      <trkpt lat="45.67493" lon="6.87705">
        <ele>2166.5</ele>
        <time>2016-05-06T12:13:33Z</time>
      </trkpt>
      <trkpt lat="45.67489" lon="6.87709">
        <ele>2166.8</ele>
        <time>2016-05-06T12:13:35Z</time>
      </trkpt>
      <trkpt lat="45.67485" lon="6.87715">
        <ele>2166.9</ele>
        <time>2016-05-06T12:13:37Z</time>
      </trkpt>
      <trkpt lat="45.67484" lon="6.87721">
        <ele>2166.8</ele>
        <time>2016-05-06T12:13:39Z</time>
      </trkpt>
      <trkpt lat="45.67481" lon="6.87723">
        <ele>2166.9</ele>
        <time>2016-05-06T12:13:41Z</time>
      </trkpt>
      <trkpt lat="45.67475" lon="6.87727">
        <ele>2166.9</ele>
        <time>2016-05-06T12:13:43Z</time>
      </trkpt>
      <trkpt lat="45.6747" lon="6.87731">
        <ele>2166.8</ele>
        <time>2016-05-06T12:13:45Z</time>
      </trkpt>
      <trkpt lat="45.67467" lon="6.87734">
        <ele>2167.1</ele>
        <time>2016-05-06T12:13:47Z</time>
      </trkpt>
      <trkpt lat="45.67463" lon="6.87735">
        <ele>2167.3</ele>
        <time>2016-05-06T12:13:49Z</time>
      </trkpt>
      <trkpt lat="45.67458" lon="6.87739">
        <ele>2167.4</ele>
        <time>2016-05-06T12:13:51Z</time>
      </trkpt>
      <trkpt lat="45.67456" lon="6.87743">
        <ele>2167.4</ele>
        <time>2016-05-06T12:13:53Z</time>
      </trkpt>
      <trkpt lat="45.67453" lon="6.87746">
        <ele>2167.7</ele>
        <time>2016-05-06T12:13:55Z</time>
      </trkpt>
      <trkpt lat="45.67449" lon="6.87749">
        <ele>2167.8</ele>
        <time>2016-05-06T12:13:57Z</time>
      </trkpt>
      <trkpt lat="45.67446" lon="6.87751">
        <ele>2168.1</ele>
        <time>2016-05-06T12:13:59Z</time>
      </trkpt>
      <trkpt lat="45.67442" lon="6.87754">
        <ele>2168.3</ele>
        <time>2016-05-06T12:14:01Z</time>
      </trkpt>
      <trkpt lat="45.67439" lon="6.87755">
        <ele>2168.4</ele>
        <time>2016-05-06T12:14:03Z</time>
      </trkpt>
      <trkpt lat="45.67435" lon="6.87758">
        <ele>2168.8</ele>
        <time>2016-05-06T12:14:05Z</time>
      </trkpt>
      <trkpt lat="45.67429" lon="6.8776">
        <ele>2169.3</ele>
        <time>2016-05-06T12:14:07Z</time>
      </trkpt>
      <trkpt lat="45.67423" lon="6.87764">
        <ele>2169.5</ele>
        <time>2016-05-06T12:14:09Z</time>
      </trkpt>
      <trkpt lat="45.67419" lon="6.87771">
        <ele>2169.5</ele>
        <time>2016-05-06T12:14:11Z</time>
      </trkpt>
      <trkpt lat="45.67417" lon="6.87776">
        <ele>2169.6</ele>
        <time>2016-05-06T12:14:13Z</time>
      </trkpt>
      <trkpt lat="45.67412" lon="6.87778">
        <ele>2169.9</ele>
        <time>2016-05-06T12:14:15Z</time>
      </trkpt>
      <trkpt lat="45.67406" lon="6.87784">
        <ele>2170.2</ele>
        <time>2016-05-06T12:14:17Z</time>
      </trkpt>
      <trkpt lat="45.67402" lon="6.87791">
        <ele>2170.8</ele>
        <time>2016-05-06T12:14:19Z</time>
      </trkpt>
      <trkpt lat="45.67396" lon="6.87796">
        <ele>2171.4</ele>
        <time>2016-05-06T12:14:21Z</time>
      </trkpt>
      <trkpt lat="45.67389" lon="6.87799">
        <ele>2171.8</ele>
        <time>2016-05-06T12:14:23Z</time>
      </trkpt>
      <trkpt lat="45.67384" lon="6.87806">
        <ele>2171.8</ele>
        <time>2016-05-06T12:14:25Z</time>
      </trkpt>
      <trkpt lat="45.6738" lon="6.8781">
        <ele>2171.7</ele>
        <time>2016-05-06T12:14:27Z</time>
      </trkpt>
      <trkpt lat="45.67374" lon="6.87811">
        <ele>2172.1</ele>
        <time>2016-05-06T12:14:29Z</time>
      </trkpt>
      <trkpt lat="45.67371" lon="6.87814">
        <ele>2172.5</ele>
        <time>2016-05-06T12:14:31Z</time>
      </trkpt>
      <trkpt lat="45.67368" lon="6.87815">
        <ele>2173.1</ele>
        <time>2016-05-06T12:14:33Z</time>
      </trkpt>
      <trkpt lat="45.67363" lon="6.87817">
        <ele>2173.4</ele>
        <time>2016-05-06T12:14:35Z</time>
      </trkpt>
      <trkpt lat="45.6736" lon="6.8782">
        <ele>2173.6</ele>
        <time>2016-05-06T12:14:37Z</time>
      </trkpt>
      <trkpt lat="45.6736" lon="6.8782">
        <ele>2174</ele>
        <time>2016-05-06T12:14:39Z</time>
      </trkpt>
      <trkpt lat="45.67358" lon="6.8782">
        <ele>2174.4</ele>
        <time>2016-05-06T12:14:41Z</time>
      </trkpt>
      <trkpt lat="45.67355" lon="6.87821">
        <ele>2174.8</ele>
        <time>2016-05-06T12:14:43Z</time>
      </trkpt>
      <trkpt lat="45.67353" lon="6.87819">
        <ele>2175.3</ele>
        <time>2016-05-06T12:14:45Z</time>
      </trkpt>
      <trkpt lat="45.67348" lon="6.87817">
        <ele>2175.7</ele>
        <time>2016-05-06T12:14:47Z</time>
      </trkpt>
      <trkpt lat="45.67345" lon="6.87817">
        <ele>2176.1</ele>
        <time>2016-05-06T12:14:49Z</time>
      </trkpt>
      <trkpt lat="45.67342" lon="6.87817">
        <ele>2176.9</ele>
        <time>2016-05-06T12:14:51Z</time>
      </trkpt>
      <trkpt lat="45.6734" lon="6.87817">
        <ele>2177.3</ele>
        <time>2016-05-06T12:14:53Z</time>
      </trkpt>
      <trkpt lat="45.67337" lon="6.87817">
        <ele>2177.9</ele>
        <time>2016-05-06T12:14:55Z</time>
      </trkpt>
      <trkpt lat="45.67333" lon="6.8782">
        <ele>2178.3</ele>
        <time>2016-05-06T12:14:57Z</time>
      </trkpt>
      <trkpt lat="45.67328" lon="6.87823">
        <ele>2178.9</ele>
        <time>2016-05-06T12:14:59Z</time>
      </trkpt>
      <trkpt lat="45.67324" lon="6.87828">
        <ele>2179.1</ele>
        <time>2016-05-06T12:15:01Z</time>
      </trkpt>
      <trkpt lat="45.67322" lon="6.87834">
        <ele>2179.2</ele>
        <time>2016-05-06T12:15:03Z</time>
      </trkpt>
      <trkpt lat="45.6732" lon="6.87839">
        <ele>2179.5</ele>
        <time>2016-05-06T12:15:05Z</time>
      </trkpt>
      <trkpt lat="45.67316" lon="6.87843">
        <ele>2179.4</ele>
        <time>2016-05-06T12:15:07Z</time>
      </trkpt>
      <trkpt lat="45.67312" lon="6.87846">
        <ele>2179.6</ele>
        <time>2016-05-06T12:15:09Z</time>
      </trkpt>
      <trkpt lat="45.6731" lon="6.87847">
        <ele>2180.2</ele>
        <time>2016-05-06T12:15:11Z</time>
      </trkpt>
      <trkpt lat="45.67306" lon="6.87849">
        <ele>2179.9</ele>
        <time>2016-05-06T12:15:13Z</time>
      </trkpt>
      <trkpt lat="45.67303" lon="6.87851">
        <ele>2181.2</ele>
        <time>2016-05-06T12:15:15Z</time>
      </trkpt>
      <trkpt lat="45.67297" lon="6.87851">
        <ele>2182.2</ele>
        <time>2016-05-06T12:15:17Z</time>
      </trkpt>
      <trkpt lat="45.67293" lon="6.87852">
        <ele>2183.1</ele>
        <time>2016-05-06T12:15:19Z</time>
      </trkpt>
      <trkpt lat="45.67289" lon="6.87852">
        <ele>2183.8</ele>
        <time>2016-05-06T12:15:21Z</time>
      </trkpt>
      <trkpt lat="45.67286" lon="6.87853">
        <ele>2185.6</ele>
        <time>2016-05-06T12:15:23Z</time>
      </trkpt>
      <trkpt lat="45.67283" lon="6.87854">
        <ele>2186.5</ele>
        <time>2016-05-06T12:15:25Z</time>
      </trkpt>
      <trkpt lat="45.67281" lon="6.87855">
        <ele>2187.7</ele>
        <time>2016-05-06T12:15:27Z</time>
      </trkpt>
      <trkpt lat="45.67277" lon="6.87855">
        <ele>2188.3</ele>
        <time>2016-05-06T12:15:29Z</time>
      </trkpt>
      <trkpt lat="45.67274" lon="6.87856">
        <ele>2189.9</ele>
        <time>2016-05-06T12:15:31Z</time>
      </trkpt>
      <trkpt lat="45.6727" lon="6.87857">
        <ele>2191.5</ele>
        <time>2016-05-06T12:15:33Z</time>
      </trkpt>
      <trkpt lat="45.67269" lon="6.87858">
        <ele>2192.4</ele>
        <time>2016-05-06T12:15:35Z</time>
      </trkpt>
      <trkpt lat="45.67265" lon="6.87859">
        <ele>2193.9</ele>
        <time>2016-05-06T12:15:37Z</time>
      </trkpt>
      <trkpt lat="45.67263" lon="6.87859">
        <ele>2195.1</ele>
        <time>2016-05-06T12:15:39Z</time>
      </trkpt>
      <trkpt lat="45.67259" lon="6.8786">
        <ele>2196.5</ele>
        <time>2016-05-06T12:15:41Z</time>
      </trkpt>
      <trkpt lat="45.67256" lon="6.87861">
        <ele>2197</ele>
        <time>2016-05-06T12:15:43Z</time>
      </trkpt>
      <trkpt lat="45.67253" lon="6.87863">
        <ele>2198.3</ele>
        <time>2016-05-06T12:15:45Z</time>
      </trkpt>
      <trkpt lat="45.67248" lon="6.87864">
        <ele>2199.7</ele>
        <time>2016-05-06T12:15:47Z</time>
      </trkpt>
      <trkpt lat="45.67245" lon="6.87865">
        <ele>2200.9</ele>
        <time>2016-05-06T12:15:49Z</time>
      </trkpt>
      <trkpt lat="45.67242" lon="6.87865">
        <ele>2202.2</ele>
        <time>2016-05-06T12:15:51Z</time>
      </trkpt>
      <trkpt lat="45.67238" lon="6.87865">
        <ele>2203.2</ele>
        <time>2016-05-06T12:15:53Z</time>
      </trkpt>
      <trkpt lat="45.67235" lon="6.87864">
        <ele>2204.1</ele>
        <time>2016-05-06T12:15:55Z</time>
      </trkpt>
      <trkpt lat="45.67229" lon="6.87864">
        <ele>2204.6</ele>
        <time>2016-05-06T12:15:57Z</time>
      </trkpt>
      <trkpt lat="45.67227" lon="6.87865">
        <ele>2205.2</ele>
        <time>2016-05-06T12:15:59Z</time>
      </trkpt>
      <trkpt lat="45.67223" lon="6.87864">
        <ele>2205.7</ele>
        <time>2016-05-06T12:16:01Z</time>
      </trkpt>
      <trkpt lat="45.67218" lon="6.87863">
        <ele>2206.4</ele>
        <time>2016-05-06T12:16:03Z</time>
      </trkpt>
      <trkpt lat="45.67217" lon="6.87863">
        <ele>2207.2</ele>
        <time>2016-05-06T12:16:05Z</time>
      </trkpt>
      <trkpt lat="45.67213" lon="6.87863">
        <ele>2207.6</ele>
        <time>2016-05-06T12:16:07Z</time>
      </trkpt>
      <trkpt lat="45.67211" lon="6.87864">
        <ele>2208</ele>
        <time>2016-05-06T12:16:09Z</time>
      </trkpt>
      <trkpt lat="45.67209" lon="6.87865">
        <ele>2209</ele>
        <time>2016-05-06T12:16:11Z</time>
      </trkpt>
      <trkpt lat="45.67206" lon="6.87866">
        <ele>2209.8</ele>
        <time>2016-05-06T12:16:13Z</time>
      </trkpt>
      <trkpt lat="45.67202" lon="6.87868">
        <ele>2210.5</ele>
        <time>2016-05-06T12:16:15Z</time>
      </trkpt>
      <trkpt lat="45.67197" lon="6.8787">
        <ele>2211.2</ele>
        <time>2016-05-06T12:16:17Z</time>
      </trkpt>
      <trkpt lat="45.67194" lon="6.87872">
        <ele>2211.8</ele>
        <time>2016-05-06T12:16:19Z</time>
      </trkpt>
      <trkpt lat="45.67189" lon="6.87873">
        <ele>2212.3</ele>
        <time>2016-05-06T12:16:21Z</time>
      </trkpt>
      <trkpt lat="45.67187" lon="6.87875">
        <ele>2212.7</ele>
        <time>2016-05-06T12:16:23Z</time>
      </trkpt>
      <trkpt lat="45.67186" lon="6.87876">
        <ele>2213</ele>
        <time>2016-05-06T12:16:25Z</time>
      </trkpt>
      <trkpt lat="45.67183" lon="6.87877">
        <ele>2213.2</ele>
        <time>2016-05-06T12:16:27Z</time>
      </trkpt>
      <trkpt lat="45.6718" lon="6.87878">
        <ele>2213.2</ele>
        <time>2016-05-06T12:16:29Z</time>
      </trkpt>
      <trkpt lat="45.67175" lon="6.87879">
        <ele>2213.3</ele>
        <time>2016-05-06T12:16:31Z</time>
      </trkpt>
      <trkpt lat="45.6717" lon="6.87881">
        <ele>2212.9</ele>
        <time>2016-05-06T12:16:33Z</time>
      </trkpt>
      <trkpt lat="45.67168" lon="6.87881">
        <ele>2213.3</ele>
        <time>2016-05-06T12:16:35Z</time>
      </trkpt>
      <trkpt lat="45.67165" lon="6.87881">
        <ele>2213.7</ele>
        <time>2016-05-06T12:16:37Z</time>
      </trkpt>
      <trkpt lat="45.67162" lon="6.87881">
        <ele>2213.9</ele>
        <time>2016-05-06T12:16:39Z</time>
      </trkpt>
      <trkpt lat="45.6716" lon="6.87881">
        <ele>2214.3</ele>
        <time>2016-05-06T12:16:41Z</time>
      </trkpt>
      <trkpt lat="45.67156" lon="6.87881">
        <ele>2214.5</ele>
        <time>2016-05-06T12:16:43Z</time>
      </trkpt>
      <trkpt lat="45.67155" lon="6.87881">
        <ele>2214.9</ele>
        <time>2016-05-06T12:16:45Z</time>
      </trkpt>
      <trkpt lat="45.67152" lon="6.87881">
        <ele>2215.3</ele>
        <time>2016-05-06T12:16:47Z</time>
      </trkpt>
      <trkpt lat="45.6715" lon="6.87881">
        <ele>2215.4</ele>
        <time>2016-05-06T12:16:49Z</time>
      </trkpt>
      <trkpt lat="45.67147" lon="6.8788">
        <ele>2215.6</ele>
        <time>2016-05-06T12:16:51Z</time>
      </trkpt>
      <trkpt lat="45.67143" lon="6.8788">
        <ele>2215.5</ele>
        <time>2016-05-06T12:16:53Z</time>
      </trkpt>
      <trkpt lat="45.67142" lon="6.87879">
        <ele>2215.7</ele>
        <time>2016-05-06T12:16:55Z</time>
      </trkpt>
      <trkpt lat="45.67138" lon="6.87878">
        <ele>2215.9</ele>
        <time>2016-05-06T12:16:57Z</time>
      </trkpt>
      <trkpt lat="45.67134" lon="6.87878">
        <ele>2216</ele>
        <time>2016-05-06T12:16:59Z</time>
      </trkpt>
      <trkpt lat="45.67131" lon="6.87877">
        <ele>2216.4</ele>
        <time>2016-05-06T12:17:01Z</time>
      </trkpt>
      <trkpt lat="45.67128" lon="6.87877">
        <ele>2216.7</ele>
        <time>2016-05-06T12:17:03Z</time>
      </trkpt>
      <trkpt lat="45.67126" lon="6.87876">
        <ele>2216.9</ele>
        <time>2016-05-06T12:17:05Z</time>
      </trkpt>
      <trkpt lat="45.67123" lon="6.87874">
        <ele>2217.3</ele>
        <time>2016-05-06T12:17:07Z</time>
      </trkpt>
      <trkpt lat="45.6712" lon="6.87871">
        <ele>2217.5</ele>
        <time>2016-05-06T12:17:09Z</time>
      </trkpt>
      <trkpt lat="45.67117" lon="6.87869">
        <ele>2217.9</ele>
        <time>2016-05-06T12:17:11Z</time>
      </trkpt>
      <trkpt lat="45.67114" lon="6.87865">
        <ele>2218.2</ele>
        <time>2016-05-06T12:17:13Z</time>
      </trkpt>
      <trkpt lat="45.67112" lon="6.87864">
        <ele>2218.9</ele>
        <time>2016-05-06T12:17:15Z</time>
      </trkpt>
      <trkpt lat="45.67109" lon="6.87863">
        <ele>2219.6</ele>
        <time>2016-05-06T12:17:17Z</time>
      </trkpt>
      <trkpt lat="45.67107" lon="6.87862">
        <ele>2220.3</ele>
        <time>2016-05-06T12:17:19Z</time>
      </trkpt>
      <trkpt lat="45.67104" lon="6.8786">
        <ele>2221</ele>
        <time>2016-05-06T12:17:21Z</time>
      </trkpt>
      <trkpt lat="45.67101" lon="6.87859">
        <ele>2221.9</ele>
        <time>2016-05-06T12:17:23Z</time>
      </trkpt>
      <trkpt lat="45.67097" lon="6.87858">
        <ele>2222.8</ele>
        <time>2016-05-06T12:17:25Z</time>
      </trkpt>
      <trkpt lat="45.67094" lon="6.87858">
        <ele>2223.9</ele>
        <time>2016-05-06T12:17:27Z</time>
      </trkpt>
      <trkpt lat="45.6709" lon="6.87858">
        <ele>2224.9</ele>
        <time>2016-05-06T12:17:29Z</time>
      </trkpt>
      <trkpt lat="45.67086" lon="6.87858">
        <ele>2226</ele>
        <time>2016-05-06T12:17:31Z</time>
      </trkpt>
      <trkpt lat="45.67082" lon="6.87858">
        <ele>2227</ele>
        <time>2016-05-06T12:17:33Z</time>
      </trkpt>
      <trkpt lat="45.67077" lon="6.87857">
        <ele>2227.9</ele>
        <time>2016-05-06T12:17:35Z</time>
      </trkpt>
      <trkpt lat="45.67074" lon="6.87857">
        <ele>2228.7</ele>
        <time>2016-05-06T12:17:37Z</time>
      </trkpt>
      <trkpt lat="45.67071" lon="6.87857">
        <ele>2229.8</ele>
        <time>2016-05-06T12:17:39Z</time>
      </trkpt>
      <trkpt lat="45.67068" lon="6.87857">
        <ele>2230.5</ele>
        <time>2016-05-06T12:17:41Z</time>
      </trkpt>
      <trkpt lat="45.67064" lon="6.87856">
        <ele>2231.4</ele>
        <time>2016-05-06T12:17:43Z</time>
      </trkpt>
      <trkpt lat="45.67059" lon="6.87856">
        <ele>2232.2</ele>
        <time>2016-05-06T12:17:45Z</time>
      </trkpt>
      <trkpt lat="45.67055" lon="6.87856">
        <ele>2232.8</ele>
        <time>2016-05-06T12:17:47Z</time>
      </trkpt>
      <trkpt lat="45.67051" lon="6.87856">
        <ele>2233.8</ele>
        <time>2016-05-06T12:17:49Z</time>
      </trkpt>
      <trkpt lat="45.67048" lon="6.87855">
        <ele>2234.6</ele>
        <time>2016-05-06T12:17:51Z</time>
      </trkpt>
      <trkpt lat="45.67044" lon="6.87855">
        <ele>2235.5</ele>
        <time>2016-05-06T12:17:53Z</time>
      </trkpt>
      <trkpt lat="45.6704" lon="6.87853">
        <ele>2236.7</ele>
        <time>2016-05-06T12:17:55Z</time>
      </trkpt>
      <trkpt lat="45.67036" lon="6.87852">
        <ele>2237.7</ele>
        <time>2016-05-06T12:17:57Z</time>
      </trkpt>
      <trkpt lat="45.67032" lon="6.87851">
        <ele>2238.7</ele>
        <time>2016-05-06T12:17:59Z</time>
      </trkpt>
      <trkpt lat="45.67028" lon="6.87851">
        <ele>2239.3</ele>
        <time>2016-05-06T12:18:01Z</time>
      </trkpt>
      <trkpt lat="45.67023" lon="6.87851">
        <ele>2240.1</ele>
        <time>2016-05-06T12:18:03Z</time>
      </trkpt>
      <trkpt lat="45.67019" lon="6.87851">
        <ele>2241.3</ele>
        <time>2016-05-06T12:18:05Z</time>
      </trkpt>
      <trkpt lat="45.67014" lon="6.87851">
        <ele>2242.3</ele>
        <time>2016-05-06T12:18:07Z</time>
      </trkpt>
      <trkpt lat="45.67008" lon="6.87852">
        <ele>2243.5</ele>
        <time>2016-05-06T12:18:09Z</time>
      </trkpt>
      <trkpt lat="45.67003" lon="6.87852">
        <ele>2244.3</ele>
        <time>2016-05-06T12:18:11Z</time>
      </trkpt>
      <trkpt lat="45.66998" lon="6.87852">
        <ele>2245.3</ele>
        <time>2016-05-06T12:18:13Z</time>
      </trkpt>
      <trkpt lat="45.66993" lon="6.87852">
        <ele>2246.5</ele>
        <time>2016-05-06T12:18:15Z</time>
      </trkpt>
      <trkpt lat="45.66988" lon="6.87853">
        <ele>2247.4</ele>
        <time>2016-05-06T12:18:17Z</time>
      </trkpt>
      <trkpt lat="45.66985" lon="6.87855">
        <ele>2248.5</ele>
        <time>2016-05-06T12:18:19Z</time>
      </trkpt>
      <trkpt lat="45.66981" lon="6.87856">
        <ele>2249.1</ele>
        <time>2016-05-06T12:18:21Z</time>
      </trkpt>
      <trkpt lat="45.66978" lon="6.87856">
        <ele>2249.9</ele>
        <time>2016-05-06T12:18:23Z</time>
      </trkpt>
      <trkpt lat="45.66973" lon="6.87858">
        <ele>2250.4</ele>
        <time>2016-05-06T12:18:25Z</time>
      </trkpt>
      <trkpt lat="45.66968" lon="6.87859">
        <ele>2251</ele>
        <time>2016-05-06T12:18:27Z</time>
      </trkpt>
      <trkpt lat="45.66962" lon="6.8786">
        <ele>2251.7</ele>
        <time>2016-05-06T12:18:29Z</time>
      </trkpt>
      <trkpt lat="45.66957" lon="6.87862">
        <ele>2252.3</ele>
        <time>2016-05-06T12:18:31Z</time>
      </trkpt>
      <trkpt lat="45.66952" lon="6.87863">
        <ele>2252.8</ele>
        <time>2016-05-06T12:18:33Z</time>
      </trkpt>
      <trkpt lat="45.66946" lon="6.87863">
        <ele>2253.3</ele>
        <time>2016-05-06T12:18:35Z</time>
      </trkpt>
      <trkpt lat="45.66941" lon="6.87864">
        <ele>2253.9</ele>
        <time>2016-05-06T12:18:37Z</time>
      </trkpt>
      <trkpt lat="45.66935" lon="6.87865">
        <ele>2254.5</ele>
        <time>2016-05-06T12:18:39Z</time>
      </trkpt>
      <trkpt lat="45.6693" lon="6.87866">
        <ele>2255</ele>
        <time>2016-05-06T12:18:41Z</time>
      </trkpt>
      <trkpt lat="45.66923" lon="6.87869">
        <ele>2255.6</ele>
        <time>2016-05-06T12:18:43Z</time>
      </trkpt>
      <trkpt lat="45.66918" lon="6.8787">
        <ele>2256</ele>
        <time>2016-05-06T12:18:45Z</time>
      </trkpt>
      <trkpt lat="45.66914" lon="6.87874">
        <ele>2256.5</ele>
        <time>2016-05-06T12:18:47Z</time>
      </trkpt>
      <trkpt lat="45.66911" lon="6.87877">
        <ele>2257.1</ele>
        <time>2016-05-06T12:18:49Z</time>
      </trkpt>
      <trkpt lat="45.66906" lon="6.87881">
        <ele>2257.5</ele>
        <time>2016-05-06T12:18:51Z</time>
      </trkpt>
      <trkpt lat="45.66903" lon="6.87886">
        <ele>2257.9</ele>
        <time>2016-05-06T12:18:53Z</time>
      </trkpt>
      <trkpt lat="45.66897" lon="6.87887">
        <ele>2258.6</ele>
        <time>2016-05-06T12:18:55Z</time>
      </trkpt>
      <trkpt lat="45.66895" lon="6.87889">
        <ele>2259.6</ele>
        <time>2016-05-06T12:18:57Z</time>
      </trkpt>
      <trkpt lat="45.66891" lon="6.87888">
        <ele>2260.3</ele>
        <time>2016-05-06T12:18:59Z</time>
      </trkpt>
      <trkpt lat="45.66887" lon="6.87889">
        <ele>2261</ele>
        <time>2016-05-06T12:19:01Z</time>
      </trkpt>
      <trkpt lat="45.66884" lon="6.87888">
        <ele>2261.8</ele>
        <time>2016-05-06T12:19:03Z</time>
      </trkpt>
      <trkpt lat="45.66879" lon="6.87888">
        <ele>2262.2</ele>
        <time>2016-05-06T12:19:05Z</time>
      </trkpt>
      <trkpt lat="45.66874" lon="6.87888">
        <ele>2263.1</ele>
        <time>2016-05-06T12:19:07Z</time>
      </trkpt>
      <trkpt lat="45.66868" lon="6.87888">
        <ele>2263.7</ele>
        <time>2016-05-06T12:19:09Z</time>
      </trkpt>
      <trkpt lat="45.66863" lon="6.8789">
        <ele>2264.4</ele>
        <time>2016-05-06T12:19:11Z</time>
      </trkpt>
      <trkpt lat="45.66858" lon="6.87891">
        <ele>2265</ele>
        <time>2016-05-06T12:19:13Z</time>
      </trkpt>
      <trkpt lat="45.66854" lon="6.87893">
        <ele>2265.7</ele>
        <time>2016-05-06T12:19:15Z</time>
      </trkpt>
      <trkpt lat="45.6685" lon="6.87894">
        <ele>2266.3</ele>
        <time>2016-05-06T12:19:17Z</time>
      </trkpt>
      <trkpt lat="45.66846" lon="6.87892">
        <ele>2267</ele>
        <time>2016-05-06T12:19:19Z</time>
      </trkpt>
      <trkpt lat="45.66843" lon="6.87891">
        <ele>2268</ele>
        <time>2016-05-06T12:19:21Z</time>
      </trkpt>
      <trkpt lat="45.66839" lon="6.87889">
        <ele>2268.7</ele>
        <time>2016-05-06T12:19:23Z</time>
      </trkpt>
      <trkpt lat="45.66836" lon="6.87888">
        <ele>2269.6</ele>
        <time>2016-05-06T12:19:25Z</time>
      </trkpt>
      <trkpt lat="45.66833" lon="6.87887">
        <ele>2270.5</ele>
        <time>2016-05-06T12:19:27Z</time>
      </trkpt>
      <trkpt lat="45.6683" lon="6.87888">
        <ele>2271.5</ele>
        <time>2016-05-06T12:19:29Z</time>
      </trkpt>
      <trkpt lat="45.66827" lon="6.87887">
        <ele>2272.3</ele>
        <time>2016-05-06T12:19:31Z</time>
      </trkpt>
      <trkpt lat="45.66824" lon="6.87887">
        <ele>2272.9</ele>
        <time>2016-05-06T12:19:33Z</time>
      </trkpt>
      <trkpt lat="45.6682" lon="6.87886">
        <ele>2273.6</ele>
        <time>2016-05-06T12:19:35Z</time>
      </trkpt>
      <trkpt lat="45.66816" lon="6.87886">
        <ele>2274.2</ele>
        <time>2016-05-06T12:19:37Z</time>
      </trkpt>
      <trkpt lat="45.66814" lon="6.87886">
        <ele>2275</ele>
        <time>2016-05-06T12:19:39Z</time>
      </trkpt>
      <trkpt lat="45.6681" lon="6.87886">
        <ele>2275.7</ele>
        <time>2016-05-06T12:19:41Z</time>
      </trkpt>
      <trkpt lat="45.66808" lon="6.87886">
        <ele>2276.1</ele>
        <time>2016-05-06T12:19:43Z</time>
      </trkpt>
      <trkpt lat="45.66804" lon="6.87888">
        <ele>2276.4</ele>
        <time>2016-05-06T12:19:45Z</time>
      </trkpt>
      <trkpt lat="45.66802" lon="6.87894">
        <ele>2276.2</ele>
        <time>2016-05-06T12:19:47Z</time>
      </trkpt>
      <trkpt lat="45.66801" lon="6.87898">
        <ele>2276</ele>
        <time>2016-05-06T12:19:49Z</time>
      </trkpt>
      <trkpt lat="45.66801" lon="6.87901">
        <ele>2276.2</ele>
        <time>2016-05-06T12:19:51Z</time>
      </trkpt>
      <trkpt lat="45.668" lon="6.87901">
        <ele>2276.4</ele>
        <time>2016-05-06T12:19:53Z</time>
      </trkpt>
      <trkpt lat="45.668" lon="6.879">
        <ele>2276.8</ele>
        <time>2016-05-06T12:19:55Z</time>
      </trkpt>
      <trkpt lat="45.668" lon="6.879">
        <ele>2276.7</ele>
        <time>2016-05-06T12:19:57Z</time>
      </trkpt>
      <trkpt lat="45.668" lon="6.87899">
        <ele>2276.5</ele>
        <time>2016-05-06T12:19:59Z</time>
      </trkpt>
      <trkpt lat="45.668" lon="6.87897">
        <ele>2276.5</ele>
        <time>2016-05-06T12:20:01Z</time>
      </trkpt>
      <trkpt lat="45.66799" lon="6.87898">
        <ele>2276.7</ele>
        <time>2016-05-06T12:20:03Z</time>
      </trkpt>
      <trkpt lat="45.66798" lon="6.87898">
        <ele>2276.8</ele>
        <time>2016-05-06T12:20:05Z</time>
      </trkpt>
      <trkpt lat="45.66798" lon="6.87898">
        <ele>2276.8</ele>
        <time>2016-05-06T12:20:07Z</time>
      </trkpt>
      <trkpt lat="45.66798" lon="6.87898">
        <ele>2276.8</ele>
        <time>2016-05-06T12:20:09Z</time>
      </trkpt>
      <trkpt lat="45.66797" lon="6.87898">
        <ele>2276.9</ele>
        <time>2016-05-06T12:20:11Z</time>
      </trkpt>
      <trkpt lat="45.66797" lon="6.87898">
        <ele>2277</ele>
        <time>2016-05-06T12:20:13Z</time>
      </trkpt>
      <trkpt lat="45.66797" lon="6.87898">
        <ele>2277</ele>
        <time>2016-05-06T12:20:15Z</time>
      </trkpt>
      <trkpt lat="45.66797" lon="6.87898">
        <ele>2277.1</ele>
        <time>2016-05-06T12:20:17Z</time>
      </trkpt>
      <trkpt lat="45.66797" lon="6.87898">
        <ele>2277.1</ele>
        <time>2016-05-06T12:20:19Z</time>
      </trkpt>
      <trkpt lat="45.66797" lon="6.87898">
        <ele>2277</ele>
        <time>2016-05-06T12:20:21Z</time>
      </trkpt>
      <trkpt lat="45.66797" lon="6.87898">
        <ele>2277.1</ele>
        <time>2016-05-06T12:20:23Z</time>
      </trkpt>
      <trkpt lat="45.66796" lon="6.87898">
        <ele>2277.1</ele>
        <time>2016-05-06T12:20:25Z</time>
      </trkpt>
      <trkpt lat="45.66796" lon="6.87898">
        <ele>2277</ele>
        <time>2016-05-06T12:20:27Z</time>
      </trkpt>
      <trkpt lat="45.66796" lon="6.87897">
        <ele>2276.9</ele>
        <time>2016-05-06T12:20:29Z</time>
      </trkpt>
      <trkpt lat="45.66797" lon="6.87898">
        <ele>2276.8</ele>
        <time>2016-05-06T12:20:31Z</time>
      </trkpt>
      <trkpt lat="45.66797" lon="6.87898">
        <ele>2276.8</ele>
        <time>2016-05-06T12:20:33Z</time>
      </trkpt>
      <trkpt lat="45.66797" lon="6.87897">
        <ele>2276.8</ele>
        <time>2016-05-06T12:20:35Z</time>
      </trkpt>
      <trkpt lat="45.66797" lon="6.87897">
        <ele>2276.8</ele>
        <time>2016-05-06T12:20:37Z</time>
      </trkpt>
      <trkpt lat="45.66797" lon="6.87897">
        <ele>2276.8</ele>
        <time>2016-05-06T12:20:39Z</time>
      </trkpt>
      <trkpt lat="45.66797" lon="6.87896">
        <ele>2276.8</ele>
        <time>2016-05-06T12:20:41Z</time>
      </trkpt>
      <trkpt lat="45.66797" lon="6.87896">
        <ele>2276.8</ele>
        <time>2016-05-06T12:20:43Z</time>
      </trkpt>
      <trkpt lat="45.66797" lon="6.87896">
        <ele>2276.8</ele>
        <time>2016-05-06T12:20:45Z</time>
      </trkpt>
      <trkpt lat="45.66797" lon="6.87896">
        <ele>2277</ele>
        <time>2016-05-06T12:20:47Z</time>
      </trkpt>
      <trkpt lat="45.66797" lon="6.87896">
        <ele>2276.9</ele>
        <time>2016-05-06T12:20:49Z</time>
      </trkpt>
      <trkpt lat="45.66797" lon="6.87896">
        <ele>2277.1</ele>
        <time>2016-05-06T12:20:51Z</time>
      </trkpt>
      <trkpt lat="45.66797" lon="6.87896">
        <ele>2276.9</ele>
        <time>2016-05-06T12:20:53Z</time>
      </trkpt>
      <trkpt lat="45.66797" lon="6.87896">
        <ele>2276.9</ele>
        <time>2016-05-06T12:20:55Z</time>
      </trkpt>
      <trkpt lat="45.66796" lon="6.87895">
        <ele>2277.1</ele>
        <time>2016-05-06T12:20:57Z</time>
      </trkpt>
      <trkpt lat="45.66797" lon="6.87896">
        <ele>2277</ele>
        <time>2016-05-06T12:20:59Z</time>
      </trkpt>
      <trkpt lat="45.66797" lon="6.87896">
        <ele>2277</ele>
        <time>2016-05-06T12:21:01Z</time>
      </trkpt>
      <trkpt lat="45.66797" lon="6.87895">
        <ele>2277</ele>
        <time>2016-05-06T12:21:03Z</time>
      </trkpt>
      <trkpt lat="45.66797" lon="6.87895">
        <ele>2277</ele>
        <time>2016-05-06T12:21:05Z</time>
      </trkpt>
      <trkpt lat="45.66797" lon="6.87895">
        <ele>2276.9</ele>
        <time>2016-05-06T12:21:07Z</time>
      </trkpt>
      <trkpt lat="45.66797" lon="6.87895">
        <ele>2276.8</ele>
        <time>2016-05-06T12:21:09Z</time>
      </trkpt>
      <trkpt lat="45.66797" lon="6.87895">
        <ele>2276.8</ele>
        <time>2016-05-06T12:21:11Z</time>
      </trkpt>
      <trkpt lat="45.66796" lon="6.87895">
        <ele>2276.8</ele>
        <time>2016-05-06T12:21:13Z</time>
      </trkpt>
      <trkpt lat="45.66796" lon="6.87895">
        <ele>2276.7</ele>
        <time>2016-05-06T12:21:15Z</time>
      </trkpt>
      <trkpt lat="45.66796" lon="6.87896">
        <ele>2276.9</ele>
        <time>2016-05-06T12:21:17Z</time>
      </trkpt>
      <trkpt lat="45.66796" lon="6.87896">
        <ele>2276.8</ele>
        <time>2016-05-06T12:21:19Z</time>
      </trkpt>
      <trkpt lat="45.66796" lon="6.87896">
        <ele>2276.8</ele>
        <time>2016-05-06T12:21:21Z</time>
      </trkpt>
      <trkpt lat="45.66796" lon="6.87896">
        <ele>2276.8</ele>
        <time>2016-05-06T12:21:23Z</time>
      </trkpt>
      <trkpt lat="45.66796" lon="6.87896">
        <ele>2276.8</ele>
        <time>2016-05-06T12:21:25Z</time>
      </trkpt>
      <trkpt lat="45.66796" lon="6.87896">
        <ele>2276.8</ele>
        <time>2016-05-06T12:21:27Z</time>
      </trkpt>
      <trkpt lat="45.66796" lon="6.87897">
        <ele>2276.7</ele>
        <time>2016-05-06T12:21:29Z</time>
      </trkpt>
      <trkpt lat="45.66796" lon="6.87897">
        <ele>2276.6</ele>
        <time>2016-05-06T12:21:31Z</time>
      </trkpt>
      <trkpt lat="45.66796" lon="6.87896">
        <ele>2276.4</ele>
        <time>2016-05-06T12:21:33Z</time>
      </trkpt>
      <trkpt lat="45.66796" lon="6.87896">
        <ele>2276.4</ele>
        <time>2016-05-06T12:21:35Z</time>
      </trkpt>
      <trkpt lat="45.66796" lon="6.87896">
        <ele>2276.3</ele>
        <time>2016-05-06T12:21:37Z</time>
      </trkpt>
      <trkpt lat="45.66796" lon="6.87896">
        <ele>2276.3</ele>
        <time>2016-05-06T12:21:39Z</time>
      </trkpt>
      <trkpt lat="45.66796" lon="6.87895">
        <ele>2276.4</ele>
        <time>2016-05-06T12:21:41Z</time>
      </trkpt>
      <trkpt lat="45.66796" lon="6.87895">
        <ele>2276.4</ele>
        <time>2016-05-06T12:21:43Z</time>
      </trkpt>
      <trkpt lat="45.66796" lon="6.87895">
        <ele>2276.5</ele>
        <time>2016-05-06T12:21:45Z</time>
      </trkpt>
      <trkpt lat="45.66796" lon="6.87894">
        <ele>2276.5</ele>
        <time>2016-05-06T12:21:47Z</time>
      </trkpt>
      <trkpt lat="45.66796" lon="6.87894">
        <ele>2276.6</ele>
        <time>2016-05-06T12:21:49Z</time>
      </trkpt>
      <trkpt lat="45.66796" lon="6.87894">
        <ele>2276.7</ele>
        <time>2016-05-06T12:21:51Z</time>
      </trkpt>
      <trkpt lat="45.66796" lon="6.87895">
        <ele>2276.6</ele>
        <time>2016-05-06T12:21:53Z</time>
      </trkpt>
      <trkpt lat="45.66796" lon="6.87894">
        <ele>2276.6</ele>
        <time>2016-05-06T12:21:55Z</time>
      </trkpt>
      <trkpt lat="45.66796" lon="6.87895">
        <ele>2275.4</ele>
        <time>2016-05-06T12:21:57Z</time>
      </trkpt>
      <trkpt lat="45.66796" lon="6.87895">
        <ele>2275.9</ele>
        <time>2016-05-06T12:21:59Z</time>
      </trkpt>
      <trkpt lat="45.66797" lon="6.87895">
        <ele>2275.5</ele>
        <time>2016-05-06T12:22:01Z</time>
      </trkpt>
      <trkpt lat="45.66797" lon="6.87895">
        <ele>2275.7</ele>
        <time>2016-05-06T12:22:03Z</time>
      </trkpt>
      <trkpt lat="45.66798" lon="6.87896">
        <ele>2275.8</ele>
        <time>2016-05-06T12:22:05Z</time>
      </trkpt>
      <trkpt lat="45.66798" lon="6.87896">
        <ele>2275.6</ele>
        <time>2016-05-06T12:22:07Z</time>
      </trkpt>
      <trkpt lat="45.66798" lon="6.87897">
        <ele>2275.9</ele>
        <time>2016-05-06T12:22:09Z</time>
      </trkpt>
      <trkpt lat="45.66794" lon="6.87901">
        <ele>2276</ele>
        <time>2016-05-06T12:22:11Z</time>
      </trkpt>
      <trkpt lat="45.66785" lon="6.87907">
        <ele>2275.4</ele>
        <time>2016-05-06T12:22:13Z</time>
      </trkpt>
      <trkpt lat="45.66775" lon="6.87913">
        <ele>2274.1</ele>
        <time>2016-05-06T12:22:15Z</time>
      </trkpt>
      <trkpt lat="45.66768" lon="6.8792">
        <ele>2273.3</ele>
        <time>2016-05-06T12:22:17Z</time>
      </trkpt>
      <trkpt lat="45.66761" lon="6.87924">
        <ele>2272.6</ele>
        <time>2016-05-06T12:22:19Z</time>
      </trkpt>
      <trkpt lat="45.66753" lon="6.87929">
        <ele>2271.5</ele>
        <time>2016-05-06T12:22:21Z</time>
      </trkpt>
      <trkpt lat="45.66742" lon="6.87933">
        <ele>2270.2</ele>
        <time>2016-05-06T12:22:23Z</time>
      </trkpt>
      <trkpt lat="45.66729" lon="6.87934">
        <ele>2268.2</ele>
        <time>2016-05-06T12:22:25Z</time>
      </trkpt>
      <trkpt lat="45.66715" lon="6.87937">
        <ele>2266</ele>
        <time>2016-05-06T12:22:27Z</time>
      </trkpt>
      <trkpt lat="45.66701" lon="6.87937">
        <ele>2264</ele>
        <time>2016-05-06T12:22:29Z</time>
      </trkpt>
      <trkpt lat="45.66686" lon="6.87932">
        <ele>2261.9</ele>
        <time>2016-05-06T12:22:31Z</time>
      </trkpt>
      <trkpt lat="45.66672" lon="6.87927">
        <ele>2259.9</ele>
        <time>2016-05-06T12:22:33Z</time>
      </trkpt>
      <trkpt lat="45.66661" lon="6.87925">
        <ele>2258.3</ele>
        <time>2016-05-06T12:22:35Z</time>
      </trkpt>
      <trkpt lat="45.66655" lon="6.87926">
        <ele>2257.1</ele>
        <time>2016-05-06T12:22:37Z</time>
      </trkpt>
      <trkpt lat="45.66655" lon="6.87928">
        <ele>2256.5</ele>
        <time>2016-05-06T12:22:39Z</time>
      </trkpt>
      <trkpt lat="45.66653" lon="6.8793">
        <ele>2256</ele>
        <time>2016-05-06T12:22:41Z</time>
      </trkpt>
      <trkpt lat="45.66652" lon="6.87932">
        <ele>2255.9</ele>
        <time>2016-05-06T12:22:43Z</time>
      </trkpt>
      <trkpt lat="45.66651" lon="6.87934">
        <ele>2255.8</ele>
        <time>2016-05-06T12:22:45Z</time>
      </trkpt>
      <trkpt lat="45.6665" lon="6.87935">
        <ele>2255.9</ele>
        <time>2016-05-06T12:22:47Z</time>
      </trkpt>
      <trkpt lat="45.66649" lon="6.87938">
        <ele>2255.9</ele>
        <time>2016-05-06T12:22:49Z</time>
      </trkpt>
      <trkpt lat="45.66648" lon="6.8794">
        <ele>2255.8</ele>
        <time>2016-05-06T12:22:51Z</time>
      </trkpt>
      <trkpt lat="45.66647" lon="6.87943">
        <ele>2255.9</ele>
        <time>2016-05-06T12:22:53Z</time>
      </trkpt>
      <trkpt lat="45.66646" lon="6.87947">
        <ele>2256.1</ele>
        <time>2016-05-06T12:22:55Z</time>
      </trkpt>
      <trkpt lat="45.66645" lon="6.87949">
        <ele>2256.1</ele>
        <time>2016-05-06T12:22:57Z</time>
      </trkpt>
      <trkpt lat="45.66643" lon="6.87951">
        <ele>2256</ele>
        <time>2016-05-06T12:22:59Z</time>
      </trkpt>
      <trkpt lat="45.66643" lon="6.87954">
        <ele>2256</ele>
        <time>2016-05-06T12:23:01Z</time>
      </trkpt>
      <trkpt lat="45.66642" lon="6.87956">
        <ele>2256</ele>
        <time>2016-05-06T12:23:03Z</time>
      </trkpt>
      <trkpt lat="45.66641" lon="6.87958">
        <ele>2256</ele>
        <time>2016-05-06T12:23:05Z</time>
      </trkpt>
      <trkpt lat="45.6664" lon="6.87961">
        <ele>2256</ele>
        <time>2016-05-06T12:23:07Z</time>
      </trkpt>
      <trkpt lat="45.66639" lon="6.87963">
        <ele>2256</ele>
        <time>2016-05-06T12:23:09Z</time>
      </trkpt>
      <trkpt lat="45.66637" lon="6.87965">
        <ele>2256.1</ele>
        <time>2016-05-06T12:23:11Z</time>
      </trkpt>
      <trkpt lat="45.66637" lon="6.87968">
        <ele>2255.9</ele>
        <time>2016-05-06T12:23:13Z</time>
      </trkpt>
      <trkpt lat="45.66636" lon="6.8797">
        <ele>2255.7</ele>
        <time>2016-05-06T12:23:15Z</time>
      </trkpt>
      <trkpt lat="45.66634" lon="6.87972">
        <ele>2255.7</ele>
        <time>2016-05-06T12:23:17Z</time>
      </trkpt>
      <trkpt lat="45.66634" lon="6.87974">
        <ele>2255.6</ele>
        <time>2016-05-06T12:23:19Z</time>
      </trkpt>
      <trkpt lat="45.66632" lon="6.87977">
        <ele>2255.6</ele>
        <time>2016-05-06T12:23:21Z</time>
      </trkpt>
      <trkpt lat="45.66631" lon="6.87979">
        <ele>2255.6</ele>
        <time>2016-05-06T12:23:23Z</time>
      </trkpt>
      <trkpt lat="45.6663" lon="6.87981">
        <ele>2255.4</ele>
        <time>2016-05-06T12:23:25Z</time>
      </trkpt>
      <trkpt lat="45.66629" lon="6.87983">
        <ele>2255.3</ele>
        <time>2016-05-06T12:23:27Z</time>
      </trkpt>
      <trkpt lat="45.66627" lon="6.87985">
        <ele>2255.3</ele>
        <time>2016-05-06T12:23:29Z</time>
      </trkpt>
      <trkpt lat="45.66626" lon="6.87987">
        <ele>2255.2</ele>
        <time>2016-05-06T12:23:31Z</time>
      </trkpt>
      <trkpt lat="45.66624" lon="6.87989">
        <ele>2255.2</ele>
        <time>2016-05-06T12:23:33Z</time>
      </trkpt>
      <trkpt lat="45.66623" lon="6.87992">
        <ele>2255.1</ele>
        <time>2016-05-06T12:23:35Z</time>
      </trkpt>
      <trkpt lat="45.66622" lon="6.87994">
        <ele>2255.1</ele>
        <time>2016-05-06T12:23:37Z</time>
      </trkpt>
      <trkpt lat="45.66621" lon="6.87996">
        <ele>2255</ele>
        <time>2016-05-06T12:23:39Z</time>
      </trkpt>
      <trkpt lat="45.6662" lon="6.87998">
        <ele>2255</ele>
        <time>2016-05-06T12:23:41Z</time>
      </trkpt>
      <trkpt lat="45.66619" lon="6.87999">
        <ele>2255.1</ele>
        <time>2016-05-06T12:23:43Z</time>
      </trkpt>
      <trkpt lat="45.66618" lon="6.88001">
        <ele>2255.2</ele>
        <time>2016-05-06T12:23:45Z</time>
      </trkpt>
      <trkpt lat="45.66617" lon="6.88002">
        <ele>2255</ele>
        <time>2016-05-06T12:23:47Z</time>
      </trkpt>
      <trkpt lat="45.66616" lon="6.88004">
        <ele>2254.9</ele>
        <time>2016-05-06T12:23:49Z</time>
      </trkpt>
      <trkpt lat="45.66615" lon="6.88006">
        <ele>2255</ele>
        <time>2016-05-06T12:23:51Z</time>
      </trkpt>
      <trkpt lat="45.66613" lon="6.88008">
        <ele>2254.9</ele>
        <time>2016-05-06T12:23:53Z</time>
      </trkpt>
      <trkpt lat="45.66612" lon="6.88009">
        <ele>2255</ele>
        <time>2016-05-06T12:23:55Z</time>
      </trkpt>
      <trkpt lat="45.66611" lon="6.88011">
        <ele>2254.8</ele>
        <time>2016-05-06T12:23:57Z</time>
      </trkpt>
      <trkpt lat="45.6661" lon="6.88013">
        <ele>2254.8</ele>
        <time>2016-05-06T12:23:59Z</time>
      </trkpt>
      <trkpt lat="45.66609" lon="6.88015">
        <ele>2254.9</ele>
        <time>2016-05-06T12:24:01Z</time>
      </trkpt>
      <trkpt lat="45.66608" lon="6.88017">
        <ele>2254.9</ele>
        <time>2016-05-06T12:24:03Z</time>
      </trkpt>
      <trkpt lat="45.66608" lon="6.88019">
        <ele>2254.7</ele>
        <time>2016-05-06T12:24:05Z</time>
      </trkpt>
      <trkpt lat="45.66607" lon="6.88021">
        <ele>2254.6</ele>
        <time>2016-05-06T12:24:07Z</time>
      </trkpt>
      <trkpt lat="45.66606" lon="6.88023">
        <ele>2254.7</ele>
        <time>2016-05-06T12:24:09Z</time>
      </trkpt>
      <trkpt lat="45.66605" lon="6.88025">
        <ele>2254.8</ele>
        <time>2016-05-06T12:24:11Z</time>
      </trkpt>
      <trkpt lat="45.66603" lon="6.88027">
        <ele>2254.8</ele>
        <time>2016-05-06T12:24:13Z</time>
      </trkpt>
      <trkpt lat="45.66603" lon="6.88029">
        <ele>2254.8</ele>
        <time>2016-05-06T12:24:15Z</time>
      </trkpt>
      <trkpt lat="45.66602" lon="6.88031">
        <ele>2254.7</ele>
        <time>2016-05-06T12:24:17Z</time>
      </trkpt>
      <trkpt lat="45.66601" lon="6.88034">
        <ele>2254.8</ele>
        <time>2016-05-06T12:24:19Z</time>
      </trkpt>
      <trkpt lat="45.66599" lon="6.88037">
        <ele>2254.8</ele>
        <time>2016-05-06T12:24:21Z</time>
      </trkpt>
      <trkpt lat="45.66599" lon="6.88039">
        <ele>2254.6</ele>
        <time>2016-05-06T12:24:23Z</time>
      </trkpt>
      <trkpt lat="45.66598" lon="6.8804">
        <ele>2254.6</ele>
        <time>2016-05-06T12:24:25Z</time>
      </trkpt>
      <trkpt lat="45.66597" lon="6.8804">
        <ele>2254.6</ele>
        <time>2016-05-06T12:24:27Z</time>
      </trkpt>
      <trkpt lat="45.66596" lon="6.88043">
        <ele>2254.7</ele>
        <time>2016-05-06T12:24:29Z</time>
      </trkpt>
      <trkpt lat="45.66595" lon="6.88045">
        <ele>2254.8</ele>
        <time>2016-05-06T12:24:31Z</time>
      </trkpt>
      <trkpt lat="45.66594" lon="6.88048">
        <ele>2254.8</ele>
        <time>2016-05-06T12:24:33Z</time>
      </trkpt>
      <trkpt lat="45.66593" lon="6.88049">
        <ele>2254.8</ele>
        <time>2016-05-06T12:24:35Z</time>
      </trkpt>
      <trkpt lat="45.66592" lon="6.88052">
        <ele>2254.8</ele>
        <time>2016-05-06T12:24:37Z</time>
      </trkpt>
      <trkpt lat="45.66591" lon="6.88054">
        <ele>2254.9</ele>
        <time>2016-05-06T12:24:39Z</time>
      </trkpt>
      <trkpt lat="45.66589" lon="6.88056">
        <ele>2255</ele>
        <time>2016-05-06T12:24:41Z</time>
      </trkpt>
      <trkpt lat="45.66588" lon="6.88058">
        <ele>2254.9</ele>
        <time>2016-05-06T12:24:43Z</time>
      </trkpt>
      <trkpt lat="45.66586" lon="6.88062">
        <ele>2254.8</ele>
        <time>2016-05-06T12:24:45Z</time>
      </trkpt>
      <trkpt lat="45.66584" lon="6.88063">
        <ele>2254.6</ele>
        <time>2016-05-06T12:24:47Z</time>
      </trkpt>
      <trkpt lat="45.66583" lon="6.88063">
        <ele>2254.7</ele>
        <time>2016-05-06T12:24:49Z</time>
      </trkpt>
      <trkpt lat="45.66582" lon="6.88064">
        <ele>2254.7</ele>
        <time>2016-05-06T12:24:51Z</time>
      </trkpt>
      <trkpt lat="45.66581" lon="6.88066">
        <ele>2254.6</ele>
        <time>2016-05-06T12:24:53Z</time>
      </trkpt>
      <trkpt lat="45.66579" lon="6.88067">
        <ele>2254.6</ele>
        <time>2016-05-06T12:24:55Z</time>
      </trkpt>
      <trkpt lat="45.66578" lon="6.88068">
        <ele>2254.5</ele>
        <time>2016-05-06T12:24:57Z</time>
      </trkpt>
      <trkpt lat="45.66578" lon="6.88068">
        <ele>2254.5</ele>
        <time>2016-05-06T12:24:59Z</time>
      </trkpt>
      <trkpt lat="45.66577" lon="6.88069">
        <ele>2254.6</ele>
        <time>2016-05-06T12:25:01Z</time>
      </trkpt>
      <trkpt lat="45.66576" lon="6.88071">
        <ele>2254.6</ele>
        <time>2016-05-06T12:25:03Z</time>
      </trkpt>
      <trkpt lat="45.66575" lon="6.88073">
        <ele>2254.5</ele>
        <time>2016-05-06T12:25:05Z</time>
      </trkpt>
      <trkpt lat="45.66574" lon="6.88074">
        <ele>2254.5</ele>
        <time>2016-05-06T12:25:07Z</time>
      </trkpt>
      <trkpt lat="45.66573" lon="6.88075">
        <ele>2254.5</ele>
        <time>2016-05-06T12:25:09Z</time>
      </trkpt>
      <trkpt lat="45.66572" lon="6.88077">
        <ele>2254.5</ele>
        <time>2016-05-06T12:25:11Z</time>
      </trkpt>
      <trkpt lat="45.66571" lon="6.88078">
        <ele>2254.5</ele>
        <time>2016-05-06T12:25:13Z</time>
      </trkpt>
      <trkpt lat="45.66571" lon="6.88079">
        <ele>2254.5</ele>
        <time>2016-05-06T12:25:15Z</time>
      </trkpt>
      <trkpt lat="45.66571" lon="6.88081">
        <ele>2254.6</ele>
        <time>2016-05-06T12:25:17Z</time>
      </trkpt>
      <trkpt lat="45.66571" lon="6.88083">
        <ele>2254.6</ele>
        <time>2016-05-06T12:25:19Z</time>
      </trkpt>
      <trkpt lat="45.66571" lon="6.88085">
        <ele>2254.7</ele>
        <time>2016-05-06T12:25:21Z</time>
      </trkpt>
      <trkpt lat="45.66571" lon="6.88086">
        <ele>2254.8</ele>
        <time>2016-05-06T12:25:23Z</time>
      </trkpt>
      <trkpt lat="45.6657" lon="6.88087">
        <ele>2254.9</ele>
        <time>2016-05-06T12:25:25Z</time>
      </trkpt>
      <trkpt lat="45.66569" lon="6.88088">
        <ele>2255.1</ele>
        <time>2016-05-06T12:25:27Z</time>
      </trkpt>
      <trkpt lat="45.66568" lon="6.88088">
        <ele>2255.3</ele>
        <time>2016-05-06T12:25:29Z</time>
      </trkpt>
      <trkpt lat="45.66568" lon="6.8809">
        <ele>2255.6</ele>
        <time>2016-05-06T12:25:31Z</time>
      </trkpt>
      <trkpt lat="45.66567" lon="6.88091">
        <ele>2255.7</ele>
        <time>2016-05-06T12:25:33Z</time>
      </trkpt>
      <trkpt lat="45.66566" lon="6.88091">
        <ele>2255.7</ele>
        <time>2016-05-06T12:25:35Z</time>
      </trkpt>
      <trkpt lat="45.66565" lon="6.88091">
        <ele>2255.8</ele>
        <time>2016-05-06T12:25:37Z</time>
      </trkpt>
      <trkpt lat="45.66565" lon="6.88092">
        <ele>2255.7</ele>
        <time>2016-05-06T12:25:39Z</time>
      </trkpt>
      <trkpt lat="45.66564" lon="6.88093">
        <ele>2255.8</ele>
        <time>2016-05-06T12:25:41Z</time>
      </trkpt>
      <trkpt lat="45.66564" lon="6.88092">
        <ele>2255.9</ele>
        <time>2016-05-06T12:25:43Z</time>
      </trkpt>
      <trkpt lat="45.66564" lon="6.88091">
        <ele>2256</ele>
        <time>2016-05-06T12:25:45Z</time>
      </trkpt>
      <trkpt lat="45.66564" lon="6.88092">
        <ele>2256.3</ele>
        <time>2016-05-06T12:25:47Z</time>
      </trkpt>
      <trkpt lat="45.66564" lon="6.88093">
        <ele>2256.3</ele>
        <time>2016-05-06T12:25:49Z</time>
      </trkpt>
      <trkpt lat="45.66564" lon="6.88096">
        <ele>2256.1</ele>
        <time>2016-05-06T12:25:51Z</time>
      </trkpt>
      <trkpt lat="45.66564" lon="6.88097">
        <ele>2256.2</ele>
        <time>2016-05-06T12:25:53Z</time>
      </trkpt>
      <trkpt lat="45.66564" lon="6.88098">
        <ele>2256.3</ele>
        <time>2016-05-06T12:25:55Z</time>
      </trkpt>
      <trkpt lat="45.66564" lon="6.881">
        <ele>2256.3</ele>
        <time>2016-05-06T12:25:57Z</time>
      </trkpt>
      <trkpt lat="45.66564" lon="6.88101">
        <ele>2256.4</ele>
        <time>2016-05-06T12:25:59Z</time>
      </trkpt>
      <trkpt lat="45.66565" lon="6.88102">
        <ele>2256.5</ele>
        <time>2016-05-06T12:26:01Z</time>
      </trkpt>
      <trkpt lat="45.66565" lon="6.88103">
        <ele>2256.5</ele>
        <time>2016-05-06T12:26:03Z</time>
      </trkpt>
      <trkpt lat="45.66566" lon="6.88103">
        <ele>2256.5</ele>
        <time>2016-05-06T12:26:05Z</time>
      </trkpt>
      <trkpt lat="45.66566" lon="6.88104">
        <ele>2256.6</ele>
        <time>2016-05-06T12:26:07Z</time>
      </trkpt>
      <trkpt lat="45.66566" lon="6.88105">
        <ele>2256.7</ele>
        <time>2016-05-06T12:26:09Z</time>
      </trkpt>
      <trkpt lat="45.66565" lon="6.88107">
        <ele>2256.8</ele>
        <time>2016-05-06T12:26:11Z</time>
      </trkpt>
      <trkpt lat="45.66565" lon="6.88108">
        <ele>2256.9</ele>
        <time>2016-05-06T12:26:13Z</time>
      </trkpt>
      <trkpt lat="45.66565" lon="6.88108">
        <ele>2257.1</ele>
        <time>2016-05-06T12:26:15Z</time>
      </trkpt>
      <trkpt lat="45.66565" lon="6.88108">
        <ele>2257.2</ele>
        <time>2016-05-06T12:26:17Z</time>
      </trkpt>
      <trkpt lat="45.66565" lon="6.88107">
        <ele>2257.3</ele>
        <time>2016-05-06T12:26:19Z</time>
      </trkpt>
      <trkpt lat="45.66565" lon="6.88108">
        <ele>2257.4</ele>
        <time>2016-05-06T12:26:21Z</time>
      </trkpt>
      <trkpt lat="45.66566" lon="6.88108">
        <ele>2257.7</ele>
        <time>2016-05-06T12:26:23Z</time>
      </trkpt>
      <trkpt lat="45.66565" lon="6.8811">
        <ele>2257.8</ele>
        <time>2016-05-06T12:26:25Z</time>
      </trkpt>
      <trkpt lat="45.66565" lon="6.88111">
        <ele>2257.9</ele>
        <time>2016-05-06T12:26:27Z</time>
      </trkpt>
      <trkpt lat="45.66566" lon="6.88109">
        <ele>2258</ele>
        <time>2016-05-06T12:26:29Z</time>
      </trkpt>
      <trkpt lat="45.66566" lon="6.88109">
        <ele>2258.1</ele>
        <time>2016-05-06T12:26:31Z</time>
      </trkpt>
      <trkpt lat="45.66566" lon="6.8811">
        <ele>2258.2</ele>
        <time>2016-05-06T12:26:33Z</time>
      </trkpt>
      <trkpt lat="45.66566" lon="6.88112">
        <ele>2258.2</ele>
        <time>2016-05-06T12:26:35Z</time>
      </trkpt>
      <trkpt lat="45.66566" lon="6.88114">
        <ele>2258.3</ele>
        <time>2016-05-06T12:26:37Z</time>
      </trkpt>
      <trkpt lat="45.66566" lon="6.88115">
        <ele>2258.3</ele>
        <time>2016-05-06T12:26:39Z</time>
      </trkpt>
      <trkpt lat="45.66566" lon="6.88117">
        <ele>2258.3</ele>
        <time>2016-05-06T12:26:41Z</time>
      </trkpt>
      <trkpt lat="45.66566" lon="6.88118">
        <ele>2258.4</ele>
        <time>2016-05-06T12:26:43Z</time>
      </trkpt>
      <trkpt lat="45.66566" lon="6.88119">
        <ele>2258.4</ele>
        <time>2016-05-06T12:26:45Z</time>
      </trkpt>
      <trkpt lat="45.66566" lon="6.88121">
        <ele>2258.5</ele>
        <time>2016-05-06T12:26:47Z</time>
      </trkpt>
      <trkpt lat="45.66566" lon="6.88123">
        <ele>2258.7</ele>
        <time>2016-05-06T12:26:49Z</time>
      </trkpt>
      <trkpt lat="45.66566" lon="6.88122">
        <ele>2258.8</ele>
        <time>2016-05-06T12:26:51Z</time>
      </trkpt>
      <trkpt lat="45.66566" lon="6.88121">
        <ele>2259</ele>
        <time>2016-05-06T12:26:53Z</time>
      </trkpt>
      <trkpt lat="45.66566" lon="6.88122">
        <ele>2259.1</ele>
        <time>2016-05-06T12:26:55Z</time>
      </trkpt>
      <trkpt lat="45.66566" lon="6.88124">
        <ele>2259.1</ele>
        <time>2016-05-06T12:26:57Z</time>
      </trkpt>
      <trkpt lat="45.66566" lon="6.88124">
        <ele>2259.1</ele>
        <time>2016-05-06T12:26:59Z</time>
      </trkpt>
      <trkpt lat="45.66566" lon="6.88125">
        <ele>2259.1</ele>
        <time>2016-05-06T12:27:01Z</time>
      </trkpt>
      <trkpt lat="45.66567" lon="6.88126">
        <ele>2259.1</ele>
        <time>2016-05-06T12:27:03Z</time>
      </trkpt>
      <trkpt lat="45.66568" lon="6.88128">
        <ele>2259.2</ele>
        <time>2016-05-06T12:27:05Z</time>
      </trkpt>
      <trkpt lat="45.66568" lon="6.88128">
        <ele>2259.2</ele>
        <time>2016-05-06T12:27:07Z</time>
      </trkpt>
      <trkpt lat="45.66569" lon="6.88129">
        <ele>2259.3</ele>
        <time>2016-05-06T12:27:09Z</time>
      </trkpt>
      <trkpt lat="45.66568" lon="6.88128">
        <ele>2259.6</ele>
        <time>2016-05-06T12:27:11Z</time>
      </trkpt>
      <trkpt lat="45.66569" lon="6.88122">
        <ele>2259.9</ele>
        <time>2016-05-06T12:27:13Z</time>
      </trkpt>
      <trkpt lat="45.66569" lon="6.88121">
        <ele>2260</ele>
        <time>2016-05-06T12:27:15Z</time>
      </trkpt>
      <trkpt lat="45.66569" lon="6.88121">
        <ele>2259.8</ele>
        <time>2016-05-06T12:27:17Z</time>
      </trkpt>
      <trkpt lat="45.66568" lon="6.8812">
        <ele>2259.9</ele>
        <time>2016-05-06T12:27:19Z</time>
      </trkpt>
      <trkpt lat="45.66568" lon="6.88119">
        <ele>2260</ele>
        <time>2016-05-06T12:27:21Z</time>
      </trkpt>
      <trkpt lat="45.66568" lon="6.88119">
        <ele>2260.1</ele>
        <time>2016-05-06T12:27:23Z</time>
      </trkpt>
      <trkpt lat="45.66567" lon="6.88119">
        <ele>2260.2</ele>
        <time>2016-05-06T12:27:25Z</time>
      </trkpt>
      <trkpt lat="45.66567" lon="6.88119">
        <ele>2260.4</ele>
        <time>2016-05-06T12:27:27Z</time>
      </trkpt>
      <trkpt lat="45.66567" lon="6.88119">
        <ele>2259.4</ele>
        <time>2016-05-06T12:27:29Z</time>
      </trkpt>
      <trkpt lat="45.66567" lon="6.88119">
        <ele>2259.9</ele>
        <time>2016-05-06T12:27:31Z</time>
      </trkpt>
      <trkpt lat="45.66566" lon="6.88119">
        <ele>2260.2</ele>
        <time>2016-05-06T12:27:33Z</time>
      </trkpt>
      <trkpt lat="45.66566" lon="6.88119">
        <ele>2260.1</ele>
        <time>2016-05-06T12:27:35Z</time>
      </trkpt>
      <trkpt lat="45.66566" lon="6.88118">
        <ele>2260.4</ele>
        <time>2016-05-06T12:27:37Z</time>
      </trkpt>
      <trkpt lat="45.66566" lon="6.88118">
        <ele>2260</ele>
        <time>2016-05-06T12:27:39Z</time>
      </trkpt>
      <trkpt lat="45.66566" lon="6.88118">
        <ele>2260.6</ele>
        <time>2016-05-06T12:27:41Z</time>
      </trkpt>
      <trkpt lat="45.66566" lon="6.88118">
        <ele>2260.4</ele>
        <time>2016-05-06T12:27:43Z</time>
      </trkpt>
      <trkpt lat="45.66566" lon="6.88118">
        <ele>2260.4</ele>
        <time>2016-05-06T12:27:45Z</time>
      </trkpt>
      <trkpt lat="45.66567" lon="6.88119">
        <ele>2260.5</ele>
        <time>2016-05-06T12:27:47Z</time>
      </trkpt>
      <trkpt lat="45.66567" lon="6.88119">
        <ele>2260.7</ele>
        <time>2016-05-06T12:27:49Z</time>
      </trkpt>
      <trkpt lat="45.66568" lon="6.88119">
        <ele>2260.8</ele>
        <time>2016-05-06T12:27:51Z</time>
      </trkpt>
      <trkpt lat="45.66568" lon="6.88119">
        <ele>2260.8</ele>
        <time>2016-05-06T12:27:53Z</time>
      </trkpt>
      <trkpt lat="45.66568" lon="6.88119">
        <ele>2260.9</ele>
        <time>2016-05-06T12:27:55Z</time>
      </trkpt>
      <trkpt lat="45.66568" lon="6.88119">
        <ele>2261</ele>
        <time>2016-05-06T12:27:57Z</time>
      </trkpt>
      <trkpt lat="45.66567" lon="6.88119">
        <ele>2261.1</ele>
        <time>2016-05-06T12:27:59Z</time>
      </trkpt>
      <trkpt lat="45.66567" lon="6.88119">
        <ele>2261.1</ele>
        <time>2016-05-06T12:28:01Z</time>
      </trkpt>
      <trkpt lat="45.66568" lon="6.88119">
        <ele>2261.2</ele>
        <time>2016-05-06T12:28:03Z</time>
      </trkpt>
      <trkpt lat="45.66568" lon="6.8812">
        <ele>2261.3</ele>
        <time>2016-05-06T12:28:05Z</time>
      </trkpt>
      <trkpt lat="45.66568" lon="6.88121">
        <ele>2261.3</ele>
        <time>2016-05-06T12:28:07Z</time>
      </trkpt>
      <trkpt lat="45.66568" lon="6.88121">
        <ele>2261.2</ele>
        <time>2016-05-06T12:28:09Z</time>
      </trkpt>
      <trkpt lat="45.66568" lon="6.88121">
        <ele>2261.3</ele>
        <time>2016-05-06T12:28:11Z</time>
      </trkpt>
      <trkpt lat="45.66568" lon="6.88122">
        <ele>2261.4</ele>
        <time>2016-05-06T12:28:13Z</time>
      </trkpt>
      <trkpt lat="45.66568" lon="6.88122">
        <ele>2261.4</ele>
        <time>2016-05-06T12:28:15Z</time>
      </trkpt>
      <trkpt lat="45.66569" lon="6.88123">
        <ele>2261.5</ele>
        <time>2016-05-06T12:28:17Z</time>
      </trkpt>
      <trkpt lat="45.66569" lon="6.88124">
        <ele>2261.7</ele>
        <time>2016-05-06T12:28:19Z</time>
      </trkpt>
      <trkpt lat="45.66569" lon="6.88125">
        <ele>2261.9</ele>
        <time>2016-05-06T12:28:21Z</time>
      </trkpt>
      <trkpt lat="45.6657" lon="6.88126">
        <ele>2262</ele>
        <time>2016-05-06T12:28:23Z</time>
      </trkpt>
      <trkpt lat="45.6657" lon="6.88126">
        <ele>2262.2</ele>
        <time>2016-05-06T12:28:25Z</time>
      </trkpt>
      <trkpt lat="45.66571" lon="6.88127">
        <ele>2262.3</ele>
        <time>2016-05-06T12:28:27Z</time>
      </trkpt>
      <trkpt lat="45.66571" lon="6.88127">
        <ele>2262.3</ele>
        <time>2016-05-06T12:28:29Z</time>
      </trkpt>
      <trkpt lat="45.66571" lon="6.88127">
        <ele>2262.3</ele>
        <time>2016-05-06T12:28:31Z</time>
      </trkpt>
      <trkpt lat="45.66572" lon="6.88128">
        <ele>2262.4</ele>
        <time>2016-05-06T12:28:33Z</time>
      </trkpt>
      <trkpt lat="45.66572" lon="6.88128">
        <ele>2262.6</ele>
        <time>2016-05-06T12:28:35Z</time>
      </trkpt>
      <trkpt lat="45.66573" lon="6.88129">
        <ele>2262.6</ele>
        <time>2016-05-06T12:28:37Z</time>
      </trkpt>
      <trkpt lat="45.66573" lon="6.88129">
        <ele>2262.6</ele>
        <time>2016-05-06T12:28:39Z</time>
      </trkpt>
      <trkpt lat="45.66573" lon="6.8813">
        <ele>2262.6</ele>
        <time>2016-05-06T12:28:41Z</time>
      </trkpt>
      <trkpt lat="45.66573" lon="6.8813">
        <ele>2262.7</ele>
        <time>2016-05-06T12:28:43Z</time>
      </trkpt>
      <trkpt lat="45.66574" lon="6.88131">
        <ele>2262.8</ele>
        <time>2016-05-06T12:28:45Z</time>
      </trkpt>
      <trkpt lat="45.66574" lon="6.8813">
        <ele>2262.9</ele>
        <time>2016-05-06T12:28:47Z</time>
      </trkpt>
      <trkpt lat="45.66575" lon="6.88131">
        <ele>2262.9</ele>
        <time>2016-05-06T12:28:49Z</time>
      </trkpt>
      <trkpt lat="45.66574" lon="6.88132">
        <ele>2262.9</ele>
        <time>2016-05-06T12:28:51Z</time>
      </trkpt>
      <trkpt lat="45.66575" lon="6.88132">
        <ele>2263.1</ele>
        <time>2016-05-06T12:28:53Z</time>
      </trkpt>
      <trkpt lat="45.66576" lon="6.88132">
        <ele>2263.2</ele>
        <time>2016-05-06T12:28:55Z</time>
      </trkpt>
      <trkpt lat="45.66576" lon="6.88132">
        <ele>2263</ele>
        <time>2016-05-06T12:28:57Z</time>
      </trkpt>
      <trkpt lat="45.66576" lon="6.88132">
        <ele>2263</ele>
        <time>2016-05-06T12:28:59Z</time>
      </trkpt>
      <trkpt lat="45.66577" lon="6.88133">
        <ele>2263.3</ele>
        <time>2016-05-06T12:29:01Z</time>
      </trkpt>
      <trkpt lat="45.66577" lon="6.88133">
        <ele>2263.4</ele>
        <time>2016-05-06T12:29:03Z</time>
      </trkpt>
      <trkpt lat="45.66578" lon="6.88133">
        <ele>2263.5</ele>
        <time>2016-05-06T12:29:05Z</time>
      </trkpt>
      <trkpt lat="45.66578" lon="6.88133">
        <ele>2263.5</ele>
        <time>2016-05-06T12:29:07Z</time>
      </trkpt>
      <trkpt lat="45.66578" lon="6.88134">
        <ele>2263.5</ele>
        <time>2016-05-06T12:29:09Z</time>
      </trkpt>
      <trkpt lat="45.66578" lon="6.88135">
        <ele>2263.6</ele>
        <time>2016-05-06T12:29:11Z</time>
      </trkpt>
      <trkpt lat="45.66579" lon="6.88135">
        <ele>2263.7</ele>
        <time>2016-05-06T12:29:13Z</time>
      </trkpt>
      <trkpt lat="45.66579" lon="6.88136">
        <ele>2263.8</ele>
        <time>2016-05-06T12:29:15Z</time>
      </trkpt>
      <trkpt lat="45.66579" lon="6.88136">
        <ele>2263.8</ele>
        <time>2016-05-06T12:29:17Z</time>
      </trkpt>
      <trkpt lat="45.66579" lon="6.88136">
        <ele>2263.9</ele>
        <time>2016-05-06T12:29:19Z</time>
      </trkpt>
      <trkpt lat="45.66579" lon="6.88137">
        <ele>2264</ele>
        <time>2016-05-06T12:29:21Z</time>
      </trkpt>
      <trkpt lat="45.6658" lon="6.88137">
        <ele>2263.9</ele>
        <time>2016-05-06T12:29:23Z</time>
      </trkpt>
      <trkpt lat="45.6658" lon="6.88138">
        <ele>2264</ele>
        <time>2016-05-06T12:29:25Z</time>
      </trkpt>
      <trkpt lat="45.66581" lon="6.88138">
        <ele>2264.2</ele>
        <time>2016-05-06T12:29:27Z</time>
      </trkpt>
      <trkpt lat="45.66581" lon="6.88138">
        <ele>2264.3</ele>
        <time>2016-05-06T12:29:29Z</time>
      </trkpt>
      <trkpt lat="45.66581" lon="6.88138">
        <ele>2264.4</ele>
        <time>2016-05-06T12:29:31Z</time>
      </trkpt>
      <trkpt lat="45.66582" lon="6.88139">
        <ele>2264.4</ele>
        <time>2016-05-06T12:29:33Z</time>
      </trkpt>
      <trkpt lat="45.66581" lon="6.8814">
        <ele>2264.5</ele>
        <time>2016-05-06T12:29:35Z</time>
      </trkpt>
      <trkpt lat="45.66582" lon="6.8814">
        <ele>2264.4</ele>
        <time>2016-05-06T12:29:37Z</time>
      </trkpt>
      <trkpt lat="45.66583" lon="6.8814">
        <ele>2264.5</ele>
        <time>2016-05-06T12:29:39Z</time>
      </trkpt>
      <trkpt lat="45.66583" lon="6.8814">
        <ele>2264.6</ele>
        <time>2016-05-06T12:29:41Z</time>
      </trkpt>
      <trkpt lat="45.66583" lon="6.8814">
        <ele>2264.6</ele>
        <time>2016-05-06T12:29:43Z</time>
      </trkpt>
      <trkpt lat="45.66583" lon="6.8814">
        <ele>2264.8</ele>
        <time>2016-05-06T12:29:45Z</time>
      </trkpt>
      <trkpt lat="45.66583" lon="6.8814">
        <ele>2264.6</ele>
        <time>2016-05-06T12:29:47Z</time>
      </trkpt>
      <trkpt lat="45.66583" lon="6.8814">
        <ele>2264.2</ele>
        <time>2016-05-06T12:29:49Z</time>
      </trkpt>
      <trkpt lat="45.66583" lon="6.8814">
        <ele>2264.5</ele>
        <time>2016-05-06T12:29:51Z</time>
      </trkpt>
      <trkpt lat="45.66583" lon="6.8814">
        <ele>2264.5</ele>
        <time>2016-05-06T12:29:53Z</time>
      </trkpt>
      <trkpt lat="45.66583" lon="6.8814">
        <ele>2264.4</ele>
        <time>2016-05-06T12:29:55Z</time>
      </trkpt>
      <trkpt lat="45.66583" lon="6.8814">
        <ele>2264.5</ele>
        <time>2016-05-06T12:29:57Z</time>
      </trkpt>
      <trkpt lat="45.66583" lon="6.8814">
        <ele>2264.8</ele>
        <time>2016-05-06T12:29:59Z</time>
      </trkpt>
      <trkpt lat="45.66583" lon="6.8814">
        <ele>2264.9</ele>
        <time>2016-05-06T12:30:01Z</time>
      </trkpt>
      <trkpt lat="45.66583" lon="6.8814">
        <ele>2264.9</ele>
        <time>2016-05-06T12:30:03Z</time>
      </trkpt>
      <trkpt lat="45.66583" lon="6.8814">
        <ele>2264.9</ele>
        <time>2016-05-06T12:30:05Z</time>
      </trkpt>
      <trkpt lat="45.66583" lon="6.88141">
        <ele>2265</ele>
        <time>2016-05-06T12:30:07Z</time>
      </trkpt>
      <trkpt lat="45.66583" lon="6.88141">
        <ele>2265</ele>
        <time>2016-05-06T12:30:09Z</time>
      </trkpt>
      <trkpt lat="45.66584" lon="6.88141">
        <ele>2264.9</ele>
        <time>2016-05-06T12:30:11Z</time>
      </trkpt>
      <trkpt lat="45.66584" lon="6.88141">
        <ele>2264.9</ele>
        <time>2016-05-06T12:30:13Z</time>
      </trkpt>
      <trkpt lat="45.66585" lon="6.8814">
        <ele>2264.9</ele>
        <time>2016-05-06T12:30:15Z</time>
      </trkpt>
      <trkpt lat="45.66585" lon="6.88141">
        <ele>2264.9</ele>
        <time>2016-05-06T12:30:17Z</time>
      </trkpt>
      <trkpt lat="45.66585" lon="6.88141">
        <ele>2264.9</ele>
        <time>2016-05-06T12:30:19Z</time>
      </trkpt>
      <trkpt lat="45.66585" lon="6.8814">
        <ele>2264.9</ele>
        <time>2016-05-06T12:30:21Z</time>
      </trkpt>
      <trkpt lat="45.66585" lon="6.8814">
        <ele>2264.9</ele>
        <time>2016-05-06T12:30:23Z</time>
      </trkpt>
      <trkpt lat="45.66586" lon="6.8814">
        <ele>2264.8</ele>
        <time>2016-05-06T12:30:25Z</time>
      </trkpt>
      <trkpt lat="45.66586" lon="6.8814">
        <ele>2264.9</ele>
        <time>2016-05-06T12:30:27Z</time>
      </trkpt>
      <trkpt lat="45.66588" lon="6.88142">
        <ele>2265.2</ele>
        <time>2016-05-06T12:30:29Z</time>
      </trkpt>
      <trkpt lat="45.66587" lon="6.88142">
        <ele>2265.3</ele>
        <time>2016-05-06T12:30:31Z</time>
      </trkpt>
      <trkpt lat="45.66588" lon="6.88143">
        <ele>2265.2</ele>
        <time>2016-05-06T12:30:33Z</time>
      </trkpt>
      <trkpt lat="45.66588" lon="6.88141">
        <ele>2265.1</ele>
        <time>2016-05-06T12:30:35Z</time>
      </trkpt>
      <trkpt lat="45.66588" lon="6.8814">
        <ele>2265.3</ele>
        <time>2016-05-06T12:30:37Z</time>
      </trkpt>
      <trkpt lat="45.66588" lon="6.8814">
        <ele>2265.3</ele>
        <time>2016-05-06T12:30:39Z</time>
      </trkpt>
      <trkpt lat="45.66588" lon="6.8814">
        <ele>2265.4</ele>
        <time>2016-05-06T12:30:41Z</time>
      </trkpt>
      <trkpt lat="45.66588" lon="6.8814">
        <ele>2265.5</ele>
        <time>2016-05-06T12:30:43Z</time>
      </trkpt>
      <trkpt lat="45.66588" lon="6.8814">
        <ele>2265.8</ele>
        <time>2016-05-06T12:30:45Z</time>
      </trkpt>
      <trkpt lat="45.66587" lon="6.8814">
        <ele>2265.9</ele>
        <time>2016-05-06T12:30:47Z</time>
      </trkpt>
      <trkpt lat="45.66586" lon="6.88141">
        <ele>2265.2</ele>
        <time>2016-05-06T12:30:49Z</time>
      </trkpt>
      <trkpt lat="45.66585" lon="6.88142">
        <ele>2265.5</ele>
        <time>2016-05-06T12:30:51Z</time>
      </trkpt>
      <trkpt lat="45.66584" lon="6.88143">
        <ele>2265.5</ele>
        <time>2016-05-06T12:30:53Z</time>
      </trkpt>
      <trkpt lat="45.6658" lon="6.88145">
        <ele>2265.5</ele>
        <time>2016-05-06T12:30:55Z</time>
      </trkpt>
      <trkpt lat="45.66579" lon="6.88148">
        <ele>2265.3</ele>
        <time>2016-05-06T12:30:57Z</time>
      </trkpt>
      <trkpt lat="45.66578" lon="6.88148">
        <ele>2265.4</ele>
        <time>2016-05-06T12:30:59Z</time>
      </trkpt>
      <trkpt lat="45.66576" lon="6.88149">
        <ele>2265.2</ele>
        <time>2016-05-06T12:31:01Z</time>
      </trkpt>
      <trkpt lat="45.66573" lon="6.88151">
        <ele>2265.1</ele>
        <time>2016-05-06T12:31:03Z</time>
      </trkpt>
      <trkpt lat="45.6657" lon="6.88153">
        <ele>2265.3</ele>
        <time>2016-05-06T12:31:05Z</time>
      </trkpt>
      <trkpt lat="45.66566" lon="6.88155">
        <ele>2265</ele>
        <time>2016-05-06T12:31:07Z</time>
      </trkpt>
      <trkpt lat="45.66564" lon="6.88157">
        <ele>2264.6</ele>
        <time>2016-05-06T12:31:09Z</time>
      </trkpt>
      <trkpt lat="45.66558" lon="6.88163">
        <ele>2263.8</ele>
        <time>2016-05-06T12:31:11Z</time>
      </trkpt>
      <trkpt lat="45.66553" lon="6.88172">
        <ele>2262.9</ele>
        <time>2016-05-06T12:31:13Z</time>
      </trkpt>
      <trkpt lat="45.66549" lon="6.88179">
        <ele>2261.8</ele>
        <time>2016-05-06T12:31:15Z</time>
      </trkpt>
      <trkpt lat="45.66546" lon="6.88183">
        <ele>2261</ele>
        <time>2016-05-06T12:31:17Z</time>
      </trkpt>
      <trkpt lat="45.66545" lon="6.88184">
        <ele>2260.6</ele>
        <time>2016-05-06T12:31:19Z</time>
      </trkpt>
      <trkpt lat="45.66545" lon="6.88186">
        <ele>2260.5</ele>
        <time>2016-05-06T12:31:21Z</time>
      </trkpt>
      <trkpt lat="45.66545" lon="6.88186">
        <ele>2260.1</ele>
        <time>2016-05-06T12:31:23Z</time>
      </trkpt>
      <trkpt lat="45.66545" lon="6.88186">
        <ele>2260</ele>
        <time>2016-05-06T12:31:25Z</time>
      </trkpt>
      <trkpt lat="45.66544" lon="6.88186">
        <ele>2259.2</ele>
        <time>2016-05-06T12:31:27Z</time>
      </trkpt>
      <trkpt lat="45.66544" lon="6.88187">
        <ele>2259.7</ele>
        <time>2016-05-06T12:31:29Z</time>
      </trkpt>
      <trkpt lat="45.66544" lon="6.88186">
        <ele>2260</ele>
        <time>2016-05-06T12:31:31Z</time>
      </trkpt>
      <trkpt lat="45.66544" lon="6.88187">
        <ele>2260.1</ele>
        <time>2016-05-06T12:31:33Z</time>
      </trkpt>
      <trkpt lat="45.66544" lon="6.88187">
        <ele>2260.3</ele>
        <time>2016-05-06T12:31:35Z</time>
      </trkpt>
      <trkpt lat="45.66543" lon="6.88187">
        <ele>2260.2</ele>
        <time>2016-05-06T12:31:37Z</time>
      </trkpt>
      <trkpt lat="45.66543" lon="6.88186">
        <ele>2260.2</ele>
        <time>2016-05-06T12:31:39Z</time>
      </trkpt>
      <trkpt lat="45.66543" lon="6.88186">
        <ele>2260.2</ele>
        <time>2016-05-06T12:31:41Z</time>
      </trkpt>
      <trkpt lat="45.66543" lon="6.88186">
        <ele>2260.3</ele>
        <time>2016-05-06T12:31:43Z</time>
      </trkpt>
      <trkpt lat="45.66542" lon="6.88186">
        <ele>2260.4</ele>
        <time>2016-05-06T12:31:45Z</time>
      </trkpt>
      <trkpt lat="45.66542" lon="6.88186">
        <ele>2260.3</ele>
        <time>2016-05-06T12:31:47Z</time>
      </trkpt>
      <trkpt lat="45.66541" lon="6.88186">
        <ele>2260.4</ele>
        <time>2016-05-06T12:31:49Z</time>
      </trkpt>
      <trkpt lat="45.6654" lon="6.88185">
        <ele>2260.6</ele>
        <time>2016-05-06T12:31:51Z</time>
      </trkpt>
      <trkpt lat="45.66539" lon="6.88184">
        <ele>2261</ele>
        <time>2016-05-06T12:31:53Z</time>
      </trkpt>
      <trkpt lat="45.66536" lon="6.88183">
        <ele>2261.2</ele>
        <time>2016-05-06T12:31:55Z</time>
      </trkpt>
      <trkpt lat="45.66534" lon="6.88182">
        <ele>2261.4</ele>
        <time>2016-05-06T12:31:57Z</time>
      </trkpt>
      <trkpt lat="45.66534" lon="6.88182">
        <ele>2261.8</ele>
        <time>2016-05-06T12:31:59Z</time>
      </trkpt>
      <trkpt lat="45.66532" lon="6.88181">
        <ele>2262</ele>
        <time>2016-05-06T12:32:01Z</time>
      </trkpt>
      <trkpt lat="45.66531" lon="6.88181">
        <ele>2262.3</ele>
        <time>2016-05-06T12:32:03Z</time>
      </trkpt>
      <trkpt lat="45.6653" lon="6.8818">
        <ele>2262.6</ele>
        <time>2016-05-06T12:32:05Z</time>
      </trkpt>
      <trkpt lat="45.66529" lon="6.88178">
        <ele>2262.9</ele>
        <time>2016-05-06T12:32:07Z</time>
      </trkpt>
      <trkpt lat="45.66527" lon="6.88177">
        <ele>2263.2</ele>
        <time>2016-05-06T12:32:09Z</time>
      </trkpt>
      <trkpt lat="45.66526" lon="6.88175">
        <ele>2263.4</ele>
        <time>2016-05-06T12:32:11Z</time>
      </trkpt>
      <trkpt lat="45.66525" lon="6.88175">
        <ele>2263.8</ele>
        <time>2016-05-06T12:32:13Z</time>
      </trkpt>
      <trkpt lat="45.66524" lon="6.88174">
        <ele>2264.3</ele>
        <time>2016-05-06T12:32:15Z</time>
      </trkpt>
      <trkpt lat="45.66524" lon="6.88173">
        <ele>2264.6</ele>
        <time>2016-05-06T12:32:17Z</time>
      </trkpt>
      <trkpt lat="45.66523" lon="6.88172">
        <ele>2265</ele>
        <time>2016-05-06T12:32:19Z</time>
      </trkpt>
      <trkpt lat="45.66522" lon="6.88171">
        <ele>2265.4</ele>
        <time>2016-05-06T12:32:21Z</time>
      </trkpt>
      <trkpt lat="45.66519" lon="6.88169">
        <ele>2265.6</ele>
        <time>2016-05-06T12:32:23Z</time>
      </trkpt>
      <trkpt lat="45.66518" lon="6.88167">
        <ele>2265.9</ele>
        <time>2016-05-06T12:32:25Z</time>
      </trkpt>
      <trkpt lat="45.66515" lon="6.88165">
        <ele>2266.4</ele>
        <time>2016-05-06T12:32:27Z</time>
      </trkpt>
      <trkpt lat="45.66514" lon="6.88165">
        <ele>2266.9</ele>
        <time>2016-05-06T12:32:29Z</time>
      </trkpt>
      <trkpt lat="45.66513" lon="6.88164">
        <ele>2267.2</ele>
        <time>2016-05-06T12:32:31Z</time>
      </trkpt>
      <trkpt lat="45.66511" lon="6.88163">
        <ele>2267.8</ele>
        <time>2016-05-06T12:32:33Z</time>
      </trkpt>
      <trkpt lat="45.66508" lon="6.88163">
        <ele>2268.3</ele>
        <time>2016-05-06T12:32:35Z</time>
      </trkpt>
      <trkpt lat="45.66505" lon="6.88161">
        <ele>2268.6</ele>
        <time>2016-05-06T12:32:37Z</time>
      </trkpt>
      <trkpt lat="45.66501" lon="6.88162">
        <ele>2269</ele>
        <time>2016-05-06T12:32:39Z</time>
      </trkpt>
      <trkpt lat="45.66497" lon="6.88162">
        <ele>2269.3</ele>
        <time>2016-05-06T12:32:41Z</time>
      </trkpt>
      <trkpt lat="45.66494" lon="6.8816">
        <ele>2269.5</ele>
        <time>2016-05-06T12:32:43Z</time>
      </trkpt>
      <trkpt lat="45.66488" lon="6.88158">
        <ele>2269.4</ele>
        <time>2016-05-06T12:32:45Z</time>
      </trkpt>
      <trkpt lat="45.66482" lon="6.88161">
        <ele>2269.4</ele>
        <time>2016-05-06T12:32:47Z</time>
      </trkpt>
      <trkpt lat="45.66477" lon="6.88164">
        <ele>2269.5</ele>
        <time>2016-05-06T12:32:49Z</time>
      </trkpt>
      <trkpt lat="45.66472" lon="6.88163">
        <ele>2269.5</ele>
        <time>2016-05-06T12:32:51Z</time>
      </trkpt>
      <trkpt lat="45.66466" lon="6.88161">
        <ele>2269.4</ele>
        <time>2016-05-06T12:32:53Z</time>
      </trkpt>
      <trkpt lat="45.66459" lon="6.88164">
        <ele>2269.1</ele>
        <time>2016-05-06T12:32:55Z</time>
      </trkpt>
      <trkpt lat="45.66452" lon="6.88167">
        <ele>2269</ele>
        <time>2016-05-06T12:32:57Z</time>
      </trkpt>
      <trkpt lat="45.66444" lon="6.88164">
        <ele>2268.8</ele>
        <time>2016-05-06T12:32:59Z</time>
      </trkpt>
      <trkpt lat="45.66435" lon="6.88162">
        <ele>2268.4</ele>
        <time>2016-05-06T12:33:01Z</time>
      </trkpt>
      <trkpt lat="45.66428" lon="6.88163">
        <ele>2267.9</ele>
        <time>2016-05-06T12:33:03Z</time>
      </trkpt>
      <trkpt lat="45.66423" lon="6.88166">
        <ele>2267.8</ele>
        <time>2016-05-06T12:33:05Z</time>
      </trkpt>
      <trkpt lat="45.66417" lon="6.88167">
        <ele>2267.6</ele>
        <time>2016-05-06T12:33:07Z</time>
      </trkpt>
      <trkpt lat="45.66409" lon="6.88166">
        <ele>2267.4</ele>
        <time>2016-05-06T12:33:09Z</time>
      </trkpt>
      <trkpt lat="45.664" lon="6.88163">
        <ele>2267</ele>
        <time>2016-05-06T12:33:11Z</time>
      </trkpt>
      <trkpt lat="45.6639" lon="6.88162">
        <ele>2266.6</ele>
        <time>2016-05-06T12:33:13Z</time>
      </trkpt>
      <trkpt lat="45.66381" lon="6.88161">
        <ele>2266.2</ele>
        <time>2016-05-06T12:33:15Z</time>
      </trkpt>
      <trkpt lat="45.66373" lon="6.88157">
        <ele>2265.7</ele>
        <time>2016-05-06T12:33:17Z</time>
      </trkpt>
      <trkpt lat="45.66365" lon="6.88155">
        <ele>2265.3</ele>
        <time>2016-05-06T12:33:19Z</time>
      </trkpt>
      <trkpt lat="45.66356" lon="6.88153">
        <ele>2264.9</ele>
        <time>2016-05-06T12:33:21Z</time>
      </trkpt>
      <trkpt lat="45.66347" lon="6.8815">
        <ele>2264.3</ele>
        <time>2016-05-06T12:33:23Z</time>
      </trkpt>
      <trkpt lat="45.66338" lon="6.88146">
        <ele>2263.7</ele>
        <time>2016-05-06T12:33:25Z</time>
      </trkpt>
      <trkpt lat="45.66328" lon="6.88143">
        <ele>2263</ele>
        <time>2016-05-06T12:33:27Z</time>
      </trkpt>
      <trkpt lat="45.66319" lon="6.8814">
        <ele>2262.5</ele>
        <time>2016-05-06T12:33:29Z</time>
      </trkpt>
      <trkpt lat="45.66316" lon="6.88139">
        <ele>2262.3</ele>
        <time>2016-05-06T12:33:31Z</time>
      </trkpt>
      <trkpt lat="45.66315" lon="6.88137">
        <ele>2262.1</ele>
        <time>2016-05-06T12:33:33Z</time>
      </trkpt>
      <trkpt lat="45.66313" lon="6.88134">
        <ele>2262</ele>
        <time>2016-05-06T12:33:35Z</time>
      </trkpt>
      <trkpt lat="45.6631" lon="6.88131">
        <ele>2262.2</ele>
        <time>2016-05-06T12:33:37Z</time>
      </trkpt>
      <trkpt lat="45.66307" lon="6.88129">
        <ele>2262.5</ele>
        <time>2016-05-06T12:33:39Z</time>
      </trkpt>
      <trkpt lat="45.66302" lon="6.88125">
        <ele>2262.7</ele>
        <time>2016-05-06T12:33:41Z</time>
      </trkpt>
      <trkpt lat="45.66298" lon="6.88125">
        <ele>2262.9</ele>
        <time>2016-05-06T12:33:43Z</time>
      </trkpt>
      <trkpt lat="45.66293" lon="6.88129">
        <ele>2263</ele>
        <time>2016-05-06T12:33:45Z</time>
      </trkpt>
      <trkpt lat="45.66284" lon="6.88134">
        <ele>2262.5</ele>
        <time>2016-05-06T12:33:47Z</time>
      </trkpt>
      <trkpt lat="45.66268" lon="6.88134">
        <ele>2260.5</ele>
        <time>2016-05-06T12:33:49Z</time>
      </trkpt>
      <trkpt lat="45.66251" lon="6.88137">
        <ele>2257.1</ele>
        <time>2016-05-06T12:33:51Z</time>
      </trkpt>
      <trkpt lat="45.66239" lon="6.88142">
        <ele>2254.7</ele>
        <time>2016-05-06T12:33:53Z</time>
      </trkpt>
      <trkpt lat="45.6623" lon="6.88142">
        <ele>2253.6</ele>
        <time>2016-05-06T12:33:55Z</time>
      </trkpt>
      <trkpt lat="45.66224" lon="6.88142">
        <ele>2252.8</ele>
        <time>2016-05-06T12:33:57Z</time>
      </trkpt>
      <trkpt lat="45.66217" lon="6.88139">
        <ele>2252</ele>
        <time>2016-05-06T12:33:59Z</time>
      </trkpt>
      <trkpt lat="45.66211" lon="6.88137">
        <ele>2251.2</ele>
        <time>2016-05-06T12:34:01Z</time>
      </trkpt>
      <trkpt lat="45.66204" lon="6.88135">
        <ele>2250.4</ele>
        <time>2016-05-06T12:34:03Z</time>
      </trkpt>
      <trkpt lat="45.66198" lon="6.88132">
        <ele>2249.8</ele>
        <time>2016-05-06T12:34:05Z</time>
      </trkpt>
      <trkpt lat="45.66195" lon="6.88129">
        <ele>2249.4</ele>
        <time>2016-05-06T12:34:07Z</time>
      </trkpt>
      <trkpt lat="45.66192" lon="6.88126">
        <ele>2248.8</ele>
        <time>2016-05-06T12:34:09Z</time>
      </trkpt>
      <trkpt lat="45.66188" lon="6.88121">
        <ele>2248.4</ele>
        <time>2016-05-06T12:34:11Z</time>
      </trkpt>
      <trkpt lat="45.66185" lon="6.88119">
        <ele>2248.1</ele>
        <time>2016-05-06T12:34:13Z</time>
      </trkpt>
      <trkpt lat="45.66182" lon="6.88117">
        <ele>2247.9</ele>
        <time>2016-05-06T12:34:15Z</time>
      </trkpt>
      <trkpt lat="45.66181" lon="6.88115">
        <ele>2247.7</ele>
        <time>2016-05-06T12:34:17Z</time>
      </trkpt>
      <trkpt lat="45.66178" lon="6.88111">
        <ele>2247.6</ele>
        <time>2016-05-06T12:34:19Z</time>
      </trkpt>
      <trkpt lat="45.66176" lon="6.88109">
        <ele>2247.6</ele>
        <time>2016-05-06T12:34:21Z</time>
      </trkpt>
      <trkpt lat="45.66174" lon="6.88107">
        <ele>2247.5</ele>
        <time>2016-05-06T12:34:23Z</time>
      </trkpt>
      <trkpt lat="45.66172" lon="6.88102">
        <ele>2247.2</ele>
        <time>2016-05-06T12:34:25Z</time>
      </trkpt>
      <trkpt lat="45.66168" lon="6.88099">
        <ele>2247</ele>
        <time>2016-05-06T12:34:27Z</time>
      </trkpt>
      <trkpt lat="45.66164" lon="6.88098">
        <ele>2246.8</ele>
        <time>2016-05-06T12:34:29Z</time>
      </trkpt>
      <trkpt lat="45.66161" lon="6.88094">
        <ele>2246.7</ele>
        <time>2016-05-06T12:34:31Z</time>
      </trkpt>
      <trkpt lat="45.66164" lon="6.88085">
        <ele>2245.9</ele>
        <time>2016-05-06T12:34:33Z</time>
      </trkpt>
      <trkpt lat="45.66164" lon="6.88078">
        <ele>2246.1</ele>
        <time>2016-05-06T12:34:35Z</time>
      </trkpt>
      <trkpt lat="45.66166" lon="6.8807">
        <ele>2246</ele>
        <time>2016-05-06T12:34:37Z</time>
      </trkpt>
      <trkpt lat="45.66165" lon="6.88062">
        <ele>2245.4</ele>
        <time>2016-05-06T12:34:39Z</time>
      </trkpt>
      <trkpt lat="45.66164" lon="6.88056">
        <ele>2245.3</ele>
        <time>2016-05-06T12:34:41Z</time>
      </trkpt>
      <trkpt lat="45.66161" lon="6.88051">
        <ele>2245</ele>
        <time>2016-05-06T12:34:43Z</time>
      </trkpt>
      <trkpt lat="45.66158" lon="6.88051">
        <ele>2244.8</ele>
        <time>2016-05-06T12:34:45Z</time>
      </trkpt>
      <trkpt lat="45.66156" lon="6.88054">
        <ele>2244.5</ele>
        <time>2016-05-06T12:34:47Z</time>
      </trkpt>
      <trkpt lat="45.66153" lon="6.88059">
        <ele>2243.9</ele>
        <time>2016-05-06T12:34:49Z</time>
      </trkpt>
      <trkpt lat="45.66147" lon="6.88061">
        <ele>2243.9</ele>
        <time>2016-05-06T12:34:51Z</time>
      </trkpt>
      <trkpt lat="45.66138" lon="6.8806">
        <ele>2243.7</ele>
        <time>2016-05-06T12:34:53Z</time>
      </trkpt>
      <trkpt lat="45.66129" lon="6.8806">
        <ele>2243.2</ele>
        <time>2016-05-06T12:34:55Z</time>
      </trkpt>
      <trkpt lat="45.66119" lon="6.8806">
        <ele>2242.2</ele>
        <time>2016-05-06T12:34:57Z</time>
      </trkpt>
      <trkpt lat="45.66111" lon="6.88056">
        <ele>2241</ele>
        <time>2016-05-06T12:34:59Z</time>
      </trkpt>
      <trkpt lat="45.66105" lon="6.88053">
        <ele>2240.1</ele>
        <time>2016-05-06T12:35:01Z</time>
      </trkpt>
      <trkpt lat="45.66101" lon="6.88051">
        <ele>2239.5</ele>
        <time>2016-05-06T12:35:03Z</time>
      </trkpt>
      <trkpt lat="45.661" lon="6.8805">
        <ele>2239.1</ele>
        <time>2016-05-06T12:35:05Z</time>
      </trkpt>
      <trkpt lat="45.66099" lon="6.88048">
        <ele>2238.6</ele>
        <time>2016-05-06T12:35:07Z</time>
      </trkpt>
      <trkpt lat="45.66096" lon="6.88044">
        <ele>2238.3</ele>
        <time>2016-05-06T12:35:09Z</time>
      </trkpt>
      <trkpt lat="45.66094" lon="6.88042">
        <ele>2237.4</ele>
        <time>2016-05-06T12:35:11Z</time>
      </trkpt>
      <trkpt lat="45.66092" lon="6.88039">
        <ele>2237.4</ele>
        <time>2016-05-06T12:35:13Z</time>
      </trkpt>
      <trkpt lat="45.6609" lon="6.88035">
        <ele>2237.4</ele>
        <time>2016-05-06T12:35:15Z</time>
      </trkpt>
      <trkpt lat="45.66087" lon="6.88033">
        <ele>2237.4</ele>
        <time>2016-05-06T12:35:17Z</time>
      </trkpt>
      <trkpt lat="45.66086" lon="6.8803">
        <ele>2237.5</ele>
        <time>2016-05-06T12:35:19Z</time>
      </trkpt>
      <trkpt lat="45.66085" lon="6.88025">
        <ele>2237.6</ele>
        <time>2016-05-06T12:35:21Z</time>
      </trkpt>
      <trkpt lat="45.66084" lon="6.88022">
        <ele>2237.4</ele>
        <time>2016-05-06T12:35:23Z</time>
      </trkpt>
      <trkpt lat="45.66082" lon="6.88021">
        <ele>2237.4</ele>
        <time>2016-05-06T12:35:25Z</time>
      </trkpt>
      <trkpt lat="45.6608" lon="6.8802">
        <ele>2237.5</ele>
        <time>2016-05-06T12:35:27Z</time>
      </trkpt>
      <trkpt lat="45.66078" lon="6.88018">
        <ele>2237.6</ele>
        <time>2016-05-06T12:35:29Z</time>
      </trkpt>
      <trkpt lat="45.66075" lon="6.88016">
        <ele>2237.5</ele>
        <time>2016-05-06T12:35:31Z</time>
      </trkpt>
      <trkpt lat="45.66073" lon="6.88016">
        <ele>2237.8</ele>
        <time>2016-05-06T12:35:33Z</time>
      </trkpt>
      <trkpt lat="45.66072" lon="6.88017">
        <ele>2237.9</ele>
        <time>2016-05-06T12:35:35Z</time>
      </trkpt>
      <trkpt lat="45.66072" lon="6.88016">
        <ele>2238</ele>
        <time>2016-05-06T12:35:37Z</time>
      </trkpt>
      <trkpt lat="45.66069" lon="6.88014">
        <ele>2238</ele>
        <time>2016-05-06T12:35:39Z</time>
      </trkpt>
      <trkpt lat="45.66068" lon="6.88013">
        <ele>2238.1</ele>
        <time>2016-05-06T12:35:41Z</time>
      </trkpt>
      <trkpt lat="45.66068" lon="6.88011">
        <ele>2238.4</ele>
        <time>2016-05-06T12:35:43Z</time>
      </trkpt>
      <trkpt lat="45.66066" lon="6.88009">
        <ele>2238.5</ele>
        <time>2016-05-06T12:35:45Z</time>
      </trkpt>
      <trkpt lat="45.66068" lon="6.88005">
        <ele>2238.6</ele>
        <time>2016-05-06T12:35:47Z</time>
      </trkpt>
      <trkpt lat="45.66067" lon="6.88005">
        <ele>2239</ele>
        <time>2016-05-06T12:35:50Z</time>
      </trkpt>
      <trkpt lat="45.66065" lon="6.88006">
        <ele>2239.4</ele>
        <time>2016-05-06T12:35:53Z</time>
      </trkpt>
      <trkpt lat="45.66065" lon="6.88006">
        <ele>2239.5</ele>
        <time>2016-05-06T12:35:55Z</time>
      </trkpt>
      <trkpt lat="45.66064" lon="6.88006">
        <ele>2239.6</ele>
        <time>2016-05-06T12:35:57Z</time>
      </trkpt>
      <trkpt lat="45.66061" lon="6.88005">
        <ele>2239.6</ele>
        <time>2016-05-06T12:35:59Z</time>
      </trkpt>
      <trkpt lat="45.6606" lon="6.88005">
        <ele>2239.9</ele>
        <time>2016-05-06T12:36:01Z</time>
      </trkpt>
      <trkpt lat="45.66059" lon="6.88004">
        <ele>2240.1</ele>
        <time>2016-05-06T12:36:03Z</time>
      </trkpt>
      <trkpt lat="45.66058" lon="6.88003">
        <ele>2240.3</ele>
        <time>2016-05-06T12:36:05Z</time>
      </trkpt>
      <trkpt lat="45.66056" lon="6.88003">
        <ele>2240.5</ele>
        <time>2016-05-06T12:36:07Z</time>
      </trkpt>
      <trkpt lat="45.66055" lon="6.88001">
        <ele>2240.7</ele>
        <time>2016-05-06T12:36:09Z</time>
      </trkpt>
      <trkpt lat="45.66053" lon="6.87998">
        <ele>2241.1</ele>
        <time>2016-05-06T12:36:11Z</time>
      </trkpt>
      <trkpt lat="45.66052" lon="6.87997">
        <ele>2241.4</ele>
        <time>2016-05-06T12:36:13Z</time>
      </trkpt>
      <trkpt lat="45.6605" lon="6.87996">
        <ele>2241.8</ele>
        <time>2016-05-06T12:36:15Z</time>
      </trkpt>
      <trkpt lat="45.66049" lon="6.87994">
        <ele>2242.2</ele>
        <time>2016-05-06T12:36:17Z</time>
      </trkpt>
      <trkpt lat="45.66048" lon="6.87993">
        <ele>2242.5</ele>
        <time>2016-05-06T12:36:19Z</time>
      </trkpt>
      <trkpt lat="45.66045" lon="6.87991">
        <ele>2242.9</ele>
        <time>2016-05-06T12:36:21Z</time>
      </trkpt>
      <trkpt lat="45.66044" lon="6.8799">
        <ele>2243.1</ele>
        <time>2016-05-06T12:36:23Z</time>
      </trkpt>
      <trkpt lat="45.66042" lon="6.87988">
        <ele>2243.5</ele>
        <time>2016-05-06T12:36:25Z</time>
      </trkpt>
      <trkpt lat="45.66042" lon="6.87987">
        <ele>2243.7</ele>
        <time>2016-05-06T12:36:27Z</time>
      </trkpt>
      <trkpt lat="45.66041" lon="6.87986">
        <ele>2243.9</ele>
        <time>2016-05-06T12:36:29Z</time>
      </trkpt>
      <trkpt lat="45.6604" lon="6.87985">
        <ele>2244.2</ele>
        <time>2016-05-06T12:36:31Z</time>
      </trkpt>
      <trkpt lat="45.66039" lon="6.87985">
        <ele>2244.6</ele>
        <time>2016-05-06T12:36:33Z</time>
      </trkpt>
      <trkpt lat="45.66038" lon="6.87983">
        <ele>2244.9</ele>
        <time>2016-05-06T12:36:35Z</time>
      </trkpt>
      <trkpt lat="45.66038" lon="6.87982">
        <ele>2245</ele>
        <time>2016-05-06T12:36:37Z</time>
      </trkpt>
      <trkpt lat="45.66037" lon="6.87982">
        <ele>2245.4</ele>
        <time>2016-05-06T12:36:39Z</time>
      </trkpt>
      <trkpt lat="45.66036" lon="6.87981">
        <ele>2245.8</ele>
        <time>2016-05-06T12:36:41Z</time>
      </trkpt>
      <trkpt lat="45.66035" lon="6.8798">
        <ele>2246.1</ele>
        <time>2016-05-06T12:36:43Z</time>
      </trkpt>
      <trkpt lat="45.66034" lon="6.87979">
        <ele>2246.2</ele>
        <time>2016-05-06T12:36:45Z</time>
      </trkpt>
      <trkpt lat="45.66033" lon="6.87978">
        <ele>2246.4</ele>
        <time>2016-05-06T12:36:47Z</time>
      </trkpt>
      <trkpt lat="45.66032" lon="6.87977">
        <ele>2246.6</ele>
        <time>2016-05-06T12:36:49Z</time>
      </trkpt>
      <trkpt lat="45.66031" lon="6.87976">
        <ele>2246.9</ele>
        <time>2016-05-06T12:36:51Z</time>
      </trkpt>
      <trkpt lat="45.6603" lon="6.87976">
        <ele>2247.3</ele>
        <time>2016-05-06T12:36:53Z</time>
      </trkpt>
      <trkpt lat="45.66028" lon="6.87976">
        <ele>2247.7</ele>
        <time>2016-05-06T12:36:55Z</time>
      </trkpt>
      <trkpt lat="45.66028" lon="6.87975">
        <ele>2247.9</ele>
        <time>2016-05-06T12:36:57Z</time>
      </trkpt>
      <trkpt lat="45.66026" lon="6.87974">
        <ele>2248.1</ele>
        <time>2016-05-06T12:36:59Z</time>
      </trkpt>
      <trkpt lat="45.66025" lon="6.87973">
        <ele>2248.4</ele>
        <time>2016-05-06T12:37:01Z</time>
      </trkpt>
      <trkpt lat="45.66024" lon="6.87971">
        <ele>2248.8</ele>
        <time>2016-05-06T12:37:03Z</time>
      </trkpt>
      <trkpt lat="45.66024" lon="6.87969">
        <ele>2249.3</ele>
        <time>2016-05-06T12:37:05Z</time>
      </trkpt>
      <trkpt lat="45.66022" lon="6.87969">
        <ele>2249.7</ele>
        <time>2016-05-06T12:37:07Z</time>
      </trkpt>
      <trkpt lat="45.66021" lon="6.87969">
        <ele>2250.2</ele>
        <time>2016-05-06T12:37:09Z</time>
      </trkpt>
      <trkpt lat="45.66022" lon="6.87969">
        <ele>2250.5</ele>
        <time>2016-05-06T12:37:11Z</time>
      </trkpt>
      <trkpt lat="45.66021" lon="6.87968">
        <ele>2250.6</ele>
        <time>2016-05-06T12:37:13Z</time>
      </trkpt>
      <trkpt lat="45.6602" lon="6.87968">
        <ele>2250.8</ele>
        <time>2016-05-06T12:37:15Z</time>
      </trkpt>
      <trkpt lat="45.66019" lon="6.87967">
        <ele>2250.8</ele>
        <time>2016-05-06T12:37:17Z</time>
      </trkpt>
      <trkpt lat="45.66018" lon="6.87967">
        <ele>2251.4</ele>
        <time>2016-05-06T12:37:19Z</time>
      </trkpt>
      <trkpt lat="45.66017" lon="6.87965">
        <ele>2251.6</ele>
        <time>2016-05-06T12:37:21Z</time>
      </trkpt>
      <trkpt lat="45.66016" lon="6.87965">
        <ele>2251.9</ele>
        <time>2016-05-06T12:37:23Z</time>
      </trkpt>
      <trkpt lat="45.66015" lon="6.87964">
        <ele>2252.1</ele>
        <time>2016-05-06T12:37:25Z</time>
      </trkpt>
      <trkpt lat="45.66014" lon="6.87962">
        <ele>2252.3</ele>
        <time>2016-05-06T12:37:27Z</time>
      </trkpt>
      <trkpt lat="45.66015" lon="6.87962">
        <ele>2252.5</ele>
        <time>2016-05-06T12:37:29Z</time>
      </trkpt>
      <trkpt lat="45.66014" lon="6.87962">
        <ele>2252.8</ele>
        <time>2016-05-06T12:37:31Z</time>
      </trkpt>
      <trkpt lat="45.66012" lon="6.87961">
        <ele>2252.9</ele>
        <time>2016-05-06T12:37:33Z</time>
      </trkpt>
      <trkpt lat="45.66011" lon="6.87961">
        <ele>2253.2</ele>
        <time>2016-05-06T12:37:35Z</time>
      </trkpt>
      <trkpt lat="45.66011" lon="6.87959">
        <ele>2253.5</ele>
        <time>2016-05-06T12:37:37Z</time>
      </trkpt>
      <trkpt lat="45.6601" lon="6.87959">
        <ele>2253.9</ele>
        <time>2016-05-06T12:37:39Z</time>
      </trkpt>
      <trkpt lat="45.66008" lon="6.87958">
        <ele>2254.3</ele>
        <time>2016-05-06T12:37:41Z</time>
      </trkpt>
      <trkpt lat="45.66007" lon="6.87957">
        <ele>2254.5</ele>
        <time>2016-05-06T12:37:43Z</time>
      </trkpt>
      <trkpt lat="45.66007" lon="6.87957">
        <ele>2255</ele>
        <time>2016-05-06T12:37:45Z</time>
      </trkpt>
      <trkpt lat="45.66006" lon="6.87957">
        <ele>2255.2</ele>
        <time>2016-05-06T12:37:47Z</time>
      </trkpt>
      <trkpt lat="45.66006" lon="6.87956">
        <ele>2255.5</ele>
        <time>2016-05-06T12:37:49Z</time>
      </trkpt>
      <trkpt lat="45.66005" lon="6.87955">
        <ele>2255.8</ele>
        <time>2016-05-06T12:37:51Z</time>
      </trkpt>
      <trkpt lat="45.66004" lon="6.87955">
        <ele>2256</ele>
        <time>2016-05-06T12:37:53Z</time>
      </trkpt>
      <trkpt lat="45.66003" lon="6.87954">
        <ele>2256.3</ele>
        <time>2016-05-06T12:37:55Z</time>
      </trkpt>
      <trkpt lat="45.66002" lon="6.87953">
        <ele>2256.4</ele>
        <time>2016-05-06T12:37:57Z</time>
      </trkpt>
      <trkpt lat="45.66002" lon="6.87952">
        <ele>2256.7</ele>
        <time>2016-05-06T12:37:59Z</time>
      </trkpt>
      <trkpt lat="45.66002" lon="6.87951">
        <ele>2257.2</ele>
        <time>2016-05-06T12:38:01Z</time>
      </trkpt>
      <trkpt lat="45.66001" lon="6.87949">
        <ele>2257.5</ele>
        <time>2016-05-06T12:38:03Z</time>
      </trkpt>
      <trkpt lat="45.66001" lon="6.87949">
        <ele>2257.7</ele>
        <time>2016-05-06T12:38:05Z</time>
      </trkpt>
      <trkpt lat="45.65999" lon="6.87948">
        <ele>2258</ele>
        <time>2016-05-06T12:38:07Z</time>
      </trkpt>
      <trkpt lat="45.65999" lon="6.87947">
        <ele>2258.2</ele>
        <time>2016-05-06T12:38:09Z</time>
      </trkpt>
      <trkpt lat="45.65998" lon="6.87946">
        <ele>2258.4</ele>
        <time>2016-05-06T12:38:11Z</time>
      </trkpt>
      <trkpt lat="45.65997" lon="6.87946">
        <ele>2258.5</ele>
        <time>2016-05-06T12:38:13Z</time>
      </trkpt>
      <trkpt lat="45.65996" lon="6.87945">
        <ele>2258.8</ele>
        <time>2016-05-06T12:38:15Z</time>
      </trkpt>
      <trkpt lat="45.65995" lon="6.87945">
        <ele>2259</ele>
        <time>2016-05-06T12:38:17Z</time>
      </trkpt>
      <trkpt lat="45.65993" lon="6.87944">
        <ele>2259.4</ele>
        <time>2016-05-06T12:38:19Z</time>
      </trkpt>
      <trkpt lat="45.65992" lon="6.87943">
        <ele>2259.8</ele>
        <time>2016-05-06T12:38:21Z</time>
      </trkpt>
      <trkpt lat="45.6599" lon="6.87942">
        <ele>2260.2</ele>
        <time>2016-05-06T12:38:23Z</time>
      </trkpt>
      <trkpt lat="45.6599" lon="6.87941">
        <ele>2260.7</ele>
        <time>2016-05-06T12:38:25Z</time>
      </trkpt>
      <trkpt lat="45.65988" lon="6.87939">
        <ele>2261.2</ele>
        <time>2016-05-06T12:38:27Z</time>
      </trkpt>
      <trkpt lat="45.65987" lon="6.87938">
        <ele>2261.5</ele>
        <time>2016-05-06T12:38:29Z</time>
      </trkpt>
      <trkpt lat="45.65985" lon="6.87938">
        <ele>2262.1</ele>
        <time>2016-05-06T12:38:31Z</time>
      </trkpt>
      <trkpt lat="45.65984" lon="6.87937">
        <ele>2262.3</ele>
        <time>2016-05-06T12:38:33Z</time>
      </trkpt>
      <trkpt lat="45.65984" lon="6.87936">
        <ele>2262.5</ele>
        <time>2016-05-06T12:38:35Z</time>
      </trkpt>
      <trkpt lat="45.65983" lon="6.87935">
        <ele>2262.9</ele>
        <time>2016-05-06T12:38:37Z</time>
      </trkpt>
      <trkpt lat="45.65982" lon="6.87935">
        <ele>2263.2</ele>
        <time>2016-05-06T12:38:39Z</time>
      </trkpt>
      <trkpt lat="45.65981" lon="6.87934">
        <ele>2263.4</ele>
        <time>2016-05-06T12:38:41Z</time>
      </trkpt>
      <trkpt lat="45.6598" lon="6.87934">
        <ele>2263.8</ele>
        <time>2016-05-06T12:38:43Z</time>
      </trkpt>
      <trkpt lat="45.65979" lon="6.87933">
        <ele>2264.1</ele>
        <time>2016-05-06T12:38:45Z</time>
      </trkpt>
      <trkpt lat="45.65979" lon="6.87932">
        <ele>2264.5</ele>
        <time>2016-05-06T12:38:47Z</time>
      </trkpt>
      <trkpt lat="45.65978" lon="6.87932">
        <ele>2264.9</ele>
        <time>2016-05-06T12:38:49Z</time>
      </trkpt>
      <trkpt lat="45.65977" lon="6.87932">
        <ele>2265.1</ele>
        <time>2016-05-06T12:38:51Z</time>
      </trkpt>
      <trkpt lat="45.65976" lon="6.87931">
        <ele>2265.4</ele>
        <time>2016-05-06T12:38:53Z</time>
      </trkpt>
      <trkpt lat="45.65976" lon="6.87931">
        <ele>2265.6</ele>
        <time>2016-05-06T12:38:55Z</time>
      </trkpt>
      <trkpt lat="45.65975" lon="6.8793">
        <ele>2265.9</ele>
        <time>2016-05-06T12:38:57Z</time>
      </trkpt>
      <trkpt lat="45.65974" lon="6.8793">
        <ele>2266.1</ele>
        <time>2016-05-06T12:38:59Z</time>
      </trkpt>
      <trkpt lat="45.65972" lon="6.87929">
        <ele>2266.3</ele>
        <time>2016-05-06T12:39:01Z</time>
      </trkpt>
      <trkpt lat="45.6597" lon="6.87928">
        <ele>2266.7</ele>
        <time>2016-05-06T12:39:03Z</time>
      </trkpt>
      <trkpt lat="45.65969" lon="6.87928">
        <ele>2267</ele>
        <time>2016-05-06T12:39:05Z</time>
      </trkpt>
      <trkpt lat="45.65968" lon="6.87926">
        <ele>2267.5</ele>
        <time>2016-05-06T12:39:07Z</time>
      </trkpt>
      <trkpt lat="45.65967" lon="6.87923">
        <ele>2267.9</ele>
        <time>2016-05-06T12:39:09Z</time>
      </trkpt>
      <trkpt lat="45.65966" lon="6.87922">
        <ele>2268.5</ele>
        <time>2016-05-06T12:39:11Z</time>
      </trkpt>
      <trkpt lat="45.65965" lon="6.87921">
        <ele>2269</ele>
        <time>2016-05-06T12:39:13Z</time>
      </trkpt>
      <trkpt lat="45.65964" lon="6.8792">
        <ele>2269.7</ele>
        <time>2016-05-06T12:39:15Z</time>
      </trkpt>
      <trkpt lat="45.65963" lon="6.87919">
        <ele>2270.1</ele>
        <time>2016-05-06T12:39:17Z</time>
      </trkpt>
      <trkpt lat="45.65963" lon="6.87919">
        <ele>2270.6</ele>
        <time>2016-05-06T12:39:19Z</time>
      </trkpt>
      <trkpt lat="45.65963" lon="6.87918">
        <ele>2271</ele>
        <time>2016-05-06T12:39:21Z</time>
      </trkpt>
      <trkpt lat="45.65962" lon="6.87917">
        <ele>2271.3</ele>
        <time>2016-05-06T12:39:23Z</time>
      </trkpt>
      <trkpt lat="45.65961" lon="6.87917">
        <ele>2271.9</ele>
        <time>2016-05-06T12:39:25Z</time>
      </trkpt>
      <trkpt lat="45.65959" lon="6.87916">
        <ele>2272.4</ele>
        <time>2016-05-06T12:39:27Z</time>
      </trkpt>
      <trkpt lat="45.65958" lon="6.87915">
        <ele>2272.6</ele>
        <time>2016-05-06T12:39:29Z</time>
      </trkpt>
      <trkpt lat="45.65957" lon="6.87915">
        <ele>2273</ele>
        <time>2016-05-06T12:39:31Z</time>
      </trkpt>
      <trkpt lat="45.65955" lon="6.87915">
        <ele>2273.4</ele>
        <time>2016-05-06T12:39:33Z</time>
      </trkpt>
      <trkpt lat="45.65954" lon="6.87913">
        <ele>2273.6</ele>
        <time>2016-05-06T12:39:35Z</time>
      </trkpt>
      <trkpt lat="45.65953" lon="6.87913">
        <ele>2274</ele>
        <time>2016-05-06T12:39:37Z</time>
      </trkpt>
      <trkpt lat="45.65953" lon="6.87911">
        <ele>2274.2</ele>
        <time>2016-05-06T12:39:39Z</time>
      </trkpt>
      <trkpt lat="45.65953" lon="6.8791">
        <ele>2274.7</ele>
        <time>2016-05-06T12:39:41Z</time>
      </trkpt>
      <trkpt lat="45.65952" lon="6.87909">
        <ele>2275.1</ele>
        <time>2016-05-06T12:39:43Z</time>
      </trkpt>
      <trkpt lat="45.6595" lon="6.87909">
        <ele>2275.4</ele>
        <time>2016-05-06T12:39:45Z</time>
      </trkpt>
      <trkpt lat="45.65949" lon="6.87908">
        <ele>2275.8</ele>
        <time>2016-05-06T12:39:47Z</time>
      </trkpt>
      <trkpt lat="45.65948" lon="6.87908">
        <ele>2276.2</ele>
        <time>2016-05-06T12:39:49Z</time>
      </trkpt>
      <trkpt lat="45.65947" lon="6.87907">
        <ele>2276.6</ele>
        <time>2016-05-06T12:39:51Z</time>
      </trkpt>
      <trkpt lat="45.65946" lon="6.87907">
        <ele>2276.9</ele>
        <time>2016-05-06T12:39:53Z</time>
      </trkpt>
      <trkpt lat="45.65946" lon="6.87906">
        <ele>2277.1</ele>
        <time>2016-05-06T12:39:55Z</time>
      </trkpt>
      <trkpt lat="45.65945" lon="6.87905">
        <ele>2277.4</ele>
        <time>2016-05-06T12:39:57Z</time>
      </trkpt>
      <trkpt lat="45.65944" lon="6.87904">
        <ele>2277.7</ele>
        <time>2016-05-06T12:39:59Z</time>
      </trkpt>
      <trkpt lat="45.65944" lon="6.87903">
        <ele>2277.9</ele>
        <time>2016-05-06T12:40:01Z</time>
      </trkpt>
      <trkpt lat="45.65942" lon="6.87903">
        <ele>2278.2</ele>
        <time>2016-05-06T12:40:03Z</time>
      </trkpt>
      <trkpt lat="45.65941" lon="6.87903">
        <ele>2278.7</ele>
        <time>2016-05-06T12:40:05Z</time>
      </trkpt>
      <trkpt lat="45.6594" lon="6.87902">
        <ele>2279</ele>
        <time>2016-05-06T12:40:07Z</time>
      </trkpt>
      <trkpt lat="45.6594" lon="6.87901">
        <ele>2279.4</ele>
        <time>2016-05-06T12:40:09Z</time>
      </trkpt>
      <trkpt lat="45.6594" lon="6.87901">
        <ele>2279.5</ele>
        <time>2016-05-06T12:40:11Z</time>
      </trkpt>
      <trkpt lat="45.65939" lon="6.879">
        <ele>2279.6</ele>
        <time>2016-05-06T12:40:13Z</time>
      </trkpt>
      <trkpt lat="45.65938" lon="6.879">
        <ele>2279.9</ele>
        <time>2016-05-06T12:40:15Z</time>
      </trkpt>
      <trkpt lat="45.65938" lon="6.87899">
        <ele>2280.4</ele>
        <time>2016-05-06T12:40:17Z</time>
      </trkpt>
      <trkpt lat="45.65936" lon="6.87898">
        <ele>2280.8</ele>
        <time>2016-05-06T12:40:19Z</time>
      </trkpt>
      <trkpt lat="45.65935" lon="6.87898">
        <ele>2280.8</ele>
        <time>2016-05-06T12:40:21Z</time>
      </trkpt>
      <trkpt lat="45.65933" lon="6.87898">
        <ele>2281.6</ele>
        <time>2016-05-06T12:40:23Z</time>
      </trkpt>
      <trkpt lat="45.65933" lon="6.87898">
        <ele>2281.7</ele>
        <time>2016-05-06T12:40:25Z</time>
      </trkpt>
      <trkpt lat="45.65931" lon="6.87897">
        <ele>2282.1</ele>
        <time>2016-05-06T12:40:27Z</time>
      </trkpt>
      <trkpt lat="45.65931" lon="6.87896">
        <ele>2282.5</ele>
        <time>2016-05-06T12:40:29Z</time>
      </trkpt>
      <trkpt lat="45.65929" lon="6.87897">
        <ele>2282.7</ele>
        <time>2016-05-06T12:40:31Z</time>
      </trkpt>
      <trkpt lat="45.65929" lon="6.87897">
        <ele>2283</ele>
        <time>2016-05-06T12:40:33Z</time>
      </trkpt>
      <trkpt lat="45.65928" lon="6.87897">
        <ele>2283.3</ele>
        <time>2016-05-06T12:40:35Z</time>
      </trkpt>
      <trkpt lat="45.65926" lon="6.87897">
        <ele>2283.5</ele>
        <time>2016-05-06T12:40:37Z</time>
      </trkpt>
      <trkpt lat="45.65926" lon="6.87896">
        <ele>2283.9</ele>
        <time>2016-05-06T12:40:39Z</time>
      </trkpt>
      <trkpt lat="45.65926" lon="6.87896">
        <ele>2284</ele>
        <time>2016-05-06T12:40:41Z</time>
      </trkpt>
      <trkpt lat="45.65925" lon="6.87895">
        <ele>2284.4</ele>
        <time>2016-05-06T12:40:43Z</time>
      </trkpt>
      <trkpt lat="45.65924" lon="6.87895">
        <ele>2284.7</ele>
        <time>2016-05-06T12:40:45Z</time>
      </trkpt>
      <trkpt lat="45.65924" lon="6.87895">
        <ele>2284.8</ele>
        <time>2016-05-06T12:40:47Z</time>
      </trkpt>
      <trkpt lat="45.65923" lon="6.87895">
        <ele>2285.2</ele>
        <time>2016-05-06T12:40:49Z</time>
      </trkpt>
      <trkpt lat="45.65923" lon="6.87894">
        <ele>2285.3</ele>
        <time>2016-05-06T12:40:51Z</time>
      </trkpt>
      <trkpt lat="45.65922" lon="6.87894">
        <ele>2285.8</ele>
        <time>2016-05-06T12:40:53Z</time>
      </trkpt>
      <trkpt lat="45.65922" lon="6.87894">
        <ele>2286.1</ele>
        <time>2016-05-06T12:40:55Z</time>
      </trkpt>
      <trkpt lat="45.65922" lon="6.87894">
        <ele>2285.9</ele>
        <time>2016-05-06T12:40:57Z</time>
      </trkpt>
      <trkpt lat="45.65921" lon="6.87894">
        <ele>2286</ele>
        <time>2016-05-06T12:40:59Z</time>
      </trkpt>
      <trkpt lat="45.6592" lon="6.87894">
        <ele>2286.1</ele>
        <time>2016-05-06T12:41:01Z</time>
      </trkpt>
      <trkpt lat="45.65921" lon="6.87894">
        <ele>2286.1</ele>
        <time>2016-05-06T12:41:03Z</time>
      </trkpt>
      <trkpt lat="45.6592" lon="6.87895">
        <ele>2286.4</ele>
        <time>2016-05-06T12:41:05Z</time>
      </trkpt>
      <trkpt lat="45.6592" lon="6.87895">
        <ele>2286.6</ele>
        <time>2016-05-06T12:41:07Z</time>
      </trkpt>
      <trkpt lat="45.65919" lon="6.87896">
        <ele>2286.8</ele>
        <time>2016-05-06T12:41:09Z</time>
      </trkpt>
      <trkpt lat="45.6592" lon="6.87896">
        <ele>2287</ele>
        <time>2016-05-06T12:41:11Z</time>
      </trkpt>
      <trkpt lat="45.65919" lon="6.87895">
        <ele>2286.9</ele>
        <time>2016-05-06T12:41:13Z</time>
      </trkpt>
      <trkpt lat="45.65918" lon="6.87895">
        <ele>2287.1</ele>
        <time>2016-05-06T12:41:15Z</time>
      </trkpt>
      <trkpt lat="45.65918" lon="6.87895">
        <ele>2287.3</ele>
        <time>2016-05-06T12:41:17Z</time>
      </trkpt>
      <trkpt lat="45.65917" lon="6.87894">
        <ele>2287.5</ele>
        <time>2016-05-06T12:41:19Z</time>
      </trkpt>
      <trkpt lat="45.65917" lon="6.87895">
        <ele>2287.8</ele>
        <time>2016-05-06T12:41:21Z</time>
      </trkpt>
      <trkpt lat="45.65917" lon="6.87895">
        <ele>2288</ele>
        <time>2016-05-06T12:41:23Z</time>
      </trkpt>
      <trkpt lat="45.65915" lon="6.87896">
        <ele>2288.2</ele>
        <time>2016-05-06T12:41:25Z</time>
      </trkpt>
      <trkpt lat="45.65913" lon="6.87895">
        <ele>2288.3</ele>
        <time>2016-05-06T12:41:27Z</time>
      </trkpt>
      <trkpt lat="45.65911" lon="6.87894">
        <ele>2288.7</ele>
        <time>2016-05-06T12:41:29Z</time>
      </trkpt>
      <trkpt lat="45.65909" lon="6.87893">
        <ele>2289.3</ele>
        <time>2016-05-06T12:41:31Z</time>
      </trkpt>
      <trkpt lat="45.65907" lon="6.87892">
        <ele>2289.9</ele>
        <time>2016-05-06T12:41:33Z</time>
      </trkpt>
      <trkpt lat="45.65905" lon="6.87891">
        <ele>2290.3</ele>
        <time>2016-05-06T12:41:35Z</time>
      </trkpt>
      <trkpt lat="45.65905" lon="6.87891">
        <ele>2290.8</ele>
        <time>2016-05-06T12:41:37Z</time>
      </trkpt>
      <trkpt lat="45.65903" lon="6.8789">
        <ele>2291.2</ele>
        <time>2016-05-06T12:41:39Z</time>
      </trkpt>
      <trkpt lat="45.65902" lon="6.87889">
        <ele>2291.7</ele>
        <time>2016-05-06T12:41:41Z</time>
      </trkpt>
      <trkpt lat="45.65901" lon="6.87889">
        <ele>2292.3</ele>
        <time>2016-05-06T12:41:43Z</time>
      </trkpt>
      <trkpt lat="45.65899" lon="6.87888">
        <ele>2292.8</ele>
        <time>2016-05-06T12:41:45Z</time>
      </trkpt>
      <trkpt lat="45.65898" lon="6.87887">
        <ele>2293.3</ele>
        <time>2016-05-06T12:41:47Z</time>
      </trkpt>
      <trkpt lat="45.65896" lon="6.87887">
        <ele>2293.9</ele>
        <time>2016-05-06T12:41:49Z</time>
      </trkpt>
      <trkpt lat="45.65896" lon="6.87887">
        <ele>2294.5</ele>
        <time>2016-05-06T12:41:51Z</time>
      </trkpt>
      <trkpt lat="45.65895" lon="6.87886">
        <ele>2295.1</ele>
        <time>2016-05-06T12:41:53Z</time>
      </trkpt>
      <trkpt lat="45.65894" lon="6.87886">
        <ele>2295.6</ele>
        <time>2016-05-06T12:41:55Z</time>
      </trkpt>
      <trkpt lat="45.65893" lon="6.87886">
        <ele>2295.7</ele>
        <time>2016-05-06T12:41:57Z</time>
      </trkpt>
      <trkpt lat="45.65893" lon="6.87885">
        <ele>2296</ele>
        <time>2016-05-06T12:41:59Z</time>
      </trkpt>
      <trkpt lat="45.65892" lon="6.87885">
        <ele>2296.2</ele>
        <time>2016-05-06T12:42:01Z</time>
      </trkpt>
      <trkpt lat="45.65892" lon="6.87885">
        <ele>2296.6</ele>
        <time>2016-05-06T12:42:03Z</time>
      </trkpt>
      <trkpt lat="45.65891" lon="6.87885">
        <ele>2297</ele>
        <time>2016-05-06T12:42:05Z</time>
      </trkpt>
      <trkpt lat="45.65891" lon="6.87884">
        <ele>2297.4</ele>
        <time>2016-05-06T12:42:07Z</time>
      </trkpt>
      <trkpt lat="45.65891" lon="6.87885">
        <ele>2297.7</ele>
        <time>2016-05-06T12:42:09Z</time>
      </trkpt>
      <trkpt lat="45.65891" lon="6.87885">
        <ele>2297.9</ele>
        <time>2016-05-06T12:42:11Z</time>
      </trkpt>
      <trkpt lat="45.65891" lon="6.87885">
        <ele>2297.9</ele>
        <time>2016-05-06T12:42:13Z</time>
      </trkpt>
      <trkpt lat="45.65892" lon="6.87885">
        <ele>2298.1</ele>
        <time>2016-05-06T12:42:15Z</time>
      </trkpt>
      <trkpt lat="45.65891" lon="6.87884">
        <ele>2298.2</ele>
        <time>2016-05-06T12:42:17Z</time>
      </trkpt>
      <trkpt lat="45.65891" lon="6.87885">
        <ele>2298.4</ele>
        <time>2016-05-06T12:42:19Z</time>
      </trkpt>
      <trkpt lat="45.65891" lon="6.87886">
        <ele>2298.6</ele>
        <time>2016-05-06T12:42:21Z</time>
      </trkpt>
      <trkpt lat="45.65892" lon="6.87886">
        <ele>2298.8</ele>
        <time>2016-05-06T12:42:23Z</time>
      </trkpt>
      <trkpt lat="45.65891" lon="6.87886">
        <ele>2298.9</ele>
        <time>2016-05-06T12:42:25Z</time>
      </trkpt>
      <trkpt lat="45.6589" lon="6.87885">
        <ele>2298.9</ele>
        <time>2016-05-06T12:42:27Z</time>
      </trkpt>
      <trkpt lat="45.6589" lon="6.87885">
        <ele>2298.9</ele>
        <time>2016-05-06T12:42:29Z</time>
      </trkpt>
      <trkpt lat="45.6589" lon="6.87885">
        <ele>2298.8</ele>
        <time>2016-05-06T12:42:31Z</time>
      </trkpt>
      <trkpt lat="45.65889" lon="6.87885">
        <ele>2298.8</ele>
        <time>2016-05-06T12:42:33Z</time>
      </trkpt>
      <trkpt lat="45.65888" lon="6.87885">
        <ele>2298.9</ele>
        <time>2016-05-06T12:42:35Z</time>
      </trkpt>
      <trkpt lat="45.65888" lon="6.87885">
        <ele>2299.3</ele>
        <time>2016-05-06T12:42:37Z</time>
      </trkpt>
      <trkpt lat="45.65886" lon="6.87885">
        <ele>2299.6</ele>
        <time>2016-05-06T12:42:39Z</time>
      </trkpt>
      <trkpt lat="45.65885" lon="6.87885">
        <ele>2299.9</ele>
        <time>2016-05-06T12:42:41Z</time>
      </trkpt>
      <trkpt lat="45.65885" lon="6.87885">
        <ele>2300</ele>
        <time>2016-05-06T12:42:43Z</time>
      </trkpt>
      <trkpt lat="45.65885" lon="6.87885">
        <ele>2300</ele>
        <time>2016-05-06T12:42:45Z</time>
      </trkpt>
      <trkpt lat="45.65885" lon="6.87886">
        <ele>2300.2</ele>
        <time>2016-05-06T12:42:47Z</time>
      </trkpt>
      <trkpt lat="45.65884" lon="6.87886">
        <ele>2300</ele>
        <time>2016-05-06T12:42:49Z</time>
      </trkpt>
      <trkpt lat="45.65884" lon="6.87884">
        <ele>2300</ele>
        <time>2016-05-06T12:42:51Z</time>
      </trkpt>
      <trkpt lat="45.65884" lon="6.87885">
        <ele>2299.8</ele>
        <time>2016-05-06T12:42:53Z</time>
      </trkpt>
      <trkpt lat="45.65884" lon="6.87885">
        <ele>2299.8</ele>
        <time>2016-05-06T12:42:55Z</time>
      </trkpt>
      <trkpt lat="45.65885" lon="6.87884">
        <ele>2299.8</ele>
        <time>2016-05-06T12:42:57Z</time>
      </trkpt>
      <trkpt lat="45.65886" lon="6.87883">
        <ele>2299.7</ele>
        <time>2016-05-06T12:42:59Z</time>
      </trkpt>
      <trkpt lat="45.65886" lon="6.87883">
        <ele>2299.8</ele>
        <time>2016-05-06T12:43:01Z</time>
      </trkpt>
      <trkpt lat="45.65887" lon="6.87882">
        <ele>2299.7</ele>
        <time>2016-05-06T12:43:03Z</time>
      </trkpt>
      <trkpt lat="45.65887" lon="6.87881">
        <ele>2299.5</ele>
        <time>2016-05-06T12:43:05Z</time>
      </trkpt>
      <trkpt lat="45.65887" lon="6.87881">
        <ele>2299.5</ele>
        <time>2016-05-06T12:43:07Z</time>
      </trkpt>
      <trkpt lat="45.65887" lon="6.87882">
        <ele>2299.5</ele>
        <time>2016-05-06T12:43:09Z</time>
      </trkpt>
      <trkpt lat="45.65887" lon="6.87883">
        <ele>2299.4</ele>
        <time>2016-05-06T12:43:11Z</time>
      </trkpt>
      <trkpt lat="45.65886" lon="6.87883">
        <ele>2299.4</ele>
        <time>2016-05-06T12:43:13Z</time>
      </trkpt>
      <trkpt lat="45.65885" lon="6.87883">
        <ele>2299.3</ele>
        <time>2016-05-06T12:43:15Z</time>
      </trkpt>
      <trkpt lat="45.65886" lon="6.87883">
        <ele>2299.3</ele>
        <time>2016-05-06T12:43:17Z</time>
      </trkpt>
      <trkpt lat="45.65886" lon="6.87883">
        <ele>2299.4</ele>
        <time>2016-05-06T12:43:19Z</time>
      </trkpt>
      <trkpt lat="45.65886" lon="6.87883">
        <ele>2299.4</ele>
        <time>2016-05-06T12:43:21Z</time>
      </trkpt>
      <trkpt lat="45.65886" lon="6.87884">
        <ele>2299.4</ele>
        <time>2016-05-06T12:43:23Z</time>
      </trkpt>
      <trkpt lat="45.65886" lon="6.87884">
        <ele>2299.5</ele>
        <time>2016-05-06T12:43:25Z</time>
      </trkpt>
      <trkpt lat="45.65885" lon="6.87884">
        <ele>2299.6</ele>
        <time>2016-05-06T12:43:27Z</time>
      </trkpt>
      <trkpt lat="45.65885" lon="6.87883">
        <ele>2299.5</ele>
        <time>2016-05-06T12:43:29Z</time>
      </trkpt>
      <trkpt lat="45.65885" lon="6.87884">
        <ele>2299.5</ele>
        <time>2016-05-06T12:43:31Z</time>
      </trkpt>
      <trkpt lat="45.65885" lon="6.87884">
        <ele>2299.5</ele>
        <time>2016-05-06T12:43:33Z</time>
      </trkpt>
      <trkpt lat="45.65886" lon="6.87886">
        <ele>2299.3</ele>
        <time>2016-05-06T12:43:35Z</time>
      </trkpt>
      <trkpt lat="45.65886" lon="6.87886">
        <ele>2299.3</ele>
        <time>2016-05-06T12:43:37Z</time>
      </trkpt>
      <trkpt lat="45.65886" lon="6.87887">
        <ele>2299.3</ele>
        <time>2016-05-06T12:43:39Z</time>
      </trkpt>
      <trkpt lat="45.65887" lon="6.87887">
        <ele>2299.4</ele>
        <time>2016-05-06T12:43:41Z</time>
      </trkpt>
      <trkpt lat="45.65887" lon="6.87887">
        <ele>2299.4</ele>
        <time>2016-05-06T12:43:43Z</time>
      </trkpt>
      <trkpt lat="45.65886" lon="6.87887">
        <ele>2299.3</ele>
        <time>2016-05-06T12:43:45Z</time>
      </trkpt>
      <trkpt lat="45.65886" lon="6.87888">
        <ele>2299.5</ele>
        <time>2016-05-06T12:43:47Z</time>
      </trkpt>
      <trkpt lat="45.65886" lon="6.87887">
        <ele>2299.5</ele>
        <time>2016-05-06T12:43:49Z</time>
      </trkpt>
      <trkpt lat="45.65886" lon="6.87887">
        <ele>2299.5</ele>
        <time>2016-05-06T12:43:51Z</time>
      </trkpt>
      <trkpt lat="45.65887" lon="6.87887">
        <ele>2299.5</ele>
        <time>2016-05-06T12:43:53Z</time>
      </trkpt>
      <trkpt lat="45.65887" lon="6.87886">
        <ele>2299.6</ele>
        <time>2016-05-06T12:43:55Z</time>
      </trkpt>
      <trkpt lat="45.65887" lon="6.87886">
        <ele>2299.8</ele>
        <time>2016-05-06T12:43:57Z</time>
      </trkpt>
      <trkpt lat="45.65887" lon="6.87886">
        <ele>2299.6</ele>
        <time>2016-05-06T12:43:59Z</time>
      </trkpt>
      <trkpt lat="45.65886" lon="6.87886">
        <ele>2299.6</ele>
        <time>2016-05-06T12:44:01Z</time>
      </trkpt>
      <trkpt lat="45.65886" lon="6.87886">
        <ele>2299.7</ele>
        <time>2016-05-06T12:44:03Z</time>
      </trkpt>
      <trkpt lat="45.65886" lon="6.87886">
        <ele>2299.7</ele>
        <time>2016-05-06T12:44:05Z</time>
      </trkpt>
      <trkpt lat="45.65887" lon="6.87885">
        <ele>2299.7</ele>
        <time>2016-05-06T12:44:07Z</time>
      </trkpt>
      <trkpt lat="45.65888" lon="6.87884">
        <ele>2299.7</ele>
        <time>2016-05-06T12:44:09Z</time>
      </trkpt>
      <trkpt lat="45.65889" lon="6.87883">
        <ele>2299.7</ele>
        <time>2016-05-06T12:44:11Z</time>
      </trkpt>
      <trkpt lat="45.6589" lon="6.87882">
        <ele>2299.7</ele>
        <time>2016-05-06T12:44:13Z</time>
      </trkpt>
      <trkpt lat="45.6589" lon="6.87881">
        <ele>2299.7</ele>
        <time>2016-05-06T12:44:15Z</time>
      </trkpt>
      <trkpt lat="45.65891" lon="6.8788">
        <ele>2299.6</ele>
        <time>2016-05-06T12:44:17Z</time>
      </trkpt>
      <trkpt lat="45.65892" lon="6.8788">
        <ele>2299.5</ele>
        <time>2016-05-06T12:44:19Z</time>
      </trkpt>
      <trkpt lat="45.65893" lon="6.87879">
        <ele>2299.6</ele>
        <time>2016-05-06T12:44:21Z</time>
      </trkpt>
      <trkpt lat="45.65893" lon="6.87879">
        <ele>2299.6</ele>
        <time>2016-05-06T12:44:23Z</time>
      </trkpt>
      <trkpt lat="45.65893" lon="6.87879">
        <ele>2299.6</ele>
        <time>2016-05-06T12:44:25Z</time>
      </trkpt>
      <trkpt lat="45.65892" lon="6.8788">
        <ele>2299.6</ele>
        <time>2016-05-06T12:44:27Z</time>
      </trkpt>
      <trkpt lat="45.65891" lon="6.8788">
        <ele>2299.7</ele>
        <time>2016-05-06T12:44:29Z</time>
      </trkpt>
      <trkpt lat="45.65889" lon="6.87882">
        <ele>2299.9</ele>
        <time>2016-05-06T12:44:31Z</time>
      </trkpt>
      <trkpt lat="45.65888" lon="6.87882">
        <ele>2299.9</ele>
        <time>2016-05-06T12:44:33Z</time>
      </trkpt>
      <trkpt lat="45.65889" lon="6.87882">
        <ele>2300</ele>
        <time>2016-05-06T12:44:35Z</time>
      </trkpt>
      <trkpt lat="45.6589" lon="6.87882">
        <ele>2300</ele>
        <time>2016-05-06T12:44:37Z</time>
      </trkpt>
      <trkpt lat="45.65891" lon="6.87882">
        <ele>2300</ele>
        <time>2016-05-06T12:44:39Z</time>
      </trkpt>
      <trkpt lat="45.65892" lon="6.87881">
        <ele>2300.1</ele>
        <time>2016-05-06T12:44:41Z</time>
      </trkpt>
      <trkpt lat="45.65893" lon="6.87881">
        <ele>2300</ele>
        <time>2016-05-06T12:44:43Z</time>
      </trkpt>
      <trkpt lat="45.65893" lon="6.87881">
        <ele>2300</ele>
        <time>2016-05-06T12:44:45Z</time>
      </trkpt>
      <trkpt lat="45.65893" lon="6.8788">
        <ele>2300</ele>
        <time>2016-05-06T12:44:47Z</time>
      </trkpt>
      <trkpt lat="45.65892" lon="6.87881">
        <ele>2299.9</ele>
        <time>2016-05-06T12:44:49Z</time>
      </trkpt>
      <trkpt lat="45.65893" lon="6.8788">
        <ele>2299.9</ele>
        <time>2016-05-06T12:44:51Z</time>
      </trkpt>
      <trkpt lat="45.65893" lon="6.8788">
        <ele>2299.9</ele>
        <time>2016-05-06T12:44:53Z</time>
      </trkpt>
      <trkpt lat="45.65891" lon="6.8788">
        <ele>2299.9</ele>
        <time>2016-05-06T12:44:55Z</time>
      </trkpt>
      <trkpt lat="45.6589" lon="6.8788">
        <ele>2300.1</ele>
        <time>2016-05-06T12:44:57Z</time>
      </trkpt>
      <trkpt lat="45.6589" lon="6.8788">
        <ele>2300.1</ele>
        <time>2016-05-06T12:44:59Z</time>
      </trkpt>
      <trkpt lat="45.6589" lon="6.8788">
        <ele>2300</ele>
        <time>2016-05-06T12:45:01Z</time>
      </trkpt>
      <trkpt lat="45.6589" lon="6.8788">
        <ele>2300</ele>
        <time>2016-05-06T12:45:03Z</time>
      </trkpt>
      <trkpt lat="45.65889" lon="6.87879">
        <ele>2300</ele>
        <time>2016-05-06T12:45:05Z</time>
      </trkpt>
      <trkpt lat="45.65888" lon="6.87879">
        <ele>2300</ele>
        <time>2016-05-06T12:45:07Z</time>
      </trkpt>
      <trkpt lat="45.65888" lon="6.87879">
        <ele>2300</ele>
        <time>2016-05-06T12:45:09Z</time>
      </trkpt>
      <trkpt lat="45.65887" lon="6.8788">
        <ele>2299.9</ele>
        <time>2016-05-06T12:45:11Z</time>
      </trkpt>
      <trkpt lat="45.65886" lon="6.8788">
        <ele>2299.8</ele>
        <time>2016-05-06T12:45:13Z</time>
      </trkpt>
      <trkpt lat="45.65886" lon="6.8788">
        <ele>2299.8</ele>
        <time>2016-05-06T12:45:15Z</time>
      </trkpt>
      <trkpt lat="45.65885" lon="6.8788">
        <ele>2299.7</ele>
        <time>2016-05-06T12:45:17Z</time>
      </trkpt>
      <trkpt lat="45.65885" lon="6.8788">
        <ele>2299.8</ele>
        <time>2016-05-06T12:45:19Z</time>
      </trkpt>
      <trkpt lat="45.65885" lon="6.87881">
        <ele>2299.4</ele>
        <time>2016-05-06T12:45:21Z</time>
      </trkpt>
      <trkpt lat="45.65886" lon="6.87881">
        <ele>2299.2</ele>
        <time>2016-05-06T12:45:23Z</time>
      </trkpt>
      <trkpt lat="45.65886" lon="6.8788">
        <ele>2299.4</ele>
        <time>2016-05-06T12:45:25Z</time>
      </trkpt>
      <trkpt lat="45.65886" lon="6.87881">
        <ele>2299.6</ele>
        <time>2016-05-06T12:45:27Z</time>
      </trkpt>
      <trkpt lat="45.65887" lon="6.8788">
        <ele>2299.8</ele>
        <time>2016-05-06T12:45:29Z</time>
      </trkpt>
      <trkpt lat="45.65887" lon="6.8788">
        <ele>2299.8</ele>
        <time>2016-05-06T12:45:31Z</time>
      </trkpt>
      <trkpt lat="45.65888" lon="6.87879">
        <ele>2299.9</ele>
        <time>2016-05-06T12:45:33Z</time>
      </trkpt>
      <trkpt lat="45.65888" lon="6.87879">
        <ele>2299.8</ele>
        <time>2016-05-06T12:45:35Z</time>
      </trkpt>
      <trkpt lat="45.65887" lon="6.8788">
        <ele>2299.8</ele>
        <time>2016-05-06T12:45:37Z</time>
      </trkpt>
      <trkpt lat="45.65888" lon="6.87879">
        <ele>2299.9</ele>
        <time>2016-05-06T12:45:39Z</time>
      </trkpt>
      <trkpt lat="45.65888" lon="6.87879">
        <ele>2299.9</ele>
        <time>2016-05-06T12:45:41Z</time>
      </trkpt>
      <trkpt lat="45.65887" lon="6.87879">
        <ele>2299.9</ele>
        <time>2016-05-06T12:45:43Z</time>
      </trkpt>
      <trkpt lat="45.65886" lon="6.87878">
        <ele>2299.9</ele>
        <time>2016-05-06T12:45:45Z</time>
      </trkpt>
      <trkpt lat="45.65885" lon="6.87878">
        <ele>2299.9</ele>
        <time>2016-05-06T12:45:47Z</time>
      </trkpt>
      <trkpt lat="45.65884" lon="6.87877">
        <ele>2299.9</ele>
        <time>2016-05-06T12:45:49Z</time>
      </trkpt>
      <trkpt lat="45.65884" lon="6.87877">
        <ele>2300</ele>
        <time>2016-05-06T12:45:51Z</time>
      </trkpt>
      <trkpt lat="45.65884" lon="6.87876">
        <ele>2300</ele>
        <time>2016-05-06T12:45:53Z</time>
      </trkpt>
      <trkpt lat="45.65884" lon="6.87875">
        <ele>2299.8</ele>
        <time>2016-05-06T12:45:55Z</time>
      </trkpt>
      <trkpt lat="45.65884" lon="6.87875">
        <ele>2299.8</ele>
        <time>2016-05-06T12:45:57Z</time>
      </trkpt>
      <trkpt lat="45.65884" lon="6.87875">
        <ele>2299.8</ele>
        <time>2016-05-06T12:45:59Z</time>
      </trkpt>
      <trkpt lat="45.65884" lon="6.87876">
        <ele>2299.8</ele>
        <time>2016-05-06T12:46:01Z</time>
      </trkpt>
      <trkpt lat="45.65884" lon="6.87877">
        <ele>2299.8</ele>
        <time>2016-05-06T12:46:03Z</time>
      </trkpt>
      <trkpt lat="45.65885" lon="6.87878">
        <ele>2299.7</ele>
        <time>2016-05-06T12:46:05Z</time>
      </trkpt>
      <trkpt lat="45.65885" lon="6.87878">
        <ele>2299.8</ele>
        <time>2016-05-06T12:46:07Z</time>
      </trkpt>
      <trkpt lat="45.65886" lon="6.87878">
        <ele>2299.9</ele>
        <time>2016-05-06T12:46:09Z</time>
      </trkpt>
      <trkpt lat="45.65886" lon="6.87878">
        <ele>2299.9</ele>
        <time>2016-05-06T12:46:11Z</time>
      </trkpt>
      <trkpt lat="45.65885" lon="6.87877">
        <ele>2299.9</ele>
        <time>2016-05-06T12:46:13Z</time>
      </trkpt>
      <trkpt lat="45.65885" lon="6.87877">
        <ele>2299.9</ele>
        <time>2016-05-06T12:46:15Z</time>
      </trkpt>
      <trkpt lat="45.65885" lon="6.87877">
        <ele>2299.9</ele>
        <time>2016-05-06T12:46:17Z</time>
      </trkpt>
      <trkpt lat="45.65884" lon="6.87878">
        <ele>2299.9</ele>
        <time>2016-05-06T12:46:19Z</time>
      </trkpt>
      <trkpt lat="45.65884" lon="6.87879">
        <ele>2300</ele>
        <time>2016-05-06T12:46:21Z</time>
      </trkpt>
      <trkpt lat="45.65884" lon="6.8788">
        <ele>2300.1</ele>
        <time>2016-05-06T12:46:23Z</time>
      </trkpt>
      <trkpt lat="45.65884" lon="6.8788">
        <ele>2300.1</ele>
        <time>2016-05-06T12:46:25Z</time>
      </trkpt>
      <trkpt lat="45.65884" lon="6.87881">
        <ele>2300</ele>
        <time>2016-05-06T12:46:27Z</time>
      </trkpt>
      <trkpt lat="45.65884" lon="6.87881">
        <ele>2299.6</ele>
        <time>2016-05-06T12:46:29Z</time>
      </trkpt>
      <trkpt lat="45.65884" lon="6.87881">
        <ele>2299.7</ele>
        <time>2016-05-06T12:46:31Z</time>
      </trkpt>
      <trkpt lat="45.65884" lon="6.87881">
        <ele>2299.7</ele>
        <time>2016-05-06T12:46:33Z</time>
      </trkpt>
      <trkpt lat="45.65884" lon="6.87881">
        <ele>2299.8</ele>
        <time>2016-05-06T12:46:35Z</time>
      </trkpt>
      <trkpt lat="45.65884" lon="6.87881">
        <ele>2299.8</ele>
        <time>2016-05-06T12:46:37Z</time>
      </trkpt>
      <trkpt lat="45.65884" lon="6.8788">
        <ele>2299.8</ele>
        <time>2016-05-06T12:46:39Z</time>
      </trkpt>
      <trkpt lat="45.65885" lon="6.8788">
        <ele>2299.6</ele>
        <time>2016-05-06T12:46:41Z</time>
      </trkpt>
      <trkpt lat="45.65884" lon="6.87881">
        <ele>2299.7</ele>
        <time>2016-05-06T12:46:43Z</time>
      </trkpt>
      <trkpt lat="45.65884" lon="6.8788">
        <ele>2299.7</ele>
        <time>2016-05-06T12:46:45Z</time>
      </trkpt>
      <trkpt lat="45.65886" lon="6.87879">
        <ele>2299.9</ele>
        <time>2016-05-06T12:46:47Z</time>
      </trkpt>
      <trkpt lat="45.65888" lon="6.87878">
        <ele>2300</ele>
        <time>2016-05-06T12:46:49Z</time>
      </trkpt>
      <trkpt lat="45.6589" lon="6.87877">
        <ele>2300</ele>
        <time>2016-05-06T12:46:51Z</time>
      </trkpt>
      <trkpt lat="45.65892" lon="6.87877">
        <ele>2300.1</ele>
        <time>2016-05-06T12:46:53Z</time>
      </trkpt>
      <trkpt lat="45.65892" lon="6.87877">
        <ele>2300.1</ele>
        <time>2016-05-06T12:46:55Z</time>
      </trkpt>
      <trkpt lat="45.65893" lon="6.87877">
        <ele>2300.1</ele>
        <time>2016-05-06T12:46:57Z</time>
      </trkpt>
      <trkpt lat="45.65893" lon="6.87877">
        <ele>2300.1</ele>
        <time>2016-05-06T12:46:59Z</time>
      </trkpt>
      <trkpt lat="45.65894" lon="6.87877">
        <ele>2300.2</ele>
        <time>2016-05-06T12:47:01Z</time>
      </trkpt>
      <trkpt lat="45.65894" lon="6.87877">
        <ele>2300.1</ele>
        <time>2016-05-06T12:47:03Z</time>
      </trkpt>
      <trkpt lat="45.65894" lon="6.87878">
        <ele>2300.1</ele>
        <time>2016-05-06T12:47:05Z</time>
      </trkpt>
      <trkpt lat="45.65894" lon="6.87879">
        <ele>2299.9</ele>
        <time>2016-05-06T12:47:07Z</time>
      </trkpt>
      <trkpt lat="45.65894" lon="6.8788">
        <ele>2299.9</ele>
        <time>2016-05-06T12:47:09Z</time>
      </trkpt>
      <trkpt lat="45.65894" lon="6.87881">
        <ele>2299.9</ele>
        <time>2016-05-06T12:47:11Z</time>
      </trkpt>
      <trkpt lat="45.65895" lon="6.87881">
        <ele>2300</ele>
        <time>2016-05-06T12:47:13Z</time>
      </trkpt>
      <trkpt lat="45.65895" lon="6.8788">
        <ele>2300</ele>
        <time>2016-05-06T12:47:15Z</time>
      </trkpt>
      <trkpt lat="45.65896" lon="6.8788">
        <ele>2299.9</ele>
        <time>2016-05-06T12:47:17Z</time>
      </trkpt>
      <trkpt lat="45.65896" lon="6.8788">
        <ele>2299.9</ele>
        <time>2016-05-06T12:47:19Z</time>
      </trkpt>
      <trkpt lat="45.65895" lon="6.87879">
        <ele>2299.9</ele>
        <time>2016-05-06T12:47:21Z</time>
      </trkpt>
      <trkpt lat="45.65894" lon="6.87879">
        <ele>2299.9</ele>
        <time>2016-05-06T12:47:23Z</time>
      </trkpt>
      <trkpt lat="45.65893" lon="6.87878">
        <ele>2299.9</ele>
        <time>2016-05-06T12:47:25Z</time>
      </trkpt>
      <trkpt lat="45.65892" lon="6.87879">
        <ele>2299.8</ele>
        <time>2016-05-06T12:47:27Z</time>
      </trkpt>
      <trkpt lat="45.65891" lon="6.8788">
        <ele>2299.7</ele>
        <time>2016-05-06T12:47:29Z</time>
      </trkpt>
      <trkpt lat="45.65891" lon="6.8788">
        <ele>2299.7</ele>
        <time>2016-05-06T12:47:31Z</time>
      </trkpt>
      <trkpt lat="45.6589" lon="6.8788">
        <ele>2299.8</ele>
        <time>2016-05-06T12:47:33Z</time>
      </trkpt>
      <trkpt lat="45.65889" lon="6.8788">
        <ele>2299.9</ele>
        <time>2016-05-06T12:47:35Z</time>
      </trkpt>
      <trkpt lat="45.65889" lon="6.8788">
        <ele>2299.9</ele>
        <time>2016-05-06T12:47:37Z</time>
      </trkpt>
      <trkpt lat="45.65888" lon="6.87879">
        <ele>2300</ele>
        <time>2016-05-06T12:47:39Z</time>
      </trkpt>
      <trkpt lat="45.65887" lon="6.87879">
        <ele>2299.9</ele>
        <time>2016-05-06T12:47:41Z</time>
      </trkpt>
      <trkpt lat="45.65886" lon="6.87879">
        <ele>2299.7</ele>
        <time>2016-05-06T12:47:43Z</time>
      </trkpt>
      <trkpt lat="45.65886" lon="6.87879">
        <ele>2299.7</ele>
        <time>2016-05-06T12:47:45Z</time>
      </trkpt>
      <trkpt lat="45.65886" lon="6.87879">
        <ele>2299.7</ele>
        <time>2016-05-06T12:47:47Z</time>
      </trkpt>
      <trkpt lat="45.65886" lon="6.87879">
        <ele>2299.7</ele>
        <time>2016-05-06T12:47:49Z</time>
      </trkpt>
      <trkpt lat="45.65886" lon="6.87879">
        <ele>2299.6</ele>
        <time>2016-05-06T12:47:51Z</time>
      </trkpt>
      <trkpt lat="45.65887" lon="6.87879">
        <ele>2299.3</ele>
        <time>2016-05-06T12:47:53Z</time>
      </trkpt>
      <trkpt lat="45.65888" lon="6.87879">
        <ele>2299.1</ele>
        <time>2016-05-06T12:47:55Z</time>
      </trkpt>
      <trkpt lat="45.65888" lon="6.8788">
        <ele>2299.2</ele>
        <time>2016-05-06T12:47:57Z</time>
      </trkpt>
      <trkpt lat="45.65888" lon="6.8788">
        <ele>2298.3</ele>
        <time>2016-05-06T12:47:59Z</time>
      </trkpt>
      <trkpt lat="45.65888" lon="6.87879">
        <ele>2299.5</ele>
        <time>2016-05-06T12:48:01Z</time>
      </trkpt>
      <trkpt lat="45.65889" lon="6.87879">
        <ele>2299.3</ele>
        <time>2016-05-06T12:48:03Z</time>
      </trkpt>
      <trkpt lat="45.65889" lon="6.87879">
        <ele>2297.9</ele>
        <time>2016-05-06T12:48:05Z</time>
      </trkpt>
      <trkpt lat="45.6589" lon="6.8788">
        <ele>2298.6</ele>
        <time>2016-05-06T12:48:07Z</time>
      </trkpt>
      <trkpt lat="45.6589" lon="6.87881">
        <ele>2299.1</ele>
        <time>2016-05-06T12:48:09Z</time>
      </trkpt>
      <trkpt lat="45.65892" lon="6.87881">
        <ele>2299.4</ele>
        <time>2016-05-06T12:48:11Z</time>
      </trkpt>
      <trkpt lat="45.65891" lon="6.87881">
        <ele>2299.4</ele>
        <time>2016-05-06T12:48:13Z</time>
      </trkpt>
      <trkpt lat="45.65891" lon="6.87882">
        <ele>2299.5</ele>
        <time>2016-05-06T12:48:15Z</time>
      </trkpt>
      <trkpt lat="45.65891" lon="6.87882">
        <ele>2299.5</ele>
        <time>2016-05-06T12:48:17Z</time>
      </trkpt>
      <trkpt lat="45.65891" lon="6.87883">
        <ele>2299.5</ele>
        <time>2016-05-06T12:48:19Z</time>
      </trkpt>
      <trkpt lat="45.6589" lon="6.87883">
        <ele>2299.6</ele>
        <time>2016-05-06T12:48:21Z</time>
      </trkpt>
      <trkpt lat="45.65888" lon="6.87883">
        <ele>2299.5</ele>
        <time>2016-05-06T12:48:23Z</time>
      </trkpt>
      <trkpt lat="45.65887" lon="6.87883">
        <ele>2299.6</ele>
        <time>2016-05-06T12:48:25Z</time>
      </trkpt>
      <trkpt lat="45.65888" lon="6.87883">
        <ele>2299.6</ele>
        <time>2016-05-06T12:48:27Z</time>
      </trkpt>
      <trkpt lat="45.65888" lon="6.87883">
        <ele>2299.6</ele>
        <time>2016-05-06T12:48:29Z</time>
      </trkpt>
      <trkpt lat="45.65887" lon="6.87882">
        <ele>2299.7</ele>
        <time>2016-05-06T12:48:31Z</time>
      </trkpt>
      <trkpt lat="45.65886" lon="6.87882">
        <ele>2299.8</ele>
        <time>2016-05-06T12:48:33Z</time>
      </trkpt>
      <trkpt lat="45.65886" lon="6.87882">
        <ele>2299.9</ele>
        <time>2016-05-06T12:48:35Z</time>
      </trkpt>
      <trkpt lat="45.65885" lon="6.87881">
        <ele>2299.9</ele>
        <time>2016-05-06T12:48:37Z</time>
      </trkpt>
      <trkpt lat="45.65885" lon="6.87882">
        <ele>2299.7</ele>
        <time>2016-05-06T12:48:39Z</time>
      </trkpt>
      <trkpt lat="45.65885" lon="6.87882">
        <ele>2299.8</ele>
        <time>2016-05-06T12:48:41Z</time>
      </trkpt>
      <trkpt lat="45.65884" lon="6.87882">
        <ele>2299.9</ele>
        <time>2016-05-06T12:48:43Z</time>
      </trkpt>
      <trkpt lat="45.65883" lon="6.87882">
        <ele>2299.9</ele>
        <time>2016-05-06T12:48:45Z</time>
      </trkpt>
      <trkpt lat="45.65882" lon="6.87882">
        <ele>2300</ele>
        <time>2016-05-06T12:48:47Z</time>
      </trkpt>
      <trkpt lat="45.65882" lon="6.87881">
        <ele>2300.2</ele>
        <time>2016-05-06T12:48:49Z</time>
      </trkpt>
      <trkpt lat="45.65883" lon="6.8788">
        <ele>2300.4</ele>
        <time>2016-05-06T12:48:51Z</time>
      </trkpt>
      <trkpt lat="45.65884" lon="6.87879">
        <ele>2300.4</ele>
        <time>2016-05-06T12:48:53Z</time>
      </trkpt>
      <trkpt lat="45.65885" lon="6.87879">
        <ele>2300.3</ele>
        <time>2016-05-06T12:48:55Z</time>
      </trkpt>
      <trkpt lat="45.65886" lon="6.8788">
        <ele>2300.2</ele>
        <time>2016-05-06T12:48:57Z</time>
      </trkpt>
      <trkpt lat="45.65886" lon="6.8788">
        <ele>2300.1</ele>
        <time>2016-05-06T12:48:59Z</time>
      </trkpt>
      <trkpt lat="45.65885" lon="6.87881">
        <ele>2300</ele>
        <time>2016-05-06T12:49:01Z</time>
      </trkpt>
      <trkpt lat="45.65885" lon="6.87881">
        <ele>2300</ele>
        <time>2016-05-06T12:49:03Z</time>
      </trkpt>
      <trkpt lat="45.65885" lon="6.87881">
        <ele>2299.9</ele>
        <time>2016-05-06T12:49:05Z</time>
      </trkpt>
      <trkpt lat="45.65885" lon="6.87881">
        <ele>2299.9</ele>
        <time>2016-05-06T12:49:07Z</time>
      </trkpt>
      <trkpt lat="45.65884" lon="6.87882">
        <ele>2299.8</ele>
        <time>2016-05-06T12:49:09Z</time>
      </trkpt>
      <trkpt lat="45.65884" lon="6.87882">
        <ele>2299.8</ele>
        <time>2016-05-06T12:49:11Z</time>
      </trkpt>
      <trkpt lat="45.65885" lon="6.87882">
        <ele>2299.6</ele>
        <time>2016-05-06T12:49:13Z</time>
      </trkpt>
      <trkpt lat="45.65886" lon="6.87883">
        <ele>2299.4</ele>
        <time>2016-05-06T12:49:15Z</time>
      </trkpt>
      <trkpt lat="45.65886" lon="6.87882">
        <ele>2299.4</ele>
        <time>2016-05-06T12:49:17Z</time>
      </trkpt>
      <trkpt lat="45.65888" lon="6.87883">
        <ele>2299.3</ele>
        <time>2016-05-06T12:49:19Z</time>
      </trkpt>
      <trkpt lat="45.65888" lon="6.87883">
        <ele>2299.2</ele>
        <time>2016-05-06T12:49:21Z</time>
      </trkpt>
      <trkpt lat="45.65887" lon="6.87883">
        <ele>2299.2</ele>
        <time>2016-05-06T12:49:23Z</time>
      </trkpt>
      <trkpt lat="45.65886" lon="6.87883">
        <ele>2299.2</ele>
        <time>2016-05-06T12:49:25Z</time>
      </trkpt>
      <trkpt lat="45.65887" lon="6.87884">
        <ele>2299.3</ele>
        <time>2016-05-06T12:49:27Z</time>
      </trkpt>
      <trkpt lat="45.65887" lon="6.87884">
        <ele>2299.7</ele>
        <time>2016-05-06T12:49:29Z</time>
      </trkpt>
      <trkpt lat="45.65886" lon="6.87884">
        <ele>2299.7</ele>
        <time>2016-05-06T12:49:31Z</time>
      </trkpt>
      <trkpt lat="45.65887" lon="6.87883">
        <ele>2299.4</ele>
        <time>2016-05-06T12:49:33Z</time>
      </trkpt>
      <trkpt lat="45.65888" lon="6.87883">
        <ele>2299.2</ele>
        <time>2016-05-06T12:49:35Z</time>
      </trkpt>
      <trkpt lat="45.65886" lon="6.87883">
        <ele>2299</ele>
        <time>2016-05-06T12:49:37Z</time>
      </trkpt>
      <trkpt lat="45.65886" lon="6.87883">
        <ele>2299.2</ele>
        <time>2016-05-06T12:49:39Z</time>
      </trkpt>
      <trkpt lat="45.65887" lon="6.87883">
        <ele>2299.4</ele>
        <time>2016-05-06T12:49:41Z</time>
      </trkpt>
      <trkpt lat="45.65887" lon="6.87883">
        <ele>2299.4</ele>
        <time>2016-05-06T12:49:43Z</time>
      </trkpt>
      <trkpt lat="45.65887" lon="6.87884">
        <ele>2299.1</ele>
        <time>2016-05-06T12:49:45Z</time>
      </trkpt>
      <trkpt lat="45.65887" lon="6.87883">
        <ele>2299.3</ele>
        <time>2016-05-06T12:49:47Z</time>
      </trkpt>
      <trkpt lat="45.65887" lon="6.87882">
        <ele>2299</ele>
        <time>2016-05-06T12:49:49Z</time>
      </trkpt>
      <trkpt lat="45.65886" lon="6.87882">
        <ele>2299.1</ele>
        <time>2016-05-06T12:49:51Z</time>
      </trkpt>
      <trkpt lat="45.65885" lon="6.87881">
        <ele>2299.2</ele>
        <time>2016-05-06T12:49:53Z</time>
      </trkpt>
      <trkpt lat="45.65887" lon="6.87882">
        <ele>2299.2</ele>
        <time>2016-05-06T12:49:55Z</time>
      </trkpt>
      <trkpt lat="45.65887" lon="6.87883">
        <ele>2299.3</ele>
        <time>2016-05-06T12:49:57Z</time>
      </trkpt>
      <trkpt lat="45.65888" lon="6.87883">
        <ele>2299.3</ele>
        <time>2016-05-06T12:49:59Z</time>
      </trkpt>
      <trkpt lat="45.65887" lon="6.87884">
        <ele>2299.3</ele>
        <time>2016-05-06T12:50:01Z</time>
      </trkpt>
      <trkpt lat="45.65888" lon="6.87884">
        <ele>2299.3</ele>
        <time>2016-05-06T12:50:03Z</time>
      </trkpt>
      <trkpt lat="45.65888" lon="6.87884">
        <ele>2299.6</ele>
        <time>2016-05-06T12:50:05Z</time>
      </trkpt>
      <trkpt lat="45.65891" lon="6.87884">
        <ele>2299.9</ele>
        <time>2016-05-06T12:50:07Z</time>
      </trkpt>
      <trkpt lat="45.65891" lon="6.87884">
        <ele>2299.8</ele>
        <time>2016-05-06T12:50:09Z</time>
      </trkpt>
      <trkpt lat="45.65892" lon="6.87884">
        <ele>2299.9</ele>
        <time>2016-05-06T12:50:11Z</time>
      </trkpt>
      <trkpt lat="45.65892" lon="6.87885">
        <ele>2299.8</ele>
        <time>2016-05-06T12:50:13Z</time>
      </trkpt>
      <trkpt lat="45.65892" lon="6.87885">
        <ele>2299.9</ele>
        <time>2016-05-06T12:50:15Z</time>
      </trkpt>
      <trkpt lat="45.65892" lon="6.87885">
        <ele>2300.1</ele>
        <time>2016-05-06T12:50:17Z</time>
      </trkpt>
      <trkpt lat="45.65892" lon="6.87884">
        <ele>2300.2</ele>
        <time>2016-05-06T12:50:19Z</time>
      </trkpt>
      <trkpt lat="45.65891" lon="6.87884">
        <ele>2299.5</ele>
        <time>2016-05-06T12:50:21Z</time>
      </trkpt>
      <trkpt lat="45.65891" lon="6.87884">
        <ele>2299.4</ele>
        <time>2016-05-06T12:50:23Z</time>
      </trkpt>
      <trkpt lat="45.65891" lon="6.87884">
        <ele>2299.3</ele>
        <time>2016-05-06T12:50:25Z</time>
      </trkpt>
      <trkpt lat="45.65891" lon="6.87884">
        <ele>2299.2</ele>
        <time>2016-05-06T12:50:27Z</time>
      </trkpt>
      <trkpt lat="45.65891" lon="6.87884">
        <ele>2299.1</ele>
        <time>2016-05-06T12:50:29Z</time>
      </trkpt>
      <trkpt lat="45.6589" lon="6.87884">
        <ele>2298.9</ele>
        <time>2016-05-06T12:50:31Z</time>
      </trkpt>
      <trkpt lat="45.65889" lon="6.87884">
        <ele>2299</ele>
        <time>2016-05-06T12:50:33Z</time>
      </trkpt>
      <trkpt lat="45.65889" lon="6.87885">
        <ele>2299.2</ele>
        <time>2016-05-06T12:50:35Z</time>
      </trkpt>
      <trkpt lat="45.65889" lon="6.87885">
        <ele>2299.3</ele>
        <time>2016-05-06T12:50:37Z</time>
      </trkpt>
      <trkpt lat="45.65889" lon="6.87886">
        <ele>2299.4</ele>
        <time>2016-05-06T12:50:39Z</time>
      </trkpt>
      <trkpt lat="45.65889" lon="6.87885">
        <ele>2299</ele>
        <time>2016-05-06T12:50:41Z</time>
      </trkpt>
      <trkpt lat="45.65889" lon="6.87886">
        <ele>2298.9</ele>
        <time>2016-05-06T12:50:43Z</time>
      </trkpt>
      <trkpt lat="45.65889" lon="6.87885">
        <ele>2299</ele>
        <time>2016-05-06T12:50:45Z</time>
      </trkpt>
      <trkpt lat="45.65889" lon="6.87885">
        <ele>2299.1</ele>
        <time>2016-05-06T12:50:47Z</time>
      </trkpt>
      <trkpt lat="45.65889" lon="6.87884">
        <ele>2299</ele>
        <time>2016-05-06T12:50:49Z</time>
      </trkpt>
      <trkpt lat="45.6589" lon="6.87884">
        <ele>2298.9</ele>
        <time>2016-05-06T12:50:51Z</time>
      </trkpt>
      <trkpt lat="45.6589" lon="6.87884">
        <ele>2298.9</ele>
        <time>2016-05-06T12:50:53Z</time>
      </trkpt>
      <trkpt lat="45.6589" lon="6.87884">
        <ele>2298.9</ele>
        <time>2016-05-06T12:50:55Z</time>
      </trkpt>
      <trkpt lat="45.6589" lon="6.87884">
        <ele>2299</ele>
        <time>2016-05-06T12:50:57Z</time>
      </trkpt>
      <trkpt lat="45.6589" lon="6.87884">
        <ele>2298.8</ele>
        <time>2016-05-06T12:50:59Z</time>
      </trkpt>
      <trkpt lat="45.6589" lon="6.87883">
        <ele>2298.9</ele>
        <time>2016-05-06T12:51:01Z</time>
      </trkpt>
      <trkpt lat="45.65891" lon="6.87883">
        <ele>2298.9</ele>
        <time>2016-05-06T12:51:03Z</time>
      </trkpt>
      <trkpt lat="45.6589" lon="6.87884">
        <ele>2298.9</ele>
        <time>2016-05-06T12:51:05Z</time>
      </trkpt>
      <trkpt lat="45.6589" lon="6.87884">
        <ele>2299</ele>
        <time>2016-05-06T12:51:07Z</time>
      </trkpt>
      <trkpt lat="45.6589" lon="6.87885">
        <ele>2298.1</ele>
        <time>2016-05-06T12:51:09Z</time>
      </trkpt>
      <trkpt lat="45.65889" lon="6.87885">
        <ele>2298.6</ele>
        <time>2016-05-06T12:51:11Z</time>
      </trkpt>
      <trkpt lat="45.65889" lon="6.87885">
        <ele>2299.2</ele>
        <time>2016-05-06T12:51:13Z</time>
      </trkpt>
      <trkpt lat="45.65888" lon="6.87885">
        <ele>2299.4</ele>
        <time>2016-05-06T12:51:15Z</time>
      </trkpt>
      <trkpt lat="45.65888" lon="6.87885">
        <ele>2299.5</ele>
        <time>2016-05-06T12:51:17Z</time>
      </trkpt>
      <trkpt lat="45.65888" lon="6.87885">
        <ele>2299.4</ele>
        <time>2016-05-06T12:51:19Z</time>
      </trkpt>
      <trkpt lat="45.65888" lon="6.87886">
        <ele>2299.3</ele>
        <time>2016-05-06T12:51:21Z</time>
      </trkpt>
      <trkpt lat="45.65888" lon="6.87886">
        <ele>2299.3</ele>
        <time>2016-05-06T12:51:23Z</time>
      </trkpt>
      <trkpt lat="45.65887" lon="6.87886">
        <ele>2299.1</ele>
        <time>2016-05-06T12:51:25Z</time>
      </trkpt>
      <trkpt lat="45.65888" lon="6.87886">
        <ele>2299.1</ele>
        <time>2016-05-06T12:51:27Z</time>
      </trkpt>
      <trkpt lat="45.65888" lon="6.87886">
        <ele>2299.1</ele>
        <time>2016-05-06T12:51:29Z</time>
      </trkpt>
      <trkpt lat="45.65888" lon="6.87886">
        <ele>2299.1</ele>
        <time>2016-05-06T12:51:31Z</time>
      </trkpt>
      <trkpt lat="45.65888" lon="6.87886">
        <ele>2299.1</ele>
        <time>2016-05-06T12:51:33Z</time>
      </trkpt>
      <trkpt lat="45.65888" lon="6.87885">
        <ele>2299.1</ele>
        <time>2016-05-06T12:51:35Z</time>
      </trkpt>
      <trkpt lat="45.65887" lon="6.87885">
        <ele>2299.1</ele>
        <time>2016-05-06T12:51:37Z</time>
      </trkpt>
      <trkpt lat="45.65887" lon="6.87885">
        <ele>2299.2</ele>
        <time>2016-05-06T12:51:39Z</time>
      </trkpt>
      <trkpt lat="45.65887" lon="6.87886">
        <ele>2299.2</ele>
        <time>2016-05-06T12:51:41Z</time>
      </trkpt>
      <trkpt lat="45.65887" lon="6.87885">
        <ele>2299.2</ele>
        <time>2016-05-06T12:51:43Z</time>
      </trkpt>
      <trkpt lat="45.65888" lon="6.87886">
        <ele>2299</ele>
        <time>2016-05-06T12:51:45Z</time>
      </trkpt>
      <trkpt lat="45.65888" lon="6.87886">
        <ele>2299.3</ele>
        <time>2016-05-06T12:51:47Z</time>
      </trkpt>
      <trkpt lat="45.65889" lon="6.87886">
        <ele>2299.3</ele>
        <time>2016-05-06T12:51:49Z</time>
      </trkpt>
      <trkpt lat="45.65889" lon="6.87886">
        <ele>2299.4</ele>
        <time>2016-05-06T12:51:51Z</time>
      </trkpt>
      <trkpt lat="45.6589" lon="6.87886">
        <ele>2299.2</ele>
        <time>2016-05-06T12:51:53Z</time>
      </trkpt>
      <trkpt lat="45.6589" lon="6.87887">
        <ele>2299.2</ele>
        <time>2016-05-06T12:51:55Z</time>
      </trkpt>
      <trkpt lat="45.6589" lon="6.87888">
        <ele>2298.1</ele>
        <time>2016-05-06T12:51:57Z</time>
      </trkpt>
      <trkpt lat="45.6589" lon="6.87888">
        <ele>2298.3</ele>
        <time>2016-05-06T12:51:59Z</time>
      </trkpt>
      <trkpt lat="45.6589" lon="6.87888">
        <ele>2298.9</ele>
        <time>2016-05-06T12:52:01Z</time>
      </trkpt>
      <trkpt lat="45.65889" lon="6.87888">
        <ele>2299.1</ele>
        <time>2016-05-06T12:52:03Z</time>
      </trkpt>
      <trkpt lat="45.65889" lon="6.87888">
        <ele>2299.4</ele>
        <time>2016-05-06T12:52:05Z</time>
      </trkpt>
      <trkpt lat="45.65889" lon="6.87888">
        <ele>2299.7</ele>
        <time>2016-05-06T12:52:07Z</time>
      </trkpt>
      <trkpt lat="45.65889" lon="6.87887">
        <ele>2299.6</ele>
        <time>2016-05-06T12:52:09Z</time>
      </trkpt>
      <trkpt lat="45.65889" lon="6.87886">
        <ele>2299.6</ele>
        <time>2016-05-06T12:52:11Z</time>
      </trkpt>
      <trkpt lat="45.65888" lon="6.87886">
        <ele>2299.5</ele>
        <time>2016-05-06T12:52:13Z</time>
      </trkpt>
      <trkpt lat="45.65888" lon="6.87886">
        <ele>2299.2</ele>
        <time>2016-05-06T12:52:15Z</time>
      </trkpt>
      <trkpt lat="45.65888" lon="6.87886">
        <ele>2299.1</ele>
        <time>2016-05-06T12:52:17Z</time>
      </trkpt>
      <trkpt lat="45.65889" lon="6.87886">
        <ele>2299.1</ele>
        <time>2016-05-06T12:52:19Z</time>
      </trkpt>
      <trkpt lat="45.65888" lon="6.87886">
        <ele>2299.1</ele>
        <time>2016-05-06T12:52:21Z</time>
      </trkpt>
      <trkpt lat="45.65889" lon="6.87887">
        <ele>2299.1</ele>
        <time>2016-05-06T12:52:23Z</time>
      </trkpt>
      <trkpt lat="45.65888" lon="6.87886">
        <ele>2299.1</ele>
        <time>2016-05-06T12:52:25Z</time>
      </trkpt>
      <trkpt lat="45.65889" lon="6.87887">
        <ele>2299.3</ele>
        <time>2016-05-06T12:52:27Z</time>
      </trkpt>
      <trkpt lat="45.65889" lon="6.87887">
        <ele>2299.4</ele>
        <time>2016-05-06T12:52:29Z</time>
      </trkpt>
      <trkpt lat="45.65889" lon="6.87888">
        <ele>2299.3</ele>
        <time>2016-05-06T12:52:31Z</time>
      </trkpt>
      <trkpt lat="45.65888" lon="6.87888">
        <ele>2299.2</ele>
        <time>2016-05-06T12:52:33Z</time>
      </trkpt>
      <trkpt lat="45.65888" lon="6.87888">
        <ele>2299.3</ele>
        <time>2016-05-06T12:52:35Z</time>
      </trkpt>
      <trkpt lat="45.65888" lon="6.87888">
        <ele>2299.3</ele>
        <time>2016-05-06T12:52:37Z</time>
      </trkpt>
      <trkpt lat="45.65888" lon="6.87888">
        <ele>2299.3</ele>
        <time>2016-05-06T12:52:39Z</time>
      </trkpt>
      <trkpt lat="45.65887" lon="6.87888">
        <ele>2299.2</ele>
        <time>2016-05-06T12:52:41Z</time>
      </trkpt>
      <trkpt lat="45.65887" lon="6.87888">
        <ele>2299.1</ele>
        <time>2016-05-06T12:52:43Z</time>
      </trkpt>
      <trkpt lat="45.65887" lon="6.87887">
        <ele>2299.1</ele>
        <time>2016-05-06T12:52:45Z</time>
      </trkpt>
      <trkpt lat="45.65887" lon="6.87887">
        <ele>2299.1</ele>
        <time>2016-05-06T12:52:47Z</time>
      </trkpt>
      <trkpt lat="45.65887" lon="6.87887">
        <ele>2299.1</ele>
        <time>2016-05-06T12:52:49Z</time>
      </trkpt>
      <trkpt lat="45.65887" lon="6.87887">
        <ele>2299.2</ele>
        <time>2016-05-06T12:52:51Z</time>
      </trkpt>
      <trkpt lat="45.65888" lon="6.87887">
        <ele>2298.9</ele>
        <time>2016-05-06T12:52:53Z</time>
      </trkpt>
      <trkpt lat="45.65888" lon="6.87887">
        <ele>2299.1</ele>
        <time>2016-05-06T12:52:55Z</time>
      </trkpt>
      <trkpt lat="45.65888" lon="6.87887">
        <ele>2299.2</ele>
        <time>2016-05-06T12:52:57Z</time>
      </trkpt>
      <trkpt lat="45.65889" lon="6.87887">
        <ele>2299.1</ele>
        <time>2016-05-06T12:52:59Z</time>
      </trkpt>
      <trkpt lat="45.65889" lon="6.87887">
        <ele>2299.4</ele>
        <time>2016-05-06T12:53:01Z</time>
      </trkpt>
      <trkpt lat="45.65888" lon="6.87887">
        <ele>2299.6</ele>
        <time>2016-05-06T12:53:03Z</time>
      </trkpt>
      <trkpt lat="45.65888" lon="6.87887">
        <ele>2298.3</ele>
        <time>2016-05-06T12:53:05Z</time>
      </trkpt>
      <trkpt lat="45.65889" lon="6.87886">
        <ele>2298.8</ele>
        <time>2016-05-06T12:53:07Z</time>
      </trkpt>
      <trkpt lat="45.65889" lon="6.87887">
        <ele>2299.2</ele>
        <time>2016-05-06T12:53:09Z</time>
      </trkpt>
      <trkpt lat="45.65889" lon="6.87886">
        <ele>2299.3</ele>
        <time>2016-05-06T12:53:11Z</time>
      </trkpt>
      <trkpt lat="45.65888" lon="6.87886">
        <ele>2299.4</ele>
        <time>2016-05-06T12:53:13Z</time>
      </trkpt>
      <trkpt lat="45.65888" lon="6.87885">
        <ele>2299.5</ele>
        <time>2016-05-06T12:53:15Z</time>
      </trkpt>
      <trkpt lat="45.65888" lon="6.87885">
        <ele>2299.4</ele>
        <time>2016-05-06T12:53:17Z</time>
      </trkpt>
      <trkpt lat="45.65889" lon="6.87886">
        <ele>2299.3</ele>
        <time>2016-05-06T12:53:19Z</time>
      </trkpt>
      <trkpt lat="45.65889" lon="6.87886">
        <ele>2299.2</ele>
        <time>2016-05-06T12:53:21Z</time>
      </trkpt>
      <trkpt lat="45.65889" lon="6.87887">
        <ele>2299.2</ele>
        <time>2016-05-06T12:53:23Z</time>
      </trkpt>
      <trkpt lat="45.65889" lon="6.87887">
        <ele>2299.2</ele>
        <time>2016-05-06T12:53:25Z</time>
      </trkpt>
      <trkpt lat="45.65888" lon="6.87887">
        <ele>2299.3</ele>
        <time>2016-05-06T12:53:27Z</time>
      </trkpt>
      <trkpt lat="45.65888" lon="6.87888">
        <ele>2299</ele>
        <time>2016-05-06T12:53:29Z</time>
      </trkpt>
      <trkpt lat="45.65887" lon="6.87888">
        <ele>2299</ele>
        <time>2016-05-06T12:53:31Z</time>
      </trkpt>
      <trkpt lat="45.65888" lon="6.87888">
        <ele>2299.4</ele>
        <time>2016-05-06T12:53:33Z</time>
      </trkpt>
      <trkpt lat="45.65889" lon="6.87887">
        <ele>2299.5</ele>
        <time>2016-05-06T12:53:35Z</time>
      </trkpt>
      <trkpt lat="45.6589" lon="6.87884">
        <ele>2299.7</ele>
        <time>2016-05-06T12:53:37Z</time>
      </trkpt>
      <trkpt lat="45.6589" lon="6.87885">
        <ele>2299.7</ele>
        <time>2016-05-06T12:53:39Z</time>
      </trkpt>
      <trkpt lat="45.65891" lon="6.87886">
        <ele>2299.3</ele>
        <time>2016-05-06T12:53:41Z</time>
      </trkpt>
      <trkpt lat="45.6589" lon="6.87887">
        <ele>2299.1</ele>
        <time>2016-05-06T12:53:43Z</time>
      </trkpt>
      <trkpt lat="45.65889" lon="6.87887">
        <ele>2299.3</ele>
        <time>2016-05-06T12:53:45Z</time>
      </trkpt>
      <trkpt lat="45.6589" lon="6.87886">
        <ele>2299.4</ele>
        <time>2016-05-06T12:53:47Z</time>
      </trkpt>
      <trkpt lat="45.6589" lon="6.87886">
        <ele>2299.3</ele>
        <time>2016-05-06T12:53:49Z</time>
      </trkpt>
      <trkpt lat="45.6589" lon="6.87887">
        <ele>2299.5</ele>
        <time>2016-05-06T12:53:51Z</time>
      </trkpt>
      <trkpt lat="45.65889" lon="6.87887">
        <ele>2299.6</ele>
        <time>2016-05-06T12:53:53Z</time>
      </trkpt>
      <trkpt lat="45.65889" lon="6.87887">
        <ele>2299.6</ele>
        <time>2016-05-06T12:53:55Z</time>
      </trkpt>
      <trkpt lat="45.6589" lon="6.87887">
        <ele>2299.5</ele>
        <time>2016-05-06T12:53:57Z</time>
      </trkpt>
      <trkpt lat="45.6589" lon="6.87888">
        <ele>2299.5</ele>
        <time>2016-05-06T12:53:59Z</time>
      </trkpt>
      <trkpt lat="45.65889" lon="6.87889">
        <ele>2299.4</ele>
        <time>2016-05-06T12:54:01Z</time>
      </trkpt>
      <trkpt lat="45.65888" lon="6.87889">
        <ele>2299.6</ele>
        <time>2016-05-06T12:54:03Z</time>
      </trkpt>
      <trkpt lat="45.65889" lon="6.87888">
        <ele>2299.6</ele>
        <time>2016-05-06T12:54:05Z</time>
      </trkpt>
      <trkpt lat="45.6589" lon="6.87888">
        <ele>2299.3</ele>
        <time>2016-05-06T12:54:07Z</time>
      </trkpt>
      <trkpt lat="45.6589" lon="6.87887">
        <ele>2299.3</ele>
        <time>2016-05-06T12:54:09Z</time>
      </trkpt>
      <trkpt lat="45.6589" lon="6.87886">
        <ele>2299.6</ele>
        <time>2016-05-06T12:54:11Z</time>
      </trkpt>
      <trkpt lat="45.6589" lon="6.87886">
        <ele>2299.7</ele>
        <time>2016-05-06T12:54:13Z</time>
      </trkpt>
      <trkpt lat="45.6589" lon="6.87885">
        <ele>2299.6</ele>
        <time>2016-05-06T12:54:15Z</time>
      </trkpt>
      <trkpt lat="45.65889" lon="6.87884">
        <ele>2299.6</ele>
        <time>2016-05-06T12:54:17Z</time>
      </trkpt>
      <trkpt lat="45.65889" lon="6.87884">
        <ele>2299.6</ele>
        <time>2016-05-06T12:54:19Z</time>
      </trkpt>
      <trkpt lat="45.65889" lon="6.87883">
        <ele>2299.7</ele>
        <time>2016-05-06T12:54:21Z</time>
      </trkpt>
      <trkpt lat="45.65888" lon="6.87883">
        <ele>2299.8</ele>
        <time>2016-05-06T12:54:23Z</time>
      </trkpt>
      <trkpt lat="45.65888" lon="6.87882">
        <ele>2299.8</ele>
        <time>2016-05-06T12:54:25Z</time>
      </trkpt>
      <trkpt lat="45.65889" lon="6.87881">
        <ele>2299.8</ele>
        <time>2016-05-06T12:54:27Z</time>
      </trkpt>
      <trkpt lat="45.65889" lon="6.8788">
        <ele>2299.9</ele>
        <time>2016-05-06T12:54:29Z</time>
      </trkpt>
      <trkpt lat="45.65888" lon="6.8788">
        <ele>2299.9</ele>
        <time>2016-05-06T12:54:31Z</time>
      </trkpt>
      <trkpt lat="45.65887" lon="6.8788">
        <ele>2299.9</ele>
        <time>2016-05-06T12:54:33Z</time>
      </trkpt>
      <trkpt lat="45.65887" lon="6.8788">
        <ele>2299.9</ele>
        <time>2016-05-06T12:54:35Z</time>
      </trkpt>
      <trkpt lat="45.65885" lon="6.8788">
        <ele>2299.9</ele>
        <time>2016-05-06T12:54:37Z</time>
      </trkpt>
      <trkpt lat="45.65884" lon="6.87879">
        <ele>2299.8</ele>
        <time>2016-05-06T12:54:39Z</time>
      </trkpt>
      <trkpt lat="45.65883" lon="6.87879">
        <ele>2299.7</ele>
        <time>2016-05-06T12:54:41Z</time>
      </trkpt>
      <trkpt lat="45.65882" lon="6.87879">
        <ele>2299.6</ele>
        <time>2016-05-06T12:54:43Z</time>
      </trkpt>
      <trkpt lat="45.65882" lon="6.8788">
        <ele>2299.5</ele>
        <time>2016-05-06T12:54:45Z</time>
      </trkpt>
      <trkpt lat="45.65882" lon="6.8788">
        <ele>2299.5</ele>
        <time>2016-05-06T12:54:47Z</time>
      </trkpt>
      <trkpt lat="45.65881" lon="6.87881">
        <ele>2299.6</ele>
        <time>2016-05-06T12:54:49Z</time>
      </trkpt>
      <trkpt lat="45.65881" lon="6.87881">
        <ele>2299.8</ele>
        <time>2016-05-06T12:54:51Z</time>
      </trkpt>
      <trkpt lat="45.6588" lon="6.87881">
        <ele>2299.3</ele>
        <time>2016-05-06T12:54:53Z</time>
      </trkpt>
      <trkpt lat="45.6588" lon="6.87881">
        <ele>2299.6</ele>
        <time>2016-05-06T12:54:55Z</time>
      </trkpt>
      <trkpt lat="45.65881" lon="6.87881">
        <ele>2299.8</ele>
        <time>2016-05-06T12:54:57Z</time>
      </trkpt>
      <trkpt lat="45.65881" lon="6.87882">
        <ele>2299.9</ele>
        <time>2016-05-06T12:54:59Z</time>
      </trkpt>
      <trkpt lat="45.65881" lon="6.87882">
        <ele>2299.8</ele>
        <time>2016-05-06T12:55:01Z</time>
      </trkpt>
      <trkpt lat="45.6588" lon="6.87882">
        <ele>2299.9</ele>
        <time>2016-05-06T12:55:03Z</time>
      </trkpt>
      <trkpt lat="45.65879" lon="6.87882">
        <ele>2300</ele>
        <time>2016-05-06T12:55:05Z</time>
      </trkpt>
      <trkpt lat="45.65879" lon="6.87882">
        <ele>2300</ele>
        <time>2016-05-06T12:55:07Z</time>
      </trkpt>
      <trkpt lat="45.65879" lon="6.87882">
        <ele>2300</ele>
        <time>2016-05-06T12:55:09Z</time>
      </trkpt>
      <trkpt lat="45.65879" lon="6.87883">
        <ele>2300.1</ele>
        <time>2016-05-06T12:55:11Z</time>
      </trkpt>
      <trkpt lat="45.65881" lon="6.87883">
        <ele>2300.1</ele>
        <time>2016-05-06T12:55:13Z</time>
      </trkpt>
      <trkpt lat="45.65881" lon="6.87884">
        <ele>2300.1</ele>
        <time>2016-05-06T12:55:15Z</time>
      </trkpt>
      <trkpt lat="45.65882" lon="6.87884">
        <ele>2300.1</ele>
        <time>2016-05-06T12:55:17Z</time>
      </trkpt>
      <trkpt lat="45.65882" lon="6.87884">
        <ele>2300.1</ele>
        <time>2016-05-06T12:55:19Z</time>
      </trkpt>
      <trkpt lat="45.65883" lon="6.87884">
        <ele>2300.1</ele>
        <time>2016-05-06T12:55:21Z</time>
      </trkpt>
      <trkpt lat="45.65883" lon="6.87883">
        <ele>2300.1</ele>
        <time>2016-05-06T12:55:23Z</time>
      </trkpt>
      <trkpt lat="45.65884" lon="6.87883">
        <ele>2299.7</ele>
        <time>2016-05-06T12:55:25Z</time>
      </trkpt>
      <trkpt lat="45.65884" lon="6.87882">
        <ele>2299.9</ele>
        <time>2016-05-06T12:55:27Z</time>
      </trkpt>
      <trkpt lat="45.65885" lon="6.87882">
        <ele>2300.1</ele>
        <time>2016-05-06T12:55:29Z</time>
      </trkpt>
      <trkpt lat="45.65886" lon="6.87882">
        <ele>2300.1</ele>
        <time>2016-05-06T12:55:31Z</time>
      </trkpt>
      <trkpt lat="45.65886" lon="6.87882">
        <ele>2300.1</ele>
        <time>2016-05-06T12:55:33Z</time>
      </trkpt>
      <trkpt lat="45.65887" lon="6.87882">
        <ele>2300</ele>
        <time>2016-05-06T12:55:35Z</time>
      </trkpt>
      <trkpt lat="45.65887" lon="6.87882">
        <ele>2300.1</ele>
        <time>2016-05-06T12:55:37Z</time>
      </trkpt>
      <trkpt lat="45.65888" lon="6.87882">
        <ele>2300.1</ele>
        <time>2016-05-06T12:55:39Z</time>
      </trkpt>
      <trkpt lat="45.65889" lon="6.87881">
        <ele>2299.9</ele>
        <time>2016-05-06T12:55:41Z</time>
      </trkpt>
      <trkpt lat="45.6589" lon="6.87881">
        <ele>2299.9</ele>
        <time>2016-05-06T12:55:43Z</time>
      </trkpt>
      <trkpt lat="45.65891" lon="6.87881">
        <ele>2299.6</ele>
        <time>2016-05-06T12:55:45Z</time>
      </trkpt>
      <trkpt lat="45.6589" lon="6.87881">
        <ele>2299.2</ele>
        <time>2016-05-06T12:55:47Z</time>
      </trkpt>
      <trkpt lat="45.65891" lon="6.87881">
        <ele>2298.9</ele>
        <time>2016-05-06T12:55:49Z</time>
      </trkpt>
      <trkpt lat="45.65891" lon="6.87881">
        <ele>2298.9</ele>
        <time>2016-05-06T12:55:51Z</time>
      </trkpt>
      <trkpt lat="45.6589" lon="6.87881">
        <ele>2299</ele>
        <time>2016-05-06T12:55:53Z</time>
      </trkpt>
      <trkpt lat="45.6589" lon="6.87881">
        <ele>2299</ele>
        <time>2016-05-06T12:55:55Z</time>
      </trkpt>
      <trkpt lat="45.6589" lon="6.8788">
        <ele>2299</ele>
        <time>2016-05-06T12:55:57Z</time>
      </trkpt>
      <trkpt lat="45.65889" lon="6.8788">
        <ele>2299.1</ele>
        <time>2016-05-06T12:55:59Z</time>
      </trkpt>
      <trkpt lat="45.65888" lon="6.87881">
        <ele>2299.1</ele>
        <time>2016-05-06T12:56:01Z</time>
      </trkpt>
      <trkpt lat="45.65887" lon="6.87881">
        <ele>2299.2</ele>
        <time>2016-05-06T12:56:03Z</time>
      </trkpt>
      <trkpt lat="45.65888" lon="6.87882">
        <ele>2298.8</ele>
        <time>2016-05-06T12:56:05Z</time>
      </trkpt>
      <trkpt lat="45.65888" lon="6.87882">
        <ele>2299</ele>
        <time>2016-05-06T12:56:07Z</time>
      </trkpt>
      <trkpt lat="45.65885" lon="6.87882">
        <ele>2299.1</ele>
        <time>2016-05-06T12:56:09Z</time>
      </trkpt>
      <trkpt lat="45.65882" lon="6.87882">
        <ele>2299.3</ele>
        <time>2016-05-06T12:56:11Z</time>
      </trkpt>
      <trkpt lat="45.65881" lon="6.87882">
        <ele>2299.5</ele>
        <time>2016-05-06T12:56:13Z</time>
      </trkpt>
      <trkpt lat="45.65882" lon="6.87883">
        <ele>2299</ele>
        <time>2016-05-06T12:56:16Z</time>
      </trkpt>
      <trkpt lat="45.65881" lon="6.87882">
        <ele>2299.7</ele>
        <time>2016-05-06T12:56:19Z</time>
      </trkpt>
      <trkpt lat="45.65883" lon="6.87882">
        <ele>2299.8</ele>
        <time>2016-05-06T12:56:21Z</time>
      </trkpt>
      <trkpt lat="45.65884" lon="6.87882">
        <ele>2299.7</ele>
        <time>2016-05-06T12:56:23Z</time>
      </trkpt>
      <trkpt lat="45.65883" lon="6.87882">
        <ele>2299.1</ele>
        <time>2016-05-06T12:56:25Z</time>
      </trkpt>
      <trkpt lat="45.65884" lon="6.87883">
        <ele>2299.1</ele>
        <time>2016-05-06T12:56:27Z</time>
      </trkpt>
      <trkpt lat="45.65883" lon="6.87884">
        <ele>2299.5</ele>
        <time>2016-05-06T12:56:29Z</time>
      </trkpt>
      <trkpt lat="45.65884" lon="6.87884">
        <ele>2299.8</ele>
        <time>2016-05-06T12:56:31Z</time>
      </trkpt>
      <trkpt lat="45.65886" lon="6.87884">
        <ele>2300</ele>
        <time>2016-05-06T12:56:33Z</time>
      </trkpt>
      <trkpt lat="45.65888" lon="6.87883">
        <ele>2300.1</ele>
        <time>2016-05-06T12:56:35Z</time>
      </trkpt>
      <trkpt lat="45.65888" lon="6.87883">
        <ele>2300</ele>
        <time>2016-05-06T12:56:37Z</time>
      </trkpt>
      <trkpt lat="45.65889" lon="6.87883">
        <ele>2299.9</ele>
        <time>2016-05-06T12:56:39Z</time>
      </trkpt>
      <trkpt lat="45.6589" lon="6.87883">
        <ele>2299.9</ele>
        <time>2016-05-06T12:56:41Z</time>
      </trkpt>
      <trkpt lat="45.65891" lon="6.87883">
        <ele>2299.8</ele>
        <time>2016-05-06T12:56:43Z</time>
      </trkpt>
      <trkpt lat="45.65892" lon="6.87882">
        <ele>2299.8</ele>
        <time>2016-05-06T12:56:45Z</time>
      </trkpt>
      <trkpt lat="45.65892" lon="6.87882">
        <ele>2299.7</ele>
        <time>2016-05-06T12:56:47Z</time>
      </trkpt>
      <trkpt lat="45.65892" lon="6.87882">
        <ele>2299.7</ele>
        <time>2016-05-06T12:56:49Z</time>
      </trkpt>
      <trkpt lat="45.65893" lon="6.87881">
        <ele>2299.7</ele>
        <time>2016-05-06T12:56:51Z</time>
      </trkpt>
      <trkpt lat="45.65894" lon="6.87881">
        <ele>2299.6</ele>
        <time>2016-05-06T12:56:53Z</time>
      </trkpt>
      <trkpt lat="45.65893" lon="6.87882">
        <ele>2299</ele>
        <time>2016-05-06T12:56:55Z</time>
      </trkpt>
      <trkpt lat="45.65893" lon="6.87883">
        <ele>2299.1</ele>
        <time>2016-05-06T12:56:57Z</time>
      </trkpt>
      <trkpt lat="45.65894" lon="6.87884">
        <ele>2299.3</ele>
        <time>2016-05-06T12:56:59Z</time>
      </trkpt>
      <trkpt lat="45.65894" lon="6.87884">
        <ele>2299.4</ele>
        <time>2016-05-06T12:57:01Z</time>
      </trkpt>
      <trkpt lat="45.65894" lon="6.87884">
        <ele>2296.6</ele>
        <time>2016-05-06T12:57:03Z</time>
      </trkpt>
      <trkpt lat="45.65895" lon="6.87884">
        <ele>2298.4</ele>
        <time>2016-05-06T12:57:05Z</time>
      </trkpt>
      <trkpt lat="45.65896" lon="6.87884">
        <ele>2298.9</ele>
        <time>2016-05-06T12:57:07Z</time>
      </trkpt>
      <trkpt lat="45.65896" lon="6.87884">
        <ele>2299.2</ele>
        <time>2016-05-06T12:57:09Z</time>
      </trkpt>
      <trkpt lat="45.65896" lon="6.87884">
        <ele>2299.5</ele>
        <time>2016-05-06T12:57:11Z</time>
      </trkpt>
      <trkpt lat="45.65896" lon="6.87884">
        <ele>2299.7</ele>
        <time>2016-05-06T12:57:13Z</time>
      </trkpt>
      <trkpt lat="45.65896" lon="6.87885">
        <ele>2299.7</ele>
        <time>2016-05-06T12:57:15Z</time>
      </trkpt>
      <trkpt lat="45.65896" lon="6.87885">
        <ele>2299.7</ele>
        <time>2016-05-06T12:57:17Z</time>
      </trkpt>
      <trkpt lat="45.65896" lon="6.87884">
        <ele>2299.8</ele>
        <time>2016-05-06T12:57:19Z</time>
      </trkpt>
      <trkpt lat="45.65895" lon="6.87884">
        <ele>2299</ele>
        <time>2016-05-06T12:57:21Z</time>
      </trkpt>
      <trkpt lat="45.65894" lon="6.87884">
        <ele>2299.3</ele>
        <time>2016-05-06T12:57:23Z</time>
      </trkpt>
      <trkpt lat="45.65894" lon="6.87884">
        <ele>2299.3</ele>
        <time>2016-05-06T12:57:25Z</time>
      </trkpt>
      <trkpt lat="45.65894" lon="6.87884">
        <ele>2300.1</ele>
        <time>2016-05-06T12:57:27Z</time>
      </trkpt>
      <trkpt lat="45.65893" lon="6.87884">
        <ele>2300.2</ele>
        <time>2016-05-06T12:57:29Z</time>
      </trkpt>
      <trkpt lat="45.65893" lon="6.87883">
        <ele>2300.3</ele>
        <time>2016-05-06T12:57:31Z</time>
      </trkpt>
      <trkpt lat="45.65893" lon="6.87883">
        <ele>2300.1</ele>
        <time>2016-05-06T12:57:33Z</time>
      </trkpt>
      <trkpt lat="45.65893" lon="6.87883">
        <ele>2300</ele>
        <time>2016-05-06T12:57:35Z</time>
      </trkpt>
      <trkpt lat="45.65894" lon="6.87882">
        <ele>2300</ele>
        <time>2016-05-06T12:57:37Z</time>
      </trkpt>
      <trkpt lat="45.65894" lon="6.87882">
        <ele>2300</ele>
        <time>2016-05-06T12:57:39Z</time>
      </trkpt>
      <trkpt lat="45.65894" lon="6.87881">
        <ele>2299.9</ele>
        <time>2016-05-06T12:57:41Z</time>
      </trkpt>
      <trkpt lat="45.65894" lon="6.87881">
        <ele>2300</ele>
        <time>2016-05-06T12:57:43Z</time>
      </trkpt>
      <trkpt lat="45.65892" lon="6.87881">
        <ele>2299.9</ele>
        <time>2016-05-06T12:57:45Z</time>
      </trkpt>
      <trkpt lat="45.65891" lon="6.87881">
        <ele>2300</ele>
        <time>2016-05-06T12:57:47Z</time>
      </trkpt>
      <trkpt lat="45.65891" lon="6.87881">
        <ele>2300.4</ele>
        <time>2016-05-06T12:57:49Z</time>
      </trkpt>
      <trkpt lat="45.6589" lon="6.8788">
        <ele>2300.5</ele>
        <time>2016-05-06T12:57:51Z</time>
      </trkpt>
      <trkpt lat="45.65887" lon="6.87881">
        <ele>2300.6</ele>
        <time>2016-05-06T12:57:53Z</time>
      </trkpt>
      <trkpt lat="45.65885" lon="6.87881">
        <ele>2300.7</ele>
        <time>2016-05-06T12:57:55Z</time>
      </trkpt>
      <trkpt lat="45.65883" lon="6.87881">
        <ele>2300.9</ele>
        <time>2016-05-06T12:57:57Z</time>
      </trkpt>
      <trkpt lat="45.65882" lon="6.87881">
        <ele>2301.3</ele>
        <time>2016-05-06T12:57:59Z</time>
      </trkpt>
      <trkpt lat="45.65881" lon="6.87881">
        <ele>2301.7</ele>
        <time>2016-05-06T12:58:01Z</time>
      </trkpt>
      <trkpt lat="45.6588" lon="6.87881">
        <ele>2301.5</ele>
        <time>2016-05-06T12:58:03Z</time>
      </trkpt>
      <trkpt lat="45.65878" lon="6.87881">
        <ele>2302</ele>
        <time>2016-05-06T12:58:06Z</time>
      </trkpt>
      <trkpt lat="45.65877" lon="6.8788">
        <ele>2302.9</ele>
        <time>2016-05-06T12:58:09Z</time>
      </trkpt>
      <trkpt lat="45.65877" lon="6.87879">
        <ele>2302.7</ele>
        <time>2016-05-06T12:58:11Z</time>
      </trkpt>
      <trkpt lat="45.65876" lon="6.8788">
        <ele>2302.8</ele>
        <time>2016-05-06T12:58:13Z</time>
      </trkpt>
      <trkpt lat="45.65876" lon="6.87879">
        <ele>2303.5</ele>
        <time>2016-05-06T12:58:15Z</time>
      </trkpt>
      <trkpt lat="45.65876" lon="6.87879">
        <ele>2302.8</ele>
        <time>2016-05-06T12:58:17Z</time>
      </trkpt>
      <trkpt lat="45.65874" lon="6.87879">
        <ele>2303.3</ele>
        <time>2016-05-06T12:58:19Z</time>
      </trkpt>
      <trkpt lat="45.65875" lon="6.87879">
        <ele>2303.7</ele>
        <time>2016-05-06T12:58:21Z</time>
      </trkpt>
      <trkpt lat="45.65875" lon="6.87879">
        <ele>2304.2</ele>
        <time>2016-05-06T12:58:23Z</time>
      </trkpt>
      <trkpt lat="45.65875" lon="6.87879">
        <ele>2304.2</ele>
        <time>2016-05-06T12:58:25Z</time>
      </trkpt>
      <trkpt lat="45.65875" lon="6.87879">
        <ele>2304.5</ele>
        <time>2016-05-06T12:58:27Z</time>
      </trkpt>
      <trkpt lat="45.65874" lon="6.87878">
        <ele>2304.7</ele>
        <time>2016-05-06T12:58:29Z</time>
      </trkpt>
      <trkpt lat="45.65874" lon="6.87878">
        <ele>2305.1</ele>
        <time>2016-05-06T12:58:31Z</time>
      </trkpt>
      <trkpt lat="45.65875" lon="6.8788">
        <ele>2304.3</ele>
        <time>2016-05-06T12:58:33Z</time>
      </trkpt>
      <trkpt lat="45.65875" lon="6.87881">
        <ele>2304.3</ele>
        <time>2016-05-06T12:58:35Z</time>
      </trkpt>
      <trkpt lat="45.65875" lon="6.87881">
        <ele>2304.5</ele>
        <time>2016-05-06T12:58:37Z</time>
      </trkpt>
      <trkpt lat="45.65875" lon="6.87882">
        <ele>2304.6</ele>
        <time>2016-05-06T12:58:39Z</time>
      </trkpt>
      <trkpt lat="45.65875" lon="6.87882">
        <ele>2304.6</ele>
        <time>2016-05-06T12:58:41Z</time>
      </trkpt>
      <trkpt lat="45.65874" lon="6.87882">
        <ele>2304.4</ele>
        <time>2016-05-06T12:58:43Z</time>
      </trkpt>
      <trkpt lat="45.65874" lon="6.87882">
        <ele>2304.3</ele>
        <time>2016-05-06T12:58:45Z</time>
      </trkpt>
      <trkpt lat="45.65875" lon="6.87882">
        <ele>2304.4</ele>
        <time>2016-05-06T12:58:47Z</time>
      </trkpt>
      <trkpt lat="45.65875" lon="6.87882">
        <ele>2304.5</ele>
        <time>2016-05-06T12:58:49Z</time>
      </trkpt>
      <trkpt lat="45.65874" lon="6.87883">
        <ele>2304.8</ele>
        <time>2016-05-06T12:58:51Z</time>
      </trkpt>
      <trkpt lat="45.65873" lon="6.87883">
        <ele>2304.9</ele>
        <time>2016-05-06T12:58:53Z</time>
      </trkpt>
      <trkpt lat="45.65872" lon="6.87883">
        <ele>2304.9</ele>
        <time>2016-05-06T12:58:55Z</time>
      </trkpt>
      <trkpt lat="45.65872" lon="6.87882">
        <ele>2304.7</ele>
        <time>2016-05-06T12:58:57Z</time>
      </trkpt>
      <trkpt lat="45.65872" lon="6.87882">
        <ele>2304.7</ele>
        <time>2016-05-06T12:58:59Z</time>
      </trkpt>
      <trkpt lat="45.65873" lon="6.8788">
        <ele>2304.6</ele>
        <time>2016-05-06T12:59:01Z</time>
      </trkpt>
      <trkpt lat="45.65872" lon="6.87879">
        <ele>2304.4</ele>
        <time>2016-05-06T12:59:03Z</time>
      </trkpt>
      <trkpt lat="45.65871" lon="6.87878">
        <ele>2304.7</ele>
        <time>2016-05-06T12:59:05Z</time>
      </trkpt>
      <trkpt lat="45.6587" lon="6.87878">
        <ele>2304.9</ele>
        <time>2016-05-06T12:59:07Z</time>
      </trkpt>
      <trkpt lat="45.65869" lon="6.87878">
        <ele>2305</ele>
        <time>2016-05-06T12:59:09Z</time>
      </trkpt>
      <trkpt lat="45.65868" lon="6.87877">
        <ele>2305.5</ele>
        <time>2016-05-06T12:59:11Z</time>
      </trkpt>
      <trkpt lat="45.65868" lon="6.87877">
        <ele>2305.8</ele>
        <time>2016-05-06T12:59:13Z</time>
      </trkpt>
      <trkpt lat="45.65868" lon="6.87876">
        <ele>2306.3</ele>
        <time>2016-05-06T12:59:15Z</time>
      </trkpt>
      <trkpt lat="45.65867" lon="6.87876">
        <ele>2306.5</ele>
        <time>2016-05-06T12:59:17Z</time>
      </trkpt>
      <trkpt lat="45.65867" lon="6.87875">
        <ele>2306.3</ele>
        <time>2016-05-06T12:59:19Z</time>
      </trkpt>
      <trkpt lat="45.65868" lon="6.87875">
        <ele>2306.6</ele>
        <time>2016-05-06T12:59:21Z</time>
      </trkpt>
      <trkpt lat="45.65868" lon="6.87874">
        <ele>2306.9</ele>
        <time>2016-05-06T12:59:23Z</time>
      </trkpt>
      <trkpt lat="45.65868" lon="6.87873">
        <ele>2307.1</ele>
        <time>2016-05-06T12:59:25Z</time>
      </trkpt>
      <trkpt lat="45.65868" lon="6.87873">
        <ele>2307</ele>
        <time>2016-05-06T12:59:27Z</time>
      </trkpt>
      <trkpt lat="45.65869" lon="6.87872">
        <ele>2307.1</ele>
        <time>2016-05-06T12:59:29Z</time>
      </trkpt>
      <trkpt lat="45.65869" lon="6.87872">
        <ele>2307.1</ele>
        <time>2016-05-06T12:59:31Z</time>
      </trkpt>
      <trkpt lat="45.65869" lon="6.87872">
        <ele>2307.1</ele>
        <time>2016-05-06T12:59:33Z</time>
      </trkpt>
      <trkpt lat="45.6587" lon="6.87872">
        <ele>2307.1</ele>
        <time>2016-05-06T12:59:35Z</time>
      </trkpt>
      <trkpt lat="45.65869" lon="6.87872">
        <ele>2307</ele>
        <time>2016-05-06T12:59:37Z</time>
      </trkpt>
      <trkpt lat="45.65868" lon="6.87872">
        <ele>2307.2</ele>
        <time>2016-05-06T12:59:39Z</time>
      </trkpt>
      <trkpt lat="45.65868" lon="6.87871">
        <ele>2307.1</ele>
        <time>2016-05-06T12:59:41Z</time>
      </trkpt>
      <trkpt lat="45.65867" lon="6.8787">
        <ele>2307</ele>
        <time>2016-05-06T12:59:43Z</time>
      </trkpt>
      <trkpt lat="45.65866" lon="6.87869">
        <ele>2307.2</ele>
        <time>2016-05-06T12:59:45Z</time>
      </trkpt>
      <trkpt lat="45.65865" lon="6.87868">
        <ele>2307.4</ele>
        <time>2016-05-06T12:59:47Z</time>
      </trkpt>
      <trkpt lat="45.65865" lon="6.87867">
        <ele>2307.8</ele>
        <time>2016-05-06T12:59:49Z</time>
      </trkpt>
      <trkpt lat="45.65865" lon="6.87866">
        <ele>2308.1</ele>
        <time>2016-05-06T12:59:51Z</time>
      </trkpt>
      <trkpt lat="45.65865" lon="6.87865">
        <ele>2308.4</ele>
        <time>2016-05-06T12:59:53Z</time>
      </trkpt>
      <trkpt lat="45.65864" lon="6.87865">
        <ele>2308.7</ele>
        <time>2016-05-06T12:59:55Z</time>
      </trkpt>
      <trkpt lat="45.65864" lon="6.87864">
        <ele>2309</ele>
        <time>2016-05-06T12:59:57Z</time>
      </trkpt>
      <trkpt lat="45.65863" lon="6.87863">
        <ele>2309.5</ele>
        <time>2016-05-06T12:59:59Z</time>
      </trkpt>
      <trkpt lat="45.65863" lon="6.87862">
        <ele>2309.7</ele>
        <time>2016-05-06T13:00:01Z</time>
      </trkpt>
      <trkpt lat="45.65862" lon="6.87862">
        <ele>2310.2</ele>
        <time>2016-05-06T13:00:03Z</time>
      </trkpt>
      <trkpt lat="45.65863" lon="6.87862">
        <ele>2310.3</ele>
        <time>2016-05-06T13:00:05Z</time>
      </trkpt>
      <trkpt lat="45.65864" lon="6.87861">
        <ele>2310.4</ele>
        <time>2016-05-06T13:00:07Z</time>
      </trkpt>
      <trkpt lat="45.65865" lon="6.87861">
        <ele>2310.5</ele>
        <time>2016-05-06T13:00:09Z</time>
      </trkpt>
      <trkpt lat="45.65865" lon="6.87861">
        <ele>2310.6</ele>
        <time>2016-05-06T13:00:11Z</time>
      </trkpt>
      <trkpt lat="45.65866" lon="6.8786">
        <ele>2310.6</ele>
        <time>2016-05-06T13:00:13Z</time>
      </trkpt>
      <trkpt lat="45.65866" lon="6.8786">
        <ele>2310.5</ele>
        <time>2016-05-06T13:00:15Z</time>
      </trkpt>
      <trkpt lat="45.65866" lon="6.8786">
        <ele>2310.5</ele>
        <time>2016-05-06T13:00:17Z</time>
      </trkpt>
      <trkpt lat="45.65866" lon="6.8786">
        <ele>2310.1</ele>
        <time>2016-05-06T13:00:19Z</time>
      </trkpt>
      <trkpt lat="45.65865" lon="6.87861">
        <ele>2310.3</ele>
        <time>2016-05-06T13:00:21Z</time>
      </trkpt>
      <trkpt lat="45.65865" lon="6.87861">
        <ele>2310.4</ele>
        <time>2016-05-06T13:00:23Z</time>
      </trkpt>
      <trkpt lat="45.65865" lon="6.87862">
        <ele>2310.4</ele>
        <time>2016-05-06T13:00:25Z</time>
      </trkpt>
      <trkpt lat="45.65864" lon="6.87861">
        <ele>2310.5</ele>
        <time>2016-05-06T13:00:27Z</time>
      </trkpt>
      <trkpt lat="45.65865" lon="6.87861">
        <ele>2310.5</ele>
        <time>2016-05-06T13:00:29Z</time>
      </trkpt>
      <trkpt lat="45.65865" lon="6.87862">
        <ele>2310.6</ele>
        <time>2016-05-06T13:00:31Z</time>
      </trkpt>
      <trkpt lat="45.65864" lon="6.87861">
        <ele>2310.6</ele>
        <time>2016-05-06T13:00:33Z</time>
      </trkpt>
      <trkpt lat="45.65863" lon="6.8786">
        <ele>2310.6</ele>
        <time>2016-05-06T13:00:35Z</time>
      </trkpt>
      <trkpt lat="45.65863" lon="6.8786">
        <ele>2310.8</ele>
        <time>2016-05-06T13:00:37Z</time>
      </trkpt>
      <trkpt lat="45.65862" lon="6.87859">
        <ele>2311.2</ele>
        <time>2016-05-06T13:00:39Z</time>
      </trkpt>
      <trkpt lat="45.65861" lon="6.87858">
        <ele>2311.6</ele>
        <time>2016-05-06T13:00:41Z</time>
      </trkpt>
      <trkpt lat="45.65861" lon="6.87858">
        <ele>2311.9</ele>
        <time>2016-05-06T13:00:43Z</time>
      </trkpt>
      <trkpt lat="45.65861" lon="6.87857">
        <ele>2312.2</ele>
        <time>2016-05-06T13:00:45Z</time>
      </trkpt>
      <trkpt lat="45.6586" lon="6.87856">
        <ele>2312.5</ele>
        <time>2016-05-06T13:00:47Z</time>
      </trkpt>
      <trkpt lat="45.6586" lon="6.87855">
        <ele>2312.7</ele>
        <time>2016-05-06T13:00:49Z</time>
      </trkpt>
      <trkpt lat="45.65859" lon="6.87854">
        <ele>2312.9</ele>
        <time>2016-05-06T13:00:51Z</time>
      </trkpt>
      <trkpt lat="45.65859" lon="6.87855">
        <ele>2313.3</ele>
        <time>2016-05-06T13:00:53Z</time>
      </trkpt>
      <trkpt lat="45.65859" lon="6.87855">
        <ele>2313.4</ele>
        <time>2016-05-06T13:00:55Z</time>
      </trkpt>
      <trkpt lat="45.65859" lon="6.87855">
        <ele>2313.6</ele>
        <time>2016-05-06T13:00:57Z</time>
      </trkpt>
      <trkpt lat="45.65858" lon="6.87854">
        <ele>2313.7</ele>
        <time>2016-05-06T13:00:59Z</time>
      </trkpt>
      <trkpt lat="45.65858" lon="6.87854">
        <ele>2313.8</ele>
        <time>2016-05-06T13:01:01Z</time>
      </trkpt>
      <trkpt lat="45.65858" lon="6.87854">
        <ele>2313.9</ele>
        <time>2016-05-06T13:01:03Z</time>
      </trkpt>
      <trkpt lat="45.65859" lon="6.87854">
        <ele>2313.7</ele>
        <time>2016-05-06T13:01:05Z</time>
      </trkpt>
      <trkpt lat="45.65858" lon="6.87854">
        <ele>2313.8</ele>
        <time>2016-05-06T13:01:07Z</time>
      </trkpt>
      <trkpt lat="45.65858" lon="6.87854">
        <ele>2313.3</ele>
        <time>2016-05-06T13:01:09Z</time>
      </trkpt>
      <trkpt lat="45.65858" lon="6.87854">
        <ele>2313.4</ele>
        <time>2016-05-06T13:01:11Z</time>
      </trkpt>
      <trkpt lat="45.65858" lon="6.87854">
        <ele>2313.6</ele>
        <time>2016-05-06T13:01:13Z</time>
      </trkpt>
      <trkpt lat="45.65858" lon="6.87854">
        <ele>2313</ele>
        <time>2016-05-06T13:01:16Z</time>
      </trkpt>
      <trkpt lat="45.65858" lon="6.87854">
        <ele>2314</ele>
        <time>2016-05-06T13:01:19Z</time>
      </trkpt>
      <trkpt lat="45.65858" lon="6.87853">
        <ele>2313.8</ele>
        <time>2016-05-06T13:01:21Z</time>
      </trkpt>
      <trkpt lat="45.65858" lon="6.87852">
        <ele>2313.2</ele>
        <time>2016-05-06T13:01:23Z</time>
      </trkpt>
      <trkpt lat="45.65857" lon="6.87852">
        <ele>2313.6</ele>
        <time>2016-05-06T13:01:25Z</time>
      </trkpt>
      <trkpt lat="45.65856" lon="6.87851">
        <ele>2314</ele>
        <time>2016-05-06T13:01:27Z</time>
      </trkpt>
      <trkpt lat="45.65856" lon="6.8785">
        <ele>2314</ele>
        <time>2016-05-06T13:01:29Z</time>
      </trkpt>
      <trkpt lat="45.65855" lon="6.87849">
        <ele>2314.6</ele>
        <time>2016-05-06T13:01:31Z</time>
      </trkpt>
      <trkpt lat="45.65855" lon="6.87848">
        <ele>2314.9</ele>
        <time>2016-05-06T13:01:33Z</time>
      </trkpt>
      <trkpt lat="45.65854" lon="6.87847">
        <ele>2315.1</ele>
        <time>2016-05-06T13:01:35Z</time>
      </trkpt>
      <trkpt lat="45.65854" lon="6.87846">
        <ele>2315.4</ele>
        <time>2016-05-06T13:01:37Z</time>
      </trkpt>
      <trkpt lat="45.65854" lon="6.87845">
        <ele>2315.8</ele>
        <time>2016-05-06T13:01:39Z</time>
      </trkpt>
      <trkpt lat="45.65854" lon="6.87844">
        <ele>2316</ele>
        <time>2016-05-06T13:01:41Z</time>
      </trkpt>
      <trkpt lat="45.65853" lon="6.87842">
        <ele>2316.2</ele>
        <time>2016-05-06T13:01:43Z</time>
      </trkpt>
      <trkpt lat="45.65853" lon="6.8784">
        <ele>2316.4</ele>
        <time>2016-05-06T13:01:45Z</time>
      </trkpt>
      <trkpt lat="45.65852" lon="6.87839">
        <ele>2316.9</ele>
        <time>2016-05-06T13:01:47Z</time>
      </trkpt>
      <trkpt lat="45.65852" lon="6.87838">
        <ele>2317.2</ele>
        <time>2016-05-06T13:01:49Z</time>
      </trkpt>
      <trkpt lat="45.65852" lon="6.87837">
        <ele>2317.4</ele>
        <time>2016-05-06T13:01:51Z</time>
      </trkpt>
      <trkpt lat="45.65851" lon="6.87836">
        <ele>2317.6</ele>
        <time>2016-05-06T13:01:53Z</time>
      </trkpt>
      <trkpt lat="45.65851" lon="6.87835">
        <ele>2317.8</ele>
        <time>2016-05-06T13:01:55Z</time>
      </trkpt>
      <trkpt lat="45.65851" lon="6.87835">
        <ele>2317.1</ele>
        <time>2016-05-06T13:01:57Z</time>
      </trkpt>
      <trkpt lat="45.65851" lon="6.87835">
        <ele>2317.1</ele>
        <time>2016-05-06T13:01:59Z</time>
      </trkpt>
      <trkpt lat="45.65851" lon="6.87835">
        <ele>2317.6</ele>
        <time>2016-05-06T13:02:01Z</time>
      </trkpt>
      <trkpt lat="45.65851" lon="6.87836">
        <ele>2318.3</ele>
        <time>2016-05-06T13:02:03Z</time>
      </trkpt>
      <trkpt lat="45.65851" lon="6.87836">
        <ele>2317.6</ele>
        <time>2016-05-06T13:02:05Z</time>
      </trkpt>
      <trkpt lat="45.65851" lon="6.87835">
        <ele>2318.4</ele>
        <time>2016-05-06T13:02:07Z</time>
      </trkpt>
      <trkpt lat="45.65851" lon="6.87835">
        <ele>2318.9</ele>
        <time>2016-05-06T13:02:09Z</time>
      </trkpt>
      <trkpt lat="45.6585" lon="6.87835">
        <ele>2318.9</ele>
        <time>2016-05-06T13:02:11Z</time>
      </trkpt>
      <trkpt lat="45.6585" lon="6.87834">
        <ele>2318.9</ele>
        <time>2016-05-06T13:02:13Z</time>
      </trkpt>
      <trkpt lat="45.65848" lon="6.87834">
        <ele>2318.8</ele>
        <time>2016-05-06T13:02:15Z</time>
      </trkpt>
      <trkpt lat="45.65847" lon="6.87832">
        <ele>2318.8</ele>
        <time>2016-05-06T13:02:17Z</time>
      </trkpt>
      <trkpt lat="45.65846" lon="6.87831">
        <ele>2318.5</ele>
        <time>2016-05-06T13:02:19Z</time>
      </trkpt>
      <trkpt lat="45.65846" lon="6.87831">
        <ele>2318.6</ele>
        <time>2016-05-06T13:02:21Z</time>
      </trkpt>
      <trkpt lat="45.65845" lon="6.8783">
        <ele>2318.6</ele>
        <time>2016-05-06T13:02:23Z</time>
      </trkpt>
      <trkpt lat="45.65844" lon="6.8783">
        <ele>2318.9</ele>
        <time>2016-05-06T13:02:25Z</time>
      </trkpt>
      <trkpt lat="45.65844" lon="6.87829">
        <ele>2319.2</ele>
        <time>2016-05-06T13:02:27Z</time>
      </trkpt>
      <trkpt lat="45.65844" lon="6.87827">
        <ele>2319.2</ele>
        <time>2016-05-06T13:02:29Z</time>
      </trkpt>
      <trkpt lat="45.65844" lon="6.87826">
        <ele>2319.4</ele>
        <time>2016-05-06T13:02:31Z</time>
      </trkpt>
      <trkpt lat="45.65844" lon="6.87826">
        <ele>2319.7</ele>
        <time>2016-05-06T13:02:33Z</time>
      </trkpt>
      <trkpt lat="45.65844" lon="6.87825">
        <ele>2320.1</ele>
        <time>2016-05-06T13:02:35Z</time>
      </trkpt>
      <trkpt lat="45.65843" lon="6.87824">
        <ele>2320.3</ele>
        <time>2016-05-06T13:02:37Z</time>
      </trkpt>
      <trkpt lat="45.65843" lon="6.87823">
        <ele>2320.5</ele>
        <time>2016-05-06T13:02:39Z</time>
      </trkpt>
      <trkpt lat="45.65844" lon="6.87821">
        <ele>2320.8</ele>
        <time>2016-05-06T13:02:41Z</time>
      </trkpt>
      <trkpt lat="45.65844" lon="6.8782">
        <ele>2321.1</ele>
        <time>2016-05-06T13:02:43Z</time>
      </trkpt>
      <trkpt lat="45.65844" lon="6.87818">
        <ele>2321.4</ele>
        <time>2016-05-06T13:02:45Z</time>
      </trkpt>
      <trkpt lat="45.65844" lon="6.87817">
        <ele>2321.7</ele>
        <time>2016-05-06T13:02:47Z</time>
      </trkpt>
      <trkpt lat="45.65844" lon="6.87815">
        <ele>2322.1</ele>
        <time>2016-05-06T13:02:49Z</time>
      </trkpt>
      <trkpt lat="45.65844" lon="6.87814">
        <ele>2322.5</ele>
        <time>2016-05-06T13:02:51Z</time>
      </trkpt>
      <trkpt lat="45.65844" lon="6.87814">
        <ele>2322.7</ele>
        <time>2016-05-06T13:02:53Z</time>
      </trkpt>
      <trkpt lat="45.65844" lon="6.87812">
        <ele>2322.8</ele>
        <time>2016-05-06T13:02:55Z</time>
      </trkpt>
      <trkpt lat="45.65844" lon="6.87812">
        <ele>2322.9</ele>
        <time>2016-05-06T13:02:57Z</time>
      </trkpt>
      <trkpt lat="45.65844" lon="6.87812">
        <ele>2322.8</ele>
        <time>2016-05-06T13:02:59Z</time>
      </trkpt>
      <trkpt lat="45.65843" lon="6.87811">
        <ele>2323.3</ele>
        <time>2016-05-06T13:03:01Z</time>
      </trkpt>
      <trkpt lat="45.65843" lon="6.87811">
        <ele>2323.1</ele>
        <time>2016-05-06T13:03:03Z</time>
      </trkpt>
      <trkpt lat="45.65843" lon="6.8781">
        <ele>2323.1</ele>
        <time>2016-05-06T13:03:05Z</time>
      </trkpt>
      <trkpt lat="45.65843" lon="6.8781">
        <ele>2323.1</ele>
        <time>2016-05-06T13:03:07Z</time>
      </trkpt>
      <trkpt lat="45.65843" lon="6.8781">
        <ele>2323.2</ele>
        <time>2016-05-06T13:03:09Z</time>
      </trkpt>
      <trkpt lat="45.65842" lon="6.87809">
        <ele>2323.3</ele>
        <time>2016-05-06T13:03:11Z</time>
      </trkpt>
      <trkpt lat="45.65842" lon="6.87808">
        <ele>2323.3</ele>
        <time>2016-05-06T13:03:13Z</time>
      </trkpt>
      <trkpt lat="45.65842" lon="6.87808">
        <ele>2323.3</ele>
        <time>2016-05-06T13:03:15Z</time>
      </trkpt>
      <trkpt lat="45.65841" lon="6.87808">
        <ele>2323.4</ele>
        <time>2016-05-06T13:03:17Z</time>
      </trkpt>
      <trkpt lat="45.65841" lon="6.87807">
        <ele>2323.5</ele>
        <time>2016-05-06T13:03:19Z</time>
      </trkpt>
      <trkpt lat="45.6584" lon="6.87807">
        <ele>2323.5</ele>
        <time>2016-05-06T13:03:21Z</time>
      </trkpt>
      <trkpt lat="45.6584" lon="6.87807">
        <ele>2323.5</ele>
        <time>2016-05-06T13:03:23Z</time>
      </trkpt>
      <trkpt lat="45.6584" lon="6.87807">
        <ele>2323.7</ele>
        <time>2016-05-06T13:03:25Z</time>
      </trkpt>
      <trkpt lat="45.6584" lon="6.87806">
        <ele>2323.7</ele>
        <time>2016-05-06T13:03:27Z</time>
      </trkpt>
      <trkpt lat="45.6584" lon="6.87805">
        <ele>2323.5</ele>
        <time>2016-05-06T13:03:29Z</time>
      </trkpt>
      <trkpt lat="45.6584" lon="6.87803">
        <ele>2323.7</ele>
        <time>2016-05-06T13:03:31Z</time>
      </trkpt>
      <trkpt lat="45.6584" lon="6.87803">
        <ele>2323.9</ele>
        <time>2016-05-06T13:03:33Z</time>
      </trkpt>
      <trkpt lat="45.65841" lon="6.87801">
        <ele>2323.9</ele>
        <time>2016-05-06T13:03:35Z</time>
      </trkpt>
      <trkpt lat="45.65841" lon="6.878">
        <ele>2324.3</ele>
        <time>2016-05-06T13:03:37Z</time>
      </trkpt>
      <trkpt lat="45.65841" lon="6.87798">
        <ele>2324.6</ele>
        <time>2016-05-06T13:03:39Z</time>
      </trkpt>
      <trkpt lat="45.65841" lon="6.87798">
        <ele>2324.8</ele>
        <time>2016-05-06T13:03:41Z</time>
      </trkpt>
      <trkpt lat="45.65841" lon="6.87797">
        <ele>2325.1</ele>
        <time>2016-05-06T13:03:43Z</time>
      </trkpt>
      <trkpt lat="45.65841" lon="6.87796">
        <ele>2325.3</ele>
        <time>2016-05-06T13:03:45Z</time>
      </trkpt>
      <trkpt lat="45.65842" lon="6.87795">
        <ele>2325.7</ele>
        <time>2016-05-06T13:03:47Z</time>
      </trkpt>
      <trkpt lat="45.65841" lon="6.87794">
        <ele>2325.9</ele>
        <time>2016-05-06T13:03:49Z</time>
      </trkpt>
      <trkpt lat="45.65841" lon="6.87792">
        <ele>2326.1</ele>
        <time>2016-05-06T13:03:51Z</time>
      </trkpt>
      <trkpt lat="45.65841" lon="6.87791">
        <ele>2326.4</ele>
        <time>2016-05-06T13:03:53Z</time>
      </trkpt>
      <trkpt lat="45.65841" lon="6.8779">
        <ele>2326.7</ele>
        <time>2016-05-06T13:03:55Z</time>
      </trkpt>
      <trkpt lat="45.6584" lon="6.87788">
        <ele>2327.1</ele>
        <time>2016-05-06T13:03:57Z</time>
      </trkpt>
      <trkpt lat="45.6584" lon="6.87786">
        <ele>2327.4</ele>
        <time>2016-05-06T13:03:59Z</time>
      </trkpt>
      <trkpt lat="45.6584" lon="6.87785">
        <ele>2327.6</ele>
        <time>2016-05-06T13:04:01Z</time>
      </trkpt>
      <trkpt lat="45.6584" lon="6.87783">
        <ele>2327.9</ele>
        <time>2016-05-06T13:04:03Z</time>
      </trkpt>
      <trkpt lat="45.6584" lon="6.87782">
        <ele>2328.1</ele>
        <time>2016-05-06T13:04:05Z</time>
      </trkpt>
      <trkpt lat="45.6584" lon="6.87781">
        <ele>2328.5</ele>
        <time>2016-05-06T13:04:07Z</time>
      </trkpt>
      <trkpt lat="45.65839" lon="6.87779">
        <ele>2329</ele>
        <time>2016-05-06T13:04:09Z</time>
      </trkpt>
      <trkpt lat="45.65839" lon="6.87777">
        <ele>2329.4</ele>
        <time>2016-05-06T13:04:11Z</time>
      </trkpt>
      <trkpt lat="45.65839" lon="6.87776">
        <ele>2329.6</ele>
        <time>2016-05-06T13:04:13Z</time>
      </trkpt>
      <trkpt lat="45.65839" lon="6.87774">
        <ele>2329.8</ele>
        <time>2016-05-06T13:04:15Z</time>
      </trkpt>
      <trkpt lat="45.65839" lon="6.87773">
        <ele>2330.2</ele>
        <time>2016-05-06T13:04:17Z</time>
      </trkpt>
      <trkpt lat="45.65839" lon="6.87773">
        <ele>2330.5</ele>
        <time>2016-05-06T13:04:19Z</time>
      </trkpt>
      <trkpt lat="45.65838" lon="6.87773">
        <ele>2330.7</ele>
        <time>2016-05-06T13:04:21Z</time>
      </trkpt>
      <trkpt lat="45.65837" lon="6.87773">
        <ele>2330.6</ele>
        <time>2016-05-06T13:04:23Z</time>
      </trkpt>
      <trkpt lat="45.65837" lon="6.87773">
        <ele>2330.6</ele>
        <time>2016-05-06T13:04:25Z</time>
      </trkpt>
      <trkpt lat="45.65836" lon="6.87772">
        <ele>2330.8</ele>
        <time>2016-05-06T13:04:27Z</time>
      </trkpt>
      <trkpt lat="45.65836" lon="6.87772">
        <ele>2330.8</ele>
        <time>2016-05-06T13:04:29Z</time>
      </trkpt>
      <trkpt lat="45.65836" lon="6.87772">
        <ele>2330.9</ele>
        <time>2016-05-06T13:04:31Z</time>
      </trkpt>
      <trkpt lat="45.65836" lon="6.87772">
        <ele>2331</ele>
        <time>2016-05-06T13:04:33Z</time>
      </trkpt>
      <trkpt lat="45.65835" lon="6.87772">
        <ele>2331</ele>
        <time>2016-05-06T13:04:35Z</time>
      </trkpt>
      <trkpt lat="45.65834" lon="6.87771">
        <ele>2331.1</ele>
        <time>2016-05-06T13:04:37Z</time>
      </trkpt>
      <trkpt lat="45.65833" lon="6.87771">
        <ele>2331.1</ele>
        <time>2016-05-06T13:04:39Z</time>
      </trkpt>
      <trkpt lat="45.65832" lon="6.87771">
        <ele>2331.1</ele>
        <time>2016-05-06T13:04:41Z</time>
      </trkpt>
      <trkpt lat="45.65831" lon="6.8777">
        <ele>2331.2</ele>
        <time>2016-05-06T13:04:43Z</time>
      </trkpt>
      <trkpt lat="45.65832" lon="6.8777">
        <ele>2331.4</ele>
        <time>2016-05-06T13:04:45Z</time>
      </trkpt>
      <trkpt lat="45.65833" lon="6.8777">
        <ele>2331.6</ele>
        <time>2016-05-06T13:04:47Z</time>
      </trkpt>
      <trkpt lat="45.65834" lon="6.87769">
        <ele>2331.3</ele>
        <time>2016-05-06T13:04:49Z</time>
      </trkpt>
      <trkpt lat="45.65835" lon="6.87768">
        <ele>2331.4</ele>
        <time>2016-05-06T13:04:51Z</time>
      </trkpt>
      <trkpt lat="45.65836" lon="6.87767">
        <ele>2331.1</ele>
        <time>2016-05-06T13:04:53Z</time>
      </trkpt>
      <trkpt lat="45.65836" lon="6.87766">
        <ele>2331.1</ele>
        <time>2016-05-06T13:04:55Z</time>
      </trkpt>
      <trkpt lat="45.65837" lon="6.87764">
        <ele>2331.5</ele>
        <time>2016-05-06T13:04:57Z</time>
      </trkpt>
      <trkpt lat="45.65837" lon="6.87762">
        <ele>2331.8</ele>
        <time>2016-05-06T13:04:59Z</time>
      </trkpt>
      <trkpt lat="45.65836" lon="6.87762">
        <ele>2332</ele>
        <time>2016-05-06T13:05:01Z</time>
      </trkpt>
      <trkpt lat="45.65835" lon="6.87761">
        <ele>2332.4</ele>
        <time>2016-05-06T13:05:03Z</time>
      </trkpt>
      <trkpt lat="45.65835" lon="6.8776">
        <ele>2332.6</ele>
        <time>2016-05-06T13:05:05Z</time>
      </trkpt>
      <trkpt lat="45.65835" lon="6.87758">
        <ele>2332.9</ele>
        <time>2016-05-06T13:05:07Z</time>
      </trkpt>
      <trkpt lat="45.65834" lon="6.87757">
        <ele>2333.3</ele>
        <time>2016-05-06T13:05:09Z</time>
      </trkpt>
      <trkpt lat="45.65834" lon="6.87757">
        <ele>2333.5</ele>
        <time>2016-05-06T13:05:11Z</time>
      </trkpt>
      <trkpt lat="45.65834" lon="6.87755">
        <ele>2333.9</ele>
        <time>2016-05-06T13:05:13Z</time>
      </trkpt>
      <trkpt lat="45.65833" lon="6.87754">
        <ele>2334.2</ele>
        <time>2016-05-06T13:05:15Z</time>
      </trkpt>
      <trkpt lat="45.65833" lon="6.87752">
        <ele>2334.4</ele>
        <time>2016-05-06T13:05:17Z</time>
      </trkpt>
      <trkpt lat="45.65833" lon="6.87749">
        <ele>2334.5</ele>
        <time>2016-05-06T13:05:19Z</time>
      </trkpt>
      <trkpt lat="45.65833" lon="6.87748">
        <ele>2334.9</ele>
        <time>2016-05-06T13:05:21Z</time>
      </trkpt>
      <trkpt lat="45.65834" lon="6.87748">
        <ele>2335.2</ele>
        <time>2016-05-06T13:05:23Z</time>
      </trkpt>
      <trkpt lat="45.65834" lon="6.87748">
        <ele>2335.5</ele>
        <time>2016-05-06T13:05:25Z</time>
      </trkpt>
      <trkpt lat="45.65834" lon="6.87747">
        <ele>2335.5</ele>
        <time>2016-05-06T13:05:27Z</time>
      </trkpt>
      <trkpt lat="45.65833" lon="6.87745">
        <ele>2335.3</ele>
        <time>2016-05-06T13:05:29Z</time>
      </trkpt>
      <trkpt lat="45.65833" lon="6.87745">
        <ele>2335.3</ele>
        <time>2016-05-06T13:05:31Z</time>
      </trkpt>
      <trkpt lat="45.65832" lon="6.87745">
        <ele>2335.4</ele>
        <time>2016-05-06T13:05:33Z</time>
      </trkpt>
      <trkpt lat="45.65833" lon="6.87746">
        <ele>2335.6</ele>
        <time>2016-05-06T13:05:35Z</time>
      </trkpt>
      <trkpt lat="45.65833" lon="6.87745">
        <ele>2335</ele>
        <time>2016-05-06T13:05:38Z</time>
      </trkpt>
      <trkpt lat="45.65832" lon="6.87745">
        <ele>2335.8</ele>
        <time>2016-05-06T13:05:41Z</time>
      </trkpt>
      <trkpt lat="45.65832" lon="6.87745">
        <ele>2335.8</ele>
        <time>2016-05-06T13:05:43Z</time>
      </trkpt>
      <trkpt lat="45.65833" lon="6.87745">
        <ele>2335.9</ele>
        <time>2016-05-06T13:05:45Z</time>
      </trkpt>
      <trkpt lat="45.65833" lon="6.87745">
        <ele>2335.8</ele>
        <time>2016-05-06T13:05:47Z</time>
      </trkpt>
      <trkpt lat="45.65834" lon="6.87744">
        <ele>2335.8</ele>
        <time>2016-05-06T13:05:49Z</time>
      </trkpt>
      <trkpt lat="45.65834" lon="6.87744">
        <ele>2335.8</ele>
        <time>2016-05-06T13:05:51Z</time>
      </trkpt>
      <trkpt lat="45.65833" lon="6.87743">
        <ele>2335.7</ele>
        <time>2016-05-06T13:05:53Z</time>
      </trkpt>
      <trkpt lat="45.65833" lon="6.87742">
        <ele>2335.9</ele>
        <time>2016-05-06T13:05:55Z</time>
      </trkpt>
      <trkpt lat="45.65833" lon="6.87742">
        <ele>2336.2</ele>
        <time>2016-05-06T13:05:57Z</time>
      </trkpt>
      <trkpt lat="45.65833" lon="6.87741">
        <ele>2336.3</ele>
        <time>2016-05-06T13:05:59Z</time>
      </trkpt>
      <trkpt lat="45.65833" lon="6.87739">
        <ele>2336.3</ele>
        <time>2016-05-06T13:06:01Z</time>
      </trkpt>
      <trkpt lat="45.65833" lon="6.87739">
        <ele>2336.4</ele>
        <time>2016-05-06T13:06:03Z</time>
      </trkpt>
      <trkpt lat="45.65833" lon="6.87738">
        <ele>2336.7</ele>
        <time>2016-05-06T13:06:05Z</time>
      </trkpt>
      <trkpt lat="45.65832" lon="6.87738">
        <ele>2336.8</ele>
        <time>2016-05-06T13:06:07Z</time>
      </trkpt>
      <trkpt lat="45.65832" lon="6.87736">
        <ele>2337</ele>
        <time>2016-05-06T13:06:09Z</time>
      </trkpt>
      <trkpt lat="45.65832" lon="6.87736">
        <ele>2337.2</ele>
        <time>2016-05-06T13:06:11Z</time>
      </trkpt>
      <trkpt lat="45.65832" lon="6.87735">
        <ele>2337.5</ele>
        <time>2016-05-06T13:06:13Z</time>
      </trkpt>
      <trkpt lat="45.65831" lon="6.87734">
        <ele>2337.8</ele>
        <time>2016-05-06T13:06:15Z</time>
      </trkpt>
      <trkpt lat="45.65832" lon="6.87732">
        <ele>2338.1</ele>
        <time>2016-05-06T13:06:17Z</time>
      </trkpt>
      <trkpt lat="45.65831" lon="6.87731">
        <ele>2338.4</ele>
        <time>2016-05-06T13:06:19Z</time>
      </trkpt>
      <trkpt lat="45.65831" lon="6.8773">
        <ele>2338.8</ele>
        <time>2016-05-06T13:06:21Z</time>
      </trkpt>
      <trkpt lat="45.65831" lon="6.87729">
        <ele>2339.1</ele>
        <time>2016-05-06T13:06:23Z</time>
      </trkpt>
      <trkpt lat="45.65831" lon="6.87728">
        <ele>2339.4</ele>
        <time>2016-05-06T13:06:25Z</time>
      </trkpt>
      <trkpt lat="45.65831" lon="6.87727">
        <ele>2339.7</ele>
        <time>2016-05-06T13:06:27Z</time>
      </trkpt>
      <trkpt lat="45.65831" lon="6.87725">
        <ele>2339.9</ele>
        <time>2016-05-06T13:06:29Z</time>
      </trkpt>
      <trkpt lat="45.6583" lon="6.87724">
        <ele>2340.2</ele>
        <time>2016-05-06T13:06:31Z</time>
      </trkpt>
      <trkpt lat="45.65829" lon="6.87724">
        <ele>2340.4</ele>
        <time>2016-05-06T13:06:33Z</time>
      </trkpt>
      <trkpt lat="45.65829" lon="6.87725">
        <ele>2340.2</ele>
        <time>2016-05-06T13:06:35Z</time>
      </trkpt>
      <trkpt lat="45.6583" lon="6.87725">
        <ele>2340.4</ele>
        <time>2016-05-06T13:06:37Z</time>
      </trkpt>
      <trkpt lat="45.6583" lon="6.87725">
        <ele>2340.5</ele>
        <time>2016-05-06T13:06:39Z</time>
      </trkpt>
      <trkpt lat="45.6583" lon="6.87726">
        <ele>2340.5</ele>
        <time>2016-05-06T13:06:41Z</time>
      </trkpt>
      <trkpt lat="45.6583" lon="6.87726">
        <ele>2340.7</ele>
        <time>2016-05-06T13:06:43Z</time>
      </trkpt>
      <trkpt lat="45.65829" lon="6.87726">
        <ele>2340.7</ele>
        <time>2016-05-06T13:06:45Z</time>
      </trkpt>
      <trkpt lat="45.65829" lon="6.87726">
        <ele>2340.7</ele>
        <time>2016-05-06T13:06:47Z</time>
      </trkpt>
      <trkpt lat="45.65828" lon="6.87726">
        <ele>2340.8</ele>
        <time>2016-05-06T13:06:49Z</time>
      </trkpt>
      <trkpt lat="45.65827" lon="6.87727">
        <ele>2340.8</ele>
        <time>2016-05-06T13:06:51Z</time>
      </trkpt>
      <trkpt lat="45.65826" lon="6.87727">
        <ele>2340.9</ele>
        <time>2016-05-06T13:06:53Z</time>
      </trkpt>
      <trkpt lat="45.65826" lon="6.87728">
        <ele>2341.1</ele>
        <time>2016-05-06T13:06:55Z</time>
      </trkpt>
      <trkpt lat="45.65825" lon="6.87728">
        <ele>2341.1</ele>
        <time>2016-05-06T13:06:57Z</time>
      </trkpt>
      <trkpt lat="45.65828" lon="6.87726">
        <ele>2341.5</ele>
        <time>2016-05-06T13:06:59Z</time>
      </trkpt>
      <trkpt lat="45.65825" lon="6.87725">
        <ele>2341</ele>
        <time>2016-05-06T13:07:02Z</time>
      </trkpt>
      <trkpt lat="45.65825" lon="6.87723">
        <ele>2341</ele>
        <time>2016-05-06T13:07:06Z</time>
      </trkpt>
      <trkpt lat="45.65826" lon="6.87721">
        <ele>2341.3</ele>
        <time>2016-05-06T13:07:09Z</time>
      </trkpt>
      <trkpt lat="45.65826" lon="6.8772">
        <ele>2341.5</ele>
        <time>2016-05-06T13:07:11Z</time>
      </trkpt>
      <trkpt lat="45.65825" lon="6.87718">
        <ele>2341.5</ele>
        <time>2016-05-06T13:07:13Z</time>
      </trkpt>
      <trkpt lat="45.65825" lon="6.87717">
        <ele>2341.7</ele>
        <time>2016-05-06T13:07:15Z</time>
      </trkpt>
      <trkpt lat="45.65825" lon="6.87715">
        <ele>2341</ele>
        <time>2016-05-06T13:07:18Z</time>
      </trkpt>
      <trkpt lat="45.65826" lon="6.87713">
        <ele>2342.3</ele>
        <time>2016-05-06T13:07:21Z</time>
      </trkpt>
      <trkpt lat="45.65826" lon="6.87712">
        <ele>2342.7</ele>
        <time>2016-05-06T13:07:23Z</time>
      </trkpt>
      <trkpt lat="45.65825" lon="6.8771">
        <ele>2343</ele>
        <time>2016-05-06T13:07:26Z</time>
      </trkpt>
      <trkpt lat="45.65824" lon="6.87709">
        <ele>2343.4</ele>
        <time>2016-05-06T13:07:29Z</time>
      </trkpt>
      <trkpt lat="45.65823" lon="6.87707">
        <ele>2343</ele>
        <time>2016-05-06T13:07:32Z</time>
      </trkpt>
      <trkpt lat="45.65822" lon="6.87706">
        <ele>2344.2</ele>
        <time>2016-05-06T13:07:35Z</time>
      </trkpt>
      <trkpt lat="45.65822" lon="6.87704">
        <ele>2344.5</ele>
        <time>2016-05-06T13:07:37Z</time>
      </trkpt>
      <trkpt lat="45.65821" lon="6.87703">
        <ele>2344</ele>
        <time>2016-05-06T13:07:39Z</time>
      </trkpt>
      <trkpt lat="45.65821" lon="6.87702">
        <ele>2345.1</ele>
        <time>2016-05-06T13:07:42Z</time>
      </trkpt>
      <trkpt lat="45.6582" lon="6.87701">
        <ele>2345</ele>
        <time>2016-05-06T13:07:44Z</time>
      </trkpt>
      <trkpt lat="45.6582" lon="6.877">
        <ele>2345.7</ele>
        <time>2016-05-06T13:07:47Z</time>
      </trkpt>
      <trkpt lat="45.65821" lon="6.87699">
        <ele>2346</ele>
        <time>2016-05-06T13:07:49Z</time>
      </trkpt>
      <trkpt lat="45.65821" lon="6.87698">
        <ele>2346.1</ele>
        <time>2016-05-06T13:07:51Z</time>
      </trkpt>
      <trkpt lat="45.65821" lon="6.87698">
        <ele>2346.2</ele>
        <time>2016-05-06T13:07:53Z</time>
      </trkpt>
      <trkpt lat="45.65821" lon="6.87698">
        <ele>2346.3</ele>
        <time>2016-05-06T13:07:55Z</time>
      </trkpt>
      <trkpt lat="45.65821" lon="6.87698">
        <ele>2346.3</ele>
        <time>2016-05-06T13:07:57Z</time>
      </trkpt>
      <trkpt lat="45.65821" lon="6.87698">
        <ele>2345.6</ele>
        <time>2016-05-06T13:07:59Z</time>
      </trkpt>
      <trkpt lat="45.65821" lon="6.87698">
        <ele>2345.8</ele>
        <time>2016-05-06T13:08:01Z</time>
      </trkpt>
      <trkpt lat="45.6582" lon="6.87698">
        <ele>2346</ele>
        <time>2016-05-06T13:08:03Z</time>
      </trkpt>
      <trkpt lat="45.6582" lon="6.87699">
        <ele>2346.1</ele>
        <time>2016-05-06T13:08:05Z</time>
      </trkpt>
      <trkpt lat="45.6582" lon="6.87699">
        <ele>2346.3</ele>
        <time>2016-05-06T13:08:07Z</time>
      </trkpt>
      <trkpt lat="45.65819" lon="6.87699">
        <ele>2346.2</ele>
        <time>2016-05-06T13:08:09Z</time>
      </trkpt>
      <trkpt lat="45.65819" lon="6.87699">
        <ele>2346.2</ele>
        <time>2016-05-06T13:08:11Z</time>
      </trkpt>
      <trkpt lat="45.65818" lon="6.87699">
        <ele>2346.3</ele>
        <time>2016-05-06T13:08:13Z</time>
      </trkpt>
      <trkpt lat="45.65818" lon="6.87699">
        <ele>2346.2</ele>
        <time>2016-05-06T13:08:15Z</time>
      </trkpt>
      <trkpt lat="45.65818" lon="6.87699">
        <ele>2346.2</ele>
        <time>2016-05-06T13:08:17Z</time>
      </trkpt>
      <trkpt lat="45.65817" lon="6.877">
        <ele>2346.3</ele>
        <time>2016-05-06T13:08:19Z</time>
      </trkpt>
      <trkpt lat="45.65817" lon="6.877">
        <ele>2346.3</ele>
        <time>2016-05-06T13:08:21Z</time>
      </trkpt>
      <trkpt lat="45.65816" lon="6.877">
        <ele>2346.3</ele>
        <time>2016-05-06T13:08:23Z</time>
      </trkpt>
      <trkpt lat="45.65816" lon="6.87701">
        <ele>2346.2</ele>
        <time>2016-05-06T13:08:25Z</time>
      </trkpt>
      <trkpt lat="45.65816" lon="6.87702">
        <ele>2347.1</ele>
        <time>2016-05-06T13:08:27Z</time>
      </trkpt>
      <trkpt lat="45.65815" lon="6.87701">
        <ele>2346.9</ele>
        <time>2016-05-06T13:08:29Z</time>
      </trkpt>
      <trkpt lat="45.65813" lon="6.87699">
        <ele>2346.8</ele>
        <time>2016-05-06T13:08:31Z</time>
      </trkpt>
      <trkpt lat="45.65812" lon="6.87697">
        <ele>2346.8</ele>
        <time>2016-05-06T13:08:33Z</time>
      </trkpt>
      <trkpt lat="45.65811" lon="6.87696">
        <ele>2346.8</ele>
        <time>2016-05-06T13:08:35Z</time>
      </trkpt>
      <trkpt lat="45.65811" lon="6.87695">
        <ele>2347.3</ele>
        <time>2016-05-06T13:08:37Z</time>
      </trkpt>
      <trkpt lat="45.65811" lon="6.87694">
        <ele>2347.5</ele>
        <time>2016-05-06T13:08:39Z</time>
      </trkpt>
      <trkpt lat="45.65811" lon="6.87692">
        <ele>2347.8</ele>
        <time>2016-05-06T13:08:41Z</time>
      </trkpt>
      <trkpt lat="45.65811" lon="6.87691">
        <ele>2348.2</ele>
        <time>2016-05-06T13:08:43Z</time>
      </trkpt>
      <trkpt lat="45.65811" lon="6.8769">
        <ele>2348.6</ele>
        <time>2016-05-06T13:08:45Z</time>
      </trkpt>
      <trkpt lat="45.6581" lon="6.87689">
        <ele>2348.8</ele>
        <time>2016-05-06T13:08:47Z</time>
      </trkpt>
      <trkpt lat="45.65809" lon="6.87688">
        <ele>2349.2</ele>
        <time>2016-05-06T13:08:49Z</time>
      </trkpt>
      <trkpt lat="45.65808" lon="6.87687">
        <ele>2349.6</ele>
        <time>2016-05-06T13:08:51Z</time>
      </trkpt>
      <trkpt lat="45.65808" lon="6.87686">
        <ele>2350.1</ele>
        <time>2016-05-06T13:08:53Z</time>
      </trkpt>
      <trkpt lat="45.65808" lon="6.87685">
        <ele>2350.4</ele>
        <time>2016-05-06T13:08:55Z</time>
      </trkpt>
      <trkpt lat="45.65807" lon="6.87685">
        <ele>2351</ele>
        <time>2016-05-06T13:08:57Z</time>
      </trkpt>
      <trkpt lat="45.65807" lon="6.87684">
        <ele>2351.5</ele>
        <time>2016-05-06T13:08:59Z</time>
      </trkpt>
      <trkpt lat="45.65807" lon="6.87683">
        <ele>2351.8</ele>
        <time>2016-05-06T13:09:01Z</time>
      </trkpt>
      <trkpt lat="45.65806" lon="6.87682">
        <ele>2352.2</ele>
        <time>2016-05-06T13:09:03Z</time>
      </trkpt>
      <trkpt lat="45.65806" lon="6.87681">
        <ele>2352.4</ele>
        <time>2016-05-06T13:09:05Z</time>
      </trkpt>
      <trkpt lat="45.65806" lon="6.87681">
        <ele>2352.9</ele>
        <time>2016-05-06T13:09:07Z</time>
      </trkpt>
      <trkpt lat="45.65804" lon="6.8768">
        <ele>2353.3</ele>
        <time>2016-05-06T13:09:09Z</time>
      </trkpt>
      <trkpt lat="45.65804" lon="6.8768">
        <ele>2353.6</ele>
        <time>2016-05-06T13:09:11Z</time>
      </trkpt>
      <trkpt lat="45.65804" lon="6.87681">
        <ele>2353.9</ele>
        <time>2016-05-06T13:09:13Z</time>
      </trkpt>
      <trkpt lat="45.65803" lon="6.87681">
        <ele>2354.2</ele>
        <time>2016-05-06T13:09:15Z</time>
      </trkpt>
      <trkpt lat="45.65802" lon="6.87682">
        <ele>2354.2</ele>
        <time>2016-05-06T13:09:17Z</time>
      </trkpt>
      <trkpt lat="45.65801" lon="6.87681">
        <ele>2354.4</ele>
        <time>2016-05-06T13:09:19Z</time>
      </trkpt>
      <trkpt lat="45.658" lon="6.87681">
        <ele>2354.6</ele>
        <time>2016-05-06T13:09:21Z</time>
      </trkpt>
      <trkpt lat="45.65798" lon="6.87681">
        <ele>2354.7</ele>
        <time>2016-05-06T13:09:23Z</time>
      </trkpt>
      <trkpt lat="45.65796" lon="6.8768">
        <ele>2354.7</ele>
        <time>2016-05-06T13:09:25Z</time>
      </trkpt>
      <trkpt lat="45.65796" lon="6.87681">
        <ele>2354.7</ele>
        <time>2016-05-06T13:09:27Z</time>
      </trkpt>
      <trkpt lat="45.65796" lon="6.87681">
        <ele>2354.7</ele>
        <time>2016-05-06T13:09:29Z</time>
      </trkpt>
      <trkpt lat="45.65796" lon="6.87682">
        <ele>2354.7</ele>
        <time>2016-05-06T13:09:31Z</time>
      </trkpt>
      <trkpt lat="45.65797" lon="6.87682">
        <ele>2354.7</ele>
        <time>2016-05-06T13:09:33Z</time>
      </trkpt>
      <trkpt lat="45.65797" lon="6.87683">
        <ele>2354.7</ele>
        <time>2016-05-06T13:09:35Z</time>
      </trkpt>
      <trkpt lat="45.65798" lon="6.87683">
        <ele>2354.7</ele>
        <time>2016-05-06T13:09:37Z</time>
      </trkpt>
      <trkpt lat="45.65797" lon="6.87683">
        <ele>2354.7</ele>
        <time>2016-05-06T13:09:39Z</time>
      </trkpt>
      <trkpt lat="45.65797" lon="6.87683">
        <ele>2354.8</ele>
        <time>2016-05-06T13:09:41Z</time>
      </trkpt>
      <trkpt lat="45.65798" lon="6.87684">
        <ele>2354.8</ele>
        <time>2016-05-06T13:09:43Z</time>
      </trkpt>
      <trkpt lat="45.65798" lon="6.87685">
        <ele>2354.9</ele>
        <time>2016-05-06T13:09:45Z</time>
      </trkpt>
      <trkpt lat="45.65799" lon="6.87686">
        <ele>2354.9</ele>
        <time>2016-05-06T13:09:47Z</time>
      </trkpt>
      <trkpt lat="45.65799" lon="6.87687">
        <ele>2355</ele>
        <time>2016-05-06T13:09:49Z</time>
      </trkpt>
      <trkpt lat="45.65799" lon="6.87687">
        <ele>2355.1</ele>
        <time>2016-05-06T13:09:51Z</time>
      </trkpt>
      <trkpt lat="45.65799" lon="6.87687">
        <ele>2355.2</ele>
        <time>2016-05-06T13:09:53Z</time>
      </trkpt>
      <trkpt lat="45.65799" lon="6.87686">
        <ele>2355.1</ele>
        <time>2016-05-06T13:09:55Z</time>
      </trkpt>
      <trkpt lat="45.65798" lon="6.87686">
        <ele>2355.1</ele>
        <time>2016-05-06T13:09:57Z</time>
      </trkpt>
      <trkpt lat="45.65798" lon="6.87686">
        <ele>2355</ele>
        <time>2016-05-06T13:09:59Z</time>
      </trkpt>
      <trkpt lat="45.65801" lon="6.87687">
        <ele>2355.1</ele>
        <time>2016-05-06T13:10:01Z</time>
      </trkpt>
      <trkpt lat="45.65801" lon="6.87688">
        <ele>2355.2</ele>
        <time>2016-05-06T13:10:03Z</time>
      </trkpt>
      <trkpt lat="45.65802" lon="6.87689">
        <ele>2355.3</ele>
        <time>2016-05-06T13:10:05Z</time>
      </trkpt>
      <trkpt lat="45.65801" lon="6.8769">
        <ele>2355.3</ele>
        <time>2016-05-06T13:10:07Z</time>
      </trkpt>
      <trkpt lat="45.658" lon="6.87692">
        <ele>2355.5</ele>
        <time>2016-05-06T13:10:09Z</time>
      </trkpt>
      <trkpt lat="45.658" lon="6.87692">
        <ele>2355.6</ele>
        <time>2016-05-06T13:10:11Z</time>
      </trkpt>
      <trkpt lat="45.65799" lon="6.87693">
        <ele>2355.9</ele>
        <time>2016-05-06T13:10:13Z</time>
      </trkpt>
      <trkpt lat="45.65799" lon="6.87695">
        <ele>2356.1</ele>
        <time>2016-05-06T13:10:15Z</time>
      </trkpt>
      <trkpt lat="45.658" lon="6.87696">
        <ele>2356.2</ele>
        <time>2016-05-06T13:10:17Z</time>
      </trkpt>
      <trkpt lat="45.658" lon="6.87698">
        <ele>2356.3</ele>
        <time>2016-05-06T13:10:19Z</time>
      </trkpt>
      <trkpt lat="45.658" lon="6.877">
        <ele>2356.5</ele>
        <time>2016-05-06T13:10:21Z</time>
      </trkpt>
      <trkpt lat="45.65799" lon="6.87702">
        <ele>2356.6</ele>
        <time>2016-05-06T13:10:23Z</time>
      </trkpt>
      <trkpt lat="45.65799" lon="6.87703">
        <ele>2357</ele>
        <time>2016-05-06T13:10:25Z</time>
      </trkpt>
      <trkpt lat="45.65799" lon="6.87705">
        <ele>2357.4</ele>
        <time>2016-05-06T13:10:27Z</time>
      </trkpt>
      <trkpt lat="45.65799" lon="6.87706">
        <ele>2357.6</ele>
        <time>2016-05-06T13:10:29Z</time>
      </trkpt>
      <trkpt lat="45.65799" lon="6.87707">
        <ele>2357.9</ele>
        <time>2016-05-06T13:10:31Z</time>
      </trkpt>
      <trkpt lat="45.65799" lon="6.87709">
        <ele>2358.2</ele>
        <time>2016-05-06T13:10:33Z</time>
      </trkpt>
      <trkpt lat="45.65799" lon="6.8771">
        <ele>2358.6</ele>
        <time>2016-05-06T13:10:35Z</time>
      </trkpt>
      <trkpt lat="45.65799" lon="6.87712">
        <ele>2359.1</ele>
        <time>2016-05-06T13:10:37Z</time>
      </trkpt>
      <trkpt lat="45.65799" lon="6.87714">
        <ele>2359.6</ele>
        <time>2016-05-06T13:10:39Z</time>
      </trkpt>
      <trkpt lat="45.65798" lon="6.87716">
        <ele>2360.1</ele>
        <time>2016-05-06T13:10:41Z</time>
      </trkpt>
      <trkpt lat="45.65798" lon="6.87718">
        <ele>2360.3</ele>
        <time>2016-05-06T13:10:43Z</time>
      </trkpt>
      <trkpt lat="45.65798" lon="6.8772">
        <ele>2360.5</ele>
        <time>2016-05-06T13:10:45Z</time>
      </trkpt>
      <trkpt lat="45.65798" lon="6.87721">
        <ele>2360.7</ele>
        <time>2016-05-06T13:10:47Z</time>
      </trkpt>
      <trkpt lat="45.65798" lon="6.87722">
        <ele>2360.9</ele>
        <time>2016-05-06T13:10:49Z</time>
      </trkpt>
      <trkpt lat="45.65798" lon="6.87724">
        <ele>2361.1</ele>
        <time>2016-05-06T13:10:51Z</time>
      </trkpt>
      <trkpt lat="45.65797" lon="6.87725">
        <ele>2361.3</ele>
        <time>2016-05-06T13:10:53Z</time>
      </trkpt>
      <trkpt lat="45.65797" lon="6.87726">
        <ele>2361.5</ele>
        <time>2016-05-06T13:10:55Z</time>
      </trkpt>
      <trkpt lat="45.65797" lon="6.87727">
        <ele>2361.7</ele>
        <time>2016-05-06T13:10:57Z</time>
      </trkpt>
      <trkpt lat="45.65797" lon="6.87728">
        <ele>2361.8</ele>
        <time>2016-05-06T13:10:59Z</time>
      </trkpt>
      <trkpt lat="45.65796" lon="6.87729">
        <ele>2362</ele>
        <time>2016-05-06T13:11:01Z</time>
      </trkpt>
      <trkpt lat="45.65796" lon="6.87731">
        <ele>2362.3</ele>
        <time>2016-05-06T13:11:03Z</time>
      </trkpt>
      <trkpt lat="45.65796" lon="6.87731">
        <ele>2362.6</ele>
        <time>2016-05-06T13:11:05Z</time>
      </trkpt>
      <trkpt lat="45.65796" lon="6.87733">
        <ele>2362.8</ele>
        <time>2016-05-06T13:11:07Z</time>
      </trkpt>
      <trkpt lat="45.65796" lon="6.87734">
        <ele>2363.1</ele>
        <time>2016-05-06T13:11:09Z</time>
      </trkpt>
      <trkpt lat="45.65796" lon="6.87736">
        <ele>2363.3</ele>
        <time>2016-05-06T13:11:11Z</time>
      </trkpt>
      <trkpt lat="45.65796" lon="6.87737">
        <ele>2363.4</ele>
        <time>2016-05-06T13:11:13Z</time>
      </trkpt>
      <trkpt lat="45.65796" lon="6.87738">
        <ele>2363.6</ele>
        <time>2016-05-06T13:11:15Z</time>
      </trkpt>
      <trkpt lat="45.65797" lon="6.87739">
        <ele>2363.8</ele>
        <time>2016-05-06T13:11:17Z</time>
      </trkpt>
      <trkpt lat="45.65797" lon="6.87739">
        <ele>2364</ele>
        <time>2016-05-06T13:11:19Z</time>
      </trkpt>
      <trkpt lat="45.65797" lon="6.87739">
        <ele>2363.8</ele>
        <time>2016-05-06T13:11:21Z</time>
      </trkpt>
      <trkpt lat="45.65797" lon="6.87739">
        <ele>2363.8</ele>
        <time>2016-05-06T13:11:23Z</time>
      </trkpt>
      <trkpt lat="45.65798" lon="6.87739">
        <ele>2363.8</ele>
        <time>2016-05-06T13:11:25Z</time>
      </trkpt>
      <trkpt lat="45.65798" lon="6.87739">
        <ele>2363.9</ele>
        <time>2016-05-06T13:11:27Z</time>
      </trkpt>
      <trkpt lat="45.65798" lon="6.87739">
        <ele>2363.9</ele>
        <time>2016-05-06T13:11:29Z</time>
      </trkpt>
      <trkpt lat="45.65799" lon="6.87739">
        <ele>2364</ele>
        <time>2016-05-06T13:11:31Z</time>
      </trkpt>
      <trkpt lat="45.65799" lon="6.87738">
        <ele>2364</ele>
        <time>2016-05-06T13:11:33Z</time>
      </trkpt>
      <trkpt lat="45.65799" lon="6.87738">
        <ele>2364.1</ele>
        <time>2016-05-06T13:11:35Z</time>
      </trkpt>
      <trkpt lat="45.658" lon="6.87738">
        <ele>2364</ele>
        <time>2016-05-06T13:11:37Z</time>
      </trkpt>
      <trkpt lat="45.658" lon="6.87738">
        <ele>2364</ele>
        <time>2016-05-06T13:11:39Z</time>
      </trkpt>
      <trkpt lat="45.658" lon="6.87738">
        <ele>2363.9</ele>
        <time>2016-05-06T13:11:41Z</time>
      </trkpt>
      <trkpt lat="45.658" lon="6.87737">
        <ele>2364.1</ele>
        <time>2016-05-06T13:11:43Z</time>
      </trkpt>
      <trkpt lat="45.658" lon="6.87737">
        <ele>2364.1</ele>
        <time>2016-05-06T13:11:45Z</time>
      </trkpt>
      <trkpt lat="45.658" lon="6.87736">
        <ele>2364.2</ele>
        <time>2016-05-06T13:11:47Z</time>
      </trkpt>
      <trkpt lat="45.658" lon="6.87736">
        <ele>2364.2</ele>
        <time>2016-05-06T13:11:49Z</time>
      </trkpt>
      <trkpt lat="45.658" lon="6.87735">
        <ele>2364.2</ele>
        <time>2016-05-06T13:11:51Z</time>
      </trkpt>
      <trkpt lat="45.658" lon="6.87735">
        <ele>2364.2</ele>
        <time>2016-05-06T13:11:53Z</time>
      </trkpt>
      <trkpt lat="45.658" lon="6.87734">
        <ele>2364.1</ele>
        <time>2016-05-06T13:11:55Z</time>
      </trkpt>
      <trkpt lat="45.658" lon="6.87734">
        <ele>2364.5</ele>
        <time>2016-05-06T13:11:57Z</time>
      </trkpt>
      <trkpt lat="45.658" lon="6.87735">
        <ele>2364.5</ele>
        <time>2016-05-06T13:11:59Z</time>
      </trkpt>
      <trkpt lat="45.658" lon="6.87735">
        <ele>2364.5</ele>
        <time>2016-05-06T13:12:01Z</time>
      </trkpt>
      <trkpt lat="45.658" lon="6.87736">
        <ele>2364.5</ele>
        <time>2016-05-06T13:12:03Z</time>
      </trkpt>
      <trkpt lat="45.658" lon="6.87736">
        <ele>2364.4</ele>
        <time>2016-05-06T13:12:05Z</time>
      </trkpt>
      <trkpt lat="45.658" lon="6.87738">
        <ele>2364.6</ele>
        <time>2016-05-06T13:12:07Z</time>
      </trkpt>
      <trkpt lat="45.65798" lon="6.87739">
        <ele>2364.9</ele>
        <time>2016-05-06T13:12:09Z</time>
      </trkpt>
      <trkpt lat="45.65798" lon="6.8774">
        <ele>2365.1</ele>
        <time>2016-05-06T13:12:11Z</time>
      </trkpt>
      <trkpt lat="45.65798" lon="6.87742">
        <ele>2365.3</ele>
        <time>2016-05-06T13:12:13Z</time>
      </trkpt>
      <trkpt lat="45.65797" lon="6.87743">
        <ele>2365.5</ele>
        <time>2016-05-06T13:12:15Z</time>
      </trkpt>
      <trkpt lat="45.65797" lon="6.87744">
        <ele>2365.7</ele>
        <time>2016-05-06T13:12:17Z</time>
      </trkpt>
      <trkpt lat="45.65796" lon="6.87745">
        <ele>2365.8</ele>
        <time>2016-05-06T13:12:19Z</time>
      </trkpt>
      <trkpt lat="45.65797" lon="6.87746">
        <ele>2366.1</ele>
        <time>2016-05-06T13:12:21Z</time>
      </trkpt>
      <trkpt lat="45.65797" lon="6.87749">
        <ele>2366.4</ele>
        <time>2016-05-06T13:12:23Z</time>
      </trkpt>
      <trkpt lat="45.65797" lon="6.8775">
        <ele>2366.6</ele>
        <time>2016-05-06T13:12:25Z</time>
      </trkpt>
      <trkpt lat="45.65797" lon="6.87751">
        <ele>2366.9</ele>
        <time>2016-05-06T13:12:27Z</time>
      </trkpt>
      <trkpt lat="45.65796" lon="6.87753">
        <ele>2367.1</ele>
        <time>2016-05-06T13:12:29Z</time>
      </trkpt>
      <trkpt lat="45.65796" lon="6.87754">
        <ele>2367.4</ele>
        <time>2016-05-06T13:12:31Z</time>
      </trkpt>
      <trkpt lat="45.65795" lon="6.87755">
        <ele>2367.7</ele>
        <time>2016-05-06T13:12:33Z</time>
      </trkpt>
      <trkpt lat="45.65795" lon="6.87757">
        <ele>2367.9</ele>
        <time>2016-05-06T13:12:35Z</time>
      </trkpt>
      <trkpt lat="45.65794" lon="6.87758">
        <ele>2368.1</ele>
        <time>2016-05-06T13:12:37Z</time>
      </trkpt>
      <trkpt lat="45.65793" lon="6.87759">
        <ele>2368.3</ele>
        <time>2016-05-06T13:12:39Z</time>
      </trkpt>
      <trkpt lat="45.65793" lon="6.8776">
        <ele>2368.8</ele>
        <time>2016-05-06T13:12:41Z</time>
      </trkpt>
      <trkpt lat="45.65793" lon="6.87762">
        <ele>2369.1</ele>
        <time>2016-05-06T13:12:43Z</time>
      </trkpt>
      <trkpt lat="45.65792" lon="6.87762">
        <ele>2369.5</ele>
        <time>2016-05-06T13:12:45Z</time>
      </trkpt>
      <trkpt lat="45.65791" lon="6.87762">
        <ele>2369.7</ele>
        <time>2016-05-06T13:12:47Z</time>
      </trkpt>
      <trkpt lat="45.6579" lon="6.87763">
        <ele>2369.7</ele>
        <time>2016-05-06T13:12:49Z</time>
      </trkpt>
      <trkpt lat="45.65789" lon="6.87763">
        <ele>2370.1</ele>
        <time>2016-05-06T13:12:51Z</time>
      </trkpt>
      <trkpt lat="45.65788" lon="6.87764">
        <ele>2370.6</ele>
        <time>2016-05-06T13:12:53Z</time>
      </trkpt>
      <trkpt lat="45.65787" lon="6.87762">
        <ele>2370.8</ele>
        <time>2016-05-06T13:12:55Z</time>
      </trkpt>
      <trkpt lat="45.65786" lon="6.87762">
        <ele>2371</ele>
        <time>2016-05-06T13:12:57Z</time>
      </trkpt>
      <trkpt lat="45.65785" lon="6.87763">
        <ele>2371.3</ele>
        <time>2016-05-06T13:12:59Z</time>
      </trkpt>
      <trkpt lat="45.65784" lon="6.87762">
        <ele>2371.7</ele>
        <time>2016-05-06T13:13:01Z</time>
      </trkpt>
      <trkpt lat="45.65783" lon="6.87762">
        <ele>2371.9</ele>
        <time>2016-05-06T13:13:03Z</time>
      </trkpt>
      <trkpt lat="45.65782" lon="6.87762">
        <ele>2372.2</ele>
        <time>2016-05-06T13:13:05Z</time>
      </trkpt>
      <trkpt lat="45.65781" lon="6.87761">
        <ele>2372.4</ele>
        <time>2016-05-06T13:13:07Z</time>
      </trkpt>
      <trkpt lat="45.6578" lon="6.8776">
        <ele>2372.9</ele>
        <time>2016-05-06T13:13:09Z</time>
      </trkpt>
      <trkpt lat="45.65779" lon="6.87759">
        <ele>2373.1</ele>
        <time>2016-05-06T13:13:11Z</time>
      </trkpt>
      <trkpt lat="45.65778" lon="6.87758">
        <ele>2373.1</ele>
        <time>2016-05-06T13:13:13Z</time>
      </trkpt>
      <trkpt lat="45.65778" lon="6.87759">
        <ele>2373.3</ele>
        <time>2016-05-06T13:13:15Z</time>
      </trkpt>
      <trkpt lat="45.65777" lon="6.87759">
        <ele>2373.4</ele>
        <time>2016-05-06T13:13:17Z</time>
      </trkpt>
      <trkpt lat="45.65777" lon="6.87759">
        <ele>2373.6</ele>
        <time>2016-05-06T13:13:19Z</time>
      </trkpt>
      <trkpt lat="45.65777" lon="6.87759">
        <ele>2373.7</ele>
        <time>2016-05-06T13:13:21Z</time>
      </trkpt>
      <trkpt lat="45.65777" lon="6.87758">
        <ele>2373.8</ele>
        <time>2016-05-06T13:13:23Z</time>
      </trkpt>
      <trkpt lat="45.65776" lon="6.87758">
        <ele>2373.9</ele>
        <time>2016-05-06T13:13:25Z</time>
      </trkpt>
      <trkpt lat="45.65776" lon="6.87757">
        <ele>2374</ele>
        <time>2016-05-06T13:13:27Z</time>
      </trkpt>
      <trkpt lat="45.65776" lon="6.87757">
        <ele>2374.4</ele>
        <time>2016-05-06T13:13:29Z</time>
      </trkpt>
      <trkpt lat="45.65776" lon="6.87757">
        <ele>2373.9</ele>
        <time>2016-05-06T13:13:31Z</time>
      </trkpt>
      <trkpt lat="45.65776" lon="6.87758">
        <ele>2374.2</ele>
        <time>2016-05-06T13:13:33Z</time>
      </trkpt>
      <trkpt lat="45.65775" lon="6.87757">
        <ele>2374.3</ele>
        <time>2016-05-06T13:13:35Z</time>
      </trkpt>
      <trkpt lat="45.65776" lon="6.87757">
        <ele>2374.3</ele>
        <time>2016-05-06T13:13:37Z</time>
      </trkpt>
      <trkpt lat="45.65776" lon="6.87757">
        <ele>2374.1</ele>
        <time>2016-05-06T13:13:39Z</time>
      </trkpt>
      <trkpt lat="45.65776" lon="6.87757">
        <ele>2374.1</ele>
        <time>2016-05-06T13:13:41Z</time>
      </trkpt>
      <trkpt lat="45.65775" lon="6.87756">
        <ele>2374.1</ele>
        <time>2016-05-06T13:13:43Z</time>
      </trkpt>
      <trkpt lat="45.65775" lon="6.87756">
        <ele>2374.1</ele>
        <time>2016-05-06T13:13:45Z</time>
      </trkpt>
      <trkpt lat="45.65776" lon="6.87755">
        <ele>2374</ele>
        <time>2016-05-06T13:13:47Z</time>
      </trkpt>
      <trkpt lat="45.65775" lon="6.87755">
        <ele>2373.8</ele>
        <time>2016-05-06T13:13:49Z</time>
      </trkpt>
      <trkpt lat="45.65775" lon="6.87755">
        <ele>2373.8</ele>
        <time>2016-05-06T13:13:51Z</time>
      </trkpt>
      <trkpt lat="45.65776" lon="6.87755">
        <ele>2373.8</ele>
        <time>2016-05-06T13:13:53Z</time>
      </trkpt>
      <trkpt lat="45.65776" lon="6.87755">
        <ele>2373.9</ele>
        <time>2016-05-06T13:13:55Z</time>
      </trkpt>
      <trkpt lat="45.65776" lon="6.87755">
        <ele>2373.9</ele>
        <time>2016-05-06T13:13:57Z</time>
      </trkpt>
      <trkpt lat="45.65775" lon="6.87755">
        <ele>2374</ele>
        <time>2016-05-06T13:13:59Z</time>
      </trkpt>
      <trkpt lat="45.65774" lon="6.87754">
        <ele>2374.1</ele>
        <time>2016-05-06T13:14:01Z</time>
      </trkpt>
      <trkpt lat="45.65773" lon="6.87754">
        <ele>2373.8</ele>
        <time>2016-05-06T13:14:03Z</time>
      </trkpt>
      <trkpt lat="45.65772" lon="6.87753">
        <ele>2374.2</ele>
        <time>2016-05-06T13:14:05Z</time>
      </trkpt>
      <trkpt lat="45.65771" lon="6.87753">
        <ele>2374.4</ele>
        <time>2016-05-06T13:14:07Z</time>
      </trkpt>
      <trkpt lat="45.65771" lon="6.87752">
        <ele>2374.7</ele>
        <time>2016-05-06T13:14:09Z</time>
      </trkpt>
      <trkpt lat="45.6577" lon="6.87752">
        <ele>2374.7</ele>
        <time>2016-05-06T13:14:11Z</time>
      </trkpt>
      <trkpt lat="45.6577" lon="6.87751">
        <ele>2375</ele>
        <time>2016-05-06T13:14:13Z</time>
      </trkpt>
      <trkpt lat="45.65769" lon="6.87751">
        <ele>2375.3</ele>
        <time>2016-05-06T13:14:15Z</time>
      </trkpt>
      <trkpt lat="45.65768" lon="6.8775">
        <ele>2375.7</ele>
        <time>2016-05-06T13:14:17Z</time>
      </trkpt>
      <trkpt lat="45.65767" lon="6.87749">
        <ele>2375.8</ele>
        <time>2016-05-06T13:14:19Z</time>
      </trkpt>
      <trkpt lat="45.65766" lon="6.87748">
        <ele>2376.2</ele>
        <time>2016-05-06T13:14:21Z</time>
      </trkpt>
      <trkpt lat="45.65765" lon="6.87747">
        <ele>2376.4</ele>
        <time>2016-05-06T13:14:23Z</time>
      </trkpt>
      <trkpt lat="45.65764" lon="6.87746">
        <ele>2376.7</ele>
        <time>2016-05-06T13:14:25Z</time>
      </trkpt>
      <trkpt lat="45.65764" lon="6.87745">
        <ele>2376.9</ele>
        <time>2016-05-06T13:14:27Z</time>
      </trkpt>
      <trkpt lat="45.65763" lon="6.87744">
        <ele>2377.3</ele>
        <time>2016-05-06T13:14:29Z</time>
      </trkpt>
      <trkpt lat="45.65763" lon="6.87743">
        <ele>2377.6</ele>
        <time>2016-05-06T13:14:31Z</time>
      </trkpt>
      <trkpt lat="45.65762" lon="6.87742">
        <ele>2377.7</ele>
        <time>2016-05-06T13:14:33Z</time>
      </trkpt>
      <trkpt lat="45.65762" lon="6.87741">
        <ele>2377.8</ele>
        <time>2016-05-06T13:14:35Z</time>
      </trkpt>
      <trkpt lat="45.65762" lon="6.8774">
        <ele>2378.1</ele>
        <time>2016-05-06T13:14:37Z</time>
      </trkpt>
      <trkpt lat="45.65761" lon="6.87738">
        <ele>2378.6</ele>
        <time>2016-05-06T13:14:39Z</time>
      </trkpt>
      <trkpt lat="45.65761" lon="6.87736">
        <ele>2378.9</ele>
        <time>2016-05-06T13:14:41Z</time>
      </trkpt>
      <trkpt lat="45.6576" lon="6.87735">
        <ele>2379.3</ele>
        <time>2016-05-06T13:14:43Z</time>
      </trkpt>
      <trkpt lat="45.65759" lon="6.87734">
        <ele>2379.6</ele>
        <time>2016-05-06T13:14:45Z</time>
      </trkpt>
      <trkpt lat="45.65759" lon="6.87733">
        <ele>2379.6</ele>
        <time>2016-05-06T13:14:47Z</time>
      </trkpt>
      <trkpt lat="45.65758" lon="6.87733">
        <ele>2380</ele>
        <time>2016-05-06T13:14:49Z</time>
      </trkpt>
      <trkpt lat="45.65758" lon="6.87732">
        <ele>2380.2</ele>
        <time>2016-05-06T13:14:51Z</time>
      </trkpt>
      <trkpt lat="45.65758" lon="6.87732">
        <ele>2379.9</ele>
        <time>2016-05-06T13:14:53Z</time>
      </trkpt>
      <trkpt lat="45.65758" lon="6.87732">
        <ele>2380.1</ele>
        <time>2016-05-06T13:14:55Z</time>
      </trkpt>
      <trkpt lat="45.65758" lon="6.87732">
        <ele>2380.4</ele>
        <time>2016-05-06T13:14:57Z</time>
      </trkpt>
      <trkpt lat="45.65758" lon="6.87732">
        <ele>2380.6</ele>
        <time>2016-05-06T13:14:59Z</time>
      </trkpt>
      <trkpt lat="45.65758" lon="6.87732">
        <ele>2380.7</ele>
        <time>2016-05-06T13:15:01Z</time>
      </trkpt>
      <trkpt lat="45.65758" lon="6.87732">
        <ele>2380.8</ele>
        <time>2016-05-06T13:15:03Z</time>
      </trkpt>
      <trkpt lat="45.65758" lon="6.87732">
        <ele>2380.9</ele>
        <time>2016-05-06T13:15:05Z</time>
      </trkpt>
      <trkpt lat="45.65757" lon="6.87731">
        <ele>2380.9</ele>
        <time>2016-05-06T13:15:07Z</time>
      </trkpt>
      <trkpt lat="45.65757" lon="6.87731">
        <ele>2381</ele>
        <time>2016-05-06T13:15:09Z</time>
      </trkpt>
      <trkpt lat="45.65757" lon="6.87731">
        <ele>2381.5</ele>
        <time>2016-05-06T13:15:11Z</time>
      </trkpt>
      <trkpt lat="45.65757" lon="6.87731">
        <ele>2381.4</ele>
        <time>2016-05-06T13:15:13Z</time>
      </trkpt>
      <trkpt lat="45.65757" lon="6.87731">
        <ele>2381.4</ele>
        <time>2016-05-06T13:15:15Z</time>
      </trkpt>
      <trkpt lat="45.65757" lon="6.87731">
        <ele>2381.3</ele>
        <time>2016-05-06T13:15:17Z</time>
      </trkpt>
      <trkpt lat="45.65757" lon="6.87731">
        <ele>2381.3</ele>
        <time>2016-05-06T13:15:19Z</time>
      </trkpt>
      <trkpt lat="45.65757" lon="6.87731">
        <ele>2381.3</ele>
        <time>2016-05-06T13:15:21Z</time>
      </trkpt>
      <trkpt lat="45.65757" lon="6.8773">
        <ele>2381.1</ele>
        <time>2016-05-06T13:15:23Z</time>
      </trkpt>
      <trkpt lat="45.65756" lon="6.87729">
        <ele>2381.2</ele>
        <time>2016-05-06T13:15:25Z</time>
      </trkpt>
      <trkpt lat="45.65756" lon="6.87728">
        <ele>2381.4</ele>
        <time>2016-05-06T13:15:27Z</time>
      </trkpt>
      <trkpt lat="45.65756" lon="6.87727">
        <ele>2381.6</ele>
        <time>2016-05-06T13:15:29Z</time>
      </trkpt>
      <trkpt lat="45.65755" lon="6.87726">
        <ele>2381.7</ele>
        <time>2016-05-06T13:15:31Z</time>
      </trkpt>
      <trkpt lat="45.65755" lon="6.87725">
        <ele>2381.8</ele>
        <time>2016-05-06T13:15:33Z</time>
      </trkpt>
      <trkpt lat="45.65754" lon="6.87724">
        <ele>2382.1</ele>
        <time>2016-05-06T13:15:35Z</time>
      </trkpt>
      <trkpt lat="45.65754" lon="6.87723">
        <ele>2382.3</ele>
        <time>2016-05-06T13:15:37Z</time>
      </trkpt>
      <trkpt lat="45.65753" lon="6.87722">
        <ele>2382.5</ele>
        <time>2016-05-06T13:15:39Z</time>
      </trkpt>
      <trkpt lat="45.65753" lon="6.87722">
        <ele>2382.7</ele>
        <time>2016-05-06T13:15:41Z</time>
      </trkpt>
      <trkpt lat="45.65753" lon="6.87721">
        <ele>2382.9</ele>
        <time>2016-05-06T13:15:43Z</time>
      </trkpt>
      <trkpt lat="45.65752" lon="6.87719">
        <ele>2383</ele>
        <time>2016-05-06T13:15:45Z</time>
      </trkpt>
      <trkpt lat="45.65752" lon="6.87718">
        <ele>2383.3</ele>
        <time>2016-05-06T13:15:47Z</time>
      </trkpt>
      <trkpt lat="45.65751" lon="6.87717">
        <ele>2383.5</ele>
        <time>2016-05-06T13:15:49Z</time>
      </trkpt>
      <trkpt lat="45.65751" lon="6.87716">
        <ele>2383.6</ele>
        <time>2016-05-06T13:15:51Z</time>
      </trkpt>
      <trkpt lat="45.65751" lon="6.87716">
        <ele>2383.7</ele>
        <time>2016-05-06T13:15:53Z</time>
      </trkpt>
      <trkpt lat="45.6575" lon="6.87715">
        <ele>2384</ele>
        <time>2016-05-06T13:15:55Z</time>
      </trkpt>
      <trkpt lat="45.6575" lon="6.87714">
        <ele>2384.4</ele>
        <time>2016-05-06T13:15:57Z</time>
      </trkpt>
      <trkpt lat="45.65749" lon="6.87713">
        <ele>2384.6</ele>
        <time>2016-05-06T13:15:59Z</time>
      </trkpt>
      <trkpt lat="45.65749" lon="6.87711">
        <ele>2384.9</ele>
        <time>2016-05-06T13:16:01Z</time>
      </trkpt>
      <trkpt lat="45.65748" lon="6.8771">
        <ele>2385.1</ele>
        <time>2016-05-06T13:16:03Z</time>
      </trkpt>
      <trkpt lat="45.65748" lon="6.8771">
        <ele>2385.3</ele>
        <time>2016-05-06T13:16:05Z</time>
      </trkpt>
      <trkpt lat="45.65748" lon="6.8771">
        <ele>2385.3</ele>
        <time>2016-05-06T13:16:07Z</time>
      </trkpt>
      <trkpt lat="45.65748" lon="6.8771">
        <ele>2385.4</ele>
        <time>2016-05-06T13:16:09Z</time>
      </trkpt>
      <trkpt lat="45.65748" lon="6.87711">
        <ele>2384.8</ele>
        <time>2016-05-06T13:16:11Z</time>
      </trkpt>
      <trkpt lat="45.65747" lon="6.87711">
        <ele>2385</ele>
        <time>2016-05-06T13:16:13Z</time>
      </trkpt>
      <trkpt lat="45.65747" lon="6.87711">
        <ele>2385.3</ele>
        <time>2016-05-06T13:16:15Z</time>
      </trkpt>
      <trkpt lat="45.65747" lon="6.87711">
        <ele>2385.3</ele>
        <time>2016-05-06T13:16:17Z</time>
      </trkpt>
      <trkpt lat="45.65746" lon="6.87711">
        <ele>2385.6</ele>
        <time>2016-05-06T13:16:19Z</time>
      </trkpt>
      <trkpt lat="45.65746" lon="6.87711">
        <ele>2385.7</ele>
        <time>2016-05-06T13:16:21Z</time>
      </trkpt>
      <trkpt lat="45.65745" lon="6.87711">
        <ele>2386</ele>
        <time>2016-05-06T13:16:23Z</time>
      </trkpt>
      <trkpt lat="45.65745" lon="6.8771">
        <ele>2386.1</ele>
        <time>2016-05-06T13:16:25Z</time>
      </trkpt>
      <trkpt lat="45.65745" lon="6.87709">
        <ele>2386.2</ele>
        <time>2016-05-06T13:16:27Z</time>
      </trkpt>
      <trkpt lat="45.65745" lon="6.87708">
        <ele>2386.2</ele>
        <time>2016-05-06T13:16:29Z</time>
      </trkpt>
      <trkpt lat="45.65745" lon="6.87707">
        <ele>2386.4</ele>
        <time>2016-05-06T13:16:31Z</time>
      </trkpt>
      <trkpt lat="45.65745" lon="6.87706">
        <ele>2386.7</ele>
        <time>2016-05-06T13:16:33Z</time>
      </trkpt>
      <trkpt lat="45.65744" lon="6.87705">
        <ele>2387.1</ele>
        <time>2016-05-06T13:16:35Z</time>
      </trkpt>
      <trkpt lat="45.65744" lon="6.87704">
        <ele>2387.3</ele>
        <time>2016-05-06T13:16:37Z</time>
      </trkpt>
      <trkpt lat="45.65744" lon="6.87703">
        <ele>2387.7</ele>
        <time>2016-05-06T13:16:39Z</time>
      </trkpt>
      <trkpt lat="45.65744" lon="6.87702">
        <ele>2387.9</ele>
        <time>2016-05-06T13:16:41Z</time>
      </trkpt>
      <trkpt lat="45.65743" lon="6.87701">
        <ele>2388.1</ele>
        <time>2016-05-06T13:16:43Z</time>
      </trkpt>
      <trkpt lat="45.65743" lon="6.877">
        <ele>2388.5</ele>
        <time>2016-05-06T13:16:45Z</time>
      </trkpt>
      <trkpt lat="45.65743" lon="6.87701">
        <ele>2388.7</ele>
        <time>2016-05-06T13:16:47Z</time>
      </trkpt>
      <trkpt lat="45.65744" lon="6.87701">
        <ele>2388.9</ele>
        <time>2016-05-06T13:16:49Z</time>
      </trkpt>
      <trkpt lat="45.65744" lon="6.87702">
        <ele>2389.1</ele>
        <time>2016-05-06T13:16:51Z</time>
      </trkpt>
      <trkpt lat="45.65744" lon="6.87702">
        <ele>2389.2</ele>
        <time>2016-05-06T13:16:53Z</time>
      </trkpt>
      <trkpt lat="45.65743" lon="6.877">
        <ele>2389.4</ele>
        <time>2016-05-06T13:16:55Z</time>
      </trkpt>
      <trkpt lat="45.65743" lon="6.87699">
        <ele>2389.5</ele>
        <time>2016-05-06T13:16:57Z</time>
      </trkpt>
      <trkpt lat="45.65743" lon="6.87697">
        <ele>2389.6</ele>
        <time>2016-05-06T13:16:59Z</time>
      </trkpt>
      <trkpt lat="45.65743" lon="6.87697">
        <ele>2389.8</ele>
        <time>2016-05-06T13:17:01Z</time>
      </trkpt>
      <trkpt lat="45.65743" lon="6.87695">
        <ele>2390.1</ele>
        <time>2016-05-06T13:17:03Z</time>
      </trkpt>
      <trkpt lat="45.65742" lon="6.87694">
        <ele>2390.2</ele>
        <time>2016-05-06T13:17:05Z</time>
      </trkpt>
      <trkpt lat="45.65742" lon="6.87693">
        <ele>2390.3</ele>
        <time>2016-05-06T13:17:07Z</time>
      </trkpt>
      <trkpt lat="45.65742" lon="6.87691">
        <ele>2390.4</ele>
        <time>2016-05-06T13:17:09Z</time>
      </trkpt>
      <trkpt lat="45.65742" lon="6.87689">
        <ele>2390.7</ele>
        <time>2016-05-06T13:17:11Z</time>
      </trkpt>
      <trkpt lat="45.65741" lon="6.87688">
        <ele>2390.5</ele>
        <time>2016-05-06T13:17:13Z</time>
      </trkpt>
      <trkpt lat="45.65741" lon="6.87687">
        <ele>2390.9</ele>
        <time>2016-05-06T13:17:15Z</time>
      </trkpt>
      <trkpt lat="45.65741" lon="6.87686">
        <ele>2391.4</ele>
        <time>2016-05-06T13:17:17Z</time>
      </trkpt>
      <trkpt lat="45.6574" lon="6.87685">
        <ele>2389.9</ele>
        <time>2016-05-06T13:17:19Z</time>
      </trkpt>
      <trkpt lat="45.6574" lon="6.87685">
        <ele>2390.8</ele>
        <time>2016-05-06T13:17:21Z</time>
      </trkpt>
      <trkpt lat="45.65741" lon="6.87685">
        <ele>2391.3</ele>
        <time>2016-05-06T13:17:23Z</time>
      </trkpt>
      <trkpt lat="45.65741" lon="6.87685">
        <ele>2391.6</ele>
        <time>2016-05-06T13:17:25Z</time>
      </trkpt>
      <trkpt lat="45.65741" lon="6.87685">
        <ele>2391.9</ele>
        <time>2016-05-06T13:17:27Z</time>
      </trkpt>
      <trkpt lat="45.65741" lon="6.87684">
        <ele>2392</ele>
        <time>2016-05-06T13:17:29Z</time>
      </trkpt>
      <trkpt lat="45.65741" lon="6.87683">
        <ele>2391.9</ele>
        <time>2016-05-06T13:17:31Z</time>
      </trkpt>
      <trkpt lat="45.6574" lon="6.87681">
        <ele>2392.1</ele>
        <time>2016-05-06T13:17:33Z</time>
      </trkpt>
      <trkpt lat="45.6574" lon="6.8768">
        <ele>2392.4</ele>
        <time>2016-05-06T13:17:35Z</time>
      </trkpt>
      <trkpt lat="45.6574" lon="6.87679">
        <ele>2392.6</ele>
        <time>2016-05-06T13:17:37Z</time>
      </trkpt>
      <trkpt lat="45.6574" lon="6.87677">
        <ele>2392.8</ele>
        <time>2016-05-06T13:17:39Z</time>
      </trkpt>
      <trkpt lat="45.65739" lon="6.87676">
        <ele>2392.8</ele>
        <time>2016-05-06T13:17:41Z</time>
      </trkpt>
      <trkpt lat="45.65739" lon="6.87675">
        <ele>2393</ele>
        <time>2016-05-06T13:17:43Z</time>
      </trkpt>
      <trkpt lat="45.65739" lon="6.87674">
        <ele>2393.2</ele>
        <time>2016-05-06T13:17:45Z</time>
      </trkpt>
      <trkpt lat="45.65739" lon="6.87672">
        <ele>2393.4</ele>
        <time>2016-05-06T13:17:47Z</time>
      </trkpt>
      <trkpt lat="45.65739" lon="6.87671">
        <ele>2393.7</ele>
        <time>2016-05-06T13:17:49Z</time>
      </trkpt>
      <trkpt lat="45.65738" lon="6.87669">
        <ele>2394</ele>
        <time>2016-05-06T13:17:51Z</time>
      </trkpt>
      <trkpt lat="45.65738" lon="6.87668">
        <ele>2394.3</ele>
        <time>2016-05-06T13:17:53Z</time>
      </trkpt>
      <trkpt lat="45.65738" lon="6.87666">
        <ele>2394.5</ele>
        <time>2016-05-06T13:17:55Z</time>
      </trkpt>
      <trkpt lat="45.65738" lon="6.87665">
        <ele>2394.6</ele>
        <time>2016-05-06T13:17:57Z</time>
      </trkpt>
      <trkpt lat="45.65737" lon="6.87663">
        <ele>2395</ele>
        <time>2016-05-06T13:17:59Z</time>
      </trkpt>
      <trkpt lat="45.65737" lon="6.87662">
        <ele>2395.2</ele>
        <time>2016-05-06T13:18:01Z</time>
      </trkpt>
      <trkpt lat="45.65737" lon="6.87662">
        <ele>2395.5</ele>
        <time>2016-05-06T13:18:03Z</time>
      </trkpt>
      <trkpt lat="45.65737" lon="6.87661">
        <ele>2395.6</ele>
        <time>2016-05-06T13:18:05Z</time>
      </trkpt>
      <trkpt lat="45.65737" lon="6.87659">
        <ele>2395.8</ele>
        <time>2016-05-06T13:18:07Z</time>
      </trkpt>
      <trkpt lat="45.65737" lon="6.87658">
        <ele>2395.8</ele>
        <time>2016-05-06T13:18:09Z</time>
      </trkpt>
      <trkpt lat="45.65736" lon="6.87656">
        <ele>2396</ele>
        <time>2016-05-06T13:18:11Z</time>
      </trkpt>
      <trkpt lat="45.65736" lon="6.87654">
        <ele>2396.3</ele>
        <time>2016-05-06T13:18:13Z</time>
      </trkpt>
      <trkpt lat="45.65735" lon="6.87652">
        <ele>2396.7</ele>
        <time>2016-05-06T13:18:15Z</time>
      </trkpt>
      <trkpt lat="45.65735" lon="6.8765">
        <ele>2397</ele>
        <time>2016-05-06T13:18:17Z</time>
      </trkpt>
      <trkpt lat="45.65735" lon="6.87649">
        <ele>2397.2</ele>
        <time>2016-05-06T13:18:19Z</time>
      </trkpt>
      <trkpt lat="45.65734" lon="6.87647">
        <ele>2397.5</ele>
        <time>2016-05-06T13:18:21Z</time>
      </trkpt>
      <trkpt lat="45.65734" lon="6.87646">
        <ele>2397.8</ele>
        <time>2016-05-06T13:18:23Z</time>
      </trkpt>
      <trkpt lat="45.65734" lon="6.87645">
        <ele>2398</ele>
        <time>2016-05-06T13:18:25Z</time>
      </trkpt>
      <trkpt lat="45.65734" lon="6.87644">
        <ele>2398.2</ele>
        <time>2016-05-06T13:18:27Z</time>
      </trkpt>
      <trkpt lat="45.65734" lon="6.87642">
        <ele>2398.4</ele>
        <time>2016-05-06T13:18:29Z</time>
      </trkpt>
      <trkpt lat="45.65733" lon="6.87641">
        <ele>2398.4</ele>
        <time>2016-05-06T13:18:31Z</time>
      </trkpt>
      <trkpt lat="45.65733" lon="6.87639">
        <ele>2398.6</ele>
        <time>2016-05-06T13:18:33Z</time>
      </trkpt>
      <trkpt lat="45.65733" lon="6.87638">
        <ele>2398.8</ele>
        <time>2016-05-06T13:18:35Z</time>
      </trkpt>
      <trkpt lat="45.65733" lon="6.87638">
        <ele>2398.7</ele>
        <time>2016-05-06T13:18:37Z</time>
      </trkpt>
      <trkpt lat="45.65733" lon="6.87638">
        <ele>2398.9</ele>
        <time>2016-05-06T13:18:39Z</time>
      </trkpt>
      <trkpt lat="45.65733" lon="6.87637">
        <ele>2399.4</ele>
        <time>2016-05-06T13:18:41Z</time>
      </trkpt>
      <trkpt lat="45.65733" lon="6.87635">
        <ele>2399.5</ele>
        <time>2016-05-06T13:18:43Z</time>
      </trkpt>
      <trkpt lat="45.65733" lon="6.87634">
        <ele>2399.6</ele>
        <time>2016-05-06T13:18:45Z</time>
      </trkpt>
      <trkpt lat="45.65733" lon="6.87632">
        <ele>2399.7</ele>
        <time>2016-05-06T13:18:47Z</time>
      </trkpt>
      <trkpt lat="45.65732" lon="6.87629">
        <ele>2399.8</ele>
        <time>2016-05-06T13:18:49Z</time>
      </trkpt>
      <trkpt lat="45.65732" lon="6.87627">
        <ele>2399.9</ele>
        <time>2016-05-06T13:18:51Z</time>
      </trkpt>
      <trkpt lat="45.65732" lon="6.87626">
        <ele>2400.1</ele>
        <time>2016-05-06T13:18:53Z</time>
      </trkpt>
      <trkpt lat="45.65732" lon="6.87625">
        <ele>2400</ele>
        <time>2016-05-06T13:18:55Z</time>
      </trkpt>
      <trkpt lat="45.65732" lon="6.87625">
        <ele>2400</ele>
        <time>2016-05-06T13:18:57Z</time>
      </trkpt>
      <trkpt lat="45.65732" lon="6.87625">
        <ele>2399.9</ele>
        <time>2016-05-06T13:18:59Z</time>
      </trkpt>
      <trkpt lat="45.65732" lon="6.87624">
        <ele>2399.9</ele>
        <time>2016-05-06T13:19:01Z</time>
      </trkpt>
      <trkpt lat="45.65732" lon="6.87623">
        <ele>2399.8</ele>
        <time>2016-05-06T13:19:03Z</time>
      </trkpt>
      <trkpt lat="45.65733" lon="6.87623">
        <ele>2399.8</ele>
        <time>2016-05-06T13:19:05Z</time>
      </trkpt>
      <trkpt lat="45.65733" lon="6.87623">
        <ele>2399.7</ele>
        <time>2016-05-06T13:19:07Z</time>
      </trkpt>
      <trkpt lat="45.65733" lon="6.87622">
        <ele>2399.7</ele>
        <time>2016-05-06T13:19:09Z</time>
      </trkpt>
      <trkpt lat="45.65733" lon="6.87622">
        <ele>2399.7</ele>
        <time>2016-05-06T13:19:11Z</time>
      </trkpt>
      <trkpt lat="45.65733" lon="6.87622">
        <ele>2399.7</ele>
        <time>2016-05-06T13:19:13Z</time>
      </trkpt>
      <trkpt lat="45.65733" lon="6.87622">
        <ele>2399.8</ele>
        <time>2016-05-06T13:19:15Z</time>
      </trkpt>
      <trkpt lat="45.65733" lon="6.87623">
        <ele>2399.8</ele>
        <time>2016-05-06T13:19:17Z</time>
      </trkpt>
      <trkpt lat="45.65733" lon="6.87623">
        <ele>2399.7</ele>
        <time>2016-05-06T13:19:19Z</time>
      </trkpt>
      <trkpt lat="45.65733" lon="6.87623">
        <ele>2399.7</ele>
        <time>2016-05-06T13:19:21Z</time>
      </trkpt>
      <trkpt lat="45.65733" lon="6.87623">
        <ele>2399.7</ele>
        <time>2016-05-06T13:19:23Z</time>
      </trkpt>
      <trkpt lat="45.65733" lon="6.87623">
        <ele>2399.6</ele>
        <time>2016-05-06T13:19:25Z</time>
      </trkpt>
      <trkpt lat="45.65733" lon="6.87623">
        <ele>2399.6</ele>
        <time>2016-05-06T13:19:27Z</time>
      </trkpt>
      <trkpt lat="45.65733" lon="6.87624">
        <ele>2399.5</ele>
        <time>2016-05-06T13:19:29Z</time>
      </trkpt>
      <trkpt lat="45.65734" lon="6.87624">
        <ele>2399.6</ele>
        <time>2016-05-06T13:19:31Z</time>
      </trkpt>
      <trkpt lat="45.65734" lon="6.87624">
        <ele>2399.6</ele>
        <time>2016-05-06T13:19:33Z</time>
      </trkpt>
      <trkpt lat="45.65733" lon="6.87624">
        <ele>2399.6</ele>
        <time>2016-05-06T13:19:35Z</time>
      </trkpt>
      <trkpt lat="45.65734" lon="6.87623">
        <ele>2399.6</ele>
        <time>2016-05-06T13:19:37Z</time>
      </trkpt>
      <trkpt lat="45.65734" lon="6.87621">
        <ele>2399.8</ele>
        <time>2016-05-06T13:19:39Z</time>
      </trkpt>
      <trkpt lat="45.65733" lon="6.87619">
        <ele>2399.8</ele>
        <time>2016-05-06T13:19:41Z</time>
      </trkpt>
      <trkpt lat="45.65733" lon="6.87617">
        <ele>2400</ele>
        <time>2016-05-06T13:19:43Z</time>
      </trkpt>
      <trkpt lat="45.65733" lon="6.87615">
        <ele>2400.2</ele>
        <time>2016-05-06T13:19:45Z</time>
      </trkpt>
      <trkpt lat="45.65733" lon="6.87613">
        <ele>2400.2</ele>
        <time>2016-05-06T13:19:47Z</time>
      </trkpt>
      <trkpt lat="45.65733" lon="6.87612">
        <ele>2400.1</ele>
        <time>2016-05-06T13:19:49Z</time>
      </trkpt>
      <trkpt lat="45.65732" lon="6.87611">
        <ele>2400.1</ele>
        <time>2016-05-06T13:19:51Z</time>
      </trkpt>
      <trkpt lat="45.65732" lon="6.87611">
        <ele>2400.2</ele>
        <time>2016-05-06T13:19:53Z</time>
      </trkpt>
      <trkpt lat="45.65732" lon="6.87611">
        <ele>2399.6</ele>
        <time>2016-05-06T13:19:55Z</time>
      </trkpt>
      <trkpt lat="45.65732" lon="6.8761">
        <ele>2399.8</ele>
        <time>2016-05-06T13:19:57Z</time>
      </trkpt>
      <trkpt lat="45.65732" lon="6.87611">
        <ele>2400.1</ele>
        <time>2016-05-06T13:19:59Z</time>
      </trkpt>
      <trkpt lat="45.65733" lon="6.87612">
        <ele>2400.4</ele>
        <time>2016-05-06T13:20:01Z</time>
      </trkpt>
      <trkpt lat="45.65733" lon="6.87613">
        <ele>2400.3</ele>
        <time>2016-05-06T13:20:03Z</time>
      </trkpt>
      <trkpt lat="45.65733" lon="6.87613">
        <ele>2399.8</ele>
        <time>2016-05-06T13:20:05Z</time>
      </trkpt>
      <trkpt lat="45.65734" lon="6.87613">
        <ele>2400</ele>
        <time>2016-05-06T13:20:07Z</time>
      </trkpt>
      <trkpt lat="45.65734" lon="6.87613">
        <ele>2400.1</ele>
        <time>2016-05-06T13:20:09Z</time>
      </trkpt>
      <trkpt lat="45.65734" lon="6.87613">
        <ele>2400.3</ele>
        <time>2016-05-06T13:20:11Z</time>
      </trkpt>
      <trkpt lat="45.65733" lon="6.87611">
        <ele>2400.1</ele>
        <time>2016-05-06T13:20:13Z</time>
      </trkpt>
      <trkpt lat="45.65734" lon="6.8761">
        <ele>2400.1</ele>
        <time>2016-05-06T13:20:15Z</time>
      </trkpt>
      <trkpt lat="45.65734" lon="6.8761">
        <ele>2400.1</ele>
        <time>2016-05-06T13:20:17Z</time>
      </trkpt>
      <trkpt lat="45.65734" lon="6.8761">
        <ele>2400.3</ele>
        <time>2016-05-06T13:20:19Z</time>
      </trkpt>
      <trkpt lat="45.65734" lon="6.8761">
        <ele>2400.4</ele>
        <time>2016-05-06T13:20:21Z</time>
      </trkpt>
      <trkpt lat="45.65734" lon="6.8761">
        <ele>2400.4</ele>
        <time>2016-05-06T13:20:23Z</time>
      </trkpt>
      <trkpt lat="45.65735" lon="6.8761">
        <ele>2400.5</ele>
        <time>2016-05-06T13:20:25Z</time>
      </trkpt>
      <trkpt lat="45.65735" lon="6.87612">
        <ele>2400.6</ele>
        <time>2016-05-06T13:20:27Z</time>
      </trkpt>
      <trkpt lat="45.65735" lon="6.87612">
        <ele>2400.6</ele>
        <time>2016-05-06T13:20:29Z</time>
      </trkpt>
      <trkpt lat="45.65734" lon="6.87612">
        <ele>2400.6</ele>
        <time>2016-05-06T13:20:31Z</time>
      </trkpt>
      <trkpt lat="45.65735" lon="6.87612">
        <ele>2400.5</ele>
        <time>2016-05-06T13:20:33Z</time>
      </trkpt>
      <trkpt lat="45.65735" lon="6.87612">
        <ele>2400.4</ele>
        <time>2016-05-06T13:20:35Z</time>
      </trkpt>
      <trkpt lat="45.65734" lon="6.87612">
        <ele>2400.4</ele>
        <time>2016-05-06T13:20:37Z</time>
      </trkpt>
      <trkpt lat="45.65734" lon="6.87612">
        <ele>2400.5</ele>
        <time>2016-05-06T13:20:39Z</time>
      </trkpt>
      <trkpt lat="45.65735" lon="6.87613">
        <ele>2400.5</ele>
        <time>2016-05-06T13:20:41Z</time>
      </trkpt>
      <trkpt lat="45.65735" lon="6.87613">
        <ele>2400.3</ele>
        <time>2016-05-06T13:20:43Z</time>
      </trkpt>
      <trkpt lat="45.65735" lon="6.87613">
        <ele>2400.5</ele>
        <time>2016-05-06T13:20:45Z</time>
      </trkpt>
      <trkpt lat="45.65735" lon="6.87613">
        <ele>2400.6</ele>
        <time>2016-05-06T13:20:47Z</time>
      </trkpt>
      <trkpt lat="45.65736" lon="6.87613">
        <ele>2400.3</ele>
        <time>2016-05-06T13:20:49Z</time>
      </trkpt>
      <trkpt lat="45.65736" lon="6.87613">
        <ele>2400</ele>
        <time>2016-05-06T13:20:51Z</time>
      </trkpt>
      <trkpt lat="45.65736" lon="6.87614">
        <ele>2399.7</ele>
        <time>2016-05-06T13:20:53Z</time>
      </trkpt>
      <trkpt lat="45.65736" lon="6.87614">
        <ele>2399.7</ele>
        <time>2016-05-06T13:20:55Z</time>
      </trkpt>
      <trkpt lat="45.65736" lon="6.87614">
        <ele>2399.9</ele>
        <time>2016-05-06T13:20:57Z</time>
      </trkpt>
      <trkpt lat="45.65736" lon="6.87614">
        <ele>2400</ele>
        <time>2016-05-06T13:20:59Z</time>
      </trkpt>
      <trkpt lat="45.65735" lon="6.87614">
        <ele>2399.9</ele>
        <time>2016-05-06T13:21:01Z</time>
      </trkpt>
      <trkpt lat="45.65734" lon="6.87614">
        <ele>2399.7</ele>
        <time>2016-05-06T13:21:03Z</time>
      </trkpt>
      <trkpt lat="45.65734" lon="6.87613">
        <ele>2399.6</ele>
        <time>2016-05-06T13:21:05Z</time>
      </trkpt>
      <trkpt lat="45.65734" lon="6.87613">
        <ele>2399.5</ele>
        <time>2016-05-06T13:21:07Z</time>
      </trkpt>
      <trkpt lat="45.65734" lon="6.87612">
        <ele>2399.4</ele>
        <time>2016-05-06T13:21:09Z</time>
      </trkpt>
      <trkpt lat="45.65734" lon="6.87613">
        <ele>2399.7</ele>
        <time>2016-05-06T13:21:11Z</time>
      </trkpt>
      <trkpt lat="45.65735" lon="6.87612">
        <ele>2399.8</ele>
        <time>2016-05-06T13:21:13Z</time>
      </trkpt>
      <trkpt lat="45.65735" lon="6.87612">
        <ele>2399.9</ele>
        <time>2016-05-06T13:21:15Z</time>
      </trkpt>
      <trkpt lat="45.65735" lon="6.87612">
        <ele>2400</ele>
        <time>2016-05-06T13:21:17Z</time>
      </trkpt>
      <trkpt lat="45.65734" lon="6.87612">
        <ele>2400</ele>
        <time>2016-05-06T13:21:19Z</time>
      </trkpt>
      <trkpt lat="45.65735" lon="6.87612">
        <ele>2400</ele>
        <time>2016-05-06T13:21:21Z</time>
      </trkpt>
      <trkpt lat="45.65735" lon="6.87612">
        <ele>2400.1</ele>
        <time>2016-05-06T13:21:23Z</time>
      </trkpt>
      <trkpt lat="45.65735" lon="6.87612">
        <ele>2400.2</ele>
        <time>2016-05-06T13:21:25Z</time>
      </trkpt>
      <trkpt lat="45.65736" lon="6.87612">
        <ele>2400.4</ele>
        <time>2016-05-06T13:21:27Z</time>
      </trkpt>
      <trkpt lat="45.65736" lon="6.87612">
        <ele>2400.5</ele>
        <time>2016-05-06T13:21:29Z</time>
      </trkpt>
      <trkpt lat="45.65736" lon="6.87613">
        <ele>2400.3</ele>
        <time>2016-05-06T13:21:31Z</time>
      </trkpt>
      <trkpt lat="45.65736" lon="6.87612">
        <ele>2400.5</ele>
        <time>2016-05-06T13:21:33Z</time>
      </trkpt>
      <trkpt lat="45.65736" lon="6.87612">
        <ele>2400.7</ele>
        <time>2016-05-06T13:21:35Z</time>
      </trkpt>
      <trkpt lat="45.65736" lon="6.87612">
        <ele>2400.7</ele>
        <time>2016-05-06T13:21:37Z</time>
      </trkpt>
      <trkpt lat="45.65735" lon="6.87613">
        <ele>2400.7</ele>
        <time>2016-05-06T13:21:39Z</time>
      </trkpt>
      <trkpt lat="45.65735" lon="6.87613">
        <ele>2400.7</ele>
        <time>2016-05-06T13:21:41Z</time>
      </trkpt>
      <trkpt lat="45.65735" lon="6.87613">
        <ele>2403.8</ele>
        <time>2016-05-06T13:21:43Z</time>
      </trkpt>
      <trkpt lat="45.65735" lon="6.87613">
        <ele>2403.6</ele>
        <time>2016-05-06T13:21:45Z</time>
      </trkpt>
      <trkpt lat="45.65735" lon="6.87612">
        <ele>2404</ele>
        <time>2016-05-06T13:21:47Z</time>
      </trkpt>
      <trkpt lat="45.65734" lon="6.87612">
        <ele>2403.2</ele>
        <time>2016-05-06T13:21:49Z</time>
      </trkpt>
      <trkpt lat="45.65734" lon="6.87612">
        <ele>2402.5</ele>
        <time>2016-05-06T13:21:51Z</time>
      </trkpt>
      <trkpt lat="45.65734" lon="6.87612">
        <ele>2401.7</ele>
        <time>2016-05-06T13:21:53Z</time>
      </trkpt>
      <trkpt lat="45.65734" lon="6.87613">
        <ele>2401.4</ele>
        <time>2016-05-06T13:21:55Z</time>
      </trkpt>
      <trkpt lat="45.65734" lon="6.87613">
        <ele>2400.3</ele>
        <time>2016-05-06T13:21:57Z</time>
      </trkpt>
      <trkpt lat="45.65734" lon="6.87613">
        <ele>2400.6</ele>
        <time>2016-05-06T13:21:59Z</time>
      </trkpt>
      <trkpt lat="45.65734" lon="6.87613">
        <ele>2400.9</ele>
        <time>2016-05-06T13:22:01Z</time>
      </trkpt>
      <trkpt lat="45.65734" lon="6.87613">
        <ele>2400.8</ele>
        <time>2016-05-06T13:22:03Z</time>
      </trkpt>
      <trkpt lat="45.65733" lon="6.87612">
        <ele>2400.7</ele>
        <time>2016-05-06T13:22:05Z</time>
      </trkpt>
      <trkpt lat="45.65733" lon="6.87612">
        <ele>2400.5</ele>
        <time>2016-05-06T13:22:07Z</time>
      </trkpt>
      <trkpt lat="45.65733" lon="6.87612">
        <ele>2400.5</ele>
        <time>2016-05-06T13:22:09Z</time>
      </trkpt>
      <trkpt lat="45.65733" lon="6.87611">
        <ele>2400.4</ele>
        <time>2016-05-06T13:22:11Z</time>
      </trkpt>
      <trkpt lat="45.65733" lon="6.87611">
        <ele>2400.4</ele>
        <time>2016-05-06T13:22:13Z</time>
      </trkpt>
      <trkpt lat="45.65733" lon="6.87611">
        <ele>2400.4</ele>
        <time>2016-05-06T13:22:15Z</time>
      </trkpt>
      <trkpt lat="45.65733" lon="6.8761">
        <ele>2400.4</ele>
        <time>2016-05-06T13:22:17Z</time>
      </trkpt>
      <trkpt lat="45.65732" lon="6.8761">
        <ele>2400.3</ele>
        <time>2016-05-06T13:22:19Z</time>
      </trkpt>
      <trkpt lat="45.65732" lon="6.8761">
        <ele>2400.4</ele>
        <time>2016-05-06T13:22:21Z</time>
      </trkpt>
      <trkpt lat="45.65731" lon="6.87609">
        <ele>2400.5</ele>
        <time>2016-05-06T13:22:23Z</time>
      </trkpt>
      <trkpt lat="45.65731" lon="6.87607">
        <ele>2400.7</ele>
        <time>2016-05-06T13:22:25Z</time>
      </trkpt>
      <trkpt lat="45.65731" lon="6.87606">
        <ele>2400.7</ele>
        <time>2016-05-06T13:22:27Z</time>
      </trkpt>
      <trkpt lat="45.65731" lon="6.87603">
        <ele>2400.7</ele>
        <time>2016-05-06T13:22:29Z</time>
      </trkpt>
      <trkpt lat="45.6573" lon="6.876">
        <ele>2400.5</ele>
        <time>2016-05-06T13:22:31Z</time>
      </trkpt>
      <trkpt lat="45.65729" lon="6.87598">
        <ele>2400.6</ele>
        <time>2016-05-06T13:22:33Z</time>
      </trkpt>
      <trkpt lat="45.65729" lon="6.87597">
        <ele>2400.4</ele>
        <time>2016-05-06T13:22:35Z</time>
      </trkpt>
      <trkpt lat="45.65729" lon="6.87596">
        <ele>2400.7</ele>
        <time>2016-05-06T13:22:37Z</time>
      </trkpt>
      <trkpt lat="45.65728" lon="6.87595">
        <ele>2400.3</ele>
        <time>2016-05-06T13:22:39Z</time>
      </trkpt>
      <trkpt lat="45.65727" lon="6.87594">
        <ele>2400.3</ele>
        <time>2016-05-06T13:22:41Z</time>
      </trkpt>
      <trkpt lat="45.65726" lon="6.87592">
        <ele>2400.4</ele>
        <time>2016-05-06T13:22:43Z</time>
      </trkpt>
      <trkpt lat="45.65725" lon="6.8759">
        <ele>2400.4</ele>
        <time>2016-05-06T13:22:45Z</time>
      </trkpt>
      <trkpt lat="45.65725" lon="6.87588">
        <ele>2400.1</ele>
        <time>2016-05-06T13:22:47Z</time>
      </trkpt>
      <trkpt lat="45.65724" lon="6.87586">
        <ele>2400.1</ele>
        <time>2016-05-06T13:22:49Z</time>
      </trkpt>
      <trkpt lat="45.65723" lon="6.87584">
        <ele>2400.1</ele>
        <time>2016-05-06T13:22:51Z</time>
      </trkpt>
      <trkpt lat="45.65723" lon="6.87583">
        <ele>2400.2</ele>
        <time>2016-05-06T13:22:53Z</time>
      </trkpt>
      <trkpt lat="45.65723" lon="6.87582">
        <ele>2400.2</ele>
        <time>2016-05-06T13:22:55Z</time>
      </trkpt>
      <trkpt lat="45.65722" lon="6.8758">
        <ele>2400.1</ele>
        <time>2016-05-06T13:22:57Z</time>
      </trkpt>
      <trkpt lat="45.65722" lon="6.87578">
        <ele>2400.4</ele>
        <time>2016-05-06T13:22:59Z</time>
      </trkpt>
      <trkpt lat="45.65721" lon="6.87577">
        <ele>2400.4</ele>
        <time>2016-05-06T13:23:01Z</time>
      </trkpt>
      <trkpt lat="45.6572" lon="6.87575">
        <ele>2400.4</ele>
        <time>2016-05-06T13:23:03Z</time>
      </trkpt>
      <trkpt lat="45.65719" lon="6.87574">
        <ele>2400.4</ele>
        <time>2016-05-06T13:23:05Z</time>
      </trkpt>
      <trkpt lat="45.65718" lon="6.87571">
        <ele>2400.3</ele>
        <time>2016-05-06T13:23:07Z</time>
      </trkpt>
      <trkpt lat="45.65717" lon="6.87569">
        <ele>2400.2</ele>
        <time>2016-05-06T13:23:09Z</time>
      </trkpt>
      <trkpt lat="45.65715" lon="6.87568">
        <ele>2400.2</ele>
        <time>2016-05-06T13:23:11Z</time>
      </trkpt>
      <trkpt lat="45.65715" lon="6.87566">
        <ele>2400.4</ele>
        <time>2016-05-06T13:23:13Z</time>
      </trkpt>
      <trkpt lat="45.65714" lon="6.87565">
        <ele>2400.4</ele>
        <time>2016-05-06T13:23:15Z</time>
      </trkpt>
      <trkpt lat="45.65712" lon="6.87563">
        <ele>2400.2</ele>
        <time>2016-05-06T13:23:17Z</time>
      </trkpt>
      <trkpt lat="45.65711" lon="6.87561">
        <ele>2400.1</ele>
        <time>2016-05-06T13:23:19Z</time>
      </trkpt>
      <trkpt lat="45.65708" lon="6.87557">
        <ele>2400</ele>
        <time>2016-05-06T13:23:21Z</time>
      </trkpt>
      <trkpt lat="45.65706" lon="6.87554">
        <ele>2399.9</ele>
        <time>2016-05-06T13:23:23Z</time>
      </trkpt>
      <trkpt lat="45.65703" lon="6.87549">
        <ele>2399.6</ele>
        <time>2016-05-06T13:23:25Z</time>
      </trkpt>
      <trkpt lat="45.657" lon="6.87545">
        <ele>2399.4</ele>
        <time>2016-05-06T13:23:27Z</time>
      </trkpt>
      <trkpt lat="45.65698" lon="6.87542">
        <ele>2399</ele>
        <time>2016-05-06T13:23:29Z</time>
      </trkpt>
      <trkpt lat="45.65695" lon="6.87537">
        <ele>2398.6</ele>
        <time>2016-05-06T13:23:31Z</time>
      </trkpt>
      <trkpt lat="45.65694" lon="6.87533">
        <ele>2398.3</ele>
        <time>2016-05-06T13:23:33Z</time>
      </trkpt>
      <trkpt lat="45.65691" lon="6.87529">
        <ele>2397.9</ele>
        <time>2016-05-06T13:23:35Z</time>
      </trkpt>
      <trkpt lat="45.65688" lon="6.87523">
        <ele>2397.6</ele>
        <time>2016-05-06T13:23:37Z</time>
      </trkpt>
      <trkpt lat="45.65683" lon="6.87516">
        <ele>2397</ele>
        <time>2016-05-06T13:23:39Z</time>
      </trkpt>
      <trkpt lat="45.65678" lon="6.87508">
        <ele>2396.3</ele>
        <time>2016-05-06T13:23:41Z</time>
      </trkpt>
      <trkpt lat="45.65674" lon="6.87502">
        <ele>2395.8</ele>
        <time>2016-05-06T13:23:43Z</time>
      </trkpt>
      <trkpt lat="45.65671" lon="6.87497">
        <ele>2395.2</ele>
        <time>2016-05-06T13:23:45Z</time>
      </trkpt>
      <trkpt lat="45.65668" lon="6.87491">
        <ele>2394.8</ele>
        <time>2016-05-06T13:23:47Z</time>
      </trkpt>
      <trkpt lat="45.65666" lon="6.87484">
        <ele>2394.3</ele>
        <time>2016-05-06T13:23:49Z</time>
      </trkpt>
      <trkpt lat="45.65664" lon="6.87477">
        <ele>2393.8</ele>
        <time>2016-05-06T13:23:51Z</time>
      </trkpt>
      <trkpt lat="45.65663" lon="6.87471">
        <ele>2393.4</ele>
        <time>2016-05-06T13:23:53Z</time>
      </trkpt>
      <trkpt lat="45.65663" lon="6.87466">
        <ele>2393.1</ele>
        <time>2016-05-06T13:23:55Z</time>
      </trkpt>
      <trkpt lat="45.65663" lon="6.8746">
        <ele>2392.7</ele>
        <time>2016-05-06T13:23:57Z</time>
      </trkpt>
      <trkpt lat="45.65663" lon="6.87456">
        <ele>2392.1</ele>
        <time>2016-05-06T13:23:59Z</time>
      </trkpt>
      <trkpt lat="45.65664" lon="6.87452">
        <ele>2391.9</ele>
        <time>2016-05-06T13:24:01Z</time>
      </trkpt>
      <trkpt lat="45.65664" lon="6.87448">
        <ele>2391.2</ele>
        <time>2016-05-06T13:24:03Z</time>
      </trkpt>
      <trkpt lat="45.65664" lon="6.87445">
        <ele>2391</ele>
        <time>2016-05-06T13:24:05Z</time>
      </trkpt>
      <trkpt lat="45.65665" lon="6.87443">
        <ele>2390.4</ele>
        <time>2016-05-06T13:24:07Z</time>
      </trkpt>
      <trkpt lat="45.65665" lon="6.87439">
        <ele>2390.1</ele>
        <time>2016-05-06T13:24:09Z</time>
      </trkpt>
      <trkpt lat="45.65665" lon="6.8743">
        <ele>2389.8</ele>
        <time>2016-05-06T13:24:11Z</time>
      </trkpt>
      <trkpt lat="45.65664" lon="6.87416">
        <ele>2389.2</ele>
        <time>2016-05-06T13:24:13Z</time>
      </trkpt>
      <trkpt lat="45.65659" lon="6.87401">
        <ele>2387.9</ele>
        <time>2016-05-06T13:24:15Z</time>
      </trkpt>
      <trkpt lat="45.65651" lon="6.87387">
        <ele>2385.8</ele>
        <time>2016-05-06T13:24:17Z</time>
      </trkpt>
      <trkpt lat="45.65642" lon="6.87372">
        <ele>2384.8</ele>
        <time>2016-05-06T13:24:19Z</time>
      </trkpt>
      <trkpt lat="45.65632" lon="6.87354">
        <ele>2382.7</ele>
        <time>2016-05-06T13:24:21Z</time>
      </trkpt>
      <trkpt lat="45.65622" lon="6.87337">
        <ele>2379.8</ele>
        <time>2016-05-06T13:24:23Z</time>
      </trkpt>
      <trkpt lat="45.65614" lon="6.87319">
        <ele>2378.2</ele>
        <time>2016-05-06T13:24:25Z</time>
      </trkpt>
      <trkpt lat="45.65607" lon="6.87302">
        <ele>2376.8</ele>
        <time>2016-05-06T13:24:27Z</time>
      </trkpt>
      <trkpt lat="45.65599" lon="6.87284">
        <ele>2375.4</ele>
        <time>2016-05-06T13:24:29Z</time>
      </trkpt>
      <trkpt lat="45.65588" lon="6.87269">
        <ele>2373.6</ele>
        <time>2016-05-06T13:24:31Z</time>
      </trkpt>
      <trkpt lat="45.65573" lon="6.8726">
        <ele>2371.8</ele>
        <time>2016-05-06T13:24:33Z</time>
      </trkpt>
      <trkpt lat="45.65557" lon="6.87251">
        <ele>2369.7</ele>
        <time>2016-05-06T13:24:35Z</time>
      </trkpt>
      <trkpt lat="45.6554" lon="6.87242">
        <ele>2367.5</ele>
        <time>2016-05-06T13:24:37Z</time>
      </trkpt>
      <trkpt lat="45.65522" lon="6.87233">
        <ele>2365.2</ele>
        <time>2016-05-06T13:24:39Z</time>
      </trkpt>
      <trkpt lat="45.65505" lon="6.87219">
        <ele>2362.5</ele>
        <time>2016-05-06T13:24:41Z</time>
      </trkpt>
      <trkpt lat="45.6549" lon="6.87199">
        <ele>2359.7</ele>
        <time>2016-05-06T13:24:43Z</time>
      </trkpt>
      <trkpt lat="45.65478" lon="6.87175">
        <ele>2356.5</ele>
        <time>2016-05-06T13:24:45Z</time>
      </trkpt>
      <trkpt lat="45.65464" lon="6.87153">
        <ele>2352</ele>
        <time>2016-05-06T13:24:47Z</time>
      </trkpt>
      <trkpt lat="45.65452" lon="6.87132">
        <ele>2349</ele>
        <time>2016-05-06T13:24:49Z</time>
      </trkpt>
      <trkpt lat="45.65439" lon="6.8711">
        <ele>2346.5</ele>
        <time>2016-05-06T13:24:51Z</time>
      </trkpt>
      <trkpt lat="45.65425" lon="6.87088">
        <ele>2344</ele>
        <time>2016-05-06T13:24:53Z</time>
      </trkpt>
      <trkpt lat="45.65412" lon="6.87067">
        <ele>2341.3</ele>
        <time>2016-05-06T13:24:55Z</time>
      </trkpt>
      <trkpt lat="45.654" lon="6.87046">
        <ele>2338.5</ele>
        <time>2016-05-06T13:24:57Z</time>
      </trkpt>
      <trkpt lat="45.65386" lon="6.87027">
        <ele>2335.3</ele>
        <time>2016-05-06T13:24:59Z</time>
      </trkpt>
      <trkpt lat="45.65373" lon="6.87008">
        <ele>2332.6</ele>
        <time>2016-05-06T13:25:01Z</time>
      </trkpt>
      <trkpt lat="45.6536" lon="6.86993">
        <ele>2329.8</ele>
        <time>2016-05-06T13:25:03Z</time>
      </trkpt>
      <trkpt lat="45.65347" lon="6.86981">
        <ele>2326.6</ele>
        <time>2016-05-06T13:25:05Z</time>
      </trkpt>
      <trkpt lat="45.65334" lon="6.86971">
        <ele>2323.8</ele>
        <time>2016-05-06T13:25:07Z</time>
      </trkpt>
      <trkpt lat="45.65322" lon="6.86963">
        <ele>2321</ele>
        <time>2016-05-06T13:25:09Z</time>
      </trkpt>
      <trkpt lat="45.65312" lon="6.86955">
        <ele>2318.6</ele>
        <time>2016-05-06T13:25:11Z</time>
      </trkpt>
      <trkpt lat="45.65304" lon="6.86947">
        <ele>2316.6</ele>
        <time>2016-05-06T13:25:13Z</time>
      </trkpt>
      <trkpt lat="45.65296" lon="6.8694">
        <ele>2315</ele>
        <time>2016-05-06T13:25:15Z</time>
      </trkpt>
      <trkpt lat="45.65289" lon="6.86933">
        <ele>2313.5</ele>
        <time>2016-05-06T13:25:17Z</time>
      </trkpt>
      <trkpt lat="45.65282" lon="6.86928">
        <ele>2312.4</ele>
        <time>2016-05-06T13:25:19Z</time>
      </trkpt>
      <trkpt lat="45.65277" lon="6.86922">
        <ele>2311.4</ele>
        <time>2016-05-06T13:25:21Z</time>
      </trkpt>
      <trkpt lat="45.6527" lon="6.86916">
        <ele>2310.3</ele>
        <time>2016-05-06T13:25:23Z</time>
      </trkpt>
      <trkpt lat="45.65264" lon="6.86908">
        <ele>2309.3</ele>
        <time>2016-05-06T13:25:25Z</time>
      </trkpt>
      <trkpt lat="45.65256" lon="6.869">
        <ele>2308.1</ele>
        <time>2016-05-06T13:25:27Z</time>
      </trkpt>
      <trkpt lat="45.65245" lon="6.86893">
        <ele>2306.7</ele>
        <time>2016-05-06T13:25:29Z</time>
      </trkpt>
      <trkpt lat="45.65229" lon="6.86886">
        <ele>2303.6</ele>
        <time>2016-05-06T13:25:31Z</time>
      </trkpt>
      <trkpt lat="45.65211" lon="6.8688">
        <ele>2299.5</ele>
        <time>2016-05-06T13:25:33Z</time>
      </trkpt>
      <trkpt lat="45.65192" lon="6.86876">
        <ele>2295.6</ele>
        <time>2016-05-06T13:25:35Z</time>
      </trkpt>
      <trkpt lat="45.65175" lon="6.86874">
        <ele>2291.6</ele>
        <time>2016-05-06T13:25:37Z</time>
      </trkpt>
      <trkpt lat="45.65164" lon="6.86876">
        <ele>2289.2</ele>
        <time>2016-05-06T13:25:39Z</time>
      </trkpt>
      <trkpt lat="45.65155" lon="6.86877">
        <ele>2287.5</ele>
        <time>2016-05-06T13:25:41Z</time>
      </trkpt>
      <trkpt lat="45.65146" lon="6.86878">
        <ele>2286</ele>
        <time>2016-05-06T13:25:43Z</time>
      </trkpt>
      <trkpt lat="45.65138" lon="6.86877">
        <ele>2284.7</ele>
        <time>2016-05-06T13:25:45Z</time>
      </trkpt>
      <trkpt lat="45.65129" lon="6.86876">
        <ele>2283.4</ele>
        <time>2016-05-06T13:25:47Z</time>
      </trkpt>
      <trkpt lat="45.65121" lon="6.86875">
        <ele>2282</ele>
        <time>2016-05-06T13:25:49Z</time>
      </trkpt>
      <trkpt lat="45.65114" lon="6.86872">
        <ele>2280.9</ele>
        <time>2016-05-06T13:25:51Z</time>
      </trkpt>
      <trkpt lat="45.65107" lon="6.86869">
        <ele>2280.1</ele>
        <time>2016-05-06T13:25:53Z</time>
      </trkpt>
      <trkpt lat="45.65101" lon="6.86866">
        <ele>2279.3</ele>
        <time>2016-05-06T13:25:55Z</time>
      </trkpt>
      <trkpt lat="45.65096" lon="6.86863">
        <ele>2278.4</ele>
        <time>2016-05-06T13:25:57Z</time>
      </trkpt>
      <trkpt lat="45.65091" lon="6.86859">
        <ele>2277.7</ele>
        <time>2016-05-06T13:25:59Z</time>
      </trkpt>
      <trkpt lat="45.65085" lon="6.86856">
        <ele>2277</ele>
        <time>2016-05-06T13:26:01Z</time>
      </trkpt>
      <trkpt lat="45.6508" lon="6.86853">
        <ele>2276.2</ele>
        <time>2016-05-06T13:26:03Z</time>
      </trkpt>
      <trkpt lat="45.65074" lon="6.8685">
        <ele>2275.5</ele>
        <time>2016-05-06T13:26:05Z</time>
      </trkpt>
      <trkpt lat="45.65069" lon="6.86848">
        <ele>2274.9</ele>
        <time>2016-05-06T13:26:07Z</time>
      </trkpt>
      <trkpt lat="45.65063" lon="6.86846">
        <ele>2274.4</ele>
        <time>2016-05-06T13:26:09Z</time>
      </trkpt>
      <trkpt lat="45.65058" lon="6.86843">
        <ele>2273.9</ele>
        <time>2016-05-06T13:26:11Z</time>
      </trkpt>
      <trkpt lat="45.65054" lon="6.86842">
        <ele>2273.5</ele>
        <time>2016-05-06T13:26:13Z</time>
      </trkpt>
      <trkpt lat="45.6505" lon="6.8684">
        <ele>2273.3</ele>
        <time>2016-05-06T13:26:15Z</time>
      </trkpt>
      <trkpt lat="45.65046" lon="6.86838">
        <ele>2272.9</ele>
        <time>2016-05-06T13:26:17Z</time>
      </trkpt>
      <trkpt lat="45.65042" lon="6.86836">
        <ele>2272.8</ele>
        <time>2016-05-06T13:26:19Z</time>
      </trkpt>
      <trkpt lat="45.65038" lon="6.86833">
        <ele>2272.3</ele>
        <time>2016-05-06T13:26:21Z</time>
      </trkpt>
      <trkpt lat="45.65035" lon="6.8683">
        <ele>2272</ele>
        <time>2016-05-06T13:26:23Z</time>
      </trkpt>
      <trkpt lat="45.65032" lon="6.86827">
        <ele>2272</ele>
        <time>2016-05-06T13:26:25Z</time>
      </trkpt>
      <trkpt lat="45.65029" lon="6.86823">
        <ele>2271.9</ele>
        <time>2016-05-06T13:26:27Z</time>
      </trkpt>
      <trkpt lat="45.65026" lon="6.86819">
        <ele>2271.6</ele>
        <time>2016-05-06T13:26:29Z</time>
      </trkpt>
      <trkpt lat="45.65023" lon="6.86814">
        <ele>2271.2</ele>
        <time>2016-05-06T13:26:31Z</time>
      </trkpt>
      <trkpt lat="45.6502" lon="6.86808">
        <ele>2270.9</ele>
        <time>2016-05-06T13:26:33Z</time>
      </trkpt>
      <trkpt lat="45.65017" lon="6.86803">
        <ele>2270.4</ele>
        <time>2016-05-06T13:26:35Z</time>
      </trkpt>
      <trkpt lat="45.65014" lon="6.86797">
        <ele>2270</ele>
        <time>2016-05-06T13:26:37Z</time>
      </trkpt>
      <trkpt lat="45.65011" lon="6.8679">
        <ele>2269.6</ele>
        <time>2016-05-06T13:26:39Z</time>
      </trkpt>
      <trkpt lat="45.65008" lon="6.86782">
        <ele>2269</ele>
        <time>2016-05-06T13:26:41Z</time>
      </trkpt>
      <trkpt lat="45.65004" lon="6.86773">
        <ele>2268.3</ele>
        <time>2016-05-06T13:26:43Z</time>
      </trkpt>
      <trkpt lat="45.65001" lon="6.86762">
        <ele>2267.7</ele>
        <time>2016-05-06T13:26:45Z</time>
      </trkpt>
      <trkpt lat="45.64996" lon="6.8675">
        <ele>2266.6</ele>
        <time>2016-05-06T13:26:47Z</time>
      </trkpt>
      <trkpt lat="45.6499" lon="6.86739">
        <ele>2265.4</ele>
        <time>2016-05-06T13:26:49Z</time>
      </trkpt>
      <trkpt lat="45.64985" lon="6.86732">
        <ele>2264.2</ele>
        <time>2016-05-06T13:26:51Z</time>
      </trkpt>
      <trkpt lat="45.64978" lon="6.86724">
        <ele>2263</ele>
        <time>2016-05-06T13:26:53Z</time>
      </trkpt>
      <trkpt lat="45.64972" lon="6.86718">
        <ele>2261.8</ele>
        <time>2016-05-06T13:26:55Z</time>
      </trkpt>
      <trkpt lat="45.64965" lon="6.86712">
        <ele>2260.7</ele>
        <time>2016-05-06T13:26:57Z</time>
      </trkpt>
      <trkpt lat="45.64956" lon="6.86706">
        <ele>2259.6</ele>
        <time>2016-05-06T13:26:59Z</time>
      </trkpt>
      <trkpt lat="45.64948" lon="6.867">
        <ele>2258.4</ele>
        <time>2016-05-06T13:27:01Z</time>
      </trkpt>
      <trkpt lat="45.64941" lon="6.86694">
        <ele>2257.3</ele>
        <time>2016-05-06T13:27:03Z</time>
      </trkpt>
      <trkpt lat="45.64933" lon="6.86688">
        <ele>2256.2</ele>
        <time>2016-05-06T13:27:05Z</time>
      </trkpt>
      <trkpt lat="45.64926" lon="6.86683">
        <ele>2255.2</ele>
        <time>2016-05-06T13:27:07Z</time>
      </trkpt>
      <trkpt lat="45.64918" lon="6.86684">
        <ele>2254.1</ele>
        <time>2016-05-06T13:27:09Z</time>
      </trkpt>
      <trkpt lat="45.6491" lon="6.86687">
        <ele>2252.8</ele>
        <time>2016-05-06T13:27:11Z</time>
      </trkpt>
      <trkpt lat="45.64899" lon="6.86691">
        <ele>2251.2</ele>
        <time>2016-05-06T13:27:13Z</time>
      </trkpt>
      <trkpt lat="45.64889" lon="6.86695">
        <ele>2249.4</ele>
        <time>2016-05-06T13:27:15Z</time>
      </trkpt>
      <trkpt lat="45.64881" lon="6.86698">
        <ele>2248</ele>
        <time>2016-05-06T13:27:17Z</time>
      </trkpt>
      <trkpt lat="45.64874" lon="6.867">
        <ele>2247.1</ele>
        <time>2016-05-06T13:27:19Z</time>
      </trkpt>
      <trkpt lat="45.64869" lon="6.86701">
        <ele>2246.4</ele>
        <time>2016-05-06T13:27:21Z</time>
      </trkpt>
      <trkpt lat="45.64863" lon="6.867">
        <ele>2245.6</ele>
        <time>2016-05-06T13:27:23Z</time>
      </trkpt>
      <trkpt lat="45.64858" lon="6.86699">
        <ele>2244.8</ele>
        <time>2016-05-06T13:27:25Z</time>
      </trkpt>
      <trkpt lat="45.64852" lon="6.86696">
        <ele>2244</ele>
        <time>2016-05-06T13:27:27Z</time>
      </trkpt>
      <trkpt lat="45.64846" lon="6.86693">
        <ele>2243.2</ele>
        <time>2016-05-06T13:27:29Z</time>
      </trkpt>
      <trkpt lat="45.6484" lon="6.86691">
        <ele>2242.3</ele>
        <time>2016-05-06T13:27:31Z</time>
      </trkpt>
      <trkpt lat="45.64833" lon="6.86687">
        <ele>2241.2</ele>
        <time>2016-05-06T13:27:33Z</time>
      </trkpt>
      <trkpt lat="45.64827" lon="6.86684">
        <ele>2240</ele>
        <time>2016-05-06T13:27:35Z</time>
      </trkpt>
      <trkpt lat="45.64821" lon="6.8668">
        <ele>2238.8</ele>
        <time>2016-05-06T13:27:37Z</time>
      </trkpt>
      <trkpt lat="45.64815" lon="6.86676">
        <ele>2237.7</ele>
        <time>2016-05-06T13:27:39Z</time>
      </trkpt>
      <trkpt lat="45.64808" lon="6.86672">
        <ele>2236.5</ele>
        <time>2016-05-06T13:27:41Z</time>
      </trkpt>
      <trkpt lat="45.64801" lon="6.86667">
        <ele>2235.4</ele>
        <time>2016-05-06T13:27:43Z</time>
      </trkpt>
      <trkpt lat="45.64794" lon="6.86662">
        <ele>2234.2</ele>
        <time>2016-05-06T13:27:45Z</time>
      </trkpt>
      <trkpt lat="45.64788" lon="6.86658">
        <ele>2233.1</ele>
        <time>2016-05-06T13:27:47Z</time>
      </trkpt>
      <trkpt lat="45.64781" lon="6.86652">
        <ele>2231.9</ele>
        <time>2016-05-06T13:27:49Z</time>
      </trkpt>
      <trkpt lat="45.64775" lon="6.86647">
        <ele>2230.9</ele>
        <time>2016-05-06T13:27:51Z</time>
      </trkpt>
      <trkpt lat="45.64769" lon="6.86642">
        <ele>2229.9</ele>
        <time>2016-05-06T13:27:53Z</time>
      </trkpt>
      <trkpt lat="45.64763" lon="6.86635">
        <ele>2228.7</ele>
        <time>2016-05-06T13:27:55Z</time>
      </trkpt>
      <trkpt lat="45.64757" lon="6.86629">
        <ele>2227.6</ele>
        <time>2016-05-06T13:27:57Z</time>
      </trkpt>
      <trkpt lat="45.64753" lon="6.86624">
        <ele>2226.8</ele>
        <time>2016-05-06T13:27:59Z</time>
      </trkpt>
      <trkpt lat="45.64748" lon="6.86618">
        <ele>2226.1</ele>
        <time>2016-05-06T13:28:01Z</time>
      </trkpt>
      <trkpt lat="45.64742" lon="6.86611">
        <ele>2224.9</ele>
        <time>2016-05-06T13:28:03Z</time>
      </trkpt>
      <trkpt lat="45.64737" lon="6.86604">
        <ele>2224.1</ele>
        <time>2016-05-06T13:28:05Z</time>
      </trkpt>
      <trkpt lat="45.64733" lon="6.86598">
        <ele>2223.3</ele>
        <time>2016-05-06T13:28:07Z</time>
      </trkpt>
      <trkpt lat="45.64728" lon="6.86592">
        <ele>2222.4</ele>
        <time>2016-05-06T13:28:09Z</time>
      </trkpt>
      <trkpt lat="45.64723" lon="6.86584">
        <ele>2221.5</ele>
        <time>2016-05-06T13:28:11Z</time>
      </trkpt>
      <trkpt lat="45.64718" lon="6.86577">
        <ele>2220.6</ele>
        <time>2016-05-06T13:28:13Z</time>
      </trkpt>
      <trkpt lat="45.64713" lon="6.86571">
        <ele>2219.7</ele>
        <time>2016-05-06T13:28:15Z</time>
      </trkpt>
      <trkpt lat="45.64704" lon="6.86564">
        <ele>2218.3</ele>
        <time>2016-05-06T13:28:17Z</time>
      </trkpt>
      <trkpt lat="45.64695" lon="6.8656">
        <ele>2216.7</ele>
        <time>2016-05-06T13:28:19Z</time>
      </trkpt>
      <trkpt lat="45.64688" lon="6.86559">
        <ele>2215.3</ele>
        <time>2016-05-06T13:28:21Z</time>
      </trkpt>
      <trkpt lat="45.64682" lon="6.86557">
        <ele>2214.2</ele>
        <time>2016-05-06T13:28:23Z</time>
      </trkpt>
      <trkpt lat="45.64672" lon="6.86555">
        <ele>2212.8</ele>
        <time>2016-05-06T13:28:25Z</time>
      </trkpt>
      <trkpt lat="45.64658" lon="6.86556">
        <ele>2210.3</ele>
        <time>2016-05-06T13:28:27Z</time>
      </trkpt>
      <trkpt lat="45.64644" lon="6.86557">
        <ele>2208</ele>
        <time>2016-05-06T13:28:29Z</time>
      </trkpt>
      <trkpt lat="45.64635" lon="6.86559">
        <ele>2205.9</ele>
        <time>2016-05-06T13:28:31Z</time>
      </trkpt>
      <trkpt lat="45.64626" lon="6.86561">
        <ele>2204.2</ele>
        <time>2016-05-06T13:28:33Z</time>
      </trkpt>
      <trkpt lat="45.64619" lon="6.86563">
        <ele>2202.8</ele>
        <time>2016-05-06T13:28:35Z</time>
      </trkpt>
      <trkpt lat="45.64613" lon="6.86565">
        <ele>2201.8</ele>
        <time>2016-05-06T13:28:37Z</time>
      </trkpt>
      <trkpt lat="45.64608" lon="6.86568">
        <ele>2200.8</ele>
        <time>2016-05-06T13:28:39Z</time>
      </trkpt>
      <trkpt lat="45.64605" lon="6.86569">
        <ele>2200.2</ele>
        <time>2016-05-06T13:28:41Z</time>
      </trkpt>
      <trkpt lat="45.64602" lon="6.86571">
        <ele>2199.6</ele>
        <time>2016-05-06T13:28:43Z</time>
      </trkpt>
      <trkpt lat="45.646" lon="6.86572">
        <ele>2199.3</ele>
        <time>2016-05-06T13:28:45Z</time>
      </trkpt>
      <trkpt lat="45.64596" lon="6.86573">
        <ele>2199.1</ele>
        <time>2016-05-06T13:28:47Z</time>
      </trkpt>
      <trkpt lat="45.64592" lon="6.86573">
        <ele>2199.1</ele>
        <time>2016-05-06T13:28:49Z</time>
      </trkpt>
      <trkpt lat="45.64589" lon="6.86574">
        <ele>2199</ele>
        <time>2016-05-06T13:28:51Z</time>
      </trkpt>
      <trkpt lat="45.64586" lon="6.86575">
        <ele>2198.9</ele>
        <time>2016-05-06T13:28:53Z</time>
      </trkpt>
      <trkpt lat="45.64583" lon="6.86576">
        <ele>2198.9</ele>
        <time>2016-05-06T13:28:55Z</time>
      </trkpt>
      <trkpt lat="45.64581" lon="6.86578">
        <ele>2198.7</ele>
        <time>2016-05-06T13:28:57Z</time>
      </trkpt>
      <trkpt lat="45.64578" lon="6.86579">
        <ele>2198.6</ele>
        <time>2016-05-06T13:28:59Z</time>
      </trkpt>
      <trkpt lat="45.64574" lon="6.8658">
        <ele>2198.4</ele>
        <time>2016-05-06T13:29:01Z</time>
      </trkpt>
      <trkpt lat="45.64571" lon="6.86582">
        <ele>2198.1</ele>
        <time>2016-05-06T13:29:03Z</time>
      </trkpt>
      <trkpt lat="45.64567" lon="6.86584">
        <ele>2197.8</ele>
        <time>2016-05-06T13:29:05Z</time>
      </trkpt>
      <trkpt lat="45.64563" lon="6.86585">
        <ele>2197.5</ele>
        <time>2016-05-06T13:29:07Z</time>
      </trkpt>
      <trkpt lat="45.6456" lon="6.86587">
        <ele>2197.3</ele>
        <time>2016-05-06T13:29:09Z</time>
      </trkpt>
      <trkpt lat="45.64556" lon="6.86589">
        <ele>2197</ele>
        <time>2016-05-06T13:29:11Z</time>
      </trkpt>
      <trkpt lat="45.64552" lon="6.86591">
        <ele>2196.7</ele>
        <time>2016-05-06T13:29:13Z</time>
      </trkpt>
      <trkpt lat="45.64548" lon="6.86593">
        <ele>2196.5</ele>
        <time>2016-05-06T13:29:15Z</time>
      </trkpt>
      <trkpt lat="45.64545" lon="6.86594">
        <ele>2196.3</ele>
        <time>2016-05-06T13:29:17Z</time>
      </trkpt>
      <trkpt lat="45.64541" lon="6.86595">
        <ele>2196</ele>
        <time>2016-05-06T13:29:19Z</time>
      </trkpt>
      <trkpt lat="45.64538" lon="6.86596">
        <ele>2195.8</ele>
        <time>2016-05-06T13:29:21Z</time>
      </trkpt>
      <trkpt lat="45.64534" lon="6.86598">
        <ele>2195.6</ele>
        <time>2016-05-06T13:29:23Z</time>
      </trkpt>
      <trkpt lat="45.6453" lon="6.866">
        <ele>2195.5</ele>
        <time>2016-05-06T13:29:25Z</time>
      </trkpt>
      <trkpt lat="45.64526" lon="6.86601">
        <ele>2195.2</ele>
        <time>2016-05-06T13:29:27Z</time>
      </trkpt>
      <trkpt lat="45.64522" lon="6.86602">
        <ele>2194.9</ele>
        <time>2016-05-06T13:29:29Z</time>
      </trkpt>
      <trkpt lat="45.64517" lon="6.86604">
        <ele>2194.6</ele>
        <time>2016-05-06T13:29:31Z</time>
      </trkpt>
      <trkpt lat="45.64513" lon="6.86605">
        <ele>2194.3</ele>
        <time>2016-05-06T13:29:33Z</time>
      </trkpt>
      <trkpt lat="45.64509" lon="6.86607">
        <ele>2193.8</ele>
        <time>2016-05-06T13:29:35Z</time>
      </trkpt>
      <trkpt lat="45.64506" lon="6.86608">
        <ele>2193.8</ele>
        <time>2016-05-06T13:29:37Z</time>
      </trkpt>
      <trkpt lat="45.64503" lon="6.86609">
        <ele>2193.6</ele>
        <time>2016-05-06T13:29:39Z</time>
      </trkpt>
      <trkpt lat="45.64499" lon="6.8661">
        <ele>2193.3</ele>
        <time>2016-05-06T13:29:41Z</time>
      </trkpt>
      <trkpt lat="45.64496" lon="6.86611">
        <ele>2193.3</ele>
        <time>2016-05-06T13:29:43Z</time>
      </trkpt>
      <trkpt lat="45.64493" lon="6.86612">
        <ele>2193.3</ele>
        <time>2016-05-06T13:29:45Z</time>
      </trkpt>
      <trkpt lat="45.64489" lon="6.86614">
        <ele>2193</ele>
        <time>2016-05-06T13:29:47Z</time>
      </trkpt>
      <trkpt lat="45.64485" lon="6.86614">
        <ele>2192.6</ele>
        <time>2016-05-06T13:29:49Z</time>
      </trkpt>
      <trkpt lat="45.64481" lon="6.86614">
        <ele>2192.4</ele>
        <time>2016-05-06T13:29:51Z</time>
      </trkpt>
      <trkpt lat="45.64479" lon="6.86614">
        <ele>2192.3</ele>
        <time>2016-05-06T13:29:53Z</time>
      </trkpt>
      <trkpt lat="45.64478" lon="6.86614">
        <ele>2192.2</ele>
        <time>2016-05-06T13:29:55Z</time>
      </trkpt>
      <trkpt lat="45.64473" lon="6.86614">
        <ele>2192.2</ele>
        <time>2016-05-06T13:29:57Z</time>
      </trkpt>
      <trkpt lat="45.64471" lon="6.86614">
        <ele>2192.1</ele>
        <time>2016-05-06T13:29:59Z</time>
      </trkpt>
      <trkpt lat="45.64468" lon="6.86613">
        <ele>2191.9</ele>
        <time>2016-05-06T13:30:01Z</time>
      </trkpt>
      <trkpt lat="45.64463" lon="6.86613">
        <ele>2191.5</ele>
        <time>2016-05-06T13:30:03Z</time>
      </trkpt>
      <trkpt lat="45.64458" lon="6.86612">
        <ele>2191.2</ele>
        <time>2016-05-06T13:30:05Z</time>
      </trkpt>
      <trkpt lat="45.64452" lon="6.86611">
        <ele>2190.7</ele>
        <time>2016-05-06T13:30:07Z</time>
      </trkpt>
      <trkpt lat="45.64447" lon="6.8661">
        <ele>2190.3</ele>
        <time>2016-05-06T13:30:09Z</time>
      </trkpt>
      <trkpt lat="45.64442" lon="6.86609">
        <ele>2189.8</ele>
        <time>2016-05-06T13:30:11Z</time>
      </trkpt>
      <trkpt lat="45.64438" lon="6.86609">
        <ele>2189.3</ele>
        <time>2016-05-06T13:30:13Z</time>
      </trkpt>
      <trkpt lat="45.64434" lon="6.86608">
        <ele>2188.9</ele>
        <time>2016-05-06T13:30:15Z</time>
      </trkpt>
      <trkpt lat="45.6443" lon="6.86608">
        <ele>2188.6</ele>
        <time>2016-05-06T13:30:17Z</time>
      </trkpt>
      <trkpt lat="45.64426" lon="6.86607">
        <ele>2188.1</ele>
        <time>2016-05-06T13:30:19Z</time>
      </trkpt>
      <trkpt lat="45.64421" lon="6.86606">
        <ele>2187.7</ele>
        <time>2016-05-06T13:30:21Z</time>
      </trkpt>
      <trkpt lat="45.64417" lon="6.86606">
        <ele>2187.4</ele>
        <time>2016-05-06T13:30:23Z</time>
      </trkpt>
      <trkpt lat="45.64412" lon="6.86605">
        <ele>2187.1</ele>
        <time>2016-05-06T13:30:25Z</time>
      </trkpt>
      <trkpt lat="45.64406" lon="6.86605">
        <ele>2186.9</ele>
        <time>2016-05-06T13:30:27Z</time>
      </trkpt>
      <trkpt lat="45.644" lon="6.86605">
        <ele>2186.5</ele>
        <time>2016-05-06T13:30:29Z</time>
      </trkpt>
      <trkpt lat="45.64394" lon="6.86603">
        <ele>2186</ele>
        <time>2016-05-06T13:30:31Z</time>
      </trkpt>
      <trkpt lat="45.64388" lon="6.86602">
        <ele>2185.5</ele>
        <time>2016-05-06T13:30:33Z</time>
      </trkpt>
      <trkpt lat="45.64383" lon="6.86601">
        <ele>2185.2</ele>
        <time>2016-05-06T13:30:35Z</time>
      </trkpt>
      <trkpt lat="45.64377" lon="6.866">
        <ele>2184.7</ele>
        <time>2016-05-06T13:30:37Z</time>
      </trkpt>
      <trkpt lat="45.64371" lon="6.86599">
        <ele>2184.3</ele>
        <time>2016-05-06T13:30:39Z</time>
      </trkpt>
      <trkpt lat="45.64365" lon="6.86599">
        <ele>2184</ele>
        <time>2016-05-06T13:30:41Z</time>
      </trkpt>
      <trkpt lat="45.6436" lon="6.86598">
        <ele>2183.4</ele>
        <time>2016-05-06T13:30:43Z</time>
      </trkpt>
      <trkpt lat="45.64354" lon="6.86597">
        <ele>2182.8</ele>
        <time>2016-05-06T13:30:45Z</time>
      </trkpt>
      <trkpt lat="45.64347" lon="6.86597">
        <ele>2182.3</ele>
        <time>2016-05-06T13:30:47Z</time>
      </trkpt>
      <trkpt lat="45.64341" lon="6.86596">
        <ele>2181.8</ele>
        <time>2016-05-06T13:30:49Z</time>
      </trkpt>
      <trkpt lat="45.64336" lon="6.86596">
        <ele>2181.2</ele>
        <time>2016-05-06T13:30:51Z</time>
      </trkpt>
      <trkpt lat="45.64329" lon="6.86594">
        <ele>2180.5</ele>
        <time>2016-05-06T13:30:53Z</time>
      </trkpt>
      <trkpt lat="45.64324" lon="6.86593">
        <ele>2179.9</ele>
        <time>2016-05-06T13:30:55Z</time>
      </trkpt>
      <trkpt lat="45.64319" lon="6.86591">
        <ele>2179.3</ele>
        <time>2016-05-06T13:30:57Z</time>
      </trkpt>
      <trkpt lat="45.64314" lon="6.86589">
        <ele>2178.7</ele>
        <time>2016-05-06T13:30:59Z</time>
      </trkpt>
      <trkpt lat="45.6431" lon="6.86586">
        <ele>2178.4</ele>
        <time>2016-05-06T13:31:01Z</time>
      </trkpt>
      <trkpt lat="45.64307" lon="6.86583">
        <ele>2178.1</ele>
        <time>2016-05-06T13:31:03Z</time>
      </trkpt>
      <trkpt lat="45.64304" lon="6.8658">
        <ele>2177.9</ele>
        <time>2016-05-06T13:31:05Z</time>
      </trkpt>
      <trkpt lat="45.64301" lon="6.86578">
        <ele>2177.6</ele>
        <time>2016-05-06T13:31:07Z</time>
      </trkpt>
      <trkpt lat="45.64298" lon="6.86574">
        <ele>2177.5</ele>
        <time>2016-05-06T13:31:09Z</time>
      </trkpt>
      <trkpt lat="45.64295" lon="6.8657">
        <ele>2177.2</ele>
        <time>2016-05-06T13:31:11Z</time>
      </trkpt>
      <trkpt lat="45.64291" lon="6.86565">
        <ele>2176.9</ele>
        <time>2016-05-06T13:31:13Z</time>
      </trkpt>
      <trkpt lat="45.64287" lon="6.8656">
        <ele>2176.5</ele>
        <time>2016-05-06T13:31:15Z</time>
      </trkpt>
      <trkpt lat="45.64283" lon="6.86553">
        <ele>2175.9</ele>
        <time>2016-05-06T13:31:17Z</time>
      </trkpt>
      <trkpt lat="45.64277" lon="6.86546">
        <ele>2175.2</ele>
        <time>2016-05-06T13:31:19Z</time>
      </trkpt>
      <trkpt lat="45.64271" lon="6.86537">
        <ele>2174.6</ele>
        <time>2016-05-06T13:31:21Z</time>
      </trkpt>
      <trkpt lat="45.64265" lon="6.86527">
        <ele>2173.6</ele>
        <time>2016-05-06T13:31:23Z</time>
      </trkpt>
      <trkpt lat="45.64257" lon="6.86518">
        <ele>2172.4</ele>
        <time>2016-05-06T13:31:25Z</time>
      </trkpt>
      <trkpt lat="45.64248" lon="6.86511">
        <ele>2171.2</ele>
        <time>2016-05-06T13:31:27Z</time>
      </trkpt>
      <trkpt lat="45.6424" lon="6.86506">
        <ele>2170.1</ele>
        <time>2016-05-06T13:31:29Z</time>
      </trkpt>
      <trkpt lat="45.64233" lon="6.86503">
        <ele>2169</ele>
        <time>2016-05-06T13:31:31Z</time>
      </trkpt>
      <trkpt lat="45.64227" lon="6.86501">
        <ele>2168.2</ele>
        <time>2016-05-06T13:31:33Z</time>
      </trkpt>
      <trkpt lat="45.64222" lon="6.865">
        <ele>2167.6</ele>
        <time>2016-05-06T13:31:35Z</time>
      </trkpt>
      <trkpt lat="45.64216" lon="6.86498">
        <ele>2166.8</ele>
        <time>2016-05-06T13:31:37Z</time>
      </trkpt>
      <trkpt lat="45.6421" lon="6.86497">
        <ele>2166.2</ele>
        <time>2016-05-06T13:31:39Z</time>
      </trkpt>
      <trkpt lat="45.64205" lon="6.86494">
        <ele>2165.6</ele>
        <time>2016-05-06T13:31:41Z</time>
      </trkpt>
      <trkpt lat="45.642" lon="6.86493">
        <ele>2165.2</ele>
        <time>2016-05-06T13:31:43Z</time>
      </trkpt>
      <trkpt lat="45.64195" lon="6.86492">
        <ele>2164.8</ele>
        <time>2016-05-06T13:31:45Z</time>
      </trkpt>
      <trkpt lat="45.6419" lon="6.86491">
        <ele>2164.4</ele>
        <time>2016-05-06T13:31:47Z</time>
      </trkpt>
      <trkpt lat="45.64185" lon="6.8649">
        <ele>2164.2</ele>
        <time>2016-05-06T13:31:49Z</time>
      </trkpt>
      <trkpt lat="45.64181" lon="6.86489">
        <ele>2163.6</ele>
        <time>2016-05-06T13:31:51Z</time>
      </trkpt>
      <trkpt lat="45.64177" lon="6.86488">
        <ele>2163.4</ele>
        <time>2016-05-06T13:31:53Z</time>
      </trkpt>
      <trkpt lat="45.64172" lon="6.86489">
        <ele>2163.3</ele>
        <time>2016-05-06T13:31:55Z</time>
      </trkpt>
      <trkpt lat="45.64167" lon="6.86488">
        <ele>2163.3</ele>
        <time>2016-05-06T13:31:57Z</time>
      </trkpt>
      <trkpt lat="45.64163" lon="6.86487">
        <ele>2163.1</ele>
        <time>2016-05-06T13:31:59Z</time>
      </trkpt>
      <trkpt lat="45.64159" lon="6.86485">
        <ele>2162.9</ele>
        <time>2016-05-06T13:32:01Z</time>
      </trkpt>
      <trkpt lat="45.64155" lon="6.86482">
        <ele>2162.6</ele>
        <time>2016-05-06T13:32:03Z</time>
      </trkpt>
      <trkpt lat="45.64152" lon="6.86479">
        <ele>2162.4</ele>
        <time>2016-05-06T13:32:05Z</time>
      </trkpt>
      <trkpt lat="45.64149" lon="6.86476">
        <ele>2162.2</ele>
        <time>2016-05-06T13:32:07Z</time>
      </trkpt>
      <trkpt lat="45.64147" lon="6.86471">
        <ele>2162</ele>
        <time>2016-05-06T13:32:09Z</time>
      </trkpt>
      <trkpt lat="45.64144" lon="6.86467">
        <ele>2161.6</ele>
        <time>2016-05-06T13:32:11Z</time>
      </trkpt>
      <trkpt lat="45.6414" lon="6.8646">
        <ele>2161</ele>
        <time>2016-05-06T13:32:13Z</time>
      </trkpt>
      <trkpt lat="45.64134" lon="6.86452">
        <ele>2160.2</ele>
        <time>2016-05-06T13:32:15Z</time>
      </trkpt>
      <trkpt lat="45.64127" lon="6.86445">
        <ele>2159.5</ele>
        <time>2016-05-06T13:32:17Z</time>
      </trkpt>
      <trkpt lat="45.64121" lon="6.86439">
        <ele>2158.5</ele>
        <time>2016-05-06T13:32:19Z</time>
      </trkpt>
      <trkpt lat="45.64115" lon="6.86434">
        <ele>2157.8</ele>
        <time>2016-05-06T13:32:21Z</time>
      </trkpt>
      <trkpt lat="45.64111" lon="6.86431">
        <ele>2157.2</ele>
        <time>2016-05-06T13:32:23Z</time>
      </trkpt>
      <trkpt lat="45.64106" lon="6.8643">
        <ele>2157</ele>
        <time>2016-05-06T13:32:25Z</time>
      </trkpt>
      <trkpt lat="45.641" lon="6.8643">
        <ele>2156.6</ele>
        <time>2016-05-06T13:32:27Z</time>
      </trkpt>
      <trkpt lat="45.64095" lon="6.86427">
        <ele>2156.3</ele>
        <time>2016-05-06T13:32:29Z</time>
      </trkpt>
      <trkpt lat="45.6409" lon="6.86426">
        <ele>2156.1</ele>
        <time>2016-05-06T13:32:31Z</time>
      </trkpt>
      <trkpt lat="45.64087" lon="6.86424">
        <ele>2155.9</ele>
        <time>2016-05-06T13:32:33Z</time>
      </trkpt>
      <trkpt lat="45.64082" lon="6.86423">
        <ele>2155.6</ele>
        <time>2016-05-06T13:32:35Z</time>
      </trkpt>
      <trkpt lat="45.64077" lon="6.8642">
        <ele>2155.2</ele>
        <time>2016-05-06T13:32:37Z</time>
      </trkpt>
      <trkpt lat="45.64071" lon="6.86416">
        <ele>2154.8</ele>
        <time>2016-05-06T13:32:39Z</time>
      </trkpt>
      <trkpt lat="45.64064" lon="6.86411">
        <ele>2154.1</ele>
        <time>2016-05-06T13:32:41Z</time>
      </trkpt>
      <trkpt lat="45.64058" lon="6.86406">
        <ele>2153.4</ele>
        <time>2016-05-06T13:32:43Z</time>
      </trkpt>
      <trkpt lat="45.64051" lon="6.86402">
        <ele>2152.5</ele>
        <time>2016-05-06T13:32:45Z</time>
      </trkpt>
      <trkpt lat="45.64044" lon="6.86396">
        <ele>2151.8</ele>
        <time>2016-05-06T13:32:47Z</time>
      </trkpt>
      <trkpt lat="45.64038" lon="6.86391">
        <ele>2151</ele>
        <time>2016-05-06T13:32:49Z</time>
      </trkpt>
      <trkpt lat="45.64032" lon="6.86388">
        <ele>2150.2</ele>
        <time>2016-05-06T13:32:51Z</time>
      </trkpt>
      <trkpt lat="45.64026" lon="6.86384">
        <ele>2149.7</ele>
        <time>2016-05-06T13:32:53Z</time>
      </trkpt>
      <trkpt lat="45.64022" lon="6.86379">
        <ele>2149.1</ele>
        <time>2016-05-06T13:32:55Z</time>
      </trkpt>
      <trkpt lat="45.64017" lon="6.86376">
        <ele>2148.5</ele>
        <time>2016-05-06T13:32:57Z</time>
      </trkpt>
      <trkpt lat="45.64012" lon="6.86372">
        <ele>2147.9</ele>
        <time>2016-05-06T13:32:59Z</time>
      </trkpt>
      <trkpt lat="45.64006" lon="6.86368">
        <ele>2147.4</ele>
        <time>2016-05-06T13:33:01Z</time>
      </trkpt>
      <trkpt lat="45.63999" lon="6.86363">
        <ele>2146.7</ele>
        <time>2016-05-06T13:33:03Z</time>
      </trkpt>
      <trkpt lat="45.63991" lon="6.86357">
        <ele>2146</ele>
        <time>2016-05-06T13:33:05Z</time>
      </trkpt>
      <trkpt lat="45.6398" lon="6.8635">
        <ele>2144.8</ele>
        <time>2016-05-06T13:33:07Z</time>
      </trkpt>
      <trkpt lat="45.63966" lon="6.86345">
        <ele>2142.8</ele>
        <time>2016-05-06T13:33:09Z</time>
      </trkpt>
      <trkpt lat="45.63952" lon="6.86339">
        <ele>2140.9</ele>
        <time>2016-05-06T13:33:11Z</time>
      </trkpt>
      <trkpt lat="45.6394" lon="6.86333">
        <ele>2138.7</ele>
        <time>2016-05-06T13:33:13Z</time>
      </trkpt>
      <trkpt lat="45.6393" lon="6.86325">
        <ele>2137</ele>
        <time>2016-05-06T13:33:15Z</time>
      </trkpt>
      <trkpt lat="45.63919" lon="6.86317">
        <ele>2135.2</ele>
        <time>2016-05-06T13:33:17Z</time>
      </trkpt>
      <trkpt lat="45.63909" lon="6.86311">
        <ele>2133.7</ele>
        <time>2016-05-06T13:33:19Z</time>
      </trkpt>
      <trkpt lat="45.63898" lon="6.86305">
        <ele>2132.2</ele>
        <time>2016-05-06T13:33:21Z</time>
      </trkpt>
      <trkpt lat="45.63888" lon="6.86301">
        <ele>2130.9</ele>
        <time>2016-05-06T13:33:23Z</time>
      </trkpt>
      <trkpt lat="45.63878" lon="6.86297">
        <ele>2129.6</ele>
        <time>2016-05-06T13:33:25Z</time>
      </trkpt>
      <trkpt lat="45.63869" lon="6.86293">
        <ele>2128.3</ele>
        <time>2016-05-06T13:33:27Z</time>
      </trkpt>
      <trkpt lat="45.63861" lon="6.86289">
        <ele>2127.3</ele>
        <time>2016-05-06T13:33:29Z</time>
      </trkpt>
      <trkpt lat="45.63853" lon="6.86286">
        <ele>2126.1</ele>
        <time>2016-05-06T13:33:31Z</time>
      </trkpt>
      <trkpt lat="45.63844" lon="6.86282">
        <ele>2124.8</ele>
        <time>2016-05-06T13:33:33Z</time>
      </trkpt>
      <trkpt lat="45.63834" lon="6.86278">
        <ele>2123.5</ele>
        <time>2016-05-06T13:33:35Z</time>
      </trkpt>
      <trkpt lat="45.63825" lon="6.86275">
        <ele>2122.4</ele>
        <time>2016-05-06T13:33:37Z</time>
      </trkpt>
      <trkpt lat="45.63815" lon="6.86271">
        <ele>2121.4</ele>
        <time>2016-05-06T13:33:39Z</time>
      </trkpt>
      <trkpt lat="45.63806" lon="6.86266">
        <ele>2120.4</ele>
        <time>2016-05-06T13:33:41Z</time>
      </trkpt>
      <trkpt lat="45.63798" lon="6.86258">
        <ele>2119.3</ele>
        <time>2016-05-06T13:33:43Z</time>
      </trkpt>
      <trkpt lat="45.6379" lon="6.86251">
        <ele>2118.2</ele>
        <time>2016-05-06T13:33:45Z</time>
      </trkpt>
      <trkpt lat="45.63781" lon="6.86242">
        <ele>2117.2</ele>
        <time>2016-05-06T13:33:47Z</time>
      </trkpt>
      <trkpt lat="45.63771" lon="6.86235">
        <ele>2115.7</ele>
        <time>2016-05-06T13:33:49Z</time>
      </trkpt>
      <trkpt lat="45.6376" lon="6.86228">
        <ele>2114.2</ele>
        <time>2016-05-06T13:33:51Z</time>
      </trkpt>
      <trkpt lat="45.63748" lon="6.86221">
        <ele>2112.7</ele>
        <time>2016-05-06T13:33:53Z</time>
      </trkpt>
      <trkpt lat="45.63736" lon="6.86214">
        <ele>2110.9</ele>
        <time>2016-05-06T13:33:55Z</time>
      </trkpt>
      <trkpt lat="45.63722" lon="6.86207">
        <ele>2109.1</ele>
        <time>2016-05-06T13:33:57Z</time>
      </trkpt>
      <trkpt lat="45.63707" lon="6.86201">
        <ele>2107.2</ele>
        <time>2016-05-06T13:33:59Z</time>
      </trkpt>
      <trkpt lat="45.63692" lon="6.86196">
        <ele>2105.2</ele>
        <time>2016-05-06T13:34:01Z</time>
      </trkpt>
      <trkpt lat="45.63679" lon="6.86193">
        <ele>2103.3</ele>
        <time>2016-05-06T13:34:03Z</time>
      </trkpt>
      <trkpt lat="45.63667" lon="6.8619">
        <ele>2101.7</ele>
        <time>2016-05-06T13:34:05Z</time>
      </trkpt>
      <trkpt lat="45.63659" lon="6.86188">
        <ele>2100.6</ele>
        <time>2016-05-06T13:34:07Z</time>
      </trkpt>
      <trkpt lat="45.63652" lon="6.86187">
        <ele>2099.6</ele>
        <time>2016-05-06T13:34:09Z</time>
      </trkpt>
      <trkpt lat="45.63647" lon="6.86188">
        <ele>2098.8</ele>
        <time>2016-05-06T13:34:11Z</time>
      </trkpt>
      <trkpt lat="45.63643" lon="6.8619">
        <ele>2098.4</ele>
        <time>2016-05-06T13:34:13Z</time>
      </trkpt>
      <trkpt lat="45.63639" lon="6.86191">
        <ele>2097.8</ele>
        <time>2016-05-06T13:34:15Z</time>
      </trkpt>
      <trkpt lat="45.63635" lon="6.86191">
        <ele>2097.3</ele>
        <time>2016-05-06T13:34:17Z</time>
      </trkpt>
      <trkpt lat="45.6363" lon="6.86191">
        <ele>2097</ele>
        <time>2016-05-06T13:34:19Z</time>
      </trkpt>
      <trkpt lat="45.63625" lon="6.8619">
        <ele>2096.6</ele>
        <time>2016-05-06T13:34:21Z</time>
      </trkpt>
      <trkpt lat="45.63622" lon="6.86187">
        <ele>2096.3</ele>
        <time>2016-05-06T13:34:23Z</time>
      </trkpt>
      <trkpt lat="45.6362" lon="6.86185">
        <ele>2095.8</ele>
        <time>2016-05-06T13:34:25Z</time>
      </trkpt>
      <trkpt lat="45.6362" lon="6.86184">
        <ele>2095.6</ele>
        <time>2016-05-06T13:34:27Z</time>
      </trkpt>
      <trkpt lat="45.63619" lon="6.86183">
        <ele>2095.3</ele>
        <time>2016-05-06T13:34:29Z</time>
      </trkpt>
      <trkpt lat="45.63619" lon="6.86182">
        <ele>2095.1</ele>
        <time>2016-05-06T13:34:31Z</time>
      </trkpt>
      <trkpt lat="45.63619" lon="6.86182">
        <ele>2094.9</ele>
        <time>2016-05-06T13:34:33Z</time>
      </trkpt>
      <trkpt lat="45.63618" lon="6.86183">
        <ele>2094.9</ele>
        <time>2016-05-06T13:34:35Z</time>
      </trkpt>
      <trkpt lat="45.63618" lon="6.86183">
        <ele>2094.8</ele>
        <time>2016-05-06T13:34:37Z</time>
      </trkpt>
      <trkpt lat="45.63618" lon="6.86183">
        <ele>2094.8</ele>
        <time>2016-05-06T13:34:39Z</time>
      </trkpt>
      <trkpt lat="45.63618" lon="6.86183">
        <ele>2094.8</ele>
        <time>2016-05-06T13:34:41Z</time>
      </trkpt>
      <trkpt lat="45.63618" lon="6.86184">
        <ele>2094.7</ele>
        <time>2016-05-06T13:34:43Z</time>
      </trkpt>
      <trkpt lat="45.63617" lon="6.86186">
        <ele>2094.3</ele>
        <time>2016-05-06T13:34:45Z</time>
      </trkpt>
      <trkpt lat="45.63613" lon="6.86187">
        <ele>2094.4</ele>
        <time>2016-05-06T13:34:47Z</time>
      </trkpt>
      <trkpt lat="45.63606" lon="6.86193">
        <ele>2093.6</ele>
        <time>2016-05-06T13:34:49Z</time>
      </trkpt>
      <trkpt lat="45.63597" lon="6.86198">
        <ele>2091.8</ele>
        <time>2016-05-06T13:34:51Z</time>
      </trkpt>
      <trkpt lat="45.63587" lon="6.86201">
        <ele>2090.1</ele>
        <time>2016-05-06T13:34:53Z</time>
      </trkpt>
      <trkpt lat="45.63577" lon="6.86201">
        <ele>2088</ele>
        <time>2016-05-06T13:34:55Z</time>
      </trkpt>
      <trkpt lat="45.63565" lon="6.86193">
        <ele>2085.4</ele>
        <time>2016-05-06T13:34:57Z</time>
      </trkpt>
      <trkpt lat="45.6355" lon="6.86182">
        <ele>2082.3</ele>
        <time>2016-05-06T13:34:59Z</time>
      </trkpt>
      <trkpt lat="45.63536" lon="6.86172">
        <ele>2078.1</ele>
        <time>2016-05-06T13:35:01Z</time>
      </trkpt>
      <trkpt lat="45.6352" lon="6.86171">
        <ele>2073.9</ele>
        <time>2016-05-06T13:35:03Z</time>
      </trkpt>
      <trkpt lat="45.63504" lon="6.86177">
        <ele>2069</ele>
        <time>2016-05-06T13:35:05Z</time>
      </trkpt>
      <trkpt lat="45.63488" lon="6.86187">
        <ele>2064.4</ele>
        <time>2016-05-06T13:35:07Z</time>
      </trkpt>
      <trkpt lat="45.63473" lon="6.86196">
        <ele>2060</ele>
        <time>2016-05-06T13:35:09Z</time>
      </trkpt>
      <trkpt lat="45.63461" lon="6.86203">
        <ele>2055.7</ele>
        <time>2016-05-06T13:35:11Z</time>
      </trkpt>
      <trkpt lat="45.63446" lon="6.86212">
        <ele>2051.2</ele>
        <time>2016-05-06T13:35:13Z</time>
      </trkpt>
      <trkpt lat="45.63429" lon="6.86224">
        <ele>2046.2</ele>
        <time>2016-05-06T13:35:15Z</time>
      </trkpt>
      <trkpt lat="45.63409" lon="6.8624">
        <ele>2039.2</ele>
        <time>2016-05-06T13:35:17Z</time>
      </trkpt>
      <trkpt lat="45.63386" lon="6.86252">
        <ele>2033</ele>
        <time>2016-05-06T13:35:19Z</time>
      </trkpt>
      <trkpt lat="45.63361" lon="6.86263">
        <ele>2026.5</ele>
        <time>2016-05-06T13:35:21Z</time>
      </trkpt>
      <trkpt lat="45.63337" lon="6.86275">
        <ele>2019.7</ele>
        <time>2016-05-06T13:35:23Z</time>
      </trkpt>
      <trkpt lat="45.63312" lon="6.86283">
        <ele>2013.8</ele>
        <time>2016-05-06T13:35:25Z</time>
      </trkpt>
      <trkpt lat="45.63288" lon="6.86291">
        <ele>2008.9</ele>
        <time>2016-05-06T13:35:27Z</time>
      </trkpt>
      <trkpt lat="45.63266" lon="6.86299">
        <ele>2003.4</ele>
        <time>2016-05-06T13:35:29Z</time>
      </trkpt>
      <trkpt lat="45.63246" lon="6.86307">
        <ele>1997.9</ele>
        <time>2016-05-06T13:35:31Z</time>
      </trkpt>
      <trkpt lat="45.63227" lon="6.86314">
        <ele>1992.5</ele>
        <time>2016-05-06T13:35:33Z</time>
      </trkpt>
      <trkpt lat="45.63211" lon="6.8632">
        <ele>1987.9</ele>
        <time>2016-05-06T13:35:35Z</time>
      </trkpt>
      <trkpt lat="45.63195" lon="6.86324">
        <ele>1984.4</ele>
        <time>2016-05-06T13:35:37Z</time>
      </trkpt>
      <trkpt lat="45.63179" lon="6.86328">
        <ele>1981.4</ele>
        <time>2016-05-06T13:35:39Z</time>
      </trkpt>
      <trkpt lat="45.63162" lon="6.86334">
        <ele>1977.5</ele>
        <time>2016-05-06T13:35:41Z</time>
      </trkpt>
      <trkpt lat="45.63145" lon="6.86338">
        <ele>1974.6</ele>
        <time>2016-05-06T13:35:43Z</time>
      </trkpt>
      <trkpt lat="45.63126" lon="6.86345">
        <ele>1971.4</ele>
        <time>2016-05-06T13:35:45Z</time>
      </trkpt>
      <trkpt lat="45.63106" lon="6.8635">
        <ele>1968.2</ele>
        <time>2016-05-06T13:35:47Z</time>
      </trkpt>
      <trkpt lat="45.63086" lon="6.86355">
        <ele>1964.8</ele>
        <time>2016-05-06T13:35:49Z</time>
      </trkpt>
      <trkpt lat="45.63065" lon="6.86361">
        <ele>1960.6</ele>
        <time>2016-05-06T13:35:51Z</time>
      </trkpt>
      <trkpt lat="45.63044" lon="6.86372">
        <ele>1956</ele>
        <time>2016-05-06T13:35:53Z</time>
      </trkpt>
      <trkpt lat="45.63023" lon="6.86385">
        <ele>1949.3</ele>
        <time>2016-05-06T13:35:55Z</time>
      </trkpt>
      <trkpt lat="45.63004" lon="6.86397">
        <ele>1944.3</ele>
        <time>2016-05-06T13:35:57Z</time>
      </trkpt>
      <trkpt lat="45.62987" lon="6.86405">
        <ele>1939.7</ele>
        <time>2016-05-06T13:35:59Z</time>
      </trkpt>
      <trkpt lat="45.6297" lon="6.8641">
        <ele>1936.2</ele>
        <time>2016-05-06T13:36:01Z</time>
      </trkpt>
      <trkpt lat="45.62959" lon="6.86414">
        <ele>1933.4</ele>
        <time>2016-05-06T13:36:03Z</time>
      </trkpt>
      <trkpt lat="45.6295" lon="6.86418">
        <ele>1931.3</ele>
        <time>2016-05-06T13:36:05Z</time>
      </trkpt>
      <trkpt lat="45.6294" lon="6.86424">
        <ele>1929.6</ele>
        <time>2016-05-06T13:36:07Z</time>
      </trkpt>
      <trkpt lat="45.62933" lon="6.8643">
        <ele>1928.1</ele>
        <time>2016-05-06T13:36:09Z</time>
      </trkpt>
      <trkpt lat="45.62926" lon="6.86439">
        <ele>1926.9</ele>
        <time>2016-05-06T13:36:11Z</time>
      </trkpt>
      <trkpt lat="45.62921" lon="6.86448">
        <ele>1925.5</ele>
        <time>2016-05-06T13:36:13Z</time>
      </trkpt>
      <trkpt lat="45.6292" lon="6.86455">
        <ele>1924.5</ele>
        <time>2016-05-06T13:36:15Z</time>
      </trkpt>
      <trkpt lat="45.62917" lon="6.86463">
        <ele>1923.8</ele>
        <time>2016-05-06T13:36:17Z</time>
      </trkpt>
      <trkpt lat="45.62915" lon="6.86468">
        <ele>1923.1</ele>
        <time>2016-05-06T13:36:19Z</time>
      </trkpt>
      <trkpt lat="45.62913" lon="6.86474">
        <ele>1922.6</ele>
        <time>2016-05-06T13:36:21Z</time>
      </trkpt>
      <trkpt lat="45.62911" lon="6.86478">
        <ele>1922.3</ele>
        <time>2016-05-06T13:36:23Z</time>
      </trkpt>
      <trkpt lat="45.6291" lon="6.86482">
        <ele>1922.2</ele>
        <time>2016-05-06T13:36:25Z</time>
      </trkpt>
      <trkpt lat="45.62908" lon="6.86487">
        <ele>1922</ele>
        <time>2016-05-06T13:36:27Z</time>
      </trkpt>
      <trkpt lat="45.62907" lon="6.86492">
        <ele>1921.5</ele>
        <time>2016-05-06T13:36:29Z</time>
      </trkpt>
      <trkpt lat="45.62904" lon="6.86499">
        <ele>1921.1</ele>
        <time>2016-05-06T13:36:31Z</time>
      </trkpt>
      <trkpt lat="45.62898" lon="6.86506">
        <ele>1920.2</ele>
        <time>2016-05-06T13:36:33Z</time>
      </trkpt>
      <trkpt lat="45.6289" lon="6.86514">
        <ele>1919.5</ele>
        <time>2016-05-06T13:36:35Z</time>
      </trkpt>
      <trkpt lat="45.62878" lon="6.86525">
        <ele>1918.6</ele>
        <time>2016-05-06T13:36:37Z</time>
      </trkpt>
      <trkpt lat="45.62867" lon="6.86541">
        <ele>1914.7</ele>
        <time>2016-05-06T13:36:39Z</time>
      </trkpt>
      <trkpt lat="45.62854" lon="6.86554">
        <ele>1912.8</ele>
        <time>2016-05-06T13:36:41Z</time>
      </trkpt>
      <trkpt lat="45.62842" lon="6.86567">
        <ele>1909.3</ele>
        <time>2016-05-06T13:36:43Z</time>
      </trkpt>
      <trkpt lat="45.62828" lon="6.86579">
        <ele>1905.5</ele>
        <time>2016-05-06T13:36:45Z</time>
      </trkpt>
      <trkpt lat="45.62814" lon="6.86588">
        <ele>1902.1</ele>
        <time>2016-05-06T13:36:47Z</time>
      </trkpt>
      <trkpt lat="45.62799" lon="6.86601">
        <ele>1897.8</ele>
        <time>2016-05-06T13:36:49Z</time>
      </trkpt>
      <trkpt lat="45.62783" lon="6.86612">
        <ele>1894</ele>
        <time>2016-05-06T13:36:51Z</time>
      </trkpt>
      <trkpt lat="45.62767" lon="6.86626">
        <ele>1890</ele>
        <time>2016-05-06T13:36:53Z</time>
      </trkpt>
      <trkpt lat="45.62756" lon="6.86643">
        <ele>1884.9</ele>
        <time>2016-05-06T13:36:55Z</time>
      </trkpt>
      <trkpt lat="45.62747" lon="6.86659">
        <ele>1880.3</ele>
        <time>2016-05-06T13:36:57Z</time>
      </trkpt>
      <trkpt lat="45.62742" lon="6.86674">
        <ele>1876.9</ele>
        <time>2016-05-06T13:36:59Z</time>
      </trkpt>
      <trkpt lat="45.62737" lon="6.86687">
        <ele>1872.9</ele>
        <time>2016-05-06T13:37:01Z</time>
      </trkpt>
      <trkpt lat="45.62731" lon="6.86689">
        <ele>1870.4</ele>
        <time>2016-05-06T13:37:03Z</time>
      </trkpt>
      <trkpt lat="45.62725" lon="6.86689">
        <ele>1868.5</ele>
        <time>2016-05-06T13:37:05Z</time>
      </trkpt>
      <trkpt lat="45.62716" lon="6.86693">
        <ele>1866.7</ele>
        <time>2016-05-06T13:37:07Z</time>
      </trkpt>
      <trkpt lat="45.62709" lon="6.86697">
        <ele>1865</ele>
        <time>2016-05-06T13:37:09Z</time>
      </trkpt>
      <trkpt lat="45.62702" lon="6.86699">
        <ele>1863.3</ele>
        <time>2016-05-06T13:37:11Z</time>
      </trkpt>
      <trkpt lat="45.62695" lon="6.86701">
        <ele>1861.7</ele>
        <time>2016-05-06T13:37:13Z</time>
      </trkpt>
      <trkpt lat="45.62691" lon="6.86701">
        <ele>1860.7</ele>
        <time>2016-05-06T13:37:15Z</time>
      </trkpt>
      <trkpt lat="45.62686" lon="6.86701">
        <ele>1859.7</ele>
        <time>2016-05-06T13:37:17Z</time>
      </trkpt>
      <trkpt lat="45.62683" lon="6.86703">
        <ele>1859.2</ele>
        <time>2016-05-06T13:37:19Z</time>
      </trkpt>
      <trkpt lat="45.62683" lon="6.86702">
        <ele>1859.1</ele>
        <time>2016-05-06T13:37:21Z</time>
      </trkpt>
      <trkpt lat="45.62683" lon="6.86702">
        <ele>1858.9</ele>
        <time>2016-05-06T13:37:23Z</time>
      </trkpt>
      <trkpt lat="45.62683" lon="6.86702">
        <ele>1858.9</ele>
        <time>2016-05-06T13:37:25Z</time>
      </trkpt>
      <trkpt lat="45.62682" lon="6.86703">
        <ele>1858.9</ele>
        <time>2016-05-06T13:37:27Z</time>
      </trkpt>
      <trkpt lat="45.62682" lon="6.86703">
        <ele>1858.8</ele>
        <time>2016-05-06T13:37:29Z</time>
      </trkpt>
      <trkpt lat="45.62683" lon="6.86703">
        <ele>1858.8</ele>
        <time>2016-05-06T13:37:31Z</time>
      </trkpt>
      <trkpt lat="45.62683" lon="6.86704">
        <ele>1858.7</ele>
        <time>2016-05-06T13:37:33Z</time>
      </trkpt>
      <trkpt lat="45.62682" lon="6.86705">
        <ele>1858.6</ele>
        <time>2016-05-06T13:37:35Z</time>
      </trkpt>
      <trkpt lat="45.62682" lon="6.86706">
        <ele>1858.5</ele>
        <time>2016-05-06T13:37:37Z</time>
      </trkpt>
      <trkpt lat="45.62682" lon="6.86706">
        <ele>1858.5</ele>
        <time>2016-05-06T13:37:39Z</time>
      </trkpt>
      <trkpt lat="45.62682" lon="6.86706">
        <ele>1858.6</ele>
        <time>2016-05-06T13:37:41Z</time>
      </trkpt>
      <trkpt lat="45.62682" lon="6.86706">
        <ele>1858.6</ele>
        <time>2016-05-06T13:37:43Z</time>
      </trkpt>
      <trkpt lat="45.62683" lon="6.86706">
        <ele>1858.5</ele>
        <time>2016-05-06T13:37:45Z</time>
      </trkpt>
      <trkpt lat="45.62683" lon="6.86706">
        <ele>1858.4</ele>
        <time>2016-05-06T13:37:47Z</time>
      </trkpt>
      <trkpt lat="45.62683" lon="6.86705">
        <ele>1858.2</ele>
        <time>2016-05-06T13:37:49Z</time>
      </trkpt>
      <trkpt lat="45.62683" lon="6.86705">
        <ele>1858.4</ele>
        <time>2016-05-06T13:37:51Z</time>
      </trkpt>
      <trkpt lat="45.62683" lon="6.86705">
        <ele>1858.5</ele>
        <time>2016-05-06T13:37:53Z</time>
      </trkpt>
      <trkpt lat="45.62683" lon="6.86705">
        <ele>1858.4</ele>
        <time>2016-05-06T13:37:55Z</time>
      </trkpt>
      <trkpt lat="45.62683" lon="6.86705">
        <ele>1858.4</ele>
        <time>2016-05-06T13:37:57Z</time>
      </trkpt>
      <trkpt lat="45.62683" lon="6.86705">
        <ele>1858.2</ele>
        <time>2016-05-06T13:37:59Z</time>
      </trkpt>
      <trkpt lat="45.62682" lon="6.86704">
        <ele>1858.2</ele>
        <time>2016-05-06T13:38:01Z</time>
      </trkpt>
      <trkpt lat="45.62682" lon="6.86704">
        <ele>1858.3</ele>
        <time>2016-05-06T13:38:03Z</time>
      </trkpt>
      <trkpt lat="45.62681" lon="6.86704">
        <ele>1858.2</ele>
        <time>2016-05-06T13:38:05Z</time>
      </trkpt>
      <trkpt lat="45.62681" lon="6.86703">
        <ele>1858.2</ele>
        <time>2016-05-06T13:38:07Z</time>
      </trkpt>
      <trkpt lat="45.6268" lon="6.86703">
        <ele>1858.4</ele>
        <time>2016-05-06T13:38:09Z</time>
      </trkpt>
      <trkpt lat="45.6268" lon="6.86703">
        <ele>1858.4</ele>
        <time>2016-05-06T13:38:11Z</time>
      </trkpt>
      <trkpt lat="45.62681" lon="6.86703">
        <ele>1858.7</ele>
        <time>2016-05-06T13:38:13Z</time>
      </trkpt>
      <trkpt lat="45.62681" lon="6.86703">
        <ele>1858.7</ele>
        <time>2016-05-06T13:38:15Z</time>
      </trkpt>
      <trkpt lat="45.62681" lon="6.86704">
        <ele>1858.7</ele>
        <time>2016-05-06T13:38:17Z</time>
      </trkpt>
      <trkpt lat="45.62681" lon="6.86704">
        <ele>1858.7</ele>
        <time>2016-05-06T13:38:19Z</time>
      </trkpt>
      <trkpt lat="45.62681" lon="6.86704">
        <ele>1858.8</ele>
        <time>2016-05-06T13:38:21Z</time>
      </trkpt>
      <trkpt lat="45.62681" lon="6.86704">
        <ele>1858.8</ele>
        <time>2016-05-06T13:38:23Z</time>
      </trkpt>
      <trkpt lat="45.62681" lon="6.86703">
        <ele>1858.6</ele>
        <time>2016-05-06T13:38:25Z</time>
      </trkpt>
      <trkpt lat="45.62681" lon="6.86703">
        <ele>1858.5</ele>
        <time>2016-05-06T13:38:27Z</time>
      </trkpt>
      <trkpt lat="45.62681" lon="6.86703">
        <ele>1858.6</ele>
        <time>2016-05-06T13:38:29Z</time>
      </trkpt>
      <trkpt lat="45.62681" lon="6.86703">
        <ele>1858.6</ele>
        <time>2016-05-06T13:38:31Z</time>
      </trkpt>
      <trkpt lat="45.62681" lon="6.86703">
        <ele>1858.7</ele>
        <time>2016-05-06T13:38:33Z</time>
      </trkpt>
      <trkpt lat="45.62681" lon="6.86703">
        <ele>1858.5</ele>
        <time>2016-05-06T13:38:35Z</time>
      </trkpt>
      <trkpt lat="45.62681" lon="6.86702">
        <ele>1857.6</ele>
        <time>2016-05-06T13:38:37Z</time>
      </trkpt>
      <trkpt lat="45.62681" lon="6.86702">
        <ele>1858</ele>
        <time>2016-05-06T13:38:39Z</time>
      </trkpt>
      <trkpt lat="45.62681" lon="6.86702">
        <ele>1858.1</ele>
        <time>2016-05-06T13:38:41Z</time>
      </trkpt>
      <trkpt lat="45.62681" lon="6.86702">
        <ele>1858.1</ele>
        <time>2016-05-06T13:38:43Z</time>
      </trkpt>
      <trkpt lat="45.62681" lon="6.86701">
        <ele>1858.1</ele>
        <time>2016-05-06T13:38:45Z</time>
      </trkpt>
      <trkpt lat="45.62681" lon="6.86701">
        <ele>1858</ele>
        <time>2016-05-06T13:38:47Z</time>
      </trkpt>
      <trkpt lat="45.62681" lon="6.86701">
        <ele>1857.7</ele>
        <time>2016-05-06T13:38:49Z</time>
      </trkpt>
      <trkpt lat="45.6268" lon="6.86701">
        <ele>1858.1</ele>
        <time>2016-05-06T13:38:51Z</time>
      </trkpt>
      <trkpt lat="45.6268" lon="6.867">
        <ele>1858.2</ele>
        <time>2016-05-06T13:38:53Z</time>
      </trkpt>
      <trkpt lat="45.6268" lon="6.867">
        <ele>1858.2</ele>
        <time>2016-05-06T13:38:55Z</time>
      </trkpt>
      <trkpt lat="45.62679" lon="6.867">
        <ele>1858.3</ele>
        <time>2016-05-06T13:38:57Z</time>
      </trkpt>
      <trkpt lat="45.62679" lon="6.867">
        <ele>1858.5</ele>
        <time>2016-05-06T13:38:59Z</time>
      </trkpt>
      <trkpt lat="45.62679" lon="6.867">
        <ele>1858.6</ele>
        <time>2016-05-06T13:39:01Z</time>
      </trkpt>
      <trkpt lat="45.62679" lon="6.86701">
        <ele>1858.7</ele>
        <time>2016-05-06T13:39:03Z</time>
      </trkpt>
      <trkpt lat="45.62678" lon="6.86701">
        <ele>1858.7</ele>
        <time>2016-05-06T13:39:05Z</time>
      </trkpt>
      <trkpt lat="45.62679" lon="6.867">
        <ele>1858.3</ele>
        <time>2016-05-06T13:39:07Z</time>
      </trkpt>
      <trkpt lat="45.62678" lon="6.867">
        <ele>1858.2</ele>
        <time>2016-05-06T13:39:09Z</time>
      </trkpt>
      <trkpt lat="45.62678" lon="6.86701">
        <ele>1858.2</ele>
        <time>2016-05-06T13:39:11Z</time>
      </trkpt>
      <trkpt lat="45.62678" lon="6.86701">
        <ele>1858.7</ele>
        <time>2016-05-06T13:39:13Z</time>
      </trkpt>
      <trkpt lat="45.62678" lon="6.86701">
        <ele>1858.1</ele>
        <time>2016-05-06T13:39:15Z</time>
      </trkpt>
      <trkpt lat="45.62678" lon="6.86701">
        <ele>1858.8</ele>
        <time>2016-05-06T13:39:17Z</time>
      </trkpt>
      <trkpt lat="45.62678" lon="6.86701">
        <ele>1858.6</ele>
        <time>2016-05-06T13:39:19Z</time>
      </trkpt>
      <trkpt lat="45.62679" lon="6.86701">
        <ele>1858.5</ele>
        <time>2016-05-06T13:39:21Z</time>
      </trkpt>
      <trkpt lat="45.62679" lon="6.86701">
        <ele>1858.8</ele>
        <time>2016-05-06T13:39:23Z</time>
      </trkpt>
      <trkpt lat="45.62679" lon="6.86701">
        <ele>1858.7</ele>
        <time>2016-05-06T13:39:25Z</time>
      </trkpt>
      <trkpt lat="45.6268" lon="6.86699">
        <ele>1858.7</ele>
        <time>2016-05-06T13:39:27Z</time>
      </trkpt>
      <trkpt lat="45.62681" lon="6.86701">
        <ele>1858</ele>
        <time>2016-05-06T13:39:29Z</time>
      </trkpt>
      <trkpt lat="45.62682" lon="6.86701">
        <ele>1858.2</ele>
        <time>2016-05-06T13:39:31Z</time>
      </trkpt>
      <trkpt lat="45.62682" lon="6.867">
        <ele>1858.3</ele>
        <time>2016-05-06T13:39:33Z</time>
      </trkpt>
      <trkpt lat="45.62681" lon="6.86701">
        <ele>1858.3</ele>
        <time>2016-05-06T13:39:35Z</time>
      </trkpt>
      <trkpt lat="45.62682" lon="6.86702">
        <ele>1858.3</ele>
        <time>2016-05-06T13:39:37Z</time>
      </trkpt>
      <trkpt lat="45.62682" lon="6.86702">
        <ele>1858.4</ele>
        <time>2016-05-06T13:39:39Z</time>
      </trkpt>
      <trkpt lat="45.62681" lon="6.86704">
        <ele>1858.4</ele>
        <time>2016-05-06T13:39:41Z</time>
      </trkpt>
      <trkpt lat="45.62679" lon="6.86704">
        <ele>1858.4</ele>
        <time>2016-05-06T13:39:43Z</time>
      </trkpt>
      <trkpt lat="45.62677" lon="6.86704">
        <ele>1858.4</ele>
        <time>2016-05-06T13:39:45Z</time>
      </trkpt>
      <trkpt lat="45.62675" lon="6.86704">
        <ele>1858.4</ele>
        <time>2016-05-06T13:39:47Z</time>
      </trkpt>
      <trkpt lat="45.62672" lon="6.86702">
        <ele>1858.4</ele>
        <time>2016-05-06T13:39:49Z</time>
      </trkpt>
      <trkpt lat="45.6267" lon="6.86701">
        <ele>1858.4</ele>
        <time>2016-05-06T13:39:51Z</time>
      </trkpt>
      <trkpt lat="45.62669" lon="6.86699">
        <ele>1858.2</ele>
        <time>2016-05-06T13:39:53Z</time>
      </trkpt>
      <trkpt lat="45.62668" lon="6.86696">
        <ele>1858.2</ele>
        <time>2016-05-06T13:39:55Z</time>
      </trkpt>
      <trkpt lat="45.62668" lon="6.86696">
        <ele>1858.1</ele>
        <time>2016-05-06T13:39:57Z</time>
      </trkpt>
      <trkpt lat="45.62668" lon="6.86695">
        <ele>1857.9</ele>
        <time>2016-05-06T13:39:59Z</time>
      </trkpt>
      <trkpt lat="45.62667" lon="6.86695">
        <ele>1857.7</ele>
        <time>2016-05-06T13:40:01Z</time>
      </trkpt>
      <trkpt lat="45.62667" lon="6.86696">
        <ele>1857.7</ele>
        <time>2016-05-06T13:40:03Z</time>
      </trkpt>
      <trkpt lat="45.62667" lon="6.86694">
        <ele>1857.8</ele>
        <time>2016-05-06T13:40:05Z</time>
      </trkpt>
      <trkpt lat="45.62666" lon="6.86695">
        <ele>1857.9</ele>
        <time>2016-05-06T13:40:07Z</time>
      </trkpt>
      <trkpt lat="45.62665" lon="6.86697">
        <ele>1857.6</ele>
        <time>2016-05-06T13:40:09Z</time>
      </trkpt>
      <trkpt lat="45.62666" lon="6.86697">
        <ele>1857.8</ele>
        <time>2016-05-06T13:40:11Z</time>
      </trkpt>
      <trkpt lat="45.62666" lon="6.86697">
        <ele>1858.6</ele>
        <time>2016-05-06T13:40:13Z</time>
      </trkpt>
      <trkpt lat="45.62666" lon="6.86698">
        <ele>1858.2</ele>
        <time>2016-05-06T13:40:15Z</time>
      </trkpt>
      <trkpt lat="45.62667" lon="6.86697">
        <ele>1858.1</ele>
        <time>2016-05-06T13:40:17Z</time>
      </trkpt>
      <trkpt lat="45.62667" lon="6.86697">
        <ele>1858.3</ele>
        <time>2016-05-06T13:40:19Z</time>
      </trkpt>
      <trkpt lat="45.62667" lon="6.86698">
        <ele>1858.3</ele>
        <time>2016-05-06T13:40:21Z</time>
      </trkpt>
      <trkpt lat="45.62667" lon="6.86698">
        <ele>1858.4</ele>
        <time>2016-05-06T13:40:23Z</time>
      </trkpt>
      <trkpt lat="45.62667" lon="6.86698">
        <ele>1858.5</ele>
        <time>2016-05-06T13:40:25Z</time>
      </trkpt>
      <trkpt lat="45.62668" lon="6.86698">
        <ele>1858.6</ele>
        <time>2016-05-06T13:40:27Z</time>
      </trkpt>
      <trkpt lat="45.62669" lon="6.86698">
        <ele>1858.7</ele>
        <time>2016-05-06T13:40:29Z</time>
      </trkpt>
      <trkpt lat="45.62669" lon="6.86697">
        <ele>1858.7</ele>
        <time>2016-05-06T13:40:31Z</time>
      </trkpt>
      <trkpt lat="45.62669" lon="6.86697">
        <ele>1858.8</ele>
        <time>2016-05-06T13:40:33Z</time>
      </trkpt>
      <trkpt lat="45.62669" lon="6.86697">
        <ele>1858.9</ele>
        <time>2016-05-06T13:40:35Z</time>
      </trkpt>
      <trkpt lat="45.62669" lon="6.86697">
        <ele>1858.8</ele>
        <time>2016-05-06T13:40:37Z</time>
      </trkpt>
      <trkpt lat="45.6267" lon="6.86697">
        <ele>1858.5</ele>
        <time>2016-05-06T13:40:39Z</time>
      </trkpt>
      <trkpt lat="45.62669" lon="6.86696">
        <ele>1858.2</ele>
        <time>2016-05-06T13:40:41Z</time>
      </trkpt>
      <trkpt lat="45.6267" lon="6.86695">
        <ele>1858.3</ele>
        <time>2016-05-06T13:40:43Z</time>
      </trkpt>
      <trkpt lat="45.6267" lon="6.86696">
        <ele>1858.1</ele>
        <time>2016-05-06T13:40:45Z</time>
      </trkpt>
      <trkpt lat="45.62669" lon="6.86696">
        <ele>1858</ele>
        <time>2016-05-06T13:40:47Z</time>
      </trkpt>
      <trkpt lat="45.62668" lon="6.86696">
        <ele>1857.9</ele>
        <time>2016-05-06T13:40:49Z</time>
      </trkpt>
      <trkpt lat="45.62668" lon="6.86696">
        <ele>1857.9</ele>
        <time>2016-05-06T13:40:51Z</time>
      </trkpt>
      <trkpt lat="45.62668" lon="6.86696">
        <ele>1857.1</ele>
        <time>2016-05-06T13:40:53Z</time>
      </trkpt>
      <trkpt lat="45.62669" lon="6.86695">
        <ele>1856.7</ele>
        <time>2016-05-06T13:40:55Z</time>
      </trkpt>
      <trkpt lat="45.62669" lon="6.86695">
        <ele>1857.3</ele>
        <time>2016-05-06T13:40:57Z</time>
      </trkpt>
      <trkpt lat="45.62669" lon="6.86695">
        <ele>1858.1</ele>
        <time>2016-05-06T13:40:59Z</time>
      </trkpt>
      <trkpt lat="45.62668" lon="6.86695">
        <ele>1858.2</ele>
        <time>2016-05-06T13:41:01Z</time>
      </trkpt>
      <trkpt lat="45.62668" lon="6.86695">
        <ele>1858.4</ele>
        <time>2016-05-06T13:41:03Z</time>
      </trkpt>
      <trkpt lat="45.62669" lon="6.86696">
        <ele>1858.4</ele>
        <time>2016-05-06T13:41:05Z</time>
      </trkpt>
      <trkpt lat="45.62669" lon="6.86696">
        <ele>1858.4</ele>
        <time>2016-05-06T13:41:07Z</time>
      </trkpt>
      <trkpt lat="45.62668" lon="6.86696">
        <ele>1858.3</ele>
        <time>2016-05-06T13:41:09Z</time>
      </trkpt>
      <trkpt lat="45.62668" lon="6.86696">
        <ele>1858.3</ele>
        <time>2016-05-06T13:41:11Z</time>
      </trkpt>
      <trkpt lat="45.62669" lon="6.86696">
        <ele>1858.1</ele>
        <time>2016-05-06T13:41:13Z</time>
      </trkpt>
      <trkpt lat="45.62669" lon="6.86695">
        <ele>1858.1</ele>
        <time>2016-05-06T13:41:15Z</time>
      </trkpt>
      <trkpt lat="45.62669" lon="6.86695">
        <ele>1858.2</ele>
        <time>2016-05-06T13:41:17Z</time>
      </trkpt>
      <trkpt lat="45.62669" lon="6.86695">
        <ele>1858.4</ele>
        <time>2016-05-06T13:41:19Z</time>
      </trkpt>
      <trkpt lat="45.6267" lon="6.86694">
        <ele>1858.5</ele>
        <time>2016-05-06T13:41:21Z</time>
      </trkpt>
      <trkpt lat="45.6267" lon="6.86694">
        <ele>1858.4</ele>
        <time>2016-05-06T13:41:23Z</time>
      </trkpt>
      <trkpt lat="45.6267" lon="6.86694">
        <ele>1858.4</ele>
        <time>2016-05-06T13:41:25Z</time>
      </trkpt>
      <trkpt lat="45.62671" lon="6.86693">
        <ele>1858.4</ele>
        <time>2016-05-06T13:41:27Z</time>
      </trkpt>
      <trkpt lat="45.62671" lon="6.86693">
        <ele>1858.5</ele>
        <time>2016-05-06T13:41:29Z</time>
      </trkpt>
      <trkpt lat="45.6267" lon="6.86693">
        <ele>1858.3</ele>
        <time>2016-05-06T13:41:31Z</time>
      </trkpt>
      <trkpt lat="45.62669" lon="6.86695">
        <ele>1858.4</ele>
        <time>2016-05-06T13:41:33Z</time>
      </trkpt>
      <trkpt lat="45.62669" lon="6.86696">
        <ele>1858</ele>
        <time>2016-05-06T13:41:35Z</time>
      </trkpt>
      <trkpt lat="45.62669" lon="6.86696">
        <ele>1857.6</ele>
        <time>2016-05-06T13:41:37Z</time>
      </trkpt>
      <trkpt lat="45.62669" lon="6.86696">
        <ele>1858.1</ele>
        <time>2016-05-06T13:41:39Z</time>
      </trkpt>
      <trkpt lat="45.62668" lon="6.86696">
        <ele>1858.1</ele>
        <time>2016-05-06T13:41:41Z</time>
      </trkpt>
      <trkpt lat="45.62668" lon="6.86695">
        <ele>1857.5</ele>
        <time>2016-05-06T13:41:43Z</time>
      </trkpt>
      <trkpt lat="45.62668" lon="6.86694">
        <ele>1858.1</ele>
        <time>2016-05-06T13:41:45Z</time>
      </trkpt>
      <trkpt lat="45.62668" lon="6.86694">
        <ele>1858.2</ele>
        <time>2016-05-06T13:41:47Z</time>
      </trkpt>
      <trkpt lat="45.62667" lon="6.86694">
        <ele>1857.9</ele>
        <time>2016-05-06T13:41:49Z</time>
      </trkpt>
      <trkpt lat="45.62667" lon="6.86695">
        <ele>1857.8</ele>
        <time>2016-05-06T13:41:51Z</time>
      </trkpt>
      <trkpt lat="45.62667" lon="6.86696">
        <ele>1857.5</ele>
        <time>2016-05-06T13:41:53Z</time>
      </trkpt>
      <trkpt lat="45.62667" lon="6.86696">
        <ele>1857.7</ele>
        <time>2016-05-06T13:41:55Z</time>
      </trkpt>
      <trkpt lat="45.62668" lon="6.86697">
        <ele>1857.6</ele>
        <time>2016-05-06T13:41:57Z</time>
      </trkpt>
      <trkpt lat="45.62668" lon="6.86697">
        <ele>1857.5</ele>
        <time>2016-05-06T13:41:59Z</time>
      </trkpt>
      <trkpt lat="45.62668" lon="6.86696">
        <ele>1857.5</ele>
        <time>2016-05-06T13:42:01Z</time>
      </trkpt>
      <trkpt lat="45.62668" lon="6.86696">
        <ele>1857.4</ele>
        <time>2016-05-06T13:42:03Z</time>
      </trkpt>
      <trkpt lat="45.62668" lon="6.86697">
        <ele>1857.1</ele>
        <time>2016-05-06T13:42:05Z</time>
      </trkpt>
      <trkpt lat="45.62667" lon="6.86697">
        <ele>1857</ele>
        <time>2016-05-06T13:42:07Z</time>
      </trkpt>
      <trkpt lat="45.62668" lon="6.86697">
        <ele>1856.9</ele>
        <time>2016-05-06T13:42:09Z</time>
      </trkpt>
      <trkpt lat="45.62668" lon="6.86697">
        <ele>1857.3</ele>
        <time>2016-05-06T13:42:11Z</time>
      </trkpt>
      <trkpt lat="45.62668" lon="6.86698">
        <ele>1857.5</ele>
        <time>2016-05-06T13:42:13Z</time>
      </trkpt>
      <trkpt lat="45.62668" lon="6.86698">
        <ele>1857.5</ele>
        <time>2016-05-06T13:42:15Z</time>
      </trkpt>
      <trkpt lat="45.62668" lon="6.86698">
        <ele>1857.3</ele>
        <time>2016-05-06T13:42:17Z</time>
      </trkpt>
      <trkpt lat="45.62669" lon="6.86697">
        <ele>1857.1</ele>
        <time>2016-05-06T13:42:19Z</time>
      </trkpt>
      <trkpt lat="45.62669" lon="6.86697">
        <ele>1856.6</ele>
        <time>2016-05-06T13:42:21Z</time>
      </trkpt>
      <trkpt lat="45.62668" lon="6.86697">
        <ele>1856.7</ele>
        <time>2016-05-06T13:42:23Z</time>
      </trkpt>
      <trkpt lat="45.62668" lon="6.86698">
        <ele>1856.7</ele>
        <time>2016-05-06T13:42:25Z</time>
      </trkpt>
      <trkpt lat="45.62669" lon="6.86698">
        <ele>1856.6</ele>
        <time>2016-05-06T13:42:27Z</time>
      </trkpt>
      <trkpt lat="45.62668" lon="6.86698">
        <ele>1856.6</ele>
        <time>2016-05-06T13:42:29Z</time>
      </trkpt>
      <trkpt lat="45.62668" lon="6.86698">
        <ele>1856.8</ele>
        <time>2016-05-06T13:42:31Z</time>
      </trkpt>
      <trkpt lat="45.62669" lon="6.86698">
        <ele>1856.8</ele>
        <time>2016-05-06T13:42:33Z</time>
      </trkpt>
      <trkpt lat="45.62668" lon="6.86699">
        <ele>1856.7</ele>
        <time>2016-05-06T13:42:35Z</time>
      </trkpt>
      <trkpt lat="45.62669" lon="6.86698">
        <ele>1856.7</ele>
        <time>2016-05-06T13:42:37Z</time>
      </trkpt>
      <trkpt lat="45.62668" lon="6.86697">
        <ele>1856.8</ele>
        <time>2016-05-06T13:42:39Z</time>
      </trkpt>
      <trkpt lat="45.62668" lon="6.86696">
        <ele>1856.7</ele>
        <time>2016-05-06T13:42:41Z</time>
      </trkpt>
      <trkpt lat="45.62668" lon="6.86696">
        <ele>1856.7</ele>
        <time>2016-05-06T13:42:43Z</time>
      </trkpt>
      <trkpt lat="45.62667" lon="6.86696">
        <ele>1857</ele>
        <time>2016-05-06T13:42:45Z</time>
      </trkpt>
      <trkpt lat="45.62667" lon="6.86696">
        <ele>1856.7</ele>
        <time>2016-05-06T13:42:47Z</time>
      </trkpt>
      <trkpt lat="45.62667" lon="6.86696">
        <ele>1856.6</ele>
        <time>2016-05-06T13:42:49Z</time>
      </trkpt>
      <trkpt lat="45.62667" lon="6.86696">
        <ele>1856.8</ele>
        <time>2016-05-06T13:42:51Z</time>
      </trkpt>
      <trkpt lat="45.62668" lon="6.86695">
        <ele>1856.9</ele>
        <time>2016-05-06T13:42:53Z</time>
      </trkpt>
      <trkpt lat="45.62668" lon="6.86695">
        <ele>1857.1</ele>
        <time>2016-05-06T13:42:55Z</time>
      </trkpt>
      <trkpt lat="45.62667" lon="6.86695">
        <ele>1857.1</ele>
        <time>2016-05-06T13:42:57Z</time>
      </trkpt>
      <trkpt lat="45.62667" lon="6.86695">
        <ele>1857.1</ele>
        <time>2016-05-06T13:42:59Z</time>
      </trkpt>
      <trkpt lat="45.62667" lon="6.86695">
        <ele>1857</ele>
        <time>2016-05-06T13:43:01Z</time>
      </trkpt>
      <trkpt lat="45.62667" lon="6.86695">
        <ele>1857</ele>
        <time>2016-05-06T13:43:03Z</time>
      </trkpt>
      <trkpt lat="45.62667" lon="6.86695">
        <ele>1856.7</ele>
        <time>2016-05-06T13:43:05Z</time>
      </trkpt>
      <trkpt lat="45.62667" lon="6.86695">
        <ele>1856.7</ele>
        <time>2016-05-06T13:43:07Z</time>
      </trkpt>
      <trkpt lat="45.62667" lon="6.86694">
        <ele>1856.5</ele>
        <time>2016-05-06T13:43:09Z</time>
      </trkpt>
      <trkpt lat="45.62667" lon="6.86693">
        <ele>1856.5</ele>
        <time>2016-05-06T13:43:11Z</time>
      </trkpt>
      <trkpt lat="45.62667" lon="6.86693">
        <ele>1856.7</ele>
        <time>2016-05-06T13:43:13Z</time>
      </trkpt>
      <trkpt lat="45.62666" lon="6.86692">
        <ele>1856.8</ele>
        <time>2016-05-06T13:43:15Z</time>
      </trkpt>
      <trkpt lat="45.62666" lon="6.86692">
        <ele>1856.8</ele>
        <time>2016-05-06T13:43:17Z</time>
      </trkpt>
      <trkpt lat="45.62666" lon="6.86693">
        <ele>1856.8</ele>
        <time>2016-05-06T13:43:19Z</time>
      </trkpt>
      <trkpt lat="45.62666" lon="6.86693">
        <ele>1856.8</ele>
        <time>2016-05-06T13:43:21Z</time>
      </trkpt>
      <trkpt lat="45.62666" lon="6.86693">
        <ele>1856.8</ele>
        <time>2016-05-06T13:43:23Z</time>
      </trkpt>
      <trkpt lat="45.62666" lon="6.86692">
        <ele>1856.8</ele>
        <time>2016-05-06T13:43:25Z</time>
      </trkpt>
      <trkpt lat="45.62667" lon="6.86694">
        <ele>1856.9</ele>
        <time>2016-05-06T13:43:27Z</time>
      </trkpt>
      <trkpt lat="45.62667" lon="6.86694">
        <ele>1856.9</ele>
        <time>2016-05-06T13:43:29Z</time>
      </trkpt>
      <trkpt lat="45.62667" lon="6.86694">
        <ele>1856.9</ele>
        <time>2016-05-06T13:43:31Z</time>
      </trkpt>
      <trkpt lat="45.62667" lon="6.86694">
        <ele>1856.9</ele>
        <time>2016-05-06T13:43:33Z</time>
      </trkpt>
      <trkpt lat="45.62667" lon="6.86694">
        <ele>1856.8</ele>
        <time>2016-05-06T13:43:35Z</time>
      </trkpt>
      <trkpt lat="45.62668" lon="6.86694">
        <ele>1856.5</ele>
        <time>2016-05-06T13:43:37Z</time>
      </trkpt>
      <trkpt lat="45.62668" lon="6.86694">
        <ele>1856.8</ele>
        <time>2016-05-06T13:43:39Z</time>
      </trkpt>
      <trkpt lat="45.62668" lon="6.86694">
        <ele>1856.8</ele>
        <time>2016-05-06T13:43:41Z</time>
      </trkpt>
      <trkpt lat="45.62668" lon="6.86693">
        <ele>1856.9</ele>
        <time>2016-05-06T13:43:43Z</time>
      </trkpt>
      <trkpt lat="45.62668" lon="6.86693">
        <ele>1856.7</ele>
        <time>2016-05-06T13:43:45Z</time>
      </trkpt>
      <trkpt lat="45.62668" lon="6.86693">
        <ele>1857.2</ele>
        <time>2016-05-06T13:43:47Z</time>
      </trkpt>
      <trkpt lat="45.62668" lon="6.86694">
        <ele>1857.3</ele>
        <time>2016-05-06T13:43:49Z</time>
      </trkpt>
      <trkpt lat="45.62668" lon="6.86694">
        <ele>1857.3</ele>
        <time>2016-05-06T13:43:51Z</time>
      </trkpt>
      <trkpt lat="45.62668" lon="6.86694">
        <ele>1857.3</ele>
        <time>2016-05-06T13:43:53Z</time>
      </trkpt>
      <trkpt lat="45.62667" lon="6.86693">
        <ele>1857.1</ele>
        <time>2016-05-06T13:43:55Z</time>
      </trkpt>
      <trkpt lat="45.62667" lon="6.86693">
        <ele>1857</ele>
        <time>2016-05-06T13:43:57Z</time>
      </trkpt>
      <trkpt lat="45.62667" lon="6.86693">
        <ele>1857</ele>
        <time>2016-05-06T13:43:59Z</time>
      </trkpt>
      <trkpt lat="45.62667" lon="6.86693">
        <ele>1857</ele>
        <time>2016-05-06T13:44:01Z</time>
      </trkpt>
      <trkpt lat="45.62668" lon="6.86693">
        <ele>1857.1</ele>
        <time>2016-05-06T13:44:03Z</time>
      </trkpt>
      <trkpt lat="45.62667" lon="6.86694">
        <ele>1857.2</ele>
        <time>2016-05-06T13:44:05Z</time>
      </trkpt>
      <trkpt lat="45.62667" lon="6.86694">
        <ele>1857.3</ele>
        <time>2016-05-06T13:44:07Z</time>
      </trkpt>
      <trkpt lat="45.62667" lon="6.86694">
        <ele>1856.1</ele>
        <time>2016-05-06T13:44:09Z</time>
      </trkpt>
      <trkpt lat="45.62666" lon="6.86694">
        <ele>1856.8</ele>
        <time>2016-05-06T13:44:11Z</time>
      </trkpt>
      <trkpt lat="45.62666" lon="6.86694">
        <ele>1856.9</ele>
        <time>2016-05-06T13:44:13Z</time>
      </trkpt>
      <trkpt lat="45.62666" lon="6.86694">
        <ele>1857.4</ele>
        <time>2016-05-06T13:44:15Z</time>
      </trkpt>
      <trkpt lat="45.62666" lon="6.86694">
        <ele>1857.5</ele>
        <time>2016-05-06T13:44:17Z</time>
      </trkpt>
      <trkpt lat="45.62667" lon="6.86694">
        <ele>1856.9</ele>
        <time>2016-05-06T13:44:19Z</time>
      </trkpt>
      <trkpt lat="45.62666" lon="6.86695">
        <ele>1857.5</ele>
        <time>2016-05-06T13:44:21Z</time>
      </trkpt>
      <trkpt lat="45.62666" lon="6.86695">
        <ele>1857.4</ele>
        <time>2016-05-06T13:44:23Z</time>
      </trkpt>
      <trkpt lat="45.62667" lon="6.86695">
        <ele>1857.2</ele>
        <time>2016-05-06T13:44:25Z</time>
      </trkpt>
      <trkpt lat="45.62666" lon="6.86696">
        <ele>1857</ele>
        <time>2016-05-06T13:44:27Z</time>
      </trkpt>
      <trkpt lat="45.62666" lon="6.86696">
        <ele>1857.2</ele>
        <time>2016-05-06T13:44:29Z</time>
      </trkpt>
      <trkpt lat="45.62666" lon="6.86696">
        <ele>1857.3</ele>
        <time>2016-05-06T13:44:31Z</time>
      </trkpt>
      <trkpt lat="45.62666" lon="6.86697">
        <ele>1857.1</ele>
        <time>2016-05-06T13:44:33Z</time>
      </trkpt>
      <trkpt lat="45.62666" lon="6.86697">
        <ele>1857.3</ele>
        <time>2016-05-06T13:44:35Z</time>
      </trkpt>
      <trkpt lat="45.62666" lon="6.86697">
        <ele>1857.2</ele>
        <time>2016-05-06T13:44:37Z</time>
      </trkpt>
      <trkpt lat="45.62666" lon="6.86698">
        <ele>1857.2</ele>
        <time>2016-05-06T13:44:39Z</time>
      </trkpt>
      <trkpt lat="45.62666" lon="6.86697">
        <ele>1857.2</ele>
        <time>2016-05-06T13:44:41Z</time>
      </trkpt>
      <trkpt lat="45.62666" lon="6.86697">
        <ele>1857.3</ele>
        <time>2016-05-06T13:44:43Z</time>
      </trkpt>
      <trkpt lat="45.62666" lon="6.86697">
        <ele>1857.2</ele>
        <time>2016-05-06T13:44:45Z</time>
      </trkpt>
      <trkpt lat="45.62666" lon="6.86696">
        <ele>1857.1</ele>
        <time>2016-05-06T13:44:47Z</time>
      </trkpt>
      <trkpt lat="45.62665" lon="6.86696">
        <ele>1857</ele>
        <time>2016-05-06T13:44:49Z</time>
      </trkpt>
      <trkpt lat="45.62666" lon="6.86694">
        <ele>1856.9</ele>
        <time>2016-05-06T13:44:51Z</time>
      </trkpt>
      <trkpt lat="45.62665" lon="6.86693">
        <ele>1856.9</ele>
        <time>2016-05-06T13:44:53Z</time>
      </trkpt>
      <trkpt lat="45.62664" lon="6.86693">
        <ele>1856.9</ele>
        <time>2016-05-06T13:44:55Z</time>
      </trkpt>
      <trkpt lat="45.62664" lon="6.86692">
        <ele>1856.9</ele>
        <time>2016-05-06T13:44:57Z</time>
      </trkpt>
      <trkpt lat="45.62664" lon="6.86694">
        <ele>1856.9</ele>
        <time>2016-05-06T13:44:59Z</time>
      </trkpt>
      <trkpt lat="45.62663" lon="6.86694">
        <ele>1856.7</ele>
        <time>2016-05-06T13:45:01Z</time>
      </trkpt>
      <trkpt lat="45.62664" lon="6.86695">
        <ele>1856.8</ele>
        <time>2016-05-06T13:45:03Z</time>
      </trkpt>
      <trkpt lat="45.62664" lon="6.86695">
        <ele>1856.8</ele>
        <time>2016-05-06T13:45:05Z</time>
      </trkpt>
      <trkpt lat="45.62663" lon="6.86696">
        <ele>1857.1</ele>
        <time>2016-05-06T13:45:07Z</time>
      </trkpt>
      <trkpt lat="45.62663" lon="6.86696">
        <ele>1857.4</ele>
        <time>2016-05-06T13:45:09Z</time>
      </trkpt>
      <trkpt lat="45.62663" lon="6.86695">
        <ele>1857.4</ele>
        <time>2016-05-06T13:45:11Z</time>
      </trkpt>
      <trkpt lat="45.62664" lon="6.86695">
        <ele>1857.5</ele>
        <time>2016-05-06T13:45:13Z</time>
      </trkpt>
      <trkpt lat="45.62664" lon="6.86695">
        <ele>1857.6</ele>
        <time>2016-05-06T13:45:15Z</time>
      </trkpt>
      <trkpt lat="45.62663" lon="6.86696">
        <ele>1857.7</ele>
        <time>2016-05-06T13:45:17Z</time>
      </trkpt>
      <trkpt lat="45.62664" lon="6.86696">
        <ele>1857.9</ele>
        <time>2016-05-06T13:45:19Z</time>
      </trkpt>
      <trkpt lat="45.62665" lon="6.86696">
        <ele>1857</ele>
        <time>2016-05-06T13:45:21Z</time>
      </trkpt>
      <trkpt lat="45.62666" lon="6.86696">
        <ele>1858</ele>
        <time>2016-05-06T13:45:23Z</time>
      </trkpt>
      <trkpt lat="45.62667" lon="6.86696">
        <ele>1856.7</ele>
        <time>2016-05-06T13:45:25Z</time>
      </trkpt>
      <trkpt lat="45.62667" lon="6.86697">
        <ele>1856.6</ele>
        <time>2016-05-06T13:45:27Z</time>
      </trkpt>
      <trkpt lat="45.62667" lon="6.86697">
        <ele>1857</ele>
        <time>2016-05-06T13:45:29Z</time>
      </trkpt>
      <trkpt lat="45.62668" lon="6.86697">
        <ele>1857.3</ele>
        <time>2016-05-06T13:45:31Z</time>
      </trkpt>
      <trkpt lat="45.62668" lon="6.86697">
        <ele>1857.4</ele>
        <time>2016-05-06T13:45:33Z</time>
      </trkpt>
      <trkpt lat="45.62668" lon="6.86697">
        <ele>1857.5</ele>
        <time>2016-05-06T13:45:35Z</time>
      </trkpt>
      <trkpt lat="45.62668" lon="6.86697">
        <ele>1857.7</ele>
        <time>2016-05-06T13:45:37Z</time>
      </trkpt>
      <trkpt lat="45.62668" lon="6.86697">
        <ele>1857.9</ele>
        <time>2016-05-06T13:45:39Z</time>
      </trkpt>
      <trkpt lat="45.62668" lon="6.86697">
        <ele>1857.9</ele>
        <time>2016-05-06T13:45:41Z</time>
      </trkpt>
      <trkpt lat="45.62668" lon="6.86698">
        <ele>1857.8</ele>
        <time>2016-05-06T13:45:43Z</time>
      </trkpt>
      <trkpt lat="45.62668" lon="6.86698">
        <ele>1857.8</ele>
        <time>2016-05-06T13:45:45Z</time>
      </trkpt>
      <trkpt lat="45.62668" lon="6.86697">
        <ele>1857.9</ele>
        <time>2016-05-06T13:45:47Z</time>
      </trkpt>
      <trkpt lat="45.62669" lon="6.86697">
        <ele>1858.1</ele>
        <time>2016-05-06T13:45:49Z</time>
      </trkpt>
      <trkpt lat="45.62669" lon="6.86696">
        <ele>1858.2</ele>
        <time>2016-05-06T13:45:51Z</time>
      </trkpt>
      <trkpt lat="45.6267" lon="6.86696">
        <ele>1858.2</ele>
        <time>2016-05-06T13:45:53Z</time>
      </trkpt>
      <trkpt lat="45.6267" lon="6.86695">
        <ele>1858.3</ele>
        <time>2016-05-06T13:45:55Z</time>
      </trkpt>
      <trkpt lat="45.6267" lon="6.86696">
        <ele>1858.5</ele>
        <time>2016-05-06T13:45:57Z</time>
      </trkpt>
      <trkpt lat="45.62669" lon="6.86697">
        <ele>1858.3</ele>
        <time>2016-05-06T13:45:59Z</time>
      </trkpt>
      <trkpt lat="45.62669" lon="6.86696">
        <ele>1858</ele>
        <time>2016-05-06T13:46:01Z</time>
      </trkpt>
      <trkpt lat="45.62668" lon="6.86697">
        <ele>1857.8</ele>
        <time>2016-05-06T13:46:03Z</time>
      </trkpt>
      <trkpt lat="45.62669" lon="6.86697">
        <ele>1857.8</ele>
        <time>2016-05-06T13:46:05Z</time>
      </trkpt>
      <trkpt lat="45.62669" lon="6.86697">
        <ele>1857.6</ele>
        <time>2016-05-06T13:46:07Z</time>
      </trkpt>
      <trkpt lat="45.62668" lon="6.86696">
        <ele>1857.4</ele>
        <time>2016-05-06T13:46:09Z</time>
      </trkpt>
      <trkpt lat="45.62667" lon="6.86696">
        <ele>1857.3</ele>
        <time>2016-05-06T13:46:11Z</time>
      </trkpt>
      <trkpt lat="45.62667" lon="6.86695">
        <ele>1857.3</ele>
        <time>2016-05-06T13:46:13Z</time>
      </trkpt>
      <trkpt lat="45.62667" lon="6.86696">
        <ele>1857.3</ele>
        <time>2016-05-06T13:46:15Z</time>
      </trkpt>
      <trkpt lat="45.62666" lon="6.86696">
        <ele>1857.2</ele>
        <time>2016-05-06T13:46:17Z</time>
      </trkpt>
      <trkpt lat="45.62667" lon="6.86696">
        <ele>1857.1</ele>
        <time>2016-05-06T13:46:19Z</time>
      </trkpt>
      <trkpt lat="45.62666" lon="6.86696">
        <ele>1857.2</ele>
        <time>2016-05-06T13:46:21Z</time>
      </trkpt>
      <trkpt lat="45.62666" lon="6.86696">
        <ele>1857.2</ele>
        <time>2016-05-06T13:46:23Z</time>
      </trkpt>
      <trkpt lat="45.62666" lon="6.86696">
        <ele>1857.4</ele>
        <time>2016-05-06T13:46:25Z</time>
      </trkpt>
      <trkpt lat="45.62667" lon="6.86696">
        <ele>1857.4</ele>
        <time>2016-05-06T13:46:27Z</time>
      </trkpt>
      <trkpt lat="45.62667" lon="6.86696">
        <ele>1857.5</ele>
        <time>2016-05-06T13:46:29Z</time>
      </trkpt>
      <trkpt lat="45.62668" lon="6.86696">
        <ele>1857.5</ele>
        <time>2016-05-06T13:46:31Z</time>
      </trkpt>
      <trkpt lat="45.62668" lon="6.86695">
        <ele>1857.4</ele>
        <time>2016-05-06T13:46:33Z</time>
      </trkpt>
      <trkpt lat="45.62668" lon="6.86695">
        <ele>1857.3</ele>
        <time>2016-05-06T13:46:35Z</time>
      </trkpt>
      <trkpt lat="45.62667" lon="6.86696">
        <ele>1857.2</ele>
        <time>2016-05-06T13:46:37Z</time>
      </trkpt>
      <trkpt lat="45.62667" lon="6.86696">
        <ele>1857.2</ele>
        <time>2016-05-06T13:46:39Z</time>
      </trkpt>
      <trkpt lat="45.62667" lon="6.86696">
        <ele>1857.2</ele>
        <time>2016-05-06T13:46:41Z</time>
      </trkpt>
      <trkpt lat="45.62667" lon="6.86697">
        <ele>1857.1</ele>
        <time>2016-05-06T13:46:43Z</time>
      </trkpt>
      <trkpt lat="45.62667" lon="6.86697">
        <ele>1857.1</ele>
        <time>2016-05-06T13:46:45Z</time>
      </trkpt>
      <trkpt lat="45.62667" lon="6.86697">
        <ele>1857.1</ele>
        <time>2016-05-06T13:46:47Z</time>
      </trkpt>
      <trkpt lat="45.62667" lon="6.86696">
        <ele>1857.1</ele>
        <time>2016-05-06T13:46:49Z</time>
      </trkpt>
      <trkpt lat="45.62667" lon="6.86696">
        <ele>1857.1</ele>
        <time>2016-05-06T13:46:51Z</time>
      </trkpt>
      <trkpt lat="45.62667" lon="6.86696">
        <ele>1857</ele>
        <time>2016-05-06T13:46:53Z</time>
      </trkpt>
      <trkpt lat="45.62667" lon="6.86696">
        <ele>1857</ele>
        <time>2016-05-06T13:46:55Z</time>
      </trkpt>
      <trkpt lat="45.62668" lon="6.86696">
        <ele>1857</ele>
        <time>2016-05-06T13:46:57Z</time>
      </trkpt>
      <trkpt lat="45.62668" lon="6.86696">
        <ele>1857</ele>
        <time>2016-05-06T13:46:59Z</time>
      </trkpt>
      <trkpt lat="45.62668" lon="6.86695">
        <ele>1857.1</ele>
        <time>2016-05-06T13:47:01Z</time>
      </trkpt>
      <trkpt lat="45.62669" lon="6.86695">
        <ele>1857.1</ele>
        <time>2016-05-06T13:47:03Z</time>
      </trkpt>
      <trkpt lat="45.62669" lon="6.86695">
        <ele>1857.1</ele>
        <time>2016-05-06T13:47:05Z</time>
      </trkpt>
      <trkpt lat="45.6267" lon="6.86694">
        <ele>1857</ele>
        <time>2016-05-06T13:47:07Z</time>
      </trkpt>
      <trkpt lat="45.6267" lon="6.86694">
        <ele>1857</ele>
        <time>2016-05-06T13:47:09Z</time>
      </trkpt>
      <trkpt lat="45.6267" lon="6.86694">
        <ele>1856.9</ele>
        <time>2016-05-06T13:47:11Z</time>
      </trkpt>
      <trkpt lat="45.6267" lon="6.86694">
        <ele>1857</ele>
        <time>2016-05-06T13:47:13Z</time>
      </trkpt>
      <trkpt lat="45.6267" lon="6.86694">
        <ele>1857.1</ele>
        <time>2016-05-06T13:47:15Z</time>
      </trkpt>
      <trkpt lat="45.6267" lon="6.86694">
        <ele>1857.1</ele>
        <time>2016-05-06T13:47:17Z</time>
      </trkpt>
      <trkpt lat="45.6267" lon="6.86694">
        <ele>1857</ele>
        <time>2016-05-06T13:47:19Z</time>
      </trkpt>
      <trkpt lat="45.6267" lon="6.86695">
        <ele>1857</ele>
        <time>2016-05-06T13:47:21Z</time>
      </trkpt>
      <trkpt lat="45.62669" lon="6.86695">
        <ele>1857.1</ele>
        <time>2016-05-06T13:47:23Z</time>
      </trkpt>
      <trkpt lat="45.62668" lon="6.86695">
        <ele>1857.2</ele>
        <time>2016-05-06T13:47:25Z</time>
      </trkpt>
      <trkpt lat="45.62667" lon="6.86695">
        <ele>1857.2</ele>
        <time>2016-05-06T13:47:27Z</time>
      </trkpt>
      <trkpt lat="45.62666" lon="6.86694">
        <ele>1857.4</ele>
        <time>2016-05-06T13:47:29Z</time>
      </trkpt>
      <trkpt lat="45.62666" lon="6.86695">
        <ele>1857.5</ele>
        <time>2016-05-06T13:47:31Z</time>
      </trkpt>
      <trkpt lat="45.62666" lon="6.86695">
        <ele>1857.5</ele>
        <time>2016-05-06T13:47:33Z</time>
      </trkpt>
      <trkpt lat="45.62666" lon="6.86695">
        <ele>1857.4</ele>
        <time>2016-05-06T13:47:35Z</time>
      </trkpt>
      <trkpt lat="45.62666" lon="6.86696">
        <ele>1857.3</ele>
        <time>2016-05-06T13:47:37Z</time>
      </trkpt>
      <trkpt lat="45.62666" lon="6.86696">
        <ele>1857.2</ele>
        <time>2016-05-06T13:47:39Z</time>
      </trkpt>
      <trkpt lat="45.62665" lon="6.86695">
        <ele>1857.3</ele>
        <time>2016-05-06T13:47:41Z</time>
      </trkpt>
      <trkpt lat="45.62665" lon="6.86695">
        <ele>1857.3</ele>
        <time>2016-05-06T13:47:43Z</time>
      </trkpt>
      <trkpt lat="45.62668" lon="6.86696">
        <ele>1857.3</ele>
        <time>2016-05-06T13:47:45Z</time>
      </trkpt>
      <trkpt lat="45.62669" lon="6.86696">
        <ele>1857.2</ele>
        <time>2016-05-06T13:47:47Z</time>
      </trkpt>
      <trkpt lat="45.62669" lon="6.86696">
        <ele>1857.2</ele>
        <time>2016-05-06T13:47:49Z</time>
      </trkpt>
      <trkpt lat="45.6267" lon="6.86695">
        <ele>1857.2</ele>
        <time>2016-05-06T13:47:51Z</time>
      </trkpt>
      <trkpt lat="45.6267" lon="6.86695">
        <ele>1857.3</ele>
        <time>2016-05-06T13:47:53Z</time>
      </trkpt>
      <trkpt lat="45.62669" lon="6.86695">
        <ele>1857.3</ele>
        <time>2016-05-06T13:47:55Z</time>
      </trkpt>
      <trkpt lat="45.62668" lon="6.86695">
        <ele>1857.3</ele>
        <time>2016-05-06T13:47:57Z</time>
      </trkpt>
      <trkpt lat="45.62668" lon="6.86695">
        <ele>1857.3</ele>
        <time>2016-05-06T13:47:59Z</time>
      </trkpt>
      <trkpt lat="45.62668" lon="6.86695">
        <ele>1857.2</ele>
        <time>2016-05-06T13:48:01Z</time>
      </trkpt>
      <trkpt lat="45.62666" lon="6.86695">
        <ele>1857.2</ele>
        <time>2016-05-06T13:48:03Z</time>
      </trkpt>
      <trkpt lat="45.62666" lon="6.86695">
        <ele>1857</ele>
        <time>2016-05-06T13:48:05Z</time>
      </trkpt>
      <trkpt lat="45.62665" lon="6.86695">
        <ele>1857.1</ele>
        <time>2016-05-06T13:48:07Z</time>
      </trkpt>
      <trkpt lat="45.62664" lon="6.86695">
        <ele>1857.3</ele>
        <time>2016-05-06T13:48:09Z</time>
      </trkpt>
      <trkpt lat="45.62664" lon="6.86695">
        <ele>1857.5</ele>
        <time>2016-05-06T13:48:11Z</time>
      </trkpt>
      <trkpt lat="45.62665" lon="6.86695">
        <ele>1857.5</ele>
        <time>2016-05-06T13:48:13Z</time>
      </trkpt>
      <trkpt lat="45.62665" lon="6.86695">
        <ele>1857.4</ele>
        <time>2016-05-06T13:48:15Z</time>
      </trkpt>
      <trkpt lat="45.62666" lon="6.86695">
        <ele>1857.3</ele>
        <time>2016-05-06T13:48:17Z</time>
      </trkpt>
      <trkpt lat="45.62665" lon="6.86694">
        <ele>1857.3</ele>
        <time>2016-05-06T13:48:19Z</time>
      </trkpt>
      <trkpt lat="45.62666" lon="6.86694">
        <ele>1857.3</ele>
        <time>2016-05-06T13:48:21Z</time>
      </trkpt>
      <trkpt lat="45.62665" lon="6.86694">
        <ele>1857.4</ele>
        <time>2016-05-06T13:48:23Z</time>
      </trkpt>
      <trkpt lat="45.62665" lon="6.86693">
        <ele>1857.5</ele>
        <time>2016-05-06T13:48:25Z</time>
      </trkpt>
      <trkpt lat="45.62665" lon="6.86693">
        <ele>1857.4</ele>
        <time>2016-05-06T13:48:27Z</time>
      </trkpt>
      <trkpt lat="45.62666" lon="6.86693">
        <ele>1857.4</ele>
        <time>2016-05-06T13:48:29Z</time>
      </trkpt>
      <trkpt lat="45.62666" lon="6.86693">
        <ele>1857.4</ele>
        <time>2016-05-06T13:48:31Z</time>
      </trkpt>
      <trkpt lat="45.62666" lon="6.86693">
        <ele>1857.2</ele>
        <time>2016-05-06T13:48:33Z</time>
      </trkpt>
      <trkpt lat="45.62665" lon="6.86694">
        <ele>1857.1</ele>
        <time>2016-05-06T13:48:35Z</time>
      </trkpt>
      <trkpt lat="45.62665" lon="6.86694">
        <ele>1857.1</ele>
        <time>2016-05-06T13:48:37Z</time>
      </trkpt>
      <trkpt lat="45.62664" lon="6.86695">
        <ele>1857</ele>
        <time>2016-05-06T13:48:39Z</time>
      </trkpt>
      <trkpt lat="45.62664" lon="6.86695">
        <ele>1857</ele>
        <time>2016-05-06T13:48:41Z</time>
      </trkpt>
      <trkpt lat="45.62664" lon="6.86695">
        <ele>1857</ele>
        <time>2016-05-06T13:48:43Z</time>
      </trkpt>
      <trkpt lat="45.62664" lon="6.86696">
        <ele>1857.1</ele>
        <time>2016-05-06T13:48:45Z</time>
      </trkpt>
      <trkpt lat="45.62664" lon="6.86696">
        <ele>1857.2</ele>
        <time>2016-05-06T13:48:47Z</time>
      </trkpt>
      <trkpt lat="45.62664" lon="6.86696">
        <ele>1857.1</ele>
        <time>2016-05-06T13:48:49Z</time>
      </trkpt>
      <trkpt lat="45.62664" lon="6.86696">
        <ele>1857.2</ele>
        <time>2016-05-06T13:48:51Z</time>
      </trkpt>
      <trkpt lat="45.62664" lon="6.86696">
        <ele>1857.2</ele>
        <time>2016-05-06T13:48:53Z</time>
      </trkpt>
      <trkpt lat="45.62664" lon="6.86695">
        <ele>1857.2</ele>
        <time>2016-05-06T13:48:55Z</time>
      </trkpt>
      <trkpt lat="45.62664" lon="6.86695">
        <ele>1857.1</ele>
        <time>2016-05-06T13:48:57Z</time>
      </trkpt>
      <trkpt lat="45.62664" lon="6.86695">
        <ele>1857.1</ele>
        <time>2016-05-06T13:48:59Z</time>
      </trkpt>
      <trkpt lat="45.62664" lon="6.86695">
        <ele>1857.1</ele>
        <time>2016-05-06T13:49:01Z</time>
      </trkpt>
      <trkpt lat="45.62664" lon="6.86695">
        <ele>1857</ele>
        <time>2016-05-06T13:49:03Z</time>
      </trkpt>
      <trkpt lat="45.62664" lon="6.86695">
        <ele>1857</ele>
        <time>2016-05-06T13:49:05Z</time>
      </trkpt>
      <trkpt lat="45.62664" lon="6.86695">
        <ele>1856.9</ele>
        <time>2016-05-06T13:49:07Z</time>
      </trkpt>
      <trkpt lat="45.62664" lon="6.86695">
        <ele>1856.8</ele>
        <time>2016-05-06T13:49:09Z</time>
      </trkpt>
      <trkpt lat="45.62663" lon="6.86694">
        <ele>1856.8</ele>
        <time>2016-05-06T13:49:11Z</time>
      </trkpt>
      <trkpt lat="45.62664" lon="6.86695">
        <ele>1856.9</ele>
        <time>2016-05-06T13:49:13Z</time>
      </trkpt>
      <trkpt lat="45.62664" lon="6.86695">
        <ele>1856.9</ele>
        <time>2016-05-06T13:49:15Z</time>
      </trkpt>
      <trkpt lat="45.62664" lon="6.86695">
        <ele>1856.8</ele>
        <time>2016-05-06T13:49:17Z</time>
      </trkpt>
      <trkpt lat="45.62664" lon="6.86695">
        <ele>1856.9</ele>
        <time>2016-05-06T13:49:19Z</time>
      </trkpt>
      <trkpt lat="45.62664" lon="6.86695">
        <ele>1856.9</ele>
        <time>2016-05-06T13:49:21Z</time>
      </trkpt>
      <trkpt lat="45.62664" lon="6.86695">
        <ele>1856.9</ele>
        <time>2016-05-06T13:49:23Z</time>
      </trkpt>
      <trkpt lat="45.62666" lon="6.86695">
        <ele>1856.9</ele>
        <time>2016-05-06T13:49:25Z</time>
      </trkpt>
      <trkpt lat="45.62666" lon="6.86696">
        <ele>1856.9</ele>
        <time>2016-05-06T13:49:27Z</time>
      </trkpt>
      <trkpt lat="45.62666" lon="6.86696">
        <ele>1856.8</ele>
        <time>2016-05-06T13:49:29Z</time>
      </trkpt>
      <trkpt lat="45.62665" lon="6.86695">
        <ele>1856.8</ele>
        <time>2016-05-06T13:49:31Z</time>
      </trkpt>
      <trkpt lat="45.62665" lon="6.86695">
        <ele>1856.7</ele>
        <time>2016-05-06T13:49:33Z</time>
      </trkpt>
      <trkpt lat="45.62665" lon="6.86694">
        <ele>1856.8</ele>
        <time>2016-05-06T13:49:35Z</time>
      </trkpt>
      <trkpt lat="45.62666" lon="6.86694">
        <ele>1856.7</ele>
        <time>2016-05-06T13:49:37Z</time>
      </trkpt>
      <trkpt lat="45.62666" lon="6.86695">
        <ele>1856.7</ele>
        <time>2016-05-06T13:49:39Z</time>
      </trkpt>
      <trkpt lat="45.62667" lon="6.86695">
        <ele>1856.8</ele>
        <time>2016-05-06T13:49:41Z</time>
      </trkpt>
      <trkpt lat="45.62667" lon="6.86695">
        <ele>1856.8</ele>
        <time>2016-05-06T13:49:43Z</time>
      </trkpt>
      <trkpt lat="45.62667" lon="6.86695">
        <ele>1856.7</ele>
        <time>2016-05-06T13:49:45Z</time>
      </trkpt>
      <trkpt lat="45.62667" lon="6.86695">
        <ele>1856.7</ele>
        <time>2016-05-06T13:49:47Z</time>
      </trkpt>
      <trkpt lat="45.62668" lon="6.86696">
        <ele>1856.7</ele>
        <time>2016-05-06T13:49:49Z</time>
      </trkpt>
      <trkpt lat="45.62668" lon="6.86696">
        <ele>1856.6</ele>
        <time>2016-05-06T13:49:51Z</time>
      </trkpt>
      <trkpt lat="45.62668" lon="6.86696">
        <ele>1856.5</ele>
        <time>2016-05-06T13:49:53Z</time>
      </trkpt>
      <trkpt lat="45.62669" lon="6.86696">
        <ele>1856.4</ele>
        <time>2016-05-06T13:49:55Z</time>
      </trkpt>
      <trkpt lat="45.62669" lon="6.86696">
        <ele>1856.4</ele>
        <time>2016-05-06T13:49:57Z</time>
      </trkpt>
      <trkpt lat="45.62669" lon="6.86696">
        <ele>1856.4</ele>
        <time>2016-05-06T13:49:59Z</time>
      </trkpt>
      <trkpt lat="45.62669" lon="6.86696">
        <ele>1856.4</ele>
        <time>2016-05-06T13:50:01Z</time>
      </trkpt>
      <trkpt lat="45.62668" lon="6.86696">
        <ele>1856.4</ele>
        <time>2016-05-06T13:50:03Z</time>
      </trkpt>
      <trkpt lat="45.62668" lon="6.86696">
        <ele>1856.4</ele>
        <time>2016-05-06T13:50:05Z</time>
      </trkpt>
      <trkpt lat="45.62668" lon="6.86696">
        <ele>1856.3</ele>
        <time>2016-05-06T13:50:07Z</time>
      </trkpt>
      <trkpt lat="45.62668" lon="6.86696">
        <ele>1856.3</ele>
        <time>2016-05-06T13:50:09Z</time>
      </trkpt>
      <trkpt lat="45.62668" lon="6.86696">
        <ele>1856.2</ele>
        <time>2016-05-06T13:50:11Z</time>
      </trkpt>
      <trkpt lat="45.62668" lon="6.86696">
        <ele>1856.2</ele>
        <time>2016-05-06T13:50:13Z</time>
      </trkpt>
      <trkpt lat="45.62667" lon="6.86696">
        <ele>1856.1</ele>
        <time>2016-05-06T13:50:15Z</time>
      </trkpt>
      <trkpt lat="45.62666" lon="6.86696">
        <ele>1856.2</ele>
        <time>2016-05-06T13:50:17Z</time>
      </trkpt>
      <trkpt lat="45.62666" lon="6.86696">
        <ele>1856.2</ele>
        <time>2016-05-06T13:50:19Z</time>
      </trkpt>
      <trkpt lat="45.62666" lon="6.86695">
        <ele>1856.3</ele>
        <time>2016-05-06T13:50:21Z</time>
      </trkpt>
      <trkpt lat="45.62666" lon="6.86695">
        <ele>1856.3</ele>
        <time>2016-05-06T13:50:23Z</time>
      </trkpt>
      <trkpt lat="45.62665" lon="6.86695">
        <ele>1856.3</ele>
        <time>2016-05-06T13:50:25Z</time>
      </trkpt>
      <trkpt lat="45.62665" lon="6.86695">
        <ele>1856.3</ele>
        <time>2016-05-06T13:50:27Z</time>
      </trkpt>
      <trkpt lat="45.62664" lon="6.86695">
        <ele>1856.2</ele>
        <time>2016-05-06T13:50:29Z</time>
      </trkpt>
      <trkpt lat="45.62664" lon="6.86695">
        <ele>1856.1</ele>
        <time>2016-05-06T13:50:31Z</time>
      </trkpt>
      <trkpt lat="45.62664" lon="6.86695">
        <ele>1856.1</ele>
        <time>2016-05-06T13:50:33Z</time>
      </trkpt>
      <trkpt lat="45.62664" lon="6.86695">
        <ele>1856</ele>
        <time>2016-05-06T13:50:35Z</time>
      </trkpt>
      <trkpt lat="45.62664" lon="6.86694">
        <ele>1856</ele>
        <time>2016-05-06T13:50:37Z</time>
      </trkpt>
      <trkpt lat="45.62664" lon="6.86694">
        <ele>1855.9</ele>
        <time>2016-05-06T13:50:39Z</time>
      </trkpt>
      <trkpt lat="45.62663" lon="6.86694">
        <ele>1855.9</ele>
        <time>2016-05-06T13:50:41Z</time>
      </trkpt>
      <trkpt lat="45.62663" lon="6.86694">
        <ele>1855.9</ele>
        <time>2016-05-06T13:50:43Z</time>
      </trkpt>
      <trkpt lat="45.62664" lon="6.86694">
        <ele>1856</ele>
        <time>2016-05-06T13:50:45Z</time>
      </trkpt>
      <trkpt lat="45.62664" lon="6.86694">
        <ele>1856</ele>
        <time>2016-05-06T13:50:47Z</time>
      </trkpt>
      <trkpt lat="45.62663" lon="6.86694">
        <ele>1856</ele>
        <time>2016-05-06T13:50:49Z</time>
      </trkpt>
      <trkpt lat="45.62663" lon="6.86694">
        <ele>1856</ele>
        <time>2016-05-06T13:50:51Z</time>
      </trkpt>
      <trkpt lat="45.62663" lon="6.86694">
        <ele>1856.1</ele>
        <time>2016-05-06T13:50:53Z</time>
      </trkpt>
      <trkpt lat="45.62664" lon="6.86694">
        <ele>1856</ele>
        <time>2016-05-06T13:50:55Z</time>
      </trkpt>
      <trkpt lat="45.62664" lon="6.86694">
        <ele>1856</ele>
        <time>2016-05-06T13:50:57Z</time>
      </trkpt>
      <trkpt lat="45.62664" lon="6.86694">
        <ele>1856</ele>
        <time>2016-05-06T13:50:59Z</time>
      </trkpt>
      <trkpt lat="45.62663" lon="6.86695">
        <ele>1856</ele>
        <time>2016-05-06T13:51:01Z</time>
      </trkpt>
      <trkpt lat="45.62663" lon="6.86695">
        <ele>1856.1</ele>
        <time>2016-05-06T13:51:03Z</time>
      </trkpt>
      <trkpt lat="45.62663" lon="6.86695">
        <ele>1856.1</ele>
        <time>2016-05-06T13:51:05Z</time>
      </trkpt>
      <trkpt lat="45.62664" lon="6.86695">
        <ele>1856.2</ele>
        <time>2016-05-06T13:51:07Z</time>
      </trkpt>
      <trkpt lat="45.62665" lon="6.86695">
        <ele>1856.2</ele>
        <time>2016-05-06T13:51:09Z</time>
      </trkpt>
      <trkpt lat="45.62666" lon="6.86695">
        <ele>1856.1</ele>
        <time>2016-05-06T13:51:11Z</time>
      </trkpt>
      <trkpt lat="45.62666" lon="6.86695">
        <ele>1856.1</ele>
        <time>2016-05-06T13:51:13Z</time>
      </trkpt>
      <trkpt lat="45.62666" lon="6.86696">
        <ele>1856.1</ele>
        <time>2016-05-06T13:51:15Z</time>
      </trkpt>
      <trkpt lat="45.62667" lon="6.86695">
        <ele>1856</ele>
        <time>2016-05-06T13:51:17Z</time>
      </trkpt>
      <trkpt lat="45.62667" lon="6.86695">
        <ele>1856</ele>
        <time>2016-05-06T13:51:19Z</time>
      </trkpt>
      <trkpt lat="45.62667" lon="6.86695">
        <ele>1856.1</ele>
        <time>2016-05-06T13:51:21Z</time>
      </trkpt>
      <trkpt lat="45.62666" lon="6.86695">
        <ele>1856.2</ele>
        <time>2016-05-06T13:51:23Z</time>
      </trkpt>
      <trkpt lat="45.62666" lon="6.86695">
        <ele>1856.2</ele>
        <time>2016-05-06T13:51:25Z</time>
      </trkpt>
      <trkpt lat="45.62666" lon="6.86695">
        <ele>1856.2</ele>
        <time>2016-05-06T13:51:27Z</time>
      </trkpt>
      <trkpt lat="45.62666" lon="6.86695">
        <ele>1856.1</ele>
        <time>2016-05-06T13:51:29Z</time>
      </trkpt>
      <trkpt lat="45.62666" lon="6.86695">
        <ele>1856.1</ele>
        <time>2016-05-06T13:51:31Z</time>
      </trkpt>
      <trkpt lat="45.62666" lon="6.86695">
        <ele>1856.1</ele>
        <time>2016-05-06T13:51:33Z</time>
      </trkpt>
      <trkpt lat="45.62665" lon="6.86695">
        <ele>1856.1</ele>
        <time>2016-05-06T13:51:35Z</time>
      </trkpt>
      <trkpt lat="45.62664" lon="6.86694">
        <ele>1856</ele>
        <time>2016-05-06T13:51:37Z</time>
      </trkpt>
      <trkpt lat="45.62664" lon="6.86694">
        <ele>1855.9</ele>
        <time>2016-05-06T13:51:39Z</time>
      </trkpt>
      <trkpt lat="45.62664" lon="6.86695">
        <ele>1855.8</ele>
        <time>2016-05-06T13:51:41Z</time>
      </trkpt>
      <trkpt lat="45.62664" lon="6.86695">
        <ele>1855.7</ele>
        <time>2016-05-06T13:51:43Z</time>
      </trkpt>
      <trkpt lat="45.62664" lon="6.86695">
        <ele>1855.7</ele>
        <time>2016-05-06T13:51:45Z</time>
      </trkpt>
      <trkpt lat="45.62664" lon="6.86695">
        <ele>1855.7</ele>
        <time>2016-05-06T13:51:47Z</time>
      </trkpt>
      <trkpt lat="45.62664" lon="6.86695">
        <ele>1855.7</ele>
        <time>2016-05-06T13:51:49Z</time>
      </trkpt>
      <trkpt lat="45.62663" lon="6.86695">
        <ele>1855.7</ele>
        <time>2016-05-06T13:51:51Z</time>
      </trkpt>
      <trkpt lat="45.62662" lon="6.86695">
        <ele>1855.7</ele>
        <time>2016-05-06T13:51:53Z</time>
      </trkpt>
      <trkpt lat="45.62662" lon="6.86695">
        <ele>1855.7</ele>
        <time>2016-05-06T13:51:55Z</time>
      </trkpt>
      <trkpt lat="45.62662" lon="6.86696">
        <ele>1855.7</ele>
        <time>2016-05-06T13:51:57Z</time>
      </trkpt>
      <trkpt lat="45.62661" lon="6.86696">
        <ele>1855.7</ele>
        <time>2016-05-06T13:51:59Z</time>
      </trkpt>
      <trkpt lat="45.62662" lon="6.86696">
        <ele>1855.7</ele>
        <time>2016-05-06T13:52:01Z</time>
      </trkpt>
      <trkpt lat="45.62661" lon="6.86695">
        <ele>1855.7</ele>
        <time>2016-05-06T13:52:03Z</time>
      </trkpt>
      <trkpt lat="45.62661" lon="6.86695">
        <ele>1855.6</ele>
        <time>2016-05-06T13:52:05Z</time>
      </trkpt>
      <trkpt lat="45.62661" lon="6.86696">
        <ele>1855.6</ele>
        <time>2016-05-06T13:52:07Z</time>
      </trkpt>
      <trkpt lat="45.62661" lon="6.86695">
        <ele>1855.7</ele>
        <time>2016-05-06T13:52:09Z</time>
      </trkpt>
      <trkpt lat="45.62661" lon="6.86695">
        <ele>1855.7</ele>
        <time>2016-05-06T13:52:11Z</time>
      </trkpt>
      <trkpt lat="45.62661" lon="6.86695">
        <ele>1855.7</ele>
        <time>2016-05-06T13:52:13Z</time>
      </trkpt>
      <trkpt lat="45.62661" lon="6.86695">
        <ele>1855.8</ele>
        <time>2016-05-06T13:52:15Z</time>
      </trkpt>
      <trkpt lat="45.62661" lon="6.86695">
        <ele>1855.8</ele>
        <time>2016-05-06T13:52:17Z</time>
      </trkpt>
      <trkpt lat="45.62661" lon="6.86695">
        <ele>1855.9</ele>
        <time>2016-05-06T13:52:19Z</time>
      </trkpt>
      <trkpt lat="45.62661" lon="6.86694">
        <ele>1855.9</ele>
        <time>2016-05-06T13:52:21Z</time>
      </trkpt>
      <trkpt lat="45.62661" lon="6.86694">
        <ele>1855.9</ele>
        <time>2016-05-06T13:52:23Z</time>
      </trkpt>
      <trkpt lat="45.62661" lon="6.86694">
        <ele>1855.9</ele>
        <time>2016-05-06T13:52:25Z</time>
      </trkpt>
      <trkpt lat="45.62661" lon="6.86694">
        <ele>1855.9</ele>
        <time>2016-05-06T13:52:27Z</time>
      </trkpt>
      <trkpt lat="45.62661" lon="6.86694">
        <ele>1856</ele>
        <time>2016-05-06T13:52:29Z</time>
      </trkpt>
      <trkpt lat="45.62661" lon="6.86694">
        <ele>1856</ele>
        <time>2016-05-06T13:52:31Z</time>
      </trkpt>
      <trkpt lat="45.62662" lon="6.86694">
        <ele>1856</ele>
        <time>2016-05-06T13:52:33Z</time>
      </trkpt>
      <trkpt lat="45.62662" lon="6.86694">
        <ele>1856</ele>
        <time>2016-05-06T13:52:35Z</time>
      </trkpt>
      <trkpt lat="45.62662" lon="6.86694">
        <ele>1856</ele>
        <time>2016-05-06T13:52:37Z</time>
      </trkpt>
      <trkpt lat="45.62664" lon="6.86694">
        <ele>1856.1</ele>
        <time>2016-05-06T13:52:39Z</time>
      </trkpt>
      <trkpt lat="45.62665" lon="6.86694">
        <ele>1856</ele>
        <time>2016-05-06T13:52:41Z</time>
      </trkpt>
      <trkpt lat="45.62664" lon="6.86694">
        <ele>1856</ele>
        <time>2016-05-06T13:52:43Z</time>
      </trkpt>
      <trkpt lat="45.62664" lon="6.86694">
        <ele>1855.9</ele>
        <time>2016-05-06T13:52:45Z</time>
      </trkpt>
      <trkpt lat="45.62664" lon="6.86694">
        <ele>1855.9</ele>
        <time>2016-05-06T13:52:47Z</time>
      </trkpt>
      <trkpt lat="45.62664" lon="6.86694">
        <ele>1855.9</ele>
        <time>2016-05-06T13:52:49Z</time>
      </trkpt>
      <trkpt lat="45.62664" lon="6.86694">
        <ele>1855.8</ele>
        <time>2016-05-06T13:52:51Z</time>
      </trkpt>
      <trkpt lat="45.62663" lon="6.86694">
        <ele>1855.8</ele>
        <time>2016-05-06T13:52:53Z</time>
      </trkpt>
      <trkpt lat="45.62664" lon="6.86694">
        <ele>1855.9</ele>
        <time>2016-05-06T13:52:55Z</time>
      </trkpt>
      <trkpt lat="45.62664" lon="6.86694">
        <ele>1856</ele>
        <time>2016-05-06T13:52:57Z</time>
      </trkpt>
      <trkpt lat="45.62667" lon="6.86695">
        <ele>1856</ele>
        <time>2016-05-06T13:52:59Z</time>
      </trkpt>
      <trkpt lat="45.62668" lon="6.86695">
        <ele>1856.1</ele>
        <time>2016-05-06T13:53:01Z</time>
      </trkpt>
      <trkpt lat="45.62669" lon="6.86695">
        <ele>1856.1</ele>
        <time>2016-05-06T13:53:03Z</time>
      </trkpt>
      <trkpt lat="45.62669" lon="6.86695">
        <ele>1856.1</ele>
        <time>2016-05-06T13:53:05Z</time>
      </trkpt>
      <trkpt lat="45.62669" lon="6.86695">
        <ele>1856.1</ele>
        <time>2016-05-06T13:53:07Z</time>
      </trkpt>
      <trkpt lat="45.6267" lon="6.86695">
        <ele>1856.1</ele>
        <time>2016-05-06T13:53:09Z</time>
      </trkpt>
      <trkpt lat="45.62672" lon="6.86694">
        <ele>1856.2</ele>
        <time>2016-05-06T13:53:11Z</time>
      </trkpt>
      <trkpt lat="45.62672" lon="6.86694">
        <ele>1856.2</ele>
        <time>2016-05-06T13:53:13Z</time>
      </trkpt>
      <trkpt lat="45.62672" lon="6.86693">
        <ele>1856.2</ele>
        <time>2016-05-06T13:53:15Z</time>
      </trkpt>
      <trkpt lat="45.62672" lon="6.86693">
        <ele>1856.1</ele>
        <time>2016-05-06T13:53:17Z</time>
      </trkpt>
      <trkpt lat="45.62672" lon="6.86693">
        <ele>1856.1</ele>
        <time>2016-05-06T13:53:19Z</time>
      </trkpt>
      <trkpt lat="45.62673" lon="6.86692">
        <ele>1856.1</ele>
        <time>2016-05-06T13:53:21Z</time>
      </trkpt>
      <trkpt lat="45.62672" lon="6.86692">
        <ele>1856.1</ele>
        <time>2016-05-06T13:53:23Z</time>
      </trkpt>
      <trkpt lat="45.62672" lon="6.86692">
        <ele>1856.2</ele>
        <time>2016-05-06T13:53:25Z</time>
      </trkpt>
      <trkpt lat="45.62672" lon="6.86692">
        <ele>1856.2</ele>
        <time>2016-05-06T13:53:27Z</time>
      </trkpt>
      <trkpt lat="45.62672" lon="6.86692">
        <ele>1856.3</ele>
        <time>2016-05-06T13:53:29Z</time>
      </trkpt>
      <trkpt lat="45.62672" lon="6.86692">
        <ele>1856.3</ele>
        <time>2016-05-06T13:53:31Z</time>
      </trkpt>
      <trkpt lat="45.62672" lon="6.86692">
        <ele>1856.3</ele>
        <time>2016-05-06T13:53:33Z</time>
      </trkpt>
      <trkpt lat="45.62672" lon="6.86692">
        <ele>1856.2</ele>
        <time>2016-05-06T13:53:35Z</time>
      </trkpt>
      <trkpt lat="45.62672" lon="6.86692">
        <ele>1856.2</ele>
        <time>2016-05-06T13:53:37Z</time>
      </trkpt>
      <trkpt lat="45.62671" lon="6.86692">
        <ele>1856.2</ele>
        <time>2016-05-06T13:53:39Z</time>
      </trkpt>
      <trkpt lat="45.62671" lon="6.86692">
        <ele>1856.3</ele>
        <time>2016-05-06T13:53:41Z</time>
      </trkpt>
      <trkpt lat="45.6267" lon="6.86692">
        <ele>1856.3</ele>
        <time>2016-05-06T13:53:43Z</time>
      </trkpt>
      <trkpt lat="45.6267" lon="6.86693">
        <ele>1856.3</ele>
        <time>2016-05-06T13:53:45Z</time>
      </trkpt>
      <trkpt lat="45.62671" lon="6.86693">
        <ele>1856.2</ele>
        <time>2016-05-06T13:53:47Z</time>
      </trkpt>
      <trkpt lat="45.6267" lon="6.86693">
        <ele>1856.2</ele>
        <time>2016-05-06T13:53:49Z</time>
      </trkpt>
      <trkpt lat="45.6267" lon="6.86693">
        <ele>1856.3</ele>
        <time>2016-05-06T13:53:51Z</time>
      </trkpt>
      <trkpt lat="45.6267" lon="6.86693">
        <ele>1856.5</ele>
        <time>2016-05-06T13:53:53Z</time>
      </trkpt>
      <trkpt lat="45.62669" lon="6.86692">
        <ele>1856.5</ele>
        <time>2016-05-06T13:53:55Z</time>
      </trkpt>
      <trkpt lat="45.62669" lon="6.86692">
        <ele>1856.4</ele>
        <time>2016-05-06T13:53:57Z</time>
      </trkpt>
      <trkpt lat="45.62669" lon="6.86692">
        <ele>1856.3</ele>
        <time>2016-05-06T13:53:59Z</time>
      </trkpt>
      <trkpt lat="45.6267" lon="6.86692">
        <ele>1856.2</ele>
        <time>2016-05-06T13:54:01Z</time>
      </trkpt>
      <trkpt lat="45.62672" lon="6.86692">
        <ele>1856.1</ele>
        <time>2016-05-06T13:54:03Z</time>
      </trkpt>
      <trkpt lat="45.62672" lon="6.86692">
        <ele>1856</ele>
        <time>2016-05-06T13:54:05Z</time>
      </trkpt>
      <trkpt lat="45.62672" lon="6.86692">
        <ele>1856</ele>
        <time>2016-05-06T13:54:07Z</time>
      </trkpt>
      <trkpt lat="45.62672" lon="6.86692">
        <ele>1856</ele>
        <time>2016-05-06T13:54:09Z</time>
      </trkpt>
      <trkpt lat="45.62673" lon="6.86692">
        <ele>1855.9</ele>
        <time>2016-05-06T13:54:11Z</time>
      </trkpt>
      <trkpt lat="45.62673" lon="6.86692">
        <ele>1855.9</ele>
        <time>2016-05-06T13:54:13Z</time>
      </trkpt>
      <trkpt lat="45.62673" lon="6.86692">
        <ele>1855.8</ele>
        <time>2016-05-06T13:54:15Z</time>
      </trkpt>
      <trkpt lat="45.62673" lon="6.86692">
        <ele>1855.8</ele>
        <time>2016-05-06T13:54:17Z</time>
      </trkpt>
      <trkpt lat="45.62674" lon="6.86692">
        <ele>1855.9</ele>
        <time>2016-05-06T13:54:19Z</time>
      </trkpt>
      <trkpt lat="45.62674" lon="6.86693">
        <ele>1856</ele>
        <time>2016-05-06T13:54:21Z</time>
      </trkpt>
      <trkpt lat="45.62674" lon="6.86693">
        <ele>1856</ele>
        <time>2016-05-06T13:54:23Z</time>
      </trkpt>
      <trkpt lat="45.62674" lon="6.86693">
        <ele>1856</ele>
        <time>2016-05-06T13:54:25Z</time>
      </trkpt>
      <trkpt lat="45.62674" lon="6.86694">
        <ele>1855.9</ele>
        <time>2016-05-06T13:54:27Z</time>
      </trkpt>
      <trkpt lat="45.62675" lon="6.86694">
        <ele>1856.1</ele>
        <time>2016-05-06T13:54:29Z</time>
      </trkpt>
      <trkpt lat="45.62675" lon="6.86694">
        <ele>1856.2</ele>
        <time>2016-05-06T13:54:31Z</time>
      </trkpt>
      <trkpt lat="45.62675" lon="6.86694">
        <ele>1856.1</ele>
        <time>2016-05-06T13:54:33Z</time>
      </trkpt>
      <trkpt lat="45.62674" lon="6.86694">
        <ele>1856</ele>
        <time>2016-05-06T13:54:35Z</time>
      </trkpt>
      <trkpt lat="45.62673" lon="6.86694">
        <ele>1856</ele>
        <time>2016-05-06T13:54:37Z</time>
      </trkpt>
      <trkpt lat="45.62673" lon="6.86695">
        <ele>1855.9</ele>
        <time>2016-05-06T13:54:39Z</time>
      </trkpt>
      <trkpt lat="45.62673" lon="6.86694">
        <ele>1855.9</ele>
        <time>2016-05-06T13:54:41Z</time>
      </trkpt>
      <trkpt lat="45.62673" lon="6.86695">
        <ele>1855.9</ele>
        <time>2016-05-06T13:54:43Z</time>
      </trkpt>
      <trkpt lat="45.62672" lon="6.86694">
        <ele>1856</ele>
        <time>2016-05-06T13:54:45Z</time>
      </trkpt>
      <trkpt lat="45.62673" lon="6.86694">
        <ele>1856.1</ele>
        <time>2016-05-06T13:54:47Z</time>
      </trkpt>
      <trkpt lat="45.62672" lon="6.86694">
        <ele>1856</ele>
        <time>2016-05-06T13:54:49Z</time>
      </trkpt>
      <trkpt lat="45.62672" lon="6.86694">
        <ele>1856.1</ele>
        <time>2016-05-06T13:54:51Z</time>
      </trkpt>
      <trkpt lat="45.62672" lon="6.86694">
        <ele>1856.2</ele>
        <time>2016-05-06T13:54:53Z</time>
      </trkpt>
      <trkpt lat="45.62672" lon="6.86694">
        <ele>1856.1</ele>
        <time>2016-05-06T13:54:55Z</time>
      </trkpt>
      <trkpt lat="45.62672" lon="6.86694">
        <ele>1856</ele>
        <time>2016-05-06T13:54:57Z</time>
      </trkpt>
      <trkpt lat="45.62672" lon="6.86694">
        <ele>1856.1</ele>
        <time>2016-05-06T13:54:59Z</time>
      </trkpt>
      <trkpt lat="45.62672" lon="6.86694">
        <ele>1856.1</ele>
        <time>2016-05-06T13:55:01Z</time>
      </trkpt>
      <trkpt lat="45.62672" lon="6.86693">
        <ele>1856</ele>
        <time>2016-05-06T13:55:03Z</time>
      </trkpt>
      <trkpt lat="45.62672" lon="6.86693">
        <ele>1855.9</ele>
        <time>2016-05-06T13:55:05Z</time>
      </trkpt>
      <trkpt lat="45.62672" lon="6.86693">
        <ele>1855.8</ele>
        <time>2016-05-06T13:55:07Z</time>
      </trkpt>
      <trkpt lat="45.62672" lon="6.86693">
        <ele>1855.7</ele>
        <time>2016-05-06T13:55:09Z</time>
      </trkpt>
      <trkpt lat="45.62673" lon="6.86693">
        <ele>1855.7</ele>
        <time>2016-05-06T13:55:11Z</time>
      </trkpt>
      <trkpt lat="45.62673" lon="6.86693">
        <ele>1855.8</ele>
        <time>2016-05-06T13:55:13Z</time>
      </trkpt>
      <trkpt lat="45.62675" lon="6.86693">
        <ele>1855.8</ele>
        <time>2016-05-06T13:55:15Z</time>
      </trkpt>
      <trkpt lat="45.62675" lon="6.86693">
        <ele>1855.8</ele>
        <time>2016-05-06T13:55:17Z</time>
      </trkpt>
      <trkpt lat="45.62676" lon="6.86693">
        <ele>1855.7</ele>
        <time>2016-05-06T13:55:19Z</time>
      </trkpt>
      <trkpt lat="45.62676" lon="6.86693">
        <ele>1855.7</ele>
        <time>2016-05-06T13:55:21Z</time>
      </trkpt>
      <trkpt lat="45.62675" lon="6.86693">
        <ele>1855.7</ele>
        <time>2016-05-06T13:55:23Z</time>
      </trkpt>
      <trkpt lat="45.62675" lon="6.86694">
        <ele>1855.6</ele>
        <time>2016-05-06T13:55:25Z</time>
      </trkpt>
      <trkpt lat="45.62675" lon="6.86694">
        <ele>1855.6</ele>
        <time>2016-05-06T13:55:27Z</time>
      </trkpt>
      <trkpt lat="45.62675" lon="6.86695">
        <ele>1855.7</ele>
        <time>2016-05-06T13:55:29Z</time>
      </trkpt>
      <trkpt lat="45.62675" lon="6.86695">
        <ele>1855.8</ele>
        <time>2016-05-06T13:55:31Z</time>
      </trkpt>
      <trkpt lat="45.62675" lon="6.86694">
        <ele>1855.8</ele>
        <time>2016-05-06T13:55:33Z</time>
      </trkpt>
      <trkpt lat="45.62676" lon="6.86694">
        <ele>1855.7</ele>
        <time>2016-05-06T13:55:35Z</time>
      </trkpt>
      <trkpt lat="45.62676" lon="6.86694">
        <ele>1855.7</ele>
        <time>2016-05-06T13:55:37Z</time>
      </trkpt>
      <trkpt lat="45.62676" lon="6.86694">
        <ele>1855.7</ele>
        <time>2016-05-06T13:55:39Z</time>
      </trkpt>
      <trkpt lat="45.62677" lon="6.86694">
        <ele>1855.7</ele>
        <time>2016-05-06T13:55:41Z</time>
      </trkpt>
      <trkpt lat="45.62677" lon="6.86695">
        <ele>1855.7</ele>
        <time>2016-05-06T13:55:43Z</time>
      </trkpt>
      <trkpt lat="45.62677" lon="6.86695">
        <ele>1855.7</ele>
        <time>2016-05-06T13:55:45Z</time>
      </trkpt>
      <trkpt lat="45.62678" lon="6.86695">
        <ele>1855.7</ele>
        <time>2016-05-06T13:55:47Z</time>
      </trkpt>
      <trkpt lat="45.62677" lon="6.86694">
        <ele>1855.7</ele>
        <time>2016-05-06T13:55:49Z</time>
      </trkpt>
      <trkpt lat="45.62677" lon="6.86695">
        <ele>1855.6</ele>
        <time>2016-05-06T13:55:51Z</time>
      </trkpt>
      <trkpt lat="45.62677" lon="6.86695">
        <ele>1855.6</ele>
        <time>2016-05-06T13:55:53Z</time>
      </trkpt>
      <trkpt lat="45.62677" lon="6.86695">
        <ele>1855.6</ele>
        <time>2016-05-06T13:55:55Z</time>
      </trkpt>
      <trkpt lat="45.62677" lon="6.86695">
        <ele>1855.7</ele>
        <time>2016-05-06T13:55:57Z</time>
      </trkpt>
      <trkpt lat="45.62676" lon="6.86695">
        <ele>1855.9</ele>
        <time>2016-05-06T13:55:59Z</time>
      </trkpt>
      <trkpt lat="45.62676" lon="6.86694">
        <ele>1856</ele>
        <time>2016-05-06T13:56:01Z</time>
      </trkpt>
      <trkpt lat="45.62675" lon="6.86694">
        <ele>1856.1</ele>
        <time>2016-05-06T13:56:03Z</time>
      </trkpt>
      <trkpt lat="45.62675" lon="6.86695">
        <ele>1856.1</ele>
        <time>2016-05-06T13:56:05Z</time>
      </trkpt>
      <trkpt lat="45.62674" lon="6.86695">
        <ele>1856.1</ele>
        <time>2016-05-06T13:56:07Z</time>
      </trkpt>
      <trkpt lat="45.62674" lon="6.86695">
        <ele>1856</ele>
        <time>2016-05-06T13:56:09Z</time>
      </trkpt>
      <trkpt lat="45.62673" lon="6.86695">
        <ele>1855.9</ele>
        <time>2016-05-06T13:56:11Z</time>
      </trkpt>
      <trkpt lat="45.62673" lon="6.86694">
        <ele>1855.8</ele>
        <time>2016-05-06T13:56:13Z</time>
      </trkpt>
      <trkpt lat="45.62674" lon="6.86694">
        <ele>1855.9</ele>
        <time>2016-05-06T13:56:15Z</time>
      </trkpt>
      <trkpt lat="45.62674" lon="6.86693">
        <ele>1855.9</ele>
        <time>2016-05-06T13:56:17Z</time>
      </trkpt>
      <trkpt lat="45.62675" lon="6.86693">
        <ele>1855.8</ele>
        <time>2016-05-06T13:56:19Z</time>
      </trkpt>
      <trkpt lat="45.62676" lon="6.86693">
        <ele>1855.9</ele>
        <time>2016-05-06T13:56:21Z</time>
      </trkpt>
      <trkpt lat="45.62676" lon="6.86692">
        <ele>1856</ele>
        <time>2016-05-06T13:56:23Z</time>
      </trkpt>
      <trkpt lat="45.62676" lon="6.86692">
        <ele>1856</ele>
        <time>2016-05-06T13:56:25Z</time>
      </trkpt>
      <trkpt lat="45.62676" lon="6.86693">
        <ele>1856.1</ele>
        <time>2016-05-06T13:56:27Z</time>
      </trkpt>
      <trkpt lat="45.62675" lon="6.86693">
        <ele>1856.1</ele>
        <time>2016-05-06T13:56:29Z</time>
      </trkpt>
      <trkpt lat="45.62674" lon="6.86693">
        <ele>1856</ele>
        <time>2016-05-06T13:56:31Z</time>
      </trkpt>
      <trkpt lat="45.62672" lon="6.86694">
        <ele>1855.9</ele>
        <time>2016-05-06T13:56:33Z</time>
      </trkpt>
      <trkpt lat="45.62672" lon="6.86694">
        <ele>1855.8</ele>
        <time>2016-05-06T13:56:35Z</time>
      </trkpt>
      <trkpt lat="45.62671" lon="6.86695">
        <ele>1855.8</ele>
        <time>2016-05-06T13:56:37Z</time>
      </trkpt>
      <trkpt lat="45.62671" lon="6.86696">
        <ele>1855.7</ele>
        <time>2016-05-06T13:56:39Z</time>
      </trkpt>
      <trkpt lat="45.62672" lon="6.86695">
        <ele>1855.7</ele>
        <time>2016-05-06T13:56:41Z</time>
      </trkpt>
      <trkpt lat="45.62672" lon="6.86695">
        <ele>1855.6</ele>
        <time>2016-05-06T13:56:43Z</time>
      </trkpt>
      <trkpt lat="45.62672" lon="6.86695">
        <ele>1855.6</ele>
        <time>2016-05-06T13:56:45Z</time>
      </trkpt>
      <trkpt lat="45.62672" lon="6.86694">
        <ele>1855.7</ele>
        <time>2016-05-06T13:56:47Z</time>
      </trkpt>
      <trkpt lat="45.62672" lon="6.86694">
        <ele>1855.7</ele>
        <time>2016-05-06T13:56:49Z</time>
      </trkpt>
      <trkpt lat="45.62672" lon="6.86693">
        <ele>1855.7</ele>
        <time>2016-05-06T13:56:51Z</time>
      </trkpt>
      <trkpt lat="45.62672" lon="6.86693">
        <ele>1855.7</ele>
        <time>2016-05-06T13:56:53Z</time>
      </trkpt>
      <trkpt lat="45.62672" lon="6.86693">
        <ele>1855.7</ele>
        <time>2016-05-06T13:56:55Z</time>
      </trkpt>
      <trkpt lat="45.62672" lon="6.86692">
        <ele>1855.7</ele>
        <time>2016-05-06T13:56:57Z</time>
      </trkpt>
      <trkpt lat="45.62672" lon="6.86692">
        <ele>1855.6</ele>
        <time>2016-05-06T13:56:59Z</time>
      </trkpt>
      <trkpt lat="45.62672" lon="6.86692">
        <ele>1855.6</ele>
        <time>2016-05-06T13:57:01Z</time>
      </trkpt>
      <trkpt lat="45.62672" lon="6.86692">
        <ele>1855.7</ele>
        <time>2016-05-06T13:57:03Z</time>
      </trkpt>
      <trkpt lat="45.62675" lon="6.86692">
        <ele>1855.7</ele>
        <time>2016-05-06T13:57:05Z</time>
      </trkpt>
      <trkpt lat="45.62676" lon="6.86692">
        <ele>1855.7</ele>
        <time>2016-05-06T13:57:07Z</time>
      </trkpt>
      <trkpt lat="45.62677" lon="6.86692">
        <ele>1855.8</ele>
        <time>2016-05-06T13:57:09Z</time>
      </trkpt>
      <trkpt lat="45.62678" lon="6.86691">
        <ele>1855.8</ele>
        <time>2016-05-06T13:57:11Z</time>
      </trkpt>
      <trkpt lat="45.62677" lon="6.86691">
        <ele>1855.7</ele>
        <time>2016-05-06T13:57:13Z</time>
      </trkpt>
      <trkpt lat="45.62677" lon="6.86692">
        <ele>1855.7</ele>
        <time>2016-05-06T13:57:15Z</time>
      </trkpt>
      <trkpt lat="45.62678" lon="6.86692">
        <ele>1855.9</ele>
        <time>2016-05-06T13:57:17Z</time>
      </trkpt>
      <trkpt lat="45.62678" lon="6.86692">
        <ele>1856.1</ele>
        <time>2016-05-06T13:57:19Z</time>
      </trkpt>
      <trkpt lat="45.62678" lon="6.86692">
        <ele>1856.3</ele>
        <time>2016-05-06T13:57:21Z</time>
      </trkpt>
      <trkpt lat="45.62679" lon="6.86692">
        <ele>1856.3</ele>
        <time>2016-05-06T13:57:23Z</time>
      </trkpt>
      <trkpt lat="45.62679" lon="6.86692">
        <ele>1856.4</ele>
        <time>2016-05-06T13:57:25Z</time>
      </trkpt>
      <trkpt lat="45.62678" lon="6.86693">
        <ele>1856.2</ele>
        <time>2016-05-06T13:57:27Z</time>
      </trkpt>
      <trkpt lat="45.62677" lon="6.86694">
        <ele>1856</ele>
        <time>2016-05-06T13:57:29Z</time>
      </trkpt>
      <trkpt lat="45.62676" lon="6.86694">
        <ele>1855.9</ele>
        <time>2016-05-06T13:57:31Z</time>
      </trkpt>
      <trkpt lat="45.62677" lon="6.86693">
        <ele>1855.9</ele>
        <time>2016-05-06T13:57:33Z</time>
      </trkpt>
      <trkpt lat="45.62677" lon="6.86692">
        <ele>1855.7</ele>
        <time>2016-05-06T13:57:35Z</time>
      </trkpt>
      <trkpt lat="45.62677" lon="6.86692">
        <ele>1855.6</ele>
        <time>2016-05-06T13:57:37Z</time>
      </trkpt>
      <trkpt lat="45.62678" lon="6.86692">
        <ele>1855.7</ele>
        <time>2016-05-06T13:57:39Z</time>
      </trkpt>
      <trkpt lat="45.62679" lon="6.86692">
        <ele>1855.7</ele>
        <time>2016-05-06T13:57:41Z</time>
      </trkpt>
      <trkpt lat="45.62679" lon="6.86692">
        <ele>1855.9</ele>
        <time>2016-05-06T13:57:43Z</time>
      </trkpt>
      <trkpt lat="45.62679" lon="6.86691">
        <ele>1856</ele>
        <time>2016-05-06T13:57:45Z</time>
      </trkpt>
      <trkpt lat="45.62679" lon="6.86692">
        <ele>1856</ele>
        <time>2016-05-06T13:57:47Z</time>
      </trkpt>
      <trkpt lat="45.62679" lon="6.86692">
        <ele>1856.1</ele>
        <time>2016-05-06T13:57:49Z</time>
      </trkpt>
      <trkpt lat="45.62679" lon="6.86692">
        <ele>1856.2</ele>
        <time>2016-05-06T13:57:51Z</time>
      </trkpt>
      <trkpt lat="45.6268" lon="6.86691">
        <ele>1856.2</ele>
        <time>2016-05-06T13:57:53Z</time>
      </trkpt>
      <trkpt lat="45.6268" lon="6.86692">
        <ele>1856.3</ele>
        <time>2016-05-06T13:57:55Z</time>
      </trkpt>
      <trkpt lat="45.6268" lon="6.86692">
        <ele>1856.5</ele>
        <time>2016-05-06T13:57:57Z</time>
      </trkpt>
      <trkpt lat="45.6268" lon="6.86692">
        <ele>1856.6</ele>
        <time>2016-05-06T13:57:59Z</time>
      </trkpt>
      <trkpt lat="45.6268" lon="6.86692">
        <ele>1856.7</ele>
        <time>2016-05-06T13:58:01Z</time>
      </trkpt>
      <trkpt lat="45.6268" lon="6.86692">
        <ele>1856.7</ele>
        <time>2016-05-06T13:58:03Z</time>
      </trkpt>
      <trkpt lat="45.62679" lon="6.86692">
        <ele>1856.6</ele>
        <time>2016-05-06T13:58:05Z</time>
      </trkpt>
      <trkpt lat="45.62679" lon="6.86693">
        <ele>1856.5</ele>
        <time>2016-05-06T13:58:07Z</time>
      </trkpt>
      <trkpt lat="45.62679" lon="6.86693">
        <ele>1856.6</ele>
        <time>2016-05-06T13:58:09Z</time>
      </trkpt>
      <trkpt lat="45.62679" lon="6.86692">
        <ele>1856.6</ele>
        <time>2016-05-06T13:58:11Z</time>
      </trkpt>
      <trkpt lat="45.6268" lon="6.86692">
        <ele>1856.5</ele>
        <time>2016-05-06T13:58:13Z</time>
      </trkpt>
      <trkpt lat="45.62679" lon="6.86692">
        <ele>1856.6</ele>
        <time>2016-05-06T13:58:15Z</time>
      </trkpt>
      <trkpt lat="45.62678" lon="6.86696">
        <ele>1856.6</ele>
        <time>2016-05-06T13:58:17Z</time>
      </trkpt>
      <trkpt lat="45.62675" lon="6.86698">
        <ele>1856.6</ele>
        <time>2016-05-06T13:58:19Z</time>
      </trkpt>
      <trkpt lat="45.62676" lon="6.86697">
        <ele>1856.4</ele>
        <time>2016-05-06T13:58:21Z</time>
      </trkpt>
      <trkpt lat="45.62677" lon="6.86697">
        <ele>1856.2</ele>
        <time>2016-05-06T13:58:23Z</time>
      </trkpt>
      <trkpt lat="45.62677" lon="6.86695">
        <ele>1856.1</ele>
        <time>2016-05-06T13:58:25Z</time>
      </trkpt>
      <trkpt lat="45.62679" lon="6.86693">
        <ele>1856</ele>
        <time>2016-05-06T13:58:27Z</time>
      </trkpt>
      <trkpt lat="45.6268" lon="6.86693">
        <ele>1856</ele>
        <time>2016-05-06T13:58:29Z</time>
      </trkpt>
      <trkpt lat="45.6268" lon="6.86693">
        <ele>1856</ele>
        <time>2016-05-06T13:58:31Z</time>
      </trkpt>
      <trkpt lat="45.6268" lon="6.86693">
        <ele>1856.1</ele>
        <time>2016-05-06T13:58:33Z</time>
      </trkpt>
      <trkpt lat="45.62681" lon="6.86692">
        <ele>1856</ele>
        <time>2016-05-06T13:58:35Z</time>
      </trkpt>
      <trkpt lat="45.62681" lon="6.86691">
        <ele>1855.9</ele>
        <time>2016-05-06T13:58:37Z</time>
      </trkpt>
      <trkpt lat="45.62681" lon="6.86691">
        <ele>1855.8</ele>
        <time>2016-05-06T13:58:39Z</time>
      </trkpt>
      <trkpt lat="45.62681" lon="6.8669">
        <ele>1855.7</ele>
        <time>2016-05-06T13:58:41Z</time>
      </trkpt>
      <trkpt lat="45.62681" lon="6.8669">
        <ele>1855.8</ele>
        <time>2016-05-06T13:58:43Z</time>
      </trkpt>
      <trkpt lat="45.62681" lon="6.8669">
        <ele>1855.8</ele>
        <time>2016-05-06T13:58:45Z</time>
      </trkpt>
      <trkpt lat="45.6268" lon="6.8669">
        <ele>1855.8</ele>
        <time>2016-05-06T13:58:47Z</time>
      </trkpt>
      <trkpt lat="45.6268" lon="6.8669">
        <ele>1855.8</ele>
        <time>2016-05-06T13:58:49Z</time>
      </trkpt>
      <trkpt lat="45.6268" lon="6.8669">
        <ele>1855.8</ele>
        <time>2016-05-06T13:58:51Z</time>
      </trkpt>
      <trkpt lat="45.62682" lon="6.8669">
        <ele>1855.8</ele>
        <time>2016-05-06T13:58:53Z</time>
      </trkpt>
      <trkpt lat="45.62684" lon="6.8669">
        <ele>1855.8</ele>
        <time>2016-05-06T13:58:55Z</time>
      </trkpt>
      <trkpt lat="45.62684" lon="6.8669">
        <ele>1855.7</ele>
        <time>2016-05-06T13:58:57Z</time>
      </trkpt>
      <trkpt lat="45.62684" lon="6.8669">
        <ele>1855.6</ele>
        <time>2016-05-06T13:58:59Z</time>
      </trkpt>
      <trkpt lat="45.62684" lon="6.86689">
        <ele>1855.7</ele>
        <time>2016-05-06T13:59:01Z</time>
      </trkpt>
      <trkpt lat="45.62685" lon="6.86689">
        <ele>1855.5</ele>
        <time>2016-05-06T13:59:03Z</time>
      </trkpt>
      <trkpt lat="45.62684" lon="6.86689">
        <ele>1855.5</ele>
        <time>2016-05-06T13:59:05Z</time>
      </trkpt>
      <trkpt lat="45.62684" lon="6.86689">
        <ele>1855.4</ele>
        <time>2016-05-06T13:59:07Z</time>
      </trkpt>
      <trkpt lat="45.62683" lon="6.86689">
        <ele>1855.5</ele>
        <time>2016-05-06T13:59:09Z</time>
      </trkpt>
      <trkpt lat="45.62684" lon="6.86689">
        <ele>1855.5</ele>
        <time>2016-05-06T13:59:11Z</time>
      </trkpt>
      <trkpt lat="45.62684" lon="6.86689">
        <ele>1855.6</ele>
        <time>2016-05-06T13:59:13Z</time>
      </trkpt>
      <trkpt lat="45.62684" lon="6.86688">
        <ele>1855.6</ele>
        <time>2016-05-06T13:59:15Z</time>
      </trkpt>
      <trkpt lat="45.62684" lon="6.86688">
        <ele>1855.6</ele>
        <time>2016-05-06T13:59:17Z</time>
      </trkpt>
      <trkpt lat="45.62684" lon="6.86688">
        <ele>1855.5</ele>
        <time>2016-05-06T13:59:19Z</time>
      </trkpt>
      <trkpt lat="45.62683" lon="6.86688">
        <ele>1855.5</ele>
        <time>2016-05-06T13:59:21Z</time>
      </trkpt>
      <trkpt lat="45.62682" lon="6.86688">
        <ele>1855.5</ele>
        <time>2016-05-06T13:59:23Z</time>
      </trkpt>
      <trkpt lat="45.62682" lon="6.86688">
        <ele>1855.5</ele>
        <time>2016-05-06T13:59:25Z</time>
      </trkpt>
      <trkpt lat="45.62681" lon="6.86689">
        <ele>1855.4</ele>
        <time>2016-05-06T13:59:27Z</time>
      </trkpt>
      <trkpt lat="45.6268" lon="6.86689">
        <ele>1855.2</ele>
        <time>2016-05-06T13:59:29Z</time>
      </trkpt>
      <trkpt lat="45.62679" lon="6.86689">
        <ele>1855.3</ele>
        <time>2016-05-06T13:59:31Z</time>
      </trkpt>
      <trkpt lat="45.62677" lon="6.8669">
        <ele>1855.3</ele>
        <time>2016-05-06T13:59:33Z</time>
      </trkpt>
      <trkpt lat="45.62675" lon="6.8669">
        <ele>1855.3</ele>
        <time>2016-05-06T13:59:35Z</time>
      </trkpt>
      <trkpt lat="45.62675" lon="6.8669">
        <ele>1855.3</ele>
        <time>2016-05-06T13:59:37Z</time>
      </trkpt>
      <trkpt lat="45.62675" lon="6.8669">
        <ele>1855.4</ele>
        <time>2016-05-06T13:59:39Z</time>
      </trkpt>
      <trkpt lat="45.62675" lon="6.8669">
        <ele>1855.4</ele>
        <time>2016-05-06T13:59:41Z</time>
      </trkpt>
      <trkpt lat="45.62676" lon="6.86691">
        <ele>1855.4</ele>
        <time>2016-05-06T13:59:43Z</time>
      </trkpt>
      <trkpt lat="45.62677" lon="6.86691">
        <ele>1855.2</ele>
        <time>2016-05-06T13:59:45Z</time>
      </trkpt>
      <trkpt lat="45.62676" lon="6.86692">
        <ele>1855.1</ele>
        <time>2016-05-06T13:59:47Z</time>
      </trkpt>
      <trkpt lat="45.62676" lon="6.86692">
        <ele>1855.1</ele>
        <time>2016-05-06T13:59:49Z</time>
      </trkpt>
      <trkpt lat="45.62674" lon="6.86693">
        <ele>1855.1</ele>
        <time>2016-05-06T13:59:51Z</time>
      </trkpt>
      <trkpt lat="45.62674" lon="6.86693">
        <ele>1855.1</ele>
        <time>2016-05-06T13:59:53Z</time>
      </trkpt>
      <trkpt lat="45.62674" lon="6.86694">
        <ele>1855.1</ele>
        <time>2016-05-06T13:59:55Z</time>
      </trkpt>
      <trkpt lat="45.62673" lon="6.86694">
        <ele>1855.1</ele>
        <time>2016-05-06T13:59:57Z</time>
      </trkpt>
      <trkpt lat="45.62673" lon="6.86695">
        <ele>1855.2</ele>
        <time>2016-05-06T13:59:59Z</time>
      </trkpt>
      <trkpt lat="45.62673" lon="6.86695">
        <ele>1855.2</ele>
        <time>2016-05-06T14:00:01Z</time>
      </trkpt>
      <trkpt lat="45.62673" lon="6.86695">
        <ele>1855.2</ele>
        <time>2016-05-06T14:00:03Z</time>
      </trkpt>
      <trkpt lat="45.62673" lon="6.86696">
        <ele>1855.4</ele>
        <time>2016-05-06T14:00:05Z</time>
      </trkpt>
      <trkpt lat="45.62674" lon="6.86695">
        <ele>1855.6</ele>
        <time>2016-05-06T14:00:07Z</time>
      </trkpt>
      <trkpt lat="45.62674" lon="6.86695">
        <ele>1855.8</ele>
        <time>2016-05-06T14:00:09Z</time>
      </trkpt>
      <trkpt lat="45.62674" lon="6.86695">
        <ele>1855.9</ele>
        <time>2016-05-06T14:00:11Z</time>
      </trkpt>
      <trkpt lat="45.62675" lon="6.86694">
        <ele>1855.9</ele>
        <time>2016-05-06T14:00:13Z</time>
      </trkpt>
      <trkpt lat="45.62675" lon="6.86694">
        <ele>1855.8</ele>
        <time>2016-05-06T14:00:15Z</time>
      </trkpt>
      <trkpt lat="45.62675" lon="6.86694">
        <ele>1856</ele>
        <time>2016-05-06T14:00:17Z</time>
      </trkpt>
      <trkpt lat="45.62676" lon="6.86694">
        <ele>1856.1</ele>
        <time>2016-05-06T14:00:19Z</time>
      </trkpt>
      <trkpt lat="45.62676" lon="6.86694">
        <ele>1856.2</ele>
        <time>2016-05-06T14:00:21Z</time>
      </trkpt>
      <trkpt lat="45.62676" lon="6.86694">
        <ele>1856.1</ele>
        <time>2016-05-06T14:00:23Z</time>
      </trkpt>
      <trkpt lat="45.62676" lon="6.86694">
        <ele>1856.1</ele>
        <time>2016-05-06T14:00:25Z</time>
      </trkpt>
      <trkpt lat="45.62676" lon="6.86694">
        <ele>1856.1</ele>
        <time>2016-05-06T14:00:27Z</time>
      </trkpt>
      <trkpt lat="45.62677" lon="6.86693">
        <ele>1856.1</ele>
        <time>2016-05-06T14:00:29Z</time>
      </trkpt>
      <trkpt lat="45.62677" lon="6.86692">
        <ele>1856.2</ele>
        <time>2016-05-06T14:00:31Z</time>
      </trkpt>
      <trkpt lat="45.62678" lon="6.86692">
        <ele>1856.1</ele>
        <time>2016-05-06T14:00:33Z</time>
      </trkpt>
      <trkpt lat="45.62678" lon="6.86693">
        <ele>1856.3</ele>
        <time>2016-05-06T14:00:35Z</time>
      </trkpt>
      <trkpt lat="45.62679" lon="6.86693">
        <ele>1856.4</ele>
        <time>2016-05-06T14:00:37Z</time>
      </trkpt>
      <trkpt lat="45.62679" lon="6.86693">
        <ele>1856.5</ele>
        <time>2016-05-06T14:00:39Z</time>
      </trkpt>
      <trkpt lat="45.62679" lon="6.86693">
        <ele>1856.7</ele>
        <time>2016-05-06T14:00:41Z</time>
      </trkpt>
      <trkpt lat="45.62679" lon="6.86693">
        <ele>1856.9</ele>
        <time>2016-05-06T14:00:43Z</time>
      </trkpt>
      <trkpt lat="45.62679" lon="6.86693">
        <ele>1856.9</ele>
        <time>2016-05-06T14:00:45Z</time>
      </trkpt>
      <trkpt lat="45.62679" lon="6.86693">
        <ele>1856.9</ele>
        <time>2016-05-06T14:00:47Z</time>
      </trkpt>
      <trkpt lat="45.62679" lon="6.86693">
        <ele>1857</ele>
        <time>2016-05-06T14:00:49Z</time>
      </trkpt>
      <trkpt lat="45.62679" lon="6.86693">
        <ele>1857</ele>
        <time>2016-05-06T14:00:51Z</time>
      </trkpt>
      <trkpt lat="45.62679" lon="6.86693">
        <ele>1857.1</ele>
        <time>2016-05-06T14:00:53Z</time>
      </trkpt>
      <trkpt lat="45.62675" lon="6.86694">
        <ele>1857.1</ele>
        <time>2016-05-06T14:00:55Z</time>
      </trkpt>
      <trkpt lat="45.62674" lon="6.86695">
        <ele>1857.2</ele>
        <time>2016-05-06T14:00:57Z</time>
      </trkpt>
      <trkpt lat="45.62674" lon="6.86696">
        <ele>1857.2</ele>
        <time>2016-05-06T14:00:59Z</time>
      </trkpt>
      <trkpt lat="45.62674" lon="6.86696">
        <ele>1857.4</ele>
        <time>2016-05-06T14:01:01Z</time>
      </trkpt>
      <trkpt lat="45.62674" lon="6.86696">
        <ele>1857.6</ele>
        <time>2016-05-06T14:01:03Z</time>
      </trkpt>
      <trkpt lat="45.62674" lon="6.86696">
        <ele>1857.9</ele>
        <time>2016-05-06T14:01:05Z</time>
      </trkpt>
      <trkpt lat="45.62672" lon="6.86697">
        <ele>1858.2</ele>
        <time>2016-05-06T14:01:07Z</time>
      </trkpt>
      <trkpt lat="45.62669" lon="6.86697">
        <ele>1858.2</ele>
        <time>2016-05-06T14:01:09Z</time>
      </trkpt>
      <trkpt lat="45.62669" lon="6.86698">
        <ele>1858.3</ele>
        <time>2016-05-06T14:01:11Z</time>
      </trkpt>
      <trkpt lat="45.62669" lon="6.86697">
        <ele>1858.8</ele>
        <time>2016-05-06T14:01:13Z</time>
      </trkpt>
      <trkpt lat="45.62669" lon="6.86697">
        <ele>1859.6</ele>
        <time>2016-05-06T14:01:15Z</time>
      </trkpt>
      <trkpt lat="45.62668" lon="6.86697">
        <ele>1860.3</ele>
        <time>2016-05-06T14:01:17Z</time>
      </trkpt>
      <trkpt lat="45.62668" lon="6.86696">
        <ele>1861.1</ele>
        <time>2016-05-06T14:01:19Z</time>
      </trkpt>
      <trkpt lat="45.62669" lon="6.86695">
        <ele>1861.3</ele>
        <time>2016-05-06T14:01:21Z</time>
      </trkpt>
      <trkpt lat="45.62669" lon="6.86696">
        <ele>1861.7</ele>
        <time>2016-05-06T14:01:23Z</time>
      </trkpt>
      <trkpt lat="45.6267" lon="6.86695">
        <ele>1861.4</ele>
        <time>2016-05-06T14:01:25Z</time>
      </trkpt>
      <trkpt lat="45.6267" lon="6.86696">
        <ele>1860.1</ele>
        <time>2016-05-06T14:01:27Z</time>
      </trkpt>
      <trkpt lat="45.62669" lon="6.86695">
        <ele>1859.8</ele>
        <time>2016-05-06T14:01:29Z</time>
      </trkpt>
      <trkpt lat="45.62669" lon="6.86695">
        <ele>1859.1</ele>
        <time>2016-05-06T14:01:31Z</time>
      </trkpt>
      <trkpt lat="45.62668" lon="6.86695">
        <ele>1858.6</ele>
        <time>2016-05-06T14:01:33Z</time>
      </trkpt>
      <trkpt lat="45.62667" lon="6.86695">
        <ele>1858.1</ele>
        <time>2016-05-06T14:01:35Z</time>
      </trkpt>
      <trkpt lat="45.62667" lon="6.86695">
        <ele>1858</ele>
        <time>2016-05-06T14:01:37Z</time>
      </trkpt>
      <trkpt lat="45.62666" lon="6.86694">
        <ele>1857.8</ele>
        <time>2016-05-06T14:01:39Z</time>
      </trkpt>
      <trkpt lat="45.62666" lon="6.86694">
        <ele>1857.6</ele>
        <time>2016-05-06T14:01:41Z</time>
      </trkpt>
      <trkpt lat="45.62667" lon="6.86694">
        <ele>1857.5</ele>
        <time>2016-05-06T14:01:43Z</time>
      </trkpt>
      <trkpt lat="45.62666" lon="6.86694">
        <ele>1857.1</ele>
        <time>2016-05-06T14:01:45Z</time>
      </trkpt>
      <trkpt lat="45.62666" lon="6.86694">
        <ele>1856.7</ele>
        <time>2016-05-06T14:01:47Z</time>
      </trkpt>
      <trkpt lat="45.62666" lon="6.86694">
        <ele>1856.4</ele>
        <time>2016-05-06T14:01:49Z</time>
      </trkpt>
      <trkpt lat="45.62666" lon="6.86694">
        <ele>1856.2</ele>
        <time>2016-05-06T14:01:51Z</time>
      </trkpt>
      <trkpt lat="45.62666" lon="6.86694">
        <ele>1855.8</ele>
        <time>2016-05-06T14:01:53Z</time>
      </trkpt>
      <trkpt lat="45.62666" lon="6.86694">
        <ele>1855.6</ele>
        <time>2016-05-06T14:01:55Z</time>
      </trkpt>
      <trkpt lat="45.62666" lon="6.86693">
        <ele>1855.4</ele>
        <time>2016-05-06T14:01:57Z</time>
      </trkpt>
      <trkpt lat="45.62665" lon="6.86692">
        <ele>1855.2</ele>
        <time>2016-05-06T14:01:59Z</time>
      </trkpt>
      <trkpt lat="45.62665" lon="6.86692">
        <ele>1855.2</ele>
        <time>2016-05-06T14:02:01Z</time>
      </trkpt>
      <trkpt lat="45.62665" lon="6.86691">
        <ele>1855.3</ele>
        <time>2016-05-06T14:02:03Z</time>
      </trkpt>
      <trkpt lat="45.62664" lon="6.8669">
        <ele>1855.2</ele>
        <time>2016-05-06T14:02:05Z</time>
      </trkpt>
      <trkpt lat="45.62664" lon="6.86689">
        <ele>1855.3</ele>
        <time>2016-05-06T14:02:07Z</time>
      </trkpt>
      <trkpt lat="45.62663" lon="6.86688">
        <ele>1855.4</ele>
        <time>2016-05-06T14:02:09Z</time>
      </trkpt>
      <trkpt lat="45.62663" lon="6.86687">
        <ele>1855.5</ele>
        <time>2016-05-06T14:02:11Z</time>
      </trkpt>
      <trkpt lat="45.62663" lon="6.86687">
        <ele>1855.6</ele>
        <time>2016-05-06T14:02:13Z</time>
      </trkpt>
      <trkpt lat="45.62663" lon="6.86687">
        <ele>1855.6</ele>
        <time>2016-05-06T14:02:15Z</time>
      </trkpt>
      <trkpt lat="45.62663" lon="6.86687">
        <ele>1855.6</ele>
        <time>2016-05-06T14:02:17Z</time>
      </trkpt>
      <trkpt lat="45.62663" lon="6.86687">
        <ele>1855.6</ele>
        <time>2016-05-06T14:02:19Z</time>
      </trkpt>
      <trkpt lat="45.62663" lon="6.86687">
        <ele>1855.6</ele>
        <time>2016-05-06T14:02:21Z</time>
      </trkpt>
      <trkpt lat="45.62663" lon="6.86687">
        <ele>1855.7</ele>
        <time>2016-05-06T14:02:23Z</time>
      </trkpt>
      <trkpt lat="45.62663" lon="6.86687">
        <ele>1855.8</ele>
        <time>2016-05-06T14:02:25Z</time>
      </trkpt>
      <trkpt lat="45.62663" lon="6.86687">
        <ele>1855.9</ele>
        <time>2016-05-06T14:02:27Z</time>
      </trkpt>
      <trkpt lat="45.62663" lon="6.86688">
        <ele>1856</ele>
        <time>2016-05-06T14:02:29Z</time>
      </trkpt>
      <trkpt lat="45.62664" lon="6.86688">
        <ele>1856</ele>
        <time>2016-05-06T14:02:31Z</time>
      </trkpt>
      <trkpt lat="45.62664" lon="6.86688">
        <ele>1856.1</ele>
        <time>2016-05-06T14:02:33Z</time>
      </trkpt>
      <trkpt lat="45.62664" lon="6.86688">
        <ele>1856.2</ele>
        <time>2016-05-06T14:02:35Z</time>
      </trkpt>
      <trkpt lat="45.62664" lon="6.86688">
        <ele>1855.8</ele>
        <time>2016-05-06T14:02:37Z</time>
      </trkpt>
      <trkpt lat="45.62662" lon="6.86688">
        <ele>1855.9</ele>
        <time>2016-05-06T14:02:39Z</time>
      </trkpt>
      <trkpt lat="45.62663" lon="6.86688">
        <ele>1856</ele>
        <time>2016-05-06T14:02:41Z</time>
      </trkpt>
      <trkpt lat="45.62664" lon="6.86688">
        <ele>1856.2</ele>
        <time>2016-05-06T14:02:43Z</time>
      </trkpt>
      <trkpt lat="45.62664" lon="6.86688">
        <ele>1856.3</ele>
        <time>2016-05-06T14:02:45Z</time>
      </trkpt>
      <trkpt lat="45.62665" lon="6.86688">
        <ele>1856.3</ele>
        <time>2016-05-06T14:02:47Z</time>
      </trkpt>
      <trkpt lat="45.62666" lon="6.86688">
        <ele>1856.4</ele>
        <time>2016-05-06T14:02:49Z</time>
      </trkpt>
      <trkpt lat="45.62666" lon="6.8669">
        <ele>1856.4</ele>
        <time>2016-05-06T14:02:51Z</time>
      </trkpt>
      <trkpt lat="45.62666" lon="6.8669">
        <ele>1856.4</ele>
        <time>2016-05-06T14:02:53Z</time>
      </trkpt>
      <trkpt lat="45.62666" lon="6.8669">
        <ele>1856.4</ele>
        <time>2016-05-06T14:02:55Z</time>
      </trkpt>
      <trkpt lat="45.62667" lon="6.8669">
        <ele>1856.3</ele>
        <time>2016-05-06T14:02:57Z</time>
      </trkpt>
      <trkpt lat="45.62666" lon="6.8669">
        <ele>1856.4</ele>
        <time>2016-05-06T14:02:59Z</time>
      </trkpt>
      <trkpt lat="45.62666" lon="6.8669">
        <ele>1856.5</ele>
        <time>2016-05-06T14:03:01Z</time>
      </trkpt>
      <trkpt lat="45.62666" lon="6.8669">
        <ele>1856.5</ele>
        <time>2016-05-06T14:03:03Z</time>
      </trkpt>
      <trkpt lat="45.62667" lon="6.86691">
        <ele>1856.6</ele>
        <time>2016-05-06T14:03:05Z</time>
      </trkpt>
      <trkpt lat="45.62667" lon="6.86691">
        <ele>1856.8</ele>
        <time>2016-05-06T14:03:07Z</time>
      </trkpt>
      <trkpt lat="45.62667" lon="6.86691">
        <ele>1856.9</ele>
        <time>2016-05-06T14:03:09Z</time>
      </trkpt>
      <trkpt lat="45.62668" lon="6.86691">
        <ele>1856.9</ele>
        <time>2016-05-06T14:03:11Z</time>
      </trkpt>
      <trkpt lat="45.62669" lon="6.86691">
        <ele>1856.9</ele>
        <time>2016-05-06T14:03:13Z</time>
      </trkpt>
      <trkpt lat="45.62669" lon="6.86692">
        <ele>1856.9</ele>
        <time>2016-05-06T14:03:15Z</time>
      </trkpt>
      <trkpt lat="45.62669" lon="6.86692">
        <ele>1856.8</ele>
        <time>2016-05-06T14:03:17Z</time>
      </trkpt>
      <trkpt lat="45.62669" lon="6.86692">
        <ele>1856.7</ele>
        <time>2016-05-06T14:03:19Z</time>
      </trkpt>
      <trkpt lat="45.62669" lon="6.86692">
        <ele>1856.6</ele>
        <time>2016-05-06T14:03:21Z</time>
      </trkpt>
      <trkpt lat="45.62669" lon="6.86693">
        <ele>1856.5</ele>
        <time>2016-05-06T14:03:23Z</time>
      </trkpt>
      <trkpt lat="45.62669" lon="6.86693">
        <ele>1856.5</ele>
        <time>2016-05-06T14:03:25Z</time>
      </trkpt>
      <trkpt lat="45.62669" lon="6.86693">
        <ele>1856.4</ele>
        <time>2016-05-06T14:03:27Z</time>
      </trkpt>
      <trkpt lat="45.62668" lon="6.86693">
        <ele>1856.3</ele>
        <time>2016-05-06T14:03:29Z</time>
      </trkpt>
      <trkpt lat="45.62668" lon="6.86693">
        <ele>1856.3</ele>
        <time>2016-05-06T14:03:31Z</time>
      </trkpt>
      <trkpt lat="45.62668" lon="6.86693">
        <ele>1856.2</ele>
        <time>2016-05-06T14:03:33Z</time>
      </trkpt>
      <trkpt lat="45.62668" lon="6.86693">
        <ele>1856.2</ele>
        <time>2016-05-06T14:03:35Z</time>
      </trkpt>
      <trkpt lat="45.62668" lon="6.86693">
        <ele>1856.2</ele>
        <time>2016-05-06T14:03:37Z</time>
      </trkpt>
      <trkpt lat="45.62667" lon="6.86693">
        <ele>1856.2</ele>
        <time>2016-05-06T14:03:39Z</time>
      </trkpt>
      <trkpt lat="45.62667" lon="6.86693">
        <ele>1856.3</ele>
        <time>2016-05-06T14:03:41Z</time>
      </trkpt>
      <trkpt lat="45.62667" lon="6.86693">
        <ele>1856.4</ele>
        <time>2016-05-06T14:03:43Z</time>
      </trkpt>
      <trkpt lat="45.62667" lon="6.86693">
        <ele>1856.4</ele>
        <time>2016-05-06T14:03:45Z</time>
      </trkpt>
      <trkpt lat="45.62667" lon="6.86692">
        <ele>1856.6</ele>
        <time>2016-05-06T14:03:47Z</time>
      </trkpt>
      <trkpt lat="45.62667" lon="6.86692">
        <ele>1856.7</ele>
        <time>2016-05-06T14:03:49Z</time>
      </trkpt>
      <trkpt lat="45.62667" lon="6.86692">
        <ele>1856.8</ele>
        <time>2016-05-06T14:03:51Z</time>
      </trkpt>
      <trkpt lat="45.62667" lon="6.86692">
        <ele>1856.8</ele>
        <time>2016-05-06T14:03:53Z</time>
      </trkpt>
      <trkpt lat="45.62667" lon="6.86692">
        <ele>1856.9</ele>
        <time>2016-05-06T14:03:55Z</time>
      </trkpt>
      <trkpt lat="45.62667" lon="6.86692">
        <ele>1857</ele>
        <time>2016-05-06T14:03:57Z</time>
      </trkpt>
      <trkpt lat="45.62667" lon="6.86692">
        <ele>1857.2</ele>
        <time>2016-05-06T14:03:59Z</time>
      </trkpt>
      <trkpt lat="45.62666" lon="6.86692">
        <ele>1857.5</ele>
        <time>2016-05-06T14:04:01Z</time>
      </trkpt>
      <trkpt lat="45.62666" lon="6.86693">
        <ele>1857.5</ele>
        <time>2016-05-06T14:04:03Z</time>
      </trkpt>
      <trkpt lat="45.62666" lon="6.86693">
        <ele>1857.4</ele>
        <time>2016-05-06T14:04:05Z</time>
      </trkpt>
      <trkpt lat="45.62666" lon="6.86693">
        <ele>1857.2</ele>
        <time>2016-05-06T14:04:07Z</time>
      </trkpt>
      <trkpt lat="45.62665" lon="6.86693">
        <ele>1857</ele>
        <time>2016-05-06T14:04:09Z</time>
      </trkpt>
      <trkpt lat="45.62665" lon="6.86693">
        <ele>1856.9</ele>
        <time>2016-05-06T14:04:11Z</time>
      </trkpt>
      <trkpt lat="45.62665" lon="6.86693">
        <ele>1856.8</ele>
        <time>2016-05-06T14:04:13Z</time>
      </trkpt>
      <trkpt lat="45.62665" lon="6.86694">
        <ele>1856.7</ele>
        <time>2016-05-06T14:04:15Z</time>
      </trkpt>
      <trkpt lat="45.62665" lon="6.86694">
        <ele>1856.8</ele>
        <time>2016-05-06T14:04:17Z</time>
      </trkpt>
      <trkpt lat="45.62665" lon="6.86693">
        <ele>1856.8</ele>
        <time>2016-05-06T14:04:19Z</time>
      </trkpt>
      <trkpt lat="45.62666" lon="6.86693">
        <ele>1856.8</ele>
        <time>2016-05-06T14:04:21Z</time>
      </trkpt>
      <trkpt lat="45.62666" lon="6.86693">
        <ele>1856.8</ele>
        <time>2016-05-06T14:04:23Z</time>
      </trkpt>
      <trkpt lat="45.62666" lon="6.86692">
        <ele>1856.8</ele>
        <time>2016-05-06T14:04:25Z</time>
      </trkpt>
      <trkpt lat="45.62666" lon="6.86692">
        <ele>1856.9</ele>
        <time>2016-05-06T14:04:27Z</time>
      </trkpt>
      <trkpt lat="45.62666" lon="6.86692">
        <ele>1856.9</ele>
        <time>2016-05-06T14:04:29Z</time>
      </trkpt>
      <trkpt lat="45.62666" lon="6.86692">
        <ele>1856.9</ele>
        <time>2016-05-06T14:04:31Z</time>
      </trkpt>
      <trkpt lat="45.62666" lon="6.86692">
        <ele>1856.7</ele>
        <time>2016-05-06T14:04:33Z</time>
      </trkpt>
      <trkpt lat="45.62666" lon="6.86693">
        <ele>1856.7</ele>
        <time>2016-05-06T14:04:35Z</time>
      </trkpt>
      <trkpt lat="45.62666" lon="6.86693">
        <ele>1856.8</ele>
        <time>2016-05-06T14:04:37Z</time>
      </trkpt>
      <trkpt lat="45.62666" lon="6.86694">
        <ele>1856.7</ele>
        <time>2016-05-06T14:04:39Z</time>
      </trkpt>
      <trkpt lat="45.62667" lon="6.86694">
        <ele>1856.8</ele>
        <time>2016-05-06T14:04:41Z</time>
      </trkpt>
      <trkpt lat="45.62667" lon="6.86694">
        <ele>1856.7</ele>
        <time>2016-05-06T14:04:43Z</time>
      </trkpt>
      <trkpt lat="45.62667" lon="6.86694">
        <ele>1856.7</ele>
        <time>2016-05-06T14:04:45Z</time>
      </trkpt>
      <trkpt lat="45.62667" lon="6.86694">
        <ele>1856.7</ele>
        <time>2016-05-06T14:04:47Z</time>
      </trkpt>
      <trkpt lat="45.62667" lon="6.86694">
        <ele>1856.7</ele>
        <time>2016-05-06T14:04:49Z</time>
      </trkpt>
      <trkpt lat="45.62667" lon="6.86694">
        <ele>1856.8</ele>
        <time>2016-05-06T14:04:51Z</time>
      </trkpt>
      <trkpt lat="45.62667" lon="6.86694">
        <ele>1856.9</ele>
        <time>2016-05-06T14:04:53Z</time>
      </trkpt>
      <trkpt lat="45.62667" lon="6.86694">
        <ele>1856.9</ele>
        <time>2016-05-06T14:04:55Z</time>
      </trkpt>
      <trkpt lat="45.62667" lon="6.86694">
        <ele>1856.9</ele>
        <time>2016-05-06T14:04:57Z</time>
      </trkpt>
      <trkpt lat="45.62667" lon="6.86694">
        <ele>1856.9</ele>
        <time>2016-05-06T14:04:59Z</time>
      </trkpt>
      <trkpt lat="45.62667" lon="6.86694">
        <ele>1856.9</ele>
        <time>2016-05-06T14:05:01Z</time>
      </trkpt>
      <trkpt lat="45.62667" lon="6.86694">
        <ele>1856.9</ele>
        <time>2016-05-06T14:05:03Z</time>
      </trkpt>
      <trkpt lat="45.62667" lon="6.86694">
        <ele>1856.9</ele>
        <time>2016-05-06T14:05:05Z</time>
      </trkpt>
      <trkpt lat="45.62667" lon="6.86694">
        <ele>1856.8</ele>
        <time>2016-05-06T14:05:07Z</time>
      </trkpt>
      <trkpt lat="45.62667" lon="6.86694">
        <ele>1856.7</ele>
        <time>2016-05-06T14:05:09Z</time>
      </trkpt>
      <trkpt lat="45.62667" lon="6.86694">
        <ele>1856.6</ele>
        <time>2016-05-06T14:05:11Z</time>
      </trkpt>
      <trkpt lat="45.62666" lon="6.86694">
        <ele>1856.6</ele>
        <time>2016-05-06T14:05:13Z</time>
      </trkpt>
      <trkpt lat="45.62666" lon="6.86694">
        <ele>1856.5</ele>
        <time>2016-05-06T14:05:15Z</time>
      </trkpt>
      <trkpt lat="45.62666" lon="6.86694">
        <ele>1856.6</ele>
        <time>2016-05-06T14:05:17Z</time>
      </trkpt>
      <trkpt lat="45.62666" lon="6.86694">
        <ele>1856.7</ele>
        <time>2016-05-06T14:05:19Z</time>
      </trkpt>
      <trkpt lat="45.62666" lon="6.86694">
        <ele>1856.6</ele>
        <time>2016-05-06T14:05:21Z</time>
      </trkpt>
      <trkpt lat="45.62665" lon="6.86694">
        <ele>1856.6</ele>
        <time>2016-05-06T14:05:23Z</time>
      </trkpt>
      <trkpt lat="45.62665" lon="6.86694">
        <ele>1856.6</ele>
        <time>2016-05-06T14:05:25Z</time>
      </trkpt>
      <trkpt lat="45.62666" lon="6.86694">
        <ele>1856.6</ele>
        <time>2016-05-06T14:05:27Z</time>
      </trkpt>
      <trkpt lat="45.62666" lon="6.86694">
        <ele>1856.6</ele>
        <time>2016-05-06T14:05:29Z</time>
      </trkpt>
      <trkpt lat="45.62666" lon="6.86694">
        <ele>1856.6</ele>
        <time>2016-05-06T14:05:31Z</time>
      </trkpt>
      <trkpt lat="45.62666" lon="6.86694">
        <ele>1856.7</ele>
        <time>2016-05-06T14:05:33Z</time>
      </trkpt>
      <trkpt lat="45.62667" lon="6.86694">
        <ele>1856.7</ele>
        <time>2016-05-06T14:05:35Z</time>
      </trkpt>
      <trkpt lat="45.62667" lon="6.86694">
        <ele>1856.8</ele>
        <time>2016-05-06T14:05:37Z</time>
      </trkpt>
      <trkpt lat="45.62667" lon="6.86693">
        <ele>1856.8</ele>
        <time>2016-05-06T14:05:39Z</time>
      </trkpt>
      <trkpt lat="45.62667" lon="6.86694">
        <ele>1856.8</ele>
        <time>2016-05-06T14:05:41Z</time>
      </trkpt>
      <trkpt lat="45.62667" lon="6.86694">
        <ele>1856.8</ele>
        <time>2016-05-06T14:05:43Z</time>
      </trkpt>
      <trkpt lat="45.62667" lon="6.86694">
        <ele>1856.8</ele>
        <time>2016-05-06T14:05:45Z</time>
      </trkpt>
      <trkpt lat="45.62667" lon="6.86694">
        <ele>1856.7</ele>
        <time>2016-05-06T14:05:47Z</time>
      </trkpt>
      <trkpt lat="45.62667" lon="6.86694">
        <ele>1856.8</ele>
        <time>2016-05-06T14:05:49Z</time>
      </trkpt>
      <trkpt lat="45.62667" lon="6.86694">
        <ele>1856.9</ele>
        <time>2016-05-06T14:05:51Z</time>
      </trkpt>
      <trkpt lat="45.62667" lon="6.86694">
        <ele>1857</ele>
        <time>2016-05-06T14:05:53Z</time>
      </trkpt>
      <trkpt lat="45.62667" lon="6.86694">
        <ele>1856.9</ele>
        <time>2016-05-06T14:05:55Z</time>
      </trkpt>
      <trkpt lat="45.62667" lon="6.86694">
        <ele>1856.9</ele>
        <time>2016-05-06T14:05:57Z</time>
      </trkpt>
      <trkpt lat="45.62667" lon="6.86694">
        <ele>1856.8</ele>
        <time>2016-05-06T14:05:59Z</time>
      </trkpt>
      <trkpt lat="45.62666" lon="6.86694">
        <ele>1856.9</ele>
        <time>2016-05-06T14:06:01Z</time>
      </trkpt>
      <trkpt lat="45.62666" lon="6.86694">
        <ele>1856.9</ele>
        <time>2016-05-06T14:06:03Z</time>
      </trkpt>
      <trkpt lat="45.62666" lon="6.86693">
        <ele>1856.9</ele>
        <time>2016-05-06T14:06:05Z</time>
      </trkpt>
      <trkpt lat="45.62666" lon="6.86693">
        <ele>1856.9</ele>
        <time>2016-05-06T14:06:07Z</time>
      </trkpt>
      <trkpt lat="45.62666" lon="6.86693">
        <ele>1856.9</ele>
        <time>2016-05-06T14:06:09Z</time>
      </trkpt>
      <trkpt lat="45.62666" lon="6.86693">
        <ele>1856.9</ele>
        <time>2016-05-06T14:06:11Z</time>
      </trkpt>
      <trkpt lat="45.62666" lon="6.86693">
        <ele>1857</ele>
        <time>2016-05-06T14:06:13Z</time>
      </trkpt>
      <trkpt lat="45.62666" lon="6.86693">
        <ele>1857</ele>
        <time>2016-05-06T14:06:15Z</time>
      </trkpt>
      <trkpt lat="45.62666" lon="6.86693">
        <ele>1857</ele>
        <time>2016-05-06T14:06:17Z</time>
      </trkpt>
      <trkpt lat="45.62667" lon="6.86693">
        <ele>1856.9</ele>
        <time>2016-05-06T14:06:19Z</time>
      </trkpt>
      <trkpt lat="45.62667" lon="6.86693">
        <ele>1856.7</ele>
        <time>2016-05-06T14:06:21Z</time>
      </trkpt>
      <trkpt lat="45.62667" lon="6.86693">
        <ele>1856.6</ele>
        <time>2016-05-06T14:06:23Z</time>
      </trkpt>
      <trkpt lat="45.62667" lon="6.86693">
        <ele>1856.8</ele>
        <time>2016-05-06T14:06:25Z</time>
      </trkpt>
      <trkpt lat="45.62667" lon="6.86693">
        <ele>1856.7</ele>
        <time>2016-05-06T14:06:27Z</time>
      </trkpt>
      <trkpt lat="45.62667" lon="6.86693">
        <ele>1856.7</ele>
        <time>2016-05-06T14:06:29Z</time>
      </trkpt>
      <trkpt lat="45.62668" lon="6.86693">
        <ele>1856.7</ele>
        <time>2016-05-06T14:06:31Z</time>
      </trkpt>
      <trkpt lat="45.62668" lon="6.86693">
        <ele>1856.7</ele>
        <time>2016-05-06T14:06:33Z</time>
      </trkpt>
      <trkpt lat="45.62668" lon="6.86693">
        <ele>1856.8</ele>
        <time>2016-05-06T14:06:35Z</time>
      </trkpt>
      <trkpt lat="45.62668" lon="6.86694">
        <ele>1856.8</ele>
        <time>2016-05-06T14:06:37Z</time>
      </trkpt>
      <trkpt lat="45.62668" lon="6.86693">
        <ele>1856.8</ele>
        <time>2016-05-06T14:06:39Z</time>
      </trkpt>
      <trkpt lat="45.62669" lon="6.86693">
        <ele>1856.7</ele>
        <time>2016-05-06T14:06:41Z</time>
      </trkpt>
      <trkpt lat="45.62669" lon="6.86693">
        <ele>1856.7</ele>
        <time>2016-05-06T14:06:43Z</time>
      </trkpt>
      <trkpt lat="45.62669" lon="6.86693">
        <ele>1856.6</ele>
        <time>2016-05-06T14:06:45Z</time>
      </trkpt>
      <trkpt lat="45.62668" lon="6.86693">
        <ele>1856.6</ele>
        <time>2016-05-06T14:06:47Z</time>
      </trkpt>
      <trkpt lat="45.62667" lon="6.86693">
        <ele>1856.6</ele>
        <time>2016-05-06T14:06:49Z</time>
      </trkpt>
      <trkpt lat="45.62667" lon="6.86692">
        <ele>1856.6</ele>
        <time>2016-05-06T14:06:51Z</time>
      </trkpt>
      <trkpt lat="45.62666" lon="6.86692">
        <ele>1856.4</ele>
        <time>2016-05-06T14:06:53Z</time>
      </trkpt>
      <trkpt lat="45.62666" lon="6.86692">
        <ele>1856.3</ele>
        <time>2016-05-06T14:06:55Z</time>
      </trkpt>
      <trkpt lat="45.62666" lon="6.86692">
        <ele>1856.3</ele>
        <time>2016-05-06T14:06:57Z</time>
      </trkpt>
      <trkpt lat="45.62666" lon="6.86692">
        <ele>1856.3</ele>
        <time>2016-05-06T14:06:59Z</time>
      </trkpt>
      <trkpt lat="45.62666" lon="6.86692">
        <ele>1856.4</ele>
        <time>2016-05-06T14:07:01Z</time>
      </trkpt>
      <trkpt lat="45.62666" lon="6.86692">
        <ele>1856.3</ele>
        <time>2016-05-06T14:07:03Z</time>
      </trkpt>
      <trkpt lat="45.62666" lon="6.86693">
        <ele>1856.2</ele>
        <time>2016-05-06T14:07:05Z</time>
      </trkpt>
      <trkpt lat="45.62666" lon="6.86693">
        <ele>1856.2</ele>
        <time>2016-05-06T14:07:07Z</time>
      </trkpt>
      <trkpt lat="45.62666" lon="6.86693">
        <ele>1856.3</ele>
        <time>2016-05-06T14:07:09Z</time>
      </trkpt>
      <trkpt lat="45.62666" lon="6.86693">
        <ele>1856.3</ele>
        <time>2016-05-06T14:07:11Z</time>
      </trkpt>
      <trkpt lat="45.62666" lon="6.86693">
        <ele>1856.5</ele>
        <time>2016-05-06T14:07:13Z</time>
      </trkpt>
      <trkpt lat="45.62666" lon="6.86694">
        <ele>1856.6</ele>
        <time>2016-05-06T14:07:15Z</time>
      </trkpt>
      <trkpt lat="45.62666" lon="6.86694">
        <ele>1856.6</ele>
        <time>2016-05-06T14:07:17Z</time>
      </trkpt>
      <trkpt lat="45.62666" lon="6.86694">
        <ele>1856.7</ele>
        <time>2016-05-06T14:07:19Z</time>
      </trkpt>
      <trkpt lat="45.62666" lon="6.86694">
        <ele>1856.7</ele>
        <time>2016-05-06T14:07:21Z</time>
      </trkpt>
      <trkpt lat="45.62666" lon="6.86694">
        <ele>1856.6</ele>
        <time>2016-05-06T14:07:23Z</time>
      </trkpt>
      <trkpt lat="45.62666" lon="6.86694">
        <ele>1856.6</ele>
        <time>2016-05-06T14:07:25Z</time>
      </trkpt>
      <trkpt lat="45.62666" lon="6.86694">
        <ele>1856.6</ele>
        <time>2016-05-06T14:07:27Z</time>
      </trkpt>
      <trkpt lat="45.62666" lon="6.86694">
        <ele>1856.6</ele>
        <time>2016-05-06T14:07:29Z</time>
      </trkpt>
      <trkpt lat="45.62666" lon="6.86694">
        <ele>1856.6</ele>
        <time>2016-05-06T14:07:31Z</time>
      </trkpt>
      <trkpt lat="45.62666" lon="6.86694">
        <ele>1856.6</ele>
        <time>2016-05-06T14:07:33Z</time>
      </trkpt>
      <trkpt lat="45.62666" lon="6.86694">
        <ele>1856.6</ele>
        <time>2016-05-06T14:07:35Z</time>
      </trkpt>
      <trkpt lat="45.62666" lon="6.86694">
        <ele>1856.5</ele>
        <time>2016-05-06T14:07:37Z</time>
      </trkpt>
      <trkpt lat="45.62666" lon="6.86694">
        <ele>1856.7</ele>
        <time>2016-05-06T14:07:39Z</time>
      </trkpt>
      <trkpt lat="45.62667" lon="6.86694">
        <ele>1856.9</ele>
        <time>2016-05-06T14:07:41Z</time>
      </trkpt>
      <trkpt lat="45.62667" lon="6.86695">
        <ele>1857.1</ele>
        <time>2016-05-06T14:07:43Z</time>
      </trkpt>
      <trkpt lat="45.62667" lon="6.86695">
        <ele>1857.2</ele>
        <time>2016-05-06T14:07:45Z</time>
      </trkpt>
      <trkpt lat="45.62667" lon="6.86696">
        <ele>1857.1</ele>
        <time>2016-05-06T14:07:47Z</time>
      </trkpt>
      <trkpt lat="45.62668" lon="6.86696">
        <ele>1857.1</ele>
        <time>2016-05-06T14:07:49Z</time>
      </trkpt>
      <trkpt lat="45.62668" lon="6.86697">
        <ele>1857.1</ele>
        <time>2016-05-06T14:07:51Z</time>
      </trkpt>
      <trkpt lat="45.62668" lon="6.86697">
        <ele>1857</ele>
        <time>2016-05-06T14:07:53Z</time>
      </trkpt>
      <trkpt lat="45.62668" lon="6.86698">
        <ele>1857.1</ele>
        <time>2016-05-06T14:07:55Z</time>
      </trkpt>
      <trkpt lat="45.62668" lon="6.86699">
        <ele>1857.1</ele>
        <time>2016-05-06T14:07:57Z</time>
      </trkpt>
      <trkpt lat="45.62668" lon="6.86699">
        <ele>1857.1</ele>
        <time>2016-05-06T14:07:59Z</time>
      </trkpt>
      <trkpt lat="45.62668" lon="6.86699">
        <ele>1857.1</ele>
        <time>2016-05-06T14:08:01Z</time>
      </trkpt>
      <trkpt lat="45.62668" lon="6.86699">
        <ele>1857.4</ele>
        <time>2016-05-06T14:08:03Z</time>
      </trkpt>
      <trkpt lat="45.62668" lon="6.867">
        <ele>1857.7</ele>
        <time>2016-05-06T14:08:05Z</time>
      </trkpt>
      <trkpt lat="45.62668" lon="6.867">
        <ele>1857.8</ele>
        <time>2016-05-06T14:08:07Z</time>
      </trkpt>
      <trkpt lat="45.62668" lon="6.867">
        <ele>1857.8</ele>
        <time>2016-05-06T14:08:09Z</time>
      </trkpt>
      <trkpt lat="45.62668" lon="6.867">
        <ele>1857.9</ele>
        <time>2016-05-06T14:08:11Z</time>
      </trkpt>
      <trkpt lat="45.62668" lon="6.867">
        <ele>1857.8</ele>
        <time>2016-05-06T14:08:13Z</time>
      </trkpt>
      <trkpt lat="45.62667" lon="6.867">
        <ele>1857.9</ele>
        <time>2016-05-06T14:08:15Z</time>
      </trkpt>
      <trkpt lat="45.62667" lon="6.867">
        <ele>1857.9</ele>
        <time>2016-05-06T14:08:17Z</time>
      </trkpt>
      <trkpt lat="45.62667" lon="6.867">
        <ele>1857.9</ele>
        <time>2016-05-06T14:08:19Z</time>
      </trkpt>
      <trkpt lat="45.62667" lon="6.867">
        <ele>1858.1</ele>
        <time>2016-05-06T14:08:21Z</time>
      </trkpt>
      <trkpt lat="45.62667" lon="6.867">
        <ele>1858.1</ele>
        <time>2016-05-06T14:08:23Z</time>
      </trkpt>
      <trkpt lat="45.62668" lon="6.867">
        <ele>1858.3</ele>
        <time>2016-05-06T14:08:25Z</time>
      </trkpt>
      <trkpt lat="45.62668" lon="6.867">
        <ele>1858.5</ele>
        <time>2016-05-06T14:08:27Z</time>
      </trkpt>
      <trkpt lat="45.62668" lon="6.867">
        <ele>1858.6</ele>
        <time>2016-05-06T14:08:29Z</time>
      </trkpt>
      <trkpt lat="45.62668" lon="6.867">
        <ele>1858.7</ele>
        <time>2016-05-06T14:08:31Z</time>
      </trkpt>
      <trkpt lat="45.62668" lon="6.867">
        <ele>1858.7</ele>
        <time>2016-05-06T14:08:33Z</time>
      </trkpt>
      <trkpt lat="45.62668" lon="6.867">
        <ele>1858.7</ele>
        <time>2016-05-06T14:08:35Z</time>
      </trkpt>
      <trkpt lat="45.62668" lon="6.867">
        <ele>1858.7</ele>
        <time>2016-05-06T14:08:37Z</time>
      </trkpt>
      <trkpt lat="45.62668" lon="6.86699">
        <ele>1858.7</ele>
        <time>2016-05-06T14:08:39Z</time>
      </trkpt>
      <trkpt lat="45.62668" lon="6.86699">
        <ele>1858.7</ele>
        <time>2016-05-06T14:08:41Z</time>
      </trkpt>
      <trkpt lat="45.62668" lon="6.86699">
        <ele>1858.6</ele>
        <time>2016-05-06T14:08:43Z</time>
      </trkpt>
      <trkpt lat="45.62668" lon="6.86698">
        <ele>1858.6</ele>
        <time>2016-05-06T14:08:45Z</time>
      </trkpt>
      <trkpt lat="45.62668" lon="6.86698">
        <ele>1858.5</ele>
        <time>2016-05-06T14:08:47Z</time>
      </trkpt>
      <trkpt lat="45.62668" lon="6.86698">
        <ele>1858.6</ele>
        <time>2016-05-06T14:08:49Z</time>
      </trkpt>
      <trkpt lat="45.62669" lon="6.86698">
        <ele>1858.6</ele>
        <time>2016-05-06T14:08:51Z</time>
      </trkpt>
      <trkpt lat="45.62669" lon="6.86697">
        <ele>1858.5</ele>
        <time>2016-05-06T14:08:53Z</time>
      </trkpt>
      <trkpt lat="45.62669" lon="6.86697">
        <ele>1858.4</ele>
        <time>2016-05-06T14:08:55Z</time>
      </trkpt>
      <trkpt lat="45.6267" lon="6.86697">
        <ele>1858.4</ele>
        <time>2016-05-06T14:08:57Z</time>
      </trkpt>
      <trkpt lat="45.6267" lon="6.86697">
        <ele>1858.5</ele>
        <time>2016-05-06T14:08:59Z</time>
      </trkpt>
      <trkpt lat="45.6267" lon="6.86697">
        <ele>1858.7</ele>
        <time>2016-05-06T14:09:01Z</time>
      </trkpt>
      <trkpt lat="45.6267" lon="6.86697">
        <ele>1858.7</ele>
        <time>2016-05-06T14:09:03Z</time>
      </trkpt>
      <trkpt lat="45.6267" lon="6.86697">
        <ele>1858.7</ele>
        <time>2016-05-06T14:09:05Z</time>
      </trkpt>
      <trkpt lat="45.6267" lon="6.86696">
        <ele>1858.7</ele>
        <time>2016-05-06T14:09:07Z</time>
      </trkpt>
      <trkpt lat="45.6267" lon="6.86696">
        <ele>1858.7</ele>
        <time>2016-05-06T14:09:09Z</time>
      </trkpt>
      <trkpt lat="45.6267" lon="6.86696">
        <ele>1858.6</ele>
        <time>2016-05-06T14:09:11Z</time>
      </trkpt>
      <trkpt lat="45.6267" lon="6.86696">
        <ele>1858.6</ele>
        <time>2016-05-06T14:09:13Z</time>
      </trkpt>
      <trkpt lat="45.6267" lon="6.86696">
        <ele>1858.7</ele>
        <time>2016-05-06T14:09:15Z</time>
      </trkpt>
      <trkpt lat="45.6267" lon="6.86696">
        <ele>1858.8</ele>
        <time>2016-05-06T14:09:17Z</time>
      </trkpt>
      <trkpt lat="45.6267" lon="6.86696">
        <ele>1858.8</ele>
        <time>2016-05-06T14:09:19Z</time>
      </trkpt>
      <trkpt lat="45.6267" lon="6.86696">
        <ele>1858.8</ele>
        <time>2016-05-06T14:09:21Z</time>
      </trkpt>
      <trkpt lat="45.6267" lon="6.86696">
        <ele>1858.9</ele>
        <time>2016-05-06T14:09:23Z</time>
      </trkpt>
      <trkpt lat="45.62669" lon="6.86697">
        <ele>1858.8</ele>
        <time>2016-05-06T14:09:25Z</time>
      </trkpt>
      <trkpt lat="45.62669" lon="6.86697">
        <ele>1858.8</ele>
        <time>2016-05-06T14:09:27Z</time>
      </trkpt>
      <trkpt lat="45.62669" lon="6.86697">
        <ele>1858.8</ele>
        <time>2016-05-06T14:09:29Z</time>
      </trkpt>
      <trkpt lat="45.62669" lon="6.86696">
        <ele>1858.8</ele>
        <time>2016-05-06T14:09:31Z</time>
      </trkpt>
      <trkpt lat="45.6267" lon="6.86696">
        <ele>1858.8</ele>
        <time>2016-05-06T14:09:33Z</time>
      </trkpt>
      <trkpt lat="45.62669" lon="6.86696">
        <ele>1858.8</ele>
        <time>2016-05-06T14:09:35Z</time>
      </trkpt>
      <trkpt lat="45.6267" lon="6.86696">
        <ele>1858.9</ele>
        <time>2016-05-06T14:09:37Z</time>
      </trkpt>
      <trkpt lat="45.62669" lon="6.86697">
        <ele>1859</ele>
        <time>2016-05-06T14:09:39Z</time>
      </trkpt>
      <trkpt lat="45.62669" lon="6.86697">
        <ele>1859</ele>
        <time>2016-05-06T14:09:41Z</time>
      </trkpt>
      <trkpt lat="45.62669" lon="6.86697">
        <ele>1858.9</ele>
        <time>2016-05-06T14:09:43Z</time>
      </trkpt>
      <trkpt lat="45.62669" lon="6.86696">
        <ele>1858.7</ele>
        <time>2016-05-06T14:09:45Z</time>
      </trkpt>
      <trkpt lat="45.62669" lon="6.86696">
        <ele>1858.7</ele>
        <time>2016-05-06T14:09:47Z</time>
      </trkpt>
      <trkpt lat="45.62669" lon="6.86696">
        <ele>1858.8</ele>
        <time>2016-05-06T14:09:49Z</time>
      </trkpt>
      <trkpt lat="45.62669" lon="6.86696">
        <ele>1858.9</ele>
        <time>2016-05-06T14:09:51Z</time>
      </trkpt>
      <trkpt lat="45.62669" lon="6.86696">
        <ele>1858.9</ele>
        <time>2016-05-06T14:09:53Z</time>
      </trkpt>
      <trkpt lat="45.62669" lon="6.86697">
        <ele>1858.9</ele>
        <time>2016-05-06T14:09:55Z</time>
      </trkpt>
      <trkpt lat="45.6267" lon="6.86697">
        <ele>1858.9</ele>
        <time>2016-05-06T14:09:57Z</time>
      </trkpt>
      <trkpt lat="45.6267" lon="6.86697">
        <ele>1858.8</ele>
        <time>2016-05-06T14:09:59Z</time>
      </trkpt>
      <trkpt lat="45.6267" lon="6.86697">
        <ele>1858.7</ele>
        <time>2016-05-06T14:10:01Z</time>
      </trkpt>
      <trkpt lat="45.6267" lon="6.86697">
        <ele>1858.8</ele>
        <time>2016-05-06T14:10:03Z</time>
      </trkpt>
      <trkpt lat="45.6267" lon="6.86697">
        <ele>1859</ele>
        <time>2016-05-06T14:10:05Z</time>
      </trkpt>
      <trkpt lat="45.6267" lon="6.86697">
        <ele>1859</ele>
        <time>2016-05-06T14:10:07Z</time>
      </trkpt>
      <trkpt lat="45.6267" lon="6.86698">
        <ele>1859</ele>
        <time>2016-05-06T14:10:09Z</time>
      </trkpt>
      <trkpt lat="45.6267" lon="6.86698">
        <ele>1858.9</ele>
        <time>2016-05-06T14:10:11Z</time>
      </trkpt>
      <trkpt lat="45.6267" lon="6.86698">
        <ele>1858.7</ele>
        <time>2016-05-06T14:10:13Z</time>
      </trkpt>
      <trkpt lat="45.6267" lon="6.86698">
        <ele>1858.7</ele>
        <time>2016-05-06T14:10:15Z</time>
      </trkpt>
      <trkpt lat="45.6267" lon="6.86698">
        <ele>1858.7</ele>
        <time>2016-05-06T14:10:17Z</time>
      </trkpt>
      <trkpt lat="45.6267" lon="6.86698">
        <ele>1858.8</ele>
        <time>2016-05-06T14:10:19Z</time>
      </trkpt>
      <trkpt lat="45.6267" lon="6.86698">
        <ele>1858.9</ele>
        <time>2016-05-06T14:10:21Z</time>
      </trkpt>
      <trkpt lat="45.6267" lon="6.86698">
        <ele>1858.9</ele>
        <time>2016-05-06T14:10:23Z</time>
      </trkpt>
      <trkpt lat="45.6267" lon="6.86697">
        <ele>1858.8</ele>
        <time>2016-05-06T14:10:25Z</time>
      </trkpt>
      <trkpt lat="45.62671" lon="6.86696">
        <ele>1858.8</ele>
        <time>2016-05-06T14:10:27Z</time>
      </trkpt>
      <trkpt lat="45.62671" lon="6.86696">
        <ele>1858.8</ele>
        <time>2016-05-06T14:10:29Z</time>
      </trkpt>
      <trkpt lat="45.6267" lon="6.86696">
        <ele>1858.9</ele>
        <time>2016-05-06T14:10:31Z</time>
      </trkpt>
      <trkpt lat="45.6267" lon="6.86696">
        <ele>1859</ele>
        <time>2016-05-06T14:10:33Z</time>
      </trkpt>
      <trkpt lat="45.6267" lon="6.86697">
        <ele>1859</ele>
        <time>2016-05-06T14:10:35Z</time>
      </trkpt>
      <trkpt lat="45.6267" lon="6.86697">
        <ele>1858.8</ele>
        <time>2016-05-06T14:10:37Z</time>
      </trkpt>
      <trkpt lat="45.62671" lon="6.86697">
        <ele>1858.7</ele>
        <time>2016-05-06T14:10:39Z</time>
      </trkpt>
      <trkpt lat="45.6267" lon="6.86697">
        <ele>1858.8</ele>
        <time>2016-05-06T14:10:41Z</time>
      </trkpt>
      <trkpt lat="45.6267" lon="6.86697">
        <ele>1858.9</ele>
        <time>2016-05-06T14:10:43Z</time>
      </trkpt>
      <trkpt lat="45.6267" lon="6.86698">
        <ele>1858.9</ele>
        <time>2016-05-06T14:10:45Z</time>
      </trkpt>
      <trkpt lat="45.6267" lon="6.86698">
        <ele>1858.9</ele>
        <time>2016-05-06T14:10:47Z</time>
      </trkpt>
      <trkpt lat="45.6267" lon="6.86698">
        <ele>1858.9</ele>
        <time>2016-05-06T14:10:49Z</time>
      </trkpt>
      <trkpt lat="45.6267" lon="6.86699">
        <ele>1858.9</ele>
        <time>2016-05-06T14:10:51Z</time>
      </trkpt>
      <trkpt lat="45.6267" lon="6.86699">
        <ele>1858.8</ele>
        <time>2016-05-06T14:10:53Z</time>
      </trkpt>
      <trkpt lat="45.62669" lon="6.86699">
        <ele>1858.8</ele>
        <time>2016-05-06T14:10:55Z</time>
      </trkpt>
      <trkpt lat="45.62669" lon="6.86699">
        <ele>1858.7</ele>
        <time>2016-05-06T14:10:57Z</time>
      </trkpt>
      <trkpt lat="45.62668" lon="6.86699">
        <ele>1858.6</ele>
        <time>2016-05-06T14:10:59Z</time>
      </trkpt>
      <trkpt lat="45.62668" lon="6.86699">
        <ele>1858.7</ele>
        <time>2016-05-06T14:11:01Z</time>
      </trkpt>
      <trkpt lat="45.62668" lon="6.86699">
        <ele>1858.8</ele>
        <time>2016-05-06T14:11:03Z</time>
      </trkpt>
      <trkpt lat="45.62669" lon="6.86699">
        <ele>1858.8</ele>
        <time>2016-05-06T14:11:05Z</time>
      </trkpt>
      <trkpt lat="45.62669" lon="6.86699">
        <ele>1858.7</ele>
        <time>2016-05-06T14:11:07Z</time>
      </trkpt>
      <trkpt lat="45.62669" lon="6.86699">
        <ele>1858.6</ele>
        <time>2016-05-06T14:11:09Z</time>
      </trkpt>
      <trkpt lat="45.62669" lon="6.86699">
        <ele>1858.7</ele>
        <time>2016-05-06T14:11:11Z</time>
      </trkpt>
      <trkpt lat="45.62669" lon="6.86699">
        <ele>1858.7</ele>
        <time>2016-05-06T14:11:13Z</time>
      </trkpt>
      <trkpt lat="45.62669" lon="6.86699">
        <ele>1858.7</ele>
        <time>2016-05-06T14:11:15Z</time>
      </trkpt>
      <trkpt lat="45.62669" lon="6.86699">
        <ele>1858.5</ele>
        <time>2016-05-06T14:11:17Z</time>
      </trkpt>
      <trkpt lat="45.62669" lon="6.86699">
        <ele>1858.4</ele>
        <time>2016-05-06T14:11:19Z</time>
      </trkpt>
      <trkpt lat="45.62669" lon="6.86699">
        <ele>1858.3</ele>
        <time>2016-05-06T14:11:21Z</time>
      </trkpt>
      <trkpt lat="45.62669" lon="6.86699">
        <ele>1858.2</ele>
        <time>2016-05-06T14:11:23Z</time>
      </trkpt>
      <trkpt lat="45.6267" lon="6.867">
        <ele>1858.3</ele>
        <time>2016-05-06T14:11:25Z</time>
      </trkpt>
      <trkpt lat="45.6267" lon="6.867">
        <ele>1858.3</ele>
        <time>2016-05-06T14:11:27Z</time>
      </trkpt>
      <trkpt lat="45.6267" lon="6.86699">
        <ele>1858.1</ele>
        <time>2016-05-06T14:11:29Z</time>
      </trkpt>
      <trkpt lat="45.6267" lon="6.86699">
        <ele>1858.1</ele>
        <time>2016-05-06T14:11:31Z</time>
      </trkpt>
      <trkpt lat="45.6267" lon="6.86699">
        <ele>1858.3</ele>
        <time>2016-05-06T14:11:33Z</time>
      </trkpt>
      <trkpt lat="45.62671" lon="6.86699">
        <ele>1858.3</ele>
        <time>2016-05-06T14:11:35Z</time>
      </trkpt>
      <trkpt lat="45.62671" lon="6.86699">
        <ele>1858.3</ele>
        <time>2016-05-06T14:11:37Z</time>
      </trkpt>
      <trkpt lat="45.62671" lon="6.867">
        <ele>1858.4</ele>
        <time>2016-05-06T14:11:39Z</time>
      </trkpt>
      <trkpt lat="45.62671" lon="6.867">
        <ele>1858.2</ele>
        <time>2016-05-06T14:11:41Z</time>
      </trkpt>
      <trkpt lat="45.62671" lon="6.867">
        <ele>1858.1</ele>
        <time>2016-05-06T14:11:43Z</time>
      </trkpt>
      <trkpt lat="45.62671" lon="6.867">
        <ele>1858</ele>
        <time>2016-05-06T14:11:45Z</time>
      </trkpt>
      <trkpt lat="45.62671" lon="6.867">
        <ele>1857.9</ele>
        <time>2016-05-06T14:11:47Z</time>
      </trkpt>
      <trkpt lat="45.6267" lon="6.867">
        <ele>1857.9</ele>
        <time>2016-05-06T14:11:49Z</time>
      </trkpt>
      <trkpt lat="45.6267" lon="6.867">
        <ele>1857.9</ele>
        <time>2016-05-06T14:11:51Z</time>
      </trkpt>
      <trkpt lat="45.6267" lon="6.86699">
        <ele>1857.9</ele>
        <time>2016-05-06T14:11:53Z</time>
      </trkpt>
      <trkpt lat="45.6267" lon="6.86699">
        <ele>1857.9</ele>
        <time>2016-05-06T14:11:55Z</time>
      </trkpt>
      <trkpt lat="45.6267" lon="6.86699">
        <ele>1857.9</ele>
        <time>2016-05-06T14:11:57Z</time>
      </trkpt>
      <trkpt lat="45.6267" lon="6.86699">
        <ele>1857.8</ele>
        <time>2016-05-06T14:11:59Z</time>
      </trkpt>
      <trkpt lat="45.6267" lon="6.86699">
        <ele>1857.7</ele>
        <time>2016-05-06T14:12:01Z</time>
      </trkpt>
      <trkpt lat="45.6267" lon="6.86698">
        <ele>1857.7</ele>
        <time>2016-05-06T14:12:03Z</time>
      </trkpt>
      <trkpt lat="45.6267" lon="6.86698">
        <ele>1857.7</ele>
        <time>2016-05-06T14:12:05Z</time>
      </trkpt>
      <trkpt lat="45.6267" lon="6.86698">
        <ele>1857.7</ele>
        <time>2016-05-06T14:12:07Z</time>
      </trkpt>
      <trkpt lat="45.6267" lon="6.86698">
        <ele>1857.6</ele>
        <time>2016-05-06T14:12:09Z</time>
      </trkpt>
      <trkpt lat="45.6267" lon="6.86699">
        <ele>1857.7</ele>
        <time>2016-05-06T14:12:11Z</time>
      </trkpt>
      <trkpt lat="45.62669" lon="6.86699">
        <ele>1857.7</ele>
        <time>2016-05-06T14:12:13Z</time>
      </trkpt>
      <trkpt lat="45.62669" lon="6.86699">
        <ele>1857.9</ele>
        <time>2016-05-06T14:12:15Z</time>
      </trkpt>
      <trkpt lat="45.6267" lon="6.86698">
        <ele>1858.1</ele>
        <time>2016-05-06T14:12:17Z</time>
      </trkpt>
      <trkpt lat="45.6267" lon="6.86698">
        <ele>1858.1</ele>
        <time>2016-05-06T14:12:19Z</time>
      </trkpt>
      <trkpt lat="45.6267" lon="6.86698">
        <ele>1858.1</ele>
        <time>2016-05-06T14:12:21Z</time>
      </trkpt>
      <trkpt lat="45.62671" lon="6.86698">
        <ele>1857.9</ele>
        <time>2016-05-06T14:12:23Z</time>
      </trkpt>
      <trkpt lat="45.62671" lon="6.86698">
        <ele>1857.7</ele>
        <time>2016-05-06T14:12:25Z</time>
      </trkpt>
      <trkpt lat="45.62671" lon="6.86697">
        <ele>1857.6</ele>
        <time>2016-05-06T14:12:27Z</time>
      </trkpt>
      <trkpt lat="45.62671" lon="6.86697">
        <ele>1857.3</ele>
        <time>2016-05-06T14:12:29Z</time>
      </trkpt>
      <trkpt lat="45.62672" lon="6.86697">
        <ele>1857.5</ele>
        <time>2016-05-06T14:12:31Z</time>
      </trkpt>
      <trkpt lat="45.62672" lon="6.86697">
        <ele>1857.8</ele>
        <time>2016-05-06T14:12:33Z</time>
      </trkpt>
      <trkpt lat="45.62672" lon="6.86697">
        <ele>1857.8</ele>
        <time>2016-05-06T14:12:35Z</time>
      </trkpt>
      <trkpt lat="45.62672" lon="6.86696">
        <ele>1857.7</ele>
        <time>2016-05-06T14:12:37Z</time>
      </trkpt>
      <trkpt lat="45.62673" lon="6.86696">
        <ele>1857.6</ele>
        <time>2016-05-06T14:12:39Z</time>
      </trkpt>
      <trkpt lat="45.62673" lon="6.86696">
        <ele>1857.6</ele>
        <time>2016-05-06T14:12:41Z</time>
      </trkpt>
      <trkpt lat="45.62673" lon="6.86696">
        <ele>1857.8</ele>
        <time>2016-05-06T14:12:43Z</time>
      </trkpt>
      <trkpt lat="45.62672" lon="6.86695">
        <ele>1857.9</ele>
        <time>2016-05-06T14:12:45Z</time>
      </trkpt>
      <trkpt lat="45.62672" lon="6.86695">
        <ele>1858</ele>
        <time>2016-05-06T14:12:47Z</time>
      </trkpt>
      <trkpt lat="45.62672" lon="6.86695">
        <ele>1858.1</ele>
        <time>2016-05-06T14:12:49Z</time>
      </trkpt>
      <trkpt lat="45.62672" lon="6.86695">
        <ele>1858.1</ele>
        <time>2016-05-06T14:12:51Z</time>
      </trkpt>
      <trkpt lat="45.62672" lon="6.86695">
        <ele>1858.1</ele>
        <time>2016-05-06T14:12:53Z</time>
      </trkpt>
      <trkpt lat="45.62671" lon="6.86695">
        <ele>1858.1</ele>
        <time>2016-05-06T14:12:55Z</time>
      </trkpt>
      <trkpt lat="45.62671" lon="6.86695">
        <ele>1857.9</ele>
        <time>2016-05-06T14:12:57Z</time>
      </trkpt>
      <trkpt lat="45.62671" lon="6.86696">
        <ele>1857.6</ele>
        <time>2016-05-06T14:12:59Z</time>
      </trkpt>
      <trkpt lat="45.62671" lon="6.86696">
        <ele>1857.5</ele>
        <time>2016-05-06T14:13:01Z</time>
      </trkpt>
      <trkpt lat="45.62671" lon="6.86696">
        <ele>1857.4</ele>
        <time>2016-05-06T14:13:03Z</time>
      </trkpt>
      <trkpt lat="45.62671" lon="6.86696">
        <ele>1857.3</ele>
        <time>2016-05-06T14:13:05Z</time>
      </trkpt>
      <trkpt lat="45.62672" lon="6.86696">
        <ele>1857.5</ele>
        <time>2016-05-06T14:13:07Z</time>
      </trkpt>
      <trkpt lat="45.62672" lon="6.86696">
        <ele>1857.7</ele>
        <time>2016-05-06T14:13:09Z</time>
      </trkpt>
      <trkpt lat="45.62672" lon="6.86696">
        <ele>1857.7</ele>
        <time>2016-05-06T14:13:11Z</time>
      </trkpt>
      <trkpt lat="45.62671" lon="6.86695">
        <ele>1857.7</ele>
        <time>2016-05-06T14:13:13Z</time>
      </trkpt>
      <trkpt lat="45.62671" lon="6.86695">
        <ele>1857.6</ele>
        <time>2016-05-06T14:13:15Z</time>
      </trkpt>
      <trkpt lat="45.62671" lon="6.86695">
        <ele>1857.5</ele>
        <time>2016-05-06T14:13:17Z</time>
      </trkpt>
      <trkpt lat="45.62671" lon="6.86695">
        <ele>1857.6</ele>
        <time>2016-05-06T14:13:19Z</time>
      </trkpt>
      <trkpt lat="45.62671" lon="6.86696">
        <ele>1857.7</ele>
        <time>2016-05-06T14:13:21Z</time>
      </trkpt>
      <trkpt lat="45.62671" lon="6.86696">
        <ele>1857.7</ele>
        <time>2016-05-06T14:13:23Z</time>
      </trkpt>
      <trkpt lat="45.62671" lon="6.86696">
        <ele>1857.7</ele>
        <time>2016-05-06T14:13:25Z</time>
      </trkpt>
      <trkpt lat="45.62671" lon="6.86695">
        <ele>1857.8</ele>
        <time>2016-05-06T14:13:27Z</time>
      </trkpt>
      <trkpt lat="45.6267" lon="6.86695">
        <ele>1857.8</ele>
        <time>2016-05-06T14:13:29Z</time>
      </trkpt>
      <trkpt lat="45.6267" lon="6.86695">
        <ele>1857.8</ele>
        <time>2016-05-06T14:13:31Z</time>
      </trkpt>
      <trkpt lat="45.6267" lon="6.86695">
        <ele>1857.7</ele>
        <time>2016-05-06T14:13:33Z</time>
      </trkpt>
      <trkpt lat="45.6267" lon="6.86695">
        <ele>1857.7</ele>
        <time>2016-05-06T14:13:35Z</time>
      </trkpt>
      <trkpt lat="45.6267" lon="6.86695">
        <ele>1857.7</ele>
        <time>2016-05-06T14:13:37Z</time>
      </trkpt>
      <trkpt lat="45.6267" lon="6.86696">
        <ele>1857.6</ele>
        <time>2016-05-06T14:13:39Z</time>
      </trkpt>
      <trkpt lat="45.6267" lon="6.86696">
        <ele>1857.6</ele>
        <time>2016-05-06T14:13:41Z</time>
      </trkpt>
      <trkpt lat="45.6267" lon="6.86696">
        <ele>1857.5</ele>
        <time>2016-05-06T14:13:43Z</time>
      </trkpt>
      <trkpt lat="45.6267" lon="6.86696">
        <ele>1857.4</ele>
        <time>2016-05-06T14:13:45Z</time>
      </trkpt>
      <trkpt lat="45.6267" lon="6.86696">
        <ele>1857.5</ele>
        <time>2016-05-06T14:13:47Z</time>
      </trkpt>
      <trkpt lat="45.62671" lon="6.86696">
        <ele>1857.6</ele>
        <time>2016-05-06T14:13:49Z</time>
      </trkpt>
      <trkpt lat="45.62671" lon="6.86695">
        <ele>1857.7</ele>
        <time>2016-05-06T14:13:51Z</time>
      </trkpt>
      <trkpt lat="45.62671" lon="6.86695">
        <ele>1857.7</ele>
        <time>2016-05-06T14:13:53Z</time>
      </trkpt>
      <trkpt lat="45.62671" lon="6.86695">
        <ele>1857.7</ele>
        <time>2016-05-06T14:13:55Z</time>
      </trkpt>
      <trkpt lat="45.62672" lon="6.86695">
        <ele>1857.6</ele>
        <time>2016-05-06T14:13:57Z</time>
      </trkpt>
      <trkpt lat="45.62672" lon="6.86694">
        <ele>1857.6</ele>
        <time>2016-05-06T14:13:59Z</time>
      </trkpt>
      <trkpt lat="45.62672" lon="6.86694">
        <ele>1857.7</ele>
        <time>2016-05-06T14:14:01Z</time>
      </trkpt>
      <trkpt lat="45.62672" lon="6.86694">
        <ele>1857.8</ele>
        <time>2016-05-06T14:14:03Z</time>
      </trkpt>
      <trkpt lat="45.62673" lon="6.86694">
        <ele>1857.6</ele>
        <time>2016-05-06T14:14:05Z</time>
      </trkpt>
      <trkpt lat="45.62673" lon="6.86694">
        <ele>1857.4</ele>
        <time>2016-05-06T14:14:07Z</time>
      </trkpt>
      <trkpt lat="45.62673" lon="6.86694">
        <ele>1857.3</ele>
        <time>2016-05-06T14:14:09Z</time>
      </trkpt>
      <trkpt lat="45.62673" lon="6.86693">
        <ele>1857.3</ele>
        <time>2016-05-06T14:14:11Z</time>
      </trkpt>
      <trkpt lat="45.62674" lon="6.86694">
        <ele>1857.4</ele>
        <time>2016-05-06T14:14:13Z</time>
      </trkpt>
      <trkpt lat="45.62674" lon="6.86694">
        <ele>1857.6</ele>
        <time>2016-05-06T14:14:15Z</time>
      </trkpt>
      <trkpt lat="45.62674" lon="6.86694">
        <ele>1857.7</ele>
        <time>2016-05-06T14:14:17Z</time>
      </trkpt>
      <trkpt lat="45.62674" lon="6.86694">
        <ele>1857.7</ele>
        <time>2016-05-06T14:14:19Z</time>
      </trkpt>
      <trkpt lat="45.62674" lon="6.86694">
        <ele>1857.7</ele>
        <time>2016-05-06T14:14:21Z</time>
      </trkpt>
      <trkpt lat="45.62674" lon="6.86694">
        <ele>1857.6</ele>
        <time>2016-05-06T14:14:23Z</time>
      </trkpt>
      <trkpt lat="45.62674" lon="6.86694">
        <ele>1857.7</ele>
        <time>2016-05-06T14:14:25Z</time>
      </trkpt>
      <trkpt lat="45.62674" lon="6.86695">
        <ele>1857.6</ele>
        <time>2016-05-06T14:14:27Z</time>
      </trkpt>
      <trkpt lat="45.62674" lon="6.86695">
        <ele>1857.6</ele>
        <time>2016-05-06T14:14:29Z</time>
      </trkpt>
      <trkpt lat="45.62674" lon="6.86695">
        <ele>1857.6</ele>
        <time>2016-05-06T14:14:31Z</time>
      </trkpt>
      <trkpt lat="45.62674" lon="6.86694">
        <ele>1857.7</ele>
        <time>2016-05-06T14:14:33Z</time>
      </trkpt>
      <trkpt lat="45.62674" lon="6.86694">
        <ele>1857.6</ele>
        <time>2016-05-06T14:14:35Z</time>
      </trkpt>
      <trkpt lat="45.62674" lon="6.86694">
        <ele>1857.6</ele>
        <time>2016-05-06T14:14:37Z</time>
      </trkpt>
      <trkpt lat="45.62674" lon="6.86694">
        <ele>1857.6</ele>
        <time>2016-05-06T14:14:39Z</time>
      </trkpt>
      <trkpt lat="45.62674" lon="6.86695">
        <ele>1857.7</ele>
        <time>2016-05-06T14:14:41Z</time>
      </trkpt>
      <trkpt lat="45.62674" lon="6.86695">
        <ele>1857.7</ele>
        <time>2016-05-06T14:14:43Z</time>
      </trkpt>
      <trkpt lat="45.62674" lon="6.86695">
        <ele>1857.7</ele>
        <time>2016-05-06T14:14:45Z</time>
      </trkpt>
      <trkpt lat="45.62673" lon="6.86695">
        <ele>1857.7</ele>
        <time>2016-05-06T14:14:47Z</time>
      </trkpt>
      <trkpt lat="45.62673" lon="6.86695">
        <ele>1857.6</ele>
        <time>2016-05-06T14:14:49Z</time>
      </trkpt>
      <trkpt lat="45.62673" lon="6.86696">
        <ele>1857.7</ele>
        <time>2016-05-06T14:14:51Z</time>
      </trkpt>
      <trkpt lat="45.62673" lon="6.86695">
        <ele>1857.7</ele>
        <time>2016-05-06T14:14:53Z</time>
      </trkpt>
      <trkpt lat="45.62673" lon="6.86695">
        <ele>1857.9</ele>
        <time>2016-05-06T14:14:55Z</time>
      </trkpt>
      <trkpt lat="45.62673" lon="6.86695">
        <ele>1858.1</ele>
        <time>2016-05-06T14:14:57Z</time>
      </trkpt>
      <trkpt lat="45.62674" lon="6.86695">
        <ele>1858</ele>
        <time>2016-05-06T14:14:59Z</time>
      </trkpt>
      <trkpt lat="45.62674" lon="6.86696">
        <ele>1857.8</ele>
        <time>2016-05-06T14:15:01Z</time>
      </trkpt>
      <trkpt lat="45.62673" lon="6.86696">
        <ele>1857.8</ele>
        <time>2016-05-06T14:15:03Z</time>
      </trkpt>
      <trkpt lat="45.62673" lon="6.86696">
        <ele>1857.9</ele>
        <time>2016-05-06T14:15:05Z</time>
      </trkpt>
      <trkpt lat="45.62674" lon="6.86696">
        <ele>1858</ele>
        <time>2016-05-06T14:15:07Z</time>
      </trkpt>
      <trkpt lat="45.62673" lon="6.86696">
        <ele>1858</ele>
        <time>2016-05-06T14:15:09Z</time>
      </trkpt>
      <trkpt lat="45.62673" lon="6.86696">
        <ele>1858</ele>
        <time>2016-05-06T14:15:11Z</time>
      </trkpt>
      <trkpt lat="45.62673" lon="6.86696">
        <ele>1858</ele>
        <time>2016-05-06T14:15:13Z</time>
      </trkpt>
      <trkpt lat="45.62672" lon="6.86696">
        <ele>1857.9</ele>
        <time>2016-05-06T14:15:15Z</time>
      </trkpt>
      <trkpt lat="45.62672" lon="6.86696">
        <ele>1857.9</ele>
        <time>2016-05-06T14:15:17Z</time>
      </trkpt>
      <trkpt lat="45.62672" lon="6.86696">
        <ele>1857.7</ele>
        <time>2016-05-06T14:15:19Z</time>
      </trkpt>
      <trkpt lat="45.62672" lon="6.86697">
        <ele>1857.6</ele>
        <time>2016-05-06T14:15:21Z</time>
      </trkpt>
      <trkpt lat="45.62671" lon="6.86697">
        <ele>1857.5</ele>
        <time>2016-05-06T14:15:23Z</time>
      </trkpt>
      <trkpt lat="45.62671" lon="6.86697">
        <ele>1857.5</ele>
        <time>2016-05-06T14:15:25Z</time>
      </trkpt>
      <trkpt lat="45.62671" lon="6.86697">
        <ele>1857.4</ele>
        <time>2016-05-06T14:15:27Z</time>
      </trkpt>
      <trkpt lat="45.62671" lon="6.86697">
        <ele>1857.3</ele>
        <time>2016-05-06T14:15:29Z</time>
      </trkpt>
      <trkpt lat="45.62671" lon="6.86697">
        <ele>1857.3</ele>
        <time>2016-05-06T14:15:31Z</time>
      </trkpt>
      <trkpt lat="45.62671" lon="6.86697">
        <ele>1857.5</ele>
        <time>2016-05-06T14:15:33Z</time>
      </trkpt>
      <trkpt lat="45.6267" lon="6.86697">
        <ele>1857.6</ele>
        <time>2016-05-06T14:15:35Z</time>
      </trkpt>
      <trkpt lat="45.6267" lon="6.86697">
        <ele>1857.6</ele>
        <time>2016-05-06T14:15:37Z</time>
      </trkpt>
      <trkpt lat="45.6267" lon="6.86697">
        <ele>1857.5</ele>
        <time>2016-05-06T14:15:39Z</time>
      </trkpt>
      <trkpt lat="45.6267" lon="6.86697">
        <ele>1857.5</ele>
        <time>2016-05-06T14:15:41Z</time>
      </trkpt>
      <trkpt lat="45.6267" lon="6.86697">
        <ele>1857.6</ele>
        <time>2016-05-06T14:15:43Z</time>
      </trkpt>
      <trkpt lat="45.6267" lon="6.86697">
        <ele>1857.6</ele>
        <time>2016-05-06T14:15:45Z</time>
      </trkpt>
      <trkpt lat="45.6267" lon="6.86697">
        <ele>1857.7</ele>
        <time>2016-05-06T14:15:47Z</time>
      </trkpt>
      <trkpt lat="45.6267" lon="6.86696">
        <ele>1857.8</ele>
        <time>2016-05-06T14:15:49Z</time>
      </trkpt>
      <trkpt lat="45.62671" lon="6.86697">
        <ele>1857.9</ele>
        <time>2016-05-06T14:15:51Z</time>
      </trkpt>
      <trkpt lat="45.62671" lon="6.86697">
        <ele>1858.1</ele>
        <time>2016-05-06T14:15:53Z</time>
      </trkpt>
      <trkpt lat="45.62671" lon="6.86697">
        <ele>1858.1</ele>
        <time>2016-05-06T14:15:55Z</time>
      </trkpt>
      <trkpt lat="45.62671" lon="6.86697">
        <ele>1858</ele>
        <time>2016-05-06T14:15:57Z</time>
      </trkpt>
      <trkpt lat="45.62671" lon="6.86697">
        <ele>1858</ele>
        <time>2016-05-06T14:15:59Z</time>
      </trkpt>
      <trkpt lat="45.62671" lon="6.86697">
        <ele>1857.9</ele>
        <time>2016-05-06T14:16:01Z</time>
      </trkpt>
      <trkpt lat="45.62671" lon="6.86697">
        <ele>1857.9</ele>
        <time>2016-05-06T14:16:03Z</time>
      </trkpt>
      <trkpt lat="45.62671" lon="6.86697">
        <ele>1857.8</ele>
        <time>2016-05-06T14:16:05Z</time>
      </trkpt>
      <trkpt lat="45.62671" lon="6.86697">
        <ele>1857.9</ele>
        <time>2016-05-06T14:16:07Z</time>
      </trkpt>
      <trkpt lat="45.62671" lon="6.86697">
        <ele>1857.9</ele>
        <time>2016-05-06T14:16:09Z</time>
      </trkpt>
      <trkpt lat="45.62671" lon="6.86697">
        <ele>1857.9</ele>
        <time>2016-05-06T14:16:11Z</time>
      </trkpt>
      <trkpt lat="45.62671" lon="6.86697">
        <ele>1858</ele>
        <time>2016-05-06T14:16:13Z</time>
      </trkpt>
      <trkpt lat="45.62671" lon="6.86697">
        <ele>1857.9</ele>
        <time>2016-05-06T14:16:15Z</time>
      </trkpt>
      <trkpt lat="45.62671" lon="6.86698">
        <ele>1857.7</ele>
        <time>2016-05-06T14:16:17Z</time>
      </trkpt>
      <trkpt lat="45.62671" lon="6.86698">
        <ele>1857.5</ele>
        <time>2016-05-06T14:16:19Z</time>
      </trkpt>
      <trkpt lat="45.62671" lon="6.86698">
        <ele>1857.7</ele>
        <time>2016-05-06T14:16:21Z</time>
      </trkpt>
      <trkpt lat="45.62671" lon="6.86698">
        <ele>1857.8</ele>
        <time>2016-05-06T14:16:23Z</time>
      </trkpt>
      <trkpt lat="45.62671" lon="6.86698">
        <ele>1857.8</ele>
        <time>2016-05-06T14:16:25Z</time>
      </trkpt>
      <trkpt lat="45.62671" lon="6.86698">
        <ele>1857.8</ele>
        <time>2016-05-06T14:16:27Z</time>
      </trkpt>
      <trkpt lat="45.62671" lon="6.86698">
        <ele>1857.8</ele>
        <time>2016-05-06T14:16:29Z</time>
      </trkpt>
      <trkpt lat="45.62671" lon="6.86698">
        <ele>1857.9</ele>
        <time>2016-05-06T14:16:31Z</time>
      </trkpt>
      <trkpt lat="45.62671" lon="6.86698">
        <ele>1857.9</ele>
        <time>2016-05-06T14:16:33Z</time>
      </trkpt>
      <trkpt lat="45.62672" lon="6.86699">
        <ele>1857.7</ele>
        <time>2016-05-06T14:16:35Z</time>
      </trkpt>
      <trkpt lat="45.62672" lon="6.86699">
        <ele>1857.9</ele>
        <time>2016-05-06T14:16:37Z</time>
      </trkpt>
      <trkpt lat="45.62672" lon="6.86699">
        <ele>1858</ele>
        <time>2016-05-06T14:16:39Z</time>
      </trkpt>
      <trkpt lat="45.62672" lon="6.86699">
        <ele>1858</ele>
        <time>2016-05-06T14:16:41Z</time>
      </trkpt>
      <trkpt lat="45.62672" lon="6.86699">
        <ele>1857.9</ele>
        <time>2016-05-06T14:16:43Z</time>
      </trkpt>
      <trkpt lat="45.62672" lon="6.86699">
        <ele>1857.7</ele>
        <time>2016-05-06T14:16:45Z</time>
      </trkpt>
      <trkpt lat="45.62672" lon="6.86699">
        <ele>1857.4</ele>
        <time>2016-05-06T14:16:47Z</time>
      </trkpt>
      <trkpt lat="45.62672" lon="6.86699">
        <ele>1857.5</ele>
        <time>2016-05-06T14:16:49Z</time>
      </trkpt>
      <trkpt lat="45.62672" lon="6.86699">
        <ele>1857.5</ele>
        <time>2016-05-06T14:16:51Z</time>
      </trkpt>
      <trkpt lat="45.62672" lon="6.86699">
        <ele>1857.6</ele>
        <time>2016-05-06T14:16:53Z</time>
      </trkpt>
      <trkpt lat="45.62672" lon="6.86699">
        <ele>1857.6</ele>
        <time>2016-05-06T14:16:55Z</time>
      </trkpt>
      <trkpt lat="45.62672" lon="6.86699">
        <ele>1857.6</ele>
        <time>2016-05-06T14:16:57Z</time>
      </trkpt>
      <trkpt lat="45.62671" lon="6.86699">
        <ele>1857.7</ele>
        <time>2016-05-06T14:16:59Z</time>
      </trkpt>
      <trkpt lat="45.62671" lon="6.86699">
        <ele>1857.7</ele>
        <time>2016-05-06T14:17:01Z</time>
      </trkpt>
      <trkpt lat="45.62671" lon="6.86699">
        <ele>1857.7</ele>
        <time>2016-05-06T14:17:03Z</time>
      </trkpt>
      <trkpt lat="45.62671" lon="6.86699">
        <ele>1857.7</ele>
        <time>2016-05-06T14:17:05Z</time>
      </trkpt>
      <trkpt lat="45.62672" lon="6.86699">
        <ele>1857.7</ele>
        <time>2016-05-06T14:17:07Z</time>
      </trkpt>
      <trkpt lat="45.62672" lon="6.86699">
        <ele>1857.8</ele>
        <time>2016-05-06T14:17:09Z</time>
      </trkpt>
      <trkpt lat="45.62672" lon="6.86699">
        <ele>1858</ele>
        <time>2016-05-06T14:17:11Z</time>
      </trkpt>
      <trkpt lat="45.62672" lon="6.86699">
        <ele>1858.1</ele>
        <time>2016-05-06T14:17:13Z</time>
      </trkpt>
      <trkpt lat="45.62672" lon="6.86699">
        <ele>1858.1</ele>
        <time>2016-05-06T14:17:15Z</time>
      </trkpt>
      <trkpt lat="45.62672" lon="6.86699">
        <ele>1858</ele>
        <time>2016-05-06T14:17:17Z</time>
      </trkpt>
      <trkpt lat="45.62672" lon="6.86699">
        <ele>1857.9</ele>
        <time>2016-05-06T14:17:19Z</time>
      </trkpt>
      <trkpt lat="45.62672" lon="6.86699">
        <ele>1857.7</ele>
        <time>2016-05-06T14:17:21Z</time>
      </trkpt>
      <trkpt lat="45.62673" lon="6.867">
        <ele>1857.6</ele>
        <time>2016-05-06T14:17:23Z</time>
      </trkpt>
      <trkpt lat="45.62672" lon="6.867">
        <ele>1857.6</ele>
        <time>2016-05-06T14:17:25Z</time>
      </trkpt>
      <trkpt lat="45.62672" lon="6.867">
        <ele>1857.7</ele>
        <time>2016-05-06T14:17:27Z</time>
      </trkpt>
      <trkpt lat="45.62672" lon="6.867">
        <ele>1857.8</ele>
        <time>2016-05-06T14:17:29Z</time>
      </trkpt>
      <trkpt lat="45.62672" lon="6.86701">
        <ele>1858</ele>
        <time>2016-05-06T14:17:31Z</time>
      </trkpt>
      <trkpt lat="45.62672" lon="6.86701">
        <ele>1858</ele>
        <time>2016-05-06T14:17:33Z</time>
      </trkpt>
      <trkpt lat="45.62671" lon="6.86701">
        <ele>1857.9</ele>
        <time>2016-05-06T14:17:35Z</time>
      </trkpt>
      <trkpt lat="45.6267" lon="6.86701">
        <ele>1857.8</ele>
        <time>2016-05-06T14:17:37Z</time>
      </trkpt>
      <trkpt lat="45.6267" lon="6.86701">
        <ele>1857.8</ele>
        <time>2016-05-06T14:17:39Z</time>
      </trkpt>
      <trkpt lat="45.6267" lon="6.86701">
        <ele>1857.8</ele>
        <time>2016-05-06T14:17:41Z</time>
      </trkpt>
      <trkpt lat="45.6267" lon="6.86701">
        <ele>1857.6</ele>
        <time>2016-05-06T14:17:43Z</time>
      </trkpt>
      <trkpt lat="45.62669" lon="6.86701">
        <ele>1857.8</ele>
        <time>2016-05-06T14:17:45Z</time>
      </trkpt>
      <trkpt lat="45.62669" lon="6.86701">
        <ele>1857.7</ele>
        <time>2016-05-06T14:17:47Z</time>
      </trkpt>
      <trkpt lat="45.62669" lon="6.86701">
        <ele>1857.7</ele>
        <time>2016-05-06T14:17:49Z</time>
      </trkpt>
      <trkpt lat="45.62669" lon="6.86701">
        <ele>1857.5</ele>
        <time>2016-05-06T14:17:51Z</time>
      </trkpt>
      <trkpt lat="45.62668" lon="6.867">
        <ele>1857.5</ele>
        <time>2016-05-06T14:17:53Z</time>
      </trkpt>
      <trkpt lat="45.62668" lon="6.867">
        <ele>1857.4</ele>
        <time>2016-05-06T14:17:55Z</time>
      </trkpt>
      <trkpt lat="45.62669" lon="6.867">
        <ele>1857.4</ele>
        <time>2016-05-06T14:17:57Z</time>
      </trkpt>
      <trkpt lat="45.62669" lon="6.867">
        <ele>1857.4</ele>
        <time>2016-05-06T14:17:59Z</time>
      </trkpt>
      <trkpt lat="45.62669" lon="6.867">
        <ele>1857.5</ele>
        <time>2016-05-06T14:18:01Z</time>
      </trkpt>
      <trkpt lat="45.62669" lon="6.867">
        <ele>1857.6</ele>
        <time>2016-05-06T14:18:03Z</time>
      </trkpt>
      <trkpt lat="45.62669" lon="6.867">
        <ele>1857.6</ele>
        <time>2016-05-06T14:18:05Z</time>
      </trkpt>
      <trkpt lat="45.62669" lon="6.86699">
        <ele>1857.8</ele>
        <time>2016-05-06T14:18:07Z</time>
      </trkpt>
      <trkpt lat="45.62669" lon="6.86699">
        <ele>1857.8</ele>
        <time>2016-05-06T14:18:09Z</time>
      </trkpt>
      <trkpt lat="45.62669" lon="6.86699">
        <ele>1857.8</ele>
        <time>2016-05-06T14:18:11Z</time>
      </trkpt>
      <trkpt lat="45.62669" lon="6.86699">
        <ele>1857.8</ele>
        <time>2016-05-06T14:18:13Z</time>
      </trkpt>
      <trkpt lat="45.6267" lon="6.86699">
        <ele>1857.7</ele>
        <time>2016-05-06T14:18:15Z</time>
      </trkpt>
      <trkpt lat="45.62669" lon="6.86698">
        <ele>1857.7</ele>
        <time>2016-05-06T14:18:17Z</time>
      </trkpt>
      <trkpt lat="45.62669" lon="6.86698">
        <ele>1857.7</ele>
        <time>2016-05-06T14:18:19Z</time>
      </trkpt>
      <trkpt lat="45.62669" lon="6.86697">
        <ele>1857.7</ele>
        <time>2016-05-06T14:18:21Z</time>
      </trkpt>
      <trkpt lat="45.62669" lon="6.86697">
        <ele>1857.8</ele>
        <time>2016-05-06T14:18:23Z</time>
      </trkpt>
      <trkpt lat="45.62669" lon="6.86697">
        <ele>1857.9</ele>
        <time>2016-05-06T14:18:25Z</time>
      </trkpt>
      <trkpt lat="45.6267" lon="6.86697">
        <ele>1857.9</ele>
        <time>2016-05-06T14:18:27Z</time>
      </trkpt>
      <trkpt lat="45.6267" lon="6.86696">
        <ele>1858</ele>
        <time>2016-05-06T14:18:29Z</time>
      </trkpt>
      <trkpt lat="45.62669" lon="6.86696">
        <ele>1857.9</ele>
        <time>2016-05-06T14:18:31Z</time>
      </trkpt>
      <trkpt lat="45.62669" lon="6.86696">
        <ele>1857.9</ele>
        <time>2016-05-06T14:18:33Z</time>
      </trkpt>
      <trkpt lat="45.62669" lon="6.86696">
        <ele>1857.8</ele>
        <time>2016-05-06T14:18:35Z</time>
      </trkpt>
      <trkpt lat="45.62669" lon="6.86696">
        <ele>1857.7</ele>
        <time>2016-05-06T14:18:37Z</time>
      </trkpt>
      <trkpt lat="45.62669" lon="6.86696">
        <ele>1857.7</ele>
        <time>2016-05-06T14:18:39Z</time>
      </trkpt>
      <trkpt lat="45.62669" lon="6.86696">
        <ele>1857.7</ele>
        <time>2016-05-06T14:18:41Z</time>
      </trkpt>
      <trkpt lat="45.62669" lon="6.86697">
        <ele>1857.9</ele>
        <time>2016-05-06T14:18:43Z</time>
      </trkpt>
      <trkpt lat="45.62669" lon="6.86697">
        <ele>1857.9</ele>
        <time>2016-05-06T14:18:45Z</time>
      </trkpt>
      <trkpt lat="45.62669" lon="6.86697">
        <ele>1858</ele>
        <time>2016-05-06T14:18:47Z</time>
      </trkpt>
      <trkpt lat="45.62669" lon="6.86697">
        <ele>1858</ele>
        <time>2016-05-06T14:18:49Z</time>
      </trkpt>
      <trkpt lat="45.62669" lon="6.86696">
        <ele>1858.1</ele>
        <time>2016-05-06T14:18:51Z</time>
      </trkpt>
      <trkpt lat="45.62668" lon="6.86696">
        <ele>1858.2</ele>
        <time>2016-05-06T14:18:53Z</time>
      </trkpt>
      <trkpt lat="45.62668" lon="6.86696">
        <ele>1858.2</ele>
        <time>2016-05-06T14:18:55Z</time>
      </trkpt>
      <trkpt lat="45.62668" lon="6.86696">
        <ele>1858.3</ele>
        <time>2016-05-06T14:18:57Z</time>
      </trkpt>
      <trkpt lat="45.62668" lon="6.86696">
        <ele>1858.2</ele>
        <time>2016-05-06T14:18:59Z</time>
      </trkpt>
      <trkpt lat="45.62668" lon="6.86696">
        <ele>1858.2</ele>
        <time>2016-05-06T14:19:01Z</time>
      </trkpt>
      <trkpt lat="45.62668" lon="6.86696">
        <ele>1858.2</ele>
        <time>2016-05-06T14:19:03Z</time>
      </trkpt>
      <trkpt lat="45.62668" lon="6.86696">
        <ele>1858.4</ele>
        <time>2016-05-06T14:19:05Z</time>
      </trkpt>
      <trkpt lat="45.62668" lon="6.86697">
        <ele>1858.4</ele>
        <time>2016-05-06T14:19:07Z</time>
      </trkpt>
      <trkpt lat="45.62668" lon="6.86697">
        <ele>1858.3</ele>
        <time>2016-05-06T14:19:09Z</time>
      </trkpt>
      <trkpt lat="45.62668" lon="6.86697">
        <ele>1858.4</ele>
        <time>2016-05-06T14:19:11Z</time>
      </trkpt>
      <trkpt lat="45.62668" lon="6.86697">
        <ele>1858.4</ele>
        <time>2016-05-06T14:19:13Z</time>
      </trkpt>
      <trkpt lat="45.62669" lon="6.86697">
        <ele>1858.5</ele>
        <time>2016-05-06T14:19:15Z</time>
      </trkpt>
      <trkpt lat="45.62669" lon="6.86697">
        <ele>1858.3</ele>
        <time>2016-05-06T14:19:17Z</time>
      </trkpt>
      <trkpt lat="45.62668" lon="6.86697">
        <ele>1858.2</ele>
        <time>2016-05-06T14:19:19Z</time>
      </trkpt>
      <trkpt lat="45.62668" lon="6.86697">
        <ele>1858.1</ele>
        <time>2016-05-06T14:19:21Z</time>
      </trkpt>
      <trkpt lat="45.62668" lon="6.86697">
        <ele>1858.2</ele>
        <time>2016-05-06T14:19:23Z</time>
      </trkpt>
      <trkpt lat="45.62668" lon="6.86698">
        <ele>1858.2</ele>
        <time>2016-05-06T14:19:25Z</time>
      </trkpt>
      <trkpt lat="45.62668" lon="6.86697">
        <ele>1858.1</ele>
        <time>2016-05-06T14:19:27Z</time>
      </trkpt>
      <trkpt lat="45.62668" lon="6.86698">
        <ele>1858.2</ele>
        <time>2016-05-06T14:19:29Z</time>
      </trkpt>
      <trkpt lat="45.62667" lon="6.86698">
        <ele>1858.3</ele>
        <time>2016-05-06T14:19:31Z</time>
      </trkpt>
      <trkpt lat="45.62667" lon="6.86698">
        <ele>1858.4</ele>
        <time>2016-05-06T14:19:33Z</time>
      </trkpt>
      <trkpt lat="45.62667" lon="6.86698">
        <ele>1858.3</ele>
        <time>2016-05-06T14:19:35Z</time>
      </trkpt>
      <trkpt lat="45.62667" lon="6.86699">
        <ele>1858.3</ele>
        <time>2016-05-06T14:19:37Z</time>
      </trkpt>
      <trkpt lat="45.62667" lon="6.86701">
        <ele>1858.3</ele>
        <time>2016-05-06T14:19:39Z</time>
      </trkpt>
      <trkpt lat="45.62666" lon="6.86702">
        <ele>1858.5</ele>
        <time>2016-05-06T14:19:41Z</time>
      </trkpt>
      <trkpt lat="45.62666" lon="6.86703">
        <ele>1858.5</ele>
        <time>2016-05-06T14:19:43Z</time>
      </trkpt>
      <trkpt lat="45.62667" lon="6.86703">
        <ele>1858.5</ele>
        <time>2016-05-06T14:19:45Z</time>
      </trkpt>
      <trkpt lat="45.62667" lon="6.86703">
        <ele>1858.5</ele>
        <time>2016-05-06T14:19:47Z</time>
      </trkpt>
      <trkpt lat="45.62667" lon="6.86703">
        <ele>1858.6</ele>
        <time>2016-05-06T14:19:49Z</time>
      </trkpt>
      <trkpt lat="45.62667" lon="6.86703">
        <ele>1858.6</ele>
        <time>2016-05-06T14:19:51Z</time>
      </trkpt>
      <trkpt lat="45.62667" lon="6.86703">
        <ele>1858.6</ele>
        <time>2016-05-06T14:19:53Z</time>
      </trkpt>
      <trkpt lat="45.62668" lon="6.86704">
        <ele>1858.6</ele>
        <time>2016-05-06T14:19:55Z</time>
      </trkpt>
      <trkpt lat="45.62668" lon="6.86704">
        <ele>1858.5</ele>
        <time>2016-05-06T14:19:57Z</time>
      </trkpt>
      <trkpt lat="45.62668" lon="6.86704">
        <ele>1858.5</ele>
        <time>2016-05-06T14:19:59Z</time>
      </trkpt>
      <trkpt lat="45.62668" lon="6.86705">
        <ele>1858.6</ele>
        <time>2016-05-06T14:20:01Z</time>
      </trkpt>
      <trkpt lat="45.62668" lon="6.86705">
        <ele>1858.6</ele>
        <time>2016-05-06T14:20:03Z</time>
      </trkpt>
      <trkpt lat="45.62668" lon="6.86705">
        <ele>1858.7</ele>
        <time>2016-05-06T14:20:05Z</time>
      </trkpt>
      <trkpt lat="45.62668" lon="6.86705">
        <ele>1858.7</ele>
        <time>2016-05-06T14:20:07Z</time>
      </trkpt>
      <trkpt lat="45.62668" lon="6.86705">
        <ele>1858.8</ele>
        <time>2016-05-06T14:20:09Z</time>
      </trkpt>
      <trkpt lat="45.62668" lon="6.86705">
        <ele>1858.8</ele>
        <time>2016-05-06T14:20:11Z</time>
      </trkpt>
      <trkpt lat="45.62668" lon="6.86705">
        <ele>1858.8</ele>
        <time>2016-05-06T14:20:13Z</time>
      </trkpt>
      <trkpt lat="45.62669" lon="6.86704">
        <ele>1858.8</ele>
        <time>2016-05-06T14:20:15Z</time>
      </trkpt>
      <trkpt lat="45.62669" lon="6.86704">
        <ele>1858.6</ele>
        <time>2016-05-06T14:20:17Z</time>
      </trkpt>
      <trkpt lat="45.62669" lon="6.86703">
        <ele>1858.5</ele>
        <time>2016-05-06T14:20:19Z</time>
      </trkpt>
      <trkpt lat="45.62669" lon="6.86702">
        <ele>1858.6</ele>
        <time>2016-05-06T14:20:21Z</time>
      </trkpt>
      <trkpt lat="45.62669" lon="6.86702">
        <ele>1858.7</ele>
        <time>2016-05-06T14:20:23Z</time>
      </trkpt>
      <trkpt lat="45.6267" lon="6.86702">
        <ele>1858.8</ele>
        <time>2016-05-06T14:20:25Z</time>
      </trkpt>
      <trkpt lat="45.6267" lon="6.86701">
        <ele>1858.7</ele>
        <time>2016-05-06T14:20:27Z</time>
      </trkpt>
      <trkpt lat="45.6267" lon="6.86701">
        <ele>1858.7</ele>
        <time>2016-05-06T14:20:29Z</time>
      </trkpt>
      <trkpt lat="45.62671" lon="6.86701">
        <ele>1858.7</ele>
        <time>2016-05-06T14:20:31Z</time>
      </trkpt>
      <trkpt lat="45.62671" lon="6.867">
        <ele>1858.8</ele>
        <time>2016-05-06T14:20:33Z</time>
      </trkpt>
      <trkpt lat="45.62671" lon="6.867">
        <ele>1858.7</ele>
        <time>2016-05-06T14:20:35Z</time>
      </trkpt>
      <trkpt lat="45.62671" lon="6.867">
        <ele>1858.6</ele>
        <time>2016-05-06T14:20:37Z</time>
      </trkpt>
      <trkpt lat="45.62672" lon="6.86699">
        <ele>1858.7</ele>
        <time>2016-05-06T14:20:39Z</time>
      </trkpt>
      <trkpt lat="45.62672" lon="6.86699">
        <ele>1858.9</ele>
        <time>2016-05-06T14:20:41Z</time>
      </trkpt>
      <trkpt lat="45.62672" lon="6.86699">
        <ele>1859</ele>
        <time>2016-05-06T14:20:43Z</time>
      </trkpt>
      <trkpt lat="45.62672" lon="6.86698">
        <ele>1859</ele>
        <time>2016-05-06T14:20:45Z</time>
      </trkpt>
      <trkpt lat="45.62672" lon="6.86698">
        <ele>1858.9</ele>
        <time>2016-05-06T14:20:47Z</time>
      </trkpt>
      <trkpt lat="45.62672" lon="6.86698">
        <ele>1858.8</ele>
        <time>2016-05-06T14:20:49Z</time>
      </trkpt>
      <trkpt lat="45.62672" lon="6.86698">
        <ele>1858.6</ele>
        <time>2016-05-06T14:20:51Z</time>
      </trkpt>
      <trkpt lat="45.62672" lon="6.86698">
        <ele>1858.5</ele>
        <time>2016-05-06T14:20:53Z</time>
      </trkpt>
      <trkpt lat="45.62672" lon="6.86698">
        <ele>1858.4</ele>
        <time>2016-05-06T14:20:55Z</time>
      </trkpt>
      <trkpt lat="45.62672" lon="6.86698">
        <ele>1858.5</ele>
        <time>2016-05-06T14:20:57Z</time>
      </trkpt>
      <trkpt lat="45.62672" lon="6.86698">
        <ele>1858.6</ele>
        <time>2016-05-06T14:20:59Z</time>
      </trkpt>
      <trkpt lat="45.62672" lon="6.86698">
        <ele>1858.6</ele>
        <time>2016-05-06T14:21:01Z</time>
      </trkpt>
      <trkpt lat="45.62672" lon="6.86698">
        <ele>1858.7</ele>
        <time>2016-05-06T14:21:03Z</time>
      </trkpt>
      <trkpt lat="45.62672" lon="6.86698">
        <ele>1858.7</ele>
        <time>2016-05-06T14:21:05Z</time>
      </trkpt>
      <trkpt lat="45.62672" lon="6.86699">
        <ele>1858.7</ele>
        <time>2016-05-06T14:21:07Z</time>
      </trkpt>
      <trkpt lat="45.62672" lon="6.86699">
        <ele>1858.7</ele>
        <time>2016-05-06T14:21:09Z</time>
      </trkpt>
      <trkpt lat="45.62672" lon="6.86699">
        <ele>1858.7</ele>
        <time>2016-05-06T14:21:11Z</time>
      </trkpt>
      <trkpt lat="45.62672" lon="6.86699">
        <ele>1858.8</ele>
        <time>2016-05-06T14:21:13Z</time>
      </trkpt>
      <trkpt lat="45.6267" lon="6.86699">
        <ele>1858.7</ele>
        <time>2016-05-06T14:21:15Z</time>
      </trkpt>
      <trkpt lat="45.6267" lon="6.86699">
        <ele>1858.7</ele>
        <time>2016-05-06T14:21:17Z</time>
      </trkpt>
      <trkpt lat="45.6267" lon="6.86699">
        <ele>1858.8</ele>
        <time>2016-05-06T14:21:19Z</time>
      </trkpt>
      <trkpt lat="45.6267" lon="6.86699">
        <ele>1858.8</ele>
        <time>2016-05-06T14:21:21Z</time>
      </trkpt>
      <trkpt lat="45.6267" lon="6.867">
        <ele>1858.9</ele>
        <time>2016-05-06T14:21:23Z</time>
      </trkpt>
      <trkpt lat="45.6267" lon="6.867">
        <ele>1858.9</ele>
        <time>2016-05-06T14:21:25Z</time>
      </trkpt>
      <trkpt lat="45.6267" lon="6.867">
        <ele>1858.9</ele>
        <time>2016-05-06T14:21:27Z</time>
      </trkpt>
      <trkpt lat="45.6267" lon="6.867">
        <ele>1858.8</ele>
        <time>2016-05-06T14:21:29Z</time>
      </trkpt>
      <trkpt lat="45.6267" lon="6.867">
        <ele>1858.7</ele>
        <time>2016-05-06T14:21:31Z</time>
      </trkpt>
      <trkpt lat="45.6267" lon="6.867">
        <ele>1858.6</ele>
        <time>2016-05-06T14:21:33Z</time>
      </trkpt>
      <trkpt lat="45.6267" lon="6.867">
        <ele>1858.6</ele>
        <time>2016-05-06T14:21:35Z</time>
      </trkpt>
      <trkpt lat="45.62671" lon="6.867">
        <ele>1858.7</ele>
        <time>2016-05-06T14:21:37Z</time>
      </trkpt>
      <trkpt lat="45.62671" lon="6.867">
        <ele>1858.6</ele>
        <time>2016-05-06T14:21:39Z</time>
      </trkpt>
      <trkpt lat="45.62671" lon="6.867">
        <ele>1858.6</ele>
        <time>2016-05-06T14:21:41Z</time>
      </trkpt>
      <trkpt lat="45.62671" lon="6.867">
        <ele>1858.7</ele>
        <time>2016-05-06T14:21:43Z</time>
      </trkpt>
      <trkpt lat="45.62671" lon="6.86701">
        <ele>1858.9</ele>
        <time>2016-05-06T14:21:45Z</time>
      </trkpt>
      <trkpt lat="45.62672" lon="6.86701">
        <ele>1859.1</ele>
        <time>2016-05-06T14:21:47Z</time>
      </trkpt>
      <trkpt lat="45.62672" lon="6.86701">
        <ele>1859.2</ele>
        <time>2016-05-06T14:21:49Z</time>
      </trkpt>
      <trkpt lat="45.62672" lon="6.86701">
        <ele>1859.1</ele>
        <time>2016-05-06T14:21:51Z</time>
      </trkpt>
      <trkpt lat="45.62672" lon="6.86701">
        <ele>1859.1</ele>
        <time>2016-05-06T14:21:53Z</time>
      </trkpt>
      <trkpt lat="45.62672" lon="6.86701">
        <ele>1859.2</ele>
        <time>2016-05-06T14:21:55Z</time>
      </trkpt>
      <trkpt lat="45.62672" lon="6.86701">
        <ele>1859.1</ele>
        <time>2016-05-06T14:21:57Z</time>
      </trkpt>
      <trkpt lat="45.62672" lon="6.86701">
        <ele>1859.1</ele>
        <time>2016-05-06T14:21:59Z</time>
      </trkpt>
      <trkpt lat="45.62672" lon="6.867">
        <ele>1859.1</ele>
        <time>2016-05-06T14:22:01Z</time>
      </trkpt>
      <trkpt lat="45.62672" lon="6.867">
        <ele>1859.1</ele>
        <time>2016-05-06T14:22:03Z</time>
      </trkpt>
      <trkpt lat="45.62672" lon="6.86701">
        <ele>1859.1</ele>
        <time>2016-05-06T14:22:05Z</time>
      </trkpt>
      <trkpt lat="45.62672" lon="6.86701">
        <ele>1859.1</ele>
        <time>2016-05-06T14:22:07Z</time>
      </trkpt>
      <trkpt lat="45.62672" lon="6.86701">
        <ele>1859.1</ele>
        <time>2016-05-06T14:22:09Z</time>
      </trkpt>
      <trkpt lat="45.62672" lon="6.86701">
        <ele>1859.1</ele>
        <time>2016-05-06T14:22:11Z</time>
      </trkpt>
      <trkpt lat="45.62672" lon="6.86701">
        <ele>1859.1</ele>
        <time>2016-05-06T14:22:13Z</time>
      </trkpt>
      <trkpt lat="45.62672" lon="6.86701">
        <ele>1859</ele>
        <time>2016-05-06T14:22:15Z</time>
      </trkpt>
      <trkpt lat="45.62672" lon="6.86702">
        <ele>1859</ele>
        <time>2016-05-06T14:22:17Z</time>
      </trkpt>
      <trkpt lat="45.62672" lon="6.86702">
        <ele>1859.1</ele>
        <time>2016-05-06T14:22:19Z</time>
      </trkpt>
      <trkpt lat="45.62672" lon="6.86703">
        <ele>1859.1</ele>
        <time>2016-05-06T14:22:21Z</time>
      </trkpt>
      <trkpt lat="45.62671" lon="6.86703">
        <ele>1859.2</ele>
        <time>2016-05-06T14:22:23Z</time>
      </trkpt>
      <trkpt lat="45.62671" lon="6.86703">
        <ele>1859.2</ele>
        <time>2016-05-06T14:22:25Z</time>
      </trkpt>
      <trkpt lat="45.62671" lon="6.86703">
        <ele>1859.2</ele>
        <time>2016-05-06T14:22:27Z</time>
      </trkpt>
      <trkpt lat="45.62671" lon="6.86703">
        <ele>1859.1</ele>
        <time>2016-05-06T14:22:29Z</time>
      </trkpt>
      <trkpt lat="45.62671" lon="6.86704">
        <ele>1859</ele>
        <time>2016-05-06T14:22:31Z</time>
      </trkpt>
      <trkpt lat="45.62671" lon="6.86704">
        <ele>1858.9</ele>
        <time>2016-05-06T14:22:33Z</time>
      </trkpt>
      <trkpt lat="45.62671" lon="6.86703">
        <ele>1858.8</ele>
        <time>2016-05-06T14:22:35Z</time>
      </trkpt>
      <trkpt lat="45.62671" lon="6.86703">
        <ele>1858.5</ele>
        <time>2016-05-06T14:22:37Z</time>
      </trkpt>
      <trkpt lat="45.62671" lon="6.86703">
        <ele>1858.4</ele>
        <time>2016-05-06T14:22:39Z</time>
      </trkpt>
      <trkpt lat="45.62671" lon="6.86703">
        <ele>1858.5</ele>
        <time>2016-05-06T14:22:41Z</time>
      </trkpt>
      <trkpt lat="45.62671" lon="6.86703">
        <ele>1858.6</ele>
        <time>2016-05-06T14:22:43Z</time>
      </trkpt>
      <trkpt lat="45.62671" lon="6.86703">
        <ele>1858.6</ele>
        <time>2016-05-06T14:22:45Z</time>
      </trkpt>
      <trkpt lat="45.6267" lon="6.86702">
        <ele>1858.7</ele>
        <time>2016-05-06T14:22:47Z</time>
      </trkpt>
      <trkpt lat="45.62671" lon="6.86702">
        <ele>1858.8</ele>
        <time>2016-05-06T14:22:49Z</time>
      </trkpt>
      <trkpt lat="45.62671" lon="6.86702">
        <ele>1858.8</ele>
        <time>2016-05-06T14:22:51Z</time>
      </trkpt>
      <trkpt lat="45.62671" lon="6.86702">
        <ele>1858.8</ele>
        <time>2016-05-06T14:22:53Z</time>
      </trkpt>
      <trkpt lat="45.62671" lon="6.86702">
        <ele>1858.8</ele>
        <time>2016-05-06T14:22:55Z</time>
      </trkpt>
      <trkpt lat="45.62671" lon="6.86702">
        <ele>1858.7</ele>
        <time>2016-05-06T14:22:57Z</time>
      </trkpt>
      <trkpt lat="45.6267" lon="6.86702">
        <ele>1858.7</ele>
        <time>2016-05-06T14:22:59Z</time>
      </trkpt>
      <trkpt lat="45.6267" lon="6.86702">
        <ele>1858.8</ele>
        <time>2016-05-06T14:23:01Z</time>
      </trkpt>
      <trkpt lat="45.6267" lon="6.86702">
        <ele>1858.8</ele>
        <time>2016-05-06T14:23:03Z</time>
      </trkpt>
      <trkpt lat="45.6267" lon="6.86702">
        <ele>1858.9</ele>
        <time>2016-05-06T14:23:05Z</time>
      </trkpt>
      <trkpt lat="45.6267" lon="6.86702">
        <ele>1858.8</ele>
        <time>2016-05-06T14:23:07Z</time>
      </trkpt>
      <trkpt lat="45.6267" lon="6.86702">
        <ele>1858.7</ele>
        <time>2016-05-06T14:23:09Z</time>
      </trkpt>
      <trkpt lat="45.6267" lon="6.86701">
        <ele>1858.9</ele>
        <time>2016-05-06T14:23:11Z</time>
      </trkpt>
      <trkpt lat="45.62671" lon="6.86701">
        <ele>1858.9</ele>
        <time>2016-05-06T14:23:13Z</time>
      </trkpt>
      <trkpt lat="45.62671" lon="6.86701">
        <ele>1858.9</ele>
        <time>2016-05-06T14:23:15Z</time>
      </trkpt>
      <trkpt lat="45.6267" lon="6.86701">
        <ele>1858.9</ele>
        <time>2016-05-06T14:23:17Z</time>
      </trkpt>
      <trkpt lat="45.6267" lon="6.86701">
        <ele>1859</ele>
        <time>2016-05-06T14:23:19Z</time>
      </trkpt>
      <trkpt lat="45.6267" lon="6.86701">
        <ele>1859.1</ele>
        <time>2016-05-06T14:23:21Z</time>
      </trkpt>
      <trkpt lat="45.6267" lon="6.86701">
        <ele>1859</ele>
        <time>2016-05-06T14:23:23Z</time>
      </trkpt>
      <trkpt lat="45.6267" lon="6.86702">
        <ele>1859</ele>
        <time>2016-05-06T14:23:25Z</time>
      </trkpt>
      <trkpt lat="45.6267" lon="6.86702">
        <ele>1859</ele>
        <time>2016-05-06T14:23:27Z</time>
      </trkpt>
      <trkpt lat="45.6267" lon="6.86702">
        <ele>1858.9</ele>
        <time>2016-05-06T14:23:29Z</time>
      </trkpt>
      <trkpt lat="45.6267" lon="6.86702">
        <ele>1858.9</ele>
        <time>2016-05-06T14:23:31Z</time>
      </trkpt>
      <trkpt lat="45.62669" lon="6.86702">
        <ele>1858.9</ele>
        <time>2016-05-06T14:23:33Z</time>
      </trkpt>
      <trkpt lat="45.62669" lon="6.86702">
        <ele>1859</ele>
        <time>2016-05-06T14:23:35Z</time>
      </trkpt>
      <trkpt lat="45.62669" lon="6.86702">
        <ele>1859</ele>
        <time>2016-05-06T14:23:37Z</time>
      </trkpt>
      <trkpt lat="45.62669" lon="6.86702">
        <ele>1859.1</ele>
        <time>2016-05-06T14:23:39Z</time>
      </trkpt>
      <trkpt lat="45.62669" lon="6.86702">
        <ele>1859.2</ele>
        <time>2016-05-06T14:23:41Z</time>
      </trkpt>
      <trkpt lat="45.62669" lon="6.86702">
        <ele>1859.3</ele>
        <time>2016-05-06T14:23:43Z</time>
      </trkpt>
      <trkpt lat="45.62668" lon="6.86702">
        <ele>1859.3</ele>
        <time>2016-05-06T14:23:45Z</time>
      </trkpt>
      <trkpt lat="45.62668" lon="6.86701">
        <ele>1859.3</ele>
        <time>2016-05-06T14:23:47Z</time>
      </trkpt>
      <trkpt lat="45.62668" lon="6.86701">
        <ele>1859.2</ele>
        <time>2016-05-06T14:23:49Z</time>
      </trkpt>
      <trkpt lat="45.62668" lon="6.86701">
        <ele>1859.2</ele>
        <time>2016-05-06T14:23:51Z</time>
      </trkpt>
      <trkpt lat="45.62668" lon="6.86701">
        <ele>1859.2</ele>
        <time>2016-05-06T14:23:53Z</time>
      </trkpt>
      <trkpt lat="45.62668" lon="6.86701">
        <ele>1859.2</ele>
        <time>2016-05-06T14:23:55Z</time>
      </trkpt>
      <trkpt lat="45.62668" lon="6.86702">
        <ele>1859.2</ele>
        <time>2016-05-06T14:23:57Z</time>
      </trkpt>
      <trkpt lat="45.62668" lon="6.86701">
        <ele>1859.1</ele>
        <time>2016-05-06T14:23:59Z</time>
      </trkpt>
      <trkpt lat="45.62668" lon="6.86701">
        <ele>1859.1</ele>
        <time>2016-05-06T14:24:01Z</time>
      </trkpt>
      <trkpt lat="45.62668" lon="6.86701">
        <ele>1858.9</ele>
        <time>2016-05-06T14:24:03Z</time>
      </trkpt>
      <trkpt lat="45.62668" lon="6.86701">
        <ele>1858.7</ele>
        <time>2016-05-06T14:24:05Z</time>
      </trkpt>
      <trkpt lat="45.62668" lon="6.86701">
        <ele>1858.8</ele>
        <time>2016-05-06T14:24:07Z</time>
      </trkpt>
      <trkpt lat="45.62668" lon="6.86701">
        <ele>1859</ele>
        <time>2016-05-06T14:24:09Z</time>
      </trkpt>
      <trkpt lat="45.62668" lon="6.867">
        <ele>1859.1</ele>
        <time>2016-05-06T14:24:11Z</time>
      </trkpt>
      <trkpt lat="45.62668" lon="6.867">
        <ele>1859.1</ele>
        <time>2016-05-06T14:24:13Z</time>
      </trkpt>
      <trkpt lat="45.62668" lon="6.867">
        <ele>1859.2</ele>
        <time>2016-05-06T14:24:15Z</time>
      </trkpt>
      <trkpt lat="45.62668" lon="6.867">
        <ele>1859.4</ele>
        <time>2016-05-06T14:24:17Z</time>
      </trkpt>
      <trkpt lat="45.62668" lon="6.867">
        <ele>1859.5</ele>
        <time>2016-05-06T14:24:19Z</time>
      </trkpt>
      <trkpt lat="45.62667" lon="6.867">
        <ele>1859.5</ele>
        <time>2016-05-06T14:24:21Z</time>
      </trkpt>
      <trkpt lat="45.62667" lon="6.86699">
        <ele>1859.5</ele>
        <time>2016-05-06T14:24:23Z</time>
      </trkpt>
      <trkpt lat="45.62667" lon="6.86699">
        <ele>1859.6</ele>
        <time>2016-05-06T14:24:25Z</time>
      </trkpt>
      <trkpt lat="45.62667" lon="6.86699">
        <ele>1859.6</ele>
        <time>2016-05-06T14:24:27Z</time>
      </trkpt>
      <trkpt lat="45.62668" lon="6.86699">
        <ele>1859.7</ele>
        <time>2016-05-06T14:24:29Z</time>
      </trkpt>
      <trkpt lat="45.62668" lon="6.86699">
        <ele>1859.5</ele>
        <time>2016-05-06T14:24:31Z</time>
      </trkpt>
      <trkpt lat="45.62668" lon="6.86699">
        <ele>1859.4</ele>
        <time>2016-05-06T14:24:33Z</time>
      </trkpt>
      <trkpt lat="45.62668" lon="6.86698">
        <ele>1859.4</ele>
        <time>2016-05-06T14:24:35Z</time>
      </trkpt>
      <trkpt lat="45.62669" lon="6.86698">
        <ele>1859.3</ele>
        <time>2016-05-06T14:24:37Z</time>
      </trkpt>
      <trkpt lat="45.6267" lon="6.86698">
        <ele>1859.3</ele>
        <time>2016-05-06T14:24:39Z</time>
      </trkpt>
      <trkpt lat="45.6267" lon="6.86698">
        <ele>1859.3</ele>
        <time>2016-05-06T14:24:41Z</time>
      </trkpt>
      <trkpt lat="45.6267" lon="6.86698">
        <ele>1859.2</ele>
        <time>2016-05-06T14:24:43Z</time>
      </trkpt>
      <trkpt lat="45.6267" lon="6.86698">
        <ele>1859.2</ele>
        <time>2016-05-06T14:24:45Z</time>
      </trkpt>
      <trkpt lat="45.6267" lon="6.86698">
        <ele>1859.2</ele>
        <time>2016-05-06T14:24:47Z</time>
      </trkpt>
      <trkpt lat="45.6267" lon="6.86698">
        <ele>1859.3</ele>
        <time>2016-05-06T14:24:49Z</time>
      </trkpt>
      <trkpt lat="45.6267" lon="6.86698">
        <ele>1859.3</ele>
        <time>2016-05-06T14:24:51Z</time>
      </trkpt>
      <trkpt lat="45.6267" lon="6.86699">
        <ele>1859.4</ele>
        <time>2016-05-06T14:24:53Z</time>
      </trkpt>
      <trkpt lat="45.6267" lon="6.86699">
        <ele>1859.3</ele>
        <time>2016-05-06T14:24:55Z</time>
      </trkpt>
      <trkpt lat="45.6267" lon="6.86699">
        <ele>1859.3</ele>
        <time>2016-05-06T14:24:57Z</time>
      </trkpt>
      <trkpt lat="45.62671" lon="6.86699">
        <ele>1859.5</ele>
        <time>2016-05-06T14:24:59Z</time>
      </trkpt>
      <trkpt lat="45.62671" lon="6.86699">
        <ele>1859.6</ele>
        <time>2016-05-06T14:25:01Z</time>
      </trkpt>
      <trkpt lat="45.62671" lon="6.86699">
        <ele>1859.7</ele>
        <time>2016-05-06T14:25:03Z</time>
      </trkpt>
      <trkpt lat="45.62672" lon="6.86699">
        <ele>1859.6</ele>
        <time>2016-05-06T14:25:05Z</time>
      </trkpt>
      <trkpt lat="45.62672" lon="6.86699">
        <ele>1859.6</ele>
        <time>2016-05-06T14:25:07Z</time>
      </trkpt>
      <trkpt lat="45.62672" lon="6.86699">
        <ele>1859.7</ele>
        <time>2016-05-06T14:25:09Z</time>
      </trkpt>
      <trkpt lat="45.62672" lon="6.86699">
        <ele>1859.8</ele>
        <time>2016-05-06T14:25:11Z</time>
      </trkpt>
      <trkpt lat="45.62672" lon="6.86699">
        <ele>1859.9</ele>
        <time>2016-05-06T14:25:13Z</time>
      </trkpt>
      <trkpt lat="45.62672" lon="6.86698">
        <ele>1859.9</ele>
        <time>2016-05-06T14:25:15Z</time>
      </trkpt>
      <trkpt lat="45.62672" lon="6.86698">
        <ele>1860</ele>
        <time>2016-05-06T14:25:17Z</time>
      </trkpt>
      <trkpt lat="45.62673" lon="6.86698">
        <ele>1860</ele>
        <time>2016-05-06T14:25:19Z</time>
      </trkpt>
      <trkpt lat="45.62673" lon="6.86698">
        <ele>1860.1</ele>
        <time>2016-05-06T14:25:21Z</time>
      </trkpt>
      <trkpt lat="45.62673" lon="6.86698">
        <ele>1860.1</ele>
        <time>2016-05-06T14:25:23Z</time>
      </trkpt>
      <trkpt lat="45.62673" lon="6.86698">
        <ele>1860.2</ele>
        <time>2016-05-06T14:25:25Z</time>
      </trkpt>
      <trkpt lat="45.62673" lon="6.86698">
        <ele>1860.2</ele>
        <time>2016-05-06T14:25:27Z</time>
      </trkpt>
      <trkpt lat="45.62673" lon="6.86698">
        <ele>1860.2</ele>
        <time>2016-05-06T14:25:29Z</time>
      </trkpt>
      <trkpt lat="45.62673" lon="6.86699">
        <ele>1860.1</ele>
        <time>2016-05-06T14:25:31Z</time>
      </trkpt>
      <trkpt lat="45.62673" lon="6.86699">
        <ele>1860</ele>
        <time>2016-05-06T14:25:33Z</time>
      </trkpt>
      <trkpt lat="45.62673" lon="6.86699">
        <ele>1859.8</ele>
        <time>2016-05-06T14:25:35Z</time>
      </trkpt>
      <trkpt lat="45.62673" lon="6.86699">
        <ele>1859.7</ele>
        <time>2016-05-06T14:25:37Z</time>
      </trkpt>
      <trkpt lat="45.62673" lon="6.86699">
        <ele>1859.6</ele>
        <time>2016-05-06T14:25:39Z</time>
      </trkpt>
      <trkpt lat="45.62673" lon="6.86699">
        <ele>1859.6</ele>
        <time>2016-05-06T14:25:41Z</time>
      </trkpt>
      <trkpt lat="45.62674" lon="6.86699">
        <ele>1859.5</ele>
        <time>2016-05-06T14:25:43Z</time>
      </trkpt>
      <trkpt lat="45.62674" lon="6.86699">
        <ele>1859.5</ele>
        <time>2016-05-06T14:25:45Z</time>
      </trkpt>
      <trkpt lat="45.62674" lon="6.86699">
        <ele>1859.4</ele>
        <time>2016-05-06T14:25:47Z</time>
      </trkpt>
      <trkpt lat="45.62674" lon="6.86699">
        <ele>1859.5</ele>
        <time>2016-05-06T14:25:49Z</time>
      </trkpt>
      <trkpt lat="45.62674" lon="6.86699">
        <ele>1859.6</ele>
        <time>2016-05-06T14:25:51Z</time>
      </trkpt>
      <trkpt lat="45.62674" lon="6.86699">
        <ele>1859.6</ele>
        <time>2016-05-06T14:25:53Z</time>
      </trkpt>
      <trkpt lat="45.62674" lon="6.86699">
        <ele>1859.7</ele>
        <time>2016-05-06T14:25:55Z</time>
      </trkpt>
      <trkpt lat="45.62674" lon="6.86698">
        <ele>1859.9</ele>
        <time>2016-05-06T14:25:57Z</time>
      </trkpt>
      <trkpt lat="45.62674" lon="6.86698">
        <ele>1860</ele>
        <time>2016-05-06T14:25:59Z</time>
      </trkpt>
      <trkpt lat="45.62675" lon="6.86698">
        <ele>1859.9</ele>
        <time>2016-05-06T14:26:01Z</time>
      </trkpt>
      <trkpt lat="45.62675" lon="6.86698">
        <ele>1859.7</ele>
        <time>2016-05-06T14:26:03Z</time>
      </trkpt>
      <trkpt lat="45.62675" lon="6.86698">
        <ele>1859.6</ele>
        <time>2016-05-06T14:26:05Z</time>
      </trkpt>
      <trkpt lat="45.62675" lon="6.86698">
        <ele>1859.5</ele>
        <time>2016-05-06T14:26:07Z</time>
      </trkpt>
      <trkpt lat="45.62675" lon="6.86698">
        <ele>1859.5</ele>
        <time>2016-05-06T14:26:09Z</time>
      </trkpt>
      <trkpt lat="45.62675" lon="6.86698">
        <ele>1859.5</ele>
        <time>2016-05-06T14:26:11Z</time>
      </trkpt>
      <trkpt lat="45.62675" lon="6.86698">
        <ele>1859.5</ele>
        <time>2016-05-06T14:26:13Z</time>
      </trkpt>
      <trkpt lat="45.62674" lon="6.86698">
        <ele>1859.5</ele>
        <time>2016-05-06T14:26:15Z</time>
      </trkpt>
      <trkpt lat="45.62675" lon="6.86698">
        <ele>1859.5</ele>
        <time>2016-05-06T14:26:17Z</time>
      </trkpt>
      <trkpt lat="45.62675" lon="6.86698">
        <ele>1859.6</ele>
        <time>2016-05-06T14:26:19Z</time>
      </trkpt>
      <trkpt lat="45.62675" lon="6.86698">
        <ele>1859.6</ele>
        <time>2016-05-06T14:26:21Z</time>
      </trkpt>
      <trkpt lat="45.62675" lon="6.86698">
        <ele>1859.6</ele>
        <time>2016-05-06T14:26:23Z</time>
      </trkpt>
      <trkpt lat="45.62675" lon="6.86698">
        <ele>1859.6</ele>
        <time>2016-05-06T14:26:25Z</time>
      </trkpt>
      <trkpt lat="45.62675" lon="6.86698">
        <ele>1859.5</ele>
        <time>2016-05-06T14:26:27Z</time>
      </trkpt>
      <trkpt lat="45.62675" lon="6.86698">
        <ele>1859.5</ele>
        <time>2016-05-06T14:26:29Z</time>
      </trkpt>
      <trkpt lat="45.62675" lon="6.86698">
        <ele>1859.5</ele>
        <time>2016-05-06T14:26:31Z</time>
      </trkpt>
      <trkpt lat="45.62675" lon="6.86698">
        <ele>1859.5</ele>
        <time>2016-05-06T14:26:33Z</time>
      </trkpt>
      <trkpt lat="45.62675" lon="6.86698">
        <ele>1859.5</ele>
        <time>2016-05-06T14:26:35Z</time>
      </trkpt>
      <trkpt lat="45.62675" lon="6.86698">
        <ele>1859.5</ele>
        <time>2016-05-06T14:26:37Z</time>
      </trkpt>
      <trkpt lat="45.62675" lon="6.86698">
        <ele>1859.5</ele>
        <time>2016-05-06T14:26:39Z</time>
      </trkpt>
      <trkpt lat="45.62675" lon="6.86698">
        <ele>1859.5</ele>
        <time>2016-05-06T14:26:41Z</time>
      </trkpt>
      <trkpt lat="45.62675" lon="6.86698">
        <ele>1859.5</ele>
        <time>2016-05-06T14:26:43Z</time>
      </trkpt>
      <trkpt lat="45.62675" lon="6.86698">
        <ele>1859.5</ele>
        <time>2016-05-06T14:26:45Z</time>
      </trkpt>
      <trkpt lat="45.62675" lon="6.86698">
        <ele>1859.4</ele>
        <time>2016-05-06T14:26:47Z</time>
      </trkpt>
      <trkpt lat="45.62675" lon="6.86698">
        <ele>1859.4</ele>
        <time>2016-05-06T14:26:49Z</time>
      </trkpt>
      <trkpt lat="45.62675" lon="6.86698">
        <ele>1859.4</ele>
        <time>2016-05-06T14:26:51Z</time>
      </trkpt>
      <trkpt lat="45.62675" lon="6.86698">
        <ele>1859.4</ele>
        <time>2016-05-06T14:26:53Z</time>
      </trkpt>
      <trkpt lat="45.62674" lon="6.86698">
        <ele>1859.4</ele>
        <time>2016-05-06T14:26:55Z</time>
      </trkpt>
      <trkpt lat="45.62674" lon="6.86698">
        <ele>1859.3</ele>
        <time>2016-05-06T14:26:57Z</time>
      </trkpt>
      <trkpt lat="45.62674" lon="6.86698">
        <ele>1859.3</ele>
        <time>2016-05-06T14:26:59Z</time>
      </trkpt>
      <trkpt lat="45.62674" lon="6.86699">
        <ele>1859.3</ele>
        <time>2016-05-06T14:27:01Z</time>
      </trkpt>
      <trkpt lat="45.62674" lon="6.86699">
        <ele>1859.3</ele>
        <time>2016-05-06T14:27:03Z</time>
      </trkpt>
      <trkpt lat="45.62675" lon="6.86698">
        <ele>1859.4</ele>
        <time>2016-05-06T14:27:05Z</time>
      </trkpt>
      <trkpt lat="45.62675" lon="6.86698">
        <ele>1859.4</ele>
        <time>2016-05-06T14:27:07Z</time>
      </trkpt>
      <trkpt lat="45.62675" lon="6.86698">
        <ele>1859.5</ele>
        <time>2016-05-06T14:27:09Z</time>
      </trkpt>
      <trkpt lat="45.62675" lon="6.86698">
        <ele>1859.6</ele>
        <time>2016-05-06T14:27:11Z</time>
      </trkpt>
      <trkpt lat="45.62674" lon="6.86698">
        <ele>1859.6</ele>
        <time>2016-05-06T14:27:13Z</time>
      </trkpt>
      <trkpt lat="45.62675" lon="6.86698">
        <ele>1859.6</ele>
        <time>2016-05-06T14:27:15Z</time>
      </trkpt>
      <trkpt lat="45.62675" lon="6.86698">
        <ele>1859.7</ele>
        <time>2016-05-06T14:27:17Z</time>
      </trkpt>
      <trkpt lat="45.62675" lon="6.86698">
        <ele>1859.8</ele>
        <time>2016-05-06T14:27:19Z</time>
      </trkpt>
      <trkpt lat="45.62675" lon="6.86698">
        <ele>1859.8</ele>
        <time>2016-05-06T14:27:21Z</time>
      </trkpt>
      <trkpt lat="45.62675" lon="6.86698">
        <ele>1859.8</ele>
        <time>2016-05-06T14:27:23Z</time>
      </trkpt>
      <trkpt lat="45.62675" lon="6.86698">
        <ele>1859.7</ele>
        <time>2016-05-06T14:27:25Z</time>
      </trkpt>
      <trkpt lat="45.62675" lon="6.86698">
        <ele>1859.6</ele>
        <time>2016-05-06T14:27:27Z</time>
      </trkpt>
      <trkpt lat="45.62675" lon="6.86698">
        <ele>1859.6</ele>
        <time>2016-05-06T14:27:29Z</time>
      </trkpt>
      <trkpt lat="45.62676" lon="6.86697">
        <ele>1859.6</ele>
        <time>2016-05-06T14:27:31Z</time>
      </trkpt>
      <trkpt lat="45.62676" lon="6.86697">
        <ele>1859.8</ele>
        <time>2016-05-06T14:27:33Z</time>
      </trkpt>
      <trkpt lat="45.62676" lon="6.86698">
        <ele>1859.8</ele>
        <time>2016-05-06T14:27:35Z</time>
      </trkpt>
      <trkpt lat="45.62676" lon="6.86698">
        <ele>1859.9</ele>
        <time>2016-05-06T14:27:37Z</time>
      </trkpt>
      <trkpt lat="45.62676" lon="6.86698">
        <ele>1859.9</ele>
        <time>2016-05-06T14:27:39Z</time>
      </trkpt>
      <trkpt lat="45.62676" lon="6.86698">
        <ele>1859.9</ele>
        <time>2016-05-06T14:27:41Z</time>
      </trkpt>
      <trkpt lat="45.62676" lon="6.86698">
        <ele>1859.9</ele>
        <time>2016-05-06T14:27:43Z</time>
      </trkpt>
      <trkpt lat="45.62677" lon="6.86697">
        <ele>1859.9</ele>
        <time>2016-05-06T14:27:45Z</time>
      </trkpt>
      <trkpt lat="45.62677" lon="6.86697">
        <ele>1859.7</ele>
        <time>2016-05-06T14:27:47Z</time>
      </trkpt>
      <trkpt lat="45.62677" lon="6.86697">
        <ele>1859.5</ele>
        <time>2016-05-06T14:27:49Z</time>
      </trkpt>
      <trkpt lat="45.62677" lon="6.86697">
        <ele>1859.5</ele>
        <time>2016-05-06T14:27:51Z</time>
      </trkpt>
      <trkpt lat="45.62677" lon="6.86697">
        <ele>1859.5</ele>
        <time>2016-05-06T14:27:53Z</time>
      </trkpt>
      <trkpt lat="45.62678" lon="6.86696">
        <ele>1859.5</ele>
        <time>2016-05-06T14:27:55Z</time>
      </trkpt>
      <trkpt lat="45.62678" lon="6.86696">
        <ele>1859.6</ele>
        <time>2016-05-06T14:27:57Z</time>
      </trkpt>
      <trkpt lat="45.62677" lon="6.86696">
        <ele>1859.7</ele>
        <time>2016-05-06T14:27:59Z</time>
      </trkpt>
      <trkpt lat="45.62678" lon="6.86696">
        <ele>1859.8</ele>
        <time>2016-05-06T14:28:01Z</time>
      </trkpt>
      <trkpt lat="45.62675" lon="6.86695">
        <ele>1860</ele>
        <time>2016-05-06T14:28:03Z</time>
      </trkpt>
      <trkpt lat="45.62675" lon="6.86695">
        <ele>1860</ele>
        <time>2016-05-06T14:28:05Z</time>
      </trkpt>
      <trkpt lat="45.62675" lon="6.86695">
        <ele>1860.2</ele>
        <time>2016-05-06T14:28:07Z</time>
      </trkpt>
      <trkpt lat="45.62676" lon="6.86696">
        <ele>1860.3</ele>
        <time>2016-05-06T14:28:09Z</time>
      </trkpt>
      <trkpt lat="45.62676" lon="6.86696">
        <ele>1860.3</ele>
        <time>2016-05-06T14:28:11Z</time>
      </trkpt>
      <trkpt lat="45.62676" lon="6.86696">
        <ele>1860.3</ele>
        <time>2016-05-06T14:28:13Z</time>
      </trkpt>
      <trkpt lat="45.62676" lon="6.86696">
        <ele>1860.3</ele>
        <time>2016-05-06T14:28:15Z</time>
      </trkpt>
      <trkpt lat="45.62676" lon="6.86697">
        <ele>1860.3</ele>
        <time>2016-05-06T14:28:17Z</time>
      </trkpt>
      <trkpt lat="45.62676" lon="6.86697">
        <ele>1860.1</ele>
        <time>2016-05-06T14:28:19Z</time>
      </trkpt>
      <trkpt lat="45.62676" lon="6.86697">
        <ele>1860</ele>
        <time>2016-05-06T14:28:21Z</time>
      </trkpt>
      <trkpt lat="45.62676" lon="6.86697">
        <ele>1860</ele>
        <time>2016-05-06T14:28:23Z</time>
      </trkpt>
      <trkpt lat="45.62677" lon="6.86698">
        <ele>1859.9</ele>
        <time>2016-05-06T14:28:25Z</time>
      </trkpt>
      <trkpt lat="45.62677" lon="6.86698">
        <ele>1859.8</ele>
        <time>2016-05-06T14:28:27Z</time>
      </trkpt>
      <trkpt lat="45.62677" lon="6.86698">
        <ele>1859.9</ele>
        <time>2016-05-06T14:28:29Z</time>
      </trkpt>
      <trkpt lat="45.62678" lon="6.86698">
        <ele>1859.8</ele>
        <time>2016-05-06T14:28:31Z</time>
      </trkpt>
      <trkpt lat="45.62678" lon="6.86698">
        <ele>1859.9</ele>
        <time>2016-05-06T14:28:33Z</time>
      </trkpt>
      <trkpt lat="45.62678" lon="6.86698">
        <ele>1859.4</ele>
        <time>2016-05-06T14:28:35Z</time>
      </trkpt>
      <trkpt lat="45.62676" lon="6.86698">
        <ele>1859.4</ele>
        <time>2016-05-06T14:28:37Z</time>
      </trkpt>
      <trkpt lat="45.62674" lon="6.86697">
        <ele>1859.5</ele>
        <time>2016-05-06T14:28:39Z</time>
      </trkpt>
      <trkpt lat="45.62675" lon="6.86697">
        <ele>1859.4</ele>
        <time>2016-05-06T14:28:41Z</time>
      </trkpt>
      <trkpt lat="45.62675" lon="6.86697">
        <ele>1859.4</ele>
        <time>2016-05-06T14:28:43Z</time>
      </trkpt>
      <trkpt lat="45.62675" lon="6.86696">
        <ele>1859.3</ele>
        <time>2016-05-06T14:28:45Z</time>
      </trkpt>
      <trkpt lat="45.62675" lon="6.86696">
        <ele>1859.3</ele>
        <time>2016-05-06T14:28:47Z</time>
      </trkpt>
      <trkpt lat="45.62674" lon="6.86695">
        <ele>1859.3</ele>
        <time>2016-05-06T14:28:49Z</time>
      </trkpt>
      <trkpt lat="45.62675" lon="6.86695">
        <ele>1859.3</ele>
        <time>2016-05-06T14:28:51Z</time>
      </trkpt>
      <trkpt lat="45.62675" lon="6.86695">
        <ele>1859.2</ele>
        <time>2016-05-06T14:28:53Z</time>
      </trkpt>
      <trkpt lat="45.62675" lon="6.86695">
        <ele>1859.2</ele>
        <time>2016-05-06T14:28:55Z</time>
      </trkpt>
      <trkpt lat="45.62673" lon="6.86693">
        <ele>1859.2</ele>
        <time>2016-05-06T14:28:57Z</time>
      </trkpt>
      <trkpt lat="45.62672" lon="6.86692">
        <ele>1859.2</ele>
        <time>2016-05-06T14:28:59Z</time>
      </trkpt>
      <trkpt lat="45.62672" lon="6.86692">
        <ele>1859.1</ele>
        <time>2016-05-06T14:29:01Z</time>
      </trkpt>
      <trkpt lat="45.62672" lon="6.86691">
        <ele>1859</ele>
        <time>2016-05-06T14:29:03Z</time>
      </trkpt>
      <trkpt lat="45.62672" lon="6.86691">
        <ele>1859</ele>
        <time>2016-05-06T14:29:05Z</time>
      </trkpt>
      <trkpt lat="45.62672" lon="6.86691">
        <ele>1859.1</ele>
        <time>2016-05-06T14:29:07Z</time>
      </trkpt>
      <trkpt lat="45.62672" lon="6.8669">
        <ele>1859.2</ele>
        <time>2016-05-06T14:29:09Z</time>
      </trkpt>
      <trkpt lat="45.62672" lon="6.8669">
        <ele>1859.3</ele>
        <time>2016-05-06T14:29:11Z</time>
      </trkpt>
      <trkpt lat="45.62673" lon="6.8669">
        <ele>1859.3</ele>
        <time>2016-05-06T14:29:13Z</time>
      </trkpt>
      <trkpt lat="45.62672" lon="6.8669">
        <ele>1859.4</ele>
        <time>2016-05-06T14:29:15Z</time>
      </trkpt>
      <trkpt lat="45.62672" lon="6.8669">
        <ele>1859.5</ele>
        <time>2016-05-06T14:29:17Z</time>
      </trkpt>
      <trkpt lat="45.62673" lon="6.8669">
        <ele>1859.4</ele>
        <time>2016-05-06T14:29:19Z</time>
      </trkpt>
      <trkpt lat="45.62673" lon="6.8669">
        <ele>1859.4</ele>
        <time>2016-05-06T14:29:21Z</time>
      </trkpt>
      <trkpt lat="45.62673" lon="6.8669">
        <ele>1859.4</ele>
        <time>2016-05-06T14:29:23Z</time>
      </trkpt>
      <trkpt lat="45.62672" lon="6.86691">
        <ele>1859.4</ele>
        <time>2016-05-06T14:29:25Z</time>
      </trkpt>
      <trkpt lat="45.62672" lon="6.86691">
        <ele>1859.5</ele>
        <time>2016-05-06T14:29:27Z</time>
      </trkpt>
      <trkpt lat="45.62672" lon="6.86691">
        <ele>1859.4</ele>
        <time>2016-05-06T14:29:29Z</time>
      </trkpt>
      <trkpt lat="45.62672" lon="6.86691">
        <ele>1859.3</ele>
        <time>2016-05-06T14:29:31Z</time>
      </trkpt>
      <trkpt lat="45.62673" lon="6.86691">
        <ele>1859.3</ele>
        <time>2016-05-06T14:29:33Z</time>
      </trkpt>
      <trkpt lat="45.62673" lon="6.86691">
        <ele>1859.3</ele>
        <time>2016-05-06T14:29:35Z</time>
      </trkpt>
      <trkpt lat="45.62673" lon="6.86691">
        <ele>1859.2</ele>
        <time>2016-05-06T14:29:37Z</time>
      </trkpt>
      <trkpt lat="45.62672" lon="6.86691">
        <ele>1859</ele>
        <time>2016-05-06T14:29:39Z</time>
      </trkpt>
      <trkpt lat="45.62672" lon="6.86691">
        <ele>1859</ele>
        <time>2016-05-06T14:29:41Z</time>
      </trkpt>
      <trkpt lat="45.62672" lon="6.86691">
        <ele>1859</ele>
        <time>2016-05-06T14:29:43Z</time>
      </trkpt>
      <trkpt lat="45.62672" lon="6.86691">
        <ele>1859</ele>
        <time>2016-05-06T14:29:45Z</time>
      </trkpt>
      <trkpt lat="45.62672" lon="6.86691">
        <ele>1859.1</ele>
        <time>2016-05-06T14:29:47Z</time>
      </trkpt>
      <trkpt lat="45.62672" lon="6.86691">
        <ele>1859.1</ele>
        <time>2016-05-06T14:29:49Z</time>
      </trkpt>
      <trkpt lat="45.62672" lon="6.86691">
        <ele>1859.1</ele>
        <time>2016-05-06T14:29:51Z</time>
      </trkpt>
      <trkpt lat="45.62672" lon="6.86691">
        <ele>1859.1</ele>
        <time>2016-05-06T14:29:53Z</time>
      </trkpt>
      <trkpt lat="45.62672" lon="6.86691">
        <ele>1859</ele>
        <time>2016-05-06T14:29:55Z</time>
      </trkpt>
      <trkpt lat="45.62672" lon="6.86691">
        <ele>1859.1</ele>
        <time>2016-05-06T14:29:57Z</time>
      </trkpt>
      <trkpt lat="45.62672" lon="6.86692">
        <ele>1858.9</ele>
        <time>2016-05-06T14:29:59Z</time>
      </trkpt>
      <trkpt lat="45.62673" lon="6.86692">
        <ele>1858.8</ele>
        <time>2016-05-06T14:30:01Z</time>
      </trkpt>
      <trkpt lat="45.62673" lon="6.86692">
        <ele>1858.8</ele>
        <time>2016-05-06T14:30:03Z</time>
      </trkpt>
      <trkpt lat="45.62673" lon="6.86692">
        <ele>1859</ele>
        <time>2016-05-06T14:30:05Z</time>
      </trkpt>
      <trkpt lat="45.62673" lon="6.86692">
        <ele>1859</ele>
        <time>2016-05-06T14:30:07Z</time>
      </trkpt>
      <trkpt lat="45.62674" lon="6.86692">
        <ele>1859</ele>
        <time>2016-05-06T14:30:09Z</time>
      </trkpt>
      <trkpt lat="45.62674" lon="6.86692">
        <ele>1859</ele>
        <time>2016-05-06T14:30:11Z</time>
      </trkpt>
      <trkpt lat="45.62673" lon="6.86692">
        <ele>1858.9</ele>
        <time>2016-05-06T14:30:13Z</time>
      </trkpt>
      <trkpt lat="45.62673" lon="6.86692">
        <ele>1858.9</ele>
        <time>2016-05-06T14:30:15Z</time>
      </trkpt>
      <trkpt lat="45.62673" lon="6.86692">
        <ele>1858.9</ele>
        <time>2016-05-06T14:30:17Z</time>
      </trkpt>
      <trkpt lat="45.62673" lon="6.86692">
        <ele>1859.1</ele>
        <time>2016-05-06T14:30:19Z</time>
      </trkpt>
      <trkpt lat="45.62674" lon="6.86692">
        <ele>1859.3</ele>
        <time>2016-05-06T14:30:21Z</time>
      </trkpt>
      <trkpt lat="45.62674" lon="6.86692">
        <ele>1859.4</ele>
        <time>2016-05-06T14:30:23Z</time>
      </trkpt>
      <trkpt lat="45.62674" lon="6.86692">
        <ele>1859.5</ele>
        <time>2016-05-06T14:30:25Z</time>
      </trkpt>
      <trkpt lat="45.62674" lon="6.86692">
        <ele>1859.5</ele>
        <time>2016-05-06T14:30:27Z</time>
      </trkpt>
      <trkpt lat="45.62674" lon="6.86692">
        <ele>1859.5</ele>
        <time>2016-05-06T14:30:29Z</time>
      </trkpt>
      <trkpt lat="45.62674" lon="6.86692">
        <ele>1859.5</ele>
        <time>2016-05-06T14:30:31Z</time>
      </trkpt>
      <trkpt lat="45.62674" lon="6.86692">
        <ele>1859.6</ele>
        <time>2016-05-06T14:30:33Z</time>
      </trkpt>
      <trkpt lat="45.62674" lon="6.86692">
        <ele>1859.6</ele>
        <time>2016-05-06T14:30:35Z</time>
      </trkpt>
      <trkpt lat="45.62674" lon="6.86693">
        <ele>1859.5</ele>
        <time>2016-05-06T14:30:37Z</time>
      </trkpt>
      <trkpt lat="45.62674" lon="6.86693">
        <ele>1859.4</ele>
        <time>2016-05-06T14:30:39Z</time>
      </trkpt>
      <trkpt lat="45.62674" lon="6.86693">
        <ele>1859.4</ele>
        <time>2016-05-06T14:30:41Z</time>
      </trkpt>
      <trkpt lat="45.62674" lon="6.86693">
        <ele>1859.4</ele>
        <time>2016-05-06T14:30:43Z</time>
      </trkpt>
      <trkpt lat="45.62674" lon="6.86693">
        <ele>1859.4</ele>
        <time>2016-05-06T14:30:45Z</time>
      </trkpt>
      <trkpt lat="45.62674" lon="6.86693">
        <ele>1859.5</ele>
        <time>2016-05-06T14:30:47Z</time>
      </trkpt>
      <trkpt lat="45.62674" lon="6.86693">
        <ele>1859.6</ele>
        <time>2016-05-06T14:30:49Z</time>
      </trkpt>
      <trkpt lat="45.62674" lon="6.86693">
        <ele>1859.6</ele>
        <time>2016-05-06T14:30:51Z</time>
      </trkpt>
      <trkpt lat="45.62674" lon="6.86694">
        <ele>1859.7</ele>
        <time>2016-05-06T14:30:53Z</time>
      </trkpt>
      <trkpt lat="45.62674" lon="6.86694">
        <ele>1859.6</ele>
        <time>2016-05-06T14:30:55Z</time>
      </trkpt>
      <trkpt lat="45.62674" lon="6.86694">
        <ele>1859.5</ele>
        <time>2016-05-06T14:30:57Z</time>
      </trkpt>
      <trkpt lat="45.62674" lon="6.86694">
        <ele>1859.4</ele>
        <time>2016-05-06T14:30:59Z</time>
      </trkpt>
      <trkpt lat="45.62674" lon="6.86694">
        <ele>1859.3</ele>
        <time>2016-05-06T14:31:01Z</time>
      </trkpt>
      <trkpt lat="45.62674" lon="6.86694">
        <ele>1859.3</ele>
        <time>2016-05-06T14:31:03Z</time>
      </trkpt>
      <trkpt lat="45.62674" lon="6.86694">
        <ele>1859.3</ele>
        <time>2016-05-06T14:31:05Z</time>
      </trkpt>
      <trkpt lat="45.62674" lon="6.86693">
        <ele>1859.3</ele>
        <time>2016-05-06T14:31:07Z</time>
      </trkpt>
      <trkpt lat="45.62675" lon="6.86692">
        <ele>1859.2</ele>
        <time>2016-05-06T14:31:09Z</time>
      </trkpt>
      <trkpt lat="45.62676" lon="6.86692">
        <ele>1858.9</ele>
        <time>2016-05-06T14:31:11Z</time>
      </trkpt>
      <trkpt lat="45.62676" lon="6.86691">
        <ele>1859</ele>
        <time>2016-05-06T14:31:13Z</time>
      </trkpt>
      <trkpt lat="45.62676" lon="6.86691">
        <ele>1859.1</ele>
        <time>2016-05-06T14:31:15Z</time>
      </trkpt>
      <trkpt lat="45.62676" lon="6.86691">
        <ele>1859.5</ele>
        <time>2016-05-06T14:31:17Z</time>
      </trkpt>
      <trkpt lat="45.62676" lon="6.8669">
        <ele>1859.6</ele>
        <time>2016-05-06T14:31:19Z</time>
      </trkpt>
      <trkpt lat="45.62676" lon="6.8669">
        <ele>1859.5</ele>
        <time>2016-05-06T14:31:21Z</time>
      </trkpt>
      <trkpt lat="45.62677" lon="6.86689">
        <ele>1859.4</ele>
        <time>2016-05-06T14:31:23Z</time>
      </trkpt>
      <trkpt lat="45.62677" lon="6.86689">
        <ele>1859.4</ele>
        <time>2016-05-06T14:31:25Z</time>
      </trkpt>
      <trkpt lat="45.62677" lon="6.86689">
        <ele>1859.5</ele>
        <time>2016-05-06T14:31:27Z</time>
      </trkpt>
      <trkpt lat="45.62677" lon="6.86689">
        <ele>1859.4</ele>
        <time>2016-05-06T14:31:29Z</time>
      </trkpt>
      <trkpt lat="45.62677" lon="6.86689">
        <ele>1859.4</ele>
        <time>2016-05-06T14:31:31Z</time>
      </trkpt>
      <trkpt lat="45.62677" lon="6.86689">
        <ele>1859.4</ele>
        <time>2016-05-06T14:31:33Z</time>
      </trkpt>
      <trkpt lat="45.62677" lon="6.86689">
        <ele>1859.7</ele>
        <time>2016-05-06T14:31:35Z</time>
      </trkpt>
      <trkpt lat="45.62677" lon="6.86689">
        <ele>1859.6</ele>
        <time>2016-05-06T14:31:37Z</time>
      </trkpt>
      <trkpt lat="45.62676" lon="6.86689">
        <ele>1859.5</ele>
        <time>2016-05-06T14:31:39Z</time>
      </trkpt>
      <trkpt lat="45.62676" lon="6.86689">
        <ele>1859.6</ele>
        <time>2016-05-06T14:31:41Z</time>
      </trkpt>
      <trkpt lat="45.62677" lon="6.8669">
        <ele>1859.7</ele>
        <time>2016-05-06T14:31:43Z</time>
      </trkpt>
      <trkpt lat="45.62677" lon="6.86689">
        <ele>1859.7</ele>
        <time>2016-05-06T14:31:45Z</time>
      </trkpt>
      <trkpt lat="45.62677" lon="6.8669">
        <ele>1859.7</ele>
        <time>2016-05-06T14:31:47Z</time>
      </trkpt>
      <trkpt lat="45.62676" lon="6.8669">
        <ele>1859.7</ele>
        <time>2016-05-06T14:31:49Z</time>
      </trkpt>
      <trkpt lat="45.62676" lon="6.8669">
        <ele>1859.8</ele>
        <time>2016-05-06T14:31:51Z</time>
      </trkpt>
      <trkpt lat="45.62676" lon="6.8669">
        <ele>1859.8</ele>
        <time>2016-05-06T14:31:53Z</time>
      </trkpt>
      <trkpt lat="45.62675" lon="6.8669">
        <ele>1859.8</ele>
        <time>2016-05-06T14:31:55Z</time>
      </trkpt>
      <trkpt lat="45.62674" lon="6.8669">
        <ele>1859.8</ele>
        <time>2016-05-06T14:31:57Z</time>
      </trkpt>
      <trkpt lat="45.62674" lon="6.8669">
        <ele>1859.9</ele>
        <time>2016-05-06T14:31:59Z</time>
      </trkpt>
      <trkpt lat="45.62674" lon="6.8669">
        <ele>1859.9</ele>
        <time>2016-05-06T14:32:01Z</time>
      </trkpt>
      <trkpt lat="45.62674" lon="6.86691">
        <ele>1860</ele>
        <time>2016-05-06T14:32:03Z</time>
      </trkpt>
      <trkpt lat="45.62673" lon="6.86691">
        <ele>1859.9</ele>
        <time>2016-05-06T14:32:05Z</time>
      </trkpt>
      <trkpt lat="45.62673" lon="6.86691">
        <ele>1859.9</ele>
        <time>2016-05-06T14:32:07Z</time>
      </trkpt>
      <trkpt lat="45.62673" lon="6.86691">
        <ele>1859.9</ele>
        <time>2016-05-06T14:32:09Z</time>
      </trkpt>
      <trkpt lat="45.62673" lon="6.86691">
        <ele>1859.9</ele>
        <time>2016-05-06T14:32:11Z</time>
      </trkpt>
      <trkpt lat="45.62673" lon="6.86691">
        <ele>1859.9</ele>
        <time>2016-05-06T14:32:13Z</time>
      </trkpt>
      <trkpt lat="45.62674" lon="6.8669">
        <ele>1859.8</ele>
        <time>2016-05-06T14:32:15Z</time>
      </trkpt>
      <trkpt lat="45.62674" lon="6.8669">
        <ele>1859.8</ele>
        <time>2016-05-06T14:32:17Z</time>
      </trkpt>
      <trkpt lat="45.62674" lon="6.86689">
        <ele>1859.8</ele>
        <time>2016-05-06T14:32:19Z</time>
      </trkpt>
      <trkpt lat="45.62675" lon="6.86689">
        <ele>1859.8</ele>
        <time>2016-05-06T14:32:21Z</time>
      </trkpt>
      <trkpt lat="45.62675" lon="6.86688">
        <ele>1859.9</ele>
        <time>2016-05-06T14:32:23Z</time>
      </trkpt>
      <trkpt lat="45.62676" lon="6.86688">
        <ele>1859.8</ele>
        <time>2016-05-06T14:32:25Z</time>
      </trkpt>
      <trkpt lat="45.62676" lon="6.86688">
        <ele>1859.7</ele>
        <time>2016-05-06T14:32:27Z</time>
      </trkpt>
      <trkpt lat="45.62677" lon="6.86687">
        <ele>1859.8</ele>
        <time>2016-05-06T14:32:29Z</time>
      </trkpt>
      <trkpt lat="45.62677" lon="6.86687">
        <ele>1859.8</ele>
        <time>2016-05-06T14:32:31Z</time>
      </trkpt>
      <trkpt lat="45.62678" lon="6.86687">
        <ele>1859.8</ele>
        <time>2016-05-06T14:32:33Z</time>
      </trkpt>
      <trkpt lat="45.62678" lon="6.86687">
        <ele>1859.6</ele>
        <time>2016-05-06T14:32:35Z</time>
      </trkpt>
      <trkpt lat="45.62678" lon="6.86687">
        <ele>1859.5</ele>
        <time>2016-05-06T14:32:37Z</time>
      </trkpt>
      <trkpt lat="45.62678" lon="6.86687">
        <ele>1859.4</ele>
        <time>2016-05-06T14:32:39Z</time>
      </trkpt>
      <trkpt lat="45.62678" lon="6.86686">
        <ele>1859.2</ele>
        <time>2016-05-06T14:32:41Z</time>
      </trkpt>
      <trkpt lat="45.62678" lon="6.86686">
        <ele>1859.1</ele>
        <time>2016-05-06T14:32:43Z</time>
      </trkpt>
      <trkpt lat="45.62678" lon="6.86686">
        <ele>1859.2</ele>
        <time>2016-05-06T14:32:45Z</time>
      </trkpt>
      <trkpt lat="45.62679" lon="6.86686">
        <ele>1859.2</ele>
        <time>2016-05-06T14:32:47Z</time>
      </trkpt>
      <trkpt lat="45.62679" lon="6.86686">
        <ele>1859.2</ele>
        <time>2016-05-06T14:32:49Z</time>
      </trkpt>
      <trkpt lat="45.62679" lon="6.86686">
        <ele>1859.3</ele>
        <time>2016-05-06T14:32:51Z</time>
      </trkpt>
      <trkpt lat="45.62679" lon="6.86686">
        <ele>1859.5</ele>
        <time>2016-05-06T14:32:53Z</time>
      </trkpt>
      <trkpt lat="45.62679" lon="6.86686">
        <ele>1859.5</ele>
        <time>2016-05-06T14:32:55Z</time>
      </trkpt>
      <trkpt lat="45.62679" lon="6.86686">
        <ele>1859.5</ele>
        <time>2016-05-06T14:32:57Z</time>
      </trkpt>
      <trkpt lat="45.62679" lon="6.86686">
        <ele>1859.4</ele>
        <time>2016-05-06T14:32:59Z</time>
      </trkpt>
      <trkpt lat="45.62679" lon="6.86687">
        <ele>1859.4</ele>
        <time>2016-05-06T14:33:01Z</time>
      </trkpt>
      <trkpt lat="45.62679" lon="6.86687">
        <ele>1859.4</ele>
        <time>2016-05-06T14:33:03Z</time>
      </trkpt>
      <trkpt lat="45.62679" lon="6.86687">
        <ele>1859.4</ele>
        <time>2016-05-06T14:33:05Z</time>
      </trkpt>
      <trkpt lat="45.62678" lon="6.86688">
        <ele>1859.4</ele>
        <time>2016-05-06T14:33:07Z</time>
      </trkpt>
      <trkpt lat="45.62678" lon="6.86688">
        <ele>1859.4</ele>
        <time>2016-05-06T14:33:09Z</time>
      </trkpt>
      <trkpt lat="45.62678" lon="6.86688">
        <ele>1859.5</ele>
        <time>2016-05-06T14:33:11Z</time>
      </trkpt>
      <trkpt lat="45.62678" lon="6.86689">
        <ele>1859.5</ele>
        <time>2016-05-06T14:33:13Z</time>
      </trkpt>
      <trkpt lat="45.62678" lon="6.86689">
        <ele>1859.8</ele>
        <time>2016-05-06T14:33:15Z</time>
      </trkpt>
      <trkpt lat="45.62678" lon="6.86689">
        <ele>1859.9</ele>
        <time>2016-05-06T14:33:17Z</time>
      </trkpt>
      <trkpt lat="45.62678" lon="6.86689">
        <ele>1859.9</ele>
        <time>2016-05-06T14:33:19Z</time>
      </trkpt>
      <trkpt lat="45.62677" lon="6.8669">
        <ele>1859.8</ele>
        <time>2016-05-06T14:33:21Z</time>
      </trkpt>
      <trkpt lat="45.62676" lon="6.8669">
        <ele>1859.7</ele>
        <time>2016-05-06T14:33:23Z</time>
      </trkpt>
      <trkpt lat="45.62676" lon="6.8669">
        <ele>1859.8</ele>
        <time>2016-05-06T14:33:25Z</time>
      </trkpt>
      <trkpt lat="45.62676" lon="6.8669">
        <ele>1859.8</ele>
        <time>2016-05-06T14:33:27Z</time>
      </trkpt>
      <trkpt lat="45.62676" lon="6.8669">
        <ele>1859.7</ele>
        <time>2016-05-06T14:33:29Z</time>
      </trkpt>
      <trkpt lat="45.62675" lon="6.8669">
        <ele>1859.6</ele>
        <time>2016-05-06T14:33:31Z</time>
      </trkpt>
      <trkpt lat="45.62675" lon="6.8669">
        <ele>1859.8</ele>
        <time>2016-05-06T14:33:33Z</time>
      </trkpt>
      <trkpt lat="45.62675" lon="6.8669">
        <ele>1860</ele>
        <time>2016-05-06T14:33:35Z</time>
      </trkpt>
      <trkpt lat="45.62675" lon="6.86689">
        <ele>1860.1</ele>
        <time>2016-05-06T14:33:37Z</time>
      </trkpt>
      <trkpt lat="45.62675" lon="6.86689">
        <ele>1860.1</ele>
        <time>2016-05-06T14:33:39Z</time>
      </trkpt>
      <trkpt lat="45.62674" lon="6.86689">
        <ele>1860</ele>
        <time>2016-05-06T14:33:41Z</time>
      </trkpt>
      <trkpt lat="45.62674" lon="6.86689">
        <ele>1859.9</ele>
        <time>2016-05-06T14:33:43Z</time>
      </trkpt>
      <trkpt lat="45.62674" lon="6.86689">
        <ele>1859.9</ele>
        <time>2016-05-06T14:33:45Z</time>
      </trkpt>
      <trkpt lat="45.62673" lon="6.8669">
        <ele>1859.9</ele>
        <time>2016-05-06T14:33:47Z</time>
      </trkpt>
      <trkpt lat="45.62673" lon="6.8669">
        <ele>1859.9</ele>
        <time>2016-05-06T14:33:49Z</time>
      </trkpt>
      <trkpt lat="45.62673" lon="6.86691">
        <ele>1859.7</ele>
        <time>2016-05-06T14:33:51Z</time>
      </trkpt>
      <trkpt lat="45.62673" lon="6.86691">
        <ele>1859.6</ele>
        <time>2016-05-06T14:33:53Z</time>
      </trkpt>
      <trkpt lat="45.62672" lon="6.86691">
        <ele>1859.7</ele>
        <time>2016-05-06T14:33:55Z</time>
      </trkpt>
      <trkpt lat="45.62672" lon="6.86692">
        <ele>1859.7</ele>
        <time>2016-05-06T14:33:57Z</time>
      </trkpt>
      <trkpt lat="45.62672" lon="6.86692">
        <ele>1859.6</ele>
        <time>2016-05-06T14:33:59Z</time>
      </trkpt>
      <trkpt lat="45.62672" lon="6.86692">
        <ele>1859.6</ele>
        <time>2016-05-06T14:34:01Z</time>
      </trkpt>
      <trkpt lat="45.62672" lon="6.86692">
        <ele>1859.7</ele>
        <time>2016-05-06T14:34:03Z</time>
      </trkpt>
      <trkpt lat="45.62672" lon="6.86692">
        <ele>1859.5</ele>
        <time>2016-05-06T14:34:05Z</time>
      </trkpt>
      <trkpt lat="45.62672" lon="6.86692">
        <ele>1859.5</ele>
        <time>2016-05-06T14:34:07Z</time>
      </trkpt>
      <trkpt lat="45.62672" lon="6.86693">
        <ele>1859.5</ele>
        <time>2016-05-06T14:34:09Z</time>
      </trkpt>
      <trkpt lat="45.62672" lon="6.86693">
        <ele>1859.6</ele>
        <time>2016-05-06T14:34:11Z</time>
      </trkpt>
      <trkpt lat="45.62672" lon="6.86693">
        <ele>1859.6</ele>
        <time>2016-05-06T14:34:13Z</time>
      </trkpt>
      <trkpt lat="45.62672" lon="6.86693">
        <ele>1859.7</ele>
        <time>2016-05-06T14:34:15Z</time>
      </trkpt>
      <trkpt lat="45.62673" lon="6.86693">
        <ele>1859.6</ele>
        <time>2016-05-06T14:34:17Z</time>
      </trkpt>
      <trkpt lat="45.62673" lon="6.86694">
        <ele>1859.6</ele>
        <time>2016-05-06T14:34:19Z</time>
      </trkpt>
      <trkpt lat="45.62673" lon="6.86694">
        <ele>1859.6</ele>
        <time>2016-05-06T14:34:21Z</time>
      </trkpt>
      <trkpt lat="45.62673" lon="6.86694">
        <ele>1859.6</ele>
        <time>2016-05-06T14:34:23Z</time>
      </trkpt>
      <trkpt lat="45.62673" lon="6.86695">
        <ele>1859.6</ele>
        <time>2016-05-06T14:34:25Z</time>
      </trkpt>
      <trkpt lat="45.62673" lon="6.86695">
        <ele>1859.7</ele>
        <time>2016-05-06T14:34:27Z</time>
      </trkpt>
      <trkpt lat="45.62674" lon="6.86695">
        <ele>1859.7</ele>
        <time>2016-05-06T14:34:29Z</time>
      </trkpt>
      <trkpt lat="45.62674" lon="6.86695">
        <ele>1859.7</ele>
        <time>2016-05-06T14:34:31Z</time>
      </trkpt>
      <trkpt lat="45.62674" lon="6.86695">
        <ele>1859.7</ele>
        <time>2016-05-06T14:34:33Z</time>
      </trkpt>
      <trkpt lat="45.62675" lon="6.86695">
        <ele>1859.7</ele>
        <time>2016-05-06T14:34:35Z</time>
      </trkpt>
      <trkpt lat="45.62675" lon="6.86695">
        <ele>1859.8</ele>
        <time>2016-05-06T14:34:37Z</time>
      </trkpt>
      <trkpt lat="45.62675" lon="6.86695">
        <ele>1859.8</ele>
        <time>2016-05-06T14:34:39Z</time>
      </trkpt>
      <trkpt lat="45.62675" lon="6.86695">
        <ele>1859.8</ele>
        <time>2016-05-06T14:34:41Z</time>
      </trkpt>
      <trkpt lat="45.62675" lon="6.86695">
        <ele>1859.7</ele>
        <time>2016-05-06T14:34:43Z</time>
      </trkpt>
      <trkpt lat="45.62675" lon="6.86695">
        <ele>1859.7</ele>
        <time>2016-05-06T14:34:45Z</time>
      </trkpt>
      <trkpt lat="45.62675" lon="6.86695">
        <ele>1859.8</ele>
        <time>2016-05-06T14:34:47Z</time>
      </trkpt>
      <trkpt lat="45.62675" lon="6.86694">
        <ele>1859.8</ele>
        <time>2016-05-06T14:34:49Z</time>
      </trkpt>
      <trkpt lat="45.62675" lon="6.86694">
        <ele>1859.8</ele>
        <time>2016-05-06T14:34:51Z</time>
      </trkpt>
      <trkpt lat="45.62675" lon="6.86694">
        <ele>1859.7</ele>
        <time>2016-05-06T14:34:53Z</time>
      </trkpt>
      <trkpt lat="45.62675" lon="6.86695">
        <ele>1859.7</ele>
        <time>2016-05-06T14:34:55Z</time>
      </trkpt>
      <trkpt lat="45.62675" lon="6.86695">
        <ele>1859.7</ele>
        <time>2016-05-06T14:34:57Z</time>
      </trkpt>
      <trkpt lat="45.62675" lon="6.86695">
        <ele>1859.6</ele>
        <time>2016-05-06T14:34:59Z</time>
      </trkpt>
      <trkpt lat="45.62675" lon="6.86695">
        <ele>1859.6</ele>
        <time>2016-05-06T14:35:01Z</time>
      </trkpt>
      <trkpt lat="45.62675" lon="6.86695">
        <ele>1859.7</ele>
        <time>2016-05-06T14:35:03Z</time>
      </trkpt>
      <trkpt lat="45.62675" lon="6.86694">
        <ele>1859.9</ele>
        <time>2016-05-06T14:35:05Z</time>
      </trkpt>
      <trkpt lat="45.62675" lon="6.86694">
        <ele>1860</ele>
        <time>2016-05-06T14:35:07Z</time>
      </trkpt>
      <trkpt lat="45.62675" lon="6.86694">
        <ele>1859.7</ele>
        <time>2016-05-06T14:35:09Z</time>
      </trkpt>
      <trkpt lat="45.62676" lon="6.86693">
        <ele>1859.5</ele>
        <time>2016-05-06T14:35:11Z</time>
      </trkpt>
      <trkpt lat="45.62676" lon="6.86693">
        <ele>1859.5</ele>
        <time>2016-05-06T14:35:13Z</time>
      </trkpt>
      <trkpt lat="45.62676" lon="6.86693">
        <ele>1859.7</ele>
        <time>2016-05-06T14:35:15Z</time>
      </trkpt>
      <trkpt lat="45.62676" lon="6.86693">
        <ele>1859.7</ele>
        <time>2016-05-06T14:35:17Z</time>
      </trkpt>
      <trkpt lat="45.62676" lon="6.86693">
        <ele>1859.7</ele>
        <time>2016-05-06T14:35:19Z</time>
      </trkpt>
      <trkpt lat="45.62676" lon="6.86694">
        <ele>1859.8</ele>
        <time>2016-05-06T14:35:21Z</time>
      </trkpt>
      <trkpt lat="45.62676" lon="6.86694">
        <ele>1859.9</ele>
        <time>2016-05-06T14:35:23Z</time>
      </trkpt>
      <trkpt lat="45.62676" lon="6.86694">
        <ele>1860</ele>
        <time>2016-05-06T14:35:25Z</time>
      </trkpt>
      <trkpt lat="45.62676" lon="6.86694">
        <ele>1860.1</ele>
        <time>2016-05-06T14:35:27Z</time>
      </trkpt>
      <trkpt lat="45.62676" lon="6.86694">
        <ele>1860.2</ele>
        <time>2016-05-06T14:35:29Z</time>
      </trkpt>
      <trkpt lat="45.62676" lon="6.86694">
        <ele>1860.1</ele>
        <time>2016-05-06T14:35:31Z</time>
      </trkpt>
      <trkpt lat="45.62677" lon="6.86694">
        <ele>1860</ele>
        <time>2016-05-06T14:35:33Z</time>
      </trkpt>
      <trkpt lat="45.62677" lon="6.86694">
        <ele>1860.1</ele>
        <time>2016-05-06T14:35:35Z</time>
      </trkpt>
      <trkpt lat="45.62677" lon="6.86694">
        <ele>1860.2</ele>
        <time>2016-05-06T14:35:37Z</time>
      </trkpt>
      <trkpt lat="45.62677" lon="6.86694">
        <ele>1860.2</ele>
        <time>2016-05-06T14:35:39Z</time>
      </trkpt>
      <trkpt lat="45.62677" lon="6.86694">
        <ele>1860.2</ele>
        <time>2016-05-06T14:35:41Z</time>
      </trkpt>
      <trkpt lat="45.62677" lon="6.86694">
        <ele>1860.1</ele>
        <time>2016-05-06T14:35:43Z</time>
      </trkpt>
      <trkpt lat="45.62677" lon="6.86694">
        <ele>1860</ele>
        <time>2016-05-06T14:35:45Z</time>
      </trkpt>
      <trkpt lat="45.62676" lon="6.86695">
        <ele>1860.1</ele>
        <time>2016-05-06T14:35:47Z</time>
      </trkpt>
      <trkpt lat="45.62676" lon="6.86695">
        <ele>1860.2</ele>
        <time>2016-05-06T14:35:49Z</time>
      </trkpt>
      <trkpt lat="45.62676" lon="6.86695">
        <ele>1860.4</ele>
        <time>2016-05-06T14:35:51Z</time>
      </trkpt>
      <trkpt lat="45.62676" lon="6.86695">
        <ele>1860.4</ele>
        <time>2016-05-06T14:35:53Z</time>
      </trkpt>
      <trkpt lat="45.62675" lon="6.86695">
        <ele>1860.4</ele>
        <time>2016-05-06T14:35:55Z</time>
      </trkpt>
      <trkpt lat="45.62675" lon="6.86695">
        <ele>1860.4</ele>
        <time>2016-05-06T14:35:57Z</time>
      </trkpt>
      <trkpt lat="45.62675" lon="6.86695">
        <ele>1860.5</ele>
        <time>2016-05-06T14:35:59Z</time>
      </trkpt>
      <trkpt lat="45.62675" lon="6.86695">
        <ele>1860.7</ele>
        <time>2016-05-06T14:36:01Z</time>
      </trkpt>
      <trkpt lat="45.62674" lon="6.86695">
        <ele>1860.8</ele>
        <time>2016-05-06T14:36:03Z</time>
      </trkpt>
      <trkpt lat="45.62674" lon="6.86695">
        <ele>1860.7</ele>
        <time>2016-05-06T14:36:05Z</time>
      </trkpt>
      <trkpt lat="45.62674" lon="6.86695">
        <ele>1860.5</ele>
        <time>2016-05-06T14:36:07Z</time>
      </trkpt>
      <trkpt lat="45.62674" lon="6.86695">
        <ele>1860.5</ele>
        <time>2016-05-06T14:36:09Z</time>
      </trkpt>
      <trkpt lat="45.62674" lon="6.86695">
        <ele>1860.7</ele>
        <time>2016-05-06T14:36:11Z</time>
      </trkpt>
      <trkpt lat="45.62673" lon="6.86695">
        <ele>1860.7</ele>
        <time>2016-05-06T14:36:13Z</time>
      </trkpt>
      <trkpt lat="45.62673" lon="6.86695">
        <ele>1860.6</ele>
        <time>2016-05-06T14:36:15Z</time>
      </trkpt>
      <trkpt lat="45.62673" lon="6.86695">
        <ele>1860.5</ele>
        <time>2016-05-06T14:36:17Z</time>
      </trkpt>
      <trkpt lat="45.62673" lon="6.86695">
        <ele>1860.5</ele>
        <time>2016-05-06T14:36:19Z</time>
      </trkpt>
      <trkpt lat="45.62673" lon="6.86695">
        <ele>1860.5</ele>
        <time>2016-05-06T14:36:21Z</time>
      </trkpt>
      <trkpt lat="45.62672" lon="6.86695">
        <ele>1860.5</ele>
        <time>2016-05-06T14:36:23Z</time>
      </trkpt>
      <trkpt lat="45.62672" lon="6.86695">
        <ele>1860.4</ele>
        <time>2016-05-06T14:36:25Z</time>
      </trkpt>
      <trkpt lat="45.62672" lon="6.86695">
        <ele>1860.4</ele>
        <time>2016-05-06T14:36:27Z</time>
      </trkpt>
      <trkpt lat="45.62672" lon="6.86695">
        <ele>1860.5</ele>
        <time>2016-05-06T14:36:29Z</time>
      </trkpt>
      <trkpt lat="45.62672" lon="6.86695">
        <ele>1860.6</ele>
        <time>2016-05-06T14:36:31Z</time>
      </trkpt>
      <trkpt lat="45.62672" lon="6.86695">
        <ele>1860.6</ele>
        <time>2016-05-06T14:36:33Z</time>
      </trkpt>
      <trkpt lat="45.62672" lon="6.86695">
        <ele>1860.4</ele>
        <time>2016-05-06T14:36:35Z</time>
      </trkpt>
      <trkpt lat="45.62672" lon="6.86695">
        <ele>1860.4</ele>
        <time>2016-05-06T14:36:37Z</time>
      </trkpt>
      <trkpt lat="45.62672" lon="6.86694">
        <ele>1860.4</ele>
        <time>2016-05-06T14:36:39Z</time>
      </trkpt>
      <trkpt lat="45.62672" lon="6.86694">
        <ele>1860.2</ele>
        <time>2016-05-06T14:36:41Z</time>
      </trkpt>
      <trkpt lat="45.62671" lon="6.86694">
        <ele>1860.2</ele>
        <time>2016-05-06T14:36:43Z</time>
      </trkpt>
      <trkpt lat="45.62671" lon="6.86694">
        <ele>1860.2</ele>
        <time>2016-05-06T14:36:45Z</time>
      </trkpt>
      <trkpt lat="45.62671" lon="6.86694">
        <ele>1860.4</ele>
        <time>2016-05-06T14:36:47Z</time>
      </trkpt>
      <trkpt lat="45.62671" lon="6.86694">
        <ele>1860.6</ele>
        <time>2016-05-06T14:36:49Z</time>
      </trkpt>
      <trkpt lat="45.6267" lon="6.86694">
        <ele>1860.7</ele>
        <time>2016-05-06T14:36:51Z</time>
      </trkpt>
      <trkpt lat="45.6267" lon="6.86694">
        <ele>1860.6</ele>
        <time>2016-05-06T14:36:53Z</time>
      </trkpt>
      <trkpt lat="45.6267" lon="6.86694">
        <ele>1860.4</ele>
        <time>2016-05-06T14:36:55Z</time>
      </trkpt>
      <trkpt lat="45.6267" lon="6.86694">
        <ele>1860.5</ele>
        <time>2016-05-06T14:36:57Z</time>
      </trkpt>
      <trkpt lat="45.6267" lon="6.86694">
        <ele>1860.6</ele>
        <time>2016-05-06T14:36:59Z</time>
      </trkpt>
      <trkpt lat="45.6267" lon="6.86694">
        <ele>1860.7</ele>
        <time>2016-05-06T14:37:01Z</time>
      </trkpt>
      <trkpt lat="45.6267" lon="6.86693">
        <ele>1860.6</ele>
        <time>2016-05-06T14:37:03Z</time>
      </trkpt>
      <trkpt lat="45.6267" lon="6.86693">
        <ele>1860.6</ele>
        <time>2016-05-06T14:37:05Z</time>
      </trkpt>
      <trkpt lat="45.6267" lon="6.86693">
        <ele>1860.5</ele>
        <time>2016-05-06T14:37:07Z</time>
      </trkpt>
      <trkpt lat="45.62671" lon="6.86693">
        <ele>1860.6</ele>
        <time>2016-05-06T14:37:09Z</time>
      </trkpt>
      <trkpt lat="45.62671" lon="6.86693">
        <ele>1860.6</ele>
        <time>2016-05-06T14:37:11Z</time>
      </trkpt>
      <trkpt lat="45.62671" lon="6.86692">
        <ele>1860.6</ele>
        <time>2016-05-06T14:37:13Z</time>
      </trkpt>
      <trkpt lat="45.62671" lon="6.86692">
        <ele>1860.7</ele>
        <time>2016-05-06T14:37:15Z</time>
      </trkpt>
      <trkpt lat="45.62671" lon="6.86692">
        <ele>1860.6</ele>
        <time>2016-05-06T14:37:17Z</time>
      </trkpt>
      <trkpt lat="45.62671" lon="6.86692">
        <ele>1860.5</ele>
        <time>2016-05-06T14:37:19Z</time>
      </trkpt>
      <trkpt lat="45.62671" lon="6.86692">
        <ele>1860.5</ele>
        <time>2016-05-06T14:37:21Z</time>
      </trkpt>
      <trkpt lat="45.62671" lon="6.86691">
        <ele>1860.4</ele>
        <time>2016-05-06T14:37:23Z</time>
      </trkpt>
      <trkpt lat="45.62671" lon="6.86691">
        <ele>1860.4</ele>
        <time>2016-05-06T14:37:25Z</time>
      </trkpt>
      <trkpt lat="45.62671" lon="6.86691">
        <ele>1860.4</ele>
        <time>2016-05-06T14:37:27Z</time>
      </trkpt>
      <trkpt lat="45.62671" lon="6.86691">
        <ele>1860.3</ele>
        <time>2016-05-06T14:37:29Z</time>
      </trkpt>
      <trkpt lat="45.62671" lon="6.86691">
        <ele>1860.3</ele>
        <time>2016-05-06T14:37:31Z</time>
      </trkpt>
      <trkpt lat="45.62671" lon="6.86691">
        <ele>1860.3</ele>
        <time>2016-05-06T14:37:33Z</time>
      </trkpt>
      <trkpt lat="45.62671" lon="6.86691">
        <ele>1860.5</ele>
        <time>2016-05-06T14:37:35Z</time>
      </trkpt>
      <trkpt lat="45.62671" lon="6.86691">
        <ele>1860.5</ele>
        <time>2016-05-06T14:37:37Z</time>
      </trkpt>
      <trkpt lat="45.62671" lon="6.86691">
        <ele>1860.5</ele>
        <time>2016-05-06T14:37:39Z</time>
      </trkpt>
      <trkpt lat="45.62671" lon="6.86691">
        <ele>1860.3</ele>
        <time>2016-05-06T14:37:41Z</time>
      </trkpt>
      <trkpt lat="45.62671" lon="6.86691">
        <ele>1860.2</ele>
        <time>2016-05-06T14:37:43Z</time>
      </trkpt>
      <trkpt lat="45.62671" lon="6.86691">
        <ele>1859.6</ele>
        <time>2016-05-06T14:37:45Z</time>
      </trkpt>
      <trkpt lat="45.62671" lon="6.86691">
        <ele>1859.7</ele>
        <time>2016-05-06T14:37:47Z</time>
      </trkpt>
      <trkpt lat="45.62671" lon="6.86691">
        <ele>1859.7</ele>
        <time>2016-05-06T14:37:49Z</time>
      </trkpt>
      <trkpt lat="45.62671" lon="6.86691">
        <ele>1859.7</ele>
        <time>2016-05-06T14:37:51Z</time>
      </trkpt>
      <trkpt lat="45.62671" lon="6.86691">
        <ele>1859.7</ele>
        <time>2016-05-06T14:37:53Z</time>
      </trkpt>
      <trkpt lat="45.62671" lon="6.8669">
        <ele>1859.6</ele>
        <time>2016-05-06T14:37:55Z</time>
      </trkpt>
      <trkpt lat="45.62671" lon="6.8669">
        <ele>1859.9</ele>
        <time>2016-05-06T14:37:57Z</time>
      </trkpt>
      <trkpt lat="45.62671" lon="6.8669">
        <ele>1860.1</ele>
        <time>2016-05-06T14:37:59Z</time>
      </trkpt>
      <trkpt lat="45.62671" lon="6.8669">
        <ele>1859.9</ele>
        <time>2016-05-06T14:38:01Z</time>
      </trkpt>
      <trkpt lat="45.62671" lon="6.86689">
        <ele>1859.7</ele>
        <time>2016-05-06T14:38:03Z</time>
      </trkpt>
      <trkpt lat="45.62671" lon="6.86689">
        <ele>1859.6</ele>
        <time>2016-05-06T14:38:05Z</time>
      </trkpt>
      <trkpt lat="45.62671" lon="6.86689">
        <ele>1859.5</ele>
        <time>2016-05-06T14:38:07Z</time>
      </trkpt>
      <trkpt lat="45.62671" lon="6.86689">
        <ele>1859.8</ele>
        <time>2016-05-06T14:38:09Z</time>
      </trkpt>
      <trkpt lat="45.62671" lon="6.86689">
        <ele>1859.9</ele>
        <time>2016-05-06T14:38:11Z</time>
      </trkpt>
      <trkpt lat="45.62671" lon="6.86689">
        <ele>1860.1</ele>
        <time>2016-05-06T14:38:13Z</time>
      </trkpt>
      <trkpt lat="45.62671" lon="6.86688">
        <ele>1860.3</ele>
        <time>2016-05-06T14:38:15Z</time>
      </trkpt>
      <trkpt lat="45.62671" lon="6.86688">
        <ele>1860.5</ele>
        <time>2016-05-06T14:38:17Z</time>
      </trkpt>
      <trkpt lat="45.62671" lon="6.86688">
        <ele>1860.6</ele>
        <time>2016-05-06T14:38:19Z</time>
      </trkpt>
      <trkpt lat="45.62671" lon="6.86688">
        <ele>1860.8</ele>
        <time>2016-05-06T14:38:21Z</time>
      </trkpt>
      <trkpt lat="45.6267" lon="6.86688">
        <ele>1860.9</ele>
        <time>2016-05-06T14:38:23Z</time>
      </trkpt>
      <trkpt lat="45.62671" lon="6.86688">
        <ele>1860.9</ele>
        <time>2016-05-06T14:38:25Z</time>
      </trkpt>
      <trkpt lat="45.62671" lon="6.86688">
        <ele>1860.7</ele>
        <time>2016-05-06T14:38:27Z</time>
      </trkpt>
      <trkpt lat="45.6267" lon="6.86688">
        <ele>1860.8</ele>
        <time>2016-05-06T14:38:29Z</time>
      </trkpt>
      <trkpt lat="45.6267" lon="6.86688">
        <ele>1860.9</ele>
        <time>2016-05-06T14:38:31Z</time>
      </trkpt>
      <trkpt lat="45.6267" lon="6.86688">
        <ele>1861.1</ele>
        <time>2016-05-06T14:38:33Z</time>
      </trkpt>
      <trkpt lat="45.6267" lon="6.86688">
        <ele>1861.4</ele>
        <time>2016-05-06T14:38:35Z</time>
      </trkpt>
      <trkpt lat="45.6267" lon="6.86688">
        <ele>1861.4</ele>
        <time>2016-05-06T14:38:37Z</time>
      </trkpt>
      <trkpt lat="45.6267" lon="6.86688">
        <ele>1861.5</ele>
        <time>2016-05-06T14:38:39Z</time>
      </trkpt>
      <trkpt lat="45.62669" lon="6.86688">
        <ele>1861.5</ele>
        <time>2016-05-06T14:38:41Z</time>
      </trkpt>
      <trkpt lat="45.62669" lon="6.86688">
        <ele>1861.5</ele>
        <time>2016-05-06T14:38:43Z</time>
      </trkpt>
      <trkpt lat="45.62669" lon="6.86688">
        <ele>1861.6</ele>
        <time>2016-05-06T14:38:45Z</time>
      </trkpt>
      <trkpt lat="45.62669" lon="6.86688">
        <ele>1861.6</ele>
        <time>2016-05-06T14:38:47Z</time>
      </trkpt>
      <trkpt lat="45.62669" lon="6.86687">
        <ele>1861.6</ele>
        <time>2016-05-06T14:38:49Z</time>
      </trkpt>
      <trkpt lat="45.62669" lon="6.86687">
        <ele>1861.6</ele>
        <time>2016-05-06T14:38:51Z</time>
      </trkpt>
      <trkpt lat="45.62668" lon="6.86687">
        <ele>1861.5</ele>
        <time>2016-05-06T14:38:53Z</time>
      </trkpt>
      <trkpt lat="45.62668" lon="6.86687">
        <ele>1861.5</ele>
        <time>2016-05-06T14:38:55Z</time>
      </trkpt>
      <trkpt lat="45.62668" lon="6.86687">
        <ele>1861.6</ele>
        <time>2016-05-06T14:38:57Z</time>
      </trkpt>
      <trkpt lat="45.62669" lon="6.86688">
        <ele>1861.7</ele>
        <time>2016-05-06T14:38:59Z</time>
      </trkpt>
      <trkpt lat="45.62669" lon="6.86688">
        <ele>1861.6</ele>
        <time>2016-05-06T14:39:01Z</time>
      </trkpt>
      <trkpt lat="45.62669" lon="6.86689">
        <ele>1861.5</ele>
        <time>2016-05-06T14:39:03Z</time>
      </trkpt>
      <trkpt lat="45.62669" lon="6.86689">
        <ele>1861.4</ele>
        <time>2016-05-06T14:39:05Z</time>
      </trkpt>
      <trkpt lat="45.62669" lon="6.86689">
        <ele>1861.4</ele>
        <time>2016-05-06T14:39:07Z</time>
      </trkpt>
      <trkpt lat="45.62669" lon="6.86689">
        <ele>1861.6</ele>
        <time>2016-05-06T14:39:09Z</time>
      </trkpt>
      <trkpt lat="45.62669" lon="6.86689">
        <ele>1861.7</ele>
        <time>2016-05-06T14:39:11Z</time>
      </trkpt>
      <trkpt lat="45.6267" lon="6.86688">
        <ele>1861.6</ele>
        <time>2016-05-06T14:39:13Z</time>
      </trkpt>
      <trkpt lat="45.6267" lon="6.86688">
        <ele>1861.5</ele>
        <time>2016-05-06T14:39:15Z</time>
      </trkpt>
      <trkpt lat="45.62671" lon="6.86688">
        <ele>1861.4</ele>
        <time>2016-05-06T14:39:17Z</time>
      </trkpt>
      <trkpt lat="45.62673" lon="6.86687">
        <ele>1861.4</ele>
        <time>2016-05-06T14:39:19Z</time>
      </trkpt>
      <trkpt lat="45.62673" lon="6.86687">
        <ele>1861.3</ele>
        <time>2016-05-06T14:39:21Z</time>
      </trkpt>
      <trkpt lat="45.62674" lon="6.86687">
        <ele>1861.4</ele>
        <time>2016-05-06T14:39:23Z</time>
      </trkpt>
      <trkpt lat="45.62674" lon="6.86687">
        <ele>1861.3</ele>
        <time>2016-05-06T14:39:25Z</time>
      </trkpt>
      <trkpt lat="45.62674" lon="6.86687">
        <ele>1861.1</ele>
        <time>2016-05-06T14:39:27Z</time>
      </trkpt>
      <trkpt lat="45.62677" lon="6.86687">
        <ele>1861</ele>
        <time>2016-05-06T14:39:29Z</time>
      </trkpt>
      <trkpt lat="45.62676" lon="6.86688">
        <ele>1860.9</ele>
        <time>2016-05-06T14:39:31Z</time>
      </trkpt>
      <trkpt lat="45.62677" lon="6.86688">
        <ele>1860.7</ele>
        <time>2016-05-06T14:39:33Z</time>
      </trkpt>
      <trkpt lat="45.62677" lon="6.86688">
        <ele>1860.6</ele>
        <time>2016-05-06T14:39:35Z</time>
      </trkpt>
      <trkpt lat="45.62677" lon="6.86689">
        <ele>1860.3</ele>
        <time>2016-05-06T14:39:37Z</time>
      </trkpt>
      <trkpt lat="45.62677" lon="6.86689">
        <ele>1860.1</ele>
        <time>2016-05-06T14:39:39Z</time>
      </trkpt>
      <trkpt lat="45.62677" lon="6.86689">
        <ele>1860.3</ele>
        <time>2016-05-06T14:39:41Z</time>
      </trkpt>
      <trkpt lat="45.62677" lon="6.86689">
        <ele>1860.4</ele>
        <time>2016-05-06T14:39:43Z</time>
      </trkpt>
      <trkpt lat="45.62676" lon="6.86689">
        <ele>1860.6</ele>
        <time>2016-05-06T14:39:45Z</time>
      </trkpt>
      <trkpt lat="45.62676" lon="6.86689">
        <ele>1860.7</ele>
        <time>2016-05-06T14:39:47Z</time>
      </trkpt>
      <trkpt lat="45.62676" lon="6.8669">
        <ele>1860.9</ele>
        <time>2016-05-06T14:39:49Z</time>
      </trkpt>
      <trkpt lat="45.62676" lon="6.8669">
        <ele>1861.1</ele>
        <time>2016-05-06T14:39:51Z</time>
      </trkpt>
      <trkpt lat="45.62676" lon="6.8669">
        <ele>1861.2</ele>
        <time>2016-05-06T14:39:53Z</time>
      </trkpt>
      <trkpt lat="45.62676" lon="6.86691">
        <ele>1861.3</ele>
        <time>2016-05-06T14:39:55Z</time>
      </trkpt>
      <trkpt lat="45.62675" lon="6.86691">
        <ele>1861.4</ele>
        <time>2016-05-06T14:39:57Z</time>
      </trkpt>
      <trkpt lat="45.62674" lon="6.86692">
        <ele>1861.4</ele>
        <time>2016-05-06T14:39:59Z</time>
      </trkpt>
      <trkpt lat="45.62674" lon="6.86692">
        <ele>1861.4</ele>
        <time>2016-05-06T14:40:01Z</time>
      </trkpt>
      <trkpt lat="45.62673" lon="6.86692">
        <ele>1861.3</ele>
        <time>2016-05-06T14:40:03Z</time>
      </trkpt>
      <trkpt lat="45.62672" lon="6.86693">
        <ele>1861.4</ele>
        <time>2016-05-06T14:40:05Z</time>
      </trkpt>
      <trkpt lat="45.62671" lon="6.86693">
        <ele>1861.5</ele>
        <time>2016-05-06T14:40:07Z</time>
      </trkpt>
      <trkpt lat="45.6267" lon="6.86694">
        <ele>1861.6</ele>
        <time>2016-05-06T14:40:09Z</time>
      </trkpt>
      <trkpt lat="45.62669" lon="6.86694">
        <ele>1861.6</ele>
        <time>2016-05-06T14:40:11Z</time>
      </trkpt>
      <trkpt lat="45.62668" lon="6.86694">
        <ele>1861.4</ele>
        <time>2016-05-06T14:40:13Z</time>
      </trkpt>
      <trkpt lat="45.62667" lon="6.86695">
        <ele>1861.3</ele>
        <time>2016-05-06T14:40:15Z</time>
      </trkpt>
      <trkpt lat="45.62666" lon="6.86695">
        <ele>1861.4</ele>
        <time>2016-05-06T14:40:17Z</time>
      </trkpt>
      <trkpt lat="45.62665" lon="6.86696">
        <ele>1861.6</ele>
        <time>2016-05-06T14:40:19Z</time>
      </trkpt>
      <trkpt lat="45.62663" lon="6.86696">
        <ele>1861.6</ele>
        <time>2016-05-06T14:40:21Z</time>
      </trkpt>
      <trkpt lat="45.62662" lon="6.86696">
        <ele>1861.6</ele>
        <time>2016-05-06T14:40:23Z</time>
      </trkpt>
      <trkpt lat="45.62661" lon="6.86696">
        <ele>1861.8</ele>
        <time>2016-05-06T14:40:25Z</time>
      </trkpt>
      <trkpt lat="45.6266" lon="6.86696">
        <ele>1861.7</ele>
        <time>2016-05-06T14:40:27Z</time>
      </trkpt>
      <trkpt lat="45.6266" lon="6.86696">
        <ele>1861.8</ele>
        <time>2016-05-06T14:40:29Z</time>
      </trkpt>
      <trkpt lat="45.62659" lon="6.86696">
        <ele>1861.8</ele>
        <time>2016-05-06T14:40:31Z</time>
      </trkpt>
      <trkpt lat="45.62659" lon="6.86696">
        <ele>1861.7</ele>
        <time>2016-05-06T14:40:33Z</time>
      </trkpt>
      <trkpt lat="45.62659" lon="6.86696">
        <ele>1861.4</ele>
        <time>2016-05-06T14:40:35Z</time>
      </trkpt>
      <trkpt lat="45.62659" lon="6.86696">
        <ele>1861.2</ele>
        <time>2016-05-06T14:40:37Z</time>
      </trkpt>
      <trkpt lat="45.62659" lon="6.86696">
        <ele>1860.9</ele>
        <time>2016-05-06T14:40:39Z</time>
      </trkpt>
      <trkpt lat="45.62659" lon="6.86696">
        <ele>1860.7</ele>
        <time>2016-05-06T14:40:41Z</time>
      </trkpt>
      <trkpt lat="45.62659" lon="6.86696">
        <ele>1860.9</ele>
        <time>2016-05-06T14:40:43Z</time>
      </trkpt>
      <trkpt lat="45.6266" lon="6.86695">
        <ele>1860.9</ele>
        <time>2016-05-06T14:40:45Z</time>
      </trkpt>
      <trkpt lat="45.6266" lon="6.86695">
        <ele>1860.9</ele>
        <time>2016-05-06T14:40:47Z</time>
      </trkpt>
      <trkpt lat="45.6266" lon="6.86695">
        <ele>1860.8</ele>
        <time>2016-05-06T14:40:49Z</time>
      </trkpt>
      <trkpt lat="45.6266" lon="6.86695">
        <ele>1860.7</ele>
        <time>2016-05-06T14:40:51Z</time>
      </trkpt>
      <trkpt lat="45.6266" lon="6.86695">
        <ele>1860.8</ele>
        <time>2016-05-06T14:40:53Z</time>
      </trkpt>
      <trkpt lat="45.62661" lon="6.86694">
        <ele>1860.9</ele>
        <time>2016-05-06T14:40:55Z</time>
      </trkpt>
      <trkpt lat="45.62661" lon="6.86694">
        <ele>1860.9</ele>
        <time>2016-05-06T14:40:57Z</time>
      </trkpt>
      <trkpt lat="45.62661" lon="6.86694">
        <ele>1860.7</ele>
        <time>2016-05-06T14:40:59Z</time>
      </trkpt>
      <trkpt lat="45.62662" lon="6.86694">
        <ele>1860.6</ele>
        <time>2016-05-06T14:41:01Z</time>
      </trkpt>
      <trkpt lat="45.62662" lon="6.86694">
        <ele>1860.7</ele>
        <time>2016-05-06T14:41:03Z</time>
      </trkpt>
      <trkpt lat="45.62663" lon="6.86694">
        <ele>1860.6</ele>
        <time>2016-05-06T14:41:05Z</time>
      </trkpt>
      <trkpt lat="45.62663" lon="6.86694">
        <ele>1860.5</ele>
        <time>2016-05-06T14:41:07Z</time>
      </trkpt>
      <trkpt lat="45.62664" lon="6.86694">
        <ele>1860.6</ele>
        <time>2016-05-06T14:41:09Z</time>
      </trkpt>
      <trkpt lat="45.62665" lon="6.86693">
        <ele>1860.6</ele>
        <time>2016-05-06T14:41:11Z</time>
      </trkpt>
      <trkpt lat="45.62666" lon="6.86693">
        <ele>1860.5</ele>
        <time>2016-05-06T14:41:13Z</time>
      </trkpt>
      <trkpt lat="45.62666" lon="6.86693">
        <ele>1860.4</ele>
        <time>2016-05-06T14:41:15Z</time>
      </trkpt>
      <trkpt lat="45.62667" lon="6.86693">
        <ele>1860.4</ele>
        <time>2016-05-06T14:41:17Z</time>
      </trkpt>
      <trkpt lat="45.62667" lon="6.86693">
        <ele>1860.4</ele>
        <time>2016-05-06T14:41:19Z</time>
      </trkpt>
      <trkpt lat="45.62668" lon="6.86693">
        <ele>1860.4</ele>
        <time>2016-05-06T14:41:21Z</time>
      </trkpt>
      <trkpt lat="45.62668" lon="6.86693">
        <ele>1860.5</ele>
        <time>2016-05-06T14:41:23Z</time>
      </trkpt>
      <trkpt lat="45.62668" lon="6.86693">
        <ele>1860.6</ele>
        <time>2016-05-06T14:41:25Z</time>
      </trkpt>
      <trkpt lat="45.62669" lon="6.86693">
        <ele>1860.7</ele>
        <time>2016-05-06T14:41:27Z</time>
      </trkpt>
      <trkpt lat="45.62669" lon="6.86693">
        <ele>1860.7</ele>
        <time>2016-05-06T14:41:29Z</time>
      </trkpt>
      <trkpt lat="45.62669" lon="6.86693">
        <ele>1860.6</ele>
        <time>2016-05-06T14:41:31Z</time>
      </trkpt>
      <trkpt lat="45.6267" lon="6.86693">
        <ele>1860.5</ele>
        <time>2016-05-06T14:41:33Z</time>
      </trkpt>
      <trkpt lat="45.6267" lon="6.86693">
        <ele>1860.4</ele>
        <time>2016-05-06T14:41:35Z</time>
      </trkpt>
      <trkpt lat="45.6267" lon="6.86693">
        <ele>1860.3</ele>
        <time>2016-05-06T14:41:37Z</time>
      </trkpt>
      <trkpt lat="45.6267" lon="6.86693">
        <ele>1860.3</ele>
        <time>2016-05-06T14:41:39Z</time>
      </trkpt>
      <trkpt lat="45.6267" lon="6.86693">
        <ele>1860.3</ele>
        <time>2016-05-06T14:41:41Z</time>
      </trkpt>
      <trkpt lat="45.62671" lon="6.86693">
        <ele>1860.3</ele>
        <time>2016-05-06T14:41:43Z</time>
      </trkpt>
      <trkpt lat="45.62671" lon="6.86694">
        <ele>1860.4</ele>
        <time>2016-05-06T14:41:45Z</time>
      </trkpt>
      <trkpt lat="45.62671" lon="6.86694">
        <ele>1860.3</ele>
        <time>2016-05-06T14:41:47Z</time>
      </trkpt>
      <trkpt lat="45.62672" lon="6.86694">
        <ele>1860.4</ele>
        <time>2016-05-06T14:41:49Z</time>
      </trkpt>
      <trkpt lat="45.62672" lon="6.86695">
        <ele>1860.4</ele>
        <time>2016-05-06T14:41:51Z</time>
      </trkpt>
      <trkpt lat="45.62672" lon="6.86695">
        <ele>1860.4</ele>
        <time>2016-05-06T14:41:53Z</time>
      </trkpt>
      <trkpt lat="45.62672" lon="6.86695">
        <ele>1860.2</ele>
        <time>2016-05-06T14:41:55Z</time>
      </trkpt>
      <trkpt lat="45.62672" lon="6.86695">
        <ele>1860.4</ele>
        <time>2016-05-06T14:41:57Z</time>
      </trkpt>
      <trkpt lat="45.62672" lon="6.86695">
        <ele>1860.5</ele>
        <time>2016-05-06T14:41:59Z</time>
      </trkpt>
      <trkpt lat="45.62672" lon="6.86695">
        <ele>1860.6</ele>
        <time>2016-05-06T14:42:01Z</time>
      </trkpt>
      <trkpt lat="45.62672" lon="6.86695">
        <ele>1860.6</ele>
        <time>2016-05-06T14:42:03Z</time>
      </trkpt>
      <trkpt lat="45.62673" lon="6.86695">
        <ele>1860.7</ele>
        <time>2016-05-06T14:42:05Z</time>
      </trkpt>
      <trkpt lat="45.62673" lon="6.86696">
        <ele>1860.7</ele>
        <time>2016-05-06T14:42:07Z</time>
      </trkpt>
      <trkpt lat="45.62673" lon="6.86696">
        <ele>1860.6</ele>
        <time>2016-05-06T14:42:09Z</time>
      </trkpt>
      <trkpt lat="45.62673" lon="6.86696">
        <ele>1860.5</ele>
        <time>2016-05-06T14:42:11Z</time>
      </trkpt>
      <trkpt lat="45.62673" lon="6.86696">
        <ele>1860.4</ele>
        <time>2016-05-06T14:42:13Z</time>
      </trkpt>
      <trkpt lat="45.62673" lon="6.86696">
        <ele>1860.5</ele>
        <time>2016-05-06T14:42:15Z</time>
      </trkpt>
      <trkpt lat="45.62674" lon="6.86696">
        <ele>1860.7</ele>
        <time>2016-05-06T14:42:17Z</time>
      </trkpt>
      <trkpt lat="45.62674" lon="6.86696">
        <ele>1860.8</ele>
        <time>2016-05-06T14:42:19Z</time>
      </trkpt>
      <trkpt lat="45.62674" lon="6.86696">
        <ele>1860.8</ele>
        <time>2016-05-06T14:42:21Z</time>
      </trkpt>
      <trkpt lat="45.62674" lon="6.86696">
        <ele>1860.8</ele>
        <time>2016-05-06T14:42:23Z</time>
      </trkpt>
      <trkpt lat="45.62674" lon="6.86697">
        <ele>1860.8</ele>
        <time>2016-05-06T14:42:25Z</time>
      </trkpt>
      <trkpt lat="45.62674" lon="6.86697">
        <ele>1860.8</ele>
        <time>2016-05-06T14:42:27Z</time>
      </trkpt>
      <trkpt lat="45.62674" lon="6.86697">
        <ele>1860.8</ele>
        <time>2016-05-06T14:42:29Z</time>
      </trkpt>
      <trkpt lat="45.62674" lon="6.86697">
        <ele>1860.9</ele>
        <time>2016-05-06T14:42:31Z</time>
      </trkpt>
      <trkpt lat="45.62674" lon="6.86697">
        <ele>1860.9</ele>
        <time>2016-05-06T14:42:33Z</time>
      </trkpt>
      <trkpt lat="45.62673" lon="6.86697">
        <ele>1860.9</ele>
        <time>2016-05-06T14:42:35Z</time>
      </trkpt>
      <trkpt lat="45.62673" lon="6.86697">
        <ele>1860.9</ele>
        <time>2016-05-06T14:42:37Z</time>
      </trkpt>
      <trkpt lat="45.62673" lon="6.86697">
        <ele>1860.9</ele>
        <time>2016-05-06T14:42:39Z</time>
      </trkpt>
      <trkpt lat="45.62673" lon="6.86697">
        <ele>1860.9</ele>
        <time>2016-05-06T14:42:41Z</time>
      </trkpt>
      <trkpt lat="45.62672" lon="6.86697">
        <ele>1861</ele>
        <time>2016-05-06T14:42:43Z</time>
      </trkpt>
      <trkpt lat="45.62672" lon="6.86697">
        <ele>1861</ele>
        <time>2016-05-06T14:42:45Z</time>
      </trkpt>
      <trkpt lat="45.62671" lon="6.86697">
        <ele>1860.8</ele>
        <time>2016-05-06T14:42:47Z</time>
      </trkpt>
      <trkpt lat="45.62671" lon="6.86698">
        <ele>1860.7</ele>
        <time>2016-05-06T14:42:49Z</time>
      </trkpt>
      <trkpt lat="45.62671" lon="6.86698">
        <ele>1860.8</ele>
        <time>2016-05-06T14:42:51Z</time>
      </trkpt>
      <trkpt lat="45.62671" lon="6.86698">
        <ele>1860.8</ele>
        <time>2016-05-06T14:42:53Z</time>
      </trkpt>
      <trkpt lat="45.6267" lon="6.86698">
        <ele>1860.6</ele>
        <time>2016-05-06T14:42:55Z</time>
      </trkpt>
      <trkpt lat="45.6267" lon="6.86697">
        <ele>1860.6</ele>
        <time>2016-05-06T14:42:57Z</time>
      </trkpt>
      <trkpt lat="45.6267" lon="6.86698">
        <ele>1860.6</ele>
        <time>2016-05-06T14:42:59Z</time>
      </trkpt>
      <trkpt lat="45.6267" lon="6.86697">
        <ele>1860.4</ele>
        <time>2016-05-06T14:43:01Z</time>
      </trkpt>
      <trkpt lat="45.62671" lon="6.86698">
        <ele>1860.4</ele>
        <time>2016-05-06T14:43:03Z</time>
      </trkpt>
      <trkpt lat="45.62671" lon="6.86698">
        <ele>1860.6</ele>
        <time>2016-05-06T14:43:05Z</time>
      </trkpt>
      <trkpt lat="45.62671" lon="6.86698">
        <ele>1860.7</ele>
        <time>2016-05-06T14:43:07Z</time>
      </trkpt>
      <trkpt lat="45.62671" lon="6.86698">
        <ele>1860.7</ele>
        <time>2016-05-06T14:43:09Z</time>
      </trkpt>
      <trkpt lat="45.62671" lon="6.86697">
        <ele>1860.9</ele>
        <time>2016-05-06T14:43:11Z</time>
      </trkpt>
      <trkpt lat="45.62671" lon="6.86697">
        <ele>1860.9</ele>
        <time>2016-05-06T14:43:13Z</time>
      </trkpt>
      <trkpt lat="45.62671" lon="6.86697">
        <ele>1861</ele>
        <time>2016-05-06T14:43:15Z</time>
      </trkpt>
      <trkpt lat="45.62671" lon="6.86696">
        <ele>1861</ele>
        <time>2016-05-06T14:43:17Z</time>
      </trkpt>
      <trkpt lat="45.62672" lon="6.86696">
        <ele>1861.1</ele>
        <time>2016-05-06T14:43:19Z</time>
      </trkpt>
      <trkpt lat="45.62672" lon="6.86696">
        <ele>1861.4</ele>
        <time>2016-05-06T14:43:21Z</time>
      </trkpt>
      <trkpt lat="45.62672" lon="6.86695">
        <ele>1861.4</ele>
        <time>2016-05-06T14:43:23Z</time>
      </trkpt>
      <trkpt lat="45.62673" lon="6.86695">
        <ele>1861.5</ele>
        <time>2016-05-06T14:43:25Z</time>
      </trkpt>
      <trkpt lat="45.62673" lon="6.86695">
        <ele>1861.5</ele>
        <time>2016-05-06T14:43:27Z</time>
      </trkpt>
      <trkpt lat="45.62674" lon="6.86695">
        <ele>1861.4</ele>
        <time>2016-05-06T14:43:29Z</time>
      </trkpt>
      <trkpt lat="45.62674" lon="6.86695">
        <ele>1861.6</ele>
        <time>2016-05-06T14:43:31Z</time>
      </trkpt>
      <trkpt lat="45.62675" lon="6.86695">
        <ele>1861.5</ele>
        <time>2016-05-06T14:43:33Z</time>
      </trkpt>
      <trkpt lat="45.62675" lon="6.86695">
        <ele>1861.5</ele>
        <time>2016-05-06T14:43:35Z</time>
      </trkpt>
      <trkpt lat="45.62676" lon="6.86695">
        <ele>1861.4</ele>
        <time>2016-05-06T14:43:37Z</time>
      </trkpt>
      <trkpt lat="45.62676" lon="6.86696">
        <ele>1861.4</ele>
        <time>2016-05-06T14:43:39Z</time>
      </trkpt>
      <trkpt lat="45.62676" lon="6.86696">
        <ele>1861.4</ele>
        <time>2016-05-06T14:43:41Z</time>
      </trkpt>
      <trkpt lat="45.62676" lon="6.86695">
        <ele>1861.4</ele>
        <time>2016-05-06T14:43:43Z</time>
      </trkpt>
      <trkpt lat="45.62676" lon="6.86695">
        <ele>1861.3</ele>
        <time>2016-05-06T14:43:45Z</time>
      </trkpt>
      <trkpt lat="45.62676" lon="6.86695">
        <ele>1861.3</ele>
        <time>2016-05-06T14:43:47Z</time>
      </trkpt>
      <trkpt lat="45.62676" lon="6.86695">
        <ele>1861.4</ele>
        <time>2016-05-06T14:43:49Z</time>
      </trkpt>
      <trkpt lat="45.62675" lon="6.86695">
        <ele>1861.4</ele>
        <time>2016-05-06T14:43:51Z</time>
      </trkpt>
      <trkpt lat="45.62675" lon="6.86695">
        <ele>1861.4</ele>
        <time>2016-05-06T14:43:53Z</time>
      </trkpt>
      <trkpt lat="45.62674" lon="6.86695">
        <ele>1861.5</ele>
        <time>2016-05-06T14:43:55Z</time>
      </trkpt>
      <trkpt lat="45.62675" lon="6.86695">
        <ele>1861.5</ele>
        <time>2016-05-06T14:43:57Z</time>
      </trkpt>
      <trkpt lat="45.62675" lon="6.86696">
        <ele>1861.7</ele>
        <time>2016-05-06T14:43:59Z</time>
      </trkpt>
      <trkpt lat="45.62675" lon="6.86696">
        <ele>1861.7</ele>
        <time>2016-05-06T14:44:01Z</time>
      </trkpt>
      <trkpt lat="45.62675" lon="6.86696">
        <ele>1861.7</ele>
        <time>2016-05-06T14:44:03Z</time>
      </trkpt>
      <trkpt lat="45.62675" lon="6.86696">
        <ele>1861.8</ele>
        <time>2016-05-06T14:44:05Z</time>
      </trkpt>
      <trkpt lat="45.62676" lon="6.86696">
        <ele>1861.7</ele>
        <time>2016-05-06T14:44:07Z</time>
      </trkpt>
      <trkpt lat="45.62675" lon="6.86696">
        <ele>1861.6</ele>
        <time>2016-05-06T14:44:09Z</time>
      </trkpt>
      <trkpt lat="45.62675" lon="6.86696">
        <ele>1861.7</ele>
        <time>2016-05-06T14:44:11Z</time>
      </trkpt>
      <trkpt lat="45.62675" lon="6.86696">
        <ele>1861.6</ele>
        <time>2016-05-06T14:44:13Z</time>
      </trkpt>
      <trkpt lat="45.62675" lon="6.86696">
        <ele>1861.5</ele>
        <time>2016-05-06T14:44:15Z</time>
      </trkpt>
      <trkpt lat="45.62675" lon="6.86696">
        <ele>1861.5</ele>
        <time>2016-05-06T14:44:17Z</time>
      </trkpt>
      <trkpt lat="45.62676" lon="6.86696">
        <ele>1861.8</ele>
        <time>2016-05-06T14:44:19Z</time>
      </trkpt>
      <trkpt lat="45.62676" lon="6.86696">
        <ele>1861.9</ele>
        <time>2016-05-06T14:44:21Z</time>
      </trkpt>
      <trkpt lat="45.62676" lon="6.86696">
        <ele>1862.2</ele>
        <time>2016-05-06T14:44:23Z</time>
      </trkpt>
      <trkpt lat="45.62675" lon="6.86696">
        <ele>1862.3</ele>
        <time>2016-05-06T14:44:25Z</time>
      </trkpt>
      <trkpt lat="45.62674" lon="6.86696">
        <ele>1862.7</ele>
        <time>2016-05-06T14:44:27Z</time>
      </trkpt>
      <trkpt lat="45.62674" lon="6.86696">
        <ele>1862.9</ele>
        <time>2016-05-06T14:44:29Z</time>
      </trkpt>
      <trkpt lat="45.62674" lon="6.86696">
        <ele>1863</ele>
        <time>2016-05-06T14:44:31Z</time>
      </trkpt>
      <trkpt lat="45.62674" lon="6.86696">
        <ele>1863</ele>
        <time>2016-05-06T14:44:33Z</time>
      </trkpt>
      <trkpt lat="45.62674" lon="6.86696">
        <ele>1862.7</ele>
        <time>2016-05-06T14:44:35Z</time>
      </trkpt>
      <trkpt lat="45.62674" lon="6.86696">
        <ele>1862.6</ele>
        <time>2016-05-06T14:44:37Z</time>
      </trkpt>
      <trkpt lat="45.62674" lon="6.86695">
        <ele>1862.6</ele>
        <time>2016-05-06T14:44:39Z</time>
      </trkpt>
      <trkpt lat="45.62674" lon="6.86695">
        <ele>1862.5</ele>
        <time>2016-05-06T14:44:41Z</time>
      </trkpt>
      <trkpt lat="45.62674" lon="6.86695">
        <ele>1862.6</ele>
        <time>2016-05-06T14:44:43Z</time>
      </trkpt>
      <trkpt lat="45.62674" lon="6.86695">
        <ele>1862.5</ele>
        <time>2016-05-06T14:44:45Z</time>
      </trkpt>
      <trkpt lat="45.62674" lon="6.86694">
        <ele>1862.5</ele>
        <time>2016-05-06T14:44:47Z</time>
      </trkpt>
      <trkpt lat="45.62675" lon="6.86694">
        <ele>1862.5</ele>
        <time>2016-05-06T14:44:49Z</time>
      </trkpt>
      <trkpt lat="45.62675" lon="6.86694">
        <ele>1862.5</ele>
        <time>2016-05-06T14:44:51Z</time>
      </trkpt>
      <trkpt lat="45.62675" lon="6.86693">
        <ele>1862.3</ele>
        <time>2016-05-06T14:44:53Z</time>
      </trkpt>
      <trkpt lat="45.62676" lon="6.86693">
        <ele>1862.2</ele>
        <time>2016-05-06T14:44:55Z</time>
      </trkpt>
      <trkpt lat="45.62676" lon="6.86693">
        <ele>1861.9</ele>
        <time>2016-05-06T14:44:57Z</time>
      </trkpt>
      <trkpt lat="45.62677" lon="6.86692">
        <ele>1862</ele>
        <time>2016-05-06T14:44:59Z</time>
      </trkpt>
      <trkpt lat="45.62677" lon="6.86692">
        <ele>1861.9</ele>
        <time>2016-05-06T14:45:01Z</time>
      </trkpt>
      <trkpt lat="45.62678" lon="6.86692">
        <ele>1861.6</ele>
        <time>2016-05-06T14:45:03Z</time>
      </trkpt>
      <trkpt lat="45.62678" lon="6.86692">
        <ele>1861.5</ele>
        <time>2016-05-06T14:45:05Z</time>
      </trkpt>
      <trkpt lat="45.62679" lon="6.86692">
        <ele>1861.7</ele>
        <time>2016-05-06T14:45:07Z</time>
      </trkpt>
      <trkpt lat="45.62679" lon="6.86692">
        <ele>1861.8</ele>
        <time>2016-05-06T14:45:09Z</time>
      </trkpt>
      <trkpt lat="45.62679" lon="6.86692">
        <ele>1862.2</ele>
        <time>2016-05-06T14:45:11Z</time>
      </trkpt>
      <trkpt lat="45.62679" lon="6.86692">
        <ele>1862.4</ele>
        <time>2016-05-06T14:45:13Z</time>
      </trkpt>
      <trkpt lat="45.62679" lon="6.86692">
        <ele>1862.6</ele>
        <time>2016-05-06T14:45:15Z</time>
      </trkpt>
      <trkpt lat="45.62679" lon="6.86692">
        <ele>1862.4</ele>
        <time>2016-05-06T14:45:17Z</time>
      </trkpt>
      <trkpt lat="45.62679" lon="6.86692">
        <ele>1862.2</ele>
        <time>2016-05-06T14:45:19Z</time>
      </trkpt>
      <trkpt lat="45.62679" lon="6.86692">
        <ele>1862</ele>
        <time>2016-05-06T14:45:21Z</time>
      </trkpt>
      <trkpt lat="45.62679" lon="6.86692">
        <ele>1861.7</ele>
        <time>2016-05-06T14:45:23Z</time>
      </trkpt>
      <trkpt lat="45.62679" lon="6.86692">
        <ele>1861.4</ele>
        <time>2016-05-06T14:45:25Z</time>
      </trkpt>
      <trkpt lat="45.62679" lon="6.86692">
        <ele>1861.3</ele>
        <time>2016-05-06T14:45:27Z</time>
      </trkpt>
      <trkpt lat="45.6268" lon="6.86691">
        <ele>1861.1</ele>
        <time>2016-05-06T14:45:29Z</time>
      </trkpt>
      <trkpt lat="45.62679" lon="6.86691">
        <ele>1861.1</ele>
        <time>2016-05-06T14:45:31Z</time>
      </trkpt>
      <trkpt lat="45.62679" lon="6.86691">
        <ele>1861.1</ele>
        <time>2016-05-06T14:45:33Z</time>
      </trkpt>
      <trkpt lat="45.62679" lon="6.86691">
        <ele>1861.3</ele>
        <time>2016-05-06T14:45:35Z</time>
      </trkpt>
      <trkpt lat="45.62679" lon="6.86691">
        <ele>1861.4</ele>
        <time>2016-05-06T14:45:37Z</time>
      </trkpt>
      <trkpt lat="45.62678" lon="6.86691">
        <ele>1861.4</ele>
        <time>2016-05-06T14:45:39Z</time>
      </trkpt>
      <trkpt lat="45.62678" lon="6.8669">
        <ele>1861.4</ele>
        <time>2016-05-06T14:45:41Z</time>
      </trkpt>
      <trkpt lat="45.62677" lon="6.8669">
        <ele>1861.4</ele>
        <time>2016-05-06T14:45:43Z</time>
      </trkpt>
      <trkpt lat="45.62677" lon="6.8669">
        <ele>1861.5</ele>
        <time>2016-05-06T14:45:45Z</time>
      </trkpt>
      <trkpt lat="45.62677" lon="6.8669">
        <ele>1861.5</ele>
        <time>2016-05-06T14:45:47Z</time>
      </trkpt>
      <trkpt lat="45.62676" lon="6.8669">
        <ele>1861.3</ele>
        <time>2016-05-06T14:45:49Z</time>
      </trkpt>
      <trkpt lat="45.62676" lon="6.8669">
        <ele>1861.2</ele>
        <time>2016-05-06T14:45:51Z</time>
      </trkpt>
      <trkpt lat="45.62676" lon="6.8669">
        <ele>1861.3</ele>
        <time>2016-05-06T14:45:53Z</time>
      </trkpt>
      <trkpt lat="45.62676" lon="6.8669">
        <ele>1861.2</ele>
        <time>2016-05-06T14:45:55Z</time>
      </trkpt>
      <trkpt lat="45.62676" lon="6.86691">
        <ele>1861.3</ele>
        <time>2016-05-06T14:45:57Z</time>
      </trkpt>
      <trkpt lat="45.62676" lon="6.86691">
        <ele>1861.2</ele>
        <time>2016-05-06T14:45:59Z</time>
      </trkpt>
      <trkpt lat="45.62676" lon="6.86691">
        <ele>1861</ele>
        <time>2016-05-06T14:46:01Z</time>
      </trkpt>
      <trkpt lat="45.62675" lon="6.86691">
        <ele>1860.9</ele>
        <time>2016-05-06T14:46:03Z</time>
      </trkpt>
      <trkpt lat="45.62675" lon="6.86691">
        <ele>1860.9</ele>
        <time>2016-05-06T14:46:05Z</time>
      </trkpt>
      <trkpt lat="45.62676" lon="6.8669">
        <ele>1860.8</ele>
        <time>2016-05-06T14:46:07Z</time>
      </trkpt>
      <trkpt lat="45.62676" lon="6.86689">
        <ele>1860.9</ele>
        <time>2016-05-06T14:46:09Z</time>
      </trkpt>
      <trkpt lat="45.62676" lon="6.86689">
        <ele>1860.9</ele>
        <time>2016-05-06T14:46:11Z</time>
      </trkpt>
      <trkpt lat="45.62676" lon="6.86689">
        <ele>1860.7</ele>
        <time>2016-05-06T14:46:13Z</time>
      </trkpt>
      <trkpt lat="45.62676" lon="6.86689">
        <ele>1860.7</ele>
        <time>2016-05-06T14:46:15Z</time>
      </trkpt>
      <trkpt lat="45.62675" lon="6.86688">
        <ele>1860.7</ele>
        <time>2016-05-06T14:46:17Z</time>
      </trkpt>
      <trkpt lat="45.62675" lon="6.86688">
        <ele>1860.8</ele>
        <time>2016-05-06T14:46:19Z</time>
      </trkpt>
      <trkpt lat="45.62675" lon="6.86688">
        <ele>1860.9</ele>
        <time>2016-05-06T14:46:21Z</time>
      </trkpt>
      <trkpt lat="45.62675" lon="6.86687">
        <ele>1861</ele>
        <time>2016-05-06T14:46:23Z</time>
      </trkpt>
      <trkpt lat="45.62675" lon="6.86687">
        <ele>1861.1</ele>
        <time>2016-05-06T14:46:25Z</time>
      </trkpt>
      <trkpt lat="45.62675" lon="6.86687">
        <ele>1861.2</ele>
        <time>2016-05-06T14:46:27Z</time>
      </trkpt>
      <trkpt lat="45.62675" lon="6.86687">
        <ele>1861.3</ele>
        <time>2016-05-06T14:46:29Z</time>
      </trkpt>
      <trkpt lat="45.62674" lon="6.86687">
        <ele>1861.3</ele>
        <time>2016-05-06T14:46:31Z</time>
      </trkpt>
      <trkpt lat="45.62674" lon="6.86687">
        <ele>1861.3</ele>
        <time>2016-05-06T14:46:33Z</time>
      </trkpt>
      <trkpt lat="45.62674" lon="6.86686">
        <ele>1861.4</ele>
        <time>2016-05-06T14:46:35Z</time>
      </trkpt>
      <trkpt lat="45.62674" lon="6.86686">
        <ele>1861.4</ele>
        <time>2016-05-06T14:46:37Z</time>
      </trkpt>
      <trkpt lat="45.62673" lon="6.86686">
        <ele>1861.4</ele>
        <time>2016-05-06T14:46:39Z</time>
      </trkpt>
      <trkpt lat="45.62672" lon="6.86686">
        <ele>1861.4</ele>
        <time>2016-05-06T14:46:41Z</time>
      </trkpt>
      <trkpt lat="45.62671" lon="6.86686">
        <ele>1861.3</ele>
        <time>2016-05-06T14:46:43Z</time>
      </trkpt>
      <trkpt lat="45.62671" lon="6.86686">
        <ele>1861.3</ele>
        <time>2016-05-06T14:46:45Z</time>
      </trkpt>
      <trkpt lat="45.6267" lon="6.86686">
        <ele>1861.4</ele>
        <time>2016-05-06T14:46:47Z</time>
      </trkpt>
      <trkpt lat="45.6267" lon="6.86686">
        <ele>1861.5</ele>
        <time>2016-05-06T14:46:49Z</time>
      </trkpt>
      <trkpt lat="45.6267" lon="6.86686">
        <ele>1861.4</ele>
        <time>2016-05-06T14:46:51Z</time>
      </trkpt>
      <trkpt lat="45.6267" lon="6.86686">
        <ele>1861.3</ele>
        <time>2016-05-06T14:46:53Z</time>
      </trkpt>
      <trkpt lat="45.62669" lon="6.86687">
        <ele>1861.4</ele>
        <time>2016-05-06T14:46:55Z</time>
      </trkpt>
      <trkpt lat="45.62669" lon="6.86687">
        <ele>1861.4</ele>
        <time>2016-05-06T14:46:57Z</time>
      </trkpt>
      <trkpt lat="45.6267" lon="6.86687">
        <ele>1861.4</ele>
        <time>2016-05-06T14:46:59Z</time>
      </trkpt>
      <trkpt lat="45.6267" lon="6.86687">
        <ele>1861.4</ele>
        <time>2016-05-06T14:47:01Z</time>
      </trkpt>
      <trkpt lat="45.6267" lon="6.86687">
        <ele>1861.6</ele>
        <time>2016-05-06T14:47:03Z</time>
      </trkpt>
      <trkpt lat="45.6267" lon="6.86687">
        <ele>1861.7</ele>
        <time>2016-05-06T14:47:05Z</time>
      </trkpt>
      <trkpt lat="45.6267" lon="6.86687">
        <ele>1861.5</ele>
        <time>2016-05-06T14:47:07Z</time>
      </trkpt>
      <trkpt lat="45.6267" lon="6.86687">
        <ele>1861.6</ele>
        <time>2016-05-06T14:47:09Z</time>
      </trkpt>
      <trkpt lat="45.6267" lon="6.86687">
        <ele>1861.7</ele>
        <time>2016-05-06T14:47:11Z</time>
      </trkpt>
      <trkpt lat="45.62669" lon="6.86687">
        <ele>1861.7</ele>
        <time>2016-05-06T14:47:13Z</time>
      </trkpt>
      <trkpt lat="45.62669" lon="6.86687">
        <ele>1861.7</ele>
        <time>2016-05-06T14:47:15Z</time>
      </trkpt>
      <trkpt lat="45.6267" lon="6.86688">
        <ele>1861.7</ele>
        <time>2016-05-06T14:47:17Z</time>
      </trkpt>
      <trkpt lat="45.6267" lon="6.86688">
        <ele>1861.8</ele>
        <time>2016-05-06T14:47:19Z</time>
      </trkpt>
      <trkpt lat="45.6267" lon="6.86688">
        <ele>1861.6</ele>
        <time>2016-05-06T14:47:21Z</time>
      </trkpt>
      <trkpt lat="45.6267" lon="6.86688">
        <ele>1861.6</ele>
        <time>2016-05-06T14:47:23Z</time>
      </trkpt>
      <trkpt lat="45.6267" lon="6.86689">
        <ele>1861.5</ele>
        <time>2016-05-06T14:47:25Z</time>
      </trkpt>
      <trkpt lat="45.6267" lon="6.86689">
        <ele>1861.6</ele>
        <time>2016-05-06T14:47:27Z</time>
      </trkpt>
      <trkpt lat="45.6267" lon="6.86689">
        <ele>1861.7</ele>
        <time>2016-05-06T14:47:29Z</time>
      </trkpt>
      <trkpt lat="45.6267" lon="6.86689">
        <ele>1861.8</ele>
        <time>2016-05-06T14:47:31Z</time>
      </trkpt>
      <trkpt lat="45.6267" lon="6.86689">
        <ele>1861.7</ele>
        <time>2016-05-06T14:47:33Z</time>
      </trkpt>
      <trkpt lat="45.6267" lon="6.8669">
        <ele>1861.6</ele>
        <time>2016-05-06T14:47:35Z</time>
      </trkpt>
      <trkpt lat="45.62669" lon="6.8669">
        <ele>1861.6</ele>
        <time>2016-05-06T14:47:37Z</time>
      </trkpt>
      <trkpt lat="45.62669" lon="6.8669">
        <ele>1861.7</ele>
        <time>2016-05-06T14:47:39Z</time>
      </trkpt>
      <trkpt lat="45.62669" lon="6.8669">
        <ele>1861.7</ele>
        <time>2016-05-06T14:47:41Z</time>
      </trkpt>
      <trkpt lat="45.62669" lon="6.8669">
        <ele>1861.9</ele>
        <time>2016-05-06T14:47:43Z</time>
      </trkpt>
      <trkpt lat="45.62669" lon="6.8669">
        <ele>1861.9</ele>
        <time>2016-05-06T14:47:45Z</time>
      </trkpt>
      <trkpt lat="45.62669" lon="6.8669">
        <ele>1861.9</ele>
        <time>2016-05-06T14:47:47Z</time>
      </trkpt>
      <trkpt lat="45.62669" lon="6.8669">
        <ele>1861.7</ele>
        <time>2016-05-06T14:47:49Z</time>
      </trkpt>
      <trkpt lat="45.62668" lon="6.86691">
        <ele>1861.7</ele>
        <time>2016-05-06T14:47:51Z</time>
      </trkpt>
      <trkpt lat="45.62668" lon="6.86691">
        <ele>1861.4</ele>
        <time>2016-05-06T14:47:53Z</time>
      </trkpt>
      <trkpt lat="45.62668" lon="6.86691">
        <ele>1861.3</ele>
        <time>2016-05-06T14:47:55Z</time>
      </trkpt>
      <trkpt lat="45.62668" lon="6.86691">
        <ele>1861.1</ele>
        <time>2016-05-06T14:47:57Z</time>
      </trkpt>
      <trkpt lat="45.62668" lon="6.86691">
        <ele>1861.3</ele>
        <time>2016-05-06T14:47:59Z</time>
      </trkpt>
      <trkpt lat="45.62668" lon="6.86691">
        <ele>1861.5</ele>
        <time>2016-05-06T14:48:01Z</time>
      </trkpt>
      <trkpt lat="45.62667" lon="6.86691">
        <ele>1861.5</ele>
        <time>2016-05-06T14:48:03Z</time>
      </trkpt>
      <trkpt lat="45.62667" lon="6.86691">
        <ele>1861.6</ele>
        <time>2016-05-06T14:48:05Z</time>
      </trkpt>
      <trkpt lat="45.62667" lon="6.86691">
        <ele>1861.6</ele>
        <time>2016-05-06T14:48:07Z</time>
      </trkpt>
      <trkpt lat="45.62667" lon="6.86691">
        <ele>1861.6</ele>
        <time>2016-05-06T14:48:09Z</time>
      </trkpt>
      <trkpt lat="45.62667" lon="6.86691">
        <ele>1861.6</ele>
        <time>2016-05-06T14:48:11Z</time>
      </trkpt>
      <trkpt lat="45.62667" lon="6.86691">
        <ele>1861.6</ele>
        <time>2016-05-06T14:48:13Z</time>
      </trkpt>
      <trkpt lat="45.62667" lon="6.86691">
        <ele>1861.7</ele>
        <time>2016-05-06T14:48:15Z</time>
      </trkpt>
      <trkpt lat="45.62668" lon="6.8669">
        <ele>1861.8</ele>
        <time>2016-05-06T14:48:17Z</time>
      </trkpt>
      <trkpt lat="45.62668" lon="6.8669">
        <ele>1861.9</ele>
        <time>2016-05-06T14:48:19Z</time>
      </trkpt>
      <trkpt lat="45.62668" lon="6.8669">
        <ele>1861.9</ele>
        <time>2016-05-06T14:48:21Z</time>
      </trkpt>
      <trkpt lat="45.62668" lon="6.8669">
        <ele>1862</ele>
        <time>2016-05-06T14:48:23Z</time>
      </trkpt>
      <trkpt lat="45.62668" lon="6.8669">
        <ele>1861.8</ele>
        <time>2016-05-06T14:48:25Z</time>
      </trkpt>
      <trkpt lat="45.62668" lon="6.8669">
        <ele>1861.8</ele>
        <time>2016-05-06T14:48:27Z</time>
      </trkpt>
      <trkpt lat="45.62668" lon="6.8669">
        <ele>1861.8</ele>
        <time>2016-05-06T14:48:29Z</time>
      </trkpt>
      <trkpt lat="45.62668" lon="6.8669">
        <ele>1861.5</ele>
        <time>2016-05-06T14:48:31Z</time>
      </trkpt>
      <trkpt lat="45.62668" lon="6.8669">
        <ele>1861.5</ele>
        <time>2016-05-06T14:48:33Z</time>
      </trkpt>
      <trkpt lat="45.62668" lon="6.86691">
        <ele>1861.6</ele>
        <time>2016-05-06T14:48:35Z</time>
      </trkpt>
      <trkpt lat="45.62667" lon="6.86691">
        <ele>1861.5</ele>
        <time>2016-05-06T14:48:37Z</time>
      </trkpt>
      <trkpt lat="45.62667" lon="6.86691">
        <ele>1861.6</ele>
        <time>2016-05-06T14:48:39Z</time>
      </trkpt>
      <trkpt lat="45.62667" lon="6.86691">
        <ele>1861.6</ele>
        <time>2016-05-06T14:48:41Z</time>
      </trkpt>
      <trkpt lat="45.62667" lon="6.86691">
        <ele>1861.6</ele>
        <time>2016-05-06T14:48:43Z</time>
      </trkpt>
      <trkpt lat="45.62667" lon="6.86691">
        <ele>1861.6</ele>
        <time>2016-05-06T14:48:45Z</time>
      </trkpt>
      <trkpt lat="45.62667" lon="6.86691">
        <ele>1861.6</ele>
        <time>2016-05-06T14:48:47Z</time>
      </trkpt>
      <trkpt lat="45.62667" lon="6.86691">
        <ele>1861.6</ele>
        <time>2016-05-06T14:48:49Z</time>
      </trkpt>
      <trkpt lat="45.62667" lon="6.86691">
        <ele>1861.5</ele>
        <time>2016-05-06T14:48:51Z</time>
      </trkpt>
      <trkpt lat="45.62667" lon="6.86691">
        <ele>1861.5</ele>
        <time>2016-05-06T14:48:53Z</time>
      </trkpt>
      <trkpt lat="45.62667" lon="6.86692">
        <ele>1861.8</ele>
        <time>2016-05-06T14:48:55Z</time>
      </trkpt>
      <trkpt lat="45.62667" lon="6.86692">
        <ele>1862</ele>
        <time>2016-05-06T14:48:57Z</time>
      </trkpt>
      <trkpt lat="45.62668" lon="6.86692">
        <ele>1862</ele>
        <time>2016-05-06T14:48:59Z</time>
      </trkpt>
      <trkpt lat="45.62668" lon="6.86692">
        <ele>1862</ele>
        <time>2016-05-06T14:49:01Z</time>
      </trkpt>
      <trkpt lat="45.62668" lon="6.86692">
        <ele>1862</ele>
        <time>2016-05-06T14:49:03Z</time>
      </trkpt>
      <trkpt lat="45.62668" lon="6.86692">
        <ele>1861.9</ele>
        <time>2016-05-06T14:49:05Z</time>
      </trkpt>
      <trkpt lat="45.62668" lon="6.86692">
        <ele>1861.7</ele>
        <time>2016-05-06T14:49:07Z</time>
      </trkpt>
      <trkpt lat="45.62669" lon="6.86692">
        <ele>1861.9</ele>
        <time>2016-05-06T14:49:09Z</time>
      </trkpt>
      <trkpt lat="45.62669" lon="6.86691">
        <ele>1862.1</ele>
        <time>2016-05-06T14:49:11Z</time>
      </trkpt>
      <trkpt lat="45.62669" lon="6.86691">
        <ele>1862.1</ele>
        <time>2016-05-06T14:49:13Z</time>
      </trkpt>
      <trkpt lat="45.62669" lon="6.86691">
        <ele>1862.1</ele>
        <time>2016-05-06T14:49:15Z</time>
      </trkpt>
      <trkpt lat="45.62669" lon="6.86691">
        <ele>1862</ele>
        <time>2016-05-06T14:49:17Z</time>
      </trkpt>
      <trkpt lat="45.62669" lon="6.86691">
        <ele>1862</ele>
        <time>2016-05-06T14:49:19Z</time>
      </trkpt>
      <trkpt lat="45.62669" lon="6.86691">
        <ele>1861.9</ele>
        <time>2016-05-06T14:49:21Z</time>
      </trkpt>
      <trkpt lat="45.6267" lon="6.86691">
        <ele>1861.8</ele>
        <time>2016-05-06T14:49:23Z</time>
      </trkpt>
      <trkpt lat="45.6267" lon="6.86691">
        <ele>1861.8</ele>
        <time>2016-05-06T14:49:25Z</time>
      </trkpt>
      <trkpt lat="45.6267" lon="6.8669">
        <ele>1861.8</ele>
        <time>2016-05-06T14:49:27Z</time>
      </trkpt>
      <trkpt lat="45.6267" lon="6.8669">
        <ele>1861.8</ele>
        <time>2016-05-06T14:49:29Z</time>
      </trkpt>
      <trkpt lat="45.6267" lon="6.8669">
        <ele>1861.6</ele>
        <time>2016-05-06T14:49:31Z</time>
      </trkpt>
      <trkpt lat="45.6267" lon="6.8669">
        <ele>1861.4</ele>
        <time>2016-05-06T14:49:33Z</time>
      </trkpt>
      <trkpt lat="45.6267" lon="6.8669">
        <ele>1861.4</ele>
        <time>2016-05-06T14:49:35Z</time>
      </trkpt>
      <trkpt lat="45.6267" lon="6.8669">
        <ele>1861.5</ele>
        <time>2016-05-06T14:49:37Z</time>
      </trkpt>
      <trkpt lat="45.6267" lon="6.8669">
        <ele>1861.6</ele>
        <time>2016-05-06T14:49:39Z</time>
      </trkpt>
      <trkpt lat="45.6267" lon="6.8669">
        <ele>1861.6</ele>
        <time>2016-05-06T14:49:41Z</time>
      </trkpt>
      <trkpt lat="45.6267" lon="6.86691">
        <ele>1861.6</ele>
        <time>2016-05-06T14:49:43Z</time>
      </trkpt>
      <trkpt lat="45.6267" lon="6.86691">
        <ele>1861.7</ele>
        <time>2016-05-06T14:49:45Z</time>
      </trkpt>
      <trkpt lat="45.6267" lon="6.86691">
        <ele>1861.7</ele>
        <time>2016-05-06T14:49:47Z</time>
      </trkpt>
      <trkpt lat="45.6267" lon="6.86691">
        <ele>1861.6</ele>
        <time>2016-05-06T14:49:49Z</time>
      </trkpt>
      <trkpt lat="45.6267" lon="6.86691">
        <ele>1861.6</ele>
        <time>2016-05-06T14:49:51Z</time>
      </trkpt>
      <trkpt lat="45.6267" lon="6.86691">
        <ele>1861.6</ele>
        <time>2016-05-06T14:49:53Z</time>
      </trkpt>
      <trkpt lat="45.6267" lon="6.86691">
        <ele>1861.6</ele>
        <time>2016-05-06T14:49:55Z</time>
      </trkpt>
      <trkpt lat="45.6267" lon="6.86691">
        <ele>1861.5</ele>
        <time>2016-05-06T14:49:57Z</time>
      </trkpt>
      <trkpt lat="45.62669" lon="6.86692">
        <ele>1861.7</ele>
        <time>2016-05-06T14:49:59Z</time>
      </trkpt>
      <trkpt lat="45.62669" lon="6.86692">
        <ele>1861.6</ele>
        <time>2016-05-06T14:50:01Z</time>
      </trkpt>
      <trkpt lat="45.62669" lon="6.86692">
        <ele>1861.5</ele>
        <time>2016-05-06T14:50:03Z</time>
      </trkpt>
      <trkpt lat="45.62669" lon="6.86692">
        <ele>1861.7</ele>
        <time>2016-05-06T14:50:05Z</time>
      </trkpt>
      <trkpt lat="45.62669" lon="6.86692">
        <ele>1861.8</ele>
        <time>2016-05-06T14:50:07Z</time>
      </trkpt>
      <trkpt lat="45.62669" lon="6.86692">
        <ele>1861.6</ele>
        <time>2016-05-06T14:50:09Z</time>
      </trkpt>
      <trkpt lat="45.62669" lon="6.86692">
        <ele>1861.5</ele>
        <time>2016-05-06T14:50:11Z</time>
      </trkpt>
      <trkpt lat="45.62669" lon="6.86692">
        <ele>1861.6</ele>
        <time>2016-05-06T14:50:13Z</time>
      </trkpt>
      <trkpt lat="45.62669" lon="6.86693">
        <ele>1861.6</ele>
        <time>2016-05-06T14:50:15Z</time>
      </trkpt>
      <trkpt lat="45.62669" lon="6.86693">
        <ele>1861.5</ele>
        <time>2016-05-06T14:50:17Z</time>
      </trkpt>
      <trkpt lat="45.62669" lon="6.86693">
        <ele>1861.6</ele>
        <time>2016-05-06T14:50:19Z</time>
      </trkpt>
      <trkpt lat="45.62669" lon="6.86693">
        <ele>1861.7</ele>
        <time>2016-05-06T14:50:21Z</time>
      </trkpt>
      <trkpt lat="45.62669" lon="6.86693">
        <ele>1861.7</ele>
        <time>2016-05-06T14:50:23Z</time>
      </trkpt>
      <trkpt lat="45.62669" lon="6.86693">
        <ele>1861.6</ele>
        <time>2016-05-06T14:50:25Z</time>
      </trkpt>
      <trkpt lat="45.62669" lon="6.86693">
        <ele>1861.5</ele>
        <time>2016-05-06T14:50:27Z</time>
      </trkpt>
      <trkpt lat="45.62669" lon="6.86694">
        <ele>1861.4</ele>
        <time>2016-05-06T14:50:29Z</time>
      </trkpt>
      <trkpt lat="45.62669" lon="6.86694">
        <ele>1861.5</ele>
        <time>2016-05-06T14:50:31Z</time>
      </trkpt>
      <trkpt lat="45.62669" lon="6.86694">
        <ele>1861.5</ele>
        <time>2016-05-06T14:50:33Z</time>
      </trkpt>
      <trkpt lat="45.62669" lon="6.86694">
        <ele>1861.6</ele>
        <time>2016-05-06T14:50:35Z</time>
      </trkpt>
      <trkpt lat="45.62669" lon="6.86694">
        <ele>1861.6</ele>
        <time>2016-05-06T14:50:37Z</time>
      </trkpt>
      <trkpt lat="45.62669" lon="6.86694">
        <ele>1861.7</ele>
        <time>2016-05-06T14:50:39Z</time>
      </trkpt>
      <trkpt lat="45.62669" lon="6.86694">
        <ele>1861.8</ele>
        <time>2016-05-06T14:50:41Z</time>
      </trkpt>
      <trkpt lat="45.62669" lon="6.86694">
        <ele>1861.8</ele>
        <time>2016-05-06T14:50:43Z</time>
      </trkpt>
      <trkpt lat="45.62669" lon="6.86694">
        <ele>1861.9</ele>
        <time>2016-05-06T14:50:45Z</time>
      </trkpt>
      <trkpt lat="45.62669" lon="6.86694">
        <ele>1861.9</ele>
        <time>2016-05-06T14:50:47Z</time>
      </trkpt>
      <trkpt lat="45.62669" lon="6.86694">
        <ele>1861.9</ele>
        <time>2016-05-06T14:50:49Z</time>
      </trkpt>
      <trkpt lat="45.6267" lon="6.86694">
        <ele>1861.8</ele>
        <time>2016-05-06T14:50:51Z</time>
      </trkpt>
      <trkpt lat="45.6267" lon="6.86694">
        <ele>1861.7</ele>
        <time>2016-05-06T14:50:53Z</time>
      </trkpt>
      <trkpt lat="45.6267" lon="6.86694">
        <ele>1861.6</ele>
        <time>2016-05-06T14:50:55Z</time>
      </trkpt>
      <trkpt lat="45.62671" lon="6.86693">
        <ele>1861.6</ele>
        <time>2016-05-06T14:50:57Z</time>
      </trkpt>
      <trkpt lat="45.62671" lon="6.86693">
        <ele>1861.4</ele>
        <time>2016-05-06T14:50:59Z</time>
      </trkpt>
      <trkpt lat="45.62671" lon="6.86693">
        <ele>1861.5</ele>
        <time>2016-05-06T14:51:01Z</time>
      </trkpt>
      <trkpt lat="45.62671" lon="6.86694">
        <ele>1861.5</ele>
        <time>2016-05-06T14:51:03Z</time>
      </trkpt>
      <trkpt lat="45.62671" lon="6.86694">
        <ele>1861.3</ele>
        <time>2016-05-06T14:51:05Z</time>
      </trkpt>
      <trkpt lat="45.62671" lon="6.86694">
        <ele>1861.2</ele>
        <time>2016-05-06T14:51:07Z</time>
      </trkpt>
      <trkpt lat="45.62672" lon="6.86694">
        <ele>1861.2</ele>
        <time>2016-05-06T14:51:09Z</time>
      </trkpt>
      <trkpt lat="45.62672" lon="6.86694">
        <ele>1861.3</ele>
        <time>2016-05-06T14:51:11Z</time>
      </trkpt>
      <trkpt lat="45.62672" lon="6.86693">
        <ele>1861.4</ele>
        <time>2016-05-06T14:51:13Z</time>
      </trkpt>
      <trkpt lat="45.62672" lon="6.86694">
        <ele>1861.4</ele>
        <time>2016-05-06T14:51:15Z</time>
      </trkpt>
      <trkpt lat="45.62672" lon="6.86693">
        <ele>1861.3</ele>
        <time>2016-05-06T14:51:17Z</time>
      </trkpt>
      <trkpt lat="45.62672" lon="6.86693">
        <ele>1861.1</ele>
        <time>2016-05-06T14:51:19Z</time>
      </trkpt>
      <trkpt lat="45.62673" lon="6.86693">
        <ele>1861.1</ele>
        <time>2016-05-06T14:51:21Z</time>
      </trkpt>
      <trkpt lat="45.62673" lon="6.86693">
        <ele>1861</ele>
        <time>2016-05-06T14:51:23Z</time>
      </trkpt>
      <trkpt lat="45.62673" lon="6.86692">
        <ele>1861</ele>
        <time>2016-05-06T14:51:25Z</time>
      </trkpt>
      <trkpt lat="45.62673" lon="6.86692">
        <ele>1860.9</ele>
        <time>2016-05-06T14:51:27Z</time>
      </trkpt>
      <trkpt lat="45.62674" lon="6.86692">
        <ele>1861</ele>
        <time>2016-05-06T14:51:29Z</time>
      </trkpt>
      <trkpt lat="45.62674" lon="6.86691">
        <ele>1861.1</ele>
        <time>2016-05-06T14:51:31Z</time>
      </trkpt>
      <trkpt lat="45.62674" lon="6.86691">
        <ele>1861.3</ele>
        <time>2016-05-06T14:51:33Z</time>
      </trkpt>
      <trkpt lat="45.62674" lon="6.86691">
        <ele>1861.4</ele>
        <time>2016-05-06T14:51:35Z</time>
      </trkpt>
      <trkpt lat="45.62674" lon="6.86691">
        <ele>1861.4</ele>
        <time>2016-05-06T14:51:37Z</time>
      </trkpt>
      <trkpt lat="45.62675" lon="6.86691">
        <ele>1861.4</ele>
        <time>2016-05-06T14:51:39Z</time>
      </trkpt>
      <trkpt lat="45.62675" lon="6.86691">
        <ele>1861.4</ele>
        <time>2016-05-06T14:51:41Z</time>
      </trkpt>
      <trkpt lat="45.62675" lon="6.86691">
        <ele>1861.4</ele>
        <time>2016-05-06T14:51:43Z</time>
      </trkpt>
      <trkpt lat="45.62675" lon="6.86691">
        <ele>1861.3</ele>
        <time>2016-05-06T14:51:45Z</time>
      </trkpt>
      <trkpt lat="45.62675" lon="6.86691">
        <ele>1861.3</ele>
        <time>2016-05-06T14:51:47Z</time>
      </trkpt>
      <trkpt lat="45.62675" lon="6.86691">
        <ele>1861.2</ele>
        <time>2016-05-06T14:51:49Z</time>
      </trkpt>
      <trkpt lat="45.62675" lon="6.86691">
        <ele>1861.1</ele>
        <time>2016-05-06T14:51:51Z</time>
      </trkpt>
      <trkpt lat="45.62675" lon="6.86691">
        <ele>1861.3</ele>
        <time>2016-05-06T14:51:53Z</time>
      </trkpt>
      <trkpt lat="45.62676" lon="6.86692">
        <ele>1861.3</ele>
        <time>2016-05-06T14:51:55Z</time>
      </trkpt>
      <trkpt lat="45.62676" lon="6.86692">
        <ele>1861.3</ele>
        <time>2016-05-06T14:51:57Z</time>
      </trkpt>
      <trkpt lat="45.62676" lon="6.86692">
        <ele>1861.2</ele>
        <time>2016-05-06T14:51:59Z</time>
      </trkpt>
      <trkpt lat="45.62676" lon="6.86692">
        <ele>1861.2</ele>
        <time>2016-05-06T14:52:01Z</time>
      </trkpt>
      <trkpt lat="45.62677" lon="6.86692">
        <ele>1861.2</ele>
        <time>2016-05-06T14:52:03Z</time>
      </trkpt>
      <trkpt lat="45.62677" lon="6.86692">
        <ele>1861.2</ele>
        <time>2016-05-06T14:52:05Z</time>
      </trkpt>
      <trkpt lat="45.62677" lon="6.86692">
        <ele>1861.1</ele>
        <time>2016-05-06T14:52:07Z</time>
      </trkpt>
      <trkpt lat="45.62677" lon="6.86692">
        <ele>1861.1</ele>
        <time>2016-05-06T14:52:09Z</time>
      </trkpt>
      <trkpt lat="45.62678" lon="6.86692">
        <ele>1861.1</ele>
        <time>2016-05-06T14:52:11Z</time>
      </trkpt>
      <trkpt lat="45.62678" lon="6.86692">
        <ele>1861.1</ele>
        <time>2016-05-06T14:52:13Z</time>
      </trkpt>
      <trkpt lat="45.62678" lon="6.86692">
        <ele>1861.1</ele>
        <time>2016-05-06T14:52:15Z</time>
      </trkpt>
      <trkpt lat="45.62678" lon="6.86692">
        <ele>1861.1</ele>
        <time>2016-05-06T14:52:17Z</time>
      </trkpt>
      <trkpt lat="45.62678" lon="6.86691">
        <ele>1861.1</ele>
        <time>2016-05-06T14:52:19Z</time>
      </trkpt>
      <trkpt lat="45.62678" lon="6.86691">
        <ele>1860.9</ele>
        <time>2016-05-06T14:52:21Z</time>
      </trkpt>
      <trkpt lat="45.62678" lon="6.86691">
        <ele>1860.8</ele>
        <time>2016-05-06T14:52:23Z</time>
      </trkpt>
      <trkpt lat="45.62678" lon="6.86691">
        <ele>1860.7</ele>
        <time>2016-05-06T14:52:25Z</time>
      </trkpt>
      <trkpt lat="45.62678" lon="6.86691">
        <ele>1860.8</ele>
        <time>2016-05-06T14:52:27Z</time>
      </trkpt>
      <trkpt lat="45.62678" lon="6.86691">
        <ele>1860.6</ele>
        <time>2016-05-06T14:52:29Z</time>
      </trkpt>
      <trkpt lat="45.62678" lon="6.86691">
        <ele>1860.1</ele>
        <time>2016-05-06T14:52:31Z</time>
      </trkpt>
      <trkpt lat="45.62678" lon="6.8669">
        <ele>1860</ele>
        <time>2016-05-06T14:52:33Z</time>
      </trkpt>
      <trkpt lat="45.62678" lon="6.8669">
        <ele>1860.3</ele>
        <time>2016-05-06T14:52:35Z</time>
      </trkpt>
      <trkpt lat="45.62678" lon="6.8669">
        <ele>1860.4</ele>
        <time>2016-05-06T14:52:37Z</time>
      </trkpt>
      <trkpt lat="45.62678" lon="6.8669">
        <ele>1860.3</ele>
        <time>2016-05-06T14:52:39Z</time>
      </trkpt>
      <trkpt lat="45.62678" lon="6.8669">
        <ele>1860.6</ele>
        <time>2016-05-06T14:52:41Z</time>
      </trkpt>
      <trkpt lat="45.62678" lon="6.8669">
        <ele>1860.6</ele>
        <time>2016-05-06T14:52:43Z</time>
      </trkpt>
      <trkpt lat="45.62678" lon="6.8669">
        <ele>1860.6</ele>
        <time>2016-05-06T14:52:45Z</time>
      </trkpt>
      <trkpt lat="45.62678" lon="6.8669">
        <ele>1860.6</ele>
        <time>2016-05-06T14:52:47Z</time>
      </trkpt>
      <trkpt lat="45.62678" lon="6.86689">
        <ele>1860.6</ele>
        <time>2016-05-06T14:52:49Z</time>
      </trkpt>
      <trkpt lat="45.62678" lon="6.86689">
        <ele>1860.6</ele>
        <time>2016-05-06T14:52:51Z</time>
      </trkpt>
      <trkpt lat="45.62678" lon="6.86689">
        <ele>1860.5</ele>
        <time>2016-05-06T14:52:53Z</time>
      </trkpt>
      <trkpt lat="45.62678" lon="6.86689">
        <ele>1860.8</ele>
        <time>2016-05-06T14:52:55Z</time>
      </trkpt>
      <trkpt lat="45.62677" lon="6.86689">
        <ele>1861</ele>
        <time>2016-05-06T14:52:57Z</time>
      </trkpt>
      <trkpt lat="45.62677" lon="6.86689">
        <ele>1861</ele>
        <time>2016-05-06T14:52:59Z</time>
      </trkpt>
      <trkpt lat="45.62677" lon="6.86689">
        <ele>1861</ele>
        <time>2016-05-06T14:53:01Z</time>
      </trkpt>
      <trkpt lat="45.62677" lon="6.86689">
        <ele>1860.9</ele>
        <time>2016-05-06T14:53:03Z</time>
      </trkpt>
      <trkpt lat="45.62677" lon="6.86689">
        <ele>1860.8</ele>
        <time>2016-05-06T14:53:05Z</time>
      </trkpt>
      <trkpt lat="45.62676" lon="6.86689">
        <ele>1860.8</ele>
        <time>2016-05-06T14:53:07Z</time>
      </trkpt>
      <trkpt lat="45.62676" lon="6.86689">
        <ele>1860.9</ele>
        <time>2016-05-06T14:53:09Z</time>
      </trkpt>
      <trkpt lat="45.62676" lon="6.86689">
        <ele>1861</ele>
        <time>2016-05-06T14:53:11Z</time>
      </trkpt>
      <trkpt lat="45.62676" lon="6.86689">
        <ele>1860.9</ele>
        <time>2016-05-06T14:53:13Z</time>
      </trkpt>
      <trkpt lat="45.62675" lon="6.86689">
        <ele>1860.9</ele>
        <time>2016-05-06T14:53:15Z</time>
      </trkpt>
      <trkpt lat="45.62675" lon="6.86689">
        <ele>1860.9</ele>
        <time>2016-05-06T14:53:17Z</time>
      </trkpt>
      <trkpt lat="45.62674" lon="6.86689">
        <ele>1860.9</ele>
        <time>2016-05-06T14:53:19Z</time>
      </trkpt>
      <trkpt lat="45.62674" lon="6.86689">
        <ele>1861</ele>
        <time>2016-05-06T14:53:21Z</time>
      </trkpt>
      <trkpt lat="45.62674" lon="6.8669">
        <ele>1861.1</ele>
        <time>2016-05-06T14:53:23Z</time>
      </trkpt>
      <trkpt lat="45.62674" lon="6.86689">
        <ele>1861.3</ele>
        <time>2016-05-06T14:53:25Z</time>
      </trkpt>
      <trkpt lat="45.62674" lon="6.86689">
        <ele>1861.4</ele>
        <time>2016-05-06T14:53:27Z</time>
      </trkpt>
      <trkpt lat="45.62674" lon="6.8669">
        <ele>1861.3</ele>
        <time>2016-05-06T14:53:29Z</time>
      </trkpt>
      <trkpt lat="45.62674" lon="6.8669">
        <ele>1861.3</ele>
        <time>2016-05-06T14:53:31Z</time>
      </trkpt>
      <trkpt lat="45.62674" lon="6.8669">
        <ele>1861.1</ele>
        <time>2016-05-06T14:53:33Z</time>
      </trkpt>
      <trkpt lat="45.62674" lon="6.8669">
        <ele>1861.3</ele>
        <time>2016-05-06T14:53:35Z</time>
      </trkpt>
      <trkpt lat="45.62674" lon="6.8669">
        <ele>1861.3</ele>
        <time>2016-05-06T14:53:37Z</time>
      </trkpt>
      <trkpt lat="45.62674" lon="6.8669">
        <ele>1861.4</ele>
        <time>2016-05-06T14:53:39Z</time>
      </trkpt>
      <trkpt lat="45.62674" lon="6.8669">
        <ele>1861.4</ele>
        <time>2016-05-06T14:53:41Z</time>
      </trkpt>
      <trkpt lat="45.62674" lon="6.86691">
        <ele>1861.2</ele>
        <time>2016-05-06T14:53:43Z</time>
      </trkpt>
      <trkpt lat="45.62674" lon="6.86691">
        <ele>1861.3</ele>
        <time>2016-05-06T14:53:45Z</time>
      </trkpt>
      <trkpt lat="45.62674" lon="6.86691">
        <ele>1861.3</ele>
        <time>2016-05-06T14:53:47Z</time>
      </trkpt>
      <trkpt lat="45.62674" lon="6.86692">
        <ele>1861.2</ele>
        <time>2016-05-06T14:53:49Z</time>
      </trkpt>
      <trkpt lat="45.62674" lon="6.86692">
        <ele>1861.2</ele>
        <time>2016-05-06T14:53:51Z</time>
      </trkpt>
      <trkpt lat="45.62675" lon="6.86692">
        <ele>1861.1</ele>
        <time>2016-05-06T14:53:53Z</time>
      </trkpt>
      <trkpt lat="45.62675" lon="6.86692">
        <ele>1861.1</ele>
        <time>2016-05-06T14:53:55Z</time>
      </trkpt>
      <trkpt lat="45.62675" lon="6.86692">
        <ele>1861.2</ele>
        <time>2016-05-06T14:53:57Z</time>
      </trkpt>
      <trkpt lat="45.62675" lon="6.86693">
        <ele>1861.3</ele>
        <time>2016-05-06T14:53:59Z</time>
      </trkpt>
      <trkpt lat="45.62675" lon="6.86693">
        <ele>1861.3</ele>
        <time>2016-05-06T14:54:01Z</time>
      </trkpt>
      <trkpt lat="45.62675" lon="6.86693">
        <ele>1861.1</ele>
        <time>2016-05-06T14:54:03Z</time>
      </trkpt>
      <trkpt lat="45.62676" lon="6.86693">
        <ele>1861</ele>
        <time>2016-05-06T14:54:05Z</time>
      </trkpt>
      <trkpt lat="45.62676" lon="6.86694">
        <ele>1861</ele>
        <time>2016-05-06T14:54:07Z</time>
      </trkpt>
      <trkpt lat="45.62676" lon="6.86694">
        <ele>1861</ele>
        <time>2016-05-06T14:54:09Z</time>
      </trkpt>
      <trkpt lat="45.62676" lon="6.86694">
        <ele>1861</ele>
        <time>2016-05-06T14:54:11Z</time>
      </trkpt>
      <trkpt lat="45.62676" lon="6.86694">
        <ele>1861</ele>
        <time>2016-05-06T14:54:13Z</time>
      </trkpt>
      <trkpt lat="45.62677" lon="6.86694">
        <ele>1860.9</ele>
        <time>2016-05-06T14:54:15Z</time>
      </trkpt>
      <trkpt lat="45.62677" lon="6.86694">
        <ele>1860.9</ele>
        <time>2016-05-06T14:54:17Z</time>
      </trkpt>
      <trkpt lat="45.62677" lon="6.86694">
        <ele>1861</ele>
        <time>2016-05-06T14:54:19Z</time>
      </trkpt>
      <trkpt lat="45.62677" lon="6.86694">
        <ele>1861.1</ele>
        <time>2016-05-06T14:54:21Z</time>
      </trkpt>
      <trkpt lat="45.62678" lon="6.86694">
        <ele>1861.1</ele>
        <time>2016-05-06T14:54:23Z</time>
      </trkpt>
      <trkpt lat="45.62678" lon="6.86694">
        <ele>1861</ele>
        <time>2016-05-06T14:54:25Z</time>
      </trkpt>
      <trkpt lat="45.62679" lon="6.86694">
        <ele>1861</ele>
        <time>2016-05-06T14:54:27Z</time>
      </trkpt>
      <trkpt lat="45.62679" lon="6.86694">
        <ele>1861</ele>
        <time>2016-05-06T14:54:29Z</time>
      </trkpt>
      <trkpt lat="45.6268" lon="6.86694">
        <ele>1861</ele>
        <time>2016-05-06T14:54:31Z</time>
      </trkpt>
      <trkpt lat="45.6268" lon="6.86693">
        <ele>1861</ele>
        <time>2016-05-06T14:54:33Z</time>
      </trkpt>
      <trkpt lat="45.62681" lon="6.86693">
        <ele>1861.1</ele>
        <time>2016-05-06T14:54:35Z</time>
      </trkpt>
      <trkpt lat="45.62681" lon="6.86693">
        <ele>1861.2</ele>
        <time>2016-05-06T14:54:37Z</time>
      </trkpt>
      <trkpt lat="45.62682" lon="6.86693">
        <ele>1861.2</ele>
        <time>2016-05-06T14:54:39Z</time>
      </trkpt>
      <trkpt lat="45.62683" lon="6.86692">
        <ele>1861.2</ele>
        <time>2016-05-06T14:54:41Z</time>
      </trkpt>
      <trkpt lat="45.62684" lon="6.86692">
        <ele>1861.2</ele>
        <time>2016-05-06T14:54:43Z</time>
      </trkpt>
      <trkpt lat="45.62684" lon="6.86692">
        <ele>1861.2</ele>
        <time>2016-05-06T14:54:45Z</time>
      </trkpt>
      <trkpt lat="45.62684" lon="6.86692">
        <ele>1860.9</ele>
        <time>2016-05-06T14:54:47Z</time>
      </trkpt>
      <trkpt lat="45.62685" lon="6.86692">
        <ele>1860.8</ele>
        <time>2016-05-06T14:54:49Z</time>
      </trkpt>
      <trkpt lat="45.62685" lon="6.86692">
        <ele>1860.5</ele>
        <time>2016-05-06T14:54:51Z</time>
      </trkpt>
      <trkpt lat="45.62685" lon="6.86692">
        <ele>1860.2</ele>
        <time>2016-05-06T14:54:53Z</time>
      </trkpt>
      <trkpt lat="45.62685" lon="6.86692">
        <ele>1860.2</ele>
        <time>2016-05-06T14:54:55Z</time>
      </trkpt>
      <trkpt lat="45.62685" lon="6.86692">
        <ele>1860.4</ele>
        <time>2016-05-06T14:54:57Z</time>
      </trkpt>
      <trkpt lat="45.62685" lon="6.86692">
        <ele>1860.4</ele>
        <time>2016-05-06T14:54:59Z</time>
      </trkpt>
      <trkpt lat="45.62685" lon="6.86692">
        <ele>1860.5</ele>
        <time>2016-05-06T14:55:01Z</time>
      </trkpt>
      <trkpt lat="45.62685" lon="6.86692">
        <ele>1860.5</ele>
        <time>2016-05-06T14:55:03Z</time>
      </trkpt>
      <trkpt lat="45.62685" lon="6.86692">
        <ele>1860.5</ele>
        <time>2016-05-06T14:55:05Z</time>
      </trkpt>
      <trkpt lat="45.62685" lon="6.86692">
        <ele>1860.4</ele>
        <time>2016-05-06T14:55:07Z</time>
      </trkpt>
      <trkpt lat="45.62684" lon="6.86692">
        <ele>1860.5</ele>
        <time>2016-05-06T14:55:09Z</time>
      </trkpt>
      <trkpt lat="45.62684" lon="6.86692">
        <ele>1860.5</ele>
        <time>2016-05-06T14:55:11Z</time>
      </trkpt>
      <trkpt lat="45.62684" lon="6.86693">
        <ele>1860.5</ele>
        <time>2016-05-06T14:55:13Z</time>
      </trkpt>
      <trkpt lat="45.62683" lon="6.86693">
        <ele>1860.6</ele>
        <time>2016-05-06T14:55:15Z</time>
      </trkpt>
      <trkpt lat="45.62683" lon="6.86693">
        <ele>1860.5</ele>
        <time>2016-05-06T14:55:17Z</time>
      </trkpt>
      <trkpt lat="45.62683" lon="6.86694">
        <ele>1860.5</ele>
        <time>2016-05-06T14:55:19Z</time>
      </trkpt>
      <trkpt lat="45.62683" lon="6.86694">
        <ele>1860.6</ele>
        <time>2016-05-06T14:55:21Z</time>
      </trkpt>
      <trkpt lat="45.62683" lon="6.86694">
        <ele>1860.6</ele>
        <time>2016-05-06T14:55:23Z</time>
      </trkpt>
      <trkpt lat="45.62682" lon="6.86694">
        <ele>1860.7</ele>
        <time>2016-05-06T14:55:25Z</time>
      </trkpt>
      <trkpt lat="45.62682" lon="6.86695">
        <ele>1860.8</ele>
        <time>2016-05-06T14:55:27Z</time>
      </trkpt>
      <trkpt lat="45.62681" lon="6.86695">
        <ele>1860.9</ele>
        <time>2016-05-06T14:55:29Z</time>
      </trkpt>
      <trkpt lat="45.6268" lon="6.86696">
        <ele>1860.9</ele>
        <time>2016-05-06T14:55:31Z</time>
      </trkpt>
      <trkpt lat="45.62679" lon="6.86697">
        <ele>1860.8</ele>
        <time>2016-05-06T14:55:33Z</time>
      </trkpt>
      <trkpt lat="45.62679" lon="6.86698">
        <ele>1860.6</ele>
        <time>2016-05-06T14:55:35Z</time>
      </trkpt>
      <trkpt lat="45.62678" lon="6.86698">
        <ele>1860.6</ele>
        <time>2016-05-06T14:55:37Z</time>
      </trkpt>
      <trkpt lat="45.62678" lon="6.86699">
        <ele>1860.6</ele>
        <time>2016-05-06T14:55:39Z</time>
      </trkpt>
      <trkpt lat="45.62678" lon="6.86699">
        <ele>1860.6</ele>
        <time>2016-05-06T14:55:41Z</time>
      </trkpt>
      <trkpt lat="45.62677" lon="6.867">
        <ele>1860.6</ele>
        <time>2016-05-06T14:55:43Z</time>
      </trkpt>
      <trkpt lat="45.62677" lon="6.867">
        <ele>1860.7</ele>
        <time>2016-05-06T14:55:45Z</time>
      </trkpt>
      <trkpt lat="45.62677" lon="6.86701">
        <ele>1860.7</ele>
        <time>2016-05-06T14:55:47Z</time>
      </trkpt>
      <trkpt lat="45.62676" lon="6.86701">
        <ele>1860.7</ele>
        <time>2016-05-06T14:55:49Z</time>
      </trkpt>
      <trkpt lat="45.62676" lon="6.86702">
        <ele>1860.6</ele>
        <time>2016-05-06T14:55:51Z</time>
      </trkpt>
      <trkpt lat="45.62675" lon="6.86703">
        <ele>1860.7</ele>
        <time>2016-05-06T14:55:53Z</time>
      </trkpt>
      <trkpt lat="45.62675" lon="6.86703">
        <ele>1860.8</ele>
        <time>2016-05-06T14:55:55Z</time>
      </trkpt>
      <trkpt lat="45.62674" lon="6.86704">
        <ele>1860.9</ele>
        <time>2016-05-06T14:55:57Z</time>
      </trkpt>
      <trkpt lat="45.62674" lon="6.86704">
        <ele>1861</ele>
        <time>2016-05-06T14:55:59Z</time>
      </trkpt>
      <trkpt lat="45.62673" lon="6.86705">
        <ele>1861.1</ele>
        <time>2016-05-06T14:56:01Z</time>
      </trkpt>
      <trkpt lat="45.62672" lon="6.86705">
        <ele>1861.1</ele>
        <time>2016-05-06T14:56:03Z</time>
      </trkpt>
      <trkpt lat="45.62671" lon="6.86706">
        <ele>1861.2</ele>
        <time>2016-05-06T14:56:05Z</time>
      </trkpt>
      <trkpt lat="45.62671" lon="6.86706">
        <ele>1861.2</ele>
        <time>2016-05-06T14:56:07Z</time>
      </trkpt>
      <trkpt lat="45.62671" lon="6.86706">
        <ele>1861.2</ele>
        <time>2016-05-06T14:56:09Z</time>
      </trkpt>
      <trkpt lat="45.62671" lon="6.86706">
        <ele>1861.1</ele>
        <time>2016-05-06T14:56:11Z</time>
      </trkpt>
      <trkpt lat="45.62671" lon="6.86706">
        <ele>1861.1</ele>
        <time>2016-05-06T14:56:13Z</time>
      </trkpt>
      <trkpt lat="45.6267" lon="6.86706">
        <ele>1861</ele>
        <time>2016-05-06T14:56:15Z</time>
      </trkpt>
      <trkpt lat="45.6267" lon="6.86707">
        <ele>1861</ele>
        <time>2016-05-06T14:56:17Z</time>
      </trkpt>
      <trkpt lat="45.6267" lon="6.86707">
        <ele>1860.9</ele>
        <time>2016-05-06T14:56:19Z</time>
      </trkpt>
      <trkpt lat="45.6267" lon="6.86707">
        <ele>1861.1</ele>
        <time>2016-05-06T14:56:21Z</time>
      </trkpt>
      <trkpt lat="45.6267" lon="6.86707">
        <ele>1861.4</ele>
        <time>2016-05-06T14:56:23Z</time>
      </trkpt>
      <trkpt lat="45.6267" lon="6.86707">
        <ele>1861.5</ele>
        <time>2016-05-06T14:56:25Z</time>
      </trkpt>
      <trkpt lat="45.62671" lon="6.86707">
        <ele>1861.6</ele>
        <time>2016-05-06T14:56:27Z</time>
      </trkpt>
      <trkpt lat="45.62671" lon="6.86707">
        <ele>1861.6</ele>
        <time>2016-05-06T14:56:29Z</time>
      </trkpt>
      <trkpt lat="45.62671" lon="6.86706">
        <ele>1861.7</ele>
        <time>2016-05-06T14:56:31Z</time>
      </trkpt>
      <trkpt lat="45.62671" lon="6.86706">
        <ele>1861.8</ele>
        <time>2016-05-06T14:56:33Z</time>
      </trkpt>
      <trkpt lat="45.62672" lon="6.86706">
        <ele>1861.9</ele>
        <time>2016-05-06T14:56:35Z</time>
      </trkpt>
      <trkpt lat="45.62672" lon="6.86706">
        <ele>1861.8</ele>
        <time>2016-05-06T14:56:37Z</time>
      </trkpt>
      <trkpt lat="45.62672" lon="6.86706">
        <ele>1861.7</ele>
        <time>2016-05-06T14:56:39Z</time>
      </trkpt>
      <trkpt lat="45.62673" lon="6.86705">
        <ele>1861.7</ele>
        <time>2016-05-06T14:56:41Z</time>
      </trkpt>
      <trkpt lat="45.62673" lon="6.86705">
        <ele>1861.5</ele>
        <time>2016-05-06T14:56:43Z</time>
      </trkpt>
      <trkpt lat="45.62673" lon="6.86705">
        <ele>1861.3</ele>
        <time>2016-05-06T14:56:45Z</time>
      </trkpt>
      <trkpt lat="45.62673" lon="6.86704">
        <ele>1861.4</ele>
        <time>2016-05-06T14:56:47Z</time>
      </trkpt>
      <trkpt lat="45.62673" lon="6.86704">
        <ele>1861.6</ele>
        <time>2016-05-06T14:56:49Z</time>
      </trkpt>
      <trkpt lat="45.62673" lon="6.86703">
        <ele>1861.6</ele>
        <time>2016-05-06T14:56:51Z</time>
      </trkpt>
      <trkpt lat="45.62673" lon="6.86703">
        <ele>1861.7</ele>
        <time>2016-05-06T14:56:53Z</time>
      </trkpt>
      <trkpt lat="45.62674" lon="6.86703">
        <ele>1861.6</ele>
        <time>2016-05-06T14:56:55Z</time>
      </trkpt>
      <trkpt lat="45.62674" lon="6.86702">
        <ele>1861.5</ele>
        <time>2016-05-06T14:56:57Z</time>
      </trkpt>
      <trkpt lat="45.62674" lon="6.86702">
        <ele>1861.3</ele>
        <time>2016-05-06T14:56:59Z</time>
      </trkpt>
      <trkpt lat="45.62674" lon="6.86702">
        <ele>1861.2</ele>
        <time>2016-05-06T14:57:01Z</time>
      </trkpt>
      <trkpt lat="45.62674" lon="6.86702">
        <ele>1861.1</ele>
        <time>2016-05-06T14:57:03Z</time>
      </trkpt>
      <trkpt lat="45.62673" lon="6.86702">
        <ele>1861</ele>
        <time>2016-05-06T14:57:05Z</time>
      </trkpt>
      <trkpt lat="45.62673" lon="6.86702">
        <ele>1861</ele>
        <time>2016-05-06T14:57:07Z</time>
      </trkpt>
      <trkpt lat="45.62673" lon="6.86702">
        <ele>1861.1</ele>
        <time>2016-05-06T14:57:09Z</time>
      </trkpt>
      <trkpt lat="45.62673" lon="6.86701">
        <ele>1861.3</ele>
        <time>2016-05-06T14:57:11Z</time>
      </trkpt>
      <trkpt lat="45.62673" lon="6.86701">
        <ele>1861.4</ele>
        <time>2016-05-06T14:57:13Z</time>
      </trkpt>
      <trkpt lat="45.62673" lon="6.86701">
        <ele>1861.4</ele>
        <time>2016-05-06T14:57:15Z</time>
      </trkpt>
      <trkpt lat="45.62673" lon="6.867">
        <ele>1861.5</ele>
        <time>2016-05-06T14:57:17Z</time>
      </trkpt>
      <trkpt lat="45.62673" lon="6.867">
        <ele>1861.4</ele>
        <time>2016-05-06T14:57:19Z</time>
      </trkpt>
      <trkpt lat="45.62673" lon="6.86699">
        <ele>1861.4</ele>
        <time>2016-05-06T14:57:21Z</time>
      </trkpt>
      <trkpt lat="45.62673" lon="6.86699">
        <ele>1861.7</ele>
        <time>2016-05-06T14:57:23Z</time>
      </trkpt>
      <trkpt lat="45.62673" lon="6.86699">
        <ele>1862</ele>
        <time>2016-05-06T14:57:25Z</time>
      </trkpt>
      <trkpt lat="45.62672" lon="6.86699">
        <ele>1862</ele>
        <time>2016-05-06T14:57:27Z</time>
      </trkpt>
      <trkpt lat="45.62672" lon="6.86698">
        <ele>1862</ele>
        <time>2016-05-06T14:57:29Z</time>
      </trkpt>
      <trkpt lat="45.62672" lon="6.86698">
        <ele>1862</ele>
        <time>2016-05-06T14:57:31Z</time>
      </trkpt>
      <trkpt lat="45.62672" lon="6.86698">
        <ele>1862</ele>
        <time>2016-05-06T14:57:33Z</time>
      </trkpt>
      <trkpt lat="45.62672" lon="6.86698">
        <ele>1861.9</ele>
        <time>2016-05-06T14:57:35Z</time>
      </trkpt>
      <trkpt lat="45.62672" lon="6.86698">
        <ele>1861.8</ele>
        <time>2016-05-06T14:57:37Z</time>
      </trkpt>
      <trkpt lat="45.62672" lon="6.86697">
        <ele>1861.8</ele>
        <time>2016-05-06T14:57:39Z</time>
      </trkpt>
      <trkpt lat="45.62672" lon="6.86697">
        <ele>1861.9</ele>
        <time>2016-05-06T14:57:41Z</time>
      </trkpt>
      <trkpt lat="45.62672" lon="6.86697">
        <ele>1861.9</ele>
        <time>2016-05-06T14:57:43Z</time>
      </trkpt>
      <trkpt lat="45.62672" lon="6.86697">
        <ele>1861.9</ele>
        <time>2016-05-06T14:57:45Z</time>
      </trkpt>
      <trkpt lat="45.62672" lon="6.86697">
        <ele>1861.8</ele>
        <time>2016-05-06T14:57:47Z</time>
      </trkpt>
      <trkpt lat="45.62672" lon="6.86697">
        <ele>1861.6</ele>
        <time>2016-05-06T14:57:49Z</time>
      </trkpt>
      <trkpt lat="45.62672" lon="6.86697">
        <ele>1861.7</ele>
        <time>2016-05-06T14:57:51Z</time>
      </trkpt>
      <trkpt lat="45.62673" lon="6.86697">
        <ele>1861.7</ele>
        <time>2016-05-06T14:57:53Z</time>
      </trkpt>
      <trkpt lat="45.62672" lon="6.86697">
        <ele>1861.7</ele>
        <time>2016-05-06T14:57:55Z</time>
      </trkpt>
      <trkpt lat="45.62672" lon="6.86697">
        <ele>1861.6</ele>
        <time>2016-05-06T14:57:57Z</time>
      </trkpt>
      <trkpt lat="45.62672" lon="6.86698">
        <ele>1861.5</ele>
        <time>2016-05-06T14:57:59Z</time>
      </trkpt>
      <trkpt lat="45.62672" lon="6.86698">
        <ele>1861.5</ele>
        <time>2016-05-06T14:58:01Z</time>
      </trkpt>
      <trkpt lat="45.62671" lon="6.86698">
        <ele>1861.5</ele>
        <time>2016-05-06T14:58:03Z</time>
      </trkpt>
      <trkpt lat="45.62671" lon="6.86698">
        <ele>1861.5</ele>
        <time>2016-05-06T14:58:05Z</time>
      </trkpt>
      <trkpt lat="45.62671" lon="6.86698">
        <ele>1861.7</ele>
        <time>2016-05-06T14:58:07Z</time>
      </trkpt>
      <trkpt lat="45.6267" lon="6.86698">
        <ele>1861.7</ele>
        <time>2016-05-06T14:58:09Z</time>
      </trkpt>
      <trkpt lat="45.6267" lon="6.86698">
        <ele>1861.8</ele>
        <time>2016-05-06T14:58:11Z</time>
      </trkpt>
      <trkpt lat="45.6267" lon="6.86697">
        <ele>1861.8</ele>
        <time>2016-05-06T14:58:13Z</time>
      </trkpt>
      <trkpt lat="45.62669" lon="6.86697">
        <ele>1861.8</ele>
        <time>2016-05-06T14:58:15Z</time>
      </trkpt>
      <trkpt lat="45.62669" lon="6.86697">
        <ele>1861.8</ele>
        <time>2016-05-06T14:58:17Z</time>
      </trkpt>
      <trkpt lat="45.62669" lon="6.86697">
        <ele>1861.8</ele>
        <time>2016-05-06T14:58:19Z</time>
      </trkpt>
      <trkpt lat="45.6267" lon="6.86697">
        <ele>1861.8</ele>
        <time>2016-05-06T14:58:21Z</time>
      </trkpt>
      <trkpt lat="45.6267" lon="6.86697">
        <ele>1861.8</ele>
        <time>2016-05-06T14:58:23Z</time>
      </trkpt>
      <trkpt lat="45.6267" lon="6.86697">
        <ele>1861.8</ele>
        <time>2016-05-06T14:58:25Z</time>
      </trkpt>
      <trkpt lat="45.6267" lon="6.86697">
        <ele>1861.8</ele>
        <time>2016-05-06T14:58:27Z</time>
      </trkpt>
      <trkpt lat="45.6267" lon="6.86697">
        <ele>1861.8</ele>
        <time>2016-05-06T14:58:29Z</time>
      </trkpt>
      <trkpt lat="45.62671" lon="6.86696">
        <ele>1861.9</ele>
        <time>2016-05-06T14:58:31Z</time>
      </trkpt>
      <trkpt lat="45.62672" lon="6.86696">
        <ele>1861.9</ele>
        <time>2016-05-06T14:58:33Z</time>
      </trkpt>
      <trkpt lat="45.62672" lon="6.86696">
        <ele>1861.8</ele>
        <time>2016-05-06T14:58:35Z</time>
      </trkpt>
      <trkpt lat="45.62673" lon="6.86695">
        <ele>1861.8</ele>
        <time>2016-05-06T14:58:37Z</time>
      </trkpt>
      <trkpt lat="45.62673" lon="6.86695">
        <ele>1861.8</ele>
        <time>2016-05-06T14:58:39Z</time>
      </trkpt>
      <trkpt lat="45.62673" lon="6.86695">
        <ele>1861.9</ele>
        <time>2016-05-06T14:58:41Z</time>
      </trkpt>
      <trkpt lat="45.62674" lon="6.86695">
        <ele>1861.8</ele>
        <time>2016-05-06T14:58:43Z</time>
      </trkpt>
      <trkpt lat="45.62674" lon="6.86695">
        <ele>1862</ele>
        <time>2016-05-06T14:58:45Z</time>
      </trkpt>
      <trkpt lat="45.62674" lon="6.86695">
        <ele>1862.1</ele>
        <time>2016-05-06T14:58:47Z</time>
      </trkpt>
      <trkpt lat="45.62675" lon="6.86695">
        <ele>1862.2</ele>
        <time>2016-05-06T14:58:49Z</time>
      </trkpt>
      <trkpt lat="45.62675" lon="6.86694">
        <ele>1862</ele>
        <time>2016-05-06T14:58:51Z</time>
      </trkpt>
      <trkpt lat="45.62675" lon="6.86694">
        <ele>1862</ele>
        <time>2016-05-06T14:58:53Z</time>
      </trkpt>
      <trkpt lat="45.62676" lon="6.86694">
        <ele>1861.9</ele>
        <time>2016-05-06T14:58:55Z</time>
      </trkpt>
      <trkpt lat="45.62676" lon="6.86694">
        <ele>1861.9</ele>
        <time>2016-05-06T14:58:57Z</time>
      </trkpt>
      <trkpt lat="45.62676" lon="6.86694">
        <ele>1861.8</ele>
        <time>2016-05-06T14:58:59Z</time>
      </trkpt>
      <trkpt lat="45.62676" lon="6.86694">
        <ele>1861.8</ele>
        <time>2016-05-06T14:59:01Z</time>
      </trkpt>
      <trkpt lat="45.62676" lon="6.86694">
        <ele>1861.8</ele>
        <time>2016-05-06T14:59:03Z</time>
      </trkpt>
      <trkpt lat="45.62676" lon="6.86694">
        <ele>1861.4</ele>
        <time>2016-05-06T14:59:05Z</time>
      </trkpt>
      <trkpt lat="45.62676" lon="6.86694">
        <ele>1861.3</ele>
        <time>2016-05-06T14:59:07Z</time>
      </trkpt>
      <trkpt lat="45.62676" lon="6.86694">
        <ele>1861.5</ele>
        <time>2016-05-06T14:59:09Z</time>
      </trkpt>
      <trkpt lat="45.62675" lon="6.86694">
        <ele>1861.4</ele>
        <time>2016-05-06T14:59:11Z</time>
      </trkpt>
      <trkpt lat="45.62675" lon="6.86695">
        <ele>1861.3</ele>
        <time>2016-05-06T14:59:13Z</time>
      </trkpt>
      <trkpt lat="45.62674" lon="6.86695">
        <ele>1861.4</ele>
        <time>2016-05-06T14:59:15Z</time>
      </trkpt>
      <trkpt lat="45.62674" lon="6.86695">
        <ele>1861.4</ele>
        <time>2016-05-06T14:59:17Z</time>
      </trkpt>
      <trkpt lat="45.62673" lon="6.86695">
        <ele>1861.6</ele>
        <time>2016-05-06T14:59:19Z</time>
      </trkpt>
      <trkpt lat="45.62673" lon="6.86696">
        <ele>1861.5</ele>
        <time>2016-05-06T14:59:21Z</time>
      </trkpt>
      <trkpt lat="45.62672" lon="6.86696">
        <ele>1861.6</ele>
        <time>2016-05-06T14:59:23Z</time>
      </trkpt>
      <trkpt lat="45.62672" lon="6.86696">
        <ele>1861.7</ele>
        <time>2016-05-06T14:59:25Z</time>
      </trkpt>
      <trkpt lat="45.62671" lon="6.86696">
        <ele>1861.7</ele>
        <time>2016-05-06T14:59:27Z</time>
      </trkpt>
      <trkpt lat="45.62671" lon="6.86697">
        <ele>1861.7</ele>
        <time>2016-05-06T14:59:29Z</time>
      </trkpt>
      <trkpt lat="45.6267" lon="6.86697">
        <ele>1861.8</ele>
        <time>2016-05-06T14:59:31Z</time>
      </trkpt>
      <trkpt lat="45.62671" lon="6.86696">
        <ele>1862.1</ele>
        <time>2016-05-06T14:59:33Z</time>
      </trkpt>
      <trkpt lat="45.62672" lon="6.86696">
        <ele>1862.2</ele>
        <time>2016-05-06T14:59:35Z</time>
      </trkpt>
      <trkpt lat="45.62672" lon="6.86696">
        <ele>1862.2</ele>
        <time>2016-05-06T14:59:37Z</time>
      </trkpt>
      <trkpt lat="45.62672" lon="6.86696">
        <ele>1862.2</ele>
        <time>2016-05-06T14:59:39Z</time>
      </trkpt>
      <trkpt lat="45.62671" lon="6.86697">
        <ele>1862.1</ele>
        <time>2016-05-06T14:59:41Z</time>
      </trkpt>
      <trkpt lat="45.6267" lon="6.86697">
        <ele>1861.9</ele>
        <time>2016-05-06T14:59:43Z</time>
      </trkpt>
      <trkpt lat="45.62671" lon="6.86697">
        <ele>1862</ele>
        <time>2016-05-06T14:59:45Z</time>
      </trkpt>
      <trkpt lat="45.6267" lon="6.86697">
        <ele>1862.1</ele>
        <time>2016-05-06T14:59:47Z</time>
      </trkpt>
      <trkpt lat="45.6267" lon="6.86697">
        <ele>1862.2</ele>
        <time>2016-05-06T14:59:49Z</time>
      </trkpt>
      <trkpt lat="45.62671" lon="6.86696">
        <ele>1862.2</ele>
        <time>2016-05-06T14:59:51Z</time>
      </trkpt>
      <trkpt lat="45.62671" lon="6.86696">
        <ele>1862.1</ele>
        <time>2016-05-06T14:59:53Z</time>
      </trkpt>
      <trkpt lat="45.62672" lon="6.86696">
        <ele>1862</ele>
        <time>2016-05-06T14:59:55Z</time>
      </trkpt>
      <trkpt lat="45.62674" lon="6.86695">
        <ele>1862</ele>
        <time>2016-05-06T14:59:57Z</time>
      </trkpt>
      <trkpt lat="45.62674" lon="6.86695">
        <ele>1862.1</ele>
        <time>2016-05-06T14:59:59Z</time>
      </trkpt>
      <trkpt lat="45.62675" lon="6.86695">
        <ele>1862</ele>
        <time>2016-05-06T15:00:01Z</time>
      </trkpt>
      <trkpt lat="45.62676" lon="6.86694">
        <ele>1862</ele>
        <time>2016-05-06T15:00:03Z</time>
      </trkpt>
      <trkpt lat="45.62677" lon="6.86694">
        <ele>1862.1</ele>
        <time>2016-05-06T15:00:05Z</time>
      </trkpt>
      <trkpt lat="45.62677" lon="6.86694">
        <ele>1862.1</ele>
        <time>2016-05-06T15:00:07Z</time>
      </trkpt>
      <trkpt lat="45.62679" lon="6.86694">
        <ele>1862.2</ele>
        <time>2016-05-06T15:00:09Z</time>
      </trkpt>
      <trkpt lat="45.62679" lon="6.86693">
        <ele>1862.1</ele>
        <time>2016-05-06T15:00:11Z</time>
      </trkpt>
      <trkpt lat="45.6268" lon="6.86693">
        <ele>1862.2</ele>
        <time>2016-05-06T15:00:13Z</time>
      </trkpt>
      <trkpt lat="45.6268" lon="6.86692">
        <ele>1862.4</ele>
        <time>2016-05-06T15:00:15Z</time>
      </trkpt>
      <trkpt lat="45.6268" lon="6.86692">
        <ele>1862.3</ele>
        <time>2016-05-06T15:00:17Z</time>
      </trkpt>
      <trkpt lat="45.6268" lon="6.86692">
        <ele>1862.3</ele>
        <time>2016-05-06T15:00:19Z</time>
      </trkpt>
      <trkpt lat="45.6268" lon="6.86692">
        <ele>1862.4</ele>
        <time>2016-05-06T15:00:21Z</time>
      </trkpt>
      <trkpt lat="45.62681" lon="6.86693">
        <ele>1862.2</ele>
        <time>2016-05-06T15:00:23Z</time>
      </trkpt>
      <trkpt lat="45.62681" lon="6.86693">
        <ele>1862.3</ele>
        <time>2016-05-06T15:00:25Z</time>
      </trkpt>
      <trkpt lat="45.62681" lon="6.86693">
        <ele>1862.3</ele>
        <time>2016-05-06T15:00:27Z</time>
      </trkpt>
      <trkpt lat="45.6268" lon="6.86693">
        <ele>1862.4</ele>
        <time>2016-05-06T15:00:29Z</time>
      </trkpt>
      <trkpt lat="45.62679" lon="6.86694">
        <ele>1862.3</ele>
        <time>2016-05-06T15:00:31Z</time>
      </trkpt>
      <trkpt lat="45.62679" lon="6.86693">
        <ele>1862</ele>
        <time>2016-05-06T15:00:33Z</time>
      </trkpt>
      <trkpt lat="45.62679" lon="6.86693">
        <ele>1862</ele>
        <time>2016-05-06T15:00:35Z</time>
      </trkpt>
      <trkpt lat="45.62679" lon="6.86693">
        <ele>1862.1</ele>
        <time>2016-05-06T15:00:37Z</time>
      </trkpt>
      <trkpt lat="45.62678" lon="6.86693">
        <ele>1862.2</ele>
        <time>2016-05-06T15:00:39Z</time>
      </trkpt>
      <trkpt lat="45.62678" lon="6.86693">
        <ele>1862.2</ele>
        <time>2016-05-06T15:00:41Z</time>
      </trkpt>
      <trkpt lat="45.62678" lon="6.86693">
        <ele>1862.2</ele>
        <time>2016-05-06T15:00:43Z</time>
      </trkpt>
      <trkpt lat="45.62678" lon="6.86693">
        <ele>1862</ele>
        <time>2016-05-06T15:00:45Z</time>
      </trkpt>
      <trkpt lat="45.62678" lon="6.86693">
        <ele>1862</ele>
        <time>2016-05-06T15:00:47Z</time>
      </trkpt>
      <trkpt lat="45.62677" lon="6.86693">
        <ele>1861.7</ele>
        <time>2016-05-06T15:00:49Z</time>
      </trkpt>
      <trkpt lat="45.62676" lon="6.86693">
        <ele>1861.6</ele>
        <time>2016-05-06T15:00:51Z</time>
      </trkpt>
      <trkpt lat="45.62676" lon="6.86693">
        <ele>1861.6</ele>
        <time>2016-05-06T15:00:53Z</time>
      </trkpt>
      <trkpt lat="45.62676" lon="6.86693">
        <ele>1861.5</ele>
        <time>2016-05-06T15:00:55Z</time>
      </trkpt>
      <trkpt lat="45.62675" lon="6.86694">
        <ele>1861.5</ele>
        <time>2016-05-06T15:00:57Z</time>
      </trkpt>
      <trkpt lat="45.62675" lon="6.86694">
        <ele>1861.5</ele>
        <time>2016-05-06T15:00:59Z</time>
      </trkpt>
      <trkpt lat="45.62675" lon="6.86694">
        <ele>1861.7</ele>
        <time>2016-05-06T15:01:01Z</time>
      </trkpt>
      <trkpt lat="45.62674" lon="6.86693">
        <ele>1861.6</ele>
        <time>2016-05-06T15:01:03Z</time>
      </trkpt>
      <trkpt lat="45.62673" lon="6.86693">
        <ele>1861.6</ele>
        <time>2016-05-06T15:01:05Z</time>
      </trkpt>
      <trkpt lat="45.62673" lon="6.86693">
        <ele>1861.6</ele>
        <time>2016-05-06T15:01:07Z</time>
      </trkpt>
      <trkpt lat="45.62673" lon="6.86692">
        <ele>1861.5</ele>
        <time>2016-05-06T15:01:09Z</time>
      </trkpt>
      <trkpt lat="45.62673" lon="6.86692">
        <ele>1861.5</ele>
        <time>2016-05-06T15:01:11Z</time>
      </trkpt>
      <trkpt lat="45.62672" lon="6.86692">
        <ele>1861.5</ele>
        <time>2016-05-06T15:01:13Z</time>
      </trkpt>
      <trkpt lat="45.62672" lon="6.86692">
        <ele>1861.5</ele>
        <time>2016-05-06T15:01:15Z</time>
      </trkpt>
      <trkpt lat="45.62671" lon="6.86692">
        <ele>1861.4</ele>
        <time>2016-05-06T15:01:17Z</time>
      </trkpt>
      <trkpt lat="45.6267" lon="6.86693">
        <ele>1861.5</ele>
        <time>2016-05-06T15:01:19Z</time>
      </trkpt>
      <trkpt lat="45.6267" lon="6.86693">
        <ele>1861.5</ele>
        <time>2016-05-06T15:01:21Z</time>
      </trkpt>
      <trkpt lat="45.6267" lon="6.86693">
        <ele>1861.4</ele>
        <time>2016-05-06T15:01:23Z</time>
      </trkpt>
      <trkpt lat="45.6267" lon="6.86693">
        <ele>1861.3</ele>
        <time>2016-05-06T15:01:25Z</time>
      </trkpt>
      <trkpt lat="45.6267" lon="6.86693">
        <ele>1861.4</ele>
        <time>2016-05-06T15:01:27Z</time>
      </trkpt>
      <trkpt lat="45.6267" lon="6.86694">
        <ele>1861.4</ele>
        <time>2016-05-06T15:01:29Z</time>
      </trkpt>
      <trkpt lat="45.62671" lon="6.86694">
        <ele>1861.4</ele>
        <time>2016-05-06T15:01:31Z</time>
      </trkpt>
      <trkpt lat="45.62673" lon="6.86694">
        <ele>1861.4</ele>
        <time>2016-05-06T15:01:33Z</time>
      </trkpt>
      <trkpt lat="45.62675" lon="6.86694">
        <ele>1861.3</ele>
        <time>2016-05-06T15:01:35Z</time>
      </trkpt>
      <trkpt lat="45.62675" lon="6.86695">
        <ele>1861.4</ele>
        <time>2016-05-06T15:01:37Z</time>
      </trkpt>
      <trkpt lat="45.62676" lon="6.86695">
        <ele>1861.4</ele>
        <time>2016-05-06T15:01:39Z</time>
      </trkpt>
      <trkpt lat="45.62676" lon="6.86695">
        <ele>1861.3</ele>
        <time>2016-05-06T15:01:41Z</time>
      </trkpt>
      <trkpt lat="45.62675" lon="6.86695">
        <ele>1861.2</ele>
        <time>2016-05-06T15:01:43Z</time>
      </trkpt>
      <trkpt lat="45.62674" lon="6.86695">
        <ele>1861.2</ele>
        <time>2016-05-06T15:01:45Z</time>
      </trkpt>
      <trkpt lat="45.62674" lon="6.86695">
        <ele>1861.2</ele>
        <time>2016-05-06T15:01:47Z</time>
      </trkpt>
      <trkpt lat="45.62674" lon="6.86695">
        <ele>1861.3</ele>
        <time>2016-05-06T15:01:49Z</time>
      </trkpt>
      <trkpt lat="45.62673" lon="6.86694">
        <ele>1861.3</ele>
        <time>2016-05-06T15:01:51Z</time>
      </trkpt>
      <trkpt lat="45.62673" lon="6.86694">
        <ele>1861.3</ele>
        <time>2016-05-06T15:01:53Z</time>
      </trkpt>
      <trkpt lat="45.62673" lon="6.86694">
        <ele>1861.1</ele>
        <time>2016-05-06T15:01:55Z</time>
      </trkpt>
      <trkpt lat="45.62673" lon="6.86694">
        <ele>1861.2</ele>
        <time>2016-05-06T15:01:57Z</time>
      </trkpt>
      <trkpt lat="45.62673" lon="6.86694">
        <ele>1861.2</ele>
        <time>2016-05-06T15:01:59Z</time>
      </trkpt>
      <trkpt lat="45.62673" lon="6.86694">
        <ele>1861.2</ele>
        <time>2016-05-06T15:02:01Z</time>
      </trkpt>
      <trkpt lat="45.62673" lon="6.86693">
        <ele>1861.3</ele>
        <time>2016-05-06T15:02:03Z</time>
      </trkpt>
      <trkpt lat="45.62673" lon="6.86693">
        <ele>1861.3</ele>
        <time>2016-05-06T15:02:05Z</time>
      </trkpt>
      <trkpt lat="45.62673" lon="6.86692">
        <ele>1861.4</ele>
        <time>2016-05-06T15:02:07Z</time>
      </trkpt>
      <trkpt lat="45.62673" lon="6.86692">
        <ele>1861.5</ele>
        <time>2016-05-06T15:02:09Z</time>
      </trkpt>
      <trkpt lat="45.62673" lon="6.86692">
        <ele>1861.5</ele>
        <time>2016-05-06T15:02:11Z</time>
      </trkpt>
      <trkpt lat="45.62673" lon="6.86691">
        <ele>1861.6</ele>
        <time>2016-05-06T15:02:13Z</time>
      </trkpt>
      <trkpt lat="45.62673" lon="6.86691">
        <ele>1861.6</ele>
        <time>2016-05-06T15:02:15Z</time>
      </trkpt>
      <trkpt lat="45.62673" lon="6.86691">
        <ele>1861.7</ele>
        <time>2016-05-06T15:02:17Z</time>
      </trkpt>
      <trkpt lat="45.62673" lon="6.8669">
        <ele>1861.6</ele>
        <time>2016-05-06T15:02:19Z</time>
      </trkpt>
      <trkpt lat="45.62673" lon="6.8669">
        <ele>1861.6</ele>
        <time>2016-05-06T15:02:21Z</time>
      </trkpt>
      <trkpt lat="45.62673" lon="6.8669">
        <ele>1861.7</ele>
        <time>2016-05-06T15:02:23Z</time>
      </trkpt>
      <trkpt lat="45.62672" lon="6.86689">
        <ele>1861.8</ele>
        <time>2016-05-06T15:02:25Z</time>
      </trkpt>
      <trkpt lat="45.62672" lon="6.86688">
        <ele>1861.9</ele>
        <time>2016-05-06T15:02:27Z</time>
      </trkpt>
      <trkpt lat="45.62672" lon="6.86688">
        <ele>1861.7</ele>
        <time>2016-05-06T15:02:29Z</time>
      </trkpt>
      <trkpt lat="45.62672" lon="6.86688">
        <ele>1861.7</ele>
        <time>2016-05-06T15:02:31Z</time>
      </trkpt>
      <trkpt lat="45.62672" lon="6.86688">
        <ele>1861.7</ele>
        <time>2016-05-06T15:02:33Z</time>
      </trkpt>
      <trkpt lat="45.62672" lon="6.86688">
        <ele>1861.9</ele>
        <time>2016-05-06T15:02:35Z</time>
      </trkpt>
      <trkpt lat="45.62671" lon="6.86688">
        <ele>1861.8</ele>
        <time>2016-05-06T15:02:37Z</time>
      </trkpt>
      <trkpt lat="45.62671" lon="6.86688">
        <ele>1861.9</ele>
        <time>2016-05-06T15:02:39Z</time>
      </trkpt>
      <trkpt lat="45.62671" lon="6.86688">
        <ele>1861.8</ele>
        <time>2016-05-06T15:02:41Z</time>
      </trkpt>
      <trkpt lat="45.62671" lon="6.86688">
        <ele>1861.9</ele>
        <time>2016-05-06T15:02:43Z</time>
      </trkpt>
      <trkpt lat="45.62671" lon="6.86688">
        <ele>1861.9</ele>
        <time>2016-05-06T15:02:45Z</time>
      </trkpt>
      <trkpt lat="45.62671" lon="6.86688">
        <ele>1861.9</ele>
        <time>2016-05-06T15:02:47Z</time>
      </trkpt>
      <trkpt lat="45.62672" lon="6.86688">
        <ele>1862</ele>
        <time>2016-05-06T15:02:49Z</time>
      </trkpt>
      <trkpt lat="45.62673" lon="6.86688">
        <ele>1862</ele>
        <time>2016-05-06T15:02:51Z</time>
      </trkpt>
      <trkpt lat="45.62673" lon="6.86689">
        <ele>1862.1</ele>
        <time>2016-05-06T15:02:53Z</time>
      </trkpt>
      <trkpt lat="45.62672" lon="6.8669">
        <ele>1862.1</ele>
        <time>2016-05-06T15:02:55Z</time>
      </trkpt>
      <trkpt lat="45.62671" lon="6.86691">
        <ele>1862.1</ele>
        <time>2016-05-06T15:02:57Z</time>
      </trkpt>
      <trkpt lat="45.62671" lon="6.86692">
        <ele>1862.1</ele>
        <time>2016-05-06T15:02:59Z</time>
      </trkpt>
      <trkpt lat="45.6267" lon="6.86692">
        <ele>1862.1</ele>
        <time>2016-05-06T15:03:01Z</time>
      </trkpt>
      <trkpt lat="45.6267" lon="6.86692">
        <ele>1862</ele>
        <time>2016-05-06T15:03:03Z</time>
      </trkpt>
      <trkpt lat="45.6267" lon="6.86692">
        <ele>1862.1</ele>
        <time>2016-05-06T15:03:05Z</time>
      </trkpt>
      <trkpt lat="45.62669" lon="6.86692">
        <ele>1862.1</ele>
        <time>2016-05-06T15:03:07Z</time>
      </trkpt>
      <trkpt lat="45.62669" lon="6.86692">
        <ele>1862.1</ele>
        <time>2016-05-06T15:03:09Z</time>
      </trkpt>
      <trkpt lat="45.62669" lon="6.86693">
        <ele>1862.2</ele>
        <time>2016-05-06T15:03:11Z</time>
      </trkpt>
      <trkpt lat="45.62669" lon="6.86693">
        <ele>1862.3</ele>
        <time>2016-05-06T15:03:13Z</time>
      </trkpt>
      <trkpt lat="45.62669" lon="6.86693">
        <ele>1862.4</ele>
        <time>2016-05-06T15:03:15Z</time>
      </trkpt>
      <trkpt lat="45.62669" lon="6.86693">
        <ele>1862.4</ele>
        <time>2016-05-06T15:03:17Z</time>
      </trkpt>
      <trkpt lat="45.62669" lon="6.86694">
        <ele>1862.4</ele>
        <time>2016-05-06T15:03:19Z</time>
      </trkpt>
      <trkpt lat="45.62669" lon="6.86693">
        <ele>1862.4</ele>
        <time>2016-05-06T15:03:21Z</time>
      </trkpt>
      <trkpt lat="45.62669" lon="6.86693">
        <ele>1862.5</ele>
        <time>2016-05-06T15:03:23Z</time>
      </trkpt>
      <trkpt lat="45.62669" lon="6.86693">
        <ele>1862.5</ele>
        <time>2016-05-06T15:03:25Z</time>
      </trkpt>
      <trkpt lat="45.62669" lon="6.86694">
        <ele>1862.5</ele>
        <time>2016-05-06T15:03:27Z</time>
      </trkpt>
      <trkpt lat="45.6267" lon="6.86694">
        <ele>1862.5</ele>
        <time>2016-05-06T15:03:29Z</time>
      </trkpt>
      <trkpt lat="45.6267" lon="6.86694">
        <ele>1862.5</ele>
        <time>2016-05-06T15:03:31Z</time>
      </trkpt>
      <trkpt lat="45.62671" lon="6.86694">
        <ele>1862.4</ele>
        <time>2016-05-06T15:03:33Z</time>
      </trkpt>
      <trkpt lat="45.62671" lon="6.86693">
        <ele>1862.4</ele>
        <time>2016-05-06T15:03:35Z</time>
      </trkpt>
      <trkpt lat="45.62671" lon="6.86693">
        <ele>1862.4</ele>
        <time>2016-05-06T15:03:37Z</time>
      </trkpt>
      <trkpt lat="45.62672" lon="6.86694">
        <ele>1862.4</ele>
        <time>2016-05-06T15:03:39Z</time>
      </trkpt>
      <trkpt lat="45.62672" lon="6.86693">
        <ele>1862.3</ele>
        <time>2016-05-06T15:03:41Z</time>
      </trkpt>
      <trkpt lat="45.62672" lon="6.86693">
        <ele>1862.3</ele>
        <time>2016-05-06T15:03:43Z</time>
      </trkpt>
      <trkpt lat="45.62672" lon="6.86693">
        <ele>1862.3</ele>
        <time>2016-05-06T15:03:45Z</time>
      </trkpt>
      <trkpt lat="45.62672" lon="6.86693">
        <ele>1862.1</ele>
        <time>2016-05-06T15:03:47Z</time>
      </trkpt>
      <trkpt lat="45.62672" lon="6.86693">
        <ele>1861.9</ele>
        <time>2016-05-06T15:03:49Z</time>
      </trkpt>
      <trkpt lat="45.62671" lon="6.86694">
        <ele>1861.9</ele>
        <time>2016-05-06T15:03:51Z</time>
      </trkpt>
      <trkpt lat="45.62671" lon="6.86694">
        <ele>1861.9</ele>
        <time>2016-05-06T15:03:53Z</time>
      </trkpt>
      <trkpt lat="45.62671" lon="6.86694">
        <ele>1861.9</ele>
        <time>2016-05-06T15:03:55Z</time>
      </trkpt>
      <trkpt lat="45.62671" lon="6.86694">
        <ele>1862</ele>
        <time>2016-05-06T15:03:57Z</time>
      </trkpt>
      <trkpt lat="45.62671" lon="6.86694">
        <ele>1862</ele>
        <time>2016-05-06T15:03:59Z</time>
      </trkpt>
      <trkpt lat="45.62671" lon="6.86695">
        <ele>1862.1</ele>
        <time>2016-05-06T15:04:01Z</time>
      </trkpt>
      <trkpt lat="45.62672" lon="6.86695">
        <ele>1862.1</ele>
        <time>2016-05-06T15:04:03Z</time>
      </trkpt>
      <trkpt lat="45.62672" lon="6.86695">
        <ele>1862.1</ele>
        <time>2016-05-06T15:04:05Z</time>
      </trkpt>
      <trkpt lat="45.62672" lon="6.86695">
        <ele>1862.2</ele>
        <time>2016-05-06T15:04:07Z</time>
      </trkpt>
      <trkpt lat="45.62672" lon="6.86696">
        <ele>1862.3</ele>
        <time>2016-05-06T15:04:09Z</time>
      </trkpt>
      <trkpt lat="45.62672" lon="6.86696">
        <ele>1862.3</ele>
        <time>2016-05-06T15:04:11Z</time>
      </trkpt>
      <trkpt lat="45.62673" lon="6.86696">
        <ele>1862.1</ele>
        <time>2016-05-06T15:04:13Z</time>
      </trkpt>
      <trkpt lat="45.62673" lon="6.86696">
        <ele>1862.1</ele>
        <time>2016-05-06T15:04:15Z</time>
      </trkpt>
      <trkpt lat="45.62673" lon="6.86696">
        <ele>1862.1</ele>
        <time>2016-05-06T15:04:17Z</time>
      </trkpt>
      <trkpt lat="45.62674" lon="6.86696">
        <ele>1862.2</ele>
        <time>2016-05-06T15:04:19Z</time>
      </trkpt>
      <trkpt lat="45.62674" lon="6.86696">
        <ele>1862.1</ele>
        <time>2016-05-06T15:04:21Z</time>
      </trkpt>
      <trkpt lat="45.62674" lon="6.86697">
        <ele>1862.1</ele>
        <time>2016-05-06T15:04:23Z</time>
      </trkpt>
      <trkpt lat="45.62675" lon="6.86697">
        <ele>1862.1</ele>
        <time>2016-05-06T15:04:25Z</time>
      </trkpt>
      <trkpt lat="45.62675" lon="6.86697">
        <ele>1862.1</ele>
        <time>2016-05-06T15:04:27Z</time>
      </trkpt>
      <trkpt lat="45.62675" lon="6.86697">
        <ele>1862.2</ele>
        <time>2016-05-06T15:04:29Z</time>
      </trkpt>
      <trkpt lat="45.62675" lon="6.86697">
        <ele>1862.3</ele>
        <time>2016-05-06T15:04:31Z</time>
      </trkpt>
      <trkpt lat="45.62675" lon="6.86697">
        <ele>1862.5</ele>
        <time>2016-05-06T15:04:33Z</time>
      </trkpt>
      <trkpt lat="45.62675" lon="6.86697">
        <ele>1862.4</ele>
        <time>2016-05-06T15:04:35Z</time>
      </trkpt>
      <trkpt lat="45.62674" lon="6.86697">
        <ele>1862.5</ele>
        <time>2016-05-06T15:04:37Z</time>
      </trkpt>
      <trkpt lat="45.62674" lon="6.86697">
        <ele>1862.6</ele>
        <time>2016-05-06T15:04:39Z</time>
      </trkpt>
      <trkpt lat="45.62673" lon="6.86697">
        <ele>1862.6</ele>
        <time>2016-05-06T15:04:41Z</time>
      </trkpt>
      <trkpt lat="45.62673" lon="6.86696">
        <ele>1862.5</ele>
        <time>2016-05-06T15:04:43Z</time>
      </trkpt>
      <trkpt lat="45.62672" lon="6.86696">
        <ele>1862.1</ele>
        <time>2016-05-06T15:04:45Z</time>
      </trkpt>
      <trkpt lat="45.62672" lon="6.86696">
        <ele>1862</ele>
        <time>2016-05-06T15:04:47Z</time>
      </trkpt>
      <trkpt lat="45.62671" lon="6.86696">
        <ele>1861.8</ele>
        <time>2016-05-06T15:04:49Z</time>
      </trkpt>
      <trkpt lat="45.62671" lon="6.86696">
        <ele>1861.7</ele>
        <time>2016-05-06T15:04:51Z</time>
      </trkpt>
      <trkpt lat="45.6267" lon="6.86697">
        <ele>1861.8</ele>
        <time>2016-05-06T15:04:53Z</time>
      </trkpt>
      <trkpt lat="45.6267" lon="6.86697">
        <ele>1861.9</ele>
        <time>2016-05-06T15:04:55Z</time>
      </trkpt>
      <trkpt lat="45.6267" lon="6.86697">
        <ele>1861.9</ele>
        <time>2016-05-06T15:04:57Z</time>
      </trkpt>
      <trkpt lat="45.62669" lon="6.86697">
        <ele>1862</ele>
        <time>2016-05-06T15:04:59Z</time>
      </trkpt>
      <trkpt lat="45.62669" lon="6.86698">
        <ele>1862</ele>
        <time>2016-05-06T15:05:01Z</time>
      </trkpt>
      <trkpt lat="45.6267" lon="6.86698">
        <ele>1862.2</ele>
        <time>2016-05-06T15:05:03Z</time>
      </trkpt>
      <trkpt lat="45.6267" lon="6.86698">
        <ele>1862.2</ele>
        <time>2016-05-06T15:05:05Z</time>
      </trkpt>
      <trkpt lat="45.6267" lon="6.86698">
        <ele>1862.3</ele>
        <time>2016-05-06T15:05:07Z</time>
      </trkpt>
      <trkpt lat="45.6267" lon="6.86698">
        <ele>1862.3</ele>
        <time>2016-05-06T15:05:09Z</time>
      </trkpt>
      <trkpt lat="45.6267" lon="6.86698">
        <ele>1862.3</ele>
        <time>2016-05-06T15:05:11Z</time>
      </trkpt>
      <trkpt lat="45.62669" lon="6.86698">
        <ele>1862.5</ele>
        <time>2016-05-06T15:05:13Z</time>
      </trkpt>
      <trkpt lat="45.62669" lon="6.86698">
        <ele>1862.4</ele>
        <time>2016-05-06T15:05:15Z</time>
      </trkpt>
      <trkpt lat="45.6267" lon="6.86698">
        <ele>1862.5</ele>
        <time>2016-05-06T15:05:17Z</time>
      </trkpt>
      <trkpt lat="45.6267" lon="6.86699">
        <ele>1862.7</ele>
        <time>2016-05-06T15:05:19Z</time>
      </trkpt>
      <trkpt lat="45.62671" lon="6.86699">
        <ele>1862.7</ele>
        <time>2016-05-06T15:05:21Z</time>
      </trkpt>
      <trkpt lat="45.62672" lon="6.867">
        <ele>1862.8</ele>
        <time>2016-05-06T15:05:23Z</time>
      </trkpt>
      <trkpt lat="45.62672" lon="6.867">
        <ele>1862.8</ele>
        <time>2016-05-06T15:05:25Z</time>
      </trkpt>
      <trkpt lat="45.62672" lon="6.86701">
        <ele>1862.8</ele>
        <time>2016-05-06T15:05:27Z</time>
      </trkpt>
      <trkpt lat="45.62672" lon="6.867">
        <ele>1862.9</ele>
        <time>2016-05-06T15:05:29Z</time>
      </trkpt>
      <trkpt lat="45.62672" lon="6.867">
        <ele>1862.8</ele>
        <time>2016-05-06T15:05:31Z</time>
      </trkpt>
      <trkpt lat="45.62671" lon="6.867">
        <ele>1862.8</ele>
        <time>2016-05-06T15:05:33Z</time>
      </trkpt>
      <trkpt lat="45.6267" lon="6.867">
        <ele>1862.9</ele>
        <time>2016-05-06T15:05:35Z</time>
      </trkpt>
      <trkpt lat="45.62669" lon="6.867">
        <ele>1863</ele>
        <time>2016-05-06T15:05:37Z</time>
      </trkpt>
      <trkpt lat="45.62669" lon="6.867">
        <ele>1863</ele>
        <time>2016-05-06T15:05:39Z</time>
      </trkpt>
      <trkpt lat="45.62668" lon="6.86701">
        <ele>1863</ele>
        <time>2016-05-06T15:05:41Z</time>
      </trkpt>
      <trkpt lat="45.62667" lon="6.86701">
        <ele>1863.1</ele>
        <time>2016-05-06T15:05:43Z</time>
      </trkpt>
      <trkpt lat="45.62667" lon="6.86701">
        <ele>1862.9</ele>
        <time>2016-05-06T15:05:45Z</time>
      </trkpt>
      <trkpt lat="45.62667" lon="6.86701">
        <ele>1862.9</ele>
        <time>2016-05-06T15:05:47Z</time>
      </trkpt>
      <trkpt lat="45.62666" lon="6.86701">
        <ele>1862.8</ele>
        <time>2016-05-06T15:05:49Z</time>
      </trkpt>
      <trkpt lat="45.62666" lon="6.86702">
        <ele>1862.8</ele>
        <time>2016-05-06T15:05:51Z</time>
      </trkpt>
      <trkpt lat="45.62665" lon="6.86702">
        <ele>1862.8</ele>
        <time>2016-05-06T15:05:53Z</time>
      </trkpt>
      <trkpt lat="45.62664" lon="6.86701">
        <ele>1862.7</ele>
        <time>2016-05-06T15:05:55Z</time>
      </trkpt>
      <trkpt lat="45.62663" lon="6.86702">
        <ele>1862.6</ele>
        <time>2016-05-06T15:05:57Z</time>
      </trkpt>
      <trkpt lat="45.62662" lon="6.86702">
        <ele>1862.5</ele>
        <time>2016-05-06T15:05:59Z</time>
      </trkpt>
      <trkpt lat="45.62661" lon="6.86702">
        <ele>1862.5</ele>
        <time>2016-05-06T15:06:01Z</time>
      </trkpt>
      <trkpt lat="45.62661" lon="6.86701">
        <ele>1862.4</ele>
        <time>2016-05-06T15:06:03Z</time>
      </trkpt>
      <trkpt lat="45.6266" lon="6.86701">
        <ele>1862.4</ele>
        <time>2016-05-06T15:06:05Z</time>
      </trkpt>
      <trkpt lat="45.6266" lon="6.86701">
        <ele>1862.2</ele>
        <time>2016-05-06T15:06:07Z</time>
      </trkpt>
      <trkpt lat="45.6266" lon="6.86701">
        <ele>1862.2</ele>
        <time>2016-05-06T15:06:09Z</time>
      </trkpt>
      <trkpt lat="45.6266" lon="6.86701">
        <ele>1862.1</ele>
        <time>2016-05-06T15:06:11Z</time>
      </trkpt>
      <trkpt lat="45.6266" lon="6.86701">
        <ele>1861.9</ele>
        <time>2016-05-06T15:06:13Z</time>
      </trkpt>
      <trkpt lat="45.62661" lon="6.86702">
        <ele>1862</ele>
        <time>2016-05-06T15:06:15Z</time>
      </trkpt>
      <trkpt lat="45.62661" lon="6.86702">
        <ele>1861.9</ele>
        <time>2016-05-06T15:06:17Z</time>
      </trkpt>
      <trkpt lat="45.62661" lon="6.86702">
        <ele>1861.8</ele>
        <time>2016-05-06T15:06:19Z</time>
      </trkpt>
      <trkpt lat="45.62661" lon="6.86702">
        <ele>1861.8</ele>
        <time>2016-05-06T15:06:21Z</time>
      </trkpt>
      <trkpt lat="45.62661" lon="6.86702">
        <ele>1861.9</ele>
        <time>2016-05-06T15:06:23Z</time>
      </trkpt>
      <trkpt lat="45.62662" lon="6.86702">
        <ele>1862</ele>
        <time>2016-05-06T15:06:25Z</time>
      </trkpt>
      <trkpt lat="45.62662" lon="6.86702">
        <ele>1862.1</ele>
        <time>2016-05-06T15:06:27Z</time>
      </trkpt>
      <trkpt lat="45.62662" lon="6.86702">
        <ele>1862.1</ele>
        <time>2016-05-06T15:06:29Z</time>
      </trkpt>
      <trkpt lat="45.62662" lon="6.86702">
        <ele>1861.9</ele>
        <time>2016-05-06T15:06:31Z</time>
      </trkpt>
      <trkpt lat="45.62662" lon="6.86702">
        <ele>1861.7</ele>
        <time>2016-05-06T15:06:33Z</time>
      </trkpt>
      <trkpt lat="45.62661" lon="6.86702">
        <ele>1861.7</ele>
        <time>2016-05-06T15:06:35Z</time>
      </trkpt>
      <trkpt lat="45.62661" lon="6.86702">
        <ele>1861.6</ele>
        <time>2016-05-06T15:06:37Z</time>
      </trkpt>
      <trkpt lat="45.62661" lon="6.86702">
        <ele>1861.7</ele>
        <time>2016-05-06T15:06:39Z</time>
      </trkpt>
      <trkpt lat="45.6266" lon="6.86702">
        <ele>1861.8</ele>
        <time>2016-05-06T15:06:41Z</time>
      </trkpt>
      <trkpt lat="45.62659" lon="6.86702">
        <ele>1861.8</ele>
        <time>2016-05-06T15:06:43Z</time>
      </trkpt>
      <trkpt lat="45.62659" lon="6.86702">
        <ele>1861.9</ele>
        <time>2016-05-06T15:06:45Z</time>
      </trkpt>
      <trkpt lat="45.62659" lon="6.86702">
        <ele>1861.8</ele>
        <time>2016-05-06T15:06:47Z</time>
      </trkpt>
      <trkpt lat="45.62659" lon="6.86702">
        <ele>1861.8</ele>
        <time>2016-05-06T15:06:49Z</time>
      </trkpt>
      <trkpt lat="45.62659" lon="6.86702">
        <ele>1861.8</ele>
        <time>2016-05-06T15:06:51Z</time>
      </trkpt>
      <trkpt lat="45.62658" lon="6.86703">
        <ele>1861.8</ele>
        <time>2016-05-06T15:06:53Z</time>
      </trkpt>
      <trkpt lat="45.62658" lon="6.86703">
        <ele>1861.8</ele>
        <time>2016-05-06T15:06:55Z</time>
      </trkpt>
      <trkpt lat="45.62658" lon="6.86703">
        <ele>1861.8</ele>
        <time>2016-05-06T15:06:57Z</time>
      </trkpt>
      <trkpt lat="45.62658" lon="6.86703">
        <ele>1861.6</ele>
        <time>2016-05-06T15:06:59Z</time>
      </trkpt>
      <trkpt lat="45.62658" lon="6.86703">
        <ele>1861.7</ele>
        <time>2016-05-06T15:07:01Z</time>
      </trkpt>
      <trkpt lat="45.62658" lon="6.86702">
        <ele>1861.6</ele>
        <time>2016-05-06T15:07:03Z</time>
      </trkpt>
      <trkpt lat="45.62658" lon="6.86702">
        <ele>1861.4</ele>
        <time>2016-05-06T15:07:05Z</time>
      </trkpt>
      <trkpt lat="45.62659" lon="6.86702">
        <ele>1861.4</ele>
        <time>2016-05-06T15:07:07Z</time>
      </trkpt>
      <trkpt lat="45.62658" lon="6.86703">
        <ele>1861.5</ele>
        <time>2016-05-06T15:07:09Z</time>
      </trkpt>
      <trkpt lat="45.62658" lon="6.86703">
        <ele>1861.5</ele>
        <time>2016-05-06T15:07:11Z</time>
      </trkpt>
      <trkpt lat="45.62659" lon="6.86703">
        <ele>1861.5</ele>
        <time>2016-05-06T15:07:13Z</time>
      </trkpt>
      <trkpt lat="45.62658" lon="6.86703">
        <ele>1861.6</ele>
        <time>2016-05-06T15:07:15Z</time>
      </trkpt>
      <trkpt lat="45.62659" lon="6.86703">
        <ele>1861.7</ele>
        <time>2016-05-06T15:07:17Z</time>
      </trkpt>
      <trkpt lat="45.62658" lon="6.86704">
        <ele>1861.7</ele>
        <time>2016-05-06T15:07:19Z</time>
      </trkpt>
      <trkpt lat="45.62658" lon="6.86704">
        <ele>1861.7</ele>
        <time>2016-05-06T15:07:21Z</time>
      </trkpt>
      <trkpt lat="45.62658" lon="6.86704">
        <ele>1861.6</ele>
        <time>2016-05-06T15:07:23Z</time>
      </trkpt>
      <trkpt lat="45.62657" lon="6.86704">
        <ele>1861.5</ele>
        <time>2016-05-06T15:07:25Z</time>
      </trkpt>
      <trkpt lat="45.62658" lon="6.86704">
        <ele>1861.3</ele>
        <time>2016-05-06T15:07:27Z</time>
      </trkpt>
      <trkpt lat="45.62658" lon="6.86704">
        <ele>1861.2</ele>
        <time>2016-05-06T15:07:29Z</time>
      </trkpt>
      <trkpt lat="45.62659" lon="6.86704">
        <ele>1861.2</ele>
        <time>2016-05-06T15:07:31Z</time>
      </trkpt>
      <trkpt lat="45.6266" lon="6.86703">
        <ele>1861.2</ele>
        <time>2016-05-06T15:07:33Z</time>
      </trkpt>
      <trkpt lat="45.62661" lon="6.86703">
        <ele>1861</ele>
        <time>2016-05-06T15:07:35Z</time>
      </trkpt>
      <trkpt lat="45.62661" lon="6.86703">
        <ele>1861</ele>
        <time>2016-05-06T15:07:37Z</time>
      </trkpt>
      <trkpt lat="45.62662" lon="6.86703">
        <ele>1861</ele>
        <time>2016-05-06T15:07:39Z</time>
      </trkpt>
      <trkpt lat="45.62663" lon="6.86702">
        <ele>1861</ele>
        <time>2016-05-06T15:07:41Z</time>
      </trkpt>
      <trkpt lat="45.62662" lon="6.86702">
        <ele>1860.9</ele>
        <time>2016-05-06T15:07:43Z</time>
      </trkpt>
      <trkpt lat="45.62662" lon="6.86702">
        <ele>1860.8</ele>
        <time>2016-05-06T15:07:45Z</time>
      </trkpt>
      <trkpt lat="45.62663" lon="6.86702">
        <ele>1860.6</ele>
        <time>2016-05-06T15:07:47Z</time>
      </trkpt>
      <trkpt lat="45.62664" lon="6.86702">
        <ele>1860.4</ele>
        <time>2016-05-06T15:07:49Z</time>
      </trkpt>
      <trkpt lat="45.62666" lon="6.86701">
        <ele>1860.5</ele>
        <time>2016-05-06T15:07:51Z</time>
      </trkpt>
      <trkpt lat="45.62667" lon="6.867">
        <ele>1860.5</ele>
        <time>2016-05-06T15:07:53Z</time>
      </trkpt>
      <trkpt lat="45.62668" lon="6.867">
        <ele>1860.6</ele>
        <time>2016-05-06T15:07:55Z</time>
      </trkpt>
      <trkpt lat="45.62669" lon="6.867">
        <ele>1860.7</ele>
        <time>2016-05-06T15:07:57Z</time>
      </trkpt>
      <trkpt lat="45.6267" lon="6.86699">
        <ele>1860.7</ele>
        <time>2016-05-06T15:07:59Z</time>
      </trkpt>
      <trkpt lat="45.6267" lon="6.86699">
        <ele>1860.8</ele>
        <time>2016-05-06T15:08:01Z</time>
      </trkpt>
      <trkpt lat="45.62671" lon="6.86699">
        <ele>1860.7</ele>
        <time>2016-05-06T15:08:03Z</time>
      </trkpt>
      <trkpt lat="45.62671" lon="6.86699">
        <ele>1860.8</ele>
        <time>2016-05-06T15:08:05Z</time>
      </trkpt>
      <trkpt lat="45.62671" lon="6.86699">
        <ele>1860.8</ele>
        <time>2016-05-06T15:08:07Z</time>
      </trkpt>
      <trkpt lat="45.62672" lon="6.86698">
        <ele>1860.9</ele>
        <time>2016-05-06T15:08:09Z</time>
      </trkpt>
      <trkpt lat="45.62672" lon="6.86698">
        <ele>1860.8</ele>
        <time>2016-05-06T15:08:11Z</time>
      </trkpt>
      <trkpt lat="45.62672" lon="6.86698">
        <ele>1860.8</ele>
        <time>2016-05-06T15:08:13Z</time>
      </trkpt>
      <trkpt lat="45.62672" lon="6.86698">
        <ele>1860.9</ele>
        <time>2016-05-06T15:08:15Z</time>
      </trkpt>
      <trkpt lat="45.62672" lon="6.86698">
        <ele>1860.9</ele>
        <time>2016-05-06T15:08:17Z</time>
      </trkpt>
      <trkpt lat="45.62672" lon="6.86698">
        <ele>1860.9</ele>
        <time>2016-05-06T15:08:19Z</time>
      </trkpt>
      <trkpt lat="45.62671" lon="6.86699">
        <ele>1860.8</ele>
        <time>2016-05-06T15:08:21Z</time>
      </trkpt>
      <trkpt lat="45.62671" lon="6.86699">
        <ele>1860.8</ele>
        <time>2016-05-06T15:08:23Z</time>
      </trkpt>
      <trkpt lat="45.62671" lon="6.86699">
        <ele>1860.8</ele>
        <time>2016-05-06T15:08:25Z</time>
      </trkpt>
      <trkpt lat="45.62671" lon="6.86699">
        <ele>1860.9</ele>
        <time>2016-05-06T15:08:27Z</time>
      </trkpt>
      <trkpt lat="45.62671" lon="6.86699">
        <ele>1861.1</ele>
        <time>2016-05-06T15:08:29Z</time>
      </trkpt>
      <trkpt lat="45.6267" lon="6.86699">
        <ele>1861</ele>
        <time>2016-05-06T15:08:31Z</time>
      </trkpt>
      <trkpt lat="45.6267" lon="6.86699">
        <ele>1860.9</ele>
        <time>2016-05-06T15:08:33Z</time>
      </trkpt>
      <trkpt lat="45.6267" lon="6.86699">
        <ele>1861.1</ele>
        <time>2016-05-06T15:08:35Z</time>
      </trkpt>
      <trkpt lat="45.6267" lon="6.86699">
        <ele>1861.2</ele>
        <time>2016-05-06T15:08:37Z</time>
      </trkpt>
      <trkpt lat="45.6267" lon="6.86699">
        <ele>1861.3</ele>
        <time>2016-05-06T15:08:39Z</time>
      </trkpt>
      <trkpt lat="45.6267" lon="6.86699">
        <ele>1861.2</ele>
        <time>2016-05-06T15:08:41Z</time>
      </trkpt>
      <trkpt lat="45.6267" lon="6.86699">
        <ele>1861.2</ele>
        <time>2016-05-06T15:08:43Z</time>
      </trkpt>
      <trkpt lat="45.6267" lon="6.86699">
        <ele>1861.1</ele>
        <time>2016-05-06T15:08:45Z</time>
      </trkpt>
      <trkpt lat="45.6267" lon="6.86699">
        <ele>1861.2</ele>
        <time>2016-05-06T15:08:47Z</time>
      </trkpt>
      <trkpt lat="45.62672" lon="6.86698">
        <ele>1861.3</ele>
        <time>2016-05-06T15:08:49Z</time>
      </trkpt>
      <trkpt lat="45.62673" lon="6.86698">
        <ele>1861.3</ele>
        <time>2016-05-06T15:08:51Z</time>
      </trkpt>
      <trkpt lat="45.62673" lon="6.86698">
        <ele>1861.4</ele>
        <time>2016-05-06T15:08:53Z</time>
      </trkpt>
      <trkpt lat="45.62675" lon="6.86697">
        <ele>1861.3</ele>
        <time>2016-05-06T15:08:55Z</time>
      </trkpt>
      <trkpt lat="45.62676" lon="6.86696">
        <ele>1861.2</ele>
        <time>2016-05-06T15:08:57Z</time>
      </trkpt>
      <trkpt lat="45.62676" lon="6.86696">
        <ele>1861.1</ele>
        <time>2016-05-06T15:08:59Z</time>
      </trkpt>
      <trkpt lat="45.62676" lon="6.86696">
        <ele>1861</ele>
        <time>2016-05-06T15:09:01Z</time>
      </trkpt>
      <trkpt lat="45.62676" lon="6.86696">
        <ele>1861</ele>
        <time>2016-05-06T15:09:03Z</time>
      </trkpt>
      <trkpt lat="45.62676" lon="6.86696">
        <ele>1861</ele>
        <time>2016-05-06T15:09:05Z</time>
      </trkpt>
      <trkpt lat="45.62676" lon="6.86696">
        <ele>1861.1</ele>
        <time>2016-05-06T15:09:07Z</time>
      </trkpt>
      <trkpt lat="45.62676" lon="6.86695">
        <ele>1861.2</ele>
        <time>2016-05-06T15:09:09Z</time>
      </trkpt>
      <trkpt lat="45.62676" lon="6.86695">
        <ele>1861.2</ele>
        <time>2016-05-06T15:09:11Z</time>
      </trkpt>
      <trkpt lat="45.62676" lon="6.86695">
        <ele>1861.3</ele>
        <time>2016-05-06T15:09:13Z</time>
      </trkpt>
      <trkpt lat="45.62676" lon="6.86695">
        <ele>1861.3</ele>
        <time>2016-05-06T15:09:15Z</time>
      </trkpt>
      <trkpt lat="45.62676" lon="6.86695">
        <ele>1861.2</ele>
        <time>2016-05-06T15:09:17Z</time>
      </trkpt>
      <trkpt lat="45.62676" lon="6.86695">
        <ele>1861.2</ele>
        <time>2016-05-06T15:09:19Z</time>
      </trkpt>
      <trkpt lat="45.62676" lon="6.86694">
        <ele>1861</ele>
        <time>2016-05-06T15:09:21Z</time>
      </trkpt>
      <trkpt lat="45.62676" lon="6.86694">
        <ele>1861</ele>
        <time>2016-05-06T15:09:23Z</time>
      </trkpt>
      <trkpt lat="45.62676" lon="6.86694">
        <ele>1861.2</ele>
        <time>2016-05-06T15:09:25Z</time>
      </trkpt>
      <trkpt lat="45.62677" lon="6.86694">
        <ele>1861.2</ele>
        <time>2016-05-06T15:09:27Z</time>
      </trkpt>
      <trkpt lat="45.62677" lon="6.86694">
        <ele>1861.5</ele>
        <time>2016-05-06T15:09:29Z</time>
      </trkpt>
      <trkpt lat="45.62677" lon="6.86694">
        <ele>1861.5</ele>
        <time>2016-05-06T15:09:31Z</time>
      </trkpt>
      <trkpt lat="45.62677" lon="6.86694">
        <ele>1861.5</ele>
        <time>2016-05-06T15:09:33Z</time>
      </trkpt>
      <trkpt lat="45.62677" lon="6.86694">
        <ele>1861.6</ele>
        <time>2016-05-06T15:09:35Z</time>
      </trkpt>
      <trkpt lat="45.62677" lon="6.86694">
        <ele>1861.4</ele>
        <time>2016-05-06T15:09:37Z</time>
      </trkpt>
      <trkpt lat="45.62677" lon="6.86693">
        <ele>1861.4</ele>
        <time>2016-05-06T15:09:39Z</time>
      </trkpt>
      <trkpt lat="45.62677" lon="6.86693">
        <ele>1861.3</ele>
        <time>2016-05-06T15:09:41Z</time>
      </trkpt>
      <trkpt lat="45.62676" lon="6.86694">
        <ele>1861.3</ele>
        <time>2016-05-06T15:09:43Z</time>
      </trkpt>
      <trkpt lat="45.62676" lon="6.86694">
        <ele>1860.9</ele>
        <time>2016-05-06T15:09:45Z</time>
      </trkpt>
      <trkpt lat="45.62675" lon="6.86695">
        <ele>1861</ele>
        <time>2016-05-06T15:09:47Z</time>
      </trkpt>
      <trkpt lat="45.62675" lon="6.86696">
        <ele>1861</ele>
        <time>2016-05-06T15:09:49Z</time>
      </trkpt>
      <trkpt lat="45.62675" lon="6.86696">
        <ele>1861</ele>
        <time>2016-05-06T15:09:51Z</time>
      </trkpt>
      <trkpt lat="45.62675" lon="6.86697">
        <ele>1860.9</ele>
        <time>2016-05-06T15:09:53Z</time>
      </trkpt>
      <trkpt lat="45.62674" lon="6.86697">
        <ele>1861.1</ele>
        <time>2016-05-06T15:09:55Z</time>
      </trkpt>
      <trkpt lat="45.62674" lon="6.86698">
        <ele>1861.2</ele>
        <time>2016-05-06T15:09:57Z</time>
      </trkpt>
      <trkpt lat="45.62674" lon="6.86698">
        <ele>1861.2</ele>
        <time>2016-05-06T15:09:59Z</time>
      </trkpt>
      <trkpt lat="45.62674" lon="6.86698">
        <ele>1861.2</ele>
        <time>2016-05-06T15:10:01Z</time>
      </trkpt>
      <trkpt lat="45.62674" lon="6.86698">
        <ele>1861.2</ele>
        <time>2016-05-06T15:10:03Z</time>
      </trkpt>
      <trkpt lat="45.62674" lon="6.86698">
        <ele>1861.2</ele>
        <time>2016-05-06T15:10:05Z</time>
      </trkpt>
      <trkpt lat="45.62674" lon="6.86698">
        <ele>1861.3</ele>
        <time>2016-05-06T15:10:07Z</time>
      </trkpt>
      <trkpt lat="45.62674" lon="6.86697">
        <ele>1861.3</ele>
        <time>2016-05-06T15:10:09Z</time>
      </trkpt>
      <trkpt lat="45.62674" lon="6.86697">
        <ele>1861.4</ele>
        <time>2016-05-06T15:10:11Z</time>
      </trkpt>
      <trkpt lat="45.62674" lon="6.86697">
        <ele>1861.4</ele>
        <time>2016-05-06T15:10:13Z</time>
      </trkpt>
      <trkpt lat="45.62675" lon="6.86697">
        <ele>1861.4</ele>
        <time>2016-05-06T15:10:15Z</time>
      </trkpt>
      <trkpt lat="45.62674" lon="6.86697">
        <ele>1861.5</ele>
        <time>2016-05-06T15:10:17Z</time>
      </trkpt>
      <trkpt lat="45.62674" lon="6.86697">
        <ele>1861.4</ele>
        <time>2016-05-06T15:10:19Z</time>
      </trkpt>
      <trkpt lat="45.62675" lon="6.86697">
        <ele>1861.5</ele>
        <time>2016-05-06T15:10:21Z</time>
      </trkpt>
      <trkpt lat="45.62675" lon="6.86697">
        <ele>1861.5</ele>
        <time>2016-05-06T15:10:23Z</time>
      </trkpt>
      <trkpt lat="45.62675" lon="6.86697">
        <ele>1861.5</ele>
        <time>2016-05-06T15:10:25Z</time>
      </trkpt>
      <trkpt lat="45.62675" lon="6.86697">
        <ele>1861.5</ele>
        <time>2016-05-06T15:10:27Z</time>
      </trkpt>
      <trkpt lat="45.62676" lon="6.86697">
        <ele>1861.5</ele>
        <time>2016-05-06T15:10:29Z</time>
      </trkpt>
      <trkpt lat="45.62676" lon="6.86697">
        <ele>1861.6</ele>
        <time>2016-05-06T15:10:31Z</time>
      </trkpt>
      <trkpt lat="45.62676" lon="6.86697">
        <ele>1861.6</ele>
        <time>2016-05-06T15:10:33Z</time>
      </trkpt>
      <trkpt lat="45.62676" lon="6.86697">
        <ele>1861.7</ele>
        <time>2016-05-06T15:10:35Z</time>
      </trkpt>
      <trkpt lat="45.62676" lon="6.86697">
        <ele>1861.6</ele>
        <time>2016-05-06T15:10:37Z</time>
      </trkpt>
      <trkpt lat="45.62676" lon="6.86697">
        <ele>1861.4</ele>
        <time>2016-05-06T15:10:39Z</time>
      </trkpt>
      <trkpt lat="45.62676" lon="6.86697">
        <ele>1861.1</ele>
        <time>2016-05-06T15:10:41Z</time>
      </trkpt>
      <trkpt lat="45.62676" lon="6.86697">
        <ele>1861</ele>
        <time>2016-05-06T15:10:43Z</time>
      </trkpt>
      <trkpt lat="45.62677" lon="6.86697">
        <ele>1861</ele>
        <time>2016-05-06T15:10:45Z</time>
      </trkpt>
      <trkpt lat="45.62677" lon="6.86697">
        <ele>1860.9</ele>
        <time>2016-05-06T15:10:47Z</time>
      </trkpt>
      <trkpt lat="45.62677" lon="6.86698">
        <ele>1861</ele>
        <time>2016-05-06T15:10:49Z</time>
      </trkpt>
      <trkpt lat="45.62677" lon="6.86698">
        <ele>1861</ele>
        <time>2016-05-06T15:10:51Z</time>
      </trkpt>
      <trkpt lat="45.62677" lon="6.86698">
        <ele>1861</ele>
        <time>2016-05-06T15:10:53Z</time>
      </trkpt>
      <trkpt lat="45.62678" lon="6.86698">
        <ele>1860.9</ele>
        <time>2016-05-06T15:10:55Z</time>
      </trkpt>
      <trkpt lat="45.62678" lon="6.86697">
        <ele>1860.8</ele>
        <time>2016-05-06T15:10:57Z</time>
      </trkpt>
      <trkpt lat="45.62678" lon="6.86697">
        <ele>1860.8</ele>
        <time>2016-05-06T15:10:59Z</time>
      </trkpt>
      <trkpt lat="45.62677" lon="6.86697">
        <ele>1861</ele>
        <time>2016-05-06T15:11:01Z</time>
      </trkpt>
      <trkpt lat="45.62677" lon="6.86697">
        <ele>1860.9</ele>
        <time>2016-05-06T15:11:03Z</time>
      </trkpt>
      <trkpt lat="45.62677" lon="6.86697">
        <ele>1860.8</ele>
        <time>2016-05-06T15:11:05Z</time>
      </trkpt>
      <trkpt lat="45.62678" lon="6.86697">
        <ele>1861</ele>
        <time>2016-05-06T15:11:07Z</time>
      </trkpt>
      <trkpt lat="45.62679" lon="6.86697">
        <ele>1861.1</ele>
        <time>2016-05-06T15:11:09Z</time>
      </trkpt>
      <trkpt lat="45.62679" lon="6.86697">
        <ele>1861.1</ele>
        <time>2016-05-06T15:11:11Z</time>
      </trkpt>
      <trkpt lat="45.62679" lon="6.86697">
        <ele>1861</ele>
        <time>2016-05-06T15:11:13Z</time>
      </trkpt>
      <trkpt lat="45.62679" lon="6.86697">
        <ele>1861</ele>
        <time>2016-05-06T15:11:15Z</time>
      </trkpt>
      <trkpt lat="45.62679" lon="6.86697">
        <ele>1860.9</ele>
        <time>2016-05-06T15:11:17Z</time>
      </trkpt>
      <trkpt lat="45.62678" lon="6.86697">
        <ele>1861</ele>
        <time>2016-05-06T15:11:19Z</time>
      </trkpt>
      <trkpt lat="45.62678" lon="6.86697">
        <ele>1861</ele>
        <time>2016-05-06T15:11:21Z</time>
      </trkpt>
      <trkpt lat="45.62677" lon="6.86698">
        <ele>1861.1</ele>
        <time>2016-05-06T15:11:23Z</time>
      </trkpt>
      <trkpt lat="45.62677" lon="6.86698">
        <ele>1861</ele>
        <time>2016-05-06T15:11:25Z</time>
      </trkpt>
      <trkpt lat="45.62677" lon="6.86698">
        <ele>1860.9</ele>
        <time>2016-05-06T15:11:27Z</time>
      </trkpt>
      <trkpt lat="45.62676" lon="6.86698">
        <ele>1860</ele>
        <time>2016-05-06T15:11:30Z</time>
      </trkpt>
      <trkpt lat="45.62674" lon="6.86699">
        <ele>1860</ele>
        <time>2016-05-06T15:11:34Z</time>
      </trkpt>
      <trkpt lat="45.62674" lon="6.867">
        <ele>1861.1</ele>
        <time>2016-05-06T15:11:37Z</time>
      </trkpt>
      <trkpt lat="45.62673" lon="6.867">
        <ele>1861.2</ele>
        <time>2016-05-06T15:11:39Z</time>
      </trkpt>
      <trkpt lat="45.62673" lon="6.86701">
        <ele>1861.1</ele>
        <time>2016-05-06T15:11:41Z</time>
      </trkpt>
      <trkpt lat="45.62673" lon="6.86701">
        <ele>1861</ele>
        <time>2016-05-06T15:11:43Z</time>
      </trkpt>
      <trkpt lat="45.62672" lon="6.86701">
        <ele>1861</ele>
        <time>2016-05-06T15:11:45Z</time>
      </trkpt>
      <trkpt lat="45.62672" lon="6.86701">
        <ele>1860.9</ele>
        <time>2016-05-06T15:11:47Z</time>
      </trkpt>
      <trkpt lat="45.62672" lon="6.86701">
        <ele>1860.7</ele>
        <time>2016-05-06T15:11:49Z</time>
      </trkpt>
      <trkpt lat="45.62672" lon="6.86701">
        <ele>1860.7</ele>
        <time>2016-05-06T15:11:51Z</time>
      </trkpt>
      <trkpt lat="45.62672" lon="6.86701">
        <ele>1860.6</ele>
        <time>2016-05-06T15:11:53Z</time>
      </trkpt>
      <trkpt lat="45.62672" lon="6.86701">
        <ele>1860.4</ele>
        <time>2016-05-06T15:11:55Z</time>
      </trkpt>
      <trkpt lat="45.62671" lon="6.86701">
        <ele>1860.2</ele>
        <time>2016-05-06T15:11:57Z</time>
      </trkpt>
      <trkpt lat="45.62671" lon="6.86701">
        <ele>1860.2</ele>
        <time>2016-05-06T15:11:59Z</time>
      </trkpt>
      <trkpt lat="45.62671" lon="6.86701">
        <ele>1860.3</ele>
        <time>2016-05-06T15:12:01Z</time>
      </trkpt>
      <trkpt lat="45.62672" lon="6.86701">
        <ele>1860.4</ele>
        <time>2016-05-06T15:12:03Z</time>
      </trkpt>
      <trkpt lat="45.62672" lon="6.86701">
        <ele>1860.4</ele>
        <time>2016-05-06T15:12:05Z</time>
      </trkpt>
      <trkpt lat="45.62672" lon="6.86701">
        <ele>1860.4</ele>
        <time>2016-05-06T15:12:07Z</time>
      </trkpt>
      <trkpt lat="45.62671" lon="6.86701">
        <ele>1860.4</ele>
        <time>2016-05-06T15:12:09Z</time>
      </trkpt>
      <trkpt lat="45.62671" lon="6.86701">
        <ele>1860.4</ele>
        <time>2016-05-06T15:12:11Z</time>
      </trkpt>
      <trkpt lat="45.62671" lon="6.86701">
        <ele>1860.4</ele>
        <time>2016-05-06T15:12:13Z</time>
      </trkpt>
      <trkpt lat="45.6267" lon="6.86701">
        <ele>1860.5</ele>
        <time>2016-05-06T15:12:15Z</time>
      </trkpt>
      <trkpt lat="45.6267" lon="6.86701">
        <ele>1860.5</ele>
        <time>2016-05-06T15:12:17Z</time>
      </trkpt>
      <trkpt lat="45.6267" lon="6.86701">
        <ele>1860.7</ele>
        <time>2016-05-06T15:12:19Z</time>
      </trkpt>
      <trkpt lat="45.6267" lon="6.867">
        <ele>1860.8</ele>
        <time>2016-05-06T15:12:21Z</time>
      </trkpt>
      <trkpt lat="45.62671" lon="6.867">
        <ele>1860.8</ele>
        <time>2016-05-06T15:12:23Z</time>
      </trkpt>
      <trkpt lat="45.62671" lon="6.86701">
        <ele>1860.7</ele>
        <time>2016-05-06T15:12:25Z</time>
      </trkpt>
      <trkpt lat="45.62671" lon="6.86701">
        <ele>1860.8</ele>
        <time>2016-05-06T15:12:27Z</time>
      </trkpt>
      <trkpt lat="45.6267" lon="6.86701">
        <ele>1860.9</ele>
        <time>2016-05-06T15:12:29Z</time>
      </trkpt>
      <trkpt lat="45.6267" lon="6.86701">
        <ele>1861</ele>
        <time>2016-05-06T15:12:31Z</time>
      </trkpt>
      <trkpt lat="45.6267" lon="6.86701">
        <ele>1861.1</ele>
        <time>2016-05-06T15:12:33Z</time>
      </trkpt>
      <trkpt lat="45.6267" lon="6.86701">
        <ele>1861.2</ele>
        <time>2016-05-06T15:12:35Z</time>
      </trkpt>
      <trkpt lat="45.62671" lon="6.86701">
        <ele>1861.2</ele>
        <time>2016-05-06T15:12:37Z</time>
      </trkpt>
      <trkpt lat="45.62671" lon="6.867">
        <ele>1861.1</ele>
        <time>2016-05-06T15:12:39Z</time>
      </trkpt>
      <trkpt lat="45.62671" lon="6.867">
        <ele>1860.9</ele>
        <time>2016-05-06T15:12:41Z</time>
      </trkpt>
      <trkpt lat="45.62671" lon="6.867">
        <ele>1860.7</ele>
        <time>2016-05-06T15:12:43Z</time>
      </trkpt>
      <trkpt lat="45.62671" lon="6.86701">
        <ele>1860.6</ele>
        <time>2016-05-06T15:12:45Z</time>
      </trkpt>
      <trkpt lat="45.62671" lon="6.86701">
        <ele>1860.5</ele>
        <time>2016-05-06T15:12:47Z</time>
      </trkpt>
      <trkpt lat="45.62671" lon="6.86701">
        <ele>1860.6</ele>
        <time>2016-05-06T15:12:49Z</time>
      </trkpt>
      <trkpt lat="45.62671" lon="6.86701">
        <ele>1860.8</ele>
        <time>2016-05-06T15:12:51Z</time>
      </trkpt>
      <trkpt lat="45.62672" lon="6.867">
        <ele>1861</ele>
        <time>2016-05-06T15:12:53Z</time>
      </trkpt>
      <trkpt lat="45.62672" lon="6.86699">
        <ele>1861</ele>
        <time>2016-05-06T15:12:55Z</time>
      </trkpt>
      <trkpt lat="45.62672" lon="6.86698">
        <ele>1861</ele>
        <time>2016-05-06T15:12:57Z</time>
      </trkpt>
      <trkpt lat="45.62672" lon="6.86699">
        <ele>1861</ele>
        <time>2016-05-06T15:12:59Z</time>
      </trkpt>
      <trkpt lat="45.62672" lon="6.86699">
        <ele>1860.8</ele>
        <time>2016-05-06T15:13:01Z</time>
      </trkpt>
      <trkpt lat="45.62672" lon="6.86699">
        <ele>1860.9</ele>
        <time>2016-05-06T15:13:03Z</time>
      </trkpt>
      <trkpt lat="45.62672" lon="6.86699">
        <ele>1861</ele>
        <time>2016-05-06T15:13:05Z</time>
      </trkpt>
      <trkpt lat="45.62672" lon="6.86699">
        <ele>1861.1</ele>
        <time>2016-05-06T15:13:07Z</time>
      </trkpt>
      <trkpt lat="45.62673" lon="6.86699">
        <ele>1861</ele>
        <time>2016-05-06T15:13:09Z</time>
      </trkpt>
      <trkpt lat="45.62673" lon="6.86699">
        <ele>1860.9</ele>
        <time>2016-05-06T15:13:11Z</time>
      </trkpt>
      <trkpt lat="45.62673" lon="6.86699">
        <ele>1860.9</ele>
        <time>2016-05-06T15:13:13Z</time>
      </trkpt>
      <trkpt lat="45.62673" lon="6.86699">
        <ele>1861.1</ele>
        <time>2016-05-06T15:13:15Z</time>
      </trkpt>
      <trkpt lat="45.62673" lon="6.86699">
        <ele>1861.4</ele>
        <time>2016-05-06T15:13:17Z</time>
      </trkpt>
      <trkpt lat="45.62673" lon="6.867">
        <ele>1861.4</ele>
        <time>2016-05-06T15:13:19Z</time>
      </trkpt>
      <trkpt lat="45.62673" lon="6.867">
        <ele>1861.3</ele>
        <time>2016-05-06T15:13:21Z</time>
      </trkpt>
      <trkpt lat="45.62672" lon="6.86701">
        <ele>1861.2</ele>
        <time>2016-05-06T15:13:23Z</time>
      </trkpt>
      <trkpt lat="45.62673" lon="6.86701">
        <ele>1861.1</ele>
        <time>2016-05-06T15:13:25Z</time>
      </trkpt>
      <trkpt lat="45.62673" lon="6.86701">
        <ele>1860.9</ele>
        <time>2016-05-06T15:13:27Z</time>
      </trkpt>
      <trkpt lat="45.62673" lon="6.86701">
        <ele>1861</ele>
        <time>2016-05-06T15:13:29Z</time>
      </trkpt>
      <trkpt lat="45.62673" lon="6.86701">
        <ele>1860.8</ele>
        <time>2016-05-06T15:13:31Z</time>
      </trkpt>
      <trkpt lat="45.62674" lon="6.86701">
        <ele>1860.8</ele>
        <time>2016-05-06T15:13:33Z</time>
      </trkpt>
      <trkpt lat="45.62673" lon="6.86701">
        <ele>1860.8</ele>
        <time>2016-05-06T15:13:35Z</time>
      </trkpt>
      <trkpt lat="45.62674" lon="6.86701">
        <ele>1860.8</ele>
        <time>2016-05-06T15:13:37Z</time>
      </trkpt>
      <trkpt lat="45.62674" lon="6.86701">
        <ele>1860.8</ele>
        <time>2016-05-06T15:13:39Z</time>
      </trkpt>
      <trkpt lat="45.62675" lon="6.86701">
        <ele>1860.8</ele>
        <time>2016-05-06T15:13:41Z</time>
      </trkpt>
      <trkpt lat="45.62675" lon="6.86701">
        <ele>1860.8</ele>
        <time>2016-05-06T15:13:43Z</time>
      </trkpt>
      <trkpt lat="45.62676" lon="6.86701">
        <ele>1860.9</ele>
        <time>2016-05-06T15:13:45Z</time>
      </trkpt>
      <trkpt lat="45.62676" lon="6.86701">
        <ele>1861</ele>
        <time>2016-05-06T15:13:47Z</time>
      </trkpt>
      <trkpt lat="45.62676" lon="6.86701">
        <ele>1861</ele>
        <time>2016-05-06T15:13:49Z</time>
      </trkpt>
      <trkpt lat="45.62676" lon="6.86701">
        <ele>1861</ele>
        <time>2016-05-06T15:13:51Z</time>
      </trkpt>
      <trkpt lat="45.62676" lon="6.86701">
        <ele>1861</ele>
        <time>2016-05-06T15:13:53Z</time>
      </trkpt>
      <trkpt lat="45.62676" lon="6.86701">
        <ele>1861</ele>
        <time>2016-05-06T15:13:55Z</time>
      </trkpt>
      <trkpt lat="45.62676" lon="6.86701">
        <ele>1861</ele>
        <time>2016-05-06T15:13:57Z</time>
      </trkpt>
      <trkpt lat="45.62676" lon="6.86701">
        <ele>1860.9</ele>
        <time>2016-05-06T15:13:59Z</time>
      </trkpt>
      <trkpt lat="45.62676" lon="6.86701">
        <ele>1860.8</ele>
        <time>2016-05-06T15:14:01Z</time>
      </trkpt>
      <trkpt lat="45.62676" lon="6.86701">
        <ele>1861.1</ele>
        <time>2016-05-06T15:14:03Z</time>
      </trkpt>
      <trkpt lat="45.62676" lon="6.86702">
        <ele>1861.2</ele>
        <time>2016-05-06T15:14:05Z</time>
      </trkpt>
      <trkpt lat="45.62676" lon="6.86702">
        <ele>1861.3</ele>
        <time>2016-05-06T15:14:07Z</time>
      </trkpt>
      <trkpt lat="45.62676" lon="6.86702">
        <ele>1861</ele>
        <time>2016-05-06T15:14:10Z</time>
      </trkpt>
      <trkpt lat="45.62676" lon="6.86702">
        <ele>1861.4</ele>
        <time>2016-05-06T15:14:13Z</time>
      </trkpt>
      <trkpt lat="45.62677" lon="6.86702">
        <ele>1861.3</ele>
        <time>2016-05-06T15:14:15Z</time>
      </trkpt>
      <trkpt lat="45.62677" lon="6.86702">
        <ele>1861.2</ele>
        <time>2016-05-06T15:14:17Z</time>
      </trkpt>
      <trkpt lat="45.62676" lon="6.86702">
        <ele>1861.2</ele>
        <time>2016-05-06T15:14:19Z</time>
      </trkpt>
      <trkpt lat="45.62676" lon="6.86702">
        <ele>1861.2</ele>
        <time>2016-05-06T15:14:21Z</time>
      </trkpt>
      <trkpt lat="45.62677" lon="6.86702">
        <ele>1861.1</ele>
        <time>2016-05-06T15:14:23Z</time>
      </trkpt>
      <trkpt lat="45.62677" lon="6.86702">
        <ele>1861.1</ele>
        <time>2016-05-06T15:14:25Z</time>
      </trkpt>
      <trkpt lat="45.62677" lon="6.86703">
        <ele>1861.2</ele>
        <time>2016-05-06T15:14:27Z</time>
      </trkpt>
      <trkpt lat="45.62677" lon="6.86702">
        <ele>1861</ele>
        <time>2016-05-06T15:14:30Z</time>
      </trkpt>
      <trkpt lat="45.62678" lon="6.86703">
        <ele>1861.1</ele>
        <time>2016-05-06T15:14:33Z</time>
      </trkpt>
      <trkpt lat="45.62678" lon="6.86703">
        <ele>1861.2</ele>
        <time>2016-05-06T15:14:35Z</time>
      </trkpt>
      <trkpt lat="45.62677" lon="6.86703">
        <ele>1861.2</ele>
        <time>2016-05-06T15:14:37Z</time>
      </trkpt>
      <trkpt lat="45.62677" lon="6.86704">
        <ele>1861.6</ele>
        <time>2016-05-06T15:14:39Z</time>
      </trkpt>
      <trkpt lat="45.62677" lon="6.86704">
        <ele>1861.8</ele>
        <time>2016-05-06T15:14:41Z</time>
      </trkpt>
      <trkpt lat="45.62677" lon="6.86704">
        <ele>1861.8</ele>
        <time>2016-05-06T15:14:43Z</time>
      </trkpt>
      <trkpt lat="45.62678" lon="6.86704">
        <ele>1861.8</ele>
        <time>2016-05-06T15:14:45Z</time>
      </trkpt>
      <trkpt lat="45.62678" lon="6.86704">
        <ele>1861.8</ele>
        <time>2016-05-06T15:14:47Z</time>
      </trkpt>
      <trkpt lat="45.62679" lon="6.86704">
        <ele>1861.8</ele>
        <time>2016-05-06T15:14:49Z</time>
      </trkpt>
      <trkpt lat="45.62679" lon="6.86704">
        <ele>1861.8</ele>
        <time>2016-05-06T15:14:51Z</time>
      </trkpt>
      <trkpt lat="45.6268" lon="6.86704">
        <ele>1861.8</ele>
        <time>2016-05-06T15:14:53Z</time>
      </trkpt>
      <trkpt lat="45.6268" lon="6.86704">
        <ele>1861.8</ele>
        <time>2016-05-06T15:14:55Z</time>
      </trkpt>
      <trkpt lat="45.62681" lon="6.86704">
        <ele>1861.7</ele>
        <time>2016-05-06T15:14:57Z</time>
      </trkpt>
      <trkpt lat="45.62681" lon="6.86704">
        <ele>1861.6</ele>
        <time>2016-05-06T15:14:59Z</time>
      </trkpt>
      <trkpt lat="45.6268" lon="6.86704">
        <ele>1861.4</ele>
        <time>2016-05-06T15:15:01Z</time>
      </trkpt>
      <trkpt lat="45.6268" lon="6.86704">
        <ele>1861.5</ele>
        <time>2016-05-06T15:15:03Z</time>
      </trkpt>
      <trkpt lat="45.6268" lon="6.86704">
        <ele>1861.7</ele>
        <time>2016-05-06T15:15:05Z</time>
      </trkpt>
      <trkpt lat="45.6268" lon="6.86703">
        <ele>1861.6</ele>
        <time>2016-05-06T15:15:07Z</time>
      </trkpt>
      <trkpt lat="45.6268" lon="6.86702">
        <ele>1861.6</ele>
        <time>2016-05-06T15:15:09Z</time>
      </trkpt>
      <trkpt lat="45.6268" lon="6.86702">
        <ele>1861.5</ele>
        <time>2016-05-06T15:15:11Z</time>
      </trkpt>
      <trkpt lat="45.6268" lon="6.86702">
        <ele>1861.3</ele>
        <time>2016-05-06T15:15:13Z</time>
      </trkpt>
      <trkpt lat="45.6268" lon="6.86703">
        <ele>1861.3</ele>
        <time>2016-05-06T15:15:15Z</time>
      </trkpt>
      <trkpt lat="45.6268" lon="6.86703">
        <ele>1861.2</ele>
        <time>2016-05-06T15:15:17Z</time>
      </trkpt>
      <trkpt lat="45.62681" lon="6.86702">
        <ele>1861.2</ele>
        <time>2016-05-06T15:15:19Z</time>
      </trkpt>
      <trkpt lat="45.62681" lon="6.86702">
        <ele>1861.2</ele>
        <time>2016-05-06T15:15:21Z</time>
      </trkpt>
      <trkpt lat="45.62681" lon="6.86702">
        <ele>1861.2</ele>
        <time>2016-05-06T15:15:23Z</time>
      </trkpt>
      <trkpt lat="45.62681" lon="6.86702">
        <ele>1861.4</ele>
        <time>2016-05-06T15:15:25Z</time>
      </trkpt>
      <trkpt lat="45.62681" lon="6.86703">
        <ele>1861.3</ele>
        <time>2016-05-06T15:15:27Z</time>
      </trkpt>
      <trkpt lat="45.6268" lon="6.86704">
        <ele>1861.1</ele>
        <time>2016-05-06T15:15:29Z</time>
      </trkpt>
      <trkpt lat="45.6268" lon="6.86704">
        <ele>1861</ele>
        <time>2016-05-06T15:15:31Z</time>
      </trkpt>
      <trkpt lat="45.62681" lon="6.86703">
        <ele>1860.9</ele>
        <time>2016-05-06T15:15:33Z</time>
      </trkpt>
      <trkpt lat="45.62681" lon="6.86703">
        <ele>1860.8</ele>
        <time>2016-05-06T15:15:35Z</time>
      </trkpt>
      <trkpt lat="45.62682" lon="6.86703">
        <ele>1860.9</ele>
        <time>2016-05-06T15:15:37Z</time>
      </trkpt>
      <trkpt lat="45.62682" lon="6.86702">
        <ele>1860.9</ele>
        <time>2016-05-06T15:15:39Z</time>
      </trkpt>
      <trkpt lat="45.62681" lon="6.86702">
        <ele>1860.8</ele>
        <time>2016-05-06T15:15:41Z</time>
      </trkpt>
      <trkpt lat="45.62681" lon="6.86701">
        <ele>1860.8</ele>
        <time>2016-05-06T15:15:43Z</time>
      </trkpt>
      <trkpt lat="45.62681" lon="6.86701">
        <ele>1860.9</ele>
        <time>2016-05-06T15:15:45Z</time>
      </trkpt>
      <trkpt lat="45.6268" lon="6.86701">
        <ele>1861</ele>
        <time>2016-05-06T15:15:47Z</time>
      </trkpt>
      <trkpt lat="45.6268" lon="6.86701">
        <ele>1861.2</ele>
        <time>2016-05-06T15:15:49Z</time>
      </trkpt>
      <trkpt lat="45.6268" lon="6.86701">
        <ele>1861.5</ele>
        <time>2016-05-06T15:15:51Z</time>
      </trkpt>
      <trkpt lat="45.6268" lon="6.86701">
        <ele>1861.7</ele>
        <time>2016-05-06T15:15:53Z</time>
      </trkpt>
      <trkpt lat="45.62679" lon="6.86702">
        <ele>1861.8</ele>
        <time>2016-05-06T15:15:55Z</time>
      </trkpt>
      <trkpt lat="45.62679" lon="6.86702">
        <ele>1861.7</ele>
        <time>2016-05-06T15:15:57Z</time>
      </trkpt>
      <trkpt lat="45.62679" lon="6.86702">
        <ele>1861.6</ele>
        <time>2016-05-06T15:15:59Z</time>
      </trkpt>
      <trkpt lat="45.62679" lon="6.86702">
        <ele>1861.5</ele>
        <time>2016-05-06T15:16:01Z</time>
      </trkpt>
      <trkpt lat="45.62679" lon="6.86702">
        <ele>1861.5</ele>
        <time>2016-05-06T15:16:03Z</time>
      </trkpt>
      <trkpt lat="45.62678" lon="6.86702">
        <ele>1861.5</ele>
        <time>2016-05-06T15:16:05Z</time>
      </trkpt>
      <trkpt lat="45.62678" lon="6.86702">
        <ele>1861.4</ele>
        <time>2016-05-06T15:16:07Z</time>
      </trkpt>
      <trkpt lat="45.62678" lon="6.86702">
        <ele>1861.3</ele>
        <time>2016-05-06T15:16:09Z</time>
      </trkpt>
      <trkpt lat="45.62677" lon="6.86702">
        <ele>1861.4</ele>
        <time>2016-05-06T15:16:11Z</time>
      </trkpt>
      <trkpt lat="45.62676" lon="6.86703">
        <ele>1861.1</ele>
        <time>2016-05-06T15:16:13Z</time>
      </trkpt>
      <trkpt lat="45.62676" lon="6.86703">
        <ele>1860.9</ele>
        <time>2016-05-06T15:16:15Z</time>
      </trkpt>
      <trkpt lat="45.62675" lon="6.86703">
        <ele>1860.7</ele>
        <time>2016-05-06T15:16:17Z</time>
      </trkpt>
      <trkpt lat="45.62675" lon="6.86703">
        <ele>1860.6</ele>
        <time>2016-05-06T15:16:19Z</time>
      </trkpt>
      <trkpt lat="45.62674" lon="6.86703">
        <ele>1860.7</ele>
        <time>2016-05-06T15:16:21Z</time>
      </trkpt>
      <trkpt lat="45.62674" lon="6.86704">
        <ele>1860.6</ele>
        <time>2016-05-06T15:16:23Z</time>
      </trkpt>
      <trkpt lat="45.62673" lon="6.86705">
        <ele>1860.6</ele>
        <time>2016-05-06T15:16:25Z</time>
      </trkpt>
      <trkpt lat="45.62673" lon="6.86705">
        <ele>1860.8</ele>
        <time>2016-05-06T15:16:27Z</time>
      </trkpt>
      <trkpt lat="45.62672" lon="6.86706">
        <ele>1860.8</ele>
        <time>2016-05-06T15:16:29Z</time>
      </trkpt>
      <trkpt lat="45.62671" lon="6.86706">
        <ele>1860.8</ele>
        <time>2016-05-06T15:16:31Z</time>
      </trkpt>
      <trkpt lat="45.6267" lon="6.86707">
        <ele>1860.8</ele>
        <time>2016-05-06T15:16:33Z</time>
      </trkpt>
      <trkpt lat="45.6267" lon="6.86707">
        <ele>1860.6</ele>
        <time>2016-05-06T15:16:35Z</time>
      </trkpt>
      <trkpt lat="45.62669" lon="6.86708">
        <ele>1860.4</ele>
        <time>2016-05-06T15:16:37Z</time>
      </trkpt>
      <trkpt lat="45.62668" lon="6.86709">
        <ele>1860.4</ele>
        <time>2016-05-06T15:16:39Z</time>
      </trkpt>
      <trkpt lat="45.62667" lon="6.86709">
        <ele>1860.4</ele>
        <time>2016-05-06T15:16:41Z</time>
      </trkpt>
      <trkpt lat="45.62666" lon="6.8671">
        <ele>1860.3</ele>
        <time>2016-05-06T15:16:43Z</time>
      </trkpt>
      <trkpt lat="45.62665" lon="6.8671">
        <ele>1860.4</ele>
        <time>2016-05-06T15:16:45Z</time>
      </trkpt>
      <trkpt lat="45.62664" lon="6.86711">
        <ele>1860.5</ele>
        <time>2016-05-06T15:16:47Z</time>
      </trkpt>
      <trkpt lat="45.62662" lon="6.86711">
        <ele>1860.7</ele>
        <time>2016-05-06T15:16:49Z</time>
      </trkpt>
      <trkpt lat="45.62661" lon="6.86711">
        <ele>1860.8</ele>
        <time>2016-05-06T15:16:51Z</time>
      </trkpt>
      <trkpt lat="45.62662" lon="6.86711">
        <ele>1860.7</ele>
        <time>2016-05-06T15:16:53Z</time>
      </trkpt>
      <trkpt lat="45.62661" lon="6.86711">
        <ele>1860.6</ele>
        <time>2016-05-06T15:16:55Z</time>
      </trkpt>
      <trkpt lat="45.62661" lon="6.86711">
        <ele>1860.7</ele>
        <time>2016-05-06T15:16:57Z</time>
      </trkpt>
      <trkpt lat="45.6266" lon="6.8671">
        <ele>1860.7</ele>
        <time>2016-05-06T15:16:59Z</time>
      </trkpt>
      <trkpt lat="45.62664" lon="6.86706">
        <ele>1860.6</ele>
        <time>2016-05-06T15:17:01Z</time>
      </trkpt>
      <trkpt lat="45.62667" lon="6.86702">
        <ele>1860.6</ele>
        <time>2016-05-06T15:17:03Z</time>
      </trkpt>
      <trkpt lat="45.62667" lon="6.86699">
        <ele>1860.6</ele>
        <time>2016-05-06T15:17:05Z</time>
      </trkpt>
      <trkpt lat="45.62669" lon="6.86697">
        <ele>1860.4</ele>
        <time>2016-05-06T15:17:07Z</time>
      </trkpt>
      <trkpt lat="45.62669" lon="6.86696">
        <ele>1860.3</ele>
        <time>2016-05-06T15:17:09Z</time>
      </trkpt>
      <trkpt lat="45.62669" lon="6.86696">
        <ele>1860.2</ele>
        <time>2016-05-06T15:17:11Z</time>
      </trkpt>
      <trkpt lat="45.62669" lon="6.86696">
        <ele>1860.3</ele>
        <time>2016-05-06T15:17:13Z</time>
      </trkpt>
      <trkpt lat="45.62669" lon="6.86695">
        <ele>1860.4</ele>
        <time>2016-05-06T15:17:15Z</time>
      </trkpt>
      <trkpt lat="45.62669" lon="6.86695">
        <ele>1860.6</ele>
        <time>2016-05-06T15:17:17Z</time>
      </trkpt>
      <trkpt lat="45.62669" lon="6.86695">
        <ele>1860.7</ele>
        <time>2016-05-06T15:17:19Z</time>
      </trkpt>
      <trkpt lat="45.62669" lon="6.86695">
        <ele>1860.7</ele>
        <time>2016-05-06T15:17:21Z</time>
      </trkpt>
      <trkpt lat="45.62669" lon="6.86695">
        <ele>1860.6</ele>
        <time>2016-05-06T15:17:23Z</time>
      </trkpt>
      <trkpt lat="45.6267" lon="6.86694">
        <ele>1860.4</ele>
        <time>2016-05-06T15:17:25Z</time>
      </trkpt>
      <trkpt lat="45.62669" lon="6.86694">
        <ele>1860.3</ele>
        <time>2016-05-06T15:17:27Z</time>
      </trkpt>
      <trkpt lat="45.6267" lon="6.86694">
        <ele>1860.2</ele>
        <time>2016-05-06T15:17:29Z</time>
      </trkpt>
      <trkpt lat="45.6267" lon="6.86695">
        <ele>1860.2</ele>
        <time>2016-05-06T15:17:31Z</time>
      </trkpt>
      <trkpt lat="45.6267" lon="6.86695">
        <ele>1860.2</ele>
        <time>2016-05-06T15:17:33Z</time>
      </trkpt>
      <trkpt lat="45.6267" lon="6.86695">
        <ele>1860.2</ele>
        <time>2016-05-06T15:17:35Z</time>
      </trkpt>
      <trkpt lat="45.62669" lon="6.86695">
        <ele>1860.3</ele>
        <time>2016-05-06T15:17:37Z</time>
      </trkpt>
      <trkpt lat="45.62667" lon="6.86696">
        <ele>1860.3</ele>
        <time>2016-05-06T15:17:39Z</time>
      </trkpt>
      <trkpt lat="45.62667" lon="6.86696">
        <ele>1860.2</ele>
        <time>2016-05-06T15:17:41Z</time>
      </trkpt>
      <trkpt lat="45.62666" lon="6.86697">
        <ele>1860.2</ele>
        <time>2016-05-06T15:17:43Z</time>
      </trkpt>
      <trkpt lat="45.62665" lon="6.86698">
        <ele>1860.2</ele>
        <time>2016-05-06T15:17:45Z</time>
      </trkpt>
      <trkpt lat="45.62664" lon="6.86698">
        <ele>1860.3</ele>
        <time>2016-05-06T15:17:47Z</time>
      </trkpt>
      <trkpt lat="45.62663" lon="6.86699">
        <ele>1860.4</ele>
        <time>2016-05-06T15:17:49Z</time>
      </trkpt>
      <trkpt lat="45.62663" lon="6.86699">
        <ele>1860.5</ele>
        <time>2016-05-06T15:17:51Z</time>
      </trkpt>
      <trkpt lat="45.62663" lon="6.86699">
        <ele>1860.5</ele>
        <time>2016-05-06T15:17:53Z</time>
      </trkpt>
      <trkpt lat="45.62663" lon="6.867">
        <ele>1860.6</ele>
        <time>2016-05-06T15:17:55Z</time>
      </trkpt>
      <trkpt lat="45.62663" lon="6.867">
        <ele>1860.6</ele>
        <time>2016-05-06T15:17:57Z</time>
      </trkpt>
      <trkpt lat="45.62663" lon="6.867">
        <ele>1860.6</ele>
        <time>2016-05-06T15:17:59Z</time>
      </trkpt>
      <trkpt lat="45.62662" lon="6.86701">
        <ele>1860.6</ele>
        <time>2016-05-06T15:18:01Z</time>
      </trkpt>
      <trkpt lat="45.62662" lon="6.86701">
        <ele>1860.5</ele>
        <time>2016-05-06T15:18:03Z</time>
      </trkpt>
      <trkpt lat="45.62661" lon="6.86701">
        <ele>1860.5</ele>
        <time>2016-05-06T15:18:05Z</time>
      </trkpt>
      <trkpt lat="45.62661" lon="6.86701">
        <ele>1860.5</ele>
        <time>2016-05-06T15:18:07Z</time>
      </trkpt>
      <trkpt lat="45.62661" lon="6.86701">
        <ele>1860.5</ele>
        <time>2016-05-06T15:18:09Z</time>
      </trkpt>
      <trkpt lat="45.62662" lon="6.867">
        <ele>1860.5</ele>
        <time>2016-05-06T15:18:11Z</time>
      </trkpt>
      <trkpt lat="45.62662" lon="6.86699">
        <ele>1860.5</ele>
        <time>2016-05-06T15:18:13Z</time>
      </trkpt>
      <trkpt lat="45.62662" lon="6.86699">
        <ele>1860.5</ele>
        <time>2016-05-06T15:18:15Z</time>
      </trkpt>
      <trkpt lat="45.62662" lon="6.86699">
        <ele>1860.6</ele>
        <time>2016-05-06T15:18:17Z</time>
      </trkpt>
      <trkpt lat="45.62662" lon="6.86699">
        <ele>1860.6</ele>
        <time>2016-05-06T15:18:19Z</time>
      </trkpt>
      <trkpt lat="45.62662" lon="6.86699">
        <ele>1860.7</ele>
        <time>2016-05-06T15:18:21Z</time>
      </trkpt>
      <trkpt lat="45.62662" lon="6.86699">
        <ele>1860.7</ele>
        <time>2016-05-06T15:18:23Z</time>
      </trkpt>
      <trkpt lat="45.62663" lon="6.86699">
        <ele>1860.7</ele>
        <time>2016-05-06T15:18:25Z</time>
      </trkpt>
      <trkpt lat="45.62662" lon="6.86699">
        <ele>1860.8</ele>
        <time>2016-05-06T15:18:27Z</time>
      </trkpt>
      <trkpt lat="45.62662" lon="6.86699">
        <ele>1860.8</ele>
        <time>2016-05-06T15:18:29Z</time>
      </trkpt>
      <trkpt lat="45.62662" lon="6.86699">
        <ele>1860.8</ele>
        <time>2016-05-06T15:18:31Z</time>
      </trkpt>
      <trkpt lat="45.62662" lon="6.86699">
        <ele>1860.9</ele>
        <time>2016-05-06T15:18:33Z</time>
      </trkpt>
      <trkpt lat="45.62661" lon="6.867">
        <ele>1860.9</ele>
        <time>2016-05-06T15:18:35Z</time>
      </trkpt>
      <trkpt lat="45.62661" lon="6.867">
        <ele>1861</ele>
        <time>2016-05-06T15:18:37Z</time>
      </trkpt>
      <trkpt lat="45.6266" lon="6.867">
        <ele>1860.9</ele>
        <time>2016-05-06T15:18:39Z</time>
      </trkpt>
      <trkpt lat="45.62661" lon="6.867">
        <ele>1861</ele>
        <time>2016-05-06T15:18:41Z</time>
      </trkpt>
      <trkpt lat="45.62661" lon="6.867">
        <ele>1861.1</ele>
        <time>2016-05-06T15:18:43Z</time>
      </trkpt>
      <trkpt lat="45.62661" lon="6.867">
        <ele>1861.1</ele>
        <time>2016-05-06T15:18:45Z</time>
      </trkpt>
      <trkpt lat="45.62662" lon="6.86699">
        <ele>1861.2</ele>
        <time>2016-05-06T15:18:47Z</time>
      </trkpt>
      <trkpt lat="45.62662" lon="6.86699">
        <ele>1861.2</ele>
        <time>2016-05-06T15:18:49Z</time>
      </trkpt>
      <trkpt lat="45.62663" lon="6.86699">
        <ele>1861.2</ele>
        <time>2016-05-06T15:18:51Z</time>
      </trkpt>
      <trkpt lat="45.62663" lon="6.86699">
        <ele>1861.3</ele>
        <time>2016-05-06T15:18:53Z</time>
      </trkpt>
      <trkpt lat="45.62663" lon="6.86698">
        <ele>1861.3</ele>
        <time>2016-05-06T15:18:55Z</time>
      </trkpt>
      <trkpt lat="45.62663" lon="6.86698">
        <ele>1861.3</ele>
        <time>2016-05-06T15:18:57Z</time>
      </trkpt>
      <trkpt lat="45.62663" lon="6.86698">
        <ele>1861.4</ele>
        <time>2016-05-06T15:18:59Z</time>
      </trkpt>
      <trkpt lat="45.62663" lon="6.86697">
        <ele>1861.4</ele>
        <time>2016-05-06T15:19:01Z</time>
      </trkpt>
      <trkpt lat="45.62664" lon="6.86697">
        <ele>1861.5</ele>
        <time>2016-05-06T15:19:03Z</time>
      </trkpt>
      <trkpt lat="45.62664" lon="6.86697">
        <ele>1861.5</ele>
        <time>2016-05-06T15:19:05Z</time>
      </trkpt>
      <trkpt lat="45.62664" lon="6.86696">
        <ele>1861.6</ele>
        <time>2016-05-06T15:19:07Z</time>
      </trkpt>
      <trkpt lat="45.62665" lon="6.86696">
        <ele>1861.5</ele>
        <time>2016-05-06T15:19:09Z</time>
      </trkpt>
      <trkpt lat="45.62665" lon="6.86696">
        <ele>1861.5</ele>
        <time>2016-05-06T15:19:11Z</time>
      </trkpt>
      <trkpt lat="45.62665" lon="6.86696">
        <ele>1861.5</ele>
        <time>2016-05-06T15:19:13Z</time>
      </trkpt>
      <trkpt lat="45.62665" lon="6.86696">
        <ele>1861.5</ele>
        <time>2016-05-06T15:19:15Z</time>
      </trkpt>
      <trkpt lat="45.62666" lon="6.86695">
        <ele>1861.5</ele>
        <time>2016-05-06T15:19:17Z</time>
      </trkpt>
      <trkpt lat="45.62666" lon="6.86695">
        <ele>1861.4</ele>
        <time>2016-05-06T15:19:19Z</time>
      </trkpt>
      <trkpt lat="45.62666" lon="6.86696">
        <ele>1861.2</ele>
        <time>2016-05-06T15:19:21Z</time>
      </trkpt>
      <trkpt lat="45.62667" lon="6.86695">
        <ele>1861.2</ele>
        <time>2016-05-06T15:19:23Z</time>
      </trkpt>
      <trkpt lat="45.62667" lon="6.86695">
        <ele>1861.1</ele>
        <time>2016-05-06T15:19:25Z</time>
      </trkpt>
      <trkpt lat="45.62668" lon="6.86695">
        <ele>1861</ele>
        <time>2016-05-06T15:19:27Z</time>
      </trkpt>
      <trkpt lat="45.62668" lon="6.86695">
        <ele>1861</ele>
        <time>2016-05-06T15:19:29Z</time>
      </trkpt>
      <trkpt lat="45.62668" lon="6.86695">
        <ele>1860.9</ele>
        <time>2016-05-06T15:19:31Z</time>
      </trkpt>
      <trkpt lat="45.62668" lon="6.86696">
        <ele>1860.9</ele>
        <time>2016-05-06T15:19:33Z</time>
      </trkpt>
      <trkpt lat="45.62668" lon="6.86696">
        <ele>1860.9</ele>
        <time>2016-05-06T15:19:35Z</time>
      </trkpt>
      <trkpt lat="45.62668" lon="6.86696">
        <ele>1861</ele>
        <time>2016-05-06T15:19:37Z</time>
      </trkpt>
      <trkpt lat="45.62668" lon="6.86696">
        <ele>1861.1</ele>
        <time>2016-05-06T15:19:39Z</time>
      </trkpt>
      <trkpt lat="45.62668" lon="6.86696">
        <ele>1861.1</ele>
        <time>2016-05-06T15:19:41Z</time>
      </trkpt>
      <trkpt lat="45.62668" lon="6.86696">
        <ele>1861.1</ele>
        <time>2016-05-06T15:19:43Z</time>
      </trkpt>
      <trkpt lat="45.62668" lon="6.86696">
        <ele>1861.3</ele>
        <time>2016-05-06T15:19:45Z</time>
      </trkpt>
      <trkpt lat="45.62668" lon="6.86696">
        <ele>1861.5</ele>
        <time>2016-05-06T15:19:47Z</time>
      </trkpt>
      <trkpt lat="45.62668" lon="6.86696">
        <ele>1861.5</ele>
        <time>2016-05-06T15:19:49Z</time>
      </trkpt>
      <trkpt lat="45.62668" lon="6.86696">
        <ele>1861.4</ele>
        <time>2016-05-06T15:19:51Z</time>
      </trkpt>
      <trkpt lat="45.62668" lon="6.86695">
        <ele>1861.3</ele>
        <time>2016-05-06T15:19:53Z</time>
      </trkpt>
      <trkpt lat="45.62667" lon="6.86696">
        <ele>1861.3</ele>
        <time>2016-05-06T15:19:55Z</time>
      </trkpt>
      <trkpt lat="45.62665" lon="6.86698">
        <ele>1861.4</ele>
        <time>2016-05-06T15:19:57Z</time>
      </trkpt>
      <trkpt lat="45.62664" lon="6.86699">
        <ele>1861.5</ele>
        <time>2016-05-06T15:19:59Z</time>
      </trkpt>
      <trkpt lat="45.62663" lon="6.86699">
        <ele>1861.6</ele>
        <time>2016-05-06T15:20:01Z</time>
      </trkpt>
      <trkpt lat="45.62662" lon="6.867">
        <ele>1861.6</ele>
        <time>2016-05-06T15:20:03Z</time>
      </trkpt>
      <trkpt lat="45.62662" lon="6.867">
        <ele>1861.5</ele>
        <time>2016-05-06T15:20:05Z</time>
      </trkpt>
      <trkpt lat="45.62661" lon="6.86701">
        <ele>1861.4</ele>
        <time>2016-05-06T15:20:07Z</time>
      </trkpt>
      <trkpt lat="45.62661" lon="6.86701">
        <ele>1861.3</ele>
        <time>2016-05-06T15:20:09Z</time>
      </trkpt>
      <trkpt lat="45.62661" lon="6.86701">
        <ele>1861.3</ele>
        <time>2016-05-06T15:20:11Z</time>
      </trkpt>
      <trkpt lat="45.62661" lon="6.86701">
        <ele>1861.2</ele>
        <time>2016-05-06T15:20:13Z</time>
      </trkpt>
      <trkpt lat="45.62661" lon="6.86701">
        <ele>1861.1</ele>
        <time>2016-05-06T15:20:15Z</time>
      </trkpt>
      <trkpt lat="45.62661" lon="6.86701">
        <ele>1861.1</ele>
        <time>2016-05-06T15:20:17Z</time>
      </trkpt>
      <trkpt lat="45.62661" lon="6.86701">
        <ele>1861.1</ele>
        <time>2016-05-06T15:20:19Z</time>
      </trkpt>
      <trkpt lat="45.62661" lon="6.86702">
        <ele>1861.3</ele>
        <time>2016-05-06T15:20:21Z</time>
      </trkpt>
      <trkpt lat="45.62664" lon="6.867">
        <ele>1861.3</ele>
        <time>2016-05-06T15:20:23Z</time>
      </trkpt>
      <trkpt lat="45.62666" lon="6.86698">
        <ele>1861.2</ele>
        <time>2016-05-06T15:20:25Z</time>
      </trkpt>
      <trkpt lat="45.62667" lon="6.86697">
        <ele>1861.1</ele>
        <time>2016-05-06T15:20:27Z</time>
      </trkpt>
      <trkpt lat="45.62667" lon="6.86696">
        <ele>1861.1</ele>
        <time>2016-05-06T15:20:29Z</time>
      </trkpt>
      <trkpt lat="45.62668" lon="6.86696">
        <ele>1861.1</ele>
        <time>2016-05-06T15:20:31Z</time>
      </trkpt>
      <trkpt lat="45.62669" lon="6.86696">
        <ele>1861.2</ele>
        <time>2016-05-06T15:20:33Z</time>
      </trkpt>
      <trkpt lat="45.62669" lon="6.86695">
        <ele>1861.1</ele>
        <time>2016-05-06T15:20:35Z</time>
      </trkpt>
      <trkpt lat="45.6267" lon="6.86695">
        <ele>1861</ele>
        <time>2016-05-06T15:20:37Z</time>
      </trkpt>
      <trkpt lat="45.6267" lon="6.86695">
        <ele>1861.2</ele>
        <time>2016-05-06T15:20:39Z</time>
      </trkpt>
      <trkpt lat="45.6267" lon="6.86695">
        <ele>1861.2</ele>
        <time>2016-05-06T15:20:41Z</time>
      </trkpt>
      <trkpt lat="45.62669" lon="6.86695">
        <ele>1861.1</ele>
        <time>2016-05-06T15:20:43Z</time>
      </trkpt>
      <trkpt lat="45.62669" lon="6.86696">
        <ele>1861.1</ele>
        <time>2016-05-06T15:20:45Z</time>
      </trkpt>
      <trkpt lat="45.62668" lon="6.86696">
        <ele>1861</ele>
        <time>2016-05-06T15:20:47Z</time>
      </trkpt>
      <trkpt lat="45.62668" lon="6.86696">
        <ele>1861</ele>
        <time>2016-05-06T15:20:49Z</time>
      </trkpt>
      <trkpt lat="45.62668" lon="6.86696">
        <ele>1860.9</ele>
        <time>2016-05-06T15:20:51Z</time>
      </trkpt>
      <trkpt lat="45.62668" lon="6.86696">
        <ele>1860.8</ele>
        <time>2016-05-06T15:20:53Z</time>
      </trkpt>
      <trkpt lat="45.62669" lon="6.86697">
        <ele>1860.8</ele>
        <time>2016-05-06T15:20:55Z</time>
      </trkpt>
      <trkpt lat="45.62671" lon="6.86695">
        <ele>1860.8</ele>
        <time>2016-05-06T15:20:57Z</time>
      </trkpt>
      <trkpt lat="45.62671" lon="6.86695">
        <ele>1860.9</ele>
        <time>2016-05-06T15:20:59Z</time>
      </trkpt>
      <trkpt lat="45.62672" lon="6.86695">
        <ele>1860.9</ele>
        <time>2016-05-06T15:21:01Z</time>
      </trkpt>
      <trkpt lat="45.62672" lon="6.86695">
        <ele>1860.8</ele>
        <time>2016-05-06T15:21:03Z</time>
      </trkpt>
      <trkpt lat="45.62672" lon="6.86695">
        <ele>1861</ele>
        <time>2016-05-06T15:21:05Z</time>
      </trkpt>
      <trkpt lat="45.62672" lon="6.86695">
        <ele>1861.1</ele>
        <time>2016-05-06T15:21:07Z</time>
      </trkpt>
      <trkpt lat="45.62673" lon="6.86694">
        <ele>1861</ele>
        <time>2016-05-06T15:21:09Z</time>
      </trkpt>
      <trkpt lat="45.62673" lon="6.86694">
        <ele>1860.9</ele>
        <time>2016-05-06T15:21:11Z</time>
      </trkpt>
      <trkpt lat="45.62673" lon="6.86694">
        <ele>1860.8</ele>
        <time>2016-05-06T15:21:13Z</time>
      </trkpt>
      <trkpt lat="45.62673" lon="6.86695">
        <ele>1860.8</ele>
        <time>2016-05-06T15:21:15Z</time>
      </trkpt>
      <trkpt lat="45.62673" lon="6.86694">
        <ele>1860.8</ele>
        <time>2016-05-06T15:21:17Z</time>
      </trkpt>
      <trkpt lat="45.62673" lon="6.86694">
        <ele>1861</ele>
        <time>2016-05-06T15:21:19Z</time>
      </trkpt>
      <trkpt lat="45.62673" lon="6.86694">
        <ele>1861.1</ele>
        <time>2016-05-06T15:21:21Z</time>
      </trkpt>
      <trkpt lat="45.62673" lon="6.86694">
        <ele>1861.2</ele>
        <time>2016-05-06T15:21:23Z</time>
      </trkpt>
      <trkpt lat="45.62672" lon="6.86694">
        <ele>1861.2</ele>
        <time>2016-05-06T15:21:25Z</time>
      </trkpt>
      <trkpt lat="45.62672" lon="6.86694">
        <ele>1861.1</ele>
        <time>2016-05-06T15:21:27Z</time>
      </trkpt>
      <trkpt lat="45.62672" lon="6.86694">
        <ele>1861</ele>
        <time>2016-05-06T15:21:29Z</time>
      </trkpt>
      <trkpt lat="45.62672" lon="6.86694">
        <ele>1860.9</ele>
        <time>2016-05-06T15:21:31Z</time>
      </trkpt>
      <trkpt lat="45.62672" lon="6.86694">
        <ele>1861</ele>
        <time>2016-05-06T15:21:33Z</time>
      </trkpt>
      <trkpt lat="45.62672" lon="6.86694">
        <ele>1861.1</ele>
        <time>2016-05-06T15:21:35Z</time>
      </trkpt>
      <trkpt lat="45.62672" lon="6.86694">
        <ele>1861</ele>
        <time>2016-05-06T15:21:37Z</time>
      </trkpt>
      <trkpt lat="45.62671" lon="6.86695">
        <ele>1861.2</ele>
        <time>2016-05-06T15:21:39Z</time>
      </trkpt>
      <trkpt lat="45.62671" lon="6.86694">
        <ele>1861.5</ele>
        <time>2016-05-06T15:21:41Z</time>
      </trkpt>
      <trkpt lat="45.62671" lon="6.86694">
        <ele>1861.6</ele>
        <time>2016-05-06T15:21:43Z</time>
      </trkpt>
      <trkpt lat="45.62671" lon="6.86695">
        <ele>1861.6</ele>
        <time>2016-05-06T15:21:45Z</time>
      </trkpt>
      <trkpt lat="45.62671" lon="6.86695">
        <ele>1861.7</ele>
        <time>2016-05-06T15:21:47Z</time>
      </trkpt>
      <trkpt lat="45.62671" lon="6.86696">
        <ele>1861.6</ele>
        <time>2016-05-06T15:21:49Z</time>
      </trkpt>
      <trkpt lat="45.6267" lon="6.86696">
        <ele>1861.5</ele>
        <time>2016-05-06T15:21:51Z</time>
      </trkpt>
      <trkpt lat="45.6267" lon="6.86696">
        <ele>1861.4</ele>
        <time>2016-05-06T15:21:53Z</time>
      </trkpt>
      <trkpt lat="45.6267" lon="6.86696">
        <ele>1861.3</ele>
        <time>2016-05-06T15:21:55Z</time>
      </trkpt>
      <trkpt lat="45.62669" lon="6.86696">
        <ele>1861.2</ele>
        <time>2016-05-06T15:21:57Z</time>
      </trkpt>
      <trkpt lat="45.62669" lon="6.86696">
        <ele>1861.1</ele>
        <time>2016-05-06T15:21:59Z</time>
      </trkpt>
      <trkpt lat="45.62669" lon="6.86696">
        <ele>1861.1</ele>
        <time>2016-05-06T15:22:01Z</time>
      </trkpt>
      <trkpt lat="45.62669" lon="6.86696">
        <ele>1861.2</ele>
        <time>2016-05-06T15:22:03Z</time>
      </trkpt>
      <trkpt lat="45.62668" lon="6.86696">
        <ele>1861.2</ele>
        <time>2016-05-06T15:22:05Z</time>
      </trkpt>
      <trkpt lat="45.62668" lon="6.86696">
        <ele>1861.4</ele>
        <time>2016-05-06T15:22:07Z</time>
      </trkpt>
      <trkpt lat="45.62668" lon="6.86696">
        <ele>1861.3</ele>
        <time>2016-05-06T15:22:09Z</time>
      </trkpt>
      <trkpt lat="45.62668" lon="6.86696">
        <ele>1861.3</ele>
        <time>2016-05-06T15:22:11Z</time>
      </trkpt>
      <trkpt lat="45.62668" lon="6.86696">
        <ele>1861.2</ele>
        <time>2016-05-06T15:22:13Z</time>
      </trkpt>
      <trkpt lat="45.62668" lon="6.86697">
        <ele>1861.2</ele>
        <time>2016-05-06T15:22:15Z</time>
      </trkpt>
      <trkpt lat="45.62668" lon="6.86697">
        <ele>1861.2</ele>
        <time>2016-05-06T15:22:17Z</time>
      </trkpt>
      <trkpt lat="45.62668" lon="6.86697">
        <ele>1861.2</ele>
        <time>2016-05-06T15:22:19Z</time>
      </trkpt>
      <trkpt lat="45.62669" lon="6.86698">
        <ele>1861.1</ele>
        <time>2016-05-06T15:22:21Z</time>
      </trkpt>
      <trkpt lat="45.62669" lon="6.86698">
        <ele>1861.1</ele>
        <time>2016-05-06T15:22:23Z</time>
      </trkpt>
      <trkpt lat="45.62669" lon="6.86698">
        <ele>1861</ele>
        <time>2016-05-06T15:22:25Z</time>
      </trkpt>
      <trkpt lat="45.62669" lon="6.86698">
        <ele>1861</ele>
        <time>2016-05-06T15:22:27Z</time>
      </trkpt>
      <trkpt lat="45.62669" lon="6.86698">
        <ele>1861</ele>
        <time>2016-05-06T15:22:29Z</time>
      </trkpt>
      <trkpt lat="45.62669" lon="6.86698">
        <ele>1861</ele>
        <time>2016-05-06T15:22:31Z</time>
      </trkpt>
      <trkpt lat="45.62669" lon="6.86698">
        <ele>1861.3</ele>
        <time>2016-05-06T15:22:33Z</time>
      </trkpt>
      <trkpt lat="45.62669" lon="6.86698">
        <ele>1861.4</ele>
        <time>2016-05-06T15:22:35Z</time>
      </trkpt>
      <trkpt lat="45.62669" lon="6.86697">
        <ele>1861.4</ele>
        <time>2016-05-06T15:22:37Z</time>
      </trkpt>
      <trkpt lat="45.62669" lon="6.86697">
        <ele>1861.4</ele>
        <time>2016-05-06T15:22:39Z</time>
      </trkpt>
      <trkpt lat="45.62669" lon="6.86697">
        <ele>1861.2</ele>
        <time>2016-05-06T15:22:41Z</time>
      </trkpt>
      <trkpt lat="45.62668" lon="6.86697">
        <ele>1861.1</ele>
        <time>2016-05-06T15:22:43Z</time>
      </trkpt>
      <trkpt lat="45.62668" lon="6.86697">
        <ele>1861</ele>
        <time>2016-05-06T15:22:45Z</time>
      </trkpt>
      <trkpt lat="45.62668" lon="6.86697">
        <ele>1860.9</ele>
        <time>2016-05-06T15:22:47Z</time>
      </trkpt>
      <trkpt lat="45.62668" lon="6.86697">
        <ele>1860.8</ele>
        <time>2016-05-06T15:22:49Z</time>
      </trkpt>
      <trkpt lat="45.62668" lon="6.86697">
        <ele>1860.8</ele>
        <time>2016-05-06T15:22:51Z</time>
      </trkpt>
      <trkpt lat="45.62668" lon="6.86697">
        <ele>1860.7</ele>
        <time>2016-05-06T15:22:53Z</time>
      </trkpt>
      <trkpt lat="45.62668" lon="6.86696">
        <ele>1860.5</ele>
        <time>2016-05-06T15:22:55Z</time>
      </trkpt>
      <trkpt lat="45.62668" lon="6.86696">
        <ele>1860.4</ele>
        <time>2016-05-06T15:22:57Z</time>
      </trkpt>
      <trkpt lat="45.62668" lon="6.86696">
        <ele>1860.2</ele>
        <time>2016-05-06T15:22:59Z</time>
      </trkpt>
      <trkpt lat="45.62668" lon="6.86696">
        <ele>1860.1</ele>
        <time>2016-05-06T15:23:01Z</time>
      </trkpt>
      <trkpt lat="45.62668" lon="6.86696">
        <ele>1860</ele>
        <time>2016-05-06T15:23:03Z</time>
      </trkpt>
      <trkpt lat="45.62668" lon="6.86696">
        <ele>1859.9</ele>
        <time>2016-05-06T15:23:05Z</time>
      </trkpt>
      <trkpt lat="45.62668" lon="6.86697">
        <ele>1860</ele>
        <time>2016-05-06T15:23:07Z</time>
      </trkpt>
      <trkpt lat="45.62668" lon="6.86697">
        <ele>1860</ele>
        <time>2016-05-06T15:23:09Z</time>
      </trkpt>
      <trkpt lat="45.62668" lon="6.86697">
        <ele>1860.1</ele>
        <time>2016-05-06T15:23:11Z</time>
      </trkpt>
      <trkpt lat="45.62668" lon="6.86698">
        <ele>1860.2</ele>
        <time>2016-05-06T15:23:13Z</time>
      </trkpt>
      <trkpt lat="45.62668" lon="6.86698">
        <ele>1860.4</ele>
        <time>2016-05-06T15:23:15Z</time>
      </trkpt>
      <trkpt lat="45.62668" lon="6.86698">
        <ele>1860.5</ele>
        <time>2016-05-06T15:23:17Z</time>
      </trkpt>
      <trkpt lat="45.62668" lon="6.86698">
        <ele>1860.5</ele>
        <time>2016-05-06T15:23:19Z</time>
      </trkpt>
      <trkpt lat="45.62667" lon="6.86699">
        <ele>1860.6</ele>
        <time>2016-05-06T15:23:21Z</time>
      </trkpt>
      <trkpt lat="45.62667" lon="6.86698">
        <ele>1860.7</ele>
        <time>2016-05-06T15:23:23Z</time>
      </trkpt>
      <trkpt lat="45.62667" lon="6.86698">
        <ele>1860.7</ele>
        <time>2016-05-06T15:23:25Z</time>
      </trkpt>
      <trkpt lat="45.62668" lon="6.86699">
        <ele>1860.8</ele>
        <time>2016-05-06T15:23:27Z</time>
      </trkpt>
      <trkpt lat="45.62668" lon="6.86699">
        <ele>1860.8</ele>
        <time>2016-05-06T15:23:29Z</time>
      </trkpt>
      <trkpt lat="45.62668" lon="6.86699">
        <ele>1861.1</ele>
        <time>2016-05-06T15:23:31Z</time>
      </trkpt>
      <trkpt lat="45.62668" lon="6.86699">
        <ele>1861.3</ele>
        <time>2016-05-06T15:23:33Z</time>
      </trkpt>
      <trkpt lat="45.62668" lon="6.86699">
        <ele>1861.4</ele>
        <time>2016-05-06T15:23:35Z</time>
      </trkpt>
      <trkpt lat="45.62668" lon="6.86699">
        <ele>1861.1</ele>
        <time>2016-05-06T15:23:37Z</time>
      </trkpt>
      <trkpt lat="45.62668" lon="6.86699">
        <ele>1861</ele>
        <time>2016-05-06T15:23:39Z</time>
      </trkpt>
      <trkpt lat="45.62668" lon="6.86699">
        <ele>1860.9</ele>
        <time>2016-05-06T15:23:41Z</time>
      </trkpt>
      <trkpt lat="45.62668" lon="6.86699">
        <ele>1861</ele>
        <time>2016-05-06T15:23:43Z</time>
      </trkpt>
      <trkpt lat="45.62668" lon="6.86699">
        <ele>1861</ele>
        <time>2016-05-06T15:23:45Z</time>
      </trkpt>
      <trkpt lat="45.62668" lon="6.86699">
        <ele>1861.2</ele>
        <time>2016-05-06T15:23:47Z</time>
      </trkpt>
      <trkpt lat="45.62668" lon="6.867">
        <ele>1861.3</ele>
        <time>2016-05-06T15:23:49Z</time>
      </trkpt>
      <trkpt lat="45.62669" lon="6.867">
        <ele>1861.4</ele>
        <time>2016-05-06T15:23:51Z</time>
      </trkpt>
      <trkpt lat="45.62669" lon="6.867">
        <ele>1861.6</ele>
        <time>2016-05-06T15:23:53Z</time>
      </trkpt>
      <trkpt lat="45.62669" lon="6.86701">
        <ele>1861.7</ele>
        <time>2016-05-06T15:23:55Z</time>
      </trkpt>
      <trkpt lat="45.62669" lon="6.86701">
        <ele>1861.7</ele>
        <time>2016-05-06T15:23:57Z</time>
      </trkpt>
      <trkpt lat="45.62669" lon="6.86701">
        <ele>1861.9</ele>
        <time>2016-05-06T15:23:59Z</time>
      </trkpt>
      <trkpt lat="45.62669" lon="6.867">
        <ele>1861.8</ele>
        <time>2016-05-06T15:24:01Z</time>
      </trkpt>
      <trkpt lat="45.62669" lon="6.867">
        <ele>1861.7</ele>
        <time>2016-05-06T15:24:03Z</time>
      </trkpt>
      <trkpt lat="45.62669" lon="6.867">
        <ele>1861.7</ele>
        <time>2016-05-06T15:24:05Z</time>
      </trkpt>
      <trkpt lat="45.62669" lon="6.867">
        <ele>1861.8</ele>
        <time>2016-05-06T15:24:07Z</time>
      </trkpt>
      <trkpt lat="45.62668" lon="6.86699">
        <ele>1861.9</ele>
        <time>2016-05-06T15:24:09Z</time>
      </trkpt>
      <trkpt lat="45.62668" lon="6.86699">
        <ele>1861.9</ele>
        <time>2016-05-06T15:24:11Z</time>
      </trkpt>
      <trkpt lat="45.62668" lon="6.86699">
        <ele>1861.6</ele>
        <time>2016-05-06T15:24:13Z</time>
      </trkpt>
      <trkpt lat="45.62668" lon="6.86699">
        <ele>1861.3</ele>
        <time>2016-05-06T15:24:15Z</time>
      </trkpt>
      <trkpt lat="45.62668" lon="6.867">
        <ele>1861.1</ele>
        <time>2016-05-06T15:24:17Z</time>
      </trkpt>
      <trkpt lat="45.62668" lon="6.867">
        <ele>1860.9</ele>
        <time>2016-05-06T15:24:19Z</time>
      </trkpt>
      <trkpt lat="45.62667" lon="6.86699">
        <ele>1860.7</ele>
        <time>2016-05-06T15:24:21Z</time>
      </trkpt>
      <trkpt lat="45.62667" lon="6.86699">
        <ele>1860.5</ele>
        <time>2016-05-06T15:24:23Z</time>
      </trkpt>
      <trkpt lat="45.62667" lon="6.86699">
        <ele>1860.4</ele>
        <time>2016-05-06T15:24:25Z</time>
      </trkpt>
      <trkpt lat="45.62668" lon="6.86699">
        <ele>1860.3</ele>
        <time>2016-05-06T15:24:27Z</time>
      </trkpt>
      <trkpt lat="45.62668" lon="6.867">
        <ele>1860.3</ele>
        <time>2016-05-06T15:24:29Z</time>
      </trkpt>
      <trkpt lat="45.62668" lon="6.867">
        <ele>1860.3</ele>
        <time>2016-05-06T15:24:31Z</time>
      </trkpt>
      <trkpt lat="45.62668" lon="6.867">
        <ele>1860.3</ele>
        <time>2016-05-06T15:24:33Z</time>
      </trkpt>
      <trkpt lat="45.62668" lon="6.867">
        <ele>1860.4</ele>
        <time>2016-05-06T15:24:35Z</time>
      </trkpt>
      <trkpt lat="45.62668" lon="6.867">
        <ele>1860.5</ele>
        <time>2016-05-06T15:24:37Z</time>
      </trkpt>
      <trkpt lat="45.62668" lon="6.867">
        <ele>1860.6</ele>
        <time>2016-05-06T15:24:39Z</time>
      </trkpt>
      <trkpt lat="45.62668" lon="6.867">
        <ele>1860.7</ele>
        <time>2016-05-06T15:24:41Z</time>
      </trkpt>
      <trkpt lat="45.62668" lon="6.867">
        <ele>1860.8</ele>
        <time>2016-05-06T15:24:43Z</time>
      </trkpt>
      <trkpt lat="45.62668" lon="6.867">
        <ele>1861</ele>
        <time>2016-05-06T15:24:45Z</time>
      </trkpt>
      <trkpt lat="45.62668" lon="6.867">
        <ele>1861</ele>
        <time>2016-05-06T15:24:47Z</time>
      </trkpt>
      <trkpt lat="45.62668" lon="6.867">
        <ele>1861.1</ele>
        <time>2016-05-06T15:24:49Z</time>
      </trkpt>
      <trkpt lat="45.62668" lon="6.867">
        <ele>1861.2</ele>
        <time>2016-05-06T15:24:51Z</time>
      </trkpt>
      <trkpt lat="45.62668" lon="6.867">
        <ele>1861.2</ele>
        <time>2016-05-06T15:24:53Z</time>
      </trkpt>
      <trkpt lat="45.62668" lon="6.867">
        <ele>1861.1</ele>
        <time>2016-05-06T15:24:55Z</time>
      </trkpt>
      <trkpt lat="45.62668" lon="6.867">
        <ele>1861.1</ele>
        <time>2016-05-06T15:24:57Z</time>
      </trkpt>
      <trkpt lat="45.62668" lon="6.867">
        <ele>1861.2</ele>
        <time>2016-05-06T15:24:59Z</time>
      </trkpt>
      <trkpt lat="45.62668" lon="6.867">
        <ele>1861.3</ele>
        <time>2016-05-06T15:25:01Z</time>
      </trkpt>
      <trkpt lat="45.62668" lon="6.867">
        <ele>1861.3</ele>
        <time>2016-05-06T15:25:03Z</time>
      </trkpt>
      <trkpt lat="45.62668" lon="6.867">
        <ele>1861.3</ele>
        <time>2016-05-06T15:25:05Z</time>
      </trkpt>
      <trkpt lat="45.62668" lon="6.867">
        <ele>1861.2</ele>
        <time>2016-05-06T15:25:07Z</time>
      </trkpt>
      <trkpt lat="45.62668" lon="6.867">
        <ele>1861.3</ele>
        <time>2016-05-06T15:25:09Z</time>
      </trkpt>
      <trkpt lat="45.62667" lon="6.867">
        <ele>1861.3</ele>
        <time>2016-05-06T15:25:11Z</time>
      </trkpt>
      <trkpt lat="45.62667" lon="6.867">
        <ele>1861.5</ele>
        <time>2016-05-06T15:25:13Z</time>
      </trkpt>
      <trkpt lat="45.62667" lon="6.867">
        <ele>1861.6</ele>
        <time>2016-05-06T15:25:15Z</time>
      </trkpt>
      <trkpt lat="45.62666" lon="6.86699">
        <ele>1861.7</ele>
        <time>2016-05-06T15:25:17Z</time>
      </trkpt>
      <trkpt lat="45.62666" lon="6.86699">
        <ele>1861.8</ele>
        <time>2016-05-06T15:25:19Z</time>
      </trkpt>
      <trkpt lat="45.62667" lon="6.86699">
        <ele>1861.7</ele>
        <time>2016-05-06T15:25:21Z</time>
      </trkpt>
      <trkpt lat="45.62667" lon="6.86699">
        <ele>1861.7</ele>
        <time>2016-05-06T15:25:23Z</time>
      </trkpt>
      <trkpt lat="45.62667" lon="6.86699">
        <ele>1861.6</ele>
        <time>2016-05-06T15:25:25Z</time>
      </trkpt>
      <trkpt lat="45.62667" lon="6.86699">
        <ele>1861.5</ele>
        <time>2016-05-06T15:25:27Z</time>
      </trkpt>
      <trkpt lat="45.62667" lon="6.86699">
        <ele>1861.6</ele>
        <time>2016-05-06T15:25:29Z</time>
      </trkpt>
      <trkpt lat="45.62667" lon="6.86699">
        <ele>1861.5</ele>
        <time>2016-05-06T15:25:31Z</time>
      </trkpt>
      <trkpt lat="45.62667" lon="6.86699">
        <ele>1861.3</ele>
        <time>2016-05-06T15:25:33Z</time>
      </trkpt>
      <trkpt lat="45.62668" lon="6.86699">
        <ele>1861.2</ele>
        <time>2016-05-06T15:25:35Z</time>
      </trkpt>
      <trkpt lat="45.62668" lon="6.86699">
        <ele>1861.4</ele>
        <time>2016-05-06T15:25:37Z</time>
      </trkpt>
      <trkpt lat="45.62668" lon="6.86699">
        <ele>1861.6</ele>
        <time>2016-05-06T15:25:39Z</time>
      </trkpt>
      <trkpt lat="45.62668" lon="6.86699">
        <ele>1861.3</ele>
        <time>2016-05-06T15:25:41Z</time>
      </trkpt>
      <trkpt lat="45.62668" lon="6.86698">
        <ele>1861.1</ele>
        <time>2016-05-06T15:25:43Z</time>
      </trkpt>
      <trkpt lat="45.62668" lon="6.86698">
        <ele>1861.1</ele>
        <time>2016-05-06T15:25:45Z</time>
      </trkpt>
      <trkpt lat="45.62668" lon="6.86698">
        <ele>1861.1</ele>
        <time>2016-05-06T15:25:47Z</time>
      </trkpt>
      <trkpt lat="45.62668" lon="6.86698">
        <ele>1861.2</ele>
        <time>2016-05-06T15:25:49Z</time>
      </trkpt>
      <trkpt lat="45.62668" lon="6.86698">
        <ele>1861.3</ele>
        <time>2016-05-06T15:25:51Z</time>
      </trkpt>
      <trkpt lat="45.62668" lon="6.86698">
        <ele>1861.3</ele>
        <time>2016-05-06T15:25:53Z</time>
      </trkpt>
      <trkpt lat="45.62668" lon="6.86698">
        <ele>1861.3</ele>
        <time>2016-05-06T15:25:55Z</time>
      </trkpt>
      <trkpt lat="45.62668" lon="6.86698">
        <ele>1861.6</ele>
        <time>2016-05-06T15:25:57Z</time>
      </trkpt>
      <trkpt lat="45.62668" lon="6.86698">
        <ele>1861.8</ele>
        <time>2016-05-06T15:25:59Z</time>
      </trkpt>
      <trkpt lat="45.62668" lon="6.86698">
        <ele>1862.1</ele>
        <time>2016-05-06T15:26:01Z</time>
      </trkpt>
      <trkpt lat="45.62668" lon="6.86697">
        <ele>1862.5</ele>
        <time>2016-05-06T15:26:03Z</time>
      </trkpt>
      <trkpt lat="45.62668" lon="6.86697">
        <ele>1862.8</ele>
        <time>2016-05-06T15:26:05Z</time>
      </trkpt>
      <trkpt lat="45.62668" lon="6.86697">
        <ele>1863.2</ele>
        <time>2016-05-06T15:26:07Z</time>
      </trkpt>
      <trkpt lat="45.62668" lon="6.86697">
        <ele>1863.2</ele>
        <time>2016-05-06T15:26:09Z</time>
      </trkpt>
      <trkpt lat="45.62669" lon="6.86697">
        <ele>1862.9</ele>
        <time>2016-05-06T15:26:11Z</time>
      </trkpt>
      <trkpt lat="45.62669" lon="6.86696">
        <ele>1862.4</ele>
        <time>2016-05-06T15:26:13Z</time>
      </trkpt>
      <trkpt lat="45.62669" lon="6.86696">
        <ele>1862</ele>
        <time>2016-05-06T15:26:15Z</time>
      </trkpt>
      <trkpt lat="45.62669" lon="6.86696">
        <ele>1861.8</ele>
        <time>2016-05-06T15:26:17Z</time>
      </trkpt>
      <trkpt lat="45.62668" lon="6.86696">
        <ele>1861.5</ele>
        <time>2016-05-06T15:26:19Z</time>
      </trkpt>
      <trkpt lat="45.62668" lon="6.86696">
        <ele>1861.3</ele>
        <time>2016-05-06T15:26:21Z</time>
      </trkpt>
      <trkpt lat="45.62668" lon="6.86696">
        <ele>1861</ele>
        <time>2016-05-06T15:26:23Z</time>
      </trkpt>
      <trkpt lat="45.62668" lon="6.86696">
        <ele>1860.8</ele>
        <time>2016-05-06T15:26:25Z</time>
      </trkpt>
      <trkpt lat="45.62668" lon="6.86696">
        <ele>1860.7</ele>
        <time>2016-05-06T15:26:27Z</time>
      </trkpt>
      <trkpt lat="45.62668" lon="6.86696">
        <ele>1860.7</ele>
        <time>2016-05-06T15:26:29Z</time>
      </trkpt>
      <trkpt lat="45.62668" lon="6.86696">
        <ele>1860.7</ele>
        <time>2016-05-06T15:26:31Z</time>
      </trkpt>
      <trkpt lat="45.62667" lon="6.86696">
        <ele>1860.5</ele>
        <time>2016-05-06T15:26:33Z</time>
      </trkpt>
      <trkpt lat="45.62667" lon="6.86696">
        <ele>1860.5</ele>
        <time>2016-05-06T15:26:35Z</time>
      </trkpt>
      <trkpt lat="45.62667" lon="6.86696">
        <ele>1860.3</ele>
        <time>2016-05-06T15:26:37Z</time>
      </trkpt>
      <trkpt lat="45.62667" lon="6.86696">
        <ele>1860.3</ele>
        <time>2016-05-06T15:26:39Z</time>
      </trkpt>
      <trkpt lat="45.62667" lon="6.86696">
        <ele>1860.3</ele>
        <time>2016-05-06T15:26:41Z</time>
      </trkpt>
      <trkpt lat="45.62667" lon="6.86696">
        <ele>1860.3</ele>
        <time>2016-05-06T15:26:43Z</time>
      </trkpt>
      <trkpt lat="45.62667" lon="6.86696">
        <ele>1860.3</ele>
        <time>2016-05-06T15:26:45Z</time>
      </trkpt>
      <trkpt lat="45.62667" lon="6.86696">
        <ele>1860.2</ele>
        <time>2016-05-06T15:26:47Z</time>
      </trkpt>
      <trkpt lat="45.62667" lon="6.86696">
        <ele>1860.2</ele>
        <time>2016-05-06T15:26:49Z</time>
      </trkpt>
      <trkpt lat="45.62667" lon="6.86697">
        <ele>1860.2</ele>
        <time>2016-05-06T15:26:51Z</time>
      </trkpt>
      <trkpt lat="45.62667" lon="6.86697">
        <ele>1860.2</ele>
        <time>2016-05-06T15:26:53Z</time>
      </trkpt>
      <trkpt lat="45.62667" lon="6.86697">
        <ele>1860.3</ele>
        <time>2016-05-06T15:26:55Z</time>
      </trkpt>
      <trkpt lat="45.62667" lon="6.86697">
        <ele>1860.3</ele>
        <time>2016-05-06T15:26:57Z</time>
      </trkpt>
      <trkpt lat="45.62667" lon="6.86698">
        <ele>1860.3</ele>
        <time>2016-05-06T15:26:59Z</time>
      </trkpt>
      <trkpt lat="45.62667" lon="6.86698">
        <ele>1860.2</ele>
        <time>2016-05-06T15:27:01Z</time>
      </trkpt>
      <trkpt lat="45.62667" lon="6.86697">
        <ele>1860.2</ele>
        <time>2016-05-06T15:27:03Z</time>
      </trkpt>
      <trkpt lat="45.62667" lon="6.86697">
        <ele>1860.3</ele>
        <time>2016-05-06T15:27:05Z</time>
      </trkpt>
      <trkpt lat="45.62667" lon="6.86697">
        <ele>1860.3</ele>
        <time>2016-05-06T15:27:07Z</time>
      </trkpt>
      <trkpt lat="45.62667" lon="6.86697">
        <ele>1860.3</ele>
        <time>2016-05-06T15:27:09Z</time>
      </trkpt>
      <trkpt lat="45.62667" lon="6.86697">
        <ele>1860.3</ele>
        <time>2016-05-06T15:27:11Z</time>
      </trkpt>
      <trkpt lat="45.62667" lon="6.86697">
        <ele>1860.3</ele>
        <time>2016-05-06T15:27:13Z</time>
      </trkpt>
      <trkpt lat="45.62667" lon="6.86697">
        <ele>1860.4</ele>
        <time>2016-05-06T15:27:15Z</time>
      </trkpt>
      <trkpt lat="45.62667" lon="6.86697">
        <ele>1860.4</ele>
        <time>2016-05-06T15:27:17Z</time>
      </trkpt>
      <trkpt lat="45.62667" lon="6.86697">
        <ele>1860.6</ele>
        <time>2016-05-06T15:27:19Z</time>
      </trkpt>
      <trkpt lat="45.62668" lon="6.86697">
        <ele>1860.6</ele>
        <time>2016-05-06T15:27:21Z</time>
      </trkpt>
      <trkpt lat="45.62668" lon="6.86698">
        <ele>1860.7</ele>
        <time>2016-05-06T15:27:23Z</time>
      </trkpt>
      <trkpt lat="45.62668" lon="6.86698">
        <ele>1860.8</ele>
        <time>2016-05-06T15:27:25Z</time>
      </trkpt>
      <trkpt lat="45.62668" lon="6.86698">
        <ele>1860.7</ele>
        <time>2016-05-06T15:27:27Z</time>
      </trkpt>
      <trkpt lat="45.62668" lon="6.86698">
        <ele>1860.6</ele>
        <time>2016-05-06T15:27:29Z</time>
      </trkpt>
      <trkpt lat="45.62668" lon="6.86698">
        <ele>1860.6</ele>
        <time>2016-05-06T15:27:31Z</time>
      </trkpt>
      <trkpt lat="45.62668" lon="6.86698">
        <ele>1860.6</ele>
        <time>2016-05-06T15:27:33Z</time>
      </trkpt>
      <trkpt lat="45.62668" lon="6.86698">
        <ele>1860.6</ele>
        <time>2016-05-06T15:27:35Z</time>
      </trkpt>
      <trkpt lat="45.62668" lon="6.86697">
        <ele>1860.7</ele>
        <time>2016-05-06T15:27:37Z</time>
      </trkpt>
      <trkpt lat="45.62668" lon="6.86697">
        <ele>1860.6</ele>
        <time>2016-05-06T15:27:39Z</time>
      </trkpt>
      <trkpt lat="45.62668" lon="6.86698">
        <ele>1860.5</ele>
        <time>2016-05-06T15:27:41Z</time>
      </trkpt>
      <trkpt lat="45.62668" lon="6.86697">
        <ele>1860.4</ele>
        <time>2016-05-06T15:27:43Z</time>
      </trkpt>
      <trkpt lat="45.62669" lon="6.86697">
        <ele>1860.4</ele>
        <time>2016-05-06T15:27:45Z</time>
      </trkpt>
      <trkpt lat="45.62669" lon="6.86697">
        <ele>1860.4</ele>
        <time>2016-05-06T15:27:47Z</time>
      </trkpt>
      <trkpt lat="45.62669" lon="6.86697">
        <ele>1860.5</ele>
        <time>2016-05-06T15:27:49Z</time>
      </trkpt>
      <trkpt lat="45.62669" lon="6.86697">
        <ele>1860.5</ele>
        <time>2016-05-06T15:27:51Z</time>
      </trkpt>
      <trkpt lat="45.62669" lon="6.86697">
        <ele>1860.5</ele>
        <time>2016-05-06T15:27:53Z</time>
      </trkpt>
      <trkpt lat="45.62669" lon="6.86697">
        <ele>1860.5</ele>
        <time>2016-05-06T15:27:55Z</time>
      </trkpt>
      <trkpt lat="45.62669" lon="6.86697">
        <ele>1860.5</ele>
        <time>2016-05-06T15:27:57Z</time>
      </trkpt>
      <trkpt lat="45.62669" lon="6.86697">
        <ele>1860.5</ele>
        <time>2016-05-06T15:27:59Z</time>
      </trkpt>
      <trkpt lat="45.62669" lon="6.86697">
        <ele>1860.5</ele>
        <time>2016-05-06T15:28:01Z</time>
      </trkpt>
      <trkpt lat="45.6267" lon="6.86696">
        <ele>1860.5</ele>
        <time>2016-05-06T15:28:03Z</time>
      </trkpt>
      <trkpt lat="45.6267" lon="6.86696">
        <ele>1860.4</ele>
        <time>2016-05-06T15:28:05Z</time>
      </trkpt>
      <trkpt lat="45.6267" lon="6.86696">
        <ele>1860.4</ele>
        <time>2016-05-06T15:28:07Z</time>
      </trkpt>
      <trkpt lat="45.6267" lon="6.86696">
        <ele>1860.4</ele>
        <time>2016-05-06T15:28:09Z</time>
      </trkpt>
      <trkpt lat="45.6267" lon="6.86697">
        <ele>1860.6</ele>
        <time>2016-05-06T15:28:11Z</time>
      </trkpt>
      <trkpt lat="45.6267" lon="6.86697">
        <ele>1860.8</ele>
        <time>2016-05-06T15:28:13Z</time>
      </trkpt>
      <trkpt lat="45.62671" lon="6.86697">
        <ele>1860.8</ele>
        <time>2016-05-06T15:28:15Z</time>
      </trkpt>
      <trkpt lat="45.62671" lon="6.86697">
        <ele>1860.9</ele>
        <time>2016-05-06T15:28:17Z</time>
      </trkpt>
      <trkpt lat="45.62671" lon="6.86697">
        <ele>1861</ele>
        <time>2016-05-06T15:28:19Z</time>
      </trkpt>
      <trkpt lat="45.62671" lon="6.86698">
        <ele>1861.1</ele>
        <time>2016-05-06T15:28:21Z</time>
      </trkpt>
      <trkpt lat="45.62671" lon="6.86698">
        <ele>1861.2</ele>
        <time>2016-05-06T15:28:23Z</time>
      </trkpt>
      <trkpt lat="45.62671" lon="6.86698">
        <ele>1861.3</ele>
        <time>2016-05-06T15:28:25Z</time>
      </trkpt>
      <trkpt lat="45.62671" lon="6.86698">
        <ele>1861.4</ele>
        <time>2016-05-06T15:28:27Z</time>
      </trkpt>
      <trkpt lat="45.62671" lon="6.86698">
        <ele>1861.4</ele>
        <time>2016-05-06T15:28:29Z</time>
      </trkpt>
      <trkpt lat="45.62671" lon="6.86699">
        <ele>1861.3</ele>
        <time>2016-05-06T15:28:31Z</time>
      </trkpt>
      <trkpt lat="45.62671" lon="6.86699">
        <ele>1861.2</ele>
        <time>2016-05-06T15:28:33Z</time>
      </trkpt>
      <trkpt lat="45.62671" lon="6.86699">
        <ele>1861.2</ele>
        <time>2016-05-06T15:28:35Z</time>
      </trkpt>
      <trkpt lat="45.62671" lon="6.86699">
        <ele>1861.2</ele>
        <time>2016-05-06T15:28:37Z</time>
      </trkpt>
      <trkpt lat="45.62671" lon="6.867">
        <ele>1861.3</ele>
        <time>2016-05-06T15:28:39Z</time>
      </trkpt>
      <trkpt lat="45.62671" lon="6.867">
        <ele>1861.2</ele>
        <time>2016-05-06T15:28:41Z</time>
      </trkpt>
      <trkpt lat="45.62671" lon="6.867">
        <ele>1861.3</ele>
        <time>2016-05-06T15:28:43Z</time>
      </trkpt>
      <trkpt lat="45.62671" lon="6.86699">
        <ele>1861.3</ele>
        <time>2016-05-06T15:28:45Z</time>
      </trkpt>
      <trkpt lat="45.6267" lon="6.86699">
        <ele>1861.7</ele>
        <time>2016-05-06T15:28:47Z</time>
      </trkpt>
      <trkpt lat="45.6267" lon="6.86699">
        <ele>1861.6</ele>
        <time>2016-05-06T15:28:49Z</time>
      </trkpt>
      <trkpt lat="45.6267" lon="6.86699">
        <ele>1861.4</ele>
        <time>2016-05-06T15:28:51Z</time>
      </trkpt>
      <trkpt lat="45.62668" lon="6.86699">
        <ele>1861.2</ele>
        <time>2016-05-06T15:28:53Z</time>
      </trkpt>
      <trkpt lat="45.62668" lon="6.86699">
        <ele>1861</ele>
        <time>2016-05-06T15:28:55Z</time>
      </trkpt>
      <trkpt lat="45.62668" lon="6.86698">
        <ele>1860.4</ele>
        <time>2016-05-06T15:28:57Z</time>
      </trkpt>
      <trkpt lat="45.62668" lon="6.86696">
        <ele>1860.7</ele>
        <time>2016-05-06T15:28:59Z</time>
      </trkpt>
      <trkpt lat="45.62669" lon="6.86695">
        <ele>1860.8</ele>
        <time>2016-05-06T15:29:01Z</time>
      </trkpt>
      <trkpt lat="45.62669" lon="6.86696">
        <ele>1860.8</ele>
        <time>2016-05-06T15:29:03Z</time>
      </trkpt>
      <trkpt lat="45.62669" lon="6.86696">
        <ele>1861</ele>
        <time>2016-05-06T15:29:05Z</time>
      </trkpt>
      <trkpt lat="45.62668" lon="6.86697">
        <ele>1861.2</ele>
        <time>2016-05-06T15:29:07Z</time>
      </trkpt>
      <trkpt lat="45.62668" lon="6.86697">
        <ele>1861.6</ele>
        <time>2016-05-06T15:29:09Z</time>
      </trkpt>
      <trkpt lat="45.62666" lon="6.86697">
        <ele>1861.5</ele>
        <time>2016-05-06T15:29:11Z</time>
      </trkpt>
      <trkpt lat="45.62667" lon="6.86697">
        <ele>1861.4</ele>
        <time>2016-05-06T15:29:13Z</time>
      </trkpt>
      <trkpt lat="45.62667" lon="6.86695">
        <ele>1860.9</ele>
        <time>2016-05-06T15:29:15Z</time>
      </trkpt>
      <trkpt lat="45.62668" lon="6.86696">
        <ele>1861.1</ele>
        <time>2016-05-06T15:29:17Z</time>
      </trkpt>
      <trkpt lat="45.62669" lon="6.86696">
        <ele>1861</ele>
        <time>2016-05-06T15:29:19Z</time>
      </trkpt>
      <trkpt lat="45.62668" lon="6.86696">
        <ele>1861.1</ele>
        <time>2016-05-06T15:29:21Z</time>
      </trkpt>
      <trkpt lat="45.62668" lon="6.86696">
        <ele>1861.4</ele>
        <time>2016-05-06T15:29:23Z</time>
      </trkpt>
      <trkpt lat="45.62669" lon="6.86695">
        <ele>1861.4</ele>
        <time>2016-05-06T15:29:25Z</time>
      </trkpt>
      <trkpt lat="45.62668" lon="6.86696">
        <ele>1861.4</ele>
        <time>2016-05-06T15:29:27Z</time>
      </trkpt>
      <trkpt lat="45.62669" lon="6.86695">
        <ele>1861.3</ele>
        <time>2016-05-06T15:29:29Z</time>
      </trkpt>
      <trkpt lat="45.62669" lon="6.86696">
        <ele>1861.5</ele>
        <time>2016-05-06T15:29:31Z</time>
      </trkpt>
      <trkpt lat="45.62669" lon="6.86695">
        <ele>1861.5</ele>
        <time>2016-05-06T15:29:33Z</time>
      </trkpt>
      <trkpt lat="45.62669" lon="6.86696">
        <ele>1861.4</ele>
        <time>2016-05-06T15:29:35Z</time>
      </trkpt>
      <trkpt lat="45.62669" lon="6.86696">
        <ele>1861.4</ele>
        <time>2016-05-06T15:29:37Z</time>
      </trkpt>
      <trkpt lat="45.62669" lon="6.86696">
        <ele>1861.4</ele>
        <time>2016-05-06T15:29:39Z</time>
      </trkpt>
      <trkpt lat="45.62668" lon="6.86697">
        <ele>1861.4</ele>
        <time>2016-05-06T15:29:41Z</time>
      </trkpt>
      <trkpt lat="45.62668" lon="6.86697">
        <ele>1861.4</ele>
        <time>2016-05-06T15:29:43Z</time>
      </trkpt>
      <trkpt lat="45.62668" lon="6.86698">
        <ele>1861.6</ele>
        <time>2016-05-06T15:29:45Z</time>
      </trkpt>
      <trkpt lat="45.62668" lon="6.86697">
        <ele>1861.7</ele>
        <time>2016-05-06T15:29:47Z</time>
      </trkpt>
      <trkpt lat="45.62668" lon="6.86697">
        <ele>1861.7</ele>
        <time>2016-05-06T15:29:49Z</time>
      </trkpt>
      <trkpt lat="45.62668" lon="6.86698">
        <ele>1861.6</ele>
        <time>2016-05-06T15:29:51Z</time>
      </trkpt>
      <trkpt lat="45.62668" lon="6.86698">
        <ele>1861.5</ele>
        <time>2016-05-06T15:29:53Z</time>
      </trkpt>
      <trkpt lat="45.62667" lon="6.86697">
        <ele>1861.4</ele>
        <time>2016-05-06T15:29:55Z</time>
      </trkpt>
      <trkpt lat="45.62667" lon="6.86697">
        <ele>1861.3</ele>
        <time>2016-05-06T15:29:57Z</time>
      </trkpt>
      <trkpt lat="45.62668" lon="6.86698">
        <ele>1861.4</ele>
        <time>2016-05-06T15:29:59Z</time>
      </trkpt>
      <trkpt lat="45.62668" lon="6.86697">
        <ele>1861.5</ele>
        <time>2016-05-06T15:30:01Z</time>
      </trkpt>
      <trkpt lat="45.62666" lon="6.86698">
        <ele>1861.4</ele>
        <time>2016-05-06T15:30:03Z</time>
      </trkpt>
      <trkpt lat="45.62668" lon="6.86697">
        <ele>1861.2</ele>
        <time>2016-05-06T15:30:05Z</time>
      </trkpt>
      <trkpt lat="45.62668" lon="6.86698">
        <ele>1861.1</ele>
        <time>2016-05-06T15:30:07Z</time>
      </trkpt>
      <trkpt lat="45.62667" lon="6.86697">
        <ele>1861</ele>
        <time>2016-05-06T15:30:09Z</time>
      </trkpt>
      <trkpt lat="45.62667" lon="6.86697">
        <ele>1860.9</ele>
        <time>2016-05-06T15:30:11Z</time>
      </trkpt>
      <trkpt lat="45.62667" lon="6.86698">
        <ele>1860.8</ele>
        <time>2016-05-06T15:30:13Z</time>
      </trkpt>
      <trkpt lat="45.62666" lon="6.86698">
        <ele>1860.8</ele>
        <time>2016-05-06T15:30:15Z</time>
      </trkpt>
      <trkpt lat="45.62665" lon="6.86696">
        <ele>1860.8</ele>
        <time>2016-05-06T15:30:17Z</time>
      </trkpt>
      <trkpt lat="45.62665" lon="6.86696">
        <ele>1859.8</ele>
        <time>2016-05-06T15:30:19Z</time>
      </trkpt>
      <trkpt lat="45.62664" lon="6.86694">
        <ele>1859.9</ele>
        <time>2016-05-06T15:30:21Z</time>
      </trkpt>
      <trkpt lat="45.62663" lon="6.86694">
        <ele>1860.1</ele>
        <time>2016-05-06T15:30:23Z</time>
      </trkpt>
      <trkpt lat="45.62664" lon="6.86694">
        <ele>1859.3</ele>
        <time>2016-05-06T15:30:25Z</time>
      </trkpt>
      <trkpt lat="45.62664" lon="6.86693">
        <ele>1859.3</ele>
        <time>2016-05-06T15:30:27Z</time>
      </trkpt>
      <trkpt lat="45.62663" lon="6.86694">
        <ele>1859.4</ele>
        <time>2016-05-06T15:30:29Z</time>
      </trkpt>
      <trkpt lat="45.62662" lon="6.86693">
        <ele>1859.6</ele>
        <time>2016-05-06T15:30:31Z</time>
      </trkpt>
      <trkpt lat="45.62663" lon="6.86693">
        <ele>1859.6</ele>
        <time>2016-05-06T15:30:33Z</time>
      </trkpt>
      <trkpt lat="45.62664" lon="6.86693">
        <ele>1859.8</ele>
        <time>2016-05-06T15:30:35Z</time>
      </trkpt>
      <trkpt lat="45.62664" lon="6.86693">
        <ele>1859.8</ele>
        <time>2016-05-06T15:30:37Z</time>
      </trkpt>
      <trkpt lat="45.62664" lon="6.86692">
        <ele>1860</ele>
        <time>2016-05-06T15:30:39Z</time>
      </trkpt>
      <trkpt lat="45.62664" lon="6.86692">
        <ele>1860.1</ele>
        <time>2016-05-06T15:30:41Z</time>
      </trkpt>
      <trkpt lat="45.62664" lon="6.86695">
        <ele>1860.3</ele>
        <time>2016-05-06T15:30:43Z</time>
      </trkpt>
      <trkpt lat="45.62664" lon="6.86695">
        <ele>1860.4</ele>
        <time>2016-05-06T15:30:45Z</time>
      </trkpt>
      <trkpt lat="45.62664" lon="6.86695">
        <ele>1860.3</ele>
        <time>2016-05-06T15:30:47Z</time>
      </trkpt>
      <trkpt lat="45.62664" lon="6.86695">
        <ele>1860.4</ele>
        <time>2016-05-06T15:30:49Z</time>
      </trkpt>
      <trkpt lat="45.62665" lon="6.86695">
        <ele>1860.4</ele>
        <time>2016-05-06T15:30:51Z</time>
      </trkpt>
      <trkpt lat="45.62665" lon="6.86694">
        <ele>1860.6</ele>
        <time>2016-05-06T15:30:53Z</time>
      </trkpt>
      <trkpt lat="45.62666" lon="6.86694">
        <ele>1860.5</ele>
        <time>2016-05-06T15:30:55Z</time>
      </trkpt>
      <trkpt lat="45.62667" lon="6.86695">
        <ele>1860.6</ele>
        <time>2016-05-06T15:30:57Z</time>
      </trkpt>
      <trkpt lat="45.62666" lon="6.86695">
        <ele>1860.7</ele>
        <time>2016-05-06T15:30:59Z</time>
      </trkpt>
      <trkpt lat="45.62665" lon="6.86693">
        <ele>1859.7</ele>
        <time>2016-05-06T15:31:01Z</time>
      </trkpt>
      <trkpt lat="45.62665" lon="6.86693">
        <ele>1859.7</ele>
        <time>2016-05-06T15:31:03Z</time>
      </trkpt>
      <trkpt lat="45.62664" lon="6.86692">
        <ele>1860</ele>
        <time>2016-05-06T15:31:05Z</time>
      </trkpt>
      <trkpt lat="45.62663" lon="6.86692">
        <ele>1860.2</ele>
        <time>2016-05-06T15:31:07Z</time>
      </trkpt>
      <trkpt lat="45.62662" lon="6.86693">
        <ele>1859.9</ele>
        <time>2016-05-06T15:31:09Z</time>
      </trkpt>
      <trkpt lat="45.62661" lon="6.86694">
        <ele>1859.9</ele>
        <time>2016-05-06T15:31:11Z</time>
      </trkpt>
      <trkpt lat="45.62661" lon="6.86694">
        <ele>1859.5</ele>
        <time>2016-05-06T15:31:13Z</time>
      </trkpt>
      <trkpt lat="45.62663" lon="6.86695">
        <ele>1859.8</ele>
        <time>2016-05-06T15:31:15Z</time>
      </trkpt>
      <trkpt lat="45.62663" lon="6.86695">
        <ele>1860</ele>
        <time>2016-05-06T15:31:17Z</time>
      </trkpt>
      <trkpt lat="45.62663" lon="6.86694">
        <ele>1860</ele>
        <time>2016-05-06T15:31:19Z</time>
      </trkpt>
      <trkpt lat="45.62663" lon="6.86694">
        <ele>1859.9</ele>
        <time>2016-05-06T15:31:21Z</time>
      </trkpt>
      <trkpt lat="45.62664" lon="6.86693">
        <ele>1859.9</ele>
        <time>2016-05-06T15:31:23Z</time>
      </trkpt>
      <trkpt lat="45.62664" lon="6.86693">
        <ele>1860</ele>
        <time>2016-05-06T15:31:25Z</time>
      </trkpt>
      <trkpt lat="45.62665" lon="6.86693">
        <ele>1859.8</ele>
        <time>2016-05-06T15:31:27Z</time>
      </trkpt>
      <trkpt lat="45.62665" lon="6.86694">
        <ele>1860.1</ele>
        <time>2016-05-06T15:31:29Z</time>
      </trkpt>
      <trkpt lat="45.62665" lon="6.86694">
        <ele>1858.8</ele>
        <time>2016-05-06T15:31:31Z</time>
      </trkpt>
      <trkpt lat="45.62665" lon="6.86694">
        <ele>1855.6</ele>
        <time>2016-05-06T15:31:33Z</time>
      </trkpt>
      <trkpt lat="45.62666" lon="6.86694">
        <ele>1853.8</ele>
        <time>2016-05-06T15:31:35Z</time>
      </trkpt>
      <trkpt lat="45.62666" lon="6.86694">
        <ele>1856.7</ele>
        <time>2016-05-06T15:31:37Z</time>
      </trkpt>
      <trkpt lat="45.62665" lon="6.86694">
        <ele>1855.9</ele>
        <time>2016-05-06T15:31:39Z</time>
      </trkpt>
      <trkpt lat="45.62665" lon="6.86694">
        <ele>1858.4</ele>
        <time>2016-05-06T15:31:41Z</time>
      </trkpt>
      <trkpt lat="45.62666" lon="6.86694">
        <ele>1859.5</ele>
        <time>2016-05-06T15:31:43Z</time>
      </trkpt>
      <trkpt lat="45.62666" lon="6.86694">
        <ele>1859.7</ele>
        <time>2016-05-06T15:31:45Z</time>
      </trkpt>
      <trkpt lat="45.62666" lon="6.86694">
        <ele>1860.3</ele>
        <time>2016-05-06T15:31:47Z</time>
      </trkpt>
      <trkpt lat="45.62666" lon="6.86694">
        <ele>1860.5</ele>
        <time>2016-05-06T15:31:49Z</time>
      </trkpt>
      <trkpt lat="45.62666" lon="6.86695">
        <ele>1850.7</ele>
        <time>2016-05-06T15:31:51Z</time>
      </trkpt>
      <trkpt lat="45.62666" lon="6.86696">
        <ele>1855.8</ele>
        <time>2016-05-06T15:31:53Z</time>
      </trkpt>
      <trkpt lat="45.62667" lon="6.86695">
        <ele>1857.7</ele>
        <time>2016-05-06T15:31:55Z</time>
      </trkpt>
      <trkpt lat="45.62666" lon="6.86696">
        <ele>1859</ele>
        <time>2016-05-06T15:31:57Z</time>
      </trkpt>
      <trkpt lat="45.62666" lon="6.86697">
        <ele>1859.4</ele>
        <time>2016-05-06T15:31:59Z</time>
      </trkpt>
      <trkpt lat="45.62669" lon="6.86697">
        <ele>1859.7</ele>
        <time>2016-05-06T15:32:01Z</time>
      </trkpt>
      <trkpt lat="45.62669" lon="6.86697">
        <ele>1859.7</ele>
        <time>2016-05-06T15:32:03Z</time>
      </trkpt>
      <trkpt lat="45.62669" lon="6.86696">
        <ele>1859.9</ele>
        <time>2016-05-06T15:32:05Z</time>
      </trkpt>
      <trkpt lat="45.6267" lon="6.86695">
        <ele>1860</ele>
        <time>2016-05-06T15:32:07Z</time>
      </trkpt>
      <trkpt lat="45.6267" lon="6.86696">
        <ele>1860.1</ele>
        <time>2016-05-06T15:32:09Z</time>
      </trkpt>
      <trkpt lat="45.6267" lon="6.86696">
        <ele>1860.3</ele>
        <time>2016-05-06T15:32:11Z</time>
      </trkpt>
      <trkpt lat="45.6267" lon="6.86696">
        <ele>1858.9</ele>
        <time>2016-05-06T15:32:13Z</time>
      </trkpt>
      <trkpt lat="45.62669" lon="6.86696">
        <ele>1859.5</ele>
        <time>2016-05-06T15:32:15Z</time>
      </trkpt>
      <trkpt lat="45.62668" lon="6.86696">
        <ele>1859.8</ele>
        <time>2016-05-06T15:32:17Z</time>
      </trkpt>
      <trkpt lat="45.62668" lon="6.86696">
        <ele>1860.5</ele>
        <time>2016-05-06T15:32:19Z</time>
      </trkpt>
      <trkpt lat="45.62668" lon="6.86697">
        <ele>1860.8</ele>
        <time>2016-05-06T15:32:21Z</time>
      </trkpt>
      <trkpt lat="45.62667" lon="6.86696">
        <ele>1860.9</ele>
        <time>2016-05-06T15:32:23Z</time>
      </trkpt>
      <trkpt lat="45.62668" lon="6.86696">
        <ele>1860.8</ele>
        <time>2016-05-06T15:32:25Z</time>
      </trkpt>
      <trkpt lat="45.62667" lon="6.86694">
        <ele>1860.8</ele>
        <time>2016-05-06T15:32:27Z</time>
      </trkpt>
      <trkpt lat="45.62667" lon="6.86693">
        <ele>1860.9</ele>
        <time>2016-05-06T15:32:29Z</time>
      </trkpt>
      <trkpt lat="45.62666" lon="6.86695">
        <ele>1860.9</ele>
        <time>2016-05-06T15:32:31Z</time>
      </trkpt>
      <trkpt lat="45.62666" lon="6.86697">
        <ele>1860.7</ele>
        <time>2016-05-06T15:32:33Z</time>
      </trkpt>
      <trkpt lat="45.62667" lon="6.86697">
        <ele>1860.8</ele>
        <time>2016-05-06T15:32:35Z</time>
      </trkpt>
      <trkpt lat="45.62669" lon="6.86699">
        <ele>1860.9</ele>
        <time>2016-05-06T15:32:37Z</time>
      </trkpt>
      <trkpt lat="45.62671" lon="6.86699">
        <ele>1861</ele>
        <time>2016-05-06T15:32:39Z</time>
      </trkpt>
      <trkpt lat="45.62674" lon="6.86699">
        <ele>1861.1</ele>
        <time>2016-05-06T15:32:41Z</time>
      </trkpt>
      <trkpt lat="45.62676" lon="6.867">
        <ele>1861.3</ele>
        <time>2016-05-06T15:32:43Z</time>
      </trkpt>
      <trkpt lat="45.62678" lon="6.86701">
        <ele>1861.4</ele>
        <time>2016-05-06T15:32:45Z</time>
      </trkpt>
      <trkpt lat="45.6268" lon="6.86703">
        <ele>1861.7</ele>
        <time>2016-05-06T15:32:47Z</time>
      </trkpt>
      <trkpt lat="45.62683" lon="6.86703">
        <ele>1861.9</ele>
        <time>2016-05-06T15:32:49Z</time>
      </trkpt>
      <trkpt lat="45.62685" lon="6.86703">
        <ele>1861.8</ele>
        <time>2016-05-06T15:32:51Z</time>
      </trkpt>
      <trkpt lat="45.62687" lon="6.86704">
        <ele>1861.9</ele>
        <time>2016-05-06T15:32:53Z</time>
      </trkpt>
      <trkpt lat="45.6269" lon="6.86703">
        <ele>1861.9</ele>
        <time>2016-05-06T15:32:55Z</time>
      </trkpt>
      <trkpt lat="45.62691" lon="6.86705">
        <ele>1861.9</ele>
        <time>2016-05-06T15:32:57Z</time>
      </trkpt>
      <trkpt lat="45.62694" lon="6.86705">
        <ele>1862</ele>
        <time>2016-05-06T15:32:59Z</time>
      </trkpt>
      <trkpt lat="45.62697" lon="6.86706">
        <ele>1862</ele>
        <time>2016-05-06T15:33:01Z</time>
      </trkpt>
      <trkpt lat="45.62699" lon="6.86706">
        <ele>1862</ele>
        <time>2016-05-06T15:33:03Z</time>
      </trkpt>
      <trkpt lat="45.62701" lon="6.86706">
        <ele>1862.1</ele>
        <time>2016-05-06T15:33:05Z</time>
      </trkpt>
      <trkpt lat="45.62703" lon="6.86705">
        <ele>1862</ele>
        <time>2016-05-06T15:33:07Z</time>
      </trkpt>
      <trkpt lat="45.62705" lon="6.86704">
        <ele>1861.5</ele>
        <time>2016-05-06T15:33:09Z</time>
      </trkpt>
      <trkpt lat="45.62707" lon="6.86704">
        <ele>1862</ele>
        <time>2016-05-06T15:33:11Z</time>
      </trkpt>
      <trkpt lat="45.62708" lon="6.86705">
        <ele>1862</ele>
        <time>2016-05-06T15:33:13Z</time>
      </trkpt>
      <trkpt lat="45.6271" lon="6.86705">
        <ele>1862.3</ele>
        <time>2016-05-06T15:33:15Z</time>
      </trkpt>
      <trkpt lat="45.62711" lon="6.86707">
        <ele>1862.5</ele>
        <time>2016-05-06T15:33:17Z</time>
      </trkpt>
      <trkpt lat="45.62712" lon="6.86709">
        <ele>1862.7</ele>
        <time>2016-05-06T15:33:19Z</time>
      </trkpt>
      <trkpt lat="45.62713" lon="6.8671">
        <ele>1862.7</ele>
        <time>2016-05-06T15:33:21Z</time>
      </trkpt>
      <trkpt lat="45.62715" lon="6.86711">
        <ele>1862.6</ele>
        <time>2016-05-06T15:33:23Z</time>
      </trkpt>
      <trkpt lat="45.62717" lon="6.8671">
        <ele>1862.8</ele>
        <time>2016-05-06T15:33:25Z</time>
      </trkpt>
      <trkpt lat="45.62718" lon="6.86711">
        <ele>1863.1</ele>
        <time>2016-05-06T15:33:27Z</time>
      </trkpt>
      <trkpt lat="45.6272" lon="6.8671">
        <ele>1863.2</ele>
        <time>2016-05-06T15:33:29Z</time>
      </trkpt>
      <trkpt lat="45.62722" lon="6.86711">
        <ele>1863.3</ele>
        <time>2016-05-06T15:33:31Z</time>
      </trkpt>
      <trkpt lat="45.62723" lon="6.86712">
        <ele>1863.3</ele>
        <time>2016-05-06T15:33:33Z</time>
      </trkpt>
      <trkpt lat="45.62724" lon="6.86714">
        <ele>1863.3</ele>
        <time>2016-05-06T15:33:35Z</time>
      </trkpt>
      <trkpt lat="45.62725" lon="6.86716">
        <ele>1863.4</ele>
        <time>2016-05-06T15:33:37Z</time>
      </trkpt>
      <trkpt lat="45.62726" lon="6.86717">
        <ele>1863.3</ele>
        <time>2016-05-06T15:33:39Z</time>
      </trkpt>
      <trkpt lat="45.62728" lon="6.86718">
        <ele>1863.4</ele>
        <time>2016-05-06T15:33:41Z</time>
      </trkpt>
      <trkpt lat="45.62729" lon="6.86719">
        <ele>1863.5</ele>
        <time>2016-05-06T15:33:43Z</time>
      </trkpt>
      <trkpt lat="45.6273" lon="6.8672">
        <ele>1863.7</ele>
        <time>2016-05-06T15:33:45Z</time>
      </trkpt>
      <trkpt lat="45.62732" lon="6.86721">
        <ele>1863.8</ele>
        <time>2016-05-06T15:33:47Z</time>
      </trkpt>
      <trkpt lat="45.62733" lon="6.86722">
        <ele>1863.8</ele>
        <time>2016-05-06T15:33:49Z</time>
      </trkpt>
      <trkpt lat="45.62734" lon="6.86724">
        <ele>1863.9</ele>
        <time>2016-05-06T15:33:51Z</time>
      </trkpt>
      <trkpt lat="45.62735" lon="6.86724">
        <ele>1864</ele>
        <time>2016-05-06T15:33:53Z</time>
      </trkpt>
      <trkpt lat="45.62736" lon="6.86727">
        <ele>1864.1</ele>
        <time>2016-05-06T15:33:55Z</time>
      </trkpt>
      <trkpt lat="45.62737" lon="6.86729">
        <ele>1864.1</ele>
        <time>2016-05-06T15:33:57Z</time>
      </trkpt>
      <trkpt lat="45.62738" lon="6.86731">
        <ele>1864.2</ele>
        <time>2016-05-06T15:33:59Z</time>
      </trkpt>
      <trkpt lat="45.62739" lon="6.86732">
        <ele>1864.2</ele>
        <time>2016-05-06T15:34:01Z</time>
      </trkpt>
      <trkpt lat="45.6274" lon="6.86734">
        <ele>1864.4</ele>
        <time>2016-05-06T15:34:03Z</time>
      </trkpt>
      <trkpt lat="45.62741" lon="6.86736">
        <ele>1864.4</ele>
        <time>2016-05-06T15:34:05Z</time>
      </trkpt>
      <trkpt lat="45.62742" lon="6.86738">
        <ele>1864.7</ele>
        <time>2016-05-06T15:34:07Z</time>
      </trkpt>
      <trkpt lat="45.62742" lon="6.8674">
        <ele>1864.9</ele>
        <time>2016-05-06T15:34:09Z</time>
      </trkpt>
      <trkpt lat="45.62742" lon="6.86742">
        <ele>1865</ele>
        <time>2016-05-06T15:34:11Z</time>
      </trkpt>
      <trkpt lat="45.62743" lon="6.86744">
        <ele>1865</ele>
        <time>2016-05-06T15:34:13Z</time>
      </trkpt>
      <trkpt lat="45.62743" lon="6.86746">
        <ele>1865.2</ele>
        <time>2016-05-06T15:34:15Z</time>
      </trkpt>
      <trkpt lat="45.62744" lon="6.86747">
        <ele>1865.6</ele>
        <time>2016-05-06T15:34:17Z</time>
      </trkpt>
      <trkpt lat="45.62745" lon="6.86749">
        <ele>1865.8</ele>
        <time>2016-05-06T15:34:19Z</time>
      </trkpt>
      <trkpt lat="45.62745" lon="6.86751">
        <ele>1865.9</ele>
        <time>2016-05-06T15:34:21Z</time>
      </trkpt>
      <trkpt lat="45.62746" lon="6.86753">
        <ele>1865.7</ele>
        <time>2016-05-06T15:34:23Z</time>
      </trkpt>
      <trkpt lat="45.62746" lon="6.86756">
        <ele>1865.7</ele>
        <time>2016-05-06T15:34:25Z</time>
      </trkpt>
      <trkpt lat="45.62748" lon="6.86758">
        <ele>1866.1</ele>
        <time>2016-05-06T15:34:27Z</time>
      </trkpt>
      <trkpt lat="45.62749" lon="6.86759">
        <ele>1866.3</ele>
        <time>2016-05-06T15:34:29Z</time>
      </trkpt>
      <trkpt lat="45.62751" lon="6.86762">
        <ele>1866.6</ele>
        <time>2016-05-06T15:34:31Z</time>
      </trkpt>
      <trkpt lat="45.62753" lon="6.86763">
        <ele>1866.8</ele>
        <time>2016-05-06T15:34:33Z</time>
      </trkpt>
      <trkpt lat="45.62754" lon="6.86766">
        <ele>1867</ele>
        <time>2016-05-06T15:34:35Z</time>
      </trkpt>
      <trkpt lat="45.62756" lon="6.86766">
        <ele>1867.3</ele>
        <time>2016-05-06T15:34:37Z</time>
      </trkpt>
      <trkpt lat="45.62759" lon="6.86765">
        <ele>1867.5</ele>
        <time>2016-05-06T15:34:39Z</time>
      </trkpt>
      <trkpt lat="45.62761" lon="6.86765">
        <ele>1867.9</ele>
        <time>2016-05-06T15:34:41Z</time>
      </trkpt>
      <trkpt lat="45.62762" lon="6.86766">
        <ele>1868.1</ele>
        <time>2016-05-06T15:34:43Z</time>
      </trkpt>
      <trkpt lat="45.62764" lon="6.86766">
        <ele>1868.2</ele>
        <time>2016-05-06T15:34:45Z</time>
      </trkpt>
      <trkpt lat="45.62766" lon="6.86766">
        <ele>1868.4</ele>
        <time>2016-05-06T15:34:47Z</time>
      </trkpt>
      <trkpt lat="45.62768" lon="6.86767">
        <ele>1868.5</ele>
        <time>2016-05-06T15:34:49Z</time>
      </trkpt>
      <trkpt lat="45.6277" lon="6.86767">
        <ele>1868.6</ele>
        <time>2016-05-06T15:34:51Z</time>
      </trkpt>
      <trkpt lat="45.62771" lon="6.86768">
        <ele>1868.7</ele>
        <time>2016-05-06T15:34:53Z</time>
      </trkpt>
      <trkpt lat="45.62773" lon="6.86767">
        <ele>1868.7</ele>
        <time>2016-05-06T15:34:55Z</time>
      </trkpt>
      <trkpt lat="45.62776" lon="6.86767">
        <ele>1868.8</ele>
        <time>2016-05-06T15:34:57Z</time>
      </trkpt>
      <trkpt lat="45.62778" lon="6.86765">
        <ele>1868.9</ele>
        <time>2016-05-06T15:34:59Z</time>
      </trkpt>
      <trkpt lat="45.6278" lon="6.86765">
        <ele>1869</ele>
        <time>2016-05-06T15:35:01Z</time>
      </trkpt>
      <trkpt lat="45.62783" lon="6.86765">
        <ele>1869</ele>
        <time>2016-05-06T15:35:03Z</time>
      </trkpt>
      <trkpt lat="45.62785" lon="6.86764">
        <ele>1869</ele>
        <time>2016-05-06T15:35:05Z</time>
      </trkpt>
      <trkpt lat="45.62787" lon="6.86764">
        <ele>1869.1</ele>
        <time>2016-05-06T15:35:07Z</time>
      </trkpt>
      <trkpt lat="45.62789" lon="6.86764">
        <ele>1869.2</ele>
        <time>2016-05-06T15:35:09Z</time>
      </trkpt>
      <trkpt lat="45.62791" lon="6.86763">
        <ele>1869.3</ele>
        <time>2016-05-06T15:35:11Z</time>
      </trkpt>
      <trkpt lat="45.62793" lon="6.86763">
        <ele>1869.4</ele>
        <time>2016-05-06T15:35:13Z</time>
      </trkpt>
      <trkpt lat="45.62794" lon="6.86762">
        <ele>1869.5</ele>
        <time>2016-05-06T15:35:15Z</time>
      </trkpt>
      <trkpt lat="45.62797" lon="6.86761">
        <ele>1869.6</ele>
        <time>2016-05-06T15:35:17Z</time>
      </trkpt>
      <trkpt lat="45.62799" lon="6.86761">
        <ele>1869.8</ele>
        <time>2016-05-06T15:35:19Z</time>
      </trkpt>
      <trkpt lat="45.62801" lon="6.86761">
        <ele>1870</ele>
        <time>2016-05-06T15:35:21Z</time>
      </trkpt>
      <trkpt lat="45.62802" lon="6.86761">
        <ele>1870.2</ele>
        <time>2016-05-06T15:35:23Z</time>
      </trkpt>
      <trkpt lat="45.62804" lon="6.8676">
        <ele>1870.4</ele>
        <time>2016-05-06T15:35:25Z</time>
      </trkpt>
      <trkpt lat="45.62806" lon="6.8676">
        <ele>1870.4</ele>
        <time>2016-05-06T15:35:27Z</time>
      </trkpt>
      <trkpt lat="45.62809" lon="6.8676">
        <ele>1870.5</ele>
        <time>2016-05-06T15:35:29Z</time>
      </trkpt>
      <trkpt lat="45.6281" lon="6.86761">
        <ele>1870.6</ele>
        <time>2016-05-06T15:35:31Z</time>
      </trkpt>
      <trkpt lat="45.62811" lon="6.86761">
        <ele>1870.8</ele>
        <time>2016-05-06T15:35:33Z</time>
      </trkpt>
      <trkpt lat="45.62812" lon="6.86761">
        <ele>1870.9</ele>
        <time>2016-05-06T15:35:35Z</time>
      </trkpt>
      <trkpt lat="45.62814" lon="6.86761">
        <ele>1871</ele>
        <time>2016-05-06T15:35:37Z</time>
      </trkpt>
      <trkpt lat="45.62815" lon="6.8676">
        <ele>1871.1</ele>
        <time>2016-05-06T15:35:39Z</time>
      </trkpt>
      <trkpt lat="45.62817" lon="6.8676">
        <ele>1871.1</ele>
        <time>2016-05-06T15:35:41Z</time>
      </trkpt>
      <trkpt lat="45.62818" lon="6.86761">
        <ele>1871.2</ele>
        <time>2016-05-06T15:35:43Z</time>
      </trkpt>
      <trkpt lat="45.6282" lon="6.86761">
        <ele>1871.4</ele>
        <time>2016-05-06T15:35:45Z</time>
      </trkpt>
      <trkpt lat="45.62821" lon="6.8676">
        <ele>1871.4</ele>
        <time>2016-05-06T15:35:47Z</time>
      </trkpt>
      <trkpt lat="45.62823" lon="6.86759">
        <ele>1871.4</ele>
        <time>2016-05-06T15:35:49Z</time>
      </trkpt>
      <trkpt lat="45.62824" lon="6.86759">
        <ele>1871.4</ele>
        <time>2016-05-06T15:35:51Z</time>
      </trkpt>
      <trkpt lat="45.62826" lon="6.86758">
        <ele>1871.4</ele>
        <time>2016-05-06T15:35:53Z</time>
      </trkpt>
      <trkpt lat="45.62827" lon="6.86758">
        <ele>1871.3</ele>
        <time>2016-05-06T15:35:55Z</time>
      </trkpt>
      <trkpt lat="45.62829" lon="6.86757">
        <ele>1871.2</ele>
        <time>2016-05-06T15:35:57Z</time>
      </trkpt>
      <trkpt lat="45.6283" lon="6.86757">
        <ele>1871.2</ele>
        <time>2016-05-06T15:35:59Z</time>
      </trkpt>
      <trkpt lat="45.62832" lon="6.86757">
        <ele>1871.3</ele>
        <time>2016-05-06T15:36:01Z</time>
      </trkpt>
      <trkpt lat="45.62833" lon="6.86756">
        <ele>1871.4</ele>
        <time>2016-05-06T15:36:03Z</time>
      </trkpt>
      <trkpt lat="45.62835" lon="6.86755">
        <ele>1871.5</ele>
        <time>2016-05-06T15:36:05Z</time>
      </trkpt>
      <trkpt lat="45.62836" lon="6.86755">
        <ele>1871.7</ele>
        <time>2016-05-06T15:36:07Z</time>
      </trkpt>
      <trkpt lat="45.62837" lon="6.86754">
        <ele>1871.9</ele>
        <time>2016-05-06T15:36:09Z</time>
      </trkpt>
      <trkpt lat="45.62839" lon="6.86754">
        <ele>1872</ele>
        <time>2016-05-06T15:36:11Z</time>
      </trkpt>
      <trkpt lat="45.62841" lon="6.86754">
        <ele>1872.1</ele>
        <time>2016-05-06T15:36:13Z</time>
      </trkpt>
      <trkpt lat="45.62842" lon="6.86753">
        <ele>1872.1</ele>
        <time>2016-05-06T15:36:15Z</time>
      </trkpt>
      <trkpt lat="45.62844" lon="6.86753">
        <ele>1872.2</ele>
        <time>2016-05-06T15:36:17Z</time>
      </trkpt>
      <trkpt lat="45.62846" lon="6.86752">
        <ele>1872.4</ele>
        <time>2016-05-06T15:36:19Z</time>
      </trkpt>
      <trkpt lat="45.62848" lon="6.86751">
        <ele>1872.6</ele>
        <time>2016-05-06T15:36:21Z</time>
      </trkpt>
      <trkpt lat="45.6285" lon="6.8675">
        <ele>1872.8</ele>
        <time>2016-05-06T15:36:23Z</time>
      </trkpt>
      <trkpt lat="45.62851" lon="6.86749">
        <ele>1872.9</ele>
        <time>2016-05-06T15:36:25Z</time>
      </trkpt>
      <trkpt lat="45.62852" lon="6.86748">
        <ele>1873.1</ele>
        <time>2016-05-06T15:36:27Z</time>
      </trkpt>
      <trkpt lat="45.62853" lon="6.86747">
        <ele>1873.4</ele>
        <time>2016-05-06T15:36:29Z</time>
      </trkpt>
      <trkpt lat="45.62854" lon="6.86746">
        <ele>1873.7</ele>
        <time>2016-05-06T15:36:31Z</time>
      </trkpt>
      <trkpt lat="45.62855" lon="6.86746">
        <ele>1874</ele>
        <time>2016-05-06T15:36:33Z</time>
      </trkpt>
      <trkpt lat="45.62856" lon="6.86745">
        <ele>1874.1</ele>
        <time>2016-05-06T15:36:35Z</time>
      </trkpt>
      <trkpt lat="45.62858" lon="6.86745">
        <ele>1874.2</ele>
        <time>2016-05-06T15:36:37Z</time>
      </trkpt>
      <trkpt lat="45.62859" lon="6.86745">
        <ele>1874.2</ele>
        <time>2016-05-06T15:36:39Z</time>
      </trkpt>
      <trkpt lat="45.6286" lon="6.86744">
        <ele>1874.4</ele>
        <time>2016-05-06T15:36:41Z</time>
      </trkpt>
      <trkpt lat="45.62862" lon="6.86744">
        <ele>1874.5</ele>
        <time>2016-05-06T15:36:43Z</time>
      </trkpt>
      <trkpt lat="45.62863" lon="6.86743">
        <ele>1874.6</ele>
        <time>2016-05-06T15:36:45Z</time>
      </trkpt>
      <trkpt lat="45.62864" lon="6.86743">
        <ele>1874.6</ele>
        <time>2016-05-06T15:36:47Z</time>
      </trkpt>
      <trkpt lat="45.62865" lon="6.86742">
        <ele>1874.5</ele>
        <time>2016-05-06T15:36:49Z</time>
      </trkpt>
      <trkpt lat="45.62866" lon="6.86741">
        <ele>1874.4</ele>
        <time>2016-05-06T15:36:51Z</time>
      </trkpt>
      <trkpt lat="45.62867" lon="6.8674">
        <ele>1874.4</ele>
        <time>2016-05-06T15:36:53Z</time>
      </trkpt>
      <trkpt lat="45.62868" lon="6.86739">
        <ele>1874.3</ele>
        <time>2016-05-06T15:36:55Z</time>
      </trkpt>
      <trkpt lat="45.62869" lon="6.86739">
        <ele>1874.2</ele>
        <time>2016-05-06T15:36:57Z</time>
      </trkpt>
      <trkpt lat="45.62871" lon="6.86738">
        <ele>1874.2</ele>
        <time>2016-05-06T15:36:59Z</time>
      </trkpt>
      <trkpt lat="45.62873" lon="6.86737">
        <ele>1874.2</ele>
        <time>2016-05-06T15:37:01Z</time>
      </trkpt>
      <trkpt lat="45.62875" lon="6.86736">
        <ele>1874.2</ele>
        <time>2016-05-06T15:37:03Z</time>
      </trkpt>
      <trkpt lat="45.62877" lon="6.86736">
        <ele>1874.3</ele>
        <time>2016-05-06T15:37:05Z</time>
      </trkpt>
      <trkpt lat="45.62879" lon="6.86735">
        <ele>1874.2</ele>
        <time>2016-05-06T15:37:07Z</time>
      </trkpt>
      <trkpt lat="45.62881" lon="6.86734">
        <ele>1874.3</ele>
        <time>2016-05-06T15:37:09Z</time>
      </trkpt>
      <trkpt lat="45.62882" lon="6.86733">
        <ele>1874.3</ele>
        <time>2016-05-06T15:37:11Z</time>
      </trkpt>
      <trkpt lat="45.62883" lon="6.86732">
        <ele>1874.4</ele>
        <time>2016-05-06T15:37:13Z</time>
      </trkpt>
      <trkpt lat="45.62885" lon="6.86731">
        <ele>1874.5</ele>
        <time>2016-05-06T15:37:15Z</time>
      </trkpt>
      <trkpt lat="45.62886" lon="6.86729">
        <ele>1874.5</ele>
        <time>2016-05-06T15:37:17Z</time>
      </trkpt>
      <trkpt lat="45.62886" lon="6.86727">
        <ele>1874.5</ele>
        <time>2016-05-06T15:37:19Z</time>
      </trkpt>
      <trkpt lat="45.62888" lon="6.86725">
        <ele>1874</ele>
        <time>2016-05-06T15:37:21Z</time>
      </trkpt>
      <trkpt lat="45.6289" lon="6.86723">
        <ele>1874.9</ele>
        <time>2016-05-06T15:37:24Z</time>
      </trkpt>
      <trkpt lat="45.62891" lon="6.86722">
        <ele>1875</ele>
        <time>2016-05-06T15:37:26Z</time>
      </trkpt>
      <trkpt lat="45.62892" lon="6.86721">
        <ele>1875</ele>
        <time>2016-05-06T15:37:28Z</time>
      </trkpt>
      <trkpt lat="45.62892" lon="6.86719">
        <ele>1875.1</ele>
        <time>2016-05-06T15:37:31Z</time>
      </trkpt>
      <trkpt lat="45.62894" lon="6.86718">
        <ele>1875.1</ele>
        <time>2016-05-06T15:37:33Z</time>
      </trkpt>
      <trkpt lat="45.62895" lon="6.86717">
        <ele>1875.1</ele>
        <time>2016-05-06T15:37:35Z</time>
      </trkpt>
      <trkpt lat="45.62896" lon="6.86715">
        <ele>1875</ele>
        <time>2016-05-06T15:37:38Z</time>
      </trkpt>
      <trkpt lat="45.62898" lon="6.86713">
        <ele>1875.2</ele>
        <time>2016-05-06T15:37:41Z</time>
      </trkpt>
      <trkpt lat="45.62903" lon="6.86714">
        <ele>1875.3</ele>
        <time>2016-05-06T15:37:43Z</time>
      </trkpt>
      <trkpt lat="45.62903" lon="6.86713">
        <ele>1875.4</ele>
        <time>2016-05-06T15:37:45Z</time>
      </trkpt>
      <trkpt lat="45.62905" lon="6.86713">
        <ele>1875.4</ele>
        <time>2016-05-06T15:37:47Z</time>
      </trkpt>
      <trkpt lat="45.62907" lon="6.86713">
        <ele>1875.4</ele>
        <time>2016-05-06T15:37:49Z</time>
      </trkpt>
      <trkpt lat="45.62908" lon="6.86712">
        <ele>1875.3</ele>
        <time>2016-05-06T15:37:51Z</time>
      </trkpt>
      <trkpt lat="45.6291" lon="6.86712">
        <ele>1875.3</ele>
        <time>2016-05-06T15:37:53Z</time>
      </trkpt>
      <trkpt lat="45.62911" lon="6.86712">
        <ele>1875.4</ele>
        <time>2016-05-06T15:37:55Z</time>
      </trkpt>
      <trkpt lat="45.62913" lon="6.86712">
        <ele>1875.6</ele>
        <time>2016-05-06T15:37:57Z</time>
      </trkpt>
      <trkpt lat="45.62914" lon="6.86711">
        <ele>1875.7</ele>
        <time>2016-05-06T15:37:59Z</time>
      </trkpt>
      <trkpt lat="45.62916" lon="6.86711">
        <ele>1875.7</ele>
        <time>2016-05-06T15:38:01Z</time>
      </trkpt>
      <trkpt lat="45.62918" lon="6.86711">
        <ele>1875.8</ele>
        <time>2016-05-06T15:38:03Z</time>
      </trkpt>
      <trkpt lat="45.62919" lon="6.86711">
        <ele>1875.8</ele>
        <time>2016-05-06T15:38:05Z</time>
      </trkpt>
      <trkpt lat="45.62918" lon="6.8671">
        <ele>1876.1</ele>
        <time>2016-05-06T15:38:07Z</time>
      </trkpt>
      <trkpt lat="45.62918" lon="6.8671">
        <ele>1876.2</ele>
        <time>2016-05-06T15:38:09Z</time>
      </trkpt>
      <trkpt lat="45.62918" lon="6.86709">
        <ele>1876.4</ele>
        <time>2016-05-06T15:38:11Z</time>
      </trkpt>
      <trkpt lat="45.62918" lon="6.8671">
        <ele>1876.3</ele>
        <time>2016-05-06T15:38:13Z</time>
      </trkpt>
      <trkpt lat="45.62918" lon="6.8671">
        <ele>1876.3</ele>
        <time>2016-05-06T15:38:15Z</time>
      </trkpt>
      <trkpt lat="45.62918" lon="6.8671">
        <ele>1876.3</ele>
        <time>2016-05-06T15:38:17Z</time>
      </trkpt>
      <trkpt lat="45.62918" lon="6.8671">
        <ele>1876.4</ele>
        <time>2016-05-06T15:38:19Z</time>
      </trkpt>
      <trkpt lat="45.62918" lon="6.86711">
        <ele>1876.5</ele>
        <time>2016-05-06T15:38:21Z</time>
      </trkpt>
      <trkpt lat="45.62917" lon="6.86711">
        <ele>1876.5</ele>
        <time>2016-05-06T15:38:23Z</time>
      </trkpt>
      <trkpt lat="45.62917" lon="6.86711">
        <ele>1876.5</ele>
        <time>2016-05-06T15:38:25Z</time>
      </trkpt>
      <trkpt lat="45.62917" lon="6.8671">
        <ele>1876.6</ele>
        <time>2016-05-06T15:38:27Z</time>
      </trkpt>
      <trkpt lat="45.62917" lon="6.8671">
        <ele>1876.6</ele>
        <time>2016-05-06T15:38:29Z</time>
      </trkpt>
      <trkpt lat="45.62919" lon="6.86709">
        <ele>1876.6</ele>
        <time>2016-05-06T15:38:31Z</time>
      </trkpt>
      <trkpt lat="45.6292" lon="6.8671">
        <ele>1876.6</ele>
        <time>2016-05-06T15:38:33Z</time>
      </trkpt>
      <trkpt lat="45.62921" lon="6.86708">
        <ele>1876.6</ele>
        <time>2016-05-06T15:38:35Z</time>
      </trkpt>
      <trkpt lat="45.62923" lon="6.86709">
        <ele>1876.8</ele>
        <time>2016-05-06T15:38:37Z</time>
      </trkpt>
      <trkpt lat="45.62924" lon="6.86709">
        <ele>1876.9</ele>
        <time>2016-05-06T15:38:39Z</time>
      </trkpt>
      <trkpt lat="45.62925" lon="6.86709">
        <ele>1877</ele>
        <time>2016-05-06T15:38:41Z</time>
      </trkpt>
      <trkpt lat="45.62926" lon="6.86708">
        <ele>1877.2</ele>
        <time>2016-05-06T15:38:43Z</time>
      </trkpt>
      <trkpt lat="45.62927" lon="6.86708">
        <ele>1877.3</ele>
        <time>2016-05-06T15:38:45Z</time>
      </trkpt>
      <trkpt lat="45.62928" lon="6.86708">
        <ele>1877.3</ele>
        <time>2016-05-06T15:38:47Z</time>
      </trkpt>
      <trkpt lat="45.62929" lon="6.86708">
        <ele>1877.4</ele>
        <time>2016-05-06T15:38:49Z</time>
      </trkpt>
      <trkpt lat="45.6293" lon="6.86707">
        <ele>1877.5</ele>
        <time>2016-05-06T15:38:51Z</time>
      </trkpt>
      <trkpt lat="45.62932" lon="6.86707">
        <ele>1877.7</ele>
        <time>2016-05-06T15:38:53Z</time>
      </trkpt>
      <trkpt lat="45.62933" lon="6.86706">
        <ele>1877.9</ele>
        <time>2016-05-06T15:38:55Z</time>
      </trkpt>
      <trkpt lat="45.62935" lon="6.86706">
        <ele>1877.8</ele>
        <time>2016-05-06T15:38:57Z</time>
      </trkpt>
      <trkpt lat="45.62936" lon="6.86706">
        <ele>1877.9</ele>
        <time>2016-05-06T15:38:59Z</time>
      </trkpt>
      <trkpt lat="45.62938" lon="6.86706">
        <ele>1878</ele>
        <time>2016-05-06T15:39:01Z</time>
      </trkpt>
      <trkpt lat="45.62939" lon="6.86705">
        <ele>1878</ele>
        <time>2016-05-06T15:39:03Z</time>
      </trkpt>
      <trkpt lat="45.6294" lon="6.86704">
        <ele>1877.9</ele>
        <time>2016-05-06T15:39:05Z</time>
      </trkpt>
      <trkpt lat="45.62941" lon="6.86703">
        <ele>1878</ele>
        <time>2016-05-06T15:39:07Z</time>
      </trkpt>
      <trkpt lat="45.62942" lon="6.86703">
        <ele>1878</ele>
        <time>2016-05-06T15:39:09Z</time>
      </trkpt>
      <trkpt lat="45.62943" lon="6.86702">
        <ele>1878</ele>
        <time>2016-05-06T15:39:11Z</time>
      </trkpt>
      <trkpt lat="45.62946" lon="6.86701">
        <ele>1878</ele>
        <time>2016-05-06T15:39:13Z</time>
      </trkpt>
      <trkpt lat="45.62948" lon="6.86701">
        <ele>1878.1</ele>
        <time>2016-05-06T15:39:15Z</time>
      </trkpt>
      <trkpt lat="45.62949" lon="6.86701">
        <ele>1878.1</ele>
        <time>2016-05-06T15:39:17Z</time>
      </trkpt>
      <trkpt lat="45.6295" lon="6.867">
        <ele>1878.1</ele>
        <time>2016-05-06T15:39:19Z</time>
      </trkpt>
      <trkpt lat="45.62951" lon="6.86699">
        <ele>1878.2</ele>
        <time>2016-05-06T15:39:21Z</time>
      </trkpt>
      <trkpt lat="45.62952" lon="6.86698">
        <ele>1878.4</ele>
        <time>2016-05-06T15:39:23Z</time>
      </trkpt>
      <trkpt lat="45.62953" lon="6.86696">
        <ele>1878.4</ele>
        <time>2016-05-06T15:39:25Z</time>
      </trkpt>
      <trkpt lat="45.62954" lon="6.86695">
        <ele>1878.4</ele>
        <time>2016-05-06T15:39:27Z</time>
      </trkpt>
      <trkpt lat="45.62955" lon="6.86694">
        <ele>1878.4</ele>
        <time>2016-05-06T15:39:29Z</time>
      </trkpt>
      <trkpt lat="45.62956" lon="6.86693">
        <ele>1878.6</ele>
        <time>2016-05-06T15:39:31Z</time>
      </trkpt>
      <trkpt lat="45.62956" lon="6.86691">
        <ele>1878.7</ele>
        <time>2016-05-06T15:39:33Z</time>
      </trkpt>
      <trkpt lat="45.62958" lon="6.8669">
        <ele>1878.7</ele>
        <time>2016-05-06T15:39:35Z</time>
      </trkpt>
      <trkpt lat="45.62959" lon="6.86689">
        <ele>1878.7</ele>
        <time>2016-05-06T15:39:37Z</time>
      </trkpt>
      <trkpt lat="45.6296" lon="6.86688">
        <ele>1878.8</ele>
        <time>2016-05-06T15:39:39Z</time>
      </trkpt>
      <trkpt lat="45.62961" lon="6.86687">
        <ele>1878.8</ele>
        <time>2016-05-06T15:39:41Z</time>
      </trkpt>
      <trkpt lat="45.62962" lon="6.86686">
        <ele>1878.8</ele>
        <time>2016-05-06T15:39:43Z</time>
      </trkpt>
      <trkpt lat="45.62963" lon="6.86684">
        <ele>1878.9</ele>
        <time>2016-05-06T15:39:45Z</time>
      </trkpt>
      <trkpt lat="45.62965" lon="6.86683">
        <ele>1878.8</ele>
        <time>2016-05-06T15:39:47Z</time>
      </trkpt>
      <trkpt lat="45.62966" lon="6.86682">
        <ele>1878.8</ele>
        <time>2016-05-06T15:39:49Z</time>
      </trkpt>
      <trkpt lat="45.62967" lon="6.86681">
        <ele>1878.9</ele>
        <time>2016-05-06T15:39:51Z</time>
      </trkpt>
      <trkpt lat="45.62968" lon="6.8668">
        <ele>1879</ele>
        <time>2016-05-06T15:39:53Z</time>
      </trkpt>
      <trkpt lat="45.6297" lon="6.8668">
        <ele>1879.1</ele>
        <time>2016-05-06T15:39:55Z</time>
      </trkpt>
      <trkpt lat="45.62971" lon="6.86679">
        <ele>1879.1</ele>
        <time>2016-05-06T15:39:57Z</time>
      </trkpt>
      <trkpt lat="45.62973" lon="6.86678">
        <ele>1879.3</ele>
        <time>2016-05-06T15:39:59Z</time>
      </trkpt>
      <trkpt lat="45.62975" lon="6.86677">
        <ele>1879.3</ele>
        <time>2016-05-06T15:40:01Z</time>
      </trkpt>
      <trkpt lat="45.62976" lon="6.86676">
        <ele>1879.4</ele>
        <time>2016-05-06T15:40:03Z</time>
      </trkpt>
      <trkpt lat="45.62978" lon="6.86675">
        <ele>1879.4</ele>
        <time>2016-05-06T15:40:05Z</time>
      </trkpt>
      <trkpt lat="45.62979" lon="6.86674">
        <ele>1879.4</ele>
        <time>2016-05-06T15:40:07Z</time>
      </trkpt>
      <trkpt lat="45.6298" lon="6.86674">
        <ele>1879.5</ele>
        <time>2016-05-06T15:40:09Z</time>
      </trkpt>
      <trkpt lat="45.62981" lon="6.86673">
        <ele>1879.6</ele>
        <time>2016-05-06T15:40:11Z</time>
      </trkpt>
      <trkpt lat="45.62981" lon="6.86673">
        <ele>1879.7</ele>
        <time>2016-05-06T15:40:13Z</time>
      </trkpt>
      <trkpt lat="45.62982" lon="6.86673">
        <ele>1879.9</ele>
        <time>2016-05-06T15:40:15Z</time>
      </trkpt>
      <trkpt lat="45.62983" lon="6.86673">
        <ele>1880.1</ele>
        <time>2016-05-06T15:40:17Z</time>
      </trkpt>
      <trkpt lat="45.62984" lon="6.86673">
        <ele>1880.1</ele>
        <time>2016-05-06T15:40:19Z</time>
      </trkpt>
      <trkpt lat="45.62985" lon="6.86673">
        <ele>1880.4</ele>
        <time>2016-05-06T15:40:21Z</time>
      </trkpt>
      <trkpt lat="45.62986" lon="6.86673">
        <ele>1880.5</ele>
        <time>2016-05-06T15:40:23Z</time>
      </trkpt>
      <trkpt lat="45.62987" lon="6.86675">
        <ele>1880.6</ele>
        <time>2016-05-06T15:40:25Z</time>
      </trkpt>
      <trkpt lat="45.62988" lon="6.86675">
        <ele>1880.8</ele>
        <time>2016-05-06T15:40:27Z</time>
      </trkpt>
      <trkpt lat="45.62989" lon="6.86675">
        <ele>1881.1</ele>
        <time>2016-05-06T15:40:29Z</time>
      </trkpt>
      <trkpt lat="45.6299" lon="6.86676">
        <ele>1881</ele>
        <time>2016-05-06T15:40:31Z</time>
      </trkpt>
      <trkpt lat="45.62992" lon="6.86676">
        <ele>1881</ele>
        <time>2016-05-06T15:40:33Z</time>
      </trkpt>
      <trkpt lat="45.62993" lon="6.86676">
        <ele>1881.1</ele>
        <time>2016-05-06T15:40:35Z</time>
      </trkpt>
      <trkpt lat="45.62994" lon="6.86677">
        <ele>1881.2</ele>
        <time>2016-05-06T15:40:37Z</time>
      </trkpt>
      <trkpt lat="45.62996" lon="6.86678">
        <ele>1881.1</ele>
        <time>2016-05-06T15:40:39Z</time>
      </trkpt>
      <trkpt lat="45.62997" lon="6.8668">
        <ele>1881.2</ele>
        <time>2016-05-06T15:40:41Z</time>
      </trkpt>
      <trkpt lat="45.62998" lon="6.8668">
        <ele>1881.2</ele>
        <time>2016-05-06T15:40:43Z</time>
      </trkpt>
      <trkpt lat="45.62999" lon="6.8668">
        <ele>1881.4</ele>
        <time>2016-05-06T15:40:45Z</time>
      </trkpt>
      <trkpt lat="45.63" lon="6.86679">
        <ele>1881.6</ele>
        <time>2016-05-06T15:40:47Z</time>
      </trkpt>
      <trkpt lat="45.63001" lon="6.8668">
        <ele>1881.9</ele>
        <time>2016-05-06T15:40:49Z</time>
      </trkpt>
      <trkpt lat="45.63003" lon="6.86681">
        <ele>1882</ele>
        <time>2016-05-06T15:40:51Z</time>
      </trkpt>
      <trkpt lat="45.63004" lon="6.86682">
        <ele>1881.9</ele>
        <time>2016-05-06T15:40:53Z</time>
      </trkpt>
      <trkpt lat="45.63005" lon="6.86683">
        <ele>1882</ele>
        <time>2016-05-06T15:40:55Z</time>
      </trkpt>
      <trkpt lat="45.63006" lon="6.86684">
        <ele>1881.9</ele>
        <time>2016-05-06T15:40:57Z</time>
      </trkpt>
      <trkpt lat="45.63007" lon="6.86685">
        <ele>1881.9</ele>
        <time>2016-05-06T15:40:59Z</time>
      </trkpt>
      <trkpt lat="45.63009" lon="6.86687">
        <ele>1882</ele>
        <time>2016-05-06T15:41:01Z</time>
      </trkpt>
      <trkpt lat="45.63011" lon="6.86688">
        <ele>1882</ele>
        <time>2016-05-06T15:41:03Z</time>
      </trkpt>
      <trkpt lat="45.63012" lon="6.86687">
        <ele>1882.1</ele>
        <time>2016-05-06T15:41:05Z</time>
      </trkpt>
      <trkpt lat="45.63011" lon="6.86685">
        <ele>1882</ele>
        <time>2016-05-06T15:41:07Z</time>
      </trkpt>
      <trkpt lat="45.63012" lon="6.86685">
        <ele>1882.1</ele>
        <time>2016-05-06T15:41:09Z</time>
      </trkpt>
      <trkpt lat="45.63012" lon="6.86685">
        <ele>1882.2</ele>
        <time>2016-05-06T15:41:11Z</time>
      </trkpt>
      <trkpt lat="45.63013" lon="6.86686">
        <ele>1882.3</ele>
        <time>2016-05-06T15:41:13Z</time>
      </trkpt>
      <trkpt lat="45.63015" lon="6.86686">
        <ele>1882.4</ele>
        <time>2016-05-06T15:41:15Z</time>
      </trkpt>
      <trkpt lat="45.63017" lon="6.86688">
        <ele>1882.7</ele>
        <time>2016-05-06T15:41:17Z</time>
      </trkpt>
      <trkpt lat="45.63018" lon="6.86689">
        <ele>1882.9</ele>
        <time>2016-05-06T15:41:19Z</time>
      </trkpt>
      <trkpt lat="45.63019" lon="6.86691">
        <ele>1883</ele>
        <time>2016-05-06T15:41:21Z</time>
      </trkpt>
      <trkpt lat="45.63021" lon="6.86691">
        <ele>1883</ele>
        <time>2016-05-06T15:41:23Z</time>
      </trkpt>
      <trkpt lat="45.63023" lon="6.86692">
        <ele>1883.1</ele>
        <time>2016-05-06T15:41:25Z</time>
      </trkpt>
      <trkpt lat="45.63024" lon="6.86692">
        <ele>1883.1</ele>
        <time>2016-05-06T15:41:27Z</time>
      </trkpt>
      <trkpt lat="45.63026" lon="6.86694">
        <ele>1883.3</ele>
        <time>2016-05-06T15:41:29Z</time>
      </trkpt>
      <trkpt lat="45.63027" lon="6.86695">
        <ele>1883.4</ele>
        <time>2016-05-06T15:41:31Z</time>
      </trkpt>
      <trkpt lat="45.63029" lon="6.86696">
        <ele>1883.5</ele>
        <time>2016-05-06T15:41:33Z</time>
      </trkpt>
      <trkpt lat="45.63031" lon="6.86697">
        <ele>1883.5</ele>
        <time>2016-05-06T15:41:35Z</time>
      </trkpt>
      <trkpt lat="45.63032" lon="6.86698">
        <ele>1883.6</ele>
        <time>2016-05-06T15:41:37Z</time>
      </trkpt>
      <trkpt lat="45.63035" lon="6.86699">
        <ele>1883.9</ele>
        <time>2016-05-06T15:41:39Z</time>
      </trkpt>
      <trkpt lat="45.63036" lon="6.86699">
        <ele>1884.1</ele>
        <time>2016-05-06T15:41:41Z</time>
      </trkpt>
      <trkpt lat="45.63038" lon="6.867">
        <ele>1884.2</ele>
        <time>2016-05-06T15:41:43Z</time>
      </trkpt>
      <trkpt lat="45.63039" lon="6.867">
        <ele>1884.2</ele>
        <time>2016-05-06T15:41:45Z</time>
      </trkpt>
      <trkpt lat="45.63041" lon="6.867">
        <ele>1884.3</ele>
        <time>2016-05-06T15:41:47Z</time>
      </trkpt>
      <trkpt lat="45.63042" lon="6.867">
        <ele>1884.3</ele>
        <time>2016-05-06T15:41:49Z</time>
      </trkpt>
      <trkpt lat="45.63045" lon="6.86699">
        <ele>1884.4</ele>
        <time>2016-05-06T15:41:51Z</time>
      </trkpt>
      <trkpt lat="45.63046" lon="6.86699">
        <ele>1884.5</ele>
        <time>2016-05-06T15:41:53Z</time>
      </trkpt>
      <trkpt lat="45.63047" lon="6.86698">
        <ele>1884.6</ele>
        <time>2016-05-06T15:41:55Z</time>
      </trkpt>
      <trkpt lat="45.63049" lon="6.86697">
        <ele>1884.6</ele>
        <time>2016-05-06T15:41:57Z</time>
      </trkpt>
      <trkpt lat="45.63051" lon="6.86696">
        <ele>1884.6</ele>
        <time>2016-05-06T15:41:59Z</time>
      </trkpt>
      <trkpt lat="45.63052" lon="6.86695">
        <ele>1884.5</ele>
        <time>2016-05-06T15:42:01Z</time>
      </trkpt>
      <trkpt lat="45.63054" lon="6.86695">
        <ele>1884.6</ele>
        <time>2016-05-06T15:42:03Z</time>
      </trkpt>
      <trkpt lat="45.63056" lon="6.86696">
        <ele>1884.8</ele>
        <time>2016-05-06T15:42:05Z</time>
      </trkpt>
      <trkpt lat="45.63058" lon="6.86696">
        <ele>1884.8</ele>
        <time>2016-05-06T15:42:07Z</time>
      </trkpt>
      <trkpt lat="45.63061" lon="6.86696">
        <ele>1885</ele>
        <time>2016-05-06T15:42:09Z</time>
      </trkpt>
      <trkpt lat="45.63062" lon="6.86696">
        <ele>1885.2</ele>
        <time>2016-05-06T15:42:11Z</time>
      </trkpt>
      <trkpt lat="45.63064" lon="6.86698">
        <ele>1885.4</ele>
        <time>2016-05-06T15:42:13Z</time>
      </trkpt>
      <trkpt lat="45.63065" lon="6.86699">
        <ele>1885.6</ele>
        <time>2016-05-06T15:42:15Z</time>
      </trkpt>
      <trkpt lat="45.63066" lon="6.867">
        <ele>1885.6</ele>
        <time>2016-05-06T15:42:17Z</time>
      </trkpt>
      <trkpt lat="45.63067" lon="6.86701">
        <ele>1885.8</ele>
        <time>2016-05-06T15:42:19Z</time>
      </trkpt>
      <trkpt lat="45.63068" lon="6.86702">
        <ele>1886.1</ele>
        <time>2016-05-06T15:42:21Z</time>
      </trkpt>
      <trkpt lat="45.63069" lon="6.86703">
        <ele>1886.2</ele>
        <time>2016-05-06T15:42:23Z</time>
      </trkpt>
      <trkpt lat="45.63071" lon="6.86704">
        <ele>1886.2</ele>
        <time>2016-05-06T15:42:25Z</time>
      </trkpt>
      <trkpt lat="45.63072" lon="6.86704">
        <ele>1886.2</ele>
        <time>2016-05-06T15:42:27Z</time>
      </trkpt>
      <trkpt lat="45.63073" lon="6.86705">
        <ele>1886.1</ele>
        <time>2016-05-06T15:42:29Z</time>
      </trkpt>
      <trkpt lat="45.63075" lon="6.86706">
        <ele>1886.1</ele>
        <time>2016-05-06T15:42:31Z</time>
      </trkpt>
      <trkpt lat="45.63076" lon="6.86707">
        <ele>1886.3</ele>
        <time>2016-05-06T15:42:33Z</time>
      </trkpt>
      <trkpt lat="45.63078" lon="6.86708">
        <ele>1886.4</ele>
        <time>2016-05-06T15:42:35Z</time>
      </trkpt>
      <trkpt lat="45.63078" lon="6.8671">
        <ele>1886.6</ele>
        <time>2016-05-06T15:42:37Z</time>
      </trkpt>
      <trkpt lat="45.63079" lon="6.8671">
        <ele>1886.7</ele>
        <time>2016-05-06T15:42:39Z</time>
      </trkpt>
      <trkpt lat="45.63081" lon="6.86712">
        <ele>1886.8</ele>
        <time>2016-05-06T15:42:41Z</time>
      </trkpt>
      <trkpt lat="45.63082" lon="6.86714">
        <ele>1886.9</ele>
        <time>2016-05-06T15:42:43Z</time>
      </trkpt>
      <trkpt lat="45.63084" lon="6.86716">
        <ele>1887</ele>
        <time>2016-05-06T15:42:45Z</time>
      </trkpt>
      <trkpt lat="45.63085" lon="6.86717">
        <ele>1887.3</ele>
        <time>2016-05-06T15:42:47Z</time>
      </trkpt>
      <trkpt lat="45.63086" lon="6.86719">
        <ele>1887.3</ele>
        <time>2016-05-06T15:42:49Z</time>
      </trkpt>
      <trkpt lat="45.63087" lon="6.8672">
        <ele>1887.4</ele>
        <time>2016-05-06T15:42:51Z</time>
      </trkpt>
      <trkpt lat="45.63089" lon="6.86721">
        <ele>1887.5</ele>
        <time>2016-05-06T15:42:53Z</time>
      </trkpt>
      <trkpt lat="45.6309" lon="6.86724">
        <ele>1887.6</ele>
        <time>2016-05-06T15:42:55Z</time>
      </trkpt>
      <trkpt lat="45.63091" lon="6.86725">
        <ele>1887.8</ele>
        <time>2016-05-06T15:42:57Z</time>
      </trkpt>
      <trkpt lat="45.63092" lon="6.86727">
        <ele>1887.9</ele>
        <time>2016-05-06T15:42:59Z</time>
      </trkpt>
      <trkpt lat="45.63094" lon="6.86728">
        <ele>1888.1</ele>
        <time>2016-05-06T15:43:01Z</time>
      </trkpt>
      <trkpt lat="45.63095" lon="6.8673">
        <ele>1888.3</ele>
        <time>2016-05-06T15:43:03Z</time>
      </trkpt>
      <trkpt lat="45.63097" lon="6.86731">
        <ele>1888.5</ele>
        <time>2016-05-06T15:43:05Z</time>
      </trkpt>
      <trkpt lat="45.63098" lon="6.86733">
        <ele>1888.7</ele>
        <time>2016-05-06T15:43:07Z</time>
      </trkpt>
      <trkpt lat="45.631" lon="6.86734">
        <ele>1889</ele>
        <time>2016-05-06T15:43:09Z</time>
      </trkpt>
      <trkpt lat="45.63102" lon="6.86736">
        <ele>1889.2</ele>
        <time>2016-05-06T15:43:11Z</time>
      </trkpt>
      <trkpt lat="45.63103" lon="6.86738">
        <ele>1889.4</ele>
        <time>2016-05-06T15:43:13Z</time>
      </trkpt>
      <trkpt lat="45.63104" lon="6.86739">
        <ele>1889.5</ele>
        <time>2016-05-06T15:43:15Z</time>
      </trkpt>
      <trkpt lat="45.63106" lon="6.86742">
        <ele>1889.7</ele>
        <time>2016-05-06T15:43:17Z</time>
      </trkpt>
      <trkpt lat="45.63107" lon="6.86743">
        <ele>1889.8</ele>
        <time>2016-05-06T15:43:19Z</time>
      </trkpt>
      <trkpt lat="45.63108" lon="6.86742">
        <ele>1889.9</ele>
        <time>2016-05-06T15:43:21Z</time>
      </trkpt>
      <trkpt lat="45.63108" lon="6.86741">
        <ele>1889.9</ele>
        <time>2016-05-06T15:43:23Z</time>
      </trkpt>
      <trkpt lat="45.63108" lon="6.86741">
        <ele>1889.9</ele>
        <time>2016-05-06T15:43:25Z</time>
      </trkpt>
      <trkpt lat="45.63108" lon="6.86741">
        <ele>1890</ele>
        <time>2016-05-06T15:43:27Z</time>
      </trkpt>
      <trkpt lat="45.6311" lon="6.86741">
        <ele>1890.2</ele>
        <time>2016-05-06T15:43:29Z</time>
      </trkpt>
      <trkpt lat="45.63112" lon="6.86742">
        <ele>1890.3</ele>
        <time>2016-05-06T15:43:31Z</time>
      </trkpt>
      <trkpt lat="45.63113" lon="6.86743">
        <ele>1890.5</ele>
        <time>2016-05-06T15:43:33Z</time>
      </trkpt>
      <trkpt lat="45.63113" lon="6.86744">
        <ele>1890.5</ele>
        <time>2016-05-06T15:43:35Z</time>
      </trkpt>
      <trkpt lat="45.63114" lon="6.86745">
        <ele>1890.6</ele>
        <time>2016-05-06T15:43:37Z</time>
      </trkpt>
      <trkpt lat="45.63115" lon="6.86747">
        <ele>1890.7</ele>
        <time>2016-05-06T15:43:39Z</time>
      </trkpt>
      <trkpt lat="45.63116" lon="6.86749">
        <ele>1890.8</ele>
        <time>2016-05-06T15:43:41Z</time>
      </trkpt>
      <trkpt lat="45.63117" lon="6.86749">
        <ele>1890.9</ele>
        <time>2016-05-06T15:43:43Z</time>
      </trkpt>
      <trkpt lat="45.63118" lon="6.8675">
        <ele>1890.9</ele>
        <time>2016-05-06T15:43:45Z</time>
      </trkpt>
      <trkpt lat="45.63119" lon="6.86752">
        <ele>1890.9</ele>
        <time>2016-05-06T15:43:47Z</time>
      </trkpt>
      <trkpt lat="45.6312" lon="6.86753">
        <ele>1891</ele>
        <time>2016-05-06T15:43:49Z</time>
      </trkpt>
      <trkpt lat="45.63121" lon="6.86755">
        <ele>1891</ele>
        <time>2016-05-06T15:43:51Z</time>
      </trkpt>
      <trkpt lat="45.63122" lon="6.86756">
        <ele>1890.9</ele>
        <time>2016-05-06T15:43:53Z</time>
      </trkpt>
      <trkpt lat="45.63124" lon="6.86758">
        <ele>1891</ele>
        <time>2016-05-06T15:43:55Z</time>
      </trkpt>
      <trkpt lat="45.63126" lon="6.86759">
        <ele>1891.1</ele>
        <time>2016-05-06T15:43:57Z</time>
      </trkpt>
      <trkpt lat="45.63127" lon="6.86761">
        <ele>1891.3</ele>
        <time>2016-05-06T15:43:59Z</time>
      </trkpt>
      <trkpt lat="45.63129" lon="6.86762">
        <ele>1891.4</ele>
        <time>2016-05-06T15:44:01Z</time>
      </trkpt>
      <trkpt lat="45.6313" lon="6.86763">
        <ele>1891.4</ele>
        <time>2016-05-06T15:44:03Z</time>
      </trkpt>
      <trkpt lat="45.63132" lon="6.86765">
        <ele>1891.5</ele>
        <time>2016-05-06T15:44:05Z</time>
      </trkpt>
      <trkpt lat="45.63134" lon="6.86767">
        <ele>1891.8</ele>
        <time>2016-05-06T15:44:07Z</time>
      </trkpt>
      <trkpt lat="45.63135" lon="6.86769">
        <ele>1892</ele>
        <time>2016-05-06T15:44:09Z</time>
      </trkpt>
      <trkpt lat="45.63137" lon="6.86771">
        <ele>1892.1</ele>
        <time>2016-05-06T15:44:11Z</time>
      </trkpt>
      <trkpt lat="45.63138" lon="6.86772">
        <ele>1892.3</ele>
        <time>2016-05-06T15:44:13Z</time>
      </trkpt>
      <trkpt lat="45.6314" lon="6.86773">
        <ele>1892.4</ele>
        <time>2016-05-06T15:44:15Z</time>
      </trkpt>
      <trkpt lat="45.63142" lon="6.86774">
        <ele>1892.5</ele>
        <time>2016-05-06T15:44:17Z</time>
      </trkpt>
      <trkpt lat="45.63143" lon="6.86776">
        <ele>1892.6</ele>
        <time>2016-05-06T15:44:19Z</time>
      </trkpt>
      <trkpt lat="45.63145" lon="6.86777">
        <ele>1892.7</ele>
        <time>2016-05-06T15:44:21Z</time>
      </trkpt>
      <trkpt lat="45.63147" lon="6.86777">
        <ele>1892.8</ele>
        <time>2016-05-06T15:44:23Z</time>
      </trkpt>
      <trkpt lat="45.63149" lon="6.86778">
        <ele>1893.1</ele>
        <time>2016-05-06T15:44:25Z</time>
      </trkpt>
      <trkpt lat="45.6315" lon="6.86779">
        <ele>1893.1</ele>
        <time>2016-05-06T15:44:27Z</time>
      </trkpt>
      <trkpt lat="45.63152" lon="6.8678">
        <ele>1893.3</ele>
        <time>2016-05-06T15:44:29Z</time>
      </trkpt>
      <trkpt lat="45.63153" lon="6.86781">
        <ele>1893.4</ele>
        <time>2016-05-06T15:44:31Z</time>
      </trkpt>
      <trkpt lat="45.63155" lon="6.86783">
        <ele>1893.4</ele>
        <time>2016-05-06T15:44:33Z</time>
      </trkpt>
      <trkpt lat="45.63156" lon="6.86784">
        <ele>1893.5</ele>
        <time>2016-05-06T15:44:35Z</time>
      </trkpt>
      <trkpt lat="45.63158" lon="6.86785">
        <ele>1893.7</ele>
        <time>2016-05-06T15:44:37Z</time>
      </trkpt>
      <trkpt lat="45.6316" lon="6.86785">
        <ele>1893.9</ele>
        <time>2016-05-06T15:44:39Z</time>
      </trkpt>
      <trkpt lat="45.63162" lon="6.86785">
        <ele>1894.1</ele>
        <time>2016-05-06T15:44:41Z</time>
      </trkpt>
      <trkpt lat="45.63164" lon="6.86784">
        <ele>1894.2</ele>
        <time>2016-05-06T15:44:43Z</time>
      </trkpt>
      <trkpt lat="45.63166" lon="6.86784">
        <ele>1894.3</ele>
        <time>2016-05-06T15:44:45Z</time>
      </trkpt>
      <trkpt lat="45.63167" lon="6.86783">
        <ele>1894.4</ele>
        <time>2016-05-06T15:44:47Z</time>
      </trkpt>
      <trkpt lat="45.63168" lon="6.86783">
        <ele>1894.5</ele>
        <time>2016-05-06T15:44:49Z</time>
      </trkpt>
      <trkpt lat="45.6317" lon="6.86783">
        <ele>1894.7</ele>
        <time>2016-05-06T15:44:51Z</time>
      </trkpt>
      <trkpt lat="45.63172" lon="6.86783">
        <ele>1894.8</ele>
        <time>2016-05-06T15:44:53Z</time>
      </trkpt>
      <trkpt lat="45.63174" lon="6.86784">
        <ele>1895</ele>
        <time>2016-05-06T15:44:55Z</time>
      </trkpt>
      <trkpt lat="45.63175" lon="6.86784">
        <ele>1895</ele>
        <time>2016-05-06T15:44:57Z</time>
      </trkpt>
      <trkpt lat="45.63177" lon="6.86784">
        <ele>1895</ele>
        <time>2016-05-06T15:44:59Z</time>
      </trkpt>
      <trkpt lat="45.63178" lon="6.86785">
        <ele>1895.2</ele>
        <time>2016-05-06T15:45:01Z</time>
      </trkpt>
      <trkpt lat="45.6318" lon="6.86785">
        <ele>1895.5</ele>
        <time>2016-05-06T15:45:03Z</time>
      </trkpt>
      <trkpt lat="45.63181" lon="6.86784">
        <ele>1895.6</ele>
        <time>2016-05-06T15:45:05Z</time>
      </trkpt>
      <trkpt lat="45.63183" lon="6.86784">
        <ele>1895.8</ele>
        <time>2016-05-06T15:45:07Z</time>
      </trkpt>
      <trkpt lat="45.63184" lon="6.86783">
        <ele>1895.9</ele>
        <time>2016-05-06T15:45:09Z</time>
      </trkpt>
      <trkpt lat="45.63186" lon="6.86783">
        <ele>1896.2</ele>
        <time>2016-05-06T15:45:11Z</time>
      </trkpt>
      <trkpt lat="45.63188" lon="6.86783">
        <ele>1896.4</ele>
        <time>2016-05-06T15:45:13Z</time>
      </trkpt>
      <trkpt lat="45.6319" lon="6.86783">
        <ele>1896.6</ele>
        <time>2016-05-06T15:45:15Z</time>
      </trkpt>
      <trkpt lat="45.63192" lon="6.86783">
        <ele>1896.7</ele>
        <time>2016-05-06T15:45:17Z</time>
      </trkpt>
      <trkpt lat="45.63194" lon="6.86783">
        <ele>1896.8</ele>
        <time>2016-05-06T15:45:19Z</time>
      </trkpt>
      <trkpt lat="45.63195" lon="6.86782">
        <ele>1897</ele>
        <time>2016-05-06T15:45:21Z</time>
      </trkpt>
      <trkpt lat="45.63197" lon="6.86783">
        <ele>1897.1</ele>
        <time>2016-05-06T15:45:23Z</time>
      </trkpt>
      <trkpt lat="45.63198" lon="6.86783">
        <ele>1897.2</ele>
        <time>2016-05-06T15:45:25Z</time>
      </trkpt>
      <trkpt lat="45.63199" lon="6.86782">
        <ele>1897.3</ele>
        <time>2016-05-06T15:45:27Z</time>
      </trkpt>
      <trkpt lat="45.63201" lon="6.86781">
        <ele>1897.5</ele>
        <time>2016-05-06T15:45:29Z</time>
      </trkpt>
      <trkpt lat="45.63202" lon="6.86781">
        <ele>1897.6</ele>
        <time>2016-05-06T15:45:31Z</time>
      </trkpt>
      <trkpt lat="45.63204" lon="6.86781">
        <ele>1897.6</ele>
        <time>2016-05-06T15:45:33Z</time>
      </trkpt>
      <trkpt lat="45.63205" lon="6.86781">
        <ele>1897.6</ele>
        <time>2016-05-06T15:45:35Z</time>
      </trkpt>
      <trkpt lat="45.63206" lon="6.86781">
        <ele>1897.6</ele>
        <time>2016-05-06T15:45:37Z</time>
      </trkpt>
      <trkpt lat="45.63208" lon="6.86781">
        <ele>1897.7</ele>
        <time>2016-05-06T15:45:39Z</time>
      </trkpt>
      <trkpt lat="45.6321" lon="6.86781">
        <ele>1897.9</ele>
        <time>2016-05-06T15:45:41Z</time>
      </trkpt>
      <trkpt lat="45.63211" lon="6.8678">
        <ele>1897.9</ele>
        <time>2016-05-06T15:45:43Z</time>
      </trkpt>
      <trkpt lat="45.63213" lon="6.8678">
        <ele>1898.1</ele>
        <time>2016-05-06T15:45:45Z</time>
      </trkpt>
      <trkpt lat="45.63214" lon="6.8678">
        <ele>1898.3</ele>
        <time>2016-05-06T15:45:47Z</time>
      </trkpt>
      <trkpt lat="45.63216" lon="6.86781">
        <ele>1898.3</ele>
        <time>2016-05-06T15:45:49Z</time>
      </trkpt>
      <trkpt lat="45.63217" lon="6.86781">
        <ele>1898.5</ele>
        <time>2016-05-06T15:45:51Z</time>
      </trkpt>
      <trkpt lat="45.6322" lon="6.8678">
        <ele>1898.6</ele>
        <time>2016-05-06T15:45:53Z</time>
      </trkpt>
      <trkpt lat="45.63222" lon="6.8678">
        <ele>1898.7</ele>
        <time>2016-05-06T15:45:55Z</time>
      </trkpt>
      <trkpt lat="45.63224" lon="6.86781">
        <ele>1898.7</ele>
        <time>2016-05-06T15:45:57Z</time>
      </trkpt>
      <trkpt lat="45.63226" lon="6.86781">
        <ele>1898.9</ele>
        <time>2016-05-06T15:45:59Z</time>
      </trkpt>
      <trkpt lat="45.63228" lon="6.8678">
        <ele>1898.9</ele>
        <time>2016-05-06T15:46:01Z</time>
      </trkpt>
      <trkpt lat="45.6323" lon="6.8678">
        <ele>1899.2</ele>
        <time>2016-05-06T15:46:03Z</time>
      </trkpt>
      <trkpt lat="45.63231" lon="6.8678">
        <ele>1899.4</ele>
        <time>2016-05-06T15:46:05Z</time>
      </trkpt>
      <trkpt lat="45.63232" lon="6.86779">
        <ele>1899.5</ele>
        <time>2016-05-06T15:46:07Z</time>
      </trkpt>
      <trkpt lat="45.63234" lon="6.86778">
        <ele>1899.6</ele>
        <time>2016-05-06T15:46:09Z</time>
      </trkpt>
      <trkpt lat="45.63236" lon="6.86779">
        <ele>1899.7</ele>
        <time>2016-05-06T15:46:11Z</time>
      </trkpt>
      <trkpt lat="45.63237" lon="6.86779">
        <ele>1899.9</ele>
        <time>2016-05-06T15:46:13Z</time>
      </trkpt>
      <trkpt lat="45.63239" lon="6.86779">
        <ele>1900</ele>
        <time>2016-05-06T15:46:15Z</time>
      </trkpt>
      <trkpt lat="45.63241" lon="6.86779">
        <ele>1900.1</ele>
        <time>2016-05-06T15:46:17Z</time>
      </trkpt>
      <trkpt lat="45.63243" lon="6.8678">
        <ele>1900.4</ele>
        <time>2016-05-06T15:46:19Z</time>
      </trkpt>
      <trkpt lat="45.63244" lon="6.8678">
        <ele>1900.6</ele>
        <time>2016-05-06T15:46:21Z</time>
      </trkpt>
      <trkpt lat="45.63245" lon="6.86781">
        <ele>1900.7</ele>
        <time>2016-05-06T15:46:23Z</time>
      </trkpt>
      <trkpt lat="45.63247" lon="6.8678">
        <ele>1900.8</ele>
        <time>2016-05-06T15:46:25Z</time>
      </trkpt>
      <trkpt lat="45.63248" lon="6.8678">
        <ele>1901</ele>
        <time>2016-05-06T15:46:27Z</time>
      </trkpt>
      <trkpt lat="45.6325" lon="6.86781">
        <ele>1901</ele>
        <time>2016-05-06T15:46:29Z</time>
      </trkpt>
      <trkpt lat="45.63252" lon="6.86781">
        <ele>1901.1</ele>
        <time>2016-05-06T15:46:31Z</time>
      </trkpt>
      <trkpt lat="45.63253" lon="6.86782">
        <ele>1901.3</ele>
        <time>2016-05-06T15:46:33Z</time>
      </trkpt>
      <trkpt lat="45.63255" lon="6.86782">
        <ele>1901.5</ele>
        <time>2016-05-06T15:46:35Z</time>
      </trkpt>
      <trkpt lat="45.63257" lon="6.86783">
        <ele>1901.5</ele>
        <time>2016-05-06T15:46:37Z</time>
      </trkpt>
      <trkpt lat="45.63258" lon="6.86783">
        <ele>1901.6</ele>
        <time>2016-05-06T15:46:39Z</time>
      </trkpt>
      <trkpt lat="45.6326" lon="6.86784">
        <ele>1901.8</ele>
        <time>2016-05-06T15:46:41Z</time>
      </trkpt>
      <trkpt lat="45.63261" lon="6.86786">
        <ele>1901.9</ele>
        <time>2016-05-06T15:46:43Z</time>
      </trkpt>
      <trkpt lat="45.63263" lon="6.86786">
        <ele>1902.2</ele>
        <time>2016-05-06T15:46:45Z</time>
      </trkpt>
      <trkpt lat="45.63265" lon="6.86786">
        <ele>1902.4</ele>
        <time>2016-05-06T15:46:47Z</time>
      </trkpt>
      <trkpt lat="45.63266" lon="6.86786">
        <ele>1902.6</ele>
        <time>2016-05-06T15:46:49Z</time>
      </trkpt>
      <trkpt lat="45.63268" lon="6.86788">
        <ele>1902.7</ele>
        <time>2016-05-06T15:46:51Z</time>
      </trkpt>
      <trkpt lat="45.6327" lon="6.86789">
        <ele>1902.7</ele>
        <time>2016-05-06T15:46:53Z</time>
      </trkpt>
      <trkpt lat="45.63271" lon="6.86789">
        <ele>1902.8</ele>
        <time>2016-05-06T15:46:55Z</time>
      </trkpt>
      <trkpt lat="45.63273" lon="6.8679">
        <ele>1902.9</ele>
        <time>2016-05-06T15:46:57Z</time>
      </trkpt>
      <trkpt lat="45.63275" lon="6.86791">
        <ele>1903.1</ele>
        <time>2016-05-06T15:46:59Z</time>
      </trkpt>
      <trkpt lat="45.63276" lon="6.86792">
        <ele>1903.2</ele>
        <time>2016-05-06T15:47:01Z</time>
      </trkpt>
      <trkpt lat="45.63278" lon="6.86793">
        <ele>1903.4</ele>
        <time>2016-05-06T15:47:03Z</time>
      </trkpt>
      <trkpt lat="45.63279" lon="6.86794">
        <ele>1903.6</ele>
        <time>2016-05-06T15:47:05Z</time>
      </trkpt>
      <trkpt lat="45.63281" lon="6.86795">
        <ele>1903.7</ele>
        <time>2016-05-06T15:47:07Z</time>
      </trkpt>
      <trkpt lat="45.63282" lon="6.86795">
        <ele>1903.9</ele>
        <time>2016-05-06T15:47:09Z</time>
      </trkpt>
      <trkpt lat="45.63284" lon="6.86795">
        <ele>1904.2</ele>
        <time>2016-05-06T15:47:11Z</time>
      </trkpt>
      <trkpt lat="45.63285" lon="6.86796">
        <ele>1904.4</ele>
        <time>2016-05-06T15:47:13Z</time>
      </trkpt>
      <trkpt lat="45.63287" lon="6.86797">
        <ele>1904.5</ele>
        <time>2016-05-06T15:47:15Z</time>
      </trkpt>
      <trkpt lat="45.63288" lon="6.86798">
        <ele>1904.5</ele>
        <time>2016-05-06T15:47:17Z</time>
      </trkpt>
      <trkpt lat="45.6329" lon="6.86799">
        <ele>1904.7</ele>
        <time>2016-05-06T15:47:19Z</time>
      </trkpt>
      <trkpt lat="45.63292" lon="6.86801">
        <ele>1904.8</ele>
        <time>2016-05-06T15:47:21Z</time>
      </trkpt>
      <trkpt lat="45.63294" lon="6.86801">
        <ele>1905.1</ele>
        <time>2016-05-06T15:47:23Z</time>
      </trkpt>
      <trkpt lat="45.63295" lon="6.86802">
        <ele>1905.2</ele>
        <time>2016-05-06T15:47:25Z</time>
      </trkpt>
      <trkpt lat="45.63297" lon="6.86803">
        <ele>1905.4</ele>
        <time>2016-05-06T15:47:27Z</time>
      </trkpt>
      <trkpt lat="45.63298" lon="6.86804">
        <ele>1905.6</ele>
        <time>2016-05-06T15:47:29Z</time>
      </trkpt>
      <trkpt lat="45.633" lon="6.86805">
        <ele>1905.7</ele>
        <time>2016-05-06T15:47:31Z</time>
      </trkpt>
      <trkpt lat="45.63301" lon="6.86806">
        <ele>1905.8</ele>
        <time>2016-05-06T15:47:33Z</time>
      </trkpt>
      <trkpt lat="45.63303" lon="6.86807">
        <ele>1906</ele>
        <time>2016-05-06T15:47:35Z</time>
      </trkpt>
      <trkpt lat="45.63305" lon="6.86806">
        <ele>1906.2</ele>
        <time>2016-05-06T15:47:37Z</time>
      </trkpt>
      <trkpt lat="45.63306" lon="6.86807">
        <ele>1906.3</ele>
        <time>2016-05-06T15:47:39Z</time>
      </trkpt>
      <trkpt lat="45.63308" lon="6.86808">
        <ele>1906.5</ele>
        <time>2016-05-06T15:47:41Z</time>
      </trkpt>
      <trkpt lat="45.6331" lon="6.86809">
        <ele>1906.6</ele>
        <time>2016-05-06T15:47:43Z</time>
      </trkpt>
      <trkpt lat="45.63311" lon="6.8681">
        <ele>1906.7</ele>
        <time>2016-05-06T15:47:45Z</time>
      </trkpt>
      <trkpt lat="45.63312" lon="6.86811">
        <ele>1907</ele>
        <time>2016-05-06T15:47:47Z</time>
      </trkpt>
      <trkpt lat="45.63314" lon="6.86812">
        <ele>1907.1</ele>
        <time>2016-05-06T15:47:49Z</time>
      </trkpt>
      <trkpt lat="45.63314" lon="6.86812">
        <ele>1907.1</ele>
        <time>2016-05-06T15:47:51Z</time>
      </trkpt>
      <trkpt lat="45.63314" lon="6.86811">
        <ele>1905.6</ele>
        <time>2016-05-06T15:47:53Z</time>
      </trkpt>
      <trkpt lat="45.63314" lon="6.8681">
        <ele>1906.6</ele>
        <time>2016-05-06T15:47:55Z</time>
      </trkpt>
      <trkpt lat="45.63314" lon="6.86809">
        <ele>1907</ele>
        <time>2016-05-06T15:47:57Z</time>
      </trkpt>
      <trkpt lat="45.63313" lon="6.86808">
        <ele>1907.4</ele>
        <time>2016-05-06T15:47:59Z</time>
      </trkpt>
      <trkpt lat="45.63313" lon="6.86808">
        <ele>1907.6</ele>
        <time>2016-05-06T15:48:01Z</time>
      </trkpt>
      <trkpt lat="45.63315" lon="6.86808">
        <ele>1907.7</ele>
        <time>2016-05-06T15:48:03Z</time>
      </trkpt>
      <trkpt lat="45.63316" lon="6.86809">
        <ele>1907.8</ele>
        <time>2016-05-06T15:48:05Z</time>
      </trkpt>
      <trkpt lat="45.63318" lon="6.86809">
        <ele>1908</ele>
        <time>2016-05-06T15:48:07Z</time>
      </trkpt>
      <trkpt lat="45.63319" lon="6.8681">
        <ele>1908.3</ele>
        <time>2016-05-06T15:48:09Z</time>
      </trkpt>
      <trkpt lat="45.63321" lon="6.8681">
        <ele>1908.3</ele>
        <time>2016-05-06T15:48:11Z</time>
      </trkpt>
      <trkpt lat="45.63323" lon="6.86812">
        <ele>1908.4</ele>
        <time>2016-05-06T15:48:13Z</time>
      </trkpt>
      <trkpt lat="45.63324" lon="6.86813">
        <ele>1908.6</ele>
        <time>2016-05-06T15:48:15Z</time>
      </trkpt>
      <trkpt lat="45.63326" lon="6.86813">
        <ele>1908.7</ele>
        <time>2016-05-06T15:48:17Z</time>
      </trkpt>
      <trkpt lat="45.63327" lon="6.86815">
        <ele>1909</ele>
        <time>2016-05-06T15:48:19Z</time>
      </trkpt>
      <trkpt lat="45.63329" lon="6.86815">
        <ele>1909.1</ele>
        <time>2016-05-06T15:48:21Z</time>
      </trkpt>
      <trkpt lat="45.63331" lon="6.86814">
        <ele>1909.3</ele>
        <time>2016-05-06T15:48:23Z</time>
      </trkpt>
      <trkpt lat="45.63332" lon="6.86814">
        <ele>1909.5</ele>
        <time>2016-05-06T15:48:25Z</time>
      </trkpt>
      <trkpt lat="45.63334" lon="6.86814">
        <ele>1909.6</ele>
        <time>2016-05-06T15:48:27Z</time>
      </trkpt>
      <trkpt lat="45.63336" lon="6.86816">
        <ele>1909.7</ele>
        <time>2016-05-06T15:48:29Z</time>
      </trkpt>
      <trkpt lat="45.63337" lon="6.86816">
        <ele>1909.9</ele>
        <time>2016-05-06T15:48:31Z</time>
      </trkpt>
      <trkpt lat="45.63338" lon="6.86817">
        <ele>1910</ele>
        <time>2016-05-06T15:48:33Z</time>
      </trkpt>
      <trkpt lat="45.6334" lon="6.86817">
        <ele>1910.1</ele>
        <time>2016-05-06T15:48:35Z</time>
      </trkpt>
      <trkpt lat="45.63342" lon="6.86817">
        <ele>1910.5</ele>
        <time>2016-05-06T15:48:37Z</time>
      </trkpt>
      <trkpt lat="45.63344" lon="6.86818">
        <ele>1910.6</ele>
        <time>2016-05-06T15:48:39Z</time>
      </trkpt>
      <trkpt lat="45.63345" lon="6.86819">
        <ele>1910.7</ele>
        <time>2016-05-06T15:48:41Z</time>
      </trkpt>
      <trkpt lat="45.63346" lon="6.86819">
        <ele>1910.6</ele>
        <time>2016-05-06T15:48:43Z</time>
      </trkpt>
      <trkpt lat="45.63348" lon="6.86818">
        <ele>1910.8</ele>
        <time>2016-05-06T15:48:45Z</time>
      </trkpt>
      <trkpt lat="45.6335" lon="6.86819">
        <ele>1910.9</ele>
        <time>2016-05-06T15:48:47Z</time>
      </trkpt>
      <trkpt lat="45.63351" lon="6.8682">
        <ele>1911.1</ele>
        <time>2016-05-06T15:48:49Z</time>
      </trkpt>
      <trkpt lat="45.63353" lon="6.86819">
        <ele>1911.3</ele>
        <time>2016-05-06T15:48:51Z</time>
      </trkpt>
      <trkpt lat="45.63354" lon="6.8682">
        <ele>1911.4</ele>
        <time>2016-05-06T15:48:53Z</time>
      </trkpt>
      <trkpt lat="45.63356" lon="6.86821">
        <ele>1911.6</ele>
        <time>2016-05-06T15:48:55Z</time>
      </trkpt>
      <trkpt lat="45.63358" lon="6.86821">
        <ele>1911.7</ele>
        <time>2016-05-06T15:48:57Z</time>
      </trkpt>
      <trkpt lat="45.63359" lon="6.86821">
        <ele>1911.9</ele>
        <time>2016-05-06T15:48:59Z</time>
      </trkpt>
      <trkpt lat="45.63361" lon="6.86821">
        <ele>1912.1</ele>
        <time>2016-05-06T15:49:01Z</time>
      </trkpt>
      <trkpt lat="45.63362" lon="6.86821">
        <ele>1912.2</ele>
        <time>2016-05-06T15:49:03Z</time>
      </trkpt>
      <trkpt lat="45.63365" lon="6.86822">
        <ele>1912.3</ele>
        <time>2016-05-06T15:49:05Z</time>
      </trkpt>
      <trkpt lat="45.63367" lon="6.86823">
        <ele>1912.3</ele>
        <time>2016-05-06T15:49:07Z</time>
      </trkpt>
      <trkpt lat="45.63368" lon="6.86824">
        <ele>1912.4</ele>
        <time>2016-05-06T15:49:09Z</time>
      </trkpt>
      <trkpt lat="45.6337" lon="6.86824">
        <ele>1912.6</ele>
        <time>2016-05-06T15:49:11Z</time>
      </trkpt>
      <trkpt lat="45.63372" lon="6.86824">
        <ele>1912.8</ele>
        <time>2016-05-06T15:49:13Z</time>
      </trkpt>
      <trkpt lat="45.63374" lon="6.86825">
        <ele>1912.8</ele>
        <time>2016-05-06T15:49:15Z</time>
      </trkpt>
      <trkpt lat="45.63376" lon="6.86825">
        <ele>1912.8</ele>
        <time>2016-05-06T15:49:17Z</time>
      </trkpt>
      <trkpt lat="45.63378" lon="6.86825">
        <ele>1912.9</ele>
        <time>2016-05-06T15:49:19Z</time>
      </trkpt>
      <trkpt lat="45.6338" lon="6.86825">
        <ele>1913.1</ele>
        <time>2016-05-06T15:49:21Z</time>
      </trkpt>
      <trkpt lat="45.63381" lon="6.86825">
        <ele>1913.3</ele>
        <time>2016-05-06T15:49:23Z</time>
      </trkpt>
      <trkpt lat="45.63383" lon="6.86824">
        <ele>1913.5</ele>
        <time>2016-05-06T15:49:25Z</time>
      </trkpt>
      <trkpt lat="45.63385" lon="6.86824">
        <ele>1913.3</ele>
        <time>2016-05-06T15:49:27Z</time>
      </trkpt>
      <trkpt lat="45.63386" lon="6.86824">
        <ele>1913.4</ele>
        <time>2016-05-06T15:49:29Z</time>
      </trkpt>
      <trkpt lat="45.63388" lon="6.86824">
        <ele>1913.7</ele>
        <time>2016-05-06T15:49:31Z</time>
      </trkpt>
      <trkpt lat="45.6339" lon="6.86824">
        <ele>1914</ele>
        <time>2016-05-06T15:49:33Z</time>
      </trkpt>
      <trkpt lat="45.63392" lon="6.86824">
        <ele>1914.3</ele>
        <time>2016-05-06T15:49:35Z</time>
      </trkpt>
      <trkpt lat="45.63393" lon="6.86826">
        <ele>1914.5</ele>
        <time>2016-05-06T15:49:37Z</time>
      </trkpt>
      <trkpt lat="45.63395" lon="6.86826">
        <ele>1914.5</ele>
        <time>2016-05-06T15:49:39Z</time>
      </trkpt>
      <trkpt lat="45.63397" lon="6.86827">
        <ele>1914.6</ele>
        <time>2016-05-06T15:49:41Z</time>
      </trkpt>
      <trkpt lat="45.63398" lon="6.86828">
        <ele>1914.6</ele>
        <time>2016-05-06T15:49:43Z</time>
      </trkpt>
      <trkpt lat="45.634" lon="6.86828">
        <ele>1914.7</ele>
        <time>2016-05-06T15:49:45Z</time>
      </trkpt>
      <trkpt lat="45.63401" lon="6.86828">
        <ele>1914.9</ele>
        <time>2016-05-06T15:49:47Z</time>
      </trkpt>
      <trkpt lat="45.63403" lon="6.86829">
        <ele>1915.1</ele>
        <time>2016-05-06T15:49:49Z</time>
      </trkpt>
      <trkpt lat="45.63404" lon="6.86829">
        <ele>1915.4</ele>
        <time>2016-05-06T15:49:51Z</time>
      </trkpt>
      <trkpt lat="45.63406" lon="6.86829">
        <ele>1915.7</ele>
        <time>2016-05-06T15:49:53Z</time>
      </trkpt>
      <trkpt lat="45.63408" lon="6.86829">
        <ele>1915.8</ele>
        <time>2016-05-06T15:49:55Z</time>
      </trkpt>
      <trkpt lat="45.63409" lon="6.86829">
        <ele>1915.9</ele>
        <time>2016-05-06T15:49:57Z</time>
      </trkpt>
      <trkpt lat="45.6341" lon="6.86829">
        <ele>1915.7</ele>
        <time>2016-05-06T15:49:59Z</time>
      </trkpt>
      <trkpt lat="45.6341" lon="6.86829">
        <ele>1914.3</ele>
        <time>2016-05-06T15:50:01Z</time>
      </trkpt>
      <trkpt lat="45.6341" lon="6.86828">
        <ele>1914.3</ele>
        <time>2016-05-06T15:50:03Z</time>
      </trkpt>
      <trkpt lat="45.6341" lon="6.86828">
        <ele>1914.6</ele>
        <time>2016-05-06T15:50:05Z</time>
      </trkpt>
      <trkpt lat="45.6341" lon="6.86828">
        <ele>1915</ele>
        <time>2016-05-06T15:50:07Z</time>
      </trkpt>
      <trkpt lat="45.6341" lon="6.86828">
        <ele>1917.1</ele>
        <time>2016-05-06T15:50:09Z</time>
      </trkpt>
      <trkpt lat="45.63412" lon="6.86828">
        <ele>1917.3</ele>
        <time>2016-05-06T15:50:11Z</time>
      </trkpt>
      <trkpt lat="45.63414" lon="6.86829">
        <ele>1917.3</ele>
        <time>2016-05-06T15:50:13Z</time>
      </trkpt>
      <trkpt lat="45.63415" lon="6.86829">
        <ele>1917.2</ele>
        <time>2016-05-06T15:50:15Z</time>
      </trkpt>
      <trkpt lat="45.63417" lon="6.8683">
        <ele>1917</ele>
        <time>2016-05-06T15:50:17Z</time>
      </trkpt>
      <trkpt lat="45.63418" lon="6.86829">
        <ele>1917</ele>
        <time>2016-05-06T15:50:19Z</time>
      </trkpt>
      <trkpt lat="45.6342" lon="6.8683">
        <ele>1917.1</ele>
        <time>2016-05-06T15:50:21Z</time>
      </trkpt>
      <trkpt lat="45.63422" lon="6.8683">
        <ele>1917.1</ele>
        <time>2016-05-06T15:50:23Z</time>
      </trkpt>
      <trkpt lat="45.63423" lon="6.8683">
        <ele>1917.4</ele>
        <time>2016-05-06T15:50:25Z</time>
      </trkpt>
      <trkpt lat="45.63425" lon="6.8683">
        <ele>1917.5</ele>
        <time>2016-05-06T15:50:27Z</time>
      </trkpt>
      <trkpt lat="45.63427" lon="6.8683">
        <ele>1917.6</ele>
        <time>2016-05-06T15:50:29Z</time>
      </trkpt>
      <trkpt lat="45.63428" lon="6.86831">
        <ele>1917.6</ele>
        <time>2016-05-06T15:50:31Z</time>
      </trkpt>
      <trkpt lat="45.6343" lon="6.86831">
        <ele>1917.9</ele>
        <time>2016-05-06T15:50:33Z</time>
      </trkpt>
      <trkpt lat="45.63432" lon="6.86831">
        <ele>1918</ele>
        <time>2016-05-06T15:50:35Z</time>
      </trkpt>
      <trkpt lat="45.63434" lon="6.86831">
        <ele>1918.2</ele>
        <time>2016-05-06T15:50:37Z</time>
      </trkpt>
      <trkpt lat="45.63436" lon="6.86831">
        <ele>1918.4</ele>
        <time>2016-05-06T15:50:39Z</time>
      </trkpt>
      <trkpt lat="45.63437" lon="6.86832">
        <ele>1918.6</ele>
        <time>2016-05-06T15:50:41Z</time>
      </trkpt>
      <trkpt lat="45.63439" lon="6.86832">
        <ele>1918.7</ele>
        <time>2016-05-06T15:50:43Z</time>
      </trkpt>
      <trkpt lat="45.6344" lon="6.86832">
        <ele>1918.8</ele>
        <time>2016-05-06T15:50:45Z</time>
      </trkpt>
      <trkpt lat="45.63442" lon="6.86831">
        <ele>1918.9</ele>
        <time>2016-05-06T15:50:47Z</time>
      </trkpt>
      <trkpt lat="45.63443" lon="6.8683">
        <ele>1919</ele>
        <time>2016-05-06T15:50:49Z</time>
      </trkpt>
      <trkpt lat="45.63444" lon="6.86829">
        <ele>1919.1</ele>
        <time>2016-05-06T15:50:51Z</time>
      </trkpt>
      <trkpt lat="45.63446" lon="6.86829">
        <ele>1919.1</ele>
        <time>2016-05-06T15:50:53Z</time>
      </trkpt>
      <trkpt lat="45.63447" lon="6.86828">
        <ele>1919.3</ele>
        <time>2016-05-06T15:50:55Z</time>
      </trkpt>
      <trkpt lat="45.63449" lon="6.86827">
        <ele>1919.4</ele>
        <time>2016-05-06T15:50:57Z</time>
      </trkpt>
      <trkpt lat="45.63449" lon="6.86827">
        <ele>1919.5</ele>
        <time>2016-05-06T15:50:59Z</time>
      </trkpt>
      <trkpt lat="45.63452" lon="6.86827">
        <ele>1919.7</ele>
        <time>2016-05-06T15:51:01Z</time>
      </trkpt>
      <trkpt lat="45.63453" lon="6.86827">
        <ele>1919.8</ele>
        <time>2016-05-06T15:51:03Z</time>
      </trkpt>
      <trkpt lat="45.63455" lon="6.86826">
        <ele>1920.1</ele>
        <time>2016-05-06T15:51:05Z</time>
      </trkpt>
      <trkpt lat="45.63457" lon="6.86826">
        <ele>1920.3</ele>
        <time>2016-05-06T15:51:07Z</time>
      </trkpt>
      <trkpt lat="45.63459" lon="6.86826">
        <ele>1920.5</ele>
        <time>2016-05-06T15:51:09Z</time>
      </trkpt>
      <trkpt lat="45.63462" lon="6.86826">
        <ele>1920.7</ele>
        <time>2016-05-06T15:51:11Z</time>
      </trkpt>
      <trkpt lat="45.63463" lon="6.86826">
        <ele>1920.9</ele>
        <time>2016-05-06T15:51:13Z</time>
      </trkpt>
      <trkpt lat="45.63465" lon="6.86826">
        <ele>1920.9</ele>
        <time>2016-05-06T15:51:15Z</time>
      </trkpt>
      <trkpt lat="45.63467" lon="6.86824">
        <ele>1921.2</ele>
        <time>2016-05-06T15:51:17Z</time>
      </trkpt>
      <trkpt lat="45.63468" lon="6.86824">
        <ele>1921.3</ele>
        <time>2016-05-06T15:51:19Z</time>
      </trkpt>
      <trkpt lat="45.6347" lon="6.86823">
        <ele>1921.3</ele>
        <time>2016-05-06T15:51:21Z</time>
      </trkpt>
      <trkpt lat="45.63472" lon="6.86823">
        <ele>1921.5</ele>
        <time>2016-05-06T15:51:23Z</time>
      </trkpt>
      <trkpt lat="45.63474" lon="6.86823">
        <ele>1921.5</ele>
        <time>2016-05-06T15:51:25Z</time>
      </trkpt>
      <trkpt lat="45.63476" lon="6.86823">
        <ele>1921.6</ele>
        <time>2016-05-06T15:51:27Z</time>
      </trkpt>
      <trkpt lat="45.63477" lon="6.86823">
        <ele>1921.8</ele>
        <time>2016-05-06T15:51:29Z</time>
      </trkpt>
      <trkpt lat="45.63479" lon="6.86823">
        <ele>1921.9</ele>
        <time>2016-05-06T15:51:31Z</time>
      </trkpt>
      <trkpt lat="45.63481" lon="6.86823">
        <ele>1922.2</ele>
        <time>2016-05-06T15:51:33Z</time>
      </trkpt>
      <trkpt lat="45.63483" lon="6.86822">
        <ele>1922.3</ele>
        <time>2016-05-06T15:51:35Z</time>
      </trkpt>
      <trkpt lat="45.63485" lon="6.86822">
        <ele>1922.5</ele>
        <time>2016-05-06T15:51:37Z</time>
      </trkpt>
      <trkpt lat="45.63486" lon="6.86822">
        <ele>1922.7</ele>
        <time>2016-05-06T15:51:39Z</time>
      </trkpt>
      <trkpt lat="45.63488" lon="6.86822">
        <ele>1922.8</ele>
        <time>2016-05-06T15:51:41Z</time>
      </trkpt>
      <trkpt lat="45.6349" lon="6.86823">
        <ele>1922.9</ele>
        <time>2016-05-06T15:51:43Z</time>
      </trkpt>
      <trkpt lat="45.63491" lon="6.86823">
        <ele>1923.1</ele>
        <time>2016-05-06T15:51:45Z</time>
      </trkpt>
      <trkpt lat="45.63493" lon="6.86822">
        <ele>1923.2</ele>
        <time>2016-05-06T15:51:47Z</time>
      </trkpt>
      <trkpt lat="45.63495" lon="6.86822">
        <ele>1923.4</ele>
        <time>2016-05-06T15:51:49Z</time>
      </trkpt>
      <trkpt lat="45.63496" lon="6.86822">
        <ele>1923.4</ele>
        <time>2016-05-06T15:51:51Z</time>
      </trkpt>
      <trkpt lat="45.63498" lon="6.86823">
        <ele>1923.4</ele>
        <time>2016-05-06T15:51:53Z</time>
      </trkpt>
      <trkpt lat="45.635" lon="6.86823">
        <ele>1923.5</ele>
        <time>2016-05-06T15:51:55Z</time>
      </trkpt>
      <trkpt lat="45.63501" lon="6.86824">
        <ele>1923.8</ele>
        <time>2016-05-06T15:51:57Z</time>
      </trkpt>
      <trkpt lat="45.63503" lon="6.86826">
        <ele>1924</ele>
        <time>2016-05-06T15:51:59Z</time>
      </trkpt>
      <trkpt lat="45.63505" lon="6.86826">
        <ele>1924</ele>
        <time>2016-05-06T15:52:01Z</time>
      </trkpt>
      <trkpt lat="45.63506" lon="6.86826">
        <ele>1924</ele>
        <time>2016-05-06T15:52:03Z</time>
      </trkpt>
      <trkpt lat="45.63508" lon="6.86827">
        <ele>1924.4</ele>
        <time>2016-05-06T15:52:05Z</time>
      </trkpt>
      <trkpt lat="45.63509" lon="6.86829">
        <ele>1924.5</ele>
        <time>2016-05-06T15:52:07Z</time>
      </trkpt>
      <trkpt lat="45.63511" lon="6.8683">
        <ele>1924.5</ele>
        <time>2016-05-06T15:52:09Z</time>
      </trkpt>
      <trkpt lat="45.63511" lon="6.86831">
        <ele>1924.4</ele>
        <time>2016-05-06T15:52:11Z</time>
      </trkpt>
      <trkpt lat="45.63511" lon="6.86831">
        <ele>1924.4</ele>
        <time>2016-05-06T15:52:13Z</time>
      </trkpt>
      <trkpt lat="45.6351" lon="6.86831">
        <ele>1924.5</ele>
        <time>2016-05-06T15:52:15Z</time>
      </trkpt>
      <trkpt lat="45.63509" lon="6.86832">
        <ele>1924.6</ele>
        <time>2016-05-06T15:52:17Z</time>
      </trkpt>
      <trkpt lat="45.6351" lon="6.86832">
        <ele>1924.5</ele>
        <time>2016-05-06T15:52:19Z</time>
      </trkpt>
      <trkpt lat="45.63511" lon="6.86833">
        <ele>1924.7</ele>
        <time>2016-05-06T15:52:21Z</time>
      </trkpt>
      <trkpt lat="45.63513" lon="6.86834">
        <ele>1925</ele>
        <time>2016-05-06T15:52:23Z</time>
      </trkpt>
      <trkpt lat="45.63514" lon="6.86834">
        <ele>1925.2</ele>
        <time>2016-05-06T15:52:25Z</time>
      </trkpt>
      <trkpt lat="45.63516" lon="6.86836">
        <ele>1925.4</ele>
        <time>2016-05-06T15:52:27Z</time>
      </trkpt>
      <trkpt lat="45.63517" lon="6.86836">
        <ele>1925.4</ele>
        <time>2016-05-06T15:52:29Z</time>
      </trkpt>
      <trkpt lat="45.63519" lon="6.86836">
        <ele>1925.5</ele>
        <time>2016-05-06T15:52:31Z</time>
      </trkpt>
      <trkpt lat="45.63521" lon="6.86837">
        <ele>1925.5</ele>
        <time>2016-05-06T15:52:33Z</time>
      </trkpt>
      <trkpt lat="45.63522" lon="6.86838">
        <ele>1925.7</ele>
        <time>2016-05-06T15:52:35Z</time>
      </trkpt>
      <trkpt lat="45.63524" lon="6.86839">
        <ele>1925.8</ele>
        <time>2016-05-06T15:52:37Z</time>
      </trkpt>
      <trkpt lat="45.63525" lon="6.86839">
        <ele>1926</ele>
        <time>2016-05-06T15:52:39Z</time>
      </trkpt>
      <trkpt lat="45.63527" lon="6.86839">
        <ele>1926.1</ele>
        <time>2016-05-06T15:52:41Z</time>
      </trkpt>
      <trkpt lat="45.63529" lon="6.86839">
        <ele>1926.1</ele>
        <time>2016-05-06T15:52:43Z</time>
      </trkpt>
      <trkpt lat="45.63531" lon="6.86839">
        <ele>1926.3</ele>
        <time>2016-05-06T15:52:45Z</time>
      </trkpt>
      <trkpt lat="45.63532" lon="6.8684">
        <ele>1926.4</ele>
        <time>2016-05-06T15:52:47Z</time>
      </trkpt>
      <trkpt lat="45.63534" lon="6.8684">
        <ele>1926.6</ele>
        <time>2016-05-06T15:52:49Z</time>
      </trkpt>
      <trkpt lat="45.63536" lon="6.86841">
        <ele>1926.7</ele>
        <time>2016-05-06T15:52:51Z</time>
      </trkpt>
      <trkpt lat="45.63538" lon="6.86842">
        <ele>1926.7</ele>
        <time>2016-05-06T15:52:53Z</time>
      </trkpt>
      <trkpt lat="45.6354" lon="6.86843">
        <ele>1926.8</ele>
        <time>2016-05-06T15:52:55Z</time>
      </trkpt>
      <trkpt lat="45.63542" lon="6.86844">
        <ele>1927</ele>
        <time>2016-05-06T15:52:57Z</time>
      </trkpt>
      <trkpt lat="45.63544" lon="6.86845">
        <ele>1927</ele>
        <time>2016-05-06T15:52:59Z</time>
      </trkpt>
      <trkpt lat="45.63546" lon="6.86845">
        <ele>1927.1</ele>
        <time>2016-05-06T15:53:01Z</time>
      </trkpt>
      <trkpt lat="45.63547" lon="6.86845">
        <ele>1927.2</ele>
        <time>2016-05-06T15:53:03Z</time>
      </trkpt>
      <trkpt lat="45.63549" lon="6.86846">
        <ele>1927.3</ele>
        <time>2016-05-06T15:53:05Z</time>
      </trkpt>
      <trkpt lat="45.63551" lon="6.86847">
        <ele>1927.4</ele>
        <time>2016-05-06T15:53:07Z</time>
      </trkpt>
      <trkpt lat="45.63552" lon="6.86847">
        <ele>1927.6</ele>
        <time>2016-05-06T15:53:09Z</time>
      </trkpt>
      <trkpt lat="45.63554" lon="6.86848">
        <ele>1927.8</ele>
        <time>2016-05-06T15:53:11Z</time>
      </trkpt>
      <trkpt lat="45.63556" lon="6.86847">
        <ele>1927.8</ele>
        <time>2016-05-06T15:53:13Z</time>
      </trkpt>
      <trkpt lat="45.63558" lon="6.86847">
        <ele>1928</ele>
        <time>2016-05-06T15:53:15Z</time>
      </trkpt>
      <trkpt lat="45.63559" lon="6.86847">
        <ele>1928.1</ele>
        <time>2016-05-06T15:53:17Z</time>
      </trkpt>
      <trkpt lat="45.63561" lon="6.86847">
        <ele>1928.3</ele>
        <time>2016-05-06T15:53:19Z</time>
      </trkpt>
      <trkpt lat="45.63563" lon="6.86848">
        <ele>1928.5</ele>
        <time>2016-05-06T15:53:21Z</time>
      </trkpt>
      <trkpt lat="45.63565" lon="6.8685">
        <ele>1928.6</ele>
        <time>2016-05-06T15:53:23Z</time>
      </trkpt>
      <trkpt lat="45.63566" lon="6.86851">
        <ele>1928.7</ele>
        <time>2016-05-06T15:53:25Z</time>
      </trkpt>
      <trkpt lat="45.63568" lon="6.86853">
        <ele>1928.9</ele>
        <time>2016-05-06T15:53:27Z</time>
      </trkpt>
      <trkpt lat="45.63569" lon="6.86855">
        <ele>1928.9</ele>
        <time>2016-05-06T15:53:29Z</time>
      </trkpt>
      <trkpt lat="45.6357" lon="6.86857">
        <ele>1928.9</ele>
        <time>2016-05-06T15:53:31Z</time>
      </trkpt>
      <trkpt lat="45.63571" lon="6.86859">
        <ele>1928.9</ele>
        <time>2016-05-06T15:53:33Z</time>
      </trkpt>
      <trkpt lat="45.63571" lon="6.86861">
        <ele>1928.9</ele>
        <time>2016-05-06T15:53:35Z</time>
      </trkpt>
      <trkpt lat="45.63571" lon="6.86863">
        <ele>1929</ele>
        <time>2016-05-06T15:53:37Z</time>
      </trkpt>
      <trkpt lat="45.63571" lon="6.86866">
        <ele>1929.1</ele>
        <time>2016-05-06T15:53:39Z</time>
      </trkpt>
      <trkpt lat="45.63572" lon="6.86868">
        <ele>1929.3</ele>
        <time>2016-05-06T15:53:41Z</time>
      </trkpt>
      <trkpt lat="45.63572" lon="6.8687">
        <ele>1929.5</ele>
        <time>2016-05-06T15:53:43Z</time>
      </trkpt>
      <trkpt lat="45.63573" lon="6.86873">
        <ele>1929.7</ele>
        <time>2016-05-06T15:53:45Z</time>
      </trkpt>
      <trkpt lat="45.63574" lon="6.86875">
        <ele>1929.8</ele>
        <time>2016-05-06T15:53:47Z</time>
      </trkpt>
      <trkpt lat="45.63574" lon="6.86877">
        <ele>1929.9</ele>
        <time>2016-05-06T15:53:49Z</time>
      </trkpt>
      <trkpt lat="45.63575" lon="6.86879">
        <ele>1930.2</ele>
        <time>2016-05-06T15:53:51Z</time>
      </trkpt>
      <trkpt lat="45.63576" lon="6.86882">
        <ele>1930.4</ele>
        <time>2016-05-06T15:53:53Z</time>
      </trkpt>
      <trkpt lat="45.63576" lon="6.86884">
        <ele>1930.5</ele>
        <time>2016-05-06T15:53:55Z</time>
      </trkpt>
      <trkpt lat="45.63577" lon="6.86886">
        <ele>1930.6</ele>
        <time>2016-05-06T15:53:57Z</time>
      </trkpt>
      <trkpt lat="45.63577" lon="6.86888">
        <ele>1930.7</ele>
        <time>2016-05-06T15:53:59Z</time>
      </trkpt>
      <trkpt lat="45.63578" lon="6.86891">
        <ele>1930.7</ele>
        <time>2016-05-06T15:54:01Z</time>
      </trkpt>
      <trkpt lat="45.63578" lon="6.86892">
        <ele>1930.8</ele>
        <time>2016-05-06T15:54:03Z</time>
      </trkpt>
      <trkpt lat="45.63578" lon="6.86895">
        <ele>1931</ele>
        <time>2016-05-06T15:54:05Z</time>
      </trkpt>
      <trkpt lat="45.63579" lon="6.86897">
        <ele>1931.1</ele>
        <time>2016-05-06T15:54:07Z</time>
      </trkpt>
      <trkpt lat="45.63579" lon="6.869">
        <ele>1931.4</ele>
        <time>2016-05-06T15:54:09Z</time>
      </trkpt>
      <trkpt lat="45.6358" lon="6.86901">
        <ele>1931.7</ele>
        <time>2016-05-06T15:54:11Z</time>
      </trkpt>
      <trkpt lat="45.6358" lon="6.86903">
        <ele>1932</ele>
        <time>2016-05-06T15:54:13Z</time>
      </trkpt>
      <trkpt lat="45.63581" lon="6.86904">
        <ele>1932.1</ele>
        <time>2016-05-06T15:54:15Z</time>
      </trkpt>
      <trkpt lat="45.63582" lon="6.86906">
        <ele>1932.1</ele>
        <time>2016-05-06T15:54:17Z</time>
      </trkpt>
      <trkpt lat="45.63583" lon="6.86907">
        <ele>1932.2</ele>
        <time>2016-05-06T15:54:19Z</time>
      </trkpt>
      <trkpt lat="45.63583" lon="6.8691">
        <ele>1932.3</ele>
        <time>2016-05-06T15:54:21Z</time>
      </trkpt>
      <trkpt lat="45.63584" lon="6.86913">
        <ele>1932.6</ele>
        <time>2016-05-06T15:54:23Z</time>
      </trkpt>
      <trkpt lat="45.63584" lon="6.86915">
        <ele>1932.5</ele>
        <time>2016-05-06T15:54:25Z</time>
      </trkpt>
      <trkpt lat="45.63585" lon="6.86916">
        <ele>1932.7</ele>
        <time>2016-05-06T15:54:27Z</time>
      </trkpt>
      <trkpt lat="45.63586" lon="6.86919">
        <ele>1933</ele>
        <time>2016-05-06T15:54:29Z</time>
      </trkpt>
      <trkpt lat="45.63587" lon="6.86922">
        <ele>1933.1</ele>
        <time>2016-05-06T15:54:31Z</time>
      </trkpt>
      <trkpt lat="45.63587" lon="6.86924">
        <ele>1933.3</ele>
        <time>2016-05-06T15:54:33Z</time>
      </trkpt>
      <trkpt lat="45.63588" lon="6.86926">
        <ele>1933.3</ele>
        <time>2016-05-06T15:54:35Z</time>
      </trkpt>
      <trkpt lat="45.6359" lon="6.86928">
        <ele>1933.3</ele>
        <time>2016-05-06T15:54:37Z</time>
      </trkpt>
      <trkpt lat="45.63591" lon="6.86929">
        <ele>1933.4</ele>
        <time>2016-05-06T15:54:39Z</time>
      </trkpt>
      <trkpt lat="45.63592" lon="6.86931">
        <ele>1933.8</ele>
        <time>2016-05-06T15:54:41Z</time>
      </trkpt>
      <trkpt lat="45.63593" lon="6.86932">
        <ele>1934.1</ele>
        <time>2016-05-06T15:54:43Z</time>
      </trkpt>
      <trkpt lat="45.63595" lon="6.86933">
        <ele>1934.3</ele>
        <time>2016-05-06T15:54:45Z</time>
      </trkpt>
      <trkpt lat="45.63596" lon="6.86934">
        <ele>1934.6</ele>
        <time>2016-05-06T15:54:47Z</time>
      </trkpt>
      <trkpt lat="45.63598" lon="6.86934">
        <ele>1934.9</ele>
        <time>2016-05-06T15:54:49Z</time>
      </trkpt>
      <trkpt lat="45.636" lon="6.86935">
        <ele>1934.8</ele>
        <time>2016-05-06T15:54:51Z</time>
      </trkpt>
      <trkpt lat="45.63602" lon="6.86937">
        <ele>1934.9</ele>
        <time>2016-05-06T15:54:53Z</time>
      </trkpt>
      <trkpt lat="45.63603" lon="6.86939">
        <ele>1934.9</ele>
        <time>2016-05-06T15:54:55Z</time>
      </trkpt>
      <trkpt lat="45.63605" lon="6.8694">
        <ele>1935.1</ele>
        <time>2016-05-06T15:54:57Z</time>
      </trkpt>
      <trkpt lat="45.63607" lon="6.86941">
        <ele>1935.3</ele>
        <time>2016-05-06T15:54:59Z</time>
      </trkpt>
      <trkpt lat="45.63609" lon="6.86943">
        <ele>1935.5</ele>
        <time>2016-05-06T15:55:01Z</time>
      </trkpt>
      <trkpt lat="45.6361" lon="6.86943">
        <ele>1935.7</ele>
        <time>2016-05-06T15:55:03Z</time>
      </trkpt>
      <trkpt lat="45.63612" lon="6.86944">
        <ele>1935.9</ele>
        <time>2016-05-06T15:55:05Z</time>
      </trkpt>
      <trkpt lat="45.63614" lon="6.86945">
        <ele>1936.2</ele>
        <time>2016-05-06T15:55:07Z</time>
      </trkpt>
      <trkpt lat="45.63616" lon="6.86947">
        <ele>1936.3</ele>
        <time>2016-05-06T15:55:09Z</time>
      </trkpt>
      <trkpt lat="45.63617" lon="6.86947">
        <ele>1936.3</ele>
        <time>2016-05-06T15:55:11Z</time>
      </trkpt>
      <trkpt lat="45.63619" lon="6.86948">
        <ele>1936.5</ele>
        <time>2016-05-06T15:55:13Z</time>
      </trkpt>
      <trkpt lat="45.63621" lon="6.86948">
        <ele>1936.6</ele>
        <time>2016-05-06T15:55:15Z</time>
      </trkpt>
      <trkpt lat="45.63622" lon="6.86948">
        <ele>1936.6</ele>
        <time>2016-05-06T15:55:17Z</time>
      </trkpt>
      <trkpt lat="45.63624" lon="6.8695">
        <ele>1936.6</ele>
        <time>2016-05-06T15:55:19Z</time>
      </trkpt>
      <trkpt lat="45.63624" lon="6.86949">
        <ele>1936.7</ele>
        <time>2016-05-06T15:55:21Z</time>
      </trkpt>
      <trkpt lat="45.63624" lon="6.86949">
        <ele>1936.9</ele>
        <time>2016-05-06T15:55:23Z</time>
      </trkpt>
      <trkpt lat="45.63624" lon="6.86948">
        <ele>1936.9</ele>
        <time>2016-05-06T15:55:25Z</time>
      </trkpt>
      <trkpt lat="45.63625" lon="6.86948">
        <ele>1936.9</ele>
        <time>2016-05-06T15:55:27Z</time>
      </trkpt>
      <trkpt lat="45.63627" lon="6.86948">
        <ele>1936.9</ele>
        <time>2016-05-06T15:55:29Z</time>
      </trkpt>
      <trkpt lat="45.63628" lon="6.86948">
        <ele>1936.9</ele>
        <time>2016-05-06T15:55:31Z</time>
      </trkpt>
      <trkpt lat="45.63629" lon="6.86949">
        <ele>1937.2</ele>
        <time>2016-05-06T15:55:33Z</time>
      </trkpt>
      <trkpt lat="45.63631" lon="6.86949">
        <ele>1937.4</ele>
        <time>2016-05-06T15:55:35Z</time>
      </trkpt>
      <trkpt lat="45.63633" lon="6.8695">
        <ele>1937.6</ele>
        <time>2016-05-06T15:55:37Z</time>
      </trkpt>
      <trkpt lat="45.63634" lon="6.8695">
        <ele>1937.7</ele>
        <time>2016-05-06T15:55:39Z</time>
      </trkpt>
      <trkpt lat="45.63636" lon="6.8695">
        <ele>1937.9</ele>
        <time>2016-05-06T15:55:41Z</time>
      </trkpt>
      <trkpt lat="45.63638" lon="6.8695">
        <ele>1938</ele>
        <time>2016-05-06T15:55:43Z</time>
      </trkpt>
      <trkpt lat="45.6364" lon="6.8695">
        <ele>1938.1</ele>
        <time>2016-05-06T15:55:45Z</time>
      </trkpt>
      <trkpt lat="45.63641" lon="6.86949">
        <ele>1938.3</ele>
        <time>2016-05-06T15:55:47Z</time>
      </trkpt>
      <trkpt lat="45.63643" lon="6.8695">
        <ele>1938.4</ele>
        <time>2016-05-06T15:55:49Z</time>
      </trkpt>
      <trkpt lat="45.63645" lon="6.8695">
        <ele>1938.6</ele>
        <time>2016-05-06T15:55:51Z</time>
      </trkpt>
      <trkpt lat="45.63647" lon="6.86951">
        <ele>1938.6</ele>
        <time>2016-05-06T15:55:53Z</time>
      </trkpt>
      <trkpt lat="45.63649" lon="6.86952">
        <ele>1938.7</ele>
        <time>2016-05-06T15:55:55Z</time>
      </trkpt>
      <trkpt lat="45.63651" lon="6.86952">
        <ele>1938.9</ele>
        <time>2016-05-06T15:55:57Z</time>
      </trkpt>
      <trkpt lat="45.63653" lon="6.86952">
        <ele>1939.1</ele>
        <time>2016-05-06T15:55:59Z</time>
      </trkpt>
      <trkpt lat="45.63655" lon="6.86953">
        <ele>1939.1</ele>
        <time>2016-05-06T15:56:01Z</time>
      </trkpt>
      <trkpt lat="45.63657" lon="6.86954">
        <ele>1939.1</ele>
        <time>2016-05-06T15:56:03Z</time>
      </trkpt>
      <trkpt lat="45.63659" lon="6.86955">
        <ele>1939.2</ele>
        <time>2016-05-06T15:56:05Z</time>
      </trkpt>
      <trkpt lat="45.63661" lon="6.86955">
        <ele>1939.2</ele>
        <time>2016-05-06T15:56:07Z</time>
      </trkpt>
      <trkpt lat="45.63662" lon="6.86956">
        <ele>1939.4</ele>
        <time>2016-05-06T15:56:09Z</time>
      </trkpt>
      <trkpt lat="45.63664" lon="6.86955">
        <ele>1939.5</ele>
        <time>2016-05-06T15:56:11Z</time>
      </trkpt>
      <trkpt lat="45.63666" lon="6.86955">
        <ele>1939.7</ele>
        <time>2016-05-06T15:56:13Z</time>
      </trkpt>
      <trkpt lat="45.63668" lon="6.86955">
        <ele>1939.9</ele>
        <time>2016-05-06T15:56:15Z</time>
      </trkpt>
      <trkpt lat="45.63669" lon="6.86955">
        <ele>1940</ele>
        <time>2016-05-06T15:56:17Z</time>
      </trkpt>
      <trkpt lat="45.63671" lon="6.86956">
        <ele>1940.2</ele>
        <time>2016-05-06T15:56:19Z</time>
      </trkpt>
      <trkpt lat="45.63672" lon="6.86956">
        <ele>1940.3</ele>
        <time>2016-05-06T15:56:21Z</time>
      </trkpt>
      <trkpt lat="45.63674" lon="6.86957">
        <ele>1940.5</ele>
        <time>2016-05-06T15:56:23Z</time>
      </trkpt>
      <trkpt lat="45.63676" lon="6.86957">
        <ele>1940.8</ele>
        <time>2016-05-06T15:56:25Z</time>
      </trkpt>
      <trkpt lat="45.63677" lon="6.86958">
        <ele>1941</ele>
        <time>2016-05-06T15:56:27Z</time>
      </trkpt>
      <trkpt lat="45.63679" lon="6.86957">
        <ele>1941.2</ele>
        <time>2016-05-06T15:56:29Z</time>
      </trkpt>
      <trkpt lat="45.63681" lon="6.86958">
        <ele>1941.4</ele>
        <time>2016-05-06T15:56:31Z</time>
      </trkpt>
      <trkpt lat="45.63682" lon="6.86959">
        <ele>1941.5</ele>
        <time>2016-05-06T15:56:33Z</time>
      </trkpt>
      <trkpt lat="45.63684" lon="6.86959">
        <ele>1941.6</ele>
        <time>2016-05-06T15:56:35Z</time>
      </trkpt>
      <trkpt lat="45.63686" lon="6.86959">
        <ele>1941.7</ele>
        <time>2016-05-06T15:56:37Z</time>
      </trkpt>
      <trkpt lat="45.63687" lon="6.8696">
        <ele>1941.7</ele>
        <time>2016-05-06T15:56:39Z</time>
      </trkpt>
      <trkpt lat="45.63689" lon="6.8696">
        <ele>1941.8</ele>
        <time>2016-05-06T15:56:41Z</time>
      </trkpt>
      <trkpt lat="45.63691" lon="6.86962">
        <ele>1942</ele>
        <time>2016-05-06T15:56:43Z</time>
      </trkpt>
      <trkpt lat="45.63692" lon="6.86963">
        <ele>1942.1</ele>
        <time>2016-05-06T15:56:45Z</time>
      </trkpt>
      <trkpt lat="45.63694" lon="6.86963">
        <ele>1942.2</ele>
        <time>2016-05-06T15:56:47Z</time>
      </trkpt>
      <trkpt lat="45.63696" lon="6.86964">
        <ele>1942.4</ele>
        <time>2016-05-06T15:56:49Z</time>
      </trkpt>
      <trkpt lat="45.63696" lon="6.86964">
        <ele>1942.3</ele>
        <time>2016-05-06T15:56:51Z</time>
      </trkpt>
      <trkpt lat="45.63697" lon="6.86965">
        <ele>1942.6</ele>
        <time>2016-05-06T15:56:53Z</time>
      </trkpt>
      <trkpt lat="45.63699" lon="6.86965">
        <ele>1942.8</ele>
        <time>2016-05-06T15:56:55Z</time>
      </trkpt>
      <trkpt lat="45.63701" lon="6.86966">
        <ele>1942.9</ele>
        <time>2016-05-06T15:56:57Z</time>
      </trkpt>
      <trkpt lat="45.63703" lon="6.86966">
        <ele>1943</ele>
        <time>2016-05-06T15:56:59Z</time>
      </trkpt>
      <trkpt lat="45.63704" lon="6.86967">
        <ele>1943.2</ele>
        <time>2016-05-06T15:57:01Z</time>
      </trkpt>
      <trkpt lat="45.63706" lon="6.86968">
        <ele>1943.3</ele>
        <time>2016-05-06T15:57:03Z</time>
      </trkpt>
      <trkpt lat="45.63707" lon="6.86968">
        <ele>1943.3</ele>
        <time>2016-05-06T15:57:05Z</time>
      </trkpt>
      <trkpt lat="45.63708" lon="6.86969">
        <ele>1943.3</ele>
        <time>2016-05-06T15:57:07Z</time>
      </trkpt>
      <trkpt lat="45.6371" lon="6.8697">
        <ele>1943.4</ele>
        <time>2016-05-06T15:57:09Z</time>
      </trkpt>
      <trkpt lat="45.63711" lon="6.8697">
        <ele>1943.4</ele>
        <time>2016-05-06T15:57:11Z</time>
      </trkpt>
      <trkpt lat="45.63713" lon="6.8697">
        <ele>1943.7</ele>
        <time>2016-05-06T15:57:13Z</time>
      </trkpt>
      <trkpt lat="45.63715" lon="6.8697">
        <ele>1943.8</ele>
        <time>2016-05-06T15:57:15Z</time>
      </trkpt>
      <trkpt lat="45.63716" lon="6.8697">
        <ele>1943.8</ele>
        <time>2016-05-06T15:57:17Z</time>
      </trkpt>
      <trkpt lat="45.63718" lon="6.86971">
        <ele>1944</ele>
        <time>2016-05-06T15:57:19Z</time>
      </trkpt>
      <trkpt lat="45.6372" lon="6.8697">
        <ele>1944.2</ele>
        <time>2016-05-06T15:57:21Z</time>
      </trkpt>
      <trkpt lat="45.63721" lon="6.8697">
        <ele>1944.4</ele>
        <time>2016-05-06T15:57:23Z</time>
      </trkpt>
      <trkpt lat="45.63723" lon="6.86971">
        <ele>1944.5</ele>
        <time>2016-05-06T15:57:25Z</time>
      </trkpt>
      <trkpt lat="45.63725" lon="6.86972">
        <ele>1944.6</ele>
        <time>2016-05-06T15:57:27Z</time>
      </trkpt>
      <trkpt lat="45.63727" lon="6.86972">
        <ele>1944.8</ele>
        <time>2016-05-06T15:57:29Z</time>
      </trkpt>
      <trkpt lat="45.63729" lon="6.86973">
        <ele>1944.9</ele>
        <time>2016-05-06T15:57:31Z</time>
      </trkpt>
      <trkpt lat="45.6373" lon="6.86974">
        <ele>1945.1</ele>
        <time>2016-05-06T15:57:33Z</time>
      </trkpt>
      <trkpt lat="45.63731" lon="6.86975">
        <ele>1945.1</ele>
        <time>2016-05-06T15:57:35Z</time>
      </trkpt>
      <trkpt lat="45.6373" lon="6.86975">
        <ele>1945.2</ele>
        <time>2016-05-06T15:57:37Z</time>
      </trkpt>
      <trkpt lat="45.6373" lon="6.86974">
        <ele>1943.4</ele>
        <time>2016-05-06T15:57:39Z</time>
      </trkpt>
      <trkpt lat="45.6373" lon="6.86973">
        <ele>1944.3</ele>
        <time>2016-05-06T15:57:41Z</time>
      </trkpt>
      <trkpt lat="45.6373" lon="6.86974">
        <ele>1944.9</ele>
        <time>2016-05-06T15:57:43Z</time>
      </trkpt>
      <trkpt lat="45.6373" lon="6.86974">
        <ele>1945.2</ele>
        <time>2016-05-06T15:57:45Z</time>
      </trkpt>
      <trkpt lat="45.6373" lon="6.86974">
        <ele>1945.3</ele>
        <time>2016-05-06T15:57:47Z</time>
      </trkpt>
      <trkpt lat="45.63731" lon="6.86974">
        <ele>1945.4</ele>
        <time>2016-05-06T15:57:49Z</time>
      </trkpt>
      <trkpt lat="45.63731" lon="6.86974">
        <ele>1945.4</ele>
        <time>2016-05-06T15:57:51Z</time>
      </trkpt>
      <trkpt lat="45.63731" lon="6.86974">
        <ele>1945.4</ele>
        <time>2016-05-06T15:57:53Z</time>
      </trkpt>
      <trkpt lat="45.63731" lon="6.86973">
        <ele>1945.4</ele>
        <time>2016-05-06T15:57:55Z</time>
      </trkpt>
      <trkpt lat="45.63731" lon="6.86974">
        <ele>1945.6</ele>
        <time>2016-05-06T15:57:57Z</time>
      </trkpt>
      <trkpt lat="45.63732" lon="6.86974">
        <ele>1945.8</ele>
        <time>2016-05-06T15:57:59Z</time>
      </trkpt>
      <trkpt lat="45.63733" lon="6.86976">
        <ele>1945.9</ele>
        <time>2016-05-06T15:58:01Z</time>
      </trkpt>
      <trkpt lat="45.63734" lon="6.86976">
        <ele>1945.8</ele>
        <time>2016-05-06T15:58:03Z</time>
      </trkpt>
      <trkpt lat="45.63735" lon="6.86976">
        <ele>1945.8</ele>
        <time>2016-05-06T15:58:05Z</time>
      </trkpt>
      <trkpt lat="45.63737" lon="6.86975">
        <ele>1945.8</ele>
        <time>2016-05-06T15:58:07Z</time>
      </trkpt>
      <trkpt lat="45.63738" lon="6.86975">
        <ele>1945.9</ele>
        <time>2016-05-06T15:58:09Z</time>
      </trkpt>
      <trkpt lat="45.63739" lon="6.86976">
        <ele>1945.9</ele>
        <time>2016-05-06T15:58:11Z</time>
      </trkpt>
      <trkpt lat="45.63741" lon="6.86977">
        <ele>1946</ele>
        <time>2016-05-06T15:58:13Z</time>
      </trkpt>
      <trkpt lat="45.63742" lon="6.86977">
        <ele>1946.1</ele>
        <time>2016-05-06T15:58:15Z</time>
      </trkpt>
      <trkpt lat="45.63743" lon="6.86977">
        <ele>1946.3</ele>
        <time>2016-05-06T15:58:17Z</time>
      </trkpt>
      <trkpt lat="45.63744" lon="6.86977">
        <ele>1946.5</ele>
        <time>2016-05-06T15:58:19Z</time>
      </trkpt>
      <trkpt lat="45.63746" lon="6.86977">
        <ele>1946.6</ele>
        <time>2016-05-06T15:58:21Z</time>
      </trkpt>
      <trkpt lat="45.63747" lon="6.86976">
        <ele>1946.7</ele>
        <time>2016-05-06T15:58:23Z</time>
      </trkpt>
      <trkpt lat="45.63749" lon="6.86976">
        <ele>1946.8</ele>
        <time>2016-05-06T15:58:25Z</time>
      </trkpt>
      <trkpt lat="45.6375" lon="6.86976">
        <ele>1946.8</ele>
        <time>2016-05-06T15:58:27Z</time>
      </trkpt>
      <trkpt lat="45.63752" lon="6.86976">
        <ele>1947.3</ele>
        <time>2016-05-06T15:58:29Z</time>
      </trkpt>
      <trkpt lat="45.63753" lon="6.86976">
        <ele>1947.4</ele>
        <time>2016-05-06T15:58:31Z</time>
      </trkpt>
      <trkpt lat="45.63755" lon="6.86975">
        <ele>1947.3</ele>
        <time>2016-05-06T15:58:33Z</time>
      </trkpt>
      <trkpt lat="45.63756" lon="6.86976">
        <ele>1947.4</ele>
        <time>2016-05-06T15:58:35Z</time>
      </trkpt>
      <trkpt lat="45.63758" lon="6.86975">
        <ele>1947.4</ele>
        <time>2016-05-06T15:58:37Z</time>
      </trkpt>
      <trkpt lat="45.63759" lon="6.86975">
        <ele>1947.5</ele>
        <time>2016-05-06T15:58:39Z</time>
      </trkpt>
      <trkpt lat="45.63761" lon="6.86975">
        <ele>1947.5</ele>
        <time>2016-05-06T15:58:41Z</time>
      </trkpt>
      <trkpt lat="45.63763" lon="6.86975">
        <ele>1947.6</ele>
        <time>2016-05-06T15:58:43Z</time>
      </trkpt>
      <trkpt lat="45.63764" lon="6.86976">
        <ele>1947.8</ele>
        <time>2016-05-06T15:58:45Z</time>
      </trkpt>
      <trkpt lat="45.63766" lon="6.86976">
        <ele>1948</ele>
        <time>2016-05-06T15:58:47Z</time>
      </trkpt>
      <trkpt lat="45.63767" lon="6.86976">
        <ele>1948.1</ele>
        <time>2016-05-06T15:58:49Z</time>
      </trkpt>
      <trkpt lat="45.63768" lon="6.86975">
        <ele>1948.3</ele>
        <time>2016-05-06T15:58:51Z</time>
      </trkpt>
      <trkpt lat="45.6377" lon="6.86975">
        <ele>1948.3</ele>
        <time>2016-05-06T15:58:53Z</time>
      </trkpt>
      <trkpt lat="45.63772" lon="6.86974">
        <ele>1948.4</ele>
        <time>2016-05-06T15:58:55Z</time>
      </trkpt>
      <trkpt lat="45.63774" lon="6.86974">
        <ele>1948.5</ele>
        <time>2016-05-06T15:58:57Z</time>
      </trkpt>
      <trkpt lat="45.63776" lon="6.86975">
        <ele>1948.7</ele>
        <time>2016-05-06T15:58:59Z</time>
      </trkpt>
      <trkpt lat="45.63777" lon="6.86974">
        <ele>1948.8</ele>
        <time>2016-05-06T15:59:01Z</time>
      </trkpt>
      <trkpt lat="45.63779" lon="6.86973">
        <ele>1948.9</ele>
        <time>2016-05-06T15:59:03Z</time>
      </trkpt>
      <trkpt lat="45.63781" lon="6.86973">
        <ele>1949.2</ele>
        <time>2016-05-06T15:59:05Z</time>
      </trkpt>
      <trkpt lat="45.63782" lon="6.86971">
        <ele>1949.4</ele>
        <time>2016-05-06T15:59:07Z</time>
      </trkpt>
      <trkpt lat="45.63784" lon="6.86971">
        <ele>1949.5</ele>
        <time>2016-05-06T15:59:09Z</time>
      </trkpt>
      <trkpt lat="45.63786" lon="6.8697">
        <ele>1949.6</ele>
        <time>2016-05-06T15:59:11Z</time>
      </trkpt>
      <trkpt lat="45.63787" lon="6.86969">
        <ele>1949.7</ele>
        <time>2016-05-06T15:59:13Z</time>
      </trkpt>
      <trkpt lat="45.63789" lon="6.86969">
        <ele>1949.7</ele>
        <time>2016-05-06T15:59:15Z</time>
      </trkpt>
      <trkpt lat="45.63791" lon="6.86969">
        <ele>1949.9</ele>
        <time>2016-05-06T15:59:17Z</time>
      </trkpt>
      <trkpt lat="45.63792" lon="6.86969">
        <ele>1950.1</ele>
        <time>2016-05-06T15:59:19Z</time>
      </trkpt>
      <trkpt lat="45.63794" lon="6.86969">
        <ele>1950.1</ele>
        <time>2016-05-06T15:59:21Z</time>
      </trkpt>
      <trkpt lat="45.63795" lon="6.86969">
        <ele>1950.2</ele>
        <time>2016-05-06T15:59:23Z</time>
      </trkpt>
      <trkpt lat="45.63797" lon="6.8697">
        <ele>1950.4</ele>
        <time>2016-05-06T15:59:25Z</time>
      </trkpt>
      <trkpt lat="45.63798" lon="6.8697">
        <ele>1950.6</ele>
        <time>2016-05-06T15:59:27Z</time>
      </trkpt>
      <trkpt lat="45.63799" lon="6.86972">
        <ele>1950.6</ele>
        <time>2016-05-06T15:59:29Z</time>
      </trkpt>
      <trkpt lat="45.638" lon="6.86974">
        <ele>1950.6</ele>
        <time>2016-05-06T15:59:31Z</time>
      </trkpt>
      <trkpt lat="45.63801" lon="6.86974">
        <ele>1950.7</ele>
        <time>2016-05-06T15:59:33Z</time>
      </trkpt>
      <trkpt lat="45.63802" lon="6.86976">
        <ele>1950.7</ele>
        <time>2016-05-06T15:59:35Z</time>
      </trkpt>
      <trkpt lat="45.63803" lon="6.86977">
        <ele>1950.7</ele>
        <time>2016-05-06T15:59:37Z</time>
      </trkpt>
      <trkpt lat="45.63804" lon="6.86978">
        <ele>1950.9</ele>
        <time>2016-05-06T15:59:39Z</time>
      </trkpt>
      <trkpt lat="45.63804" lon="6.86977">
        <ele>1951</ele>
        <time>2016-05-06T15:59:41Z</time>
      </trkpt>
      <trkpt lat="45.63804" lon="6.86978">
        <ele>1951.1</ele>
        <time>2016-05-06T15:59:43Z</time>
      </trkpt>
      <trkpt lat="45.63804" lon="6.86979">
        <ele>1950.9</ele>
        <time>2016-05-06T15:59:45Z</time>
      </trkpt>
      <trkpt lat="45.63804" lon="6.86977">
        <ele>1951</ele>
        <time>2016-05-06T15:59:47Z</time>
      </trkpt>
      <trkpt lat="45.63804" lon="6.86977">
        <ele>1950.3</ele>
        <time>2016-05-06T15:59:49Z</time>
      </trkpt>
      <trkpt lat="45.63804" lon="6.86976">
        <ele>1950.4</ele>
        <time>2016-05-06T15:59:51Z</time>
      </trkpt>
      <trkpt lat="45.63804" lon="6.86976">
        <ele>1951</ele>
        <time>2016-05-06T15:59:53Z</time>
      </trkpt>
      <trkpt lat="45.63805" lon="6.86977">
        <ele>1951.6</ele>
        <time>2016-05-06T15:59:55Z</time>
      </trkpt>
      <trkpt lat="45.63806" lon="6.86978">
        <ele>1951.6</ele>
        <time>2016-05-06T15:59:57Z</time>
      </trkpt>
      <trkpt lat="45.63808" lon="6.86978">
        <ele>1951.5</ele>
        <time>2016-05-06T15:59:59Z</time>
      </trkpt>
      <trkpt lat="45.63809" lon="6.8698">
        <ele>1951.6</ele>
        <time>2016-05-06T16:00:01Z</time>
      </trkpt>
      <trkpt lat="45.63811" lon="6.86981">
        <ele>1951.8</ele>
        <time>2016-05-06T16:00:03Z</time>
      </trkpt>
      <trkpt lat="45.63812" lon="6.86982">
        <ele>1951.7</ele>
        <time>2016-05-06T16:00:05Z</time>
      </trkpt>
      <trkpt lat="45.63814" lon="6.86983">
        <ele>1951.7</ele>
        <time>2016-05-06T16:00:07Z</time>
      </trkpt>
      <trkpt lat="45.63815" lon="6.86985">
        <ele>1951.8</ele>
        <time>2016-05-06T16:00:09Z</time>
      </trkpt>
      <trkpt lat="45.63816" lon="6.86987">
        <ele>1952.1</ele>
        <time>2016-05-06T16:00:11Z</time>
      </trkpt>
      <trkpt lat="45.63817" lon="6.86989">
        <ele>1952.1</ele>
        <time>2016-05-06T16:00:13Z</time>
      </trkpt>
      <trkpt lat="45.63819" lon="6.86991">
        <ele>1952.3</ele>
        <time>2016-05-06T16:00:15Z</time>
      </trkpt>
      <trkpt lat="45.6382" lon="6.86991">
        <ele>1952.3</ele>
        <time>2016-05-06T16:00:17Z</time>
      </trkpt>
      <trkpt lat="45.63822" lon="6.86993">
        <ele>1952.5</ele>
        <time>2016-05-06T16:00:19Z</time>
      </trkpt>
      <trkpt lat="45.63824" lon="6.86994">
        <ele>1952.7</ele>
        <time>2016-05-06T16:00:21Z</time>
      </trkpt>
      <trkpt lat="45.63825" lon="6.86995">
        <ele>1952.9</ele>
        <time>2016-05-06T16:00:23Z</time>
      </trkpt>
      <trkpt lat="45.63827" lon="6.86997">
        <ele>1952.9</ele>
        <time>2016-05-06T16:00:25Z</time>
      </trkpt>
      <trkpt lat="45.63828" lon="6.86999">
        <ele>1953.1</ele>
        <time>2016-05-06T16:00:27Z</time>
      </trkpt>
      <trkpt lat="45.6383" lon="6.87">
        <ele>1953.2</ele>
        <time>2016-05-06T16:00:29Z</time>
      </trkpt>
      <trkpt lat="45.63831" lon="6.87001">
        <ele>1953.4</ele>
        <time>2016-05-06T16:00:31Z</time>
      </trkpt>
      <trkpt lat="45.63833" lon="6.87002">
        <ele>1953.7</ele>
        <time>2016-05-06T16:00:33Z</time>
      </trkpt>
      <trkpt lat="45.63835" lon="6.87003">
        <ele>1953.9</ele>
        <time>2016-05-06T16:00:35Z</time>
      </trkpt>
      <trkpt lat="45.63837" lon="6.87004">
        <ele>1954</ele>
        <time>2016-05-06T16:00:37Z</time>
      </trkpt>
      <trkpt lat="45.63838" lon="6.87005">
        <ele>1954.2</ele>
        <time>2016-05-06T16:00:39Z</time>
      </trkpt>
      <trkpt lat="45.6384" lon="6.87006">
        <ele>1954.4</ele>
        <time>2016-05-06T16:00:41Z</time>
      </trkpt>
      <trkpt lat="45.63842" lon="6.87007">
        <ele>1954.5</ele>
        <time>2016-05-06T16:00:43Z</time>
      </trkpt>
      <trkpt lat="45.63843" lon="6.87008">
        <ele>1954.6</ele>
        <time>2016-05-06T16:00:45Z</time>
      </trkpt>
      <trkpt lat="45.63845" lon="6.87009">
        <ele>1954.7</ele>
        <time>2016-05-06T16:00:47Z</time>
      </trkpt>
      <trkpt lat="45.63846" lon="6.8701">
        <ele>1954.8</ele>
        <time>2016-05-06T16:00:49Z</time>
      </trkpt>
      <trkpt lat="45.63848" lon="6.87011">
        <ele>1954.8</ele>
        <time>2016-05-06T16:00:51Z</time>
      </trkpt>
      <trkpt lat="45.63849" lon="6.87012">
        <ele>1955.1</ele>
        <time>2016-05-06T16:00:53Z</time>
      </trkpt>
      <trkpt lat="45.63851" lon="6.87012">
        <ele>1955.2</ele>
        <time>2016-05-06T16:00:55Z</time>
      </trkpt>
      <trkpt lat="45.63853" lon="6.87013">
        <ele>1955.3</ele>
        <time>2016-05-06T16:00:57Z</time>
      </trkpt>
      <trkpt lat="45.63855" lon="6.87013">
        <ele>1955.4</ele>
        <time>2016-05-06T16:00:59Z</time>
      </trkpt>
      <trkpt lat="45.63856" lon="6.87013">
        <ele>1955.6</ele>
        <time>2016-05-06T16:01:01Z</time>
      </trkpt>
      <trkpt lat="45.63858" lon="6.87013">
        <ele>1955.8</ele>
        <time>2016-05-06T16:01:03Z</time>
      </trkpt>
      <trkpt lat="45.6386" lon="6.87012">
        <ele>1956</ele>
        <time>2016-05-06T16:01:05Z</time>
      </trkpt>
      <trkpt lat="45.63861" lon="6.87013">
        <ele>1956.2</ele>
        <time>2016-05-06T16:01:07Z</time>
      </trkpt>
      <trkpt lat="45.63863" lon="6.87014">
        <ele>1956.3</ele>
        <time>2016-05-06T16:01:09Z</time>
      </trkpt>
      <trkpt lat="45.63864" lon="6.87014">
        <ele>1956.5</ele>
        <time>2016-05-06T16:01:11Z</time>
      </trkpt>
      <trkpt lat="45.63866" lon="6.87014">
        <ele>1956.7</ele>
        <time>2016-05-06T16:01:13Z</time>
      </trkpt>
      <trkpt lat="45.63868" lon="6.87014">
        <ele>1956.9</ele>
        <time>2016-05-06T16:01:15Z</time>
      </trkpt>
      <trkpt lat="45.63869" lon="6.87014">
        <ele>1957.1</ele>
        <time>2016-05-06T16:01:17Z</time>
      </trkpt>
      <trkpt lat="45.63871" lon="6.87016">
        <ele>1957.3</ele>
        <time>2016-05-06T16:01:19Z</time>
      </trkpt>
      <trkpt lat="45.63873" lon="6.87016">
        <ele>1957.4</ele>
        <time>2016-05-06T16:01:21Z</time>
      </trkpt>
      <trkpt lat="45.63874" lon="6.87016">
        <ele>1957.4</ele>
        <time>2016-05-06T16:01:23Z</time>
      </trkpt>
      <trkpt lat="45.63875" lon="6.87016">
        <ele>1957.1</ele>
        <time>2016-05-06T16:01:25Z</time>
      </trkpt>
      <trkpt lat="45.63875" lon="6.87016">
        <ele>1957.2</ele>
        <time>2016-05-06T16:01:27Z</time>
      </trkpt>
      <trkpt lat="45.63874" lon="6.87015">
        <ele>1957.6</ele>
        <time>2016-05-06T16:01:29Z</time>
      </trkpt>
      <trkpt lat="45.63875" lon="6.87012">
        <ele>1957.6</ele>
        <time>2016-05-06T16:01:31Z</time>
      </trkpt>
      <trkpt lat="45.63875" lon="6.87009">
        <ele>1957.6</ele>
        <time>2016-05-06T16:01:33Z</time>
      </trkpt>
      <trkpt lat="45.63876" lon="6.87009">
        <ele>1957.5</ele>
        <time>2016-05-06T16:01:35Z</time>
      </trkpt>
      <trkpt lat="45.63877" lon="6.8701">
        <ele>1957.5</ele>
        <time>2016-05-06T16:01:37Z</time>
      </trkpt>
      <trkpt lat="45.63878" lon="6.87011">
        <ele>1957.7</ele>
        <time>2016-05-06T16:01:39Z</time>
      </trkpt>
      <trkpt lat="45.63879" lon="6.87012">
        <ele>1957.9</ele>
        <time>2016-05-06T16:01:41Z</time>
      </trkpt>
      <trkpt lat="45.63881" lon="6.87014">
        <ele>1958</ele>
        <time>2016-05-06T16:01:43Z</time>
      </trkpt>
      <trkpt lat="45.63882" lon="6.87015">
        <ele>1958.1</ele>
        <time>2016-05-06T16:01:45Z</time>
      </trkpt>
      <trkpt lat="45.63883" lon="6.87016">
        <ele>1958.2</ele>
        <time>2016-05-06T16:01:47Z</time>
      </trkpt>
      <trkpt lat="45.63885" lon="6.87016">
        <ele>1958.3</ele>
        <time>2016-05-06T16:01:49Z</time>
      </trkpt>
      <trkpt lat="45.63886" lon="6.87018">
        <ele>1958.3</ele>
        <time>2016-05-06T16:01:51Z</time>
      </trkpt>
      <trkpt lat="45.63888" lon="6.87018">
        <ele>1958.5</ele>
        <time>2016-05-06T16:01:53Z</time>
      </trkpt>
      <trkpt lat="45.6389" lon="6.87018">
        <ele>1958.6</ele>
        <time>2016-05-06T16:01:55Z</time>
      </trkpt>
      <trkpt lat="45.63891" lon="6.87019">
        <ele>1958.7</ele>
        <time>2016-05-06T16:01:57Z</time>
      </trkpt>
      <trkpt lat="45.63892" lon="6.8702">
        <ele>1958.8</ele>
        <time>2016-05-06T16:01:59Z</time>
      </trkpt>
      <trkpt lat="45.63893" lon="6.87022">
        <ele>1958.9</ele>
        <time>2016-05-06T16:02:01Z</time>
      </trkpt>
      <trkpt lat="45.63894" lon="6.87023">
        <ele>1959</ele>
        <time>2016-05-06T16:02:03Z</time>
      </trkpt>
      <trkpt lat="45.63895" lon="6.87025">
        <ele>1959.2</ele>
        <time>2016-05-06T16:02:05Z</time>
      </trkpt>
      <trkpt lat="45.63896" lon="6.87026">
        <ele>1959.5</ele>
        <time>2016-05-06T16:02:07Z</time>
      </trkpt>
      <trkpt lat="45.63897" lon="6.87028">
        <ele>1959.7</ele>
        <time>2016-05-06T16:02:09Z</time>
      </trkpt>
      <trkpt lat="45.63899" lon="6.87029">
        <ele>1959.8</ele>
        <time>2016-05-06T16:02:11Z</time>
      </trkpt>
      <trkpt lat="45.639" lon="6.87031">
        <ele>1960</ele>
        <time>2016-05-06T16:02:13Z</time>
      </trkpt>
      <trkpt lat="45.63901" lon="6.87033">
        <ele>1960</ele>
        <time>2016-05-06T16:02:15Z</time>
      </trkpt>
      <trkpt lat="45.63902" lon="6.87034">
        <ele>1960.2</ele>
        <time>2016-05-06T16:02:17Z</time>
      </trkpt>
      <trkpt lat="45.63904" lon="6.87035">
        <ele>1960.3</ele>
        <time>2016-05-06T16:02:19Z</time>
      </trkpt>
      <trkpt lat="45.63905" lon="6.87036">
        <ele>1960.6</ele>
        <time>2016-05-06T16:02:21Z</time>
      </trkpt>
      <trkpt lat="45.63906" lon="6.87038">
        <ele>1960.9</ele>
        <time>2016-05-06T16:02:23Z</time>
      </trkpt>
      <trkpt lat="45.63907" lon="6.8704">
        <ele>1961.1</ele>
        <time>2016-05-06T16:02:25Z</time>
      </trkpt>
      <trkpt lat="45.63908" lon="6.87042">
        <ele>1961.3</ele>
        <time>2016-05-06T16:02:27Z</time>
      </trkpt>
      <trkpt lat="45.63909" lon="6.87044">
        <ele>1961.4</ele>
        <time>2016-05-06T16:02:29Z</time>
      </trkpt>
      <trkpt lat="45.63909" lon="6.87046">
        <ele>1961.6</ele>
        <time>2016-05-06T16:02:31Z</time>
      </trkpt>
      <trkpt lat="45.6391" lon="6.87048">
        <ele>1961.6</ele>
        <time>2016-05-06T16:02:33Z</time>
      </trkpt>
      <trkpt lat="45.63911" lon="6.87049">
        <ele>1961.7</ele>
        <time>2016-05-06T16:02:35Z</time>
      </trkpt>
      <trkpt lat="45.63912" lon="6.87051">
        <ele>1961.9</ele>
        <time>2016-05-06T16:02:37Z</time>
      </trkpt>
      <trkpt lat="45.63913" lon="6.87053">
        <ele>1962</ele>
        <time>2016-05-06T16:02:39Z</time>
      </trkpt>
      <trkpt lat="45.63913" lon="6.87055">
        <ele>1962.2</ele>
        <time>2016-05-06T16:02:41Z</time>
      </trkpt>
      <trkpt lat="45.63914" lon="6.87058">
        <ele>1962.4</ele>
        <time>2016-05-06T16:02:43Z</time>
      </trkpt>
      <trkpt lat="45.63915" lon="6.8706">
        <ele>1962.6</ele>
        <time>2016-05-06T16:02:45Z</time>
      </trkpt>
      <trkpt lat="45.63916" lon="6.87062">
        <ele>1962.7</ele>
        <time>2016-05-06T16:02:47Z</time>
      </trkpt>
      <trkpt lat="45.63918" lon="6.87065">
        <ele>1962.8</ele>
        <time>2016-05-06T16:02:49Z</time>
      </trkpt>
      <trkpt lat="45.63919" lon="6.87067">
        <ele>1962.9</ele>
        <time>2016-05-06T16:02:51Z</time>
      </trkpt>
      <trkpt lat="45.6392" lon="6.87068">
        <ele>1963.1</ele>
        <time>2016-05-06T16:02:53Z</time>
      </trkpt>
      <trkpt lat="45.63921" lon="6.8707">
        <ele>1963.1</ele>
        <time>2016-05-06T16:02:55Z</time>
      </trkpt>
      <trkpt lat="45.63922" lon="6.87073">
        <ele>1963.3</ele>
        <time>2016-05-06T16:02:57Z</time>
      </trkpt>
      <trkpt lat="45.63922" lon="6.87075">
        <ele>1963.5</ele>
        <time>2016-05-06T16:02:59Z</time>
      </trkpt>
      <trkpt lat="45.63923" lon="6.87077">
        <ele>1963.5</ele>
        <time>2016-05-06T16:03:01Z</time>
      </trkpt>
      <trkpt lat="45.63924" lon="6.87078">
        <ele>1963.7</ele>
        <time>2016-05-06T16:03:03Z</time>
      </trkpt>
      <trkpt lat="45.63925" lon="6.8708">
        <ele>1963.9</ele>
        <time>2016-05-06T16:03:05Z</time>
      </trkpt>
      <trkpt lat="45.63926" lon="6.8708">
        <ele>1964.2</ele>
        <time>2016-05-06T16:03:07Z</time>
      </trkpt>
      <trkpt lat="45.63927" lon="6.87082">
        <ele>1964.3</ele>
        <time>2016-05-06T16:03:09Z</time>
      </trkpt>
      <trkpt lat="45.63928" lon="6.87084">
        <ele>1964.5</ele>
        <time>2016-05-06T16:03:11Z</time>
      </trkpt>
      <trkpt lat="45.6393" lon="6.87086">
        <ele>1964.5</ele>
        <time>2016-05-06T16:03:13Z</time>
      </trkpt>
      <trkpt lat="45.63931" lon="6.87088">
        <ele>1964.7</ele>
        <time>2016-05-06T16:03:15Z</time>
      </trkpt>
      <trkpt lat="45.63931" lon="6.87089">
        <ele>1964.3</ele>
        <time>2016-05-06T16:03:17Z</time>
      </trkpt>
      <trkpt lat="45.63931" lon="6.87088">
        <ele>1964.4</ele>
        <time>2016-05-06T16:03:19Z</time>
      </trkpt>
      <trkpt lat="45.63931" lon="6.87089">
        <ele>1965.1</ele>
        <time>2016-05-06T16:03:21Z</time>
      </trkpt>
      <trkpt lat="45.63932" lon="6.8709">
        <ele>1965.4</ele>
        <time>2016-05-06T16:03:23Z</time>
      </trkpt>
      <trkpt lat="45.63933" lon="6.87093">
        <ele>1965.5</ele>
        <time>2016-05-06T16:03:25Z</time>
      </trkpt>
      <trkpt lat="45.63934" lon="6.87095">
        <ele>1965.6</ele>
        <time>2016-05-06T16:03:27Z</time>
      </trkpt>
      <trkpt lat="45.63935" lon="6.87097">
        <ele>1965.8</ele>
        <time>2016-05-06T16:03:29Z</time>
      </trkpt>
      <trkpt lat="45.63936" lon="6.87098">
        <ele>1965.9</ele>
        <time>2016-05-06T16:03:31Z</time>
      </trkpt>
      <trkpt lat="45.63937" lon="6.87099">
        <ele>1966</ele>
        <time>2016-05-06T16:03:33Z</time>
      </trkpt>
      <trkpt lat="45.63938" lon="6.87101">
        <ele>1966.2</ele>
        <time>2016-05-06T16:03:35Z</time>
      </trkpt>
      <trkpt lat="45.6394" lon="6.87103">
        <ele>1966.2</ele>
        <time>2016-05-06T16:03:37Z</time>
      </trkpt>
      <trkpt lat="45.63941" lon="6.87105">
        <ele>1966.5</ele>
        <time>2016-05-06T16:03:39Z</time>
      </trkpt>
      <trkpt lat="45.63942" lon="6.87106">
        <ele>1966.7</ele>
        <time>2016-05-06T16:03:41Z</time>
      </trkpt>
      <trkpt lat="45.63944" lon="6.87107">
        <ele>1966.9</ele>
        <time>2016-05-06T16:03:43Z</time>
      </trkpt>
      <trkpt lat="45.63945" lon="6.87108">
        <ele>1967</ele>
        <time>2016-05-06T16:03:45Z</time>
      </trkpt>
      <trkpt lat="45.63947" lon="6.8711">
        <ele>1967.1</ele>
        <time>2016-05-06T16:03:47Z</time>
      </trkpt>
      <trkpt lat="45.63948" lon="6.87112">
        <ele>1967.2</ele>
        <time>2016-05-06T16:03:49Z</time>
      </trkpt>
      <trkpt lat="45.6395" lon="6.87113">
        <ele>1967.3</ele>
        <time>2016-05-06T16:03:51Z</time>
      </trkpt>
      <trkpt lat="45.63951" lon="6.87114">
        <ele>1967.6</ele>
        <time>2016-05-06T16:03:53Z</time>
      </trkpt>
      <trkpt lat="45.63952" lon="6.87115">
        <ele>1967.9</ele>
        <time>2016-05-06T16:03:55Z</time>
      </trkpt>
      <trkpt lat="45.63954" lon="6.87116">
        <ele>1967.9</ele>
        <time>2016-05-06T16:03:57Z</time>
      </trkpt>
      <trkpt lat="45.63955" lon="6.87117">
        <ele>1968.1</ele>
        <time>2016-05-06T16:03:59Z</time>
      </trkpt>
      <trkpt lat="45.63957" lon="6.87118">
        <ele>1968.1</ele>
        <time>2016-05-06T16:04:01Z</time>
      </trkpt>
      <trkpt lat="45.63959" lon="6.8712">
        <ele>1968.1</ele>
        <time>2016-05-06T16:04:03Z</time>
      </trkpt>
      <trkpt lat="45.6396" lon="6.87121">
        <ele>1968.2</ele>
        <time>2016-05-06T16:04:05Z</time>
      </trkpt>
      <trkpt lat="45.63962" lon="6.87122">
        <ele>1968.2</ele>
        <time>2016-05-06T16:04:07Z</time>
      </trkpt>
      <trkpt lat="45.63964" lon="6.87123">
        <ele>1968.5</ele>
        <time>2016-05-06T16:04:09Z</time>
      </trkpt>
      <trkpt lat="45.63965" lon="6.87124">
        <ele>1968.7</ele>
        <time>2016-05-06T16:04:11Z</time>
      </trkpt>
      <trkpt lat="45.63967" lon="6.87125">
        <ele>1968.9</ele>
        <time>2016-05-06T16:04:13Z</time>
      </trkpt>
      <trkpt lat="45.63969" lon="6.87126">
        <ele>1969.2</ele>
        <time>2016-05-06T16:04:15Z</time>
      </trkpt>
      <trkpt lat="45.63971" lon="6.87127">
        <ele>1969.3</ele>
        <time>2016-05-06T16:04:17Z</time>
      </trkpt>
      <trkpt lat="45.63973" lon="6.87128">
        <ele>1969.5</ele>
        <time>2016-05-06T16:04:19Z</time>
      </trkpt>
      <trkpt lat="45.63974" lon="6.87128">
        <ele>1969.6</ele>
        <time>2016-05-06T16:04:21Z</time>
      </trkpt>
      <trkpt lat="45.63976" lon="6.87129">
        <ele>1969.7</ele>
        <time>2016-05-06T16:04:23Z</time>
      </trkpt>
      <trkpt lat="45.63978" lon="6.87129">
        <ele>1969.7</ele>
        <time>2016-05-06T16:04:25Z</time>
      </trkpt>
      <trkpt lat="45.6398" lon="6.87129">
        <ele>1969.8</ele>
        <time>2016-05-06T16:04:27Z</time>
      </trkpt>
      <trkpt lat="45.63982" lon="6.8713">
        <ele>1970</ele>
        <time>2016-05-06T16:04:29Z</time>
      </trkpt>
      <trkpt lat="45.63984" lon="6.87129">
        <ele>1970.1</ele>
        <time>2016-05-06T16:04:31Z</time>
      </trkpt>
      <trkpt lat="45.63986" lon="6.87129">
        <ele>1970.1</ele>
        <time>2016-05-06T16:04:33Z</time>
      </trkpt>
      <trkpt lat="45.63987" lon="6.87129">
        <ele>1970.2</ele>
        <time>2016-05-06T16:04:35Z</time>
      </trkpt>
      <trkpt lat="45.63989" lon="6.87129">
        <ele>1970.3</ele>
        <time>2016-05-06T16:04:37Z</time>
      </trkpt>
      <trkpt lat="45.63992" lon="6.87129">
        <ele>1970.4</ele>
        <time>2016-05-06T16:04:39Z</time>
      </trkpt>
      <trkpt lat="45.63994" lon="6.87129">
        <ele>1970.6</ele>
        <time>2016-05-06T16:04:41Z</time>
      </trkpt>
      <trkpt lat="45.63995" lon="6.87129">
        <ele>1970.7</ele>
        <time>2016-05-06T16:04:43Z</time>
      </trkpt>
      <trkpt lat="45.63998" lon="6.87129">
        <ele>1970.9</ele>
        <time>2016-05-06T16:04:45Z</time>
      </trkpt>
      <trkpt lat="45.64" lon="6.87128">
        <ele>1971</ele>
        <time>2016-05-06T16:04:47Z</time>
      </trkpt>
      <trkpt lat="45.64002" lon="6.87128">
        <ele>1971.3</ele>
        <time>2016-05-06T16:04:49Z</time>
      </trkpt>
      <trkpt lat="45.64003" lon="6.87128">
        <ele>1971.4</ele>
        <time>2016-05-06T16:04:51Z</time>
      </trkpt>
      <trkpt lat="45.64005" lon="6.87127">
        <ele>1971.5</ele>
        <time>2016-05-06T16:04:53Z</time>
      </trkpt>
      <trkpt lat="45.64007" lon="6.87127">
        <ele>1971.6</ele>
        <time>2016-05-06T16:04:55Z</time>
      </trkpt>
      <trkpt lat="45.64009" lon="6.87127">
        <ele>1971.9</ele>
        <time>2016-05-06T16:04:57Z</time>
      </trkpt>
      <trkpt lat="45.6401" lon="6.87127">
        <ele>1972.1</ele>
        <time>2016-05-06T16:04:59Z</time>
      </trkpt>
      <trkpt lat="45.6401" lon="6.87127">
        <ele>1972.1</ele>
        <time>2016-05-06T16:05:01Z</time>
      </trkpt>
      <trkpt lat="45.6401" lon="6.87127">
        <ele>1972.2</ele>
        <time>2016-05-06T16:05:03Z</time>
      </trkpt>
      <trkpt lat="45.6401" lon="6.87127">
        <ele>1972.2</ele>
        <time>2016-05-06T16:05:05Z</time>
      </trkpt>
      <trkpt lat="45.64009" lon="6.87127">
        <ele>1972.2</ele>
        <time>2016-05-06T16:05:07Z</time>
      </trkpt>
      <trkpt lat="45.64011" lon="6.87127">
        <ele>1972.2</ele>
        <time>2016-05-06T16:05:09Z</time>
      </trkpt>
      <trkpt lat="45.64012" lon="6.87126">
        <ele>1972.2</ele>
        <time>2016-05-06T16:05:11Z</time>
      </trkpt>
      <trkpt lat="45.64013" lon="6.87126">
        <ele>1972.5</ele>
        <time>2016-05-06T16:05:13Z</time>
      </trkpt>
      <trkpt lat="45.64015" lon="6.87127">
        <ele>1972.7</ele>
        <time>2016-05-06T16:05:15Z</time>
      </trkpt>
      <trkpt lat="45.64017" lon="6.87128">
        <ele>1972.8</ele>
        <time>2016-05-06T16:05:17Z</time>
      </trkpt>
      <trkpt lat="45.64017" lon="6.87129">
        <ele>1972.9</ele>
        <time>2016-05-06T16:05:19Z</time>
      </trkpt>
      <trkpt lat="45.64019" lon="6.87129">
        <ele>1972.8</ele>
        <time>2016-05-06T16:05:21Z</time>
      </trkpt>
      <trkpt lat="45.64021" lon="6.8713">
        <ele>1972.7</ele>
        <time>2016-05-06T16:05:23Z</time>
      </trkpt>
      <trkpt lat="45.64021" lon="6.87131">
        <ele>1972.8</ele>
        <time>2016-05-06T16:05:25Z</time>
      </trkpt>
      <trkpt lat="45.64021" lon="6.87131">
        <ele>1972.8</ele>
        <time>2016-05-06T16:05:27Z</time>
      </trkpt>
      <trkpt lat="45.64021" lon="6.87131">
        <ele>1972.8</ele>
        <time>2016-05-06T16:05:29Z</time>
      </trkpt>
      <trkpt lat="45.64021" lon="6.87131">
        <ele>1972.9</ele>
        <time>2016-05-06T16:05:31Z</time>
      </trkpt>
      <trkpt lat="45.64021" lon="6.87132">
        <ele>1972.9</ele>
        <time>2016-05-06T16:05:33Z</time>
      </trkpt>
      <trkpt lat="45.6402" lon="6.87133">
        <ele>1972.9</ele>
        <time>2016-05-06T16:05:35Z</time>
      </trkpt>
      <trkpt lat="45.6402" lon="6.87133">
        <ele>1973</ele>
        <time>2016-05-06T16:05:37Z</time>
      </trkpt>
      <trkpt lat="45.64021" lon="6.87132">
        <ele>1973.1</ele>
        <time>2016-05-06T16:05:39Z</time>
      </trkpt>
      <trkpt lat="45.64022" lon="6.87132">
        <ele>1973.2</ele>
        <time>2016-05-06T16:05:41Z</time>
      </trkpt>
      <trkpt lat="45.64024" lon="6.87133">
        <ele>1973.2</ele>
        <time>2016-05-06T16:05:43Z</time>
      </trkpt>
      <trkpt lat="45.64025" lon="6.87134">
        <ele>1973.3</ele>
        <time>2016-05-06T16:05:45Z</time>
      </trkpt>
      <trkpt lat="45.64026" lon="6.87136">
        <ele>1973.4</ele>
        <time>2016-05-06T16:05:47Z</time>
      </trkpt>
      <trkpt lat="45.64027" lon="6.87137">
        <ele>1973.5</ele>
        <time>2016-05-06T16:05:49Z</time>
      </trkpt>
      <trkpt lat="45.64029" lon="6.87139">
        <ele>1973.7</ele>
        <time>2016-05-06T16:05:51Z</time>
      </trkpt>
      <trkpt lat="45.6403" lon="6.8714">
        <ele>1973.9</ele>
        <time>2016-05-06T16:05:53Z</time>
      </trkpt>
      <trkpt lat="45.64031" lon="6.87141">
        <ele>1974</ele>
        <time>2016-05-06T16:05:55Z</time>
      </trkpt>
      <trkpt lat="45.64032" lon="6.87142">
        <ele>1973.9</ele>
        <time>2016-05-06T16:05:57Z</time>
      </trkpt>
      <trkpt lat="45.64033" lon="6.87144">
        <ele>1974</ele>
        <time>2016-05-06T16:05:59Z</time>
      </trkpt>
      <trkpt lat="45.64034" lon="6.87145">
        <ele>1974.1</ele>
        <time>2016-05-06T16:06:01Z</time>
      </trkpt>
      <trkpt lat="45.64034" lon="6.87145">
        <ele>1974.3</ele>
        <time>2016-05-06T16:06:03Z</time>
      </trkpt>
      <trkpt lat="45.64034" lon="6.87145">
        <ele>1974.4</ele>
        <time>2016-05-06T16:06:05Z</time>
      </trkpt>
      <trkpt lat="45.64034" lon="6.87145">
        <ele>1974.5</ele>
        <time>2016-05-06T16:06:07Z</time>
      </trkpt>
      <trkpt lat="45.64035" lon="6.87145">
        <ele>1974.5</ele>
        <time>2016-05-06T16:06:09Z</time>
      </trkpt>
      <trkpt lat="45.64036" lon="6.87145">
        <ele>1974.4</ele>
        <time>2016-05-06T16:06:11Z</time>
      </trkpt>
      <trkpt lat="45.64035" lon="6.87145">
        <ele>1974.3</ele>
        <time>2016-05-06T16:06:13Z</time>
      </trkpt>
      <trkpt lat="45.64034" lon="6.87144">
        <ele>1974.3</ele>
        <time>2016-05-06T16:06:15Z</time>
      </trkpt>
      <trkpt lat="45.64035" lon="6.87145">
        <ele>1974.6</ele>
        <time>2016-05-06T16:06:17Z</time>
      </trkpt>
      <trkpt lat="45.64036" lon="6.87146">
        <ele>1974.8</ele>
        <time>2016-05-06T16:06:19Z</time>
      </trkpt>
      <trkpt lat="45.64037" lon="6.87147">
        <ele>1974.9</ele>
        <time>2016-05-06T16:06:21Z</time>
      </trkpt>
      <trkpt lat="45.64039" lon="6.87147">
        <ele>1974.9</ele>
        <time>2016-05-06T16:06:23Z</time>
      </trkpt>
      <trkpt lat="45.64038" lon="6.87147">
        <ele>1975</ele>
        <time>2016-05-06T16:06:25Z</time>
      </trkpt>
      <trkpt lat="45.64038" lon="6.87146">
        <ele>1975</ele>
        <time>2016-05-06T16:06:27Z</time>
      </trkpt>
      <trkpt lat="45.64038" lon="6.87146">
        <ele>1975</ele>
        <time>2016-05-06T16:06:29Z</time>
      </trkpt>
      <trkpt lat="45.64037" lon="6.87146">
        <ele>1974.9</ele>
        <time>2016-05-06T16:06:31Z</time>
      </trkpt>
      <trkpt lat="45.64038" lon="6.87146">
        <ele>1974.9</ele>
        <time>2016-05-06T16:06:33Z</time>
      </trkpt>
      <trkpt lat="45.64039" lon="6.87147">
        <ele>1975</ele>
        <time>2016-05-06T16:06:35Z</time>
      </trkpt>
      <trkpt lat="45.64039" lon="6.87148">
        <ele>1975.1</ele>
        <time>2016-05-06T16:06:37Z</time>
      </trkpt>
      <trkpt lat="45.64039" lon="6.87146">
        <ele>1974.9</ele>
        <time>2016-05-06T16:06:39Z</time>
      </trkpt>
      <trkpt lat="45.64039" lon="6.87145">
        <ele>1974.9</ele>
        <time>2016-05-06T16:06:41Z</time>
      </trkpt>
      <trkpt lat="45.64039" lon="6.87143">
        <ele>1975.3</ele>
        <time>2016-05-06T16:06:43Z</time>
      </trkpt>
      <trkpt lat="45.64039" lon="6.87141">
        <ele>1975.6</ele>
        <time>2016-05-06T16:06:45Z</time>
      </trkpt>
      <trkpt lat="45.64038" lon="6.87139">
        <ele>1975.8</ele>
        <time>2016-05-06T16:06:47Z</time>
      </trkpt>
      <trkpt lat="45.64037" lon="6.87138">
        <ele>1976</ele>
        <time>2016-05-06T16:06:49Z</time>
      </trkpt>
      <trkpt lat="45.64037" lon="6.87136">
        <ele>1976.1</ele>
        <time>2016-05-06T16:06:51Z</time>
      </trkpt>
      <trkpt lat="45.64036" lon="6.87134">
        <ele>1976.3</ele>
        <time>2016-05-06T16:06:53Z</time>
      </trkpt>
      <trkpt lat="45.64035" lon="6.87133">
        <ele>1976.4</ele>
        <time>2016-05-06T16:06:55Z</time>
      </trkpt>
      <trkpt lat="45.64034" lon="6.87131">
        <ele>1976.7</ele>
        <time>2016-05-06T16:06:57Z</time>
      </trkpt>
      <trkpt lat="45.64033" lon="6.8713">
        <ele>1976.8</ele>
        <time>2016-05-06T16:06:59Z</time>
      </trkpt>
      <trkpt lat="45.64033" lon="6.87129">
        <ele>1977</ele>
        <time>2016-05-06T16:07:01Z</time>
      </trkpt>
      <trkpt lat="45.64032" lon="6.87127">
        <ele>1977.2</ele>
        <time>2016-05-06T16:07:03Z</time>
      </trkpt>
      <trkpt lat="45.64032" lon="6.87126">
        <ele>1977.5</ele>
        <time>2016-05-06T16:07:05Z</time>
      </trkpt>
      <trkpt lat="45.64032" lon="6.87124">
        <ele>1977.8</ele>
        <time>2016-05-06T16:07:07Z</time>
      </trkpt>
      <trkpt lat="45.64031" lon="6.87122">
        <ele>1977.9</ele>
        <time>2016-05-06T16:07:09Z</time>
      </trkpt>
      <trkpt lat="45.64031" lon="6.8712">
        <ele>1978</ele>
        <time>2016-05-06T16:07:11Z</time>
      </trkpt>
      <trkpt lat="45.6403" lon="6.87119">
        <ele>1978.2</ele>
        <time>2016-05-06T16:07:13Z</time>
      </trkpt>
      <trkpt lat="45.64029" lon="6.87118">
        <ele>1978.3</ele>
        <time>2016-05-06T16:07:15Z</time>
      </trkpt>
      <trkpt lat="45.64028" lon="6.87116">
        <ele>1978.4</ele>
        <time>2016-05-06T16:07:17Z</time>
      </trkpt>
      <trkpt lat="45.64028" lon="6.87114">
        <ele>1978.4</ele>
        <time>2016-05-06T16:07:19Z</time>
      </trkpt>
      <trkpt lat="45.64027" lon="6.87113">
        <ele>1978.4</ele>
        <time>2016-05-06T16:07:21Z</time>
      </trkpt>
      <trkpt lat="45.64026" lon="6.87111">
        <ele>1978.5</ele>
        <time>2016-05-06T16:07:23Z</time>
      </trkpt>
      <trkpt lat="45.64026" lon="6.8711">
        <ele>1978.6</ele>
        <time>2016-05-06T16:07:25Z</time>
      </trkpt>
      <trkpt lat="45.64025" lon="6.87108">
        <ele>1978.7</ele>
        <time>2016-05-06T16:07:27Z</time>
      </trkpt>
      <trkpt lat="45.64024" lon="6.87106">
        <ele>1978.7</ele>
        <time>2016-05-06T16:07:29Z</time>
      </trkpt>
      <trkpt lat="45.64023" lon="6.87105">
        <ele>1978.8</ele>
        <time>2016-05-06T16:07:31Z</time>
      </trkpt>
      <trkpt lat="45.64023" lon="6.87103">
        <ele>1979</ele>
        <time>2016-05-06T16:07:33Z</time>
      </trkpt>
      <trkpt lat="45.64023" lon="6.87103">
        <ele>1979.1</ele>
        <time>2016-05-06T16:07:35Z</time>
      </trkpt>
      <trkpt lat="45.64023" lon="6.87104">
        <ele>1977</ele>
        <time>2016-05-06T16:07:37Z</time>
      </trkpt>
      <trkpt lat="45.64023" lon="6.87104">
        <ele>1977.4</ele>
        <time>2016-05-06T16:07:39Z</time>
      </trkpt>
      <trkpt lat="45.64023" lon="6.87105">
        <ele>1978.5</ele>
        <time>2016-05-06T16:07:41Z</time>
      </trkpt>
      <trkpt lat="45.64023" lon="6.87104">
        <ele>1978.9</ele>
        <time>2016-05-06T16:07:43Z</time>
      </trkpt>
      <trkpt lat="45.64023" lon="6.87104">
        <ele>1979.2</ele>
        <time>2016-05-06T16:07:45Z</time>
      </trkpt>
      <trkpt lat="45.64023" lon="6.87105">
        <ele>1979.4</ele>
        <time>2016-05-06T16:07:47Z</time>
      </trkpt>
      <trkpt lat="45.64023" lon="6.87105">
        <ele>1979.5</ele>
        <time>2016-05-06T16:07:49Z</time>
      </trkpt>
      <trkpt lat="45.64023" lon="6.87106">
        <ele>1979.5</ele>
        <time>2016-05-06T16:07:51Z</time>
      </trkpt>
      <trkpt lat="45.64023" lon="6.87105">
        <ele>1979.5</ele>
        <time>2016-05-06T16:07:53Z</time>
      </trkpt>
      <trkpt lat="45.64024" lon="6.87105">
        <ele>1979.6</ele>
        <time>2016-05-06T16:07:55Z</time>
      </trkpt>
      <trkpt lat="45.64024" lon="6.87105">
        <ele>1979.4</ele>
        <time>2016-05-06T16:07:57Z</time>
      </trkpt>
      <trkpt lat="45.64024" lon="6.87105">
        <ele>1979.3</ele>
        <time>2016-05-06T16:07:59Z</time>
      </trkpt>
      <trkpt lat="45.64023" lon="6.87104">
        <ele>1979.2</ele>
        <time>2016-05-06T16:08:01Z</time>
      </trkpt>
      <trkpt lat="45.64023" lon="6.87104">
        <ele>1979.2</ele>
        <time>2016-05-06T16:08:03Z</time>
      </trkpt>
      <trkpt lat="45.64023" lon="6.87104">
        <ele>1979.2</ele>
        <time>2016-05-06T16:08:05Z</time>
      </trkpt>
      <trkpt lat="45.64023" lon="6.87104">
        <ele>1979.2</ele>
        <time>2016-05-06T16:08:07Z</time>
      </trkpt>
      <trkpt lat="45.64023" lon="6.87104">
        <ele>1979.3</ele>
        <time>2016-05-06T16:08:09Z</time>
      </trkpt>
      <trkpt lat="45.64023" lon="6.87104">
        <ele>1979.3</ele>
        <time>2016-05-06T16:08:11Z</time>
      </trkpt>
      <trkpt lat="45.64023" lon="6.87104">
        <ele>1979.3</ele>
        <time>2016-05-06T16:08:13Z</time>
      </trkpt>
      <trkpt lat="45.64022" lon="6.87104">
        <ele>1979.4</ele>
        <time>2016-05-06T16:08:15Z</time>
      </trkpt>
      <trkpt lat="45.64022" lon="6.87105">
        <ele>1979.4</ele>
        <time>2016-05-06T16:08:17Z</time>
      </trkpt>
      <trkpt lat="45.64022" lon="6.87104">
        <ele>1979.4</ele>
        <time>2016-05-06T16:08:19Z</time>
      </trkpt>
      <trkpt lat="45.64022" lon="6.87104">
        <ele>1979.2</ele>
        <time>2016-05-06T16:08:21Z</time>
      </trkpt>
      <trkpt lat="45.64022" lon="6.87104">
        <ele>1979.1</ele>
        <time>2016-05-06T16:08:23Z</time>
      </trkpt>
      <trkpt lat="45.64022" lon="6.87104">
        <ele>1979</ele>
        <time>2016-05-06T16:08:25Z</time>
      </trkpt>
      <trkpt lat="45.64022" lon="6.87104">
        <ele>1979.2</ele>
        <time>2016-05-06T16:08:27Z</time>
      </trkpt>
      <trkpt lat="45.64022" lon="6.87104">
        <ele>1979.6</ele>
        <time>2016-05-06T16:08:29Z</time>
      </trkpt>
      <trkpt lat="45.64022" lon="6.87103">
        <ele>1979.5</ele>
        <time>2016-05-06T16:08:31Z</time>
      </trkpt>
      <trkpt lat="45.64022" lon="6.87103">
        <ele>1979.4</ele>
        <time>2016-05-06T16:08:33Z</time>
      </trkpt>
      <trkpt lat="45.64021" lon="6.87103">
        <ele>1979.3</ele>
        <time>2016-05-06T16:08:35Z</time>
      </trkpt>
      <trkpt lat="45.64022" lon="6.87103">
        <ele>1979.1</ele>
        <time>2016-05-06T16:08:37Z</time>
      </trkpt>
      <trkpt lat="45.64022" lon="6.87103">
        <ele>1979</ele>
        <time>2016-05-06T16:08:39Z</time>
      </trkpt>
      <trkpt lat="45.64022" lon="6.87102">
        <ele>1978.9</ele>
        <time>2016-05-06T16:08:41Z</time>
      </trkpt>
      <trkpt lat="45.64022" lon="6.87102">
        <ele>1978.2</ele>
        <time>2016-05-06T16:08:43Z</time>
      </trkpt>
      <trkpt lat="45.64022" lon="6.87102">
        <ele>1978.6</ele>
        <time>2016-05-06T16:08:45Z</time>
      </trkpt>
      <trkpt lat="45.64022" lon="6.87102">
        <ele>1978.2</ele>
        <time>2016-05-06T16:08:47Z</time>
      </trkpt>
      <trkpt lat="45.64022" lon="6.87101">
        <ele>1978.5</ele>
        <time>2016-05-06T16:08:49Z</time>
      </trkpt>
      <trkpt lat="45.64021" lon="6.87102">
        <ele>1978.9</ele>
        <time>2016-05-06T16:08:51Z</time>
      </trkpt>
      <trkpt lat="45.64021" lon="6.87102">
        <ele>1979.1</ele>
        <time>2016-05-06T16:08:53Z</time>
      </trkpt>
      <trkpt lat="45.64022" lon="6.87102">
        <ele>1979.1</ele>
        <time>2016-05-06T16:08:55Z</time>
      </trkpt>
      <trkpt lat="45.64022" lon="6.87101">
        <ele>1979.1</ele>
        <time>2016-05-06T16:08:57Z</time>
      </trkpt>
      <trkpt lat="45.64022" lon="6.87101">
        <ele>1979</ele>
        <time>2016-05-06T16:08:59Z</time>
      </trkpt>
      <trkpt lat="45.64022" lon="6.87101">
        <ele>1979</ele>
        <time>2016-05-06T16:09:01Z</time>
      </trkpt>
      <trkpt lat="45.64022" lon="6.87101">
        <ele>1979</ele>
        <time>2016-05-06T16:09:03Z</time>
      </trkpt>
      <trkpt lat="45.64022" lon="6.87102">
        <ele>1979.2</ele>
        <time>2016-05-06T16:09:05Z</time>
      </trkpt>
      <trkpt lat="45.64023" lon="6.87102">
        <ele>1979.3</ele>
        <time>2016-05-06T16:09:07Z</time>
      </trkpt>
      <trkpt lat="45.64023" lon="6.87102">
        <ele>1979.3</ele>
        <time>2016-05-06T16:09:09Z</time>
      </trkpt>
      <trkpt lat="45.64023" lon="6.87102">
        <ele>1977.9</ele>
        <time>2016-05-06T16:09:11Z</time>
      </trkpt>
      <trkpt lat="45.64023" lon="6.87102">
        <ele>1978</ele>
        <time>2016-05-06T16:09:13Z</time>
      </trkpt>
      <trkpt lat="45.64024" lon="6.87102">
        <ele>1977.9</ele>
        <time>2016-05-06T16:09:15Z</time>
      </trkpt>
      <trkpt lat="45.64024" lon="6.87102">
        <ele>1978.6</ele>
        <time>2016-05-06T16:09:17Z</time>
      </trkpt>
      <trkpt lat="45.64024" lon="6.87102">
        <ele>1979</ele>
        <time>2016-05-06T16:09:19Z</time>
      </trkpt>
      <trkpt lat="45.64024" lon="6.87102">
        <ele>1979.1</ele>
        <time>2016-05-06T16:09:21Z</time>
      </trkpt>
      <trkpt lat="45.64024" lon="6.87101">
        <ele>1979.3</ele>
        <time>2016-05-06T16:09:23Z</time>
      </trkpt>
      <trkpt lat="45.64023" lon="6.87101">
        <ele>1979.1</ele>
        <time>2016-05-06T16:09:25Z</time>
      </trkpt>
      <trkpt lat="45.64023" lon="6.87101">
        <ele>1979.1</ele>
        <time>2016-05-06T16:09:27Z</time>
      </trkpt>
      <trkpt lat="45.64023" lon="6.87102">
        <ele>1979.1</ele>
        <time>2016-05-06T16:09:29Z</time>
      </trkpt>
      <trkpt lat="45.64024" lon="6.87102">
        <ele>1979.2</ele>
        <time>2016-05-06T16:09:31Z</time>
      </trkpt>
      <trkpt lat="45.64025" lon="6.87102">
        <ele>1979.2</ele>
        <time>2016-05-06T16:09:33Z</time>
      </trkpt>
      <trkpt lat="45.64025" lon="6.87102">
        <ele>1979.2</ele>
        <time>2016-05-06T16:09:35Z</time>
      </trkpt>
      <trkpt lat="45.64026" lon="6.87102">
        <ele>1979.3</ele>
        <time>2016-05-06T16:09:37Z</time>
      </trkpt>
      <trkpt lat="45.64026" lon="6.87102">
        <ele>1979.3</ele>
        <time>2016-05-06T16:09:39Z</time>
      </trkpt>
      <trkpt lat="45.64026" lon="6.87102">
        <ele>1979.1</ele>
        <time>2016-05-06T16:09:41Z</time>
      </trkpt>
      <trkpt lat="45.64026" lon="6.87103">
        <ele>1979.2</ele>
        <time>2016-05-06T16:09:43Z</time>
      </trkpt>
      <trkpt lat="45.64026" lon="6.87102">
        <ele>1979.1</ele>
        <time>2016-05-06T16:09:45Z</time>
      </trkpt>
      <trkpt lat="45.64025" lon="6.87103">
        <ele>1978.9</ele>
        <time>2016-05-06T16:09:47Z</time>
      </trkpt>
      <trkpt lat="45.64024" lon="6.87103">
        <ele>1978.4</ele>
        <time>2016-05-06T16:09:49Z</time>
      </trkpt>
      <trkpt lat="45.64025" lon="6.87102">
        <ele>1978.6</ele>
        <time>2016-05-06T16:09:51Z</time>
      </trkpt>
      <trkpt lat="45.64025" lon="6.87103">
        <ele>1978.7</ele>
        <time>2016-05-06T16:09:53Z</time>
      </trkpt>
      <trkpt lat="45.64024" lon="6.87102">
        <ele>1978.8</ele>
        <time>2016-05-06T16:09:55Z</time>
      </trkpt>
      <trkpt lat="45.64024" lon="6.87102">
        <ele>1978.8</ele>
        <time>2016-05-06T16:09:57Z</time>
      </trkpt>
      <trkpt lat="45.64023" lon="6.87102">
        <ele>1978.6</ele>
        <time>2016-05-06T16:09:59Z</time>
      </trkpt>
      <trkpt lat="45.64022" lon="6.87102">
        <ele>1978.6</ele>
        <time>2016-05-06T16:10:01Z</time>
      </trkpt>
      <trkpt lat="45.64022" lon="6.87102">
        <ele>1978.7</ele>
        <time>2016-05-06T16:10:03Z</time>
      </trkpt>
      <trkpt lat="45.64021" lon="6.87102">
        <ele>1978.5</ele>
        <time>2016-05-06T16:10:05Z</time>
      </trkpt>
      <trkpt lat="45.64021" lon="6.87102">
        <ele>1978.3</ele>
        <time>2016-05-06T16:10:07Z</time>
      </trkpt>
      <trkpt lat="45.6402" lon="6.87102">
        <ele>1978.6</ele>
        <time>2016-05-06T16:10:09Z</time>
      </trkpt>
      <trkpt lat="45.64019" lon="6.87102">
        <ele>1978.7</ele>
        <time>2016-05-06T16:10:11Z</time>
      </trkpt>
      <trkpt lat="45.6402" lon="6.87102">
        <ele>1978.7</ele>
        <time>2016-05-06T16:10:13Z</time>
      </trkpt>
      <trkpt lat="45.6402" lon="6.87103">
        <ele>1978.8</ele>
        <time>2016-05-06T16:10:15Z</time>
      </trkpt>
      <trkpt lat="45.64021" lon="6.87104">
        <ele>1978.5</ele>
        <time>2016-05-06T16:10:17Z</time>
      </trkpt>
      <trkpt lat="45.6402" lon="6.87104">
        <ele>1978.3</ele>
        <time>2016-05-06T16:10:19Z</time>
      </trkpt>
      <trkpt lat="45.6402" lon="6.87103">
        <ele>1978.6</ele>
        <time>2016-05-06T16:10:21Z</time>
      </trkpt>
      <trkpt lat="45.6402" lon="6.87103">
        <ele>1978.7</ele>
        <time>2016-05-06T16:10:23Z</time>
      </trkpt>
      <trkpt lat="45.6402" lon="6.87103">
        <ele>1978.8</ele>
        <time>2016-05-06T16:10:25Z</time>
      </trkpt>
      <trkpt lat="45.64019" lon="6.87103">
        <ele>1978.8</ele>
        <time>2016-05-06T16:10:27Z</time>
      </trkpt>
      <trkpt lat="45.64019" lon="6.87103">
        <ele>1978.9</ele>
        <time>2016-05-06T16:10:29Z</time>
      </trkpt>
      <trkpt lat="45.64019" lon="6.87103">
        <ele>1978.7</ele>
        <time>2016-05-06T16:10:31Z</time>
      </trkpt>
      <trkpt lat="45.64019" lon="6.87102">
        <ele>1978.9</ele>
        <time>2016-05-06T16:10:33Z</time>
      </trkpt>
      <trkpt lat="45.64019" lon="6.87102">
        <ele>1978.9</ele>
        <time>2016-05-06T16:10:35Z</time>
      </trkpt>
      <trkpt lat="45.64019" lon="6.87102">
        <ele>1978.9</ele>
        <time>2016-05-06T16:10:37Z</time>
      </trkpt>
      <trkpt lat="45.64019" lon="6.87102">
        <ele>1978.7</ele>
        <time>2016-05-06T16:10:39Z</time>
      </trkpt>
      <trkpt lat="45.64019" lon="6.87101">
        <ele>1978.7</ele>
        <time>2016-05-06T16:10:41Z</time>
      </trkpt>
      <trkpt lat="45.64018" lon="6.871">
        <ele>1978.7</ele>
        <time>2016-05-06T16:10:43Z</time>
      </trkpt>
      <trkpt lat="45.64018" lon="6.871">
        <ele>1978.7</ele>
        <time>2016-05-06T16:10:45Z</time>
      </trkpt>
      <trkpt lat="45.64018" lon="6.871">
        <ele>1978.8</ele>
        <time>2016-05-06T16:10:47Z</time>
      </trkpt>
      <trkpt lat="45.64018" lon="6.871">
        <ele>1978.7</ele>
        <time>2016-05-06T16:10:49Z</time>
      </trkpt>
      <trkpt lat="45.64019" lon="6.871">
        <ele>1978.9</ele>
        <time>2016-05-06T16:10:51Z</time>
      </trkpt>
      <trkpt lat="45.64019" lon="6.87101">
        <ele>1979</ele>
        <time>2016-05-06T16:10:53Z</time>
      </trkpt>
      <trkpt lat="45.6402" lon="6.87103">
        <ele>1979</ele>
        <time>2016-05-06T16:10:55Z</time>
      </trkpt>
      <trkpt lat="45.6402" lon="6.87103">
        <ele>1978.9</ele>
        <time>2016-05-06T16:10:57Z</time>
      </trkpt>
      <trkpt lat="45.64021" lon="6.87103">
        <ele>1978.9</ele>
        <time>2016-05-06T16:10:59Z</time>
      </trkpt>
      <trkpt lat="45.64021" lon="6.87103">
        <ele>1978.8</ele>
        <time>2016-05-06T16:11:01Z</time>
      </trkpt>
      <trkpt lat="45.64021" lon="6.87103">
        <ele>1978.8</ele>
        <time>2016-05-06T16:11:03Z</time>
      </trkpt>
      <trkpt lat="45.64022" lon="6.87101">
        <ele>1978.9</ele>
        <time>2016-05-06T16:11:05Z</time>
      </trkpt>
      <trkpt lat="45.64022" lon="6.87101">
        <ele>1979</ele>
        <time>2016-05-06T16:11:07Z</time>
      </trkpt>
      <trkpt lat="45.64021" lon="6.87101">
        <ele>1979</ele>
        <time>2016-05-06T16:11:09Z</time>
      </trkpt>
      <trkpt lat="45.64022" lon="6.87101">
        <ele>1979.1</ele>
        <time>2016-05-06T16:11:11Z</time>
      </trkpt>
      <trkpt lat="45.64022" lon="6.87102">
        <ele>1979</ele>
        <time>2016-05-06T16:11:13Z</time>
      </trkpt>
      <trkpt lat="45.64023" lon="6.87102">
        <ele>1978.9</ele>
        <time>2016-05-06T16:11:15Z</time>
      </trkpt>
      <trkpt lat="45.64023" lon="6.87102">
        <ele>1978.9</ele>
        <time>2016-05-06T16:11:17Z</time>
      </trkpt>
      <trkpt lat="45.64024" lon="6.87102">
        <ele>1979</ele>
        <time>2016-05-06T16:11:19Z</time>
      </trkpt>
      <trkpt lat="45.64023" lon="6.87103">
        <ele>1978.9</ele>
        <time>2016-05-06T16:11:21Z</time>
      </trkpt>
      <trkpt lat="45.64024" lon="6.87103">
        <ele>1978.8</ele>
        <time>2016-05-06T16:11:23Z</time>
      </trkpt>
      <trkpt lat="45.64024" lon="6.87104">
        <ele>1978.9</ele>
        <time>2016-05-06T16:11:25Z</time>
      </trkpt>
      <trkpt lat="45.64024" lon="6.87104">
        <ele>1978.9</ele>
        <time>2016-05-06T16:11:27Z</time>
      </trkpt>
      <trkpt lat="45.64024" lon="6.87104">
        <ele>1978.9</ele>
        <time>2016-05-06T16:11:29Z</time>
      </trkpt>
      <trkpt lat="45.64024" lon="6.87104">
        <ele>1979.1</ele>
        <time>2016-05-06T16:11:31Z</time>
      </trkpt>
      <trkpt lat="45.64025" lon="6.87105">
        <ele>1979.2</ele>
        <time>2016-05-06T16:11:33Z</time>
      </trkpt>
      <trkpt lat="45.64025" lon="6.87105">
        <ele>1979.1</ele>
        <time>2016-05-06T16:11:35Z</time>
      </trkpt>
      <trkpt lat="45.64025" lon="6.87105">
        <ele>1979.2</ele>
        <time>2016-05-06T16:11:37Z</time>
      </trkpt>
      <trkpt lat="45.64025" lon="6.87105">
        <ele>1979.4</ele>
        <time>2016-05-06T16:11:39Z</time>
      </trkpt>
      <trkpt lat="45.64025" lon="6.87106">
        <ele>1979.5</ele>
        <time>2016-05-06T16:11:41Z</time>
      </trkpt>
      <trkpt lat="45.64025" lon="6.87105">
        <ele>1978.9</ele>
        <time>2016-05-06T16:11:43Z</time>
      </trkpt>
      <trkpt lat="45.64025" lon="6.87105">
        <ele>1978.9</ele>
        <time>2016-05-06T16:11:45Z</time>
      </trkpt>
      <trkpt lat="45.64025" lon="6.87105">
        <ele>1979.2</ele>
        <time>2016-05-06T16:11:47Z</time>
      </trkpt>
      <trkpt lat="45.64025" lon="6.87105">
        <ele>1978.9</ele>
        <time>2016-05-06T16:11:49Z</time>
      </trkpt>
      <trkpt lat="45.64025" lon="6.87105">
        <ele>1978.7</ele>
        <time>2016-05-06T16:11:51Z</time>
      </trkpt>
      <trkpt lat="45.64024" lon="6.87105">
        <ele>1978.8</ele>
        <time>2016-05-06T16:11:53Z</time>
      </trkpt>
      <trkpt lat="45.64024" lon="6.87104">
        <ele>1979.1</ele>
        <time>2016-05-06T16:11:55Z</time>
      </trkpt>
      <trkpt lat="45.64024" lon="6.87104">
        <ele>1979.3</ele>
        <time>2016-05-06T16:11:57Z</time>
      </trkpt>
      <trkpt lat="45.64024" lon="6.87104">
        <ele>1979</ele>
        <time>2016-05-06T16:11:59Z</time>
      </trkpt>
      <trkpt lat="45.64024" lon="6.87103">
        <ele>1979.2</ele>
        <time>2016-05-06T16:12:01Z</time>
      </trkpt>
      <trkpt lat="45.64023" lon="6.87102">
        <ele>1978</ele>
        <time>2016-05-06T16:12:03Z</time>
      </trkpt>
      <trkpt lat="45.64023" lon="6.87101">
        <ele>1978.7</ele>
        <time>2016-05-06T16:12:06Z</time>
      </trkpt>
      <trkpt lat="45.64022" lon="6.87101">
        <ele>1978.9</ele>
        <time>2016-05-06T16:12:08Z</time>
      </trkpt>
      <trkpt lat="45.64021" lon="6.87101">
        <ele>1979.3</ele>
        <time>2016-05-06T16:12:10Z</time>
      </trkpt>
      <trkpt lat="45.64022" lon="6.87101">
        <ele>1979.6</ele>
        <time>2016-05-06T16:12:12Z</time>
      </trkpt>
      <trkpt lat="45.64021" lon="6.87101">
        <ele>1979.4</ele>
        <time>2016-05-06T16:12:14Z</time>
      </trkpt>
      <trkpt lat="45.64021" lon="6.87101">
        <ele>1979.2</ele>
        <time>2016-05-06T16:12:16Z</time>
      </trkpt>
      <trkpt lat="45.64021" lon="6.87101">
        <ele>1979.1</ele>
        <time>2016-05-06T16:12:18Z</time>
      </trkpt>
      <trkpt lat="45.6402" lon="6.87102">
        <ele>1979.1</ele>
        <time>2016-05-06T16:12:20Z</time>
      </trkpt>
      <trkpt lat="45.6402" lon="6.87102">
        <ele>1979</ele>
        <time>2016-05-06T16:12:22Z</time>
      </trkpt>
      <trkpt lat="45.6402" lon="6.87102">
        <ele>1979.2</ele>
        <time>2016-05-06T16:12:24Z</time>
      </trkpt>
      <trkpt lat="45.6402" lon="6.87105">
        <ele>1979</ele>
        <time>2016-05-06T16:12:26Z</time>
      </trkpt>
      <trkpt lat="45.64019" lon="6.87105">
        <ele>1979.2</ele>
        <time>2016-05-06T16:12:28Z</time>
      </trkpt>
      <trkpt lat="45.6402" lon="6.87104">
        <ele>1979.3</ele>
        <time>2016-05-06T16:12:30Z</time>
      </trkpt>
      <trkpt lat="45.6402" lon="6.87102">
        <ele>1979.6</ele>
        <time>2016-05-06T16:12:32Z</time>
      </trkpt>
      <trkpt lat="45.6402" lon="6.87101">
        <ele>1979</ele>
        <time>2016-05-06T16:12:34Z</time>
      </trkpt>
      <trkpt lat="45.6402" lon="6.87101">
        <ele>1979.4</ele>
        <time>2016-05-06T16:12:37Z</time>
      </trkpt>
      <trkpt lat="45.64021" lon="6.871">
        <ele>1979.5</ele>
        <time>2016-05-06T16:12:39Z</time>
      </trkpt>
      <trkpt lat="45.64021" lon="6.871">
        <ele>1979.9</ele>
        <time>2016-05-06T16:12:41Z</time>
      </trkpt>
      <trkpt lat="45.64021" lon="6.87101">
        <ele>1980.1</ele>
        <time>2016-05-06T16:12:43Z</time>
      </trkpt>
      <trkpt lat="45.64021" lon="6.87101">
        <ele>1980.3</ele>
        <time>2016-05-06T16:12:45Z</time>
      </trkpt>
      <trkpt lat="45.64021" lon="6.87099">
        <ele>1980.2</ele>
        <time>2016-05-06T16:12:47Z</time>
      </trkpt>
      <trkpt lat="45.6402" lon="6.87098">
        <ele>1979.7</ele>
        <time>2016-05-06T16:12:49Z</time>
      </trkpt>
      <trkpt lat="45.6402" lon="6.87099">
        <ele>1979.7</ele>
        <time>2016-05-06T16:12:51Z</time>
      </trkpt>
      <trkpt lat="45.6402" lon="6.871">
        <ele>1979.7</ele>
        <time>2016-05-06T16:12:53Z</time>
      </trkpt>
      <trkpt lat="45.6402" lon="6.871">
        <ele>1980</ele>
        <time>2016-05-06T16:12:55Z</time>
      </trkpt>
      <trkpt lat="45.6402" lon="6.87101">
        <ele>1980</ele>
        <time>2016-05-06T16:12:57Z</time>
      </trkpt>
      <trkpt lat="45.6402" lon="6.87099">
        <ele>1980.1</ele>
        <time>2016-05-06T16:12:59Z</time>
      </trkpt>
      <trkpt lat="45.64019" lon="6.871">
        <ele>1980.1</ele>
        <time>2016-05-06T16:13:01Z</time>
      </trkpt>
      <trkpt lat="45.64019" lon="6.87101">
        <ele>1979.9</ele>
        <time>2016-05-06T16:13:03Z</time>
      </trkpt>
      <trkpt lat="45.64019" lon="6.87102">
        <ele>1979.7</ele>
        <time>2016-05-06T16:13:05Z</time>
      </trkpt>
      <trkpt lat="45.64019" lon="6.87103">
        <ele>1979.6</ele>
        <time>2016-05-06T16:13:07Z</time>
      </trkpt>
      <trkpt lat="45.64019" lon="6.87103">
        <ele>1979.6</ele>
        <time>2016-05-06T16:13:09Z</time>
      </trkpt>
      <trkpt lat="45.6402" lon="6.87106">
        <ele>1979.5</ele>
        <time>2016-05-06T16:13:11Z</time>
      </trkpt>
      <trkpt lat="45.6402" lon="6.87107">
        <ele>1979.6</ele>
        <time>2016-05-06T16:13:13Z</time>
      </trkpt>
      <trkpt lat="45.64021" lon="6.87108">
        <ele>1979.1</ele>
        <time>2016-05-06T16:13:15Z</time>
      </trkpt>
      <trkpt lat="45.64022" lon="6.87106">
        <ele>1979.3</ele>
        <time>2016-05-06T16:13:17Z</time>
      </trkpt>
      <trkpt lat="45.64022" lon="6.87105">
        <ele>1979.4</ele>
        <time>2016-05-06T16:13:19Z</time>
      </trkpt>
      <trkpt lat="45.64022" lon="6.87104">
        <ele>1979.2</ele>
        <time>2016-05-06T16:13:21Z</time>
      </trkpt>
      <trkpt lat="45.64021" lon="6.87104">
        <ele>1979.1</ele>
        <time>2016-05-06T16:13:23Z</time>
      </trkpt>
      <trkpt lat="45.64022" lon="6.87104">
        <ele>1979.1</ele>
        <time>2016-05-06T16:13:25Z</time>
      </trkpt>
      <trkpt lat="45.64022" lon="6.87104">
        <ele>1979.1</ele>
        <time>2016-05-06T16:13:27Z</time>
      </trkpt>
      <trkpt lat="45.64022" lon="6.87104">
        <ele>1979.4</ele>
        <time>2016-05-06T16:13:29Z</time>
      </trkpt>
      <trkpt lat="45.64023" lon="6.87104">
        <ele>1979.6</ele>
        <time>2016-05-06T16:13:31Z</time>
      </trkpt>
      <trkpt lat="45.64022" lon="6.87104">
        <ele>1979.5</ele>
        <time>2016-05-06T16:13:33Z</time>
      </trkpt>
      <trkpt lat="45.64022" lon="6.87103">
        <ele>1979.4</ele>
        <time>2016-05-06T16:13:35Z</time>
      </trkpt>
      <trkpt lat="45.64023" lon="6.87105">
        <ele>1979.5</ele>
        <time>2016-05-06T16:13:37Z</time>
      </trkpt>
      <trkpt lat="45.64022" lon="6.87106">
        <ele>1979.4</ele>
        <time>2016-05-06T16:13:39Z</time>
      </trkpt>
      <trkpt lat="45.64022" lon="6.87106">
        <ele>1979.4</ele>
        <time>2016-05-06T16:13:41Z</time>
      </trkpt>
      <trkpt lat="45.64021" lon="6.87106">
        <ele>1979.4</ele>
        <time>2016-05-06T16:13:43Z</time>
      </trkpt>
      <trkpt lat="45.6402" lon="6.87107">
        <ele>1979.2</ele>
        <time>2016-05-06T16:13:45Z</time>
      </trkpt>
      <trkpt lat="45.6402" lon="6.87107">
        <ele>1979.4</ele>
        <time>2016-05-06T16:13:47Z</time>
      </trkpt>
      <trkpt lat="45.6402" lon="6.87108">
        <ele>1979.5</ele>
        <time>2016-05-06T16:13:49Z</time>
      </trkpt>
      <trkpt lat="45.64018" lon="6.87109">
        <ele>1979.5</ele>
        <time>2016-05-06T16:13:51Z</time>
      </trkpt>
      <trkpt lat="45.64017" lon="6.87109">
        <ele>1979.4</ele>
        <time>2016-05-06T16:13:53Z</time>
      </trkpt>
      <trkpt lat="45.64018" lon="6.87108">
        <ele>1979.4</ele>
        <time>2016-05-06T16:13:55Z</time>
      </trkpt>
      <trkpt lat="45.64018" lon="6.87108">
        <ele>1978.7</ele>
        <time>2016-05-06T16:13:57Z</time>
      </trkpt>
      <trkpt lat="45.64019" lon="6.87108">
        <ele>1979</ele>
        <time>2016-05-06T16:13:59Z</time>
      </trkpt>
      <trkpt lat="45.64021" lon="6.87108">
        <ele>1979.2</ele>
        <time>2016-05-06T16:14:01Z</time>
      </trkpt>
      <trkpt lat="45.64023" lon="6.87107">
        <ele>1979.2</ele>
        <time>2016-05-06T16:14:03Z</time>
      </trkpt>
      <trkpt lat="45.64023" lon="6.87106">
        <ele>1979.3</ele>
        <time>2016-05-06T16:14:05Z</time>
      </trkpt>
      <trkpt lat="45.64023" lon="6.87106">
        <ele>1979.2</ele>
        <time>2016-05-06T16:14:07Z</time>
      </trkpt>
      <trkpt lat="45.64023" lon="6.87105">
        <ele>1979</ele>
        <time>2016-05-06T16:14:09Z</time>
      </trkpt>
      <trkpt lat="45.64022" lon="6.87103">
        <ele>1979.1</ele>
        <time>2016-05-06T16:14:12Z</time>
      </trkpt>
      <trkpt lat="45.64021" lon="6.87103">
        <ele>1979.1</ele>
        <time>2016-05-06T16:14:14Z</time>
      </trkpt>
      <trkpt lat="45.6402" lon="6.87101">
        <ele>1979.2</ele>
        <time>2016-05-06T16:14:16Z</time>
      </trkpt>
      <trkpt lat="45.64019" lon="6.87101">
        <ele>1979.4</ele>
        <time>2016-05-06T16:14:18Z</time>
      </trkpt>
      <trkpt lat="45.6402" lon="6.871">
        <ele>1979.6</ele>
        <time>2016-05-06T16:14:20Z</time>
      </trkpt>
      <trkpt lat="45.64019" lon="6.871">
        <ele>1979.8</ele>
        <time>2016-05-06T16:14:22Z</time>
      </trkpt>
      <trkpt lat="45.6402" lon="6.87099">
        <ele>1980</ele>
        <time>2016-05-06T16:14:24Z</time>
      </trkpt>
      <trkpt lat="45.6402" lon="6.87098">
        <ele>1979.8</ele>
        <time>2016-05-06T16:14:26Z</time>
      </trkpt>
      <trkpt lat="45.6402" lon="6.871">
        <ele>1979.9</ele>
        <time>2016-05-06T16:14:28Z</time>
      </trkpt>
      <trkpt lat="45.64019" lon="6.87102">
        <ele>1980.1</ele>
        <time>2016-05-06T16:14:30Z</time>
      </trkpt>
      <trkpt lat="45.64019" lon="6.87103">
        <ele>1979.5</ele>
        <time>2016-05-06T16:14:32Z</time>
      </trkpt>
      <trkpt lat="45.64019" lon="6.87103">
        <ele>1979.5</ele>
        <time>2016-05-06T16:14:34Z</time>
      </trkpt>
      <trkpt lat="45.64019" lon="6.87102">
        <ele>1979.6</ele>
        <time>2016-05-06T16:14:36Z</time>
      </trkpt>
      <trkpt lat="45.64017" lon="6.87104">
        <ele>1979.6</ele>
        <time>2016-05-06T16:14:38Z</time>
      </trkpt>
      <trkpt lat="45.64018" lon="6.87104">
        <ele>1979.8</ele>
        <time>2016-05-06T16:14:40Z</time>
      </trkpt>
      <trkpt lat="45.64018" lon="6.87103">
        <ele>1979.7</ele>
        <time>2016-05-06T16:14:42Z</time>
      </trkpt>
      <trkpt lat="45.64018" lon="6.87105">
        <ele>1979.9</ele>
        <time>2016-05-06T16:14:44Z</time>
      </trkpt>
      <trkpt lat="45.64018" lon="6.87106">
        <ele>1979.7</ele>
        <time>2016-05-06T16:14:46Z</time>
      </trkpt>
      <trkpt lat="45.64017" lon="6.87106">
        <ele>1979.8</ele>
        <time>2016-05-06T16:14:48Z</time>
      </trkpt>
      <trkpt lat="45.64018" lon="6.87106">
        <ele>1979.6</ele>
        <time>2016-05-06T16:14:50Z</time>
      </trkpt>
      <trkpt lat="45.64017" lon="6.87106">
        <ele>1978.6</ele>
        <time>2016-05-06T16:14:52Z</time>
      </trkpt>
      <trkpt lat="45.64016" lon="6.87104">
        <ele>1979</ele>
        <time>2016-05-06T16:14:54Z</time>
      </trkpt>
      <trkpt lat="45.64017" lon="6.87103">
        <ele>1979.2</ele>
        <time>2016-05-06T16:14:56Z</time>
      </trkpt>
      <trkpt lat="45.64017" lon="6.87101">
        <ele>1979.4</ele>
        <time>2016-05-06T16:14:58Z</time>
      </trkpt>
      <trkpt lat="45.64017" lon="6.87099">
        <ele>1979.4</ele>
        <time>2016-05-06T16:15:00Z</time>
      </trkpt>
      <trkpt lat="45.6402" lon="6.871">
        <ele>1979.5</ele>
        <time>2016-05-06T16:15:02Z</time>
      </trkpt>
      <trkpt lat="45.64022" lon="6.87101">
        <ele>1979.7</ele>
        <time>2016-05-06T16:15:04Z</time>
      </trkpt>
      <trkpt lat="45.64024" lon="6.87102">
        <ele>1979.4</ele>
        <time>2016-05-06T16:15:06Z</time>
      </trkpt>
      <trkpt lat="45.64025" lon="6.87104">
        <ele>1979.7</ele>
        <time>2016-05-06T16:15:08Z</time>
      </trkpt>
      <trkpt lat="45.64024" lon="6.87107">
        <ele>1980.1</ele>
        <time>2016-05-06T16:15:10Z</time>
      </trkpt>
      <trkpt lat="45.64024" lon="6.87107">
        <ele>1979.7</ele>
        <time>2016-05-06T16:15:12Z</time>
      </trkpt>
      <trkpt lat="45.64024" lon="6.87107">
        <ele>1978.7</ele>
        <time>2016-05-06T16:15:14Z</time>
      </trkpt>
      <trkpt lat="45.64024" lon="6.87107">
        <ele>1978.5</ele>
        <time>2016-05-06T16:15:16Z</time>
      </trkpt>
      <trkpt lat="45.64023" lon="6.87107">
        <ele>1979</ele>
        <time>2016-05-06T16:15:18Z</time>
      </trkpt>
      <trkpt lat="45.64023" lon="6.87107">
        <ele>1979</ele>
        <time>2016-05-06T16:15:20Z</time>
      </trkpt>
      <trkpt lat="45.64023" lon="6.87107">
        <ele>1979.2</ele>
        <time>2016-05-06T16:15:22Z</time>
      </trkpt>
      <trkpt lat="45.64023" lon="6.87107">
        <ele>1979.1</ele>
        <time>2016-05-06T16:15:24Z</time>
      </trkpt>
      <trkpt lat="45.64024" lon="6.87106">
        <ele>1977.8</ele>
        <time>2016-05-06T16:15:26Z</time>
      </trkpt>
      <trkpt lat="45.64024" lon="6.87107">
        <ele>1986.5</ele>
        <time>2016-05-06T16:15:28Z</time>
      </trkpt>
      <trkpt lat="45.64023" lon="6.87106">
        <ele>1985</ele>
        <time>2016-05-06T16:15:30Z</time>
      </trkpt>
      <trkpt lat="45.64023" lon="6.87105">
        <ele>1983.4</ele>
        <time>2016-05-06T16:15:32Z</time>
      </trkpt>
      <trkpt lat="45.64023" lon="6.87105">
        <ele>1982.3</ele>
        <time>2016-05-06T16:15:34Z</time>
      </trkpt>
      <trkpt lat="45.64022" lon="6.87104">
        <ele>1981.5</ele>
        <time>2016-05-06T16:15:36Z</time>
      </trkpt>
      <trkpt lat="45.64022" lon="6.87105">
        <ele>1981</ele>
        <time>2016-05-06T16:15:38Z</time>
      </trkpt>
      <trkpt lat="45.64021" lon="6.87104">
        <ele>1980.6</ele>
        <time>2016-05-06T16:15:40Z</time>
      </trkpt>
      <trkpt lat="45.64021" lon="6.87104">
        <ele>1980</ele>
        <time>2016-05-06T16:15:42Z</time>
      </trkpt>
      <trkpt lat="45.64022" lon="6.87105">
        <ele>1980.4</ele>
        <time>2016-05-06T16:15:44Z</time>
      </trkpt>
      <trkpt lat="45.64022" lon="6.87106">
        <ele>1980</ele>
        <time>2016-05-06T16:15:47Z</time>
      </trkpt>
      <trkpt lat="45.64023" lon="6.87106">
        <ele>1980.3</ele>
        <time>2016-05-06T16:15:50Z</time>
      </trkpt>
      <trkpt lat="45.64023" lon="6.87106">
        <ele>1979.9</ele>
        <time>2016-05-06T16:15:52Z</time>
      </trkpt>
      <trkpt lat="45.64023" lon="6.87106">
        <ele>1979.9</ele>
        <time>2016-05-06T16:15:54Z</time>
      </trkpt>
      <trkpt lat="45.64023" lon="6.87107">
        <ele>1979.4</ele>
        <time>2016-05-06T16:15:56Z</time>
      </trkpt>
      <trkpt lat="45.64023" lon="6.87107">
        <ele>1979.3</ele>
        <time>2016-05-06T16:15:58Z</time>
      </trkpt>
      <trkpt lat="45.64024" lon="6.87108">
        <ele>1979.3</ele>
        <time>2016-05-06T16:16:00Z</time>
      </trkpt>
      <trkpt lat="45.64025" lon="6.87108">
        <ele>1979.2</ele>
        <time>2016-05-06T16:16:02Z</time>
      </trkpt>
      <trkpt lat="45.64025" lon="6.87107">
        <ele>1979.1</ele>
        <time>2016-05-06T16:16:04Z</time>
      </trkpt>
      <trkpt lat="45.64025" lon="6.87107">
        <ele>1979.1</ele>
        <time>2016-05-06T16:16:06Z</time>
      </trkpt>
      <trkpt lat="45.64023" lon="6.87107">
        <ele>1979.4</ele>
        <time>2016-05-06T16:16:08Z</time>
      </trkpt>
      <trkpt lat="45.64024" lon="6.87108">
        <ele>1979.5</ele>
        <time>2016-05-06T16:16:10Z</time>
      </trkpt>
      <trkpt lat="45.64024" lon="6.8711">
        <ele>1979.4</ele>
        <time>2016-05-06T16:16:12Z</time>
      </trkpt>
      <trkpt lat="45.64024" lon="6.8711">
        <ele>1979.4</ele>
        <time>2016-05-06T16:16:14Z</time>
      </trkpt>
      <trkpt lat="45.64024" lon="6.87111">
        <ele>1979.5</ele>
        <time>2016-05-06T16:16:16Z</time>
      </trkpt>
      <trkpt lat="45.64025" lon="6.87112">
        <ele>1979.5</ele>
        <time>2016-05-06T16:16:18Z</time>
      </trkpt>
      <trkpt lat="45.64025" lon="6.8711">
        <ele>1979.6</ele>
        <time>2016-05-06T16:16:20Z</time>
      </trkpt>
      <trkpt lat="45.64025" lon="6.8711">
        <ele>1979.2</ele>
        <time>2016-05-06T16:16:22Z</time>
      </trkpt>
      <trkpt lat="45.64025" lon="6.8711">
        <ele>1979.5</ele>
        <time>2016-05-06T16:16:24Z</time>
      </trkpt>
      <trkpt lat="45.64025" lon="6.87108">
        <ele>1979.7</ele>
        <time>2016-05-06T16:16:26Z</time>
      </trkpt>
      <trkpt lat="45.64025" lon="6.87108">
        <ele>1979.6</ele>
        <time>2016-05-06T16:16:28Z</time>
      </trkpt>
      <trkpt lat="45.64027" lon="6.87109">
        <ele>1979.7</ele>
        <time>2016-05-06T16:16:30Z</time>
      </trkpt>
      <trkpt lat="45.64028" lon="6.87108">
        <ele>1979.6</ele>
        <time>2016-05-06T16:16:32Z</time>
      </trkpt>
      <trkpt lat="45.64029" lon="6.87107">
        <ele>1979.7</ele>
        <time>2016-05-06T16:16:34Z</time>
      </trkpt>
      <trkpt lat="45.6403" lon="6.87108">
        <ele>1979.9</ele>
        <time>2016-05-06T16:16:36Z</time>
      </trkpt>
      <trkpt lat="45.64031" lon="6.87108">
        <ele>1980</ele>
        <time>2016-05-06T16:16:38Z</time>
      </trkpt>
      <trkpt lat="45.6403" lon="6.87108">
        <ele>1979.9</ele>
        <time>2016-05-06T16:16:40Z</time>
      </trkpt>
      <trkpt lat="45.64031" lon="6.87106">
        <ele>1980</ele>
        <time>2016-05-06T16:16:42Z</time>
      </trkpt>
      <trkpt lat="45.64031" lon="6.87106">
        <ele>1980.1</ele>
        <time>2016-05-06T16:16:44Z</time>
      </trkpt>
      <trkpt lat="45.6403" lon="6.87105">
        <ele>1980.1</ele>
        <time>2016-05-06T16:16:46Z</time>
      </trkpt>
      <trkpt lat="45.6403" lon="6.87105">
        <ele>1980</ele>
        <time>2016-05-06T16:16:48Z</time>
      </trkpt>
      <trkpt lat="45.64031" lon="6.87105">
        <ele>1980</ele>
        <time>2016-05-06T16:16:50Z</time>
      </trkpt>
      <trkpt lat="45.64031" lon="6.87105">
        <ele>1980.1</ele>
        <time>2016-05-06T16:16:52Z</time>
      </trkpt>
      <trkpt lat="45.64031" lon="6.87105">
        <ele>1980.4</ele>
        <time>2016-05-06T16:16:54Z</time>
      </trkpt>
      <trkpt lat="45.64031" lon="6.87106">
        <ele>1980.3</ele>
        <time>2016-05-06T16:16:56Z</time>
      </trkpt>
      <trkpt lat="45.64031" lon="6.87106">
        <ele>1980.4</ele>
        <time>2016-05-06T16:16:58Z</time>
      </trkpt>
      <trkpt lat="45.64031" lon="6.87107">
        <ele>1980.5</ele>
        <time>2016-05-06T16:17:00Z</time>
      </trkpt>
      <trkpt lat="45.64031" lon="6.87105">
        <ele>1980.7</ele>
        <time>2016-05-06T16:17:02Z</time>
      </trkpt>
      <trkpt lat="45.64032" lon="6.87105">
        <ele>1980.7</ele>
        <time>2016-05-06T16:17:04Z</time>
      </trkpt>
      <trkpt lat="45.64032" lon="6.87105">
        <ele>1980.8</ele>
        <time>2016-05-06T16:17:06Z</time>
      </trkpt>
      <trkpt lat="45.64032" lon="6.87105">
        <ele>1980.9</ele>
        <time>2016-05-06T16:17:08Z</time>
      </trkpt>
      <trkpt lat="45.64034" lon="6.87106">
        <ele>1980.9</ele>
        <time>2016-05-06T16:17:10Z</time>
      </trkpt>
      <trkpt lat="45.64034" lon="6.87106">
        <ele>1981.1</ele>
        <time>2016-05-06T16:17:12Z</time>
      </trkpt>
      <trkpt lat="45.64035" lon="6.87108">
        <ele>1981.2</ele>
        <time>2016-05-06T16:17:14Z</time>
      </trkpt>
      <trkpt lat="45.64036" lon="6.87108">
        <ele>1981.2</ele>
        <time>2016-05-06T16:17:16Z</time>
      </trkpt>
      <trkpt lat="45.64036" lon="6.87108">
        <ele>1981.1</ele>
        <time>2016-05-06T16:17:18Z</time>
      </trkpt>
      <trkpt lat="45.64037" lon="6.87108">
        <ele>1981</ele>
        <time>2016-05-06T16:17:20Z</time>
      </trkpt>
      <trkpt lat="45.64037" lon="6.87107">
        <ele>1981.4</ele>
        <time>2016-05-06T16:17:22Z</time>
      </trkpt>
      <trkpt lat="45.64037" lon="6.87107">
        <ele>1981.5</ele>
        <time>2016-05-06T16:17:24Z</time>
      </trkpt>
      <trkpt lat="45.64038" lon="6.87108">
        <ele>1981.5</ele>
        <time>2016-05-06T16:17:26Z</time>
      </trkpt>
      <trkpt lat="45.64038" lon="6.87107">
        <ele>1981</ele>
        <time>2016-05-06T16:17:28Z</time>
      </trkpt>
      <trkpt lat="45.64038" lon="6.87107">
        <ele>1981.3</ele>
        <time>2016-05-06T16:17:31Z</time>
      </trkpt>
      <trkpt lat="45.64038" lon="6.87106">
        <ele>1981</ele>
        <time>2016-05-06T16:17:33Z</time>
      </trkpt>
      <trkpt lat="45.64038" lon="6.87106">
        <ele>1981.6</ele>
        <time>2016-05-06T16:17:36Z</time>
      </trkpt>
      <trkpt lat="45.64039" lon="6.87105">
        <ele>1981.8</ele>
        <time>2016-05-06T16:17:38Z</time>
      </trkpt>
      <trkpt lat="45.64038" lon="6.87104">
        <ele>1981.7</ele>
        <time>2016-05-06T16:17:40Z</time>
      </trkpt>
      <trkpt lat="45.64039" lon="6.87104">
        <ele>1981.8</ele>
        <time>2016-05-06T16:17:42Z</time>
      </trkpt>
      <trkpt lat="45.64038" lon="6.87104">
        <ele>1981.9</ele>
        <time>2016-05-06T16:17:44Z</time>
      </trkpt>
      <trkpt lat="45.64039" lon="6.87104">
        <ele>1981.9</ele>
        <time>2016-05-06T16:17:46Z</time>
      </trkpt>
      <trkpt lat="45.6404" lon="6.87104">
        <ele>1981</ele>
        <time>2016-05-06T16:17:48Z</time>
      </trkpt>
      <trkpt lat="45.64041" lon="6.87104">
        <ele>1982.3</ele>
        <time>2016-05-06T16:17:51Z</time>
      </trkpt>
      <trkpt lat="45.64041" lon="6.87105">
        <ele>1982.3</ele>
        <time>2016-05-06T16:17:53Z</time>
      </trkpt>
      <trkpt lat="45.64041" lon="6.87106">
        <ele>1982.4</ele>
        <time>2016-05-06T16:17:55Z</time>
      </trkpt>
      <trkpt lat="45.64041" lon="6.87106">
        <ele>1982</ele>
        <time>2016-05-06T16:17:57Z</time>
      </trkpt>
      <trkpt lat="45.64042" lon="6.87106">
        <ele>1982.7</ele>
        <time>2016-05-06T16:18:00Z</time>
      </trkpt>
      <trkpt lat="45.64042" lon="6.87106">
        <ele>1982.7</ele>
        <time>2016-05-06T16:18:02Z</time>
      </trkpt>
      <trkpt lat="45.64043" lon="6.87106">
        <ele>1982</ele>
        <time>2016-05-06T16:18:05Z</time>
      </trkpt>
      <trkpt lat="45.64043" lon="6.87107">
        <ele>1982.8</ele>
        <time>2016-05-06T16:18:08Z</time>
      </trkpt>
      <trkpt lat="45.64043" lon="6.87107">
        <ele>1982.7</ele>
        <time>2016-05-06T16:18:10Z</time>
      </trkpt>
      <trkpt lat="45.64043" lon="6.87107">
        <ele>1982.7</ele>
        <time>2016-05-06T16:18:12Z</time>
      </trkpt>
      <trkpt lat="45.64043" lon="6.87107">
        <ele>1982.8</ele>
        <time>2016-05-06T16:18:14Z</time>
      </trkpt>
      <trkpt lat="45.64044" lon="6.87108">
        <ele>1982.8</ele>
        <time>2016-05-06T16:18:16Z</time>
      </trkpt>
      <trkpt lat="45.64044" lon="6.87107">
        <ele>1982.7</ele>
        <time>2016-05-06T16:18:18Z</time>
      </trkpt>
      <trkpt lat="45.64044" lon="6.87108">
        <ele>1982</ele>
        <time>2016-05-06T16:18:20Z</time>
      </trkpt>
      <trkpt lat="45.64045" lon="6.87109">
        <ele>1982.5</ele>
        <time>2016-05-06T16:18:23Z</time>
      </trkpt>
      <trkpt lat="45.64045" lon="6.87111">
        <ele>1982</ele>
        <time>2016-05-06T16:18:26Z</time>
      </trkpt>
      <trkpt lat="45.64046" lon="6.87115">
        <ele>1982.4</ele>
        <time>2016-05-06T16:18:31Z</time>
      </trkpt>
      <trkpt lat="45.64047" lon="6.87117">
        <ele>1982.5</ele>
        <time>2016-05-06T16:18:33Z</time>
      </trkpt>
      <trkpt lat="45.64047" lon="6.87118">
        <ele>1982.6</ele>
        <time>2016-05-06T16:18:35Z</time>
      </trkpt>
      <trkpt lat="45.64046" lon="6.87118">
        <ele>1982.7</ele>
        <time>2016-05-06T16:18:37Z</time>
      </trkpt>
      <trkpt lat="45.64046" lon="6.87119">
        <ele>1982.9</ele>
        <time>2016-05-06T16:18:39Z</time>
      </trkpt>
      <trkpt lat="45.64048" lon="6.87126">
        <ele>1983.1</ele>
        <time>2016-05-06T16:18:41Z</time>
      </trkpt>
      <trkpt lat="45.64048" lon="6.87129">
        <ele>1983.1</ele>
        <time>2016-05-06T16:18:43Z</time>
      </trkpt>
      <trkpt lat="45.64047" lon="6.8713">
        <ele>1982.5</ele>
        <time>2016-05-06T16:18:45Z</time>
      </trkpt>
      <trkpt lat="45.64047" lon="6.87131">
        <ele>1982.4</ele>
        <time>2016-05-06T16:18:47Z</time>
      </trkpt>
      <trkpt lat="45.64047" lon="6.87132">
        <ele>1982</ele>
        <time>2016-05-06T16:18:49Z</time>
      </trkpt>
      <trkpt lat="45.64046" lon="6.87131">
        <ele>1982.1</ele>
        <time>2016-05-06T16:18:52Z</time>
      </trkpt>
      <trkpt lat="45.64046" lon="6.87131">
        <ele>1981.9</ele>
        <time>2016-05-06T16:18:54Z</time>
      </trkpt>
      <trkpt lat="45.64046" lon="6.87131">
        <ele>1981.7</ele>
        <time>2016-05-06T16:18:56Z</time>
      </trkpt>
      <trkpt lat="45.64046" lon="6.87132">
        <ele>1981</ele>
        <time>2016-05-06T16:18:58Z</time>
      </trkpt>
      <trkpt lat="45.64046" lon="6.87131">
        <ele>1981</ele>
        <time>2016-05-06T16:19:02Z</time>
      </trkpt>
      <trkpt lat="45.64046" lon="6.87132">
        <ele>1981.7</ele>
        <time>2016-05-06T16:19:05Z</time>
      </trkpt>
      <trkpt lat="45.64046" lon="6.87132">
        <ele>1981</ele>
        <time>2016-05-06T16:19:07Z</time>
      </trkpt>
      <trkpt lat="45.64047" lon="6.87133">
        <ele>1981.6</ele>
        <time>2016-05-06T16:19:10Z</time>
      </trkpt>
      <trkpt lat="45.64046" lon="6.87133">
        <ele>1981</ele>
        <time>2016-05-06T16:19:12Z</time>
      </trkpt>
      <trkpt lat="45.64046" lon="6.87133">
        <ele>1981</ele>
        <time>2016-05-06T16:19:16Z</time>
      </trkpt>
      <trkpt lat="45.64046" lon="6.87133">
        <ele>1981</ele>
        <time>2016-05-06T16:19:20Z</time>
      </trkpt>
      <trkpt lat="45.64046" lon="6.87133">
        <ele>1981.2</ele>
        <time>2016-05-06T16:19:23Z</time>
      </trkpt>
      <trkpt lat="45.64046" lon="6.87131">
        <ele>1981</ele>
        <time>2016-05-06T16:19:25Z</time>
      </trkpt>
      <trkpt lat="45.64044" lon="6.8713">
        <ele>1981.3</ele>
        <time>2016-05-06T16:19:28Z</time>
      </trkpt>
      <trkpt lat="45.64043" lon="6.87127">
        <ele>1981</ele>
        <time>2016-05-06T16:19:30Z</time>
      </trkpt>
      <trkpt lat="45.64041" lon="6.87124">
        <ele>1981.3</ele>
        <time>2016-05-06T16:19:33Z</time>
      </trkpt>
      <trkpt lat="45.64039" lon="6.87121">
        <ele>1981.3</ele>
        <time>2016-05-06T16:19:35Z</time>
      </trkpt>
      <trkpt lat="45.64037" lon="6.87119">
        <ele>1981.2</ele>
        <time>2016-05-06T16:19:37Z</time>
      </trkpt>
      <trkpt lat="45.64035" lon="6.87116">
        <ele>1981</ele>
        <time>2016-05-06T16:19:39Z</time>
      </trkpt>
      <trkpt lat="45.64033" lon="6.87114">
        <ele>1980</ele>
        <time>2016-05-06T16:19:41Z</time>
      </trkpt>
      <trkpt lat="45.64031" lon="6.87111">
        <ele>1980.5</ele>
        <time>2016-05-06T16:19:44Z</time>
      </trkpt>
      <trkpt lat="45.64028" lon="6.87108">
        <ele>1980</ele>
        <time>2016-05-06T16:19:47Z</time>
      </trkpt>
      <trkpt lat="45.64026" lon="6.87106">
        <ele>1980.2</ele>
        <time>2016-05-06T16:19:50Z</time>
      </trkpt>
      <trkpt lat="45.64025" lon="6.87105">
        <ele>1979</ele>
        <time>2016-05-06T16:19:52Z</time>
      </trkpt>
      <trkpt lat="45.64022" lon="6.87103">
        <ele>1979.8</ele>
        <time>2016-05-06T16:19:55Z</time>
      </trkpt>
      <trkpt lat="45.64021" lon="6.87103">
        <ele>1979.8</ele>
        <time>2016-05-06T16:19:57Z</time>
      </trkpt>
      <trkpt lat="45.64021" lon="6.87102">
        <ele>1979.5</ele>
        <time>2016-05-06T16:19:59Z</time>
      </trkpt>
      <trkpt lat="45.64022" lon="6.87103">
        <ele>1979</ele>
        <time>2016-05-06T16:20:01Z</time>
      </trkpt>
      <trkpt lat="45.64023" lon="6.87103">
        <ele>1979</ele>
        <time>2016-05-06T16:20:04Z</time>
      </trkpt>
      <trkpt lat="45.64023" lon="6.87103">
        <ele>1979</ele>
        <time>2016-05-06T16:20:06Z</time>
      </trkpt>
      <trkpt lat="45.64023" lon="6.87102">
        <ele>1979.2</ele>
        <time>2016-05-06T16:20:08Z</time>
      </trkpt>
      <trkpt lat="45.64024" lon="6.87101">
        <ele>1979.3</ele>
        <time>2016-05-06T16:20:10Z</time>
      </trkpt>
      <trkpt lat="45.64024" lon="6.871">
        <ele>1979.5</ele>
        <time>2016-05-06T16:20:12Z</time>
      </trkpt>
      <trkpt lat="45.64024" lon="6.87101">
        <ele>1979.5</ele>
        <time>2016-05-06T16:20:14Z</time>
      </trkpt>
      <trkpt lat="45.64023" lon="6.87101">
        <ele>1979.9</ele>
        <time>2016-05-06T16:20:16Z</time>
      </trkpt>
      <trkpt lat="45.64023" lon="6.87102">
        <ele>1980.1</ele>
        <time>2016-05-06T16:20:18Z</time>
      </trkpt>
      <trkpt lat="45.64022" lon="6.87102">
        <ele>1980.1</ele>
        <time>2016-05-06T16:20:20Z</time>
      </trkpt>
      <trkpt lat="45.64022" lon="6.87102">
        <ele>1980</ele>
        <time>2016-05-06T16:20:22Z</time>
      </trkpt>
      <trkpt lat="45.64022" lon="6.87102">
        <ele>1979.8</ele>
        <time>2016-05-06T16:20:24Z</time>
      </trkpt>
      <trkpt lat="45.64022" lon="6.871">
        <ele>1979.5</ele>
        <time>2016-05-06T16:20:26Z</time>
      </trkpt>
      <trkpt lat="45.64023" lon="6.87098">
        <ele>1979.6</ele>
        <time>2016-05-06T16:20:28Z</time>
      </trkpt>
      <trkpt lat="45.64024" lon="6.87098">
        <ele>1979.9</ele>
        <time>2016-05-06T16:20:30Z</time>
      </trkpt>
      <trkpt lat="45.64025" lon="6.87097">
        <ele>1980</ele>
        <time>2016-05-06T16:20:32Z</time>
      </trkpt>
      <trkpt lat="45.64025" lon="6.87097">
        <ele>1979.9</ele>
        <time>2016-05-06T16:20:34Z</time>
      </trkpt>
      <trkpt lat="45.64025" lon="6.87097">
        <ele>1979.9</ele>
        <time>2016-05-06T16:20:36Z</time>
      </trkpt>
      <trkpt lat="45.64025" lon="6.87097">
        <ele>1980</ele>
        <time>2016-05-06T16:20:38Z</time>
      </trkpt>
      <trkpt lat="45.64026" lon="6.87097">
        <ele>1980</ele>
        <time>2016-05-06T16:20:40Z</time>
      </trkpt>
      <trkpt lat="45.64025" lon="6.87097">
        <ele>1980.1</ele>
        <time>2016-05-06T16:20:42Z</time>
      </trkpt>
      <trkpt lat="45.64025" lon="6.87097">
        <ele>1980.1</ele>
        <time>2016-05-06T16:20:44Z</time>
      </trkpt>
      <trkpt lat="45.64025" lon="6.87096">
        <ele>1979.8</ele>
        <time>2016-05-06T16:20:46Z</time>
      </trkpt>
      <trkpt lat="45.64026" lon="6.87094">
        <ele>1979.7</ele>
        <time>2016-05-06T16:20:48Z</time>
      </trkpt>
      <trkpt lat="45.64026" lon="6.87091">
        <ele>1979</ele>
        <time>2016-05-06T16:20:50Z</time>
      </trkpt>
      <trkpt lat="45.64027" lon="6.87089">
        <ele>1979.9</ele>
        <time>2016-05-06T16:20:53Z</time>
      </trkpt>
      <trkpt lat="45.64026" lon="6.8709">
        <ele>1979.7</ele>
        <time>2016-05-06T16:20:55Z</time>
      </trkpt>
      <trkpt lat="45.64025" lon="6.8709">
        <ele>1979.8</ele>
        <time>2016-05-06T16:20:57Z</time>
      </trkpt>
      <trkpt lat="45.64024" lon="6.8709">
        <ele>1979.7</ele>
        <time>2016-05-06T16:20:59Z</time>
      </trkpt>
      <trkpt lat="45.64024" lon="6.8709">
        <ele>1980</ele>
        <time>2016-05-06T16:21:01Z</time>
      </trkpt>
      <trkpt lat="45.64024" lon="6.87091">
        <ele>1980.1</ele>
        <time>2016-05-06T16:21:03Z</time>
      </trkpt>
      <trkpt lat="45.64023" lon="6.87091">
        <ele>1980.2</ele>
        <time>2016-05-06T16:21:05Z</time>
      </trkpt>
      <trkpt lat="45.64023" lon="6.8709">
        <ele>1980.2</ele>
        <time>2016-05-06T16:21:07Z</time>
      </trkpt>
      <trkpt lat="45.64023" lon="6.8709">
        <ele>1980.3</ele>
        <time>2016-05-06T16:21:09Z</time>
      </trkpt>
      <trkpt lat="45.64023" lon="6.8709">
        <ele>1980.2</ele>
        <time>2016-05-06T16:21:11Z</time>
      </trkpt>
      <trkpt lat="45.64024" lon="6.8709">
        <ele>1980.2</ele>
        <time>2016-05-06T16:21:13Z</time>
      </trkpt>
      <trkpt lat="45.64023" lon="6.8709">
        <ele>1980.1</ele>
        <time>2016-05-06T16:21:15Z</time>
      </trkpt>
      <trkpt lat="45.64023" lon="6.8709">
        <ele>1980</ele>
        <time>2016-05-06T16:21:17Z</time>
      </trkpt>
      <trkpt lat="45.64025" lon="6.87089">
        <ele>1980.2</ele>
        <time>2016-05-06T16:21:19Z</time>
      </trkpt>
      <trkpt lat="45.64024" lon="6.87089">
        <ele>1980.3</ele>
        <time>2016-05-06T16:21:21Z</time>
      </trkpt>
      <trkpt lat="45.64024" lon="6.8709">
        <ele>1980.5</ele>
        <time>2016-05-06T16:21:23Z</time>
      </trkpt>
      <trkpt lat="45.64024" lon="6.8709">
        <ele>1980.6</ele>
        <time>2016-05-06T16:21:25Z</time>
      </trkpt>
      <trkpt lat="45.64024" lon="6.87089">
        <ele>1980.6</ele>
        <time>2016-05-06T16:21:27Z</time>
      </trkpt>
      <trkpt lat="45.64025" lon="6.87089">
        <ele>1980.7</ele>
        <time>2016-05-06T16:21:29Z</time>
      </trkpt>
      <trkpt lat="45.64027" lon="6.87089">
        <ele>1980.8</ele>
        <time>2016-05-06T16:21:31Z</time>
      </trkpt>
      <trkpt lat="45.64027" lon="6.8709">
        <ele>1980.3</ele>
        <time>2016-05-06T16:21:33Z</time>
      </trkpt>
      <trkpt lat="45.64027" lon="6.8709">
        <ele>1980.6</ele>
        <time>2016-05-06T16:21:35Z</time>
      </trkpt>
      <trkpt lat="45.64027" lon="6.8709">
        <ele>1980.8</ele>
        <time>2016-05-06T16:21:37Z</time>
      </trkpt>
      <trkpt lat="45.64026" lon="6.87089">
        <ele>1980.8</ele>
        <time>2016-05-06T16:21:39Z</time>
      </trkpt>
      <trkpt lat="45.64025" lon="6.87089">
        <ele>1980.8</ele>
        <time>2016-05-06T16:21:41Z</time>
      </trkpt>
      <trkpt lat="45.64025" lon="6.87089">
        <ele>1980.2</ele>
        <time>2016-05-06T16:21:43Z</time>
      </trkpt>
      <trkpt lat="45.64025" lon="6.87089">
        <ele>1980.4</ele>
        <time>2016-05-06T16:21:45Z</time>
      </trkpt>
      <trkpt lat="45.64025" lon="6.8709">
        <ele>1980.5</ele>
        <time>2016-05-06T16:21:47Z</time>
      </trkpt>
      <trkpt lat="45.64025" lon="6.8709">
        <ele>1980.5</ele>
        <time>2016-05-06T16:21:49Z</time>
      </trkpt>
      <trkpt lat="45.64025" lon="6.8709">
        <ele>1980.4</ele>
        <time>2016-05-06T16:21:51Z</time>
      </trkpt>
      <trkpt lat="45.64025" lon="6.87089">
        <ele>1980.7</ele>
        <time>2016-05-06T16:21:53Z</time>
      </trkpt>
      <trkpt lat="45.64025" lon="6.8709">
        <ele>1980.9</ele>
        <time>2016-05-06T16:21:55Z</time>
      </trkpt>
      <trkpt lat="45.64025" lon="6.8709">
        <ele>1981</ele>
        <time>2016-05-06T16:21:57Z</time>
      </trkpt>
      <trkpt lat="45.64025" lon="6.8709">
        <ele>1980.8</ele>
        <time>2016-05-06T16:21:59Z</time>
      </trkpt>
      <trkpt lat="45.64025" lon="6.8709">
        <ele>1980.8</ele>
        <time>2016-05-06T16:22:01Z</time>
      </trkpt>
      <trkpt lat="45.64025" lon="6.8709">
        <ele>1980.7</ele>
        <time>2016-05-06T16:22:03Z</time>
      </trkpt>
      <trkpt lat="45.64027" lon="6.8709">
        <ele>1980.7</ele>
        <time>2016-05-06T16:22:05Z</time>
      </trkpt>
      <trkpt lat="45.64027" lon="6.8709">
        <ele>1980.7</ele>
        <time>2016-05-06T16:22:07Z</time>
      </trkpt>
      <trkpt lat="45.64028" lon="6.87091">
        <ele>1980.6</ele>
        <time>2016-05-06T16:22:09Z</time>
      </trkpt>
      <trkpt lat="45.64029" lon="6.87091">
        <ele>1980.4</ele>
        <time>2016-05-06T16:22:11Z</time>
      </trkpt>
      <trkpt lat="45.64029" lon="6.87092">
        <ele>1980.5</ele>
        <time>2016-05-06T16:22:13Z</time>
      </trkpt>
      <trkpt lat="45.64029" lon="6.87092">
        <ele>1980.4</ele>
        <time>2016-05-06T16:22:15Z</time>
      </trkpt>
      <trkpt lat="45.64029" lon="6.87092">
        <ele>1980.3</ele>
        <time>2016-05-06T16:22:17Z</time>
      </trkpt>
      <trkpt lat="45.64029" lon="6.87092">
        <ele>1980.4</ele>
        <time>2016-05-06T16:22:19Z</time>
      </trkpt>
      <trkpt lat="45.64029" lon="6.87092">
        <ele>1980.5</ele>
        <time>2016-05-06T16:22:21Z</time>
      </trkpt>
      <trkpt lat="45.64029" lon="6.87092">
        <ele>1980.5</ele>
        <time>2016-05-06T16:22:23Z</time>
      </trkpt>
      <trkpt lat="45.64029" lon="6.87092">
        <ele>1980.6</ele>
        <time>2016-05-06T16:22:25Z</time>
      </trkpt>
      <trkpt lat="45.64029" lon="6.87092">
        <ele>1980.6</ele>
        <time>2016-05-06T16:22:27Z</time>
      </trkpt>
      <trkpt lat="45.64028" lon="6.87092">
        <ele>1980.5</ele>
        <time>2016-05-06T16:22:29Z</time>
      </trkpt>
      <trkpt lat="45.64028" lon="6.87092">
        <ele>1980.5</ele>
        <time>2016-05-06T16:22:31Z</time>
      </trkpt>
      <trkpt lat="45.64028" lon="6.87092">
        <ele>1980.4</ele>
        <time>2016-05-06T16:22:33Z</time>
      </trkpt>
      <trkpt lat="45.64028" lon="6.87092">
        <ele>1980.5</ele>
        <time>2016-05-06T16:22:35Z</time>
      </trkpt>
      <trkpt lat="45.64028" lon="6.87092">
        <ele>1980.5</ele>
        <time>2016-05-06T16:22:37Z</time>
      </trkpt>
      <trkpt lat="45.64028" lon="6.87092">
        <ele>1980.5</ele>
        <time>2016-05-06T16:22:39Z</time>
      </trkpt>
      <trkpt lat="45.64028" lon="6.87093">
        <ele>1980.5</ele>
        <time>2016-05-06T16:22:41Z</time>
      </trkpt>
      <trkpt lat="45.64028" lon="6.87093">
        <ele>1980.5</ele>
        <time>2016-05-06T16:22:43Z</time>
      </trkpt>
      <trkpt lat="45.64028" lon="6.87093">
        <ele>1980.5</ele>
        <time>2016-05-06T16:22:45Z</time>
      </trkpt>
      <trkpt lat="45.64028" lon="6.87093">
        <ele>1980.5</ele>
        <time>2016-05-06T16:22:47Z</time>
      </trkpt>
      <trkpt lat="45.64028" lon="6.87094">
        <ele>1980.5</ele>
        <time>2016-05-06T16:22:49Z</time>
      </trkpt>
      <trkpt lat="45.64028" lon="6.87094">
        <ele>1980.4</ele>
        <time>2016-05-06T16:22:51Z</time>
      </trkpt>
      <trkpt lat="45.64028" lon="6.87095">
        <ele>1980.4</ele>
        <time>2016-05-06T16:22:53Z</time>
      </trkpt>
      <trkpt lat="45.64028" lon="6.87095">
        <ele>1980.2</ele>
        <time>2016-05-06T16:22:55Z</time>
      </trkpt>
      <trkpt lat="45.64026" lon="6.87094">
        <ele>1980.3</ele>
        <time>2016-05-06T16:22:57Z</time>
      </trkpt>
      <trkpt lat="45.64024" lon="6.87094">
        <ele>1980.2</ele>
        <time>2016-05-06T16:22:59Z</time>
      </trkpt>
      <trkpt lat="45.64023" lon="6.87094">
        <ele>1980.3</ele>
        <time>2016-05-06T16:23:01Z</time>
      </trkpt>
      <trkpt lat="45.64023" lon="6.87095">
        <ele>1980.3</ele>
        <time>2016-05-06T16:23:03Z</time>
      </trkpt>
      <trkpt lat="45.64022" lon="6.87095">
        <ele>1980.4</ele>
        <time>2016-05-06T16:23:05Z</time>
      </trkpt>
      <trkpt lat="45.64022" lon="6.87095">
        <ele>1979.9</ele>
        <time>2016-05-06T16:23:07Z</time>
      </trkpt>
      <trkpt lat="45.64022" lon="6.87095">
        <ele>1979.7</ele>
        <time>2016-05-06T16:23:09Z</time>
      </trkpt>
      <trkpt lat="45.64022" lon="6.87095">
        <ele>1979.8</ele>
        <time>2016-05-06T16:23:11Z</time>
      </trkpt>
      <trkpt lat="45.64022" lon="6.87095">
        <ele>1979.8</ele>
        <time>2016-05-06T16:23:13Z</time>
      </trkpt>
      <trkpt lat="45.64022" lon="6.87095">
        <ele>1979.9</ele>
        <time>2016-05-06T16:23:15Z</time>
      </trkpt>
      <trkpt lat="45.64022" lon="6.87096">
        <ele>1979.9</ele>
        <time>2016-05-06T16:23:17Z</time>
      </trkpt>
      <trkpt lat="45.64022" lon="6.87096">
        <ele>1980</ele>
        <time>2016-05-06T16:23:19Z</time>
      </trkpt>
      <trkpt lat="45.64022" lon="6.87096">
        <ele>1979.7</ele>
        <time>2016-05-06T16:23:21Z</time>
      </trkpt>
      <trkpt lat="45.64022" lon="6.87095">
        <ele>1979.9</ele>
        <time>2016-05-06T16:23:23Z</time>
      </trkpt>
      <trkpt lat="45.64022" lon="6.87094">
        <ele>1980</ele>
        <time>2016-05-06T16:23:25Z</time>
      </trkpt>
      <trkpt lat="45.64023" lon="6.87094">
        <ele>1980</ele>
        <time>2016-05-06T16:23:27Z</time>
      </trkpt>
      <trkpt lat="45.64023" lon="6.87095">
        <ele>1980</ele>
        <time>2016-05-06T16:23:29Z</time>
      </trkpt>
      <trkpt lat="45.64023" lon="6.87095">
        <ele>1980.1</ele>
        <time>2016-05-06T16:23:31Z</time>
      </trkpt>
      <trkpt lat="45.64023" lon="6.87095">
        <ele>1980.1</ele>
        <time>2016-05-06T16:23:33Z</time>
      </trkpt>
      <trkpt lat="45.64023" lon="6.87095">
        <ele>1980.2</ele>
        <time>2016-05-06T16:23:35Z</time>
      </trkpt>
      <trkpt lat="45.64023" lon="6.87095">
        <ele>1980.3</ele>
        <time>2016-05-06T16:23:37Z</time>
      </trkpt>
      <trkpt lat="45.64024" lon="6.87095">
        <ele>1980.3</ele>
        <time>2016-05-06T16:23:39Z</time>
      </trkpt>
      <trkpt lat="45.64024" lon="6.87094">
        <ele>1980.4</ele>
        <time>2016-05-06T16:23:41Z</time>
      </trkpt>
      <trkpt lat="45.64024" lon="6.87094">
        <ele>1980.4</ele>
        <time>2016-05-06T16:23:43Z</time>
      </trkpt>
      <trkpt lat="45.64025" lon="6.87094">
        <ele>1980.5</ele>
        <time>2016-05-06T16:23:45Z</time>
      </trkpt>
      <trkpt lat="45.64024" lon="6.87095">
        <ele>1980.5</ele>
        <time>2016-05-06T16:23:47Z</time>
      </trkpt>
      <trkpt lat="45.64024" lon="6.87094">
        <ele>1980.6</ele>
        <time>2016-05-06T16:23:49Z</time>
      </trkpt>
      <trkpt lat="45.64024" lon="6.87094">
        <ele>1980.8</ele>
        <time>2016-05-06T16:23:51Z</time>
      </trkpt>
      <trkpt lat="45.64024" lon="6.87095">
        <ele>1981</ele>
        <time>2016-05-06T16:23:53Z</time>
      </trkpt>
      <trkpt lat="45.64025" lon="6.87098">
        <ele>1981.1</ele>
        <time>2016-05-06T16:23:55Z</time>
      </trkpt>
      <trkpt lat="45.64024" lon="6.87101">
        <ele>1981</ele>
        <time>2016-05-06T16:23:57Z</time>
      </trkpt>
      <trkpt lat="45.64023" lon="6.87104">
        <ele>1980.7</ele>
        <time>2016-05-06T16:23:59Z</time>
      </trkpt>
      <trkpt lat="45.64023" lon="6.87105">
        <ele>1980.1</ele>
        <time>2016-05-06T16:24:01Z</time>
      </trkpt>
      <trkpt lat="45.64023" lon="6.87105">
        <ele>1980</ele>
        <time>2016-05-06T16:24:03Z</time>
      </trkpt>
      <trkpt lat="45.64025" lon="6.87106">
        <ele>1979.9</ele>
        <time>2016-05-06T16:24:05Z</time>
      </trkpt>
      <trkpt lat="45.64026" lon="6.87106">
        <ele>1979.9</ele>
        <time>2016-05-06T16:24:07Z</time>
      </trkpt>
      <trkpt lat="45.64027" lon="6.87108">
        <ele>1979.9</ele>
        <time>2016-05-06T16:24:09Z</time>
      </trkpt>
      <trkpt lat="45.64029" lon="6.87109">
        <ele>1979.8</ele>
        <time>2016-05-06T16:24:11Z</time>
      </trkpt>
      <trkpt lat="45.6403" lon="6.8711">
        <ele>1979.8</ele>
        <time>2016-05-06T16:24:13Z</time>
      </trkpt>
      <trkpt lat="45.64031" lon="6.87112">
        <ele>1979.8</ele>
        <time>2016-05-06T16:24:15Z</time>
      </trkpt>
      <trkpt lat="45.64032" lon="6.87113">
        <ele>1980</ele>
        <time>2016-05-06T16:24:17Z</time>
      </trkpt>
      <trkpt lat="45.64034" lon="6.87114">
        <ele>1980.1</ele>
        <time>2016-05-06T16:24:19Z</time>
      </trkpt>
      <trkpt lat="45.64035" lon="6.87116">
        <ele>1980.2</ele>
        <time>2016-05-06T16:24:21Z</time>
      </trkpt>
      <trkpt lat="45.64036" lon="6.87118">
        <ele>1980.2</ele>
        <time>2016-05-06T16:24:23Z</time>
      </trkpt>
      <trkpt lat="45.64037" lon="6.8712">
        <ele>1980.2</ele>
        <time>2016-05-06T16:24:25Z</time>
      </trkpt>
      <trkpt lat="45.64038" lon="6.87122">
        <ele>1980.3</ele>
        <time>2016-05-06T16:24:27Z</time>
      </trkpt>
      <trkpt lat="45.64039" lon="6.87123">
        <ele>1980.2</ele>
        <time>2016-05-06T16:24:29Z</time>
      </trkpt>
      <trkpt lat="45.64038" lon="6.87124">
        <ele>1980.2</ele>
        <time>2016-05-06T16:24:31Z</time>
      </trkpt>
      <trkpt lat="45.64039" lon="6.87124">
        <ele>1980</ele>
        <time>2016-05-06T16:24:33Z</time>
      </trkpt>
      <trkpt lat="45.64039" lon="6.87124">
        <ele>1980</ele>
        <time>2016-05-06T16:24:35Z</time>
      </trkpt>
      <trkpt lat="45.64039" lon="6.87123">
        <ele>1980</ele>
        <time>2016-05-06T16:24:37Z</time>
      </trkpt>
      <trkpt lat="45.64039" lon="6.87122">
        <ele>1980</ele>
        <time>2016-05-06T16:24:39Z</time>
      </trkpt>
      <trkpt lat="45.64038" lon="6.87122">
        <ele>1980.2</ele>
        <time>2016-05-06T16:24:41Z</time>
      </trkpt>
      <trkpt lat="45.64039" lon="6.87123">
        <ele>1980.2</ele>
        <time>2016-05-06T16:24:43Z</time>
      </trkpt>
      <trkpt lat="45.64039" lon="6.87122">
        <ele>1980</ele>
        <time>2016-05-06T16:24:45Z</time>
      </trkpt>
      <trkpt lat="45.64039" lon="6.87122">
        <ele>1980</ele>
        <time>2016-05-06T16:24:47Z</time>
      </trkpt>
      <trkpt lat="45.64039" lon="6.87122">
        <ele>1980.1</ele>
        <time>2016-05-06T16:24:49Z</time>
      </trkpt>
      <trkpt lat="45.64039" lon="6.87122">
        <ele>1980.1</ele>
        <time>2016-05-06T16:24:51Z</time>
      </trkpt>
      <trkpt lat="45.64039" lon="6.87123">
        <ele>1980.1</ele>
        <time>2016-05-06T16:24:53Z</time>
      </trkpt>
      <trkpt lat="45.64039" lon="6.87124">
        <ele>1980.4</ele>
        <time>2016-05-06T16:24:55Z</time>
      </trkpt>
      <trkpt lat="45.64039" lon="6.87124">
        <ele>1980.5</ele>
        <time>2016-05-06T16:24:57Z</time>
      </trkpt>
      <trkpt lat="45.64039" lon="6.87125">
        <ele>1980.4</ele>
        <time>2016-05-06T16:24:59Z</time>
      </trkpt>
      <trkpt lat="45.64039" lon="6.87125">
        <ele>1980.3</ele>
        <time>2016-05-06T16:25:01Z</time>
      </trkpt>
      <trkpt lat="45.64039" lon="6.87125">
        <ele>1980.3</ele>
        <time>2016-05-06T16:25:03Z</time>
      </trkpt>
      <trkpt lat="45.64039" lon="6.87125">
        <ele>1980.4</ele>
        <time>2016-05-06T16:25:05Z</time>
      </trkpt>
      <trkpt lat="45.64039" lon="6.87125">
        <ele>1980.6</ele>
        <time>2016-05-06T16:25:07Z</time>
      </trkpt>
      <trkpt lat="45.64039" lon="6.87126">
        <ele>1980.3</ele>
        <time>2016-05-06T16:25:09Z</time>
      </trkpt>
      <trkpt lat="45.6404" lon="6.87127">
        <ele>1980.6</ele>
        <time>2016-05-06T16:25:11Z</time>
      </trkpt>
      <trkpt lat="45.6404" lon="6.87128">
        <ele>1980.3</ele>
        <time>2016-05-06T16:25:13Z</time>
      </trkpt>
      <trkpt lat="45.6404" lon="6.87128">
        <ele>1980</ele>
        <time>2016-05-06T16:25:15Z</time>
      </trkpt>
      <trkpt lat="45.6404" lon="6.87129">
        <ele>1980</ele>
        <time>2016-05-06T16:25:17Z</time>
      </trkpt>
      <trkpt lat="45.64041" lon="6.8713">
        <ele>1980.1</ele>
        <time>2016-05-06T16:25:19Z</time>
      </trkpt>
      <trkpt lat="45.64041" lon="6.87131">
        <ele>1979.7</ele>
        <time>2016-05-06T16:25:21Z</time>
      </trkpt>
      <trkpt lat="45.64041" lon="6.87131">
        <ele>1979.8</ele>
        <time>2016-05-06T16:25:23Z</time>
      </trkpt>
      <trkpt lat="45.64041" lon="6.87131">
        <ele>1980</ele>
        <time>2016-05-06T16:25:25Z</time>
      </trkpt>
      <trkpt lat="45.64041" lon="6.87132">
        <ele>1980.2</ele>
        <time>2016-05-06T16:25:27Z</time>
      </trkpt>
      <trkpt lat="45.64041" lon="6.87132">
        <ele>1980.2</ele>
        <time>2016-05-06T16:25:29Z</time>
      </trkpt>
      <trkpt lat="45.64042" lon="6.87133">
        <ele>1980.3</ele>
        <time>2016-05-06T16:25:31Z</time>
      </trkpt>
      <trkpt lat="45.64043" lon="6.87136">
        <ele>1979.9</ele>
        <time>2016-05-06T16:25:33Z</time>
      </trkpt>
      <trkpt lat="45.64043" lon="6.87137">
        <ele>1980.1</ele>
        <time>2016-05-06T16:25:35Z</time>
      </trkpt>
      <trkpt lat="45.64044" lon="6.87139">
        <ele>1979.7</ele>
        <time>2016-05-06T16:25:37Z</time>
      </trkpt>
      <trkpt lat="45.64044" lon="6.8714">
        <ele>1979.6</ele>
        <time>2016-05-06T16:25:39Z</time>
      </trkpt>
      <trkpt lat="45.64044" lon="6.87142">
        <ele>1979.3</ele>
        <time>2016-05-06T16:25:41Z</time>
      </trkpt>
      <trkpt lat="45.64043" lon="6.87144">
        <ele>1979.1</ele>
        <time>2016-05-06T16:25:43Z</time>
      </trkpt>
      <trkpt lat="45.64043" lon="6.87145">
        <ele>1978.9</ele>
        <time>2016-05-06T16:25:45Z</time>
      </trkpt>
      <trkpt lat="45.64044" lon="6.87146">
        <ele>1978.7</ele>
        <time>2016-05-06T16:25:47Z</time>
      </trkpt>
      <trkpt lat="45.64044" lon="6.87147">
        <ele>1978.5</ele>
        <time>2016-05-06T16:25:49Z</time>
      </trkpt>
      <trkpt lat="45.64043" lon="6.87146">
        <ele>1978.8</ele>
        <time>2016-05-06T16:25:51Z</time>
      </trkpt>
      <trkpt lat="45.64043" lon="6.87146">
        <ele>1978.8</ele>
        <time>2016-05-06T16:25:53Z</time>
      </trkpt>
      <trkpt lat="45.64043" lon="6.87146">
        <ele>1978.8</ele>
        <time>2016-05-06T16:25:55Z</time>
      </trkpt>
      <trkpt lat="45.64043" lon="6.87146">
        <ele>1978.8</ele>
        <time>2016-05-06T16:25:57Z</time>
      </trkpt>
      <trkpt lat="45.64043" lon="6.87146">
        <ele>1978.8</ele>
        <time>2016-05-06T16:25:59Z</time>
      </trkpt>
      <trkpt lat="45.64043" lon="6.87146">
        <ele>1978.7</ele>
        <time>2016-05-06T16:26:01Z</time>
      </trkpt>
      <trkpt lat="45.64043" lon="6.87146">
        <ele>1978.6</ele>
        <time>2016-05-06T16:26:03Z</time>
      </trkpt>
      <trkpt lat="45.64042" lon="6.87146">
        <ele>1978.6</ele>
        <time>2016-05-06T16:26:05Z</time>
      </trkpt>
      <trkpt lat="45.64043" lon="6.87146">
        <ele>1978.7</ele>
        <time>2016-05-06T16:26:07Z</time>
      </trkpt>
      <trkpt lat="45.64043" lon="6.87146">
        <ele>1978.7</ele>
        <time>2016-05-06T16:26:09Z</time>
      </trkpt>
      <trkpt lat="45.64044" lon="6.87146">
        <ele>1978.7</ele>
        <time>2016-05-06T16:26:11Z</time>
      </trkpt>
      <trkpt lat="45.64044" lon="6.87145">
        <ele>1978.7</ele>
        <time>2016-05-06T16:26:13Z</time>
      </trkpt>
      <trkpt lat="45.64044" lon="6.87145">
        <ele>1978.7</ele>
        <time>2016-05-06T16:26:15Z</time>
      </trkpt>
      <trkpt lat="45.64044" lon="6.87146">
        <ele>1978.7</ele>
        <time>2016-05-06T16:26:17Z</time>
      </trkpt>
      <trkpt lat="45.64044" lon="6.87145">
        <ele>1978.6</ele>
        <time>2016-05-06T16:26:19Z</time>
      </trkpt>
      <trkpt lat="45.64044" lon="6.87145">
        <ele>1978.5</ele>
        <time>2016-05-06T16:26:21Z</time>
      </trkpt>
      <trkpt lat="45.64044" lon="6.87145">
        <ele>1978.5</ele>
        <time>2016-05-06T16:26:23Z</time>
      </trkpt>
      <trkpt lat="45.64044" lon="6.87145">
        <ele>1978.5</ele>
        <time>2016-05-06T16:26:25Z</time>
      </trkpt>
      <trkpt lat="45.64045" lon="6.87144">
        <ele>1978.5</ele>
        <time>2016-05-06T16:26:27Z</time>
      </trkpt>
      <trkpt lat="45.64045" lon="6.87144">
        <ele>1978.4</ele>
        <time>2016-05-06T16:26:29Z</time>
      </trkpt>
      <trkpt lat="45.64045" lon="6.87145">
        <ele>1978.4</ele>
        <time>2016-05-06T16:26:31Z</time>
      </trkpt>
      <trkpt lat="45.64045" lon="6.87145">
        <ele>1978.4</ele>
        <time>2016-05-06T16:26:33Z</time>
      </trkpt>
      <trkpt lat="45.64045" lon="6.87145">
        <ele>1978.4</ele>
        <time>2016-05-06T16:26:35Z</time>
      </trkpt>
      <trkpt lat="45.64046" lon="6.87145">
        <ele>1978.4</ele>
        <time>2016-05-06T16:26:37Z</time>
      </trkpt>
      <trkpt lat="45.64046" lon="6.87144">
        <ele>1978.3</ele>
        <time>2016-05-06T16:26:39Z</time>
      </trkpt>
      <trkpt lat="45.64046" lon="6.87144">
        <ele>1978.3</ele>
        <time>2016-05-06T16:26:41Z</time>
      </trkpt>
      <trkpt lat="45.64045" lon="6.87144">
        <ele>1978.4</ele>
        <time>2016-05-06T16:26:43Z</time>
      </trkpt>
      <trkpt lat="45.64045" lon="6.87144">
        <ele>1978.4</ele>
        <time>2016-05-06T16:26:45Z</time>
      </trkpt>
      <trkpt lat="45.64045" lon="6.87143">
        <ele>1978.4</ele>
        <time>2016-05-06T16:26:47Z</time>
      </trkpt>
      <trkpt lat="45.64045" lon="6.87143">
        <ele>1978.4</ele>
        <time>2016-05-06T16:26:49Z</time>
      </trkpt>
      <trkpt lat="45.64045" lon="6.87142">
        <ele>1978.4</ele>
        <time>2016-05-06T16:26:51Z</time>
      </trkpt>
      <trkpt lat="45.64045" lon="6.87142">
        <ele>1978.4</ele>
        <time>2016-05-06T16:26:53Z</time>
      </trkpt>
      <trkpt lat="45.64045" lon="6.87142">
        <ele>1978.4</ele>
        <time>2016-05-06T16:26:55Z</time>
      </trkpt>
      <trkpt lat="45.64045" lon="6.87142">
        <ele>1978.5</ele>
        <time>2016-05-06T16:26:57Z</time>
      </trkpt>
      <trkpt lat="45.64045" lon="6.87141">
        <ele>1978.7</ele>
        <time>2016-05-06T16:26:59Z</time>
      </trkpt>
      <trkpt lat="45.64044" lon="6.87141">
        <ele>1978.8</ele>
        <time>2016-05-06T16:27:01Z</time>
      </trkpt>
      <trkpt lat="45.64044" lon="6.87141">
        <ele>1978.8</ele>
        <time>2016-05-06T16:27:03Z</time>
      </trkpt>
      <trkpt lat="45.64044" lon="6.87141">
        <ele>1978.8</ele>
        <time>2016-05-06T16:27:05Z</time>
      </trkpt>
      <trkpt lat="45.64044" lon="6.87141">
        <ele>1978.7</ele>
        <time>2016-05-06T16:27:07Z</time>
      </trkpt>
      <trkpt lat="45.64044" lon="6.87141">
        <ele>1978.8</ele>
        <time>2016-05-06T16:27:09Z</time>
      </trkpt>
      <trkpt lat="45.64044" lon="6.8714">
        <ele>1978.8</ele>
        <time>2016-05-06T16:27:11Z</time>
      </trkpt>
      <trkpt lat="45.64044" lon="6.8714">
        <ele>1978.7</ele>
        <time>2016-05-06T16:27:13Z</time>
      </trkpt>
      <trkpt lat="45.64044" lon="6.8714">
        <ele>1978.7</ele>
        <time>2016-05-06T16:27:15Z</time>
      </trkpt>
      <trkpt lat="45.64044" lon="6.8714">
        <ele>1978.6</ele>
        <time>2016-05-06T16:27:17Z</time>
      </trkpt>
      <trkpt lat="45.64044" lon="6.8714">
        <ele>1978.6</ele>
        <time>2016-05-06T16:27:19Z</time>
      </trkpt>
      <trkpt lat="45.64044" lon="6.87141">
        <ele>1978.6</ele>
        <time>2016-05-06T16:27:21Z</time>
      </trkpt>
      <trkpt lat="45.64043" lon="6.87141">
        <ele>1978.7</ele>
        <time>2016-05-06T16:27:23Z</time>
      </trkpt>
      <trkpt lat="45.64043" lon="6.87141">
        <ele>1978.7</ele>
        <time>2016-05-06T16:27:25Z</time>
      </trkpt>
      <trkpt lat="45.64043" lon="6.87142">
        <ele>1978.5</ele>
        <time>2016-05-06T16:27:27Z</time>
      </trkpt>
      <trkpt lat="45.64043" lon="6.87142">
        <ele>1978.3</ele>
        <time>2016-05-06T16:27:29Z</time>
      </trkpt>
      <trkpt lat="45.64043" lon="6.87142">
        <ele>1978.4</ele>
        <time>2016-05-06T16:27:31Z</time>
      </trkpt>
      <trkpt lat="45.64043" lon="6.87142">
        <ele>1978.3</ele>
        <time>2016-05-06T16:27:33Z</time>
      </trkpt>
      <trkpt lat="45.64044" lon="6.87143">
        <ele>1978.2</ele>
        <time>2016-05-06T16:27:35Z</time>
      </trkpt>
      <trkpt lat="45.64044" lon="6.87144">
        <ele>1978.4</ele>
        <time>2016-05-06T16:27:37Z</time>
      </trkpt>
      <trkpt lat="45.64043" lon="6.87144">
        <ele>1978.2</ele>
        <time>2016-05-06T16:27:39Z</time>
      </trkpt>
      <trkpt lat="45.64043" lon="6.87145">
        <ele>1978.2</ele>
        <time>2016-05-06T16:27:41Z</time>
      </trkpt>
      <trkpt lat="45.64043" lon="6.87146">
        <ele>1978.4</ele>
        <time>2016-05-06T16:27:43Z</time>
      </trkpt>
      <trkpt lat="45.64043" lon="6.87147">
        <ele>1978.4</ele>
        <time>2016-05-06T16:27:45Z</time>
      </trkpt>
      <trkpt lat="45.64043" lon="6.87148">
        <ele>1978.4</ele>
        <time>2016-05-06T16:27:47Z</time>
      </trkpt>
      <trkpt lat="45.64043" lon="6.87148">
        <ele>1978.2</ele>
        <time>2016-05-06T16:27:49Z</time>
      </trkpt>
      <trkpt lat="45.64043" lon="6.87147">
        <ele>1978.4</ele>
        <time>2016-05-06T16:27:51Z</time>
      </trkpt>
      <trkpt lat="45.64042" lon="6.87147">
        <ele>1978.3</ele>
        <time>2016-05-06T16:27:53Z</time>
      </trkpt>
      <trkpt lat="45.64042" lon="6.87146">
        <ele>1978.4</ele>
        <time>2016-05-06T16:27:55Z</time>
      </trkpt>
      <trkpt lat="45.64042" lon="6.87146">
        <ele>1978.3</ele>
        <time>2016-05-06T16:27:57Z</time>
      </trkpt>
      <trkpt lat="45.64042" lon="6.87145">
        <ele>1978.2</ele>
        <time>2016-05-06T16:27:59Z</time>
      </trkpt>
      <trkpt lat="45.64042" lon="6.87145">
        <ele>1978.4</ele>
        <time>2016-05-06T16:28:01Z</time>
      </trkpt>
      <trkpt lat="45.64042" lon="6.87145">
        <ele>1978.5</ele>
        <time>2016-05-06T16:28:03Z</time>
      </trkpt>
      <trkpt lat="45.64042" lon="6.87145">
        <ele>1978.5</ele>
        <time>2016-05-06T16:28:05Z</time>
      </trkpt>
      <trkpt lat="45.64042" lon="6.87145">
        <ele>1978.4</ele>
        <time>2016-05-06T16:28:07Z</time>
      </trkpt>
      <trkpt lat="45.64042" lon="6.87144">
        <ele>1978.4</ele>
        <time>2016-05-06T16:28:09Z</time>
      </trkpt>
      <trkpt lat="45.64043" lon="6.87145">
        <ele>1978.4</ele>
        <time>2016-05-06T16:28:11Z</time>
      </trkpt>
      <trkpt lat="45.64044" lon="6.87145">
        <ele>1978.4</ele>
        <time>2016-05-06T16:28:13Z</time>
      </trkpt>
      <trkpt lat="45.64045" lon="6.87145">
        <ele>1978.4</ele>
        <time>2016-05-06T16:28:15Z</time>
      </trkpt>
      <trkpt lat="45.64047" lon="6.87145">
        <ele>1978.3</ele>
        <time>2016-05-06T16:28:17Z</time>
      </trkpt>
      <trkpt lat="45.64048" lon="6.87144">
        <ele>1978.3</ele>
        <time>2016-05-06T16:28:19Z</time>
      </trkpt>
      <trkpt lat="45.64048" lon="6.87144">
        <ele>1978.3</ele>
        <time>2016-05-06T16:28:21Z</time>
      </trkpt>
      <trkpt lat="45.64049" lon="6.87144">
        <ele>1978.3</ele>
        <time>2016-05-06T16:28:23Z</time>
      </trkpt>
      <trkpt lat="45.64049" lon="6.87143">
        <ele>1978.3</ele>
        <time>2016-05-06T16:28:25Z</time>
      </trkpt>
      <trkpt lat="45.64049" lon="6.87143">
        <ele>1978.2</ele>
        <time>2016-05-06T16:28:27Z</time>
      </trkpt>
      <trkpt lat="45.64049" lon="6.87144">
        <ele>1978.3</ele>
        <time>2016-05-06T16:28:29Z</time>
      </trkpt>
      <trkpt lat="45.6405" lon="6.87144">
        <ele>1978.2</ele>
        <time>2016-05-06T16:28:31Z</time>
      </trkpt>
      <trkpt lat="45.6405" lon="6.87144">
        <ele>1978.2</ele>
        <time>2016-05-06T16:28:33Z</time>
      </trkpt>
      <trkpt lat="45.6405" lon="6.87144">
        <ele>1978.3</ele>
        <time>2016-05-06T16:28:35Z</time>
      </trkpt>
      <trkpt lat="45.6405" lon="6.87143">
        <ele>1978.3</ele>
        <time>2016-05-06T16:28:37Z</time>
      </trkpt>
      <trkpt lat="45.64049" lon="6.87143">
        <ele>1978.3</ele>
        <time>2016-05-06T16:28:39Z</time>
      </trkpt>
      <trkpt lat="45.64049" lon="6.87143">
        <ele>1978.2</ele>
        <time>2016-05-06T16:28:41Z</time>
      </trkpt>
      <trkpt lat="45.64049" lon="6.87143">
        <ele>1978.2</ele>
        <time>2016-05-06T16:28:43Z</time>
      </trkpt>
      <trkpt lat="45.64049" lon="6.87143">
        <ele>1978.3</ele>
        <time>2016-05-06T16:28:45Z</time>
      </trkpt>
      <trkpt lat="45.6405" lon="6.87143">
        <ele>1978.3</ele>
        <time>2016-05-06T16:28:47Z</time>
      </trkpt>
      <trkpt lat="45.6405" lon="6.87144">
        <ele>1978.1</ele>
        <time>2016-05-06T16:28:49Z</time>
      </trkpt>
      <trkpt lat="45.64049" lon="6.87144">
        <ele>1978.5</ele>
        <time>2016-05-06T16:28:51Z</time>
      </trkpt>
      <trkpt lat="45.64049" lon="6.87145">
        <ele>1978.5</ele>
        <time>2016-05-06T16:28:53Z</time>
      </trkpt>
      <trkpt lat="45.64049" lon="6.87145">
        <ele>1978.4</ele>
        <time>2016-05-06T16:28:55Z</time>
      </trkpt>
      <trkpt lat="45.6405" lon="6.87144">
        <ele>1978.3</ele>
        <time>2016-05-06T16:28:57Z</time>
      </trkpt>
      <trkpt lat="45.6405" lon="6.87144">
        <ele>1978.3</ele>
        <time>2016-05-06T16:28:59Z</time>
      </trkpt>
      <trkpt lat="45.64051" lon="6.87144">
        <ele>1978.3</ele>
        <time>2016-05-06T16:29:01Z</time>
      </trkpt>
      <trkpt lat="45.64051" lon="6.87144">
        <ele>1978.1</ele>
        <time>2016-05-06T16:29:03Z</time>
      </trkpt>
      <trkpt lat="45.6405" lon="6.87144">
        <ele>1978</ele>
        <time>2016-05-06T16:29:05Z</time>
      </trkpt>
      <trkpt lat="45.64046" lon="6.87146">
        <ele>1978.2</ele>
        <time>2016-05-06T16:29:08Z</time>
      </trkpt>
      <trkpt lat="45.64045" lon="6.87146">
        <ele>1978.3</ele>
        <time>2016-05-06T16:29:10Z</time>
      </trkpt>
      <trkpt lat="45.64043" lon="6.87147">
        <ele>1978.2</ele>
        <time>2016-05-06T16:29:12Z</time>
      </trkpt>
      <trkpt lat="45.64043" lon="6.87147">
        <ele>1978.5</ele>
        <time>2016-05-06T16:29:14Z</time>
      </trkpt>
      <trkpt lat="45.64043" lon="6.87147">
        <ele>1978.5</ele>
        <time>2016-05-06T16:29:16Z</time>
      </trkpt>
      <trkpt lat="45.64042" lon="6.87147">
        <ele>1978.4</ele>
        <time>2016-05-06T16:29:18Z</time>
      </trkpt>
      <trkpt lat="45.64041" lon="6.87147">
        <ele>1978.4</ele>
        <time>2016-05-06T16:29:20Z</time>
      </trkpt>
      <trkpt lat="45.64041" lon="6.87147">
        <ele>1978.3</ele>
        <time>2016-05-06T16:29:22Z</time>
      </trkpt>
      <trkpt lat="45.64041" lon="6.87147">
        <ele>1978.3</ele>
        <time>2016-05-06T16:29:24Z</time>
      </trkpt>
      <trkpt lat="45.64041" lon="6.87147">
        <ele>1978.4</ele>
        <time>2016-05-06T16:29:26Z</time>
      </trkpt>
      <trkpt lat="45.64041" lon="6.87148">
        <ele>1978.4</ele>
        <time>2016-05-06T16:29:28Z</time>
      </trkpt>
      <trkpt lat="45.64041" lon="6.87148">
        <ele>1978.4</ele>
        <time>2016-05-06T16:29:30Z</time>
      </trkpt>
      <trkpt lat="45.64041" lon="6.87148">
        <ele>1978.3</ele>
        <time>2016-05-06T16:29:32Z</time>
      </trkpt>
      <trkpt lat="45.64041" lon="6.87148">
        <ele>1978.4</ele>
        <time>2016-05-06T16:29:34Z</time>
      </trkpt>
      <trkpt lat="45.64041" lon="6.87148">
        <ele>1978.4</ele>
        <time>2016-05-06T16:29:36Z</time>
      </trkpt>
      <trkpt lat="45.64041" lon="6.87148">
        <ele>1978.5</ele>
        <time>2016-05-06T16:29:38Z</time>
      </trkpt>
      <trkpt lat="45.64041" lon="6.87148">
        <ele>1978.6</ele>
        <time>2016-05-06T16:29:40Z</time>
      </trkpt>
      <trkpt lat="45.64041" lon="6.87148">
        <ele>1978.6</ele>
        <time>2016-05-06T16:29:42Z</time>
      </trkpt>
      <trkpt lat="45.64042" lon="6.87147">
        <ele>1978.6</ele>
        <time>2016-05-06T16:29:44Z</time>
      </trkpt>
      <trkpt lat="45.64042" lon="6.87147">
        <ele>1978.6</ele>
        <time>2016-05-06T16:29:46Z</time>
      </trkpt>
      <trkpt lat="45.64042" lon="6.87147">
        <ele>1978.4</ele>
        <time>2016-05-06T16:29:48Z</time>
      </trkpt>
      <trkpt lat="45.64042" lon="6.87146">
        <ele>1978.3</ele>
        <time>2016-05-06T16:29:50Z</time>
      </trkpt>
      <trkpt lat="45.64042" lon="6.87146">
        <ele>1978.4</ele>
        <time>2016-05-06T16:29:52Z</time>
      </trkpt>
      <trkpt lat="45.64042" lon="6.87146">
        <ele>1978.4</ele>
        <time>2016-05-06T16:29:54Z</time>
      </trkpt>
      <trkpt lat="45.64041" lon="6.87145">
        <ele>1978.4</ele>
        <time>2016-05-06T16:29:56Z</time>
      </trkpt>
      <trkpt lat="45.64041" lon="6.87145">
        <ele>1978.3</ele>
        <time>2016-05-06T16:29:58Z</time>
      </trkpt>
      <trkpt lat="45.64041" lon="6.87145">
        <ele>1978.4</ele>
        <time>2016-05-06T16:30:00Z</time>
      </trkpt>
      <trkpt lat="45.64042" lon="6.87144">
        <ele>1978.4</ele>
        <time>2016-05-06T16:30:02Z</time>
      </trkpt>
      <trkpt lat="45.64042" lon="6.87144">
        <ele>1978.5</ele>
        <time>2016-05-06T16:30:04Z</time>
      </trkpt>
      <trkpt lat="45.64042" lon="6.87144">
        <ele>1978.6</ele>
        <time>2016-05-06T16:30:06Z</time>
      </trkpt>
      <trkpt lat="45.64042" lon="6.87144">
        <ele>1978.4</ele>
        <time>2016-05-06T16:30:08Z</time>
      </trkpt>
      <trkpt lat="45.64042" lon="6.87144">
        <ele>1978.3</ele>
        <time>2016-05-06T16:30:10Z</time>
      </trkpt>
      <trkpt lat="45.64042" lon="6.87144">
        <ele>1978.2</ele>
        <time>2016-05-06T16:30:12Z</time>
      </trkpt>
      <trkpt lat="45.64041" lon="6.87144">
        <ele>1978.2</ele>
        <time>2016-05-06T16:30:14Z</time>
      </trkpt>
      <trkpt lat="45.64042" lon="6.87144">
        <ele>1978.1</ele>
        <time>2016-05-06T16:30:16Z</time>
      </trkpt>
      <trkpt lat="45.64042" lon="6.87145">
        <ele>1977.9</ele>
        <time>2016-05-06T16:30:18Z</time>
      </trkpt>
      <trkpt lat="45.64042" lon="6.87145">
        <ele>1978</ele>
        <time>2016-05-06T16:30:20Z</time>
      </trkpt>
      <trkpt lat="45.64041" lon="6.87145">
        <ele>1978.1</ele>
        <time>2016-05-06T16:30:22Z</time>
      </trkpt>
      <trkpt lat="45.64041" lon="6.87145">
        <ele>1978.4</ele>
        <time>2016-05-06T16:30:24Z</time>
      </trkpt>
      <trkpt lat="45.6404" lon="6.87145">
        <ele>1978.5</ele>
        <time>2016-05-06T16:30:26Z</time>
      </trkpt>
      <trkpt lat="45.64041" lon="6.87145">
        <ele>1978.6</ele>
        <time>2016-05-06T16:30:28Z</time>
      </trkpt>
      <trkpt lat="45.64042" lon="6.87147">
        <ele>1978.4</ele>
        <time>2016-05-06T16:30:30Z</time>
      </trkpt>
      <trkpt lat="45.64042" lon="6.87148">
        <ele>1978.8</ele>
        <time>2016-05-06T16:30:32Z</time>
      </trkpt>
      <trkpt lat="45.64042" lon="6.87148">
        <ele>1978.9</ele>
        <time>2016-05-06T16:30:34Z</time>
      </trkpt>
      <trkpt lat="45.64042" lon="6.87148">
        <ele>1978.7</ele>
        <time>2016-05-06T16:30:36Z</time>
      </trkpt>
      <trkpt lat="45.64041" lon="6.87148">
        <ele>1978.6</ele>
        <time>2016-05-06T16:30:38Z</time>
      </trkpt>
      <trkpt lat="45.64041" lon="6.87148">
        <ele>1978.5</ele>
        <time>2016-05-06T16:30:40Z</time>
      </trkpt>
      <trkpt lat="45.64041" lon="6.87149">
        <ele>1978.4</ele>
        <time>2016-05-06T16:30:42Z</time>
      </trkpt>
      <trkpt lat="45.64041" lon="6.87148">
        <ele>1978.5</ele>
        <time>2016-05-06T16:30:44Z</time>
      </trkpt>
      <trkpt lat="45.6404" lon="6.87148">
        <ele>1978.4</ele>
        <time>2016-05-06T16:30:46Z</time>
      </trkpt>
      <trkpt lat="45.64041" lon="6.87148">
        <ele>1978.5</ele>
        <time>2016-05-06T16:30:48Z</time>
      </trkpt>
      <trkpt lat="45.64041" lon="6.87148">
        <ele>1978.5</ele>
        <time>2016-05-06T16:30:50Z</time>
      </trkpt>
      <trkpt lat="45.64041" lon="6.87147">
        <ele>1978.5</ele>
        <time>2016-05-06T16:30:52Z</time>
      </trkpt>
      <trkpt lat="45.64041" lon="6.87146">
        <ele>1978.4</ele>
        <time>2016-05-06T16:30:54Z</time>
      </trkpt>
      <trkpt lat="45.64041" lon="6.87146">
        <ele>1978.3</ele>
        <time>2016-05-06T16:30:56Z</time>
      </trkpt>
      <trkpt lat="45.64041" lon="6.87145">
        <ele>1978.4</ele>
        <time>2016-05-06T16:30:58Z</time>
      </trkpt>
      <trkpt lat="45.64041" lon="6.87144">
        <ele>1978.5</ele>
        <time>2016-05-06T16:31:00Z</time>
      </trkpt>
      <trkpt lat="45.64042" lon="6.87145">
        <ele>1978.4</ele>
        <time>2016-05-06T16:31:02Z</time>
      </trkpt>
      <trkpt lat="45.64041" lon="6.87144">
        <ele>1978.3</ele>
        <time>2016-05-06T16:31:04Z</time>
      </trkpt>
      <trkpt lat="45.64042" lon="6.87144">
        <ele>1978.3</ele>
        <time>2016-05-06T16:31:06Z</time>
      </trkpt>
      <trkpt lat="45.64042" lon="6.87143">
        <ele>1978.4</ele>
        <time>2016-05-06T16:31:08Z</time>
      </trkpt>
      <trkpt lat="45.64042" lon="6.87143">
        <ele>1978.5</ele>
        <time>2016-05-06T16:31:10Z</time>
      </trkpt>
      <trkpt lat="45.64042" lon="6.87143">
        <ele>1978.6</ele>
        <time>2016-05-06T16:31:12Z</time>
      </trkpt>
      <trkpt lat="45.64042" lon="6.87143">
        <ele>1978.6</ele>
        <time>2016-05-06T16:31:14Z</time>
      </trkpt>
      <trkpt lat="45.64043" lon="6.87144">
        <ele>1978.4</ele>
        <time>2016-05-06T16:31:16Z</time>
      </trkpt>
      <trkpt lat="45.64043" lon="6.87143">
        <ele>1978.5</ele>
        <time>2016-05-06T16:31:18Z</time>
      </trkpt>
      <trkpt lat="45.64043" lon="6.87143">
        <ele>1978.4</ele>
        <time>2016-05-06T16:31:20Z</time>
      </trkpt>
      <trkpt lat="45.64043" lon="6.87143">
        <ele>1978.6</ele>
        <time>2016-05-06T16:31:22Z</time>
      </trkpt>
      <trkpt lat="45.64043" lon="6.87143">
        <ele>1978.3</ele>
        <time>2016-05-06T16:31:24Z</time>
      </trkpt>
      <trkpt lat="45.64043" lon="6.87142">
        <ele>1978.4</ele>
        <time>2016-05-06T16:31:26Z</time>
      </trkpt>
      <trkpt lat="45.64042" lon="6.87142">
        <ele>1978.6</ele>
        <time>2016-05-06T16:31:28Z</time>
      </trkpt>
      <trkpt lat="45.64042" lon="6.87141">
        <ele>1978.5</ele>
        <time>2016-05-06T16:31:30Z</time>
      </trkpt>
      <trkpt lat="45.64042" lon="6.8714">
        <ele>1978.6</ele>
        <time>2016-05-06T16:31:32Z</time>
      </trkpt>
      <trkpt lat="45.64042" lon="6.87139">
        <ele>1978.5</ele>
        <time>2016-05-06T16:31:34Z</time>
      </trkpt>
      <trkpt lat="45.64041" lon="6.87138">
        <ele>1978.6</ele>
        <time>2016-05-06T16:31:36Z</time>
      </trkpt>
      <trkpt lat="45.64041" lon="6.87137">
        <ele>1978.6</ele>
        <time>2016-05-06T16:31:38Z</time>
      </trkpt>
      <trkpt lat="45.64041" lon="6.87138">
        <ele>1978.7</ele>
        <time>2016-05-06T16:31:40Z</time>
      </trkpt>
      <trkpt lat="45.64041" lon="6.87137">
        <ele>1978.8</ele>
        <time>2016-05-06T16:31:42Z</time>
      </trkpt>
      <trkpt lat="45.64041" lon="6.87137">
        <ele>1978.8</ele>
        <time>2016-05-06T16:31:44Z</time>
      </trkpt>
      <trkpt lat="45.6404" lon="6.87135">
        <ele>1978.9</ele>
        <time>2016-05-06T16:31:46Z</time>
      </trkpt>
      <trkpt lat="45.6404" lon="6.87135">
        <ele>1979</ele>
        <time>2016-05-06T16:31:48Z</time>
      </trkpt>
      <trkpt lat="45.6404" lon="6.87135">
        <ele>1979</ele>
        <time>2016-05-06T16:31:50Z</time>
      </trkpt>
      <trkpt lat="45.64039" lon="6.87133">
        <ele>1979</ele>
        <time>2016-05-06T16:31:52Z</time>
      </trkpt>
      <trkpt lat="45.64039" lon="6.87133">
        <ele>1979.1</ele>
        <time>2016-05-06T16:31:54Z</time>
      </trkpt>
      <trkpt lat="45.64039" lon="6.87133">
        <ele>1979</ele>
        <time>2016-05-06T16:31:56Z</time>
      </trkpt>
      <trkpt lat="45.64039" lon="6.87132">
        <ele>1979.1</ele>
        <time>2016-05-06T16:31:58Z</time>
      </trkpt>
      <trkpt lat="45.64038" lon="6.87131">
        <ele>1979.3</ele>
        <time>2016-05-06T16:32:00Z</time>
      </trkpt>
      <trkpt lat="45.64038" lon="6.8713">
        <ele>1979.3</ele>
        <time>2016-05-06T16:32:02Z</time>
      </trkpt>
      <trkpt lat="45.64037" lon="6.87129">
        <ele>1979.2</ele>
        <time>2016-05-06T16:32:04Z</time>
      </trkpt>
      <trkpt lat="45.64036" lon="6.87128">
        <ele>1979.2</ele>
        <time>2016-05-06T16:32:06Z</time>
      </trkpt>
      <trkpt lat="45.64036" lon="6.87127">
        <ele>1979.2</ele>
        <time>2016-05-06T16:32:08Z</time>
      </trkpt>
      <trkpt lat="45.64035" lon="6.87126">
        <ele>1979.2</ele>
        <time>2016-05-06T16:32:10Z</time>
      </trkpt>
      <trkpt lat="45.64035" lon="6.87125">
        <ele>1979.2</ele>
        <time>2016-05-06T16:32:12Z</time>
      </trkpt>
      <trkpt lat="45.64034" lon="6.87124">
        <ele>1979.3</ele>
        <time>2016-05-06T16:32:14Z</time>
      </trkpt>
      <trkpt lat="45.64034" lon="6.87124">
        <ele>1979.3</ele>
        <time>2016-05-06T16:32:16Z</time>
      </trkpt>
      <trkpt lat="45.64034" lon="6.87123">
        <ele>1979.3</ele>
        <time>2016-05-06T16:32:18Z</time>
      </trkpt>
      <trkpt lat="45.64034" lon="6.87123">
        <ele>1979.5</ele>
        <time>2016-05-06T16:32:20Z</time>
      </trkpt>
      <trkpt lat="45.64034" lon="6.87122">
        <ele>1979.4</ele>
        <time>2016-05-06T16:32:22Z</time>
      </trkpt>
      <trkpt lat="45.64033" lon="6.87122">
        <ele>1979.5</ele>
        <time>2016-05-06T16:32:24Z</time>
      </trkpt>
      <trkpt lat="45.64033" lon="6.87119">
        <ele>1979.5</ele>
        <time>2016-05-06T16:32:26Z</time>
      </trkpt>
      <trkpt lat="45.64034" lon="6.8712">
        <ele>1979.4</ele>
        <time>2016-05-06T16:32:28Z</time>
      </trkpt>
      <trkpt lat="45.64034" lon="6.87121">
        <ele>1979.5</ele>
        <time>2016-05-06T16:32:30Z</time>
      </trkpt>
      <trkpt lat="45.64034" lon="6.87121">
        <ele>1979.5</ele>
        <time>2016-05-06T16:32:32Z</time>
      </trkpt>
      <trkpt lat="45.64035" lon="6.87122">
        <ele>1979.4</ele>
        <time>2016-05-06T16:32:34Z</time>
      </trkpt>
      <trkpt lat="45.64035" lon="6.87123">
        <ele>1979.3</ele>
        <time>2016-05-06T16:32:36Z</time>
      </trkpt>
      <trkpt lat="45.64035" lon="6.87123">
        <ele>1979.3</ele>
        <time>2016-05-06T16:32:38Z</time>
      </trkpt>
      <trkpt lat="45.64035" lon="6.87123">
        <ele>1979.4</ele>
        <time>2016-05-06T16:32:40Z</time>
      </trkpt>
      <trkpt lat="45.64036" lon="6.87124">
        <ele>1979.6</ele>
        <time>2016-05-06T16:32:42Z</time>
      </trkpt>
      <trkpt lat="45.64035" lon="6.87122">
        <ele>1979.5</ele>
        <time>2016-05-06T16:32:44Z</time>
      </trkpt>
      <trkpt lat="45.64034" lon="6.87119">
        <ele>1979.3</ele>
        <time>2016-05-06T16:32:46Z</time>
      </trkpt>
      <trkpt lat="45.64034" lon="6.87117">
        <ele>1979.3</ele>
        <time>2016-05-06T16:32:48Z</time>
      </trkpt>
      <trkpt lat="45.64033" lon="6.87115">
        <ele>1979.3</ele>
        <time>2016-05-06T16:32:50Z</time>
      </trkpt>
      <trkpt lat="45.64033" lon="6.87115">
        <ele>1979.7</ele>
        <time>2016-05-06T16:32:52Z</time>
      </trkpt>
      <trkpt lat="45.64034" lon="6.87115">
        <ele>1979.6</ele>
        <time>2016-05-06T16:32:54Z</time>
      </trkpt>
      <trkpt lat="45.64035" lon="6.87117">
        <ele>1979.8</ele>
        <time>2016-05-06T16:32:56Z</time>
      </trkpt>
      <trkpt lat="45.64036" lon="6.87116">
        <ele>1980</ele>
        <time>2016-05-06T16:32:58Z</time>
      </trkpt>
      <trkpt lat="45.64036" lon="6.87114">
        <ele>1980</ele>
        <time>2016-05-06T16:33:00Z</time>
      </trkpt>
      <trkpt lat="45.64034" lon="6.87112">
        <ele>1980</ele>
        <time>2016-05-06T16:33:02Z</time>
      </trkpt>
      <trkpt lat="45.64033" lon="6.87112">
        <ele>1980.1</ele>
        <time>2016-05-06T16:33:04Z</time>
      </trkpt>
      <trkpt lat="45.64033" lon="6.87111">
        <ele>1980.2</ele>
        <time>2016-05-06T16:33:06Z</time>
      </trkpt>
      <trkpt lat="45.64033" lon="6.87111">
        <ele>1980.1</ele>
        <time>2016-05-06T16:33:08Z</time>
      </trkpt>
      <trkpt lat="45.64033" lon="6.87111">
        <ele>1979.9</ele>
        <time>2016-05-06T16:33:10Z</time>
      </trkpt>
      <trkpt lat="45.64032" lon="6.87112">
        <ele>1980.1</ele>
        <time>2016-05-06T16:33:12Z</time>
      </trkpt>
      <trkpt lat="45.64032" lon="6.87113">
        <ele>1979.9</ele>
        <time>2016-05-06T16:33:14Z</time>
      </trkpt>
      <trkpt lat="45.64032" lon="6.87116">
        <ele>1979.9</ele>
        <time>2016-05-06T16:33:16Z</time>
      </trkpt>
      <trkpt lat="45.64032" lon="6.87116">
        <ele>1979.5</ele>
        <time>2016-05-06T16:33:18Z</time>
      </trkpt>
      <trkpt lat="45.64031" lon="6.87115">
        <ele>1979.3</ele>
        <time>2016-05-06T16:33:20Z</time>
      </trkpt>
      <trkpt lat="45.64032" lon="6.87114">
        <ele>1979.3</ele>
        <time>2016-05-06T16:33:22Z</time>
      </trkpt>
      <trkpt lat="45.64034" lon="6.87115">
        <ele>1979.5</ele>
        <time>2016-05-06T16:33:24Z</time>
      </trkpt>
      <trkpt lat="45.64033" lon="6.87117">
        <ele>1979.5</ele>
        <time>2016-05-06T16:33:26Z</time>
      </trkpt>
      <trkpt lat="45.64034" lon="6.87118">
        <ele>1979.5</ele>
        <time>2016-05-06T16:33:28Z</time>
      </trkpt>
      <trkpt lat="45.64035" lon="6.87119">
        <ele>1979.5</ele>
        <time>2016-05-06T16:33:30Z</time>
      </trkpt>
      <trkpt lat="45.64037" lon="6.87119">
        <ele>1979.3</ele>
        <time>2016-05-06T16:33:32Z</time>
      </trkpt>
      <trkpt lat="45.64037" lon="6.87119">
        <ele>1979.3</ele>
        <time>2016-05-06T16:33:34Z</time>
      </trkpt>
      <trkpt lat="45.64037" lon="6.87119">
        <ele>1979.3</ele>
        <time>2016-05-06T16:33:36Z</time>
      </trkpt>
      <trkpt lat="45.64037" lon="6.87118">
        <ele>1979.5</ele>
        <time>2016-05-06T16:33:38Z</time>
      </trkpt>
      <trkpt lat="45.64037" lon="6.87117">
        <ele>1979.8</ele>
        <time>2016-05-06T16:33:40Z</time>
      </trkpt>
      <trkpt lat="45.64037" lon="6.87116">
        <ele>1979.9</ele>
        <time>2016-05-06T16:33:42Z</time>
      </trkpt>
      <trkpt lat="45.64037" lon="6.87116">
        <ele>1980</ele>
        <time>2016-05-06T16:33:44Z</time>
      </trkpt>
      <trkpt lat="45.64036" lon="6.87115">
        <ele>1979.9</ele>
        <time>2016-05-06T16:33:46Z</time>
      </trkpt>
      <trkpt lat="45.64036" lon="6.87114">
        <ele>1979.5</ele>
        <time>2016-05-06T16:33:48Z</time>
      </trkpt>
      <trkpt lat="45.64035" lon="6.87114">
        <ele>1979.7</ele>
        <time>2016-05-06T16:33:50Z</time>
      </trkpt>
      <trkpt lat="45.64034" lon="6.87114">
        <ele>1979.7</ele>
        <time>2016-05-06T16:33:52Z</time>
      </trkpt>
      <trkpt lat="45.64034" lon="6.87114">
        <ele>1980</ele>
        <time>2016-05-06T16:33:54Z</time>
      </trkpt>
      <trkpt lat="45.64034" lon="6.87114">
        <ele>1980.2</ele>
        <time>2016-05-06T16:33:56Z</time>
      </trkpt>
      <trkpt lat="45.64035" lon="6.87113">
        <ele>1980.2</ele>
        <time>2016-05-06T16:33:58Z</time>
      </trkpt>
      <trkpt lat="45.64034" lon="6.87113">
        <ele>1979.8</ele>
        <time>2016-05-06T16:34:00Z</time>
      </trkpt>
      <trkpt lat="45.64035" lon="6.87114">
        <ele>1979.9</ele>
        <time>2016-05-06T16:34:02Z</time>
      </trkpt>
      <trkpt lat="45.64034" lon="6.87113">
        <ele>1980.2</ele>
        <time>2016-05-06T16:34:04Z</time>
      </trkpt>
      <trkpt lat="45.64034" lon="6.87113">
        <ele>1980.1</ele>
        <time>2016-05-06T16:34:06Z</time>
      </trkpt>
      <trkpt lat="45.64034" lon="6.87113">
        <ele>1980</ele>
        <time>2016-05-06T16:34:08Z</time>
      </trkpt>
      <trkpt lat="45.64033" lon="6.87114">
        <ele>1979.7</ele>
        <time>2016-05-06T16:34:10Z</time>
      </trkpt>
      <trkpt lat="45.64032" lon="6.87115">
        <ele>1979.8</ele>
        <time>2016-05-06T16:34:12Z</time>
      </trkpt>
      <trkpt lat="45.64032" lon="6.87115">
        <ele>1979.8</ele>
        <time>2016-05-06T16:34:14Z</time>
      </trkpt>
      <trkpt lat="45.64033" lon="6.87115">
        <ele>1979.5</ele>
        <time>2016-05-06T16:34:16Z</time>
      </trkpt>
      <trkpt lat="45.64033" lon="6.87115">
        <ele>1979.8</ele>
        <time>2016-05-06T16:34:18Z</time>
      </trkpt>
      <trkpt lat="45.64032" lon="6.87116">
        <ele>1979.9</ele>
        <time>2016-05-06T16:34:20Z</time>
      </trkpt>
      <trkpt lat="45.64032" lon="6.87116">
        <ele>1979.8</ele>
        <time>2016-05-06T16:34:22Z</time>
      </trkpt>
      <trkpt lat="45.64032" lon="6.87117">
        <ele>1980</ele>
        <time>2016-05-06T16:34:24Z</time>
      </trkpt>
      <trkpt lat="45.64033" lon="6.87117">
        <ele>1979.9</ele>
        <time>2016-05-06T16:34:26Z</time>
      </trkpt>
      <trkpt lat="45.64032" lon="6.87118">
        <ele>1979.9</ele>
        <time>2016-05-06T16:34:28Z</time>
      </trkpt>
      <trkpt lat="45.64032" lon="6.87119">
        <ele>1979.8</ele>
        <time>2016-05-06T16:34:30Z</time>
      </trkpt>
      <trkpt lat="45.64031" lon="6.8712">
        <ele>1980</ele>
        <time>2016-05-06T16:34:32Z</time>
      </trkpt>
      <trkpt lat="45.64029" lon="6.87119">
        <ele>1980.2</ele>
        <time>2016-05-06T16:34:34Z</time>
      </trkpt>
      <trkpt lat="45.6403" lon="6.87121">
        <ele>1980.1</ele>
        <time>2016-05-06T16:34:36Z</time>
      </trkpt>
      <trkpt lat="45.64032" lon="6.87121">
        <ele>1980</ele>
        <time>2016-05-06T16:34:38Z</time>
      </trkpt>
      <trkpt lat="45.64032" lon="6.8712">
        <ele>1980</ele>
        <time>2016-05-06T16:34:40Z</time>
      </trkpt>
      <trkpt lat="45.64033" lon="6.8712">
        <ele>1979.5</ele>
        <time>2016-05-06T16:34:42Z</time>
      </trkpt>
      <trkpt lat="45.64033" lon="6.8712">
        <ele>1979</ele>
        <time>2016-05-06T16:34:44Z</time>
      </trkpt>
      <trkpt lat="45.64033" lon="6.8712">
        <ele>1978.9</ele>
        <time>2016-05-06T16:34:46Z</time>
      </trkpt>
      <trkpt lat="45.64033" lon="6.87118">
        <ele>1979</ele>
        <time>2016-05-06T16:34:48Z</time>
      </trkpt>
      <trkpt lat="45.64033" lon="6.87118">
        <ele>1979</ele>
        <time>2016-05-06T16:34:50Z</time>
      </trkpt>
      <trkpt lat="45.64034" lon="6.87117">
        <ele>1979.3</ele>
        <time>2016-05-06T16:34:52Z</time>
      </trkpt>
      <trkpt lat="45.64033" lon="6.87115">
        <ele>1979.4</ele>
        <time>2016-05-06T16:34:54Z</time>
      </trkpt>
      <trkpt lat="45.64034" lon="6.87115">
        <ele>1979.4</ele>
        <time>2016-05-06T16:34:56Z</time>
      </trkpt>
      <trkpt lat="45.64034" lon="6.87115">
        <ele>1979.6</ele>
        <time>2016-05-06T16:34:58Z</time>
      </trkpt>
      <trkpt lat="45.64034" lon="6.87116">
        <ele>1979.8</ele>
        <time>2016-05-06T16:35:00Z</time>
      </trkpt>
      <trkpt lat="45.64034" lon="6.87115">
        <ele>1979.5</ele>
        <time>2016-05-06T16:35:02Z</time>
      </trkpt>
      <trkpt lat="45.64035" lon="6.87115">
        <ele>1979.9</ele>
        <time>2016-05-06T16:35:04Z</time>
      </trkpt>
      <trkpt lat="45.64033" lon="6.87114">
        <ele>1980</ele>
        <time>2016-05-06T16:35:06Z</time>
      </trkpt>
      <trkpt lat="45.64033" lon="6.87115">
        <ele>1980.2</ele>
        <time>2016-05-06T16:35:08Z</time>
      </trkpt>
      <trkpt lat="45.64032" lon="6.87115">
        <ele>1980.4</ele>
        <time>2016-05-06T16:35:10Z</time>
      </trkpt>
      <trkpt lat="45.64032" lon="6.87115">
        <ele>1980.6</ele>
        <time>2016-05-06T16:35:12Z</time>
      </trkpt>
      <trkpt lat="45.64032" lon="6.87115">
        <ele>1980.5</ele>
        <time>2016-05-06T16:35:14Z</time>
      </trkpt>
      <trkpt lat="45.64033" lon="6.87115">
        <ele>1980.6</ele>
        <time>2016-05-06T16:35:16Z</time>
      </trkpt>
      <trkpt lat="45.64034" lon="6.87115">
        <ele>1980.7</ele>
        <time>2016-05-06T16:35:18Z</time>
      </trkpt>
      <trkpt lat="45.64035" lon="6.87115">
        <ele>1980.7</ele>
        <time>2016-05-06T16:35:20Z</time>
      </trkpt>
      <trkpt lat="45.64035" lon="6.87115">
        <ele>1980.3</ele>
        <time>2016-05-06T16:35:22Z</time>
      </trkpt>
      <trkpt lat="45.64036" lon="6.87114">
        <ele>1980.1</ele>
        <time>2016-05-06T16:35:24Z</time>
      </trkpt>
      <trkpt lat="45.64036" lon="6.87114">
        <ele>1980</ele>
        <time>2016-05-06T16:35:26Z</time>
      </trkpt>
      <trkpt lat="45.64037" lon="6.87113">
        <ele>1980.2</ele>
        <time>2016-05-06T16:35:28Z</time>
      </trkpt>
      <trkpt lat="45.64036" lon="6.87113">
        <ele>1980.4</ele>
        <time>2016-05-06T16:35:30Z</time>
      </trkpt>
      <trkpt lat="45.64036" lon="6.87113">
        <ele>1980.3</ele>
        <time>2016-05-06T16:35:32Z</time>
      </trkpt>
      <trkpt lat="45.64035" lon="6.87114">
        <ele>1980.3</ele>
        <time>2016-05-06T16:35:34Z</time>
      </trkpt>
      <trkpt lat="45.64035" lon="6.87115">
        <ele>1980.3</ele>
        <time>2016-05-06T16:35:36Z</time>
      </trkpt>
      <trkpt lat="45.64034" lon="6.87116">
        <ele>1980.4</ele>
        <time>2016-05-06T16:35:38Z</time>
      </trkpt>
      <trkpt lat="45.64034" lon="6.87117">
        <ele>1980.3</ele>
        <time>2016-05-06T16:35:40Z</time>
      </trkpt>
      <trkpt lat="45.64033" lon="6.87116">
        <ele>1979.9</ele>
        <time>2016-05-06T16:35:42Z</time>
      </trkpt>
      <trkpt lat="45.64034" lon="6.87117">
        <ele>1980.1</ele>
        <time>2016-05-06T16:35:44Z</time>
      </trkpt>
      <trkpt lat="45.64034" lon="6.87117">
        <ele>1980.2</ele>
        <time>2016-05-06T16:35:46Z</time>
      </trkpt>
      <trkpt lat="45.64034" lon="6.87116">
        <ele>1980.2</ele>
        <time>2016-05-06T16:35:48Z</time>
      </trkpt>
      <trkpt lat="45.64034" lon="6.87116">
        <ele>1979.9</ele>
        <time>2016-05-06T16:35:50Z</time>
      </trkpt>
      <trkpt lat="45.64033" lon="6.87116">
        <ele>1980</ele>
        <time>2016-05-06T16:35:52Z</time>
      </trkpt>
      <trkpt lat="45.64033" lon="6.87115">
        <ele>1979.8</ele>
        <time>2016-05-06T16:35:54Z</time>
      </trkpt>
      <trkpt lat="45.64032" lon="6.87115">
        <ele>1979.8</ele>
        <time>2016-05-06T16:35:56Z</time>
      </trkpt>
      <trkpt lat="45.64031" lon="6.87116">
        <ele>1980.1</ele>
        <time>2016-05-06T16:35:58Z</time>
      </trkpt>
      <trkpt lat="45.64031" lon="6.87115">
        <ele>1980</ele>
        <time>2016-05-06T16:36:00Z</time>
      </trkpt>
      <trkpt lat="45.6403" lon="6.87114">
        <ele>1980.1</ele>
        <time>2016-05-06T16:36:02Z</time>
      </trkpt>
      <trkpt lat="45.6403" lon="6.87114">
        <ele>1980.3</ele>
        <time>2016-05-06T16:36:04Z</time>
      </trkpt>
      <trkpt lat="45.6403" lon="6.87114">
        <ele>1980.3</ele>
        <time>2016-05-06T16:36:06Z</time>
      </trkpt>
      <trkpt lat="45.64029" lon="6.87114">
        <ele>1980</ele>
        <time>2016-05-06T16:36:08Z</time>
      </trkpt>
      <trkpt lat="45.6403" lon="6.87115">
        <ele>1980.1</ele>
        <time>2016-05-06T16:36:10Z</time>
      </trkpt>
      <trkpt lat="45.64029" lon="6.87115">
        <ele>1980</ele>
        <time>2016-05-06T16:36:12Z</time>
      </trkpt>
      <trkpt lat="45.6403" lon="6.87115">
        <ele>1980.2</ele>
        <time>2016-05-06T16:36:14Z</time>
      </trkpt>
      <trkpt lat="45.6403" lon="6.87115">
        <ele>1980.4</ele>
        <time>2016-05-06T16:36:16Z</time>
      </trkpt>
      <trkpt lat="45.6403" lon="6.87113">
        <ele>1980.3</ele>
        <time>2016-05-06T16:36:18Z</time>
      </trkpt>
      <trkpt lat="45.6403" lon="6.87113">
        <ele>1980</ele>
        <time>2016-05-06T16:36:20Z</time>
      </trkpt>
      <trkpt lat="45.6403" lon="6.87113">
        <ele>1980.3</ele>
        <time>2016-05-06T16:36:22Z</time>
      </trkpt>
      <trkpt lat="45.64031" lon="6.87113">
        <ele>1980.4</ele>
        <time>2016-05-06T16:36:24Z</time>
      </trkpt>
      <trkpt lat="45.64031" lon="6.87114">
        <ele>1980.5</ele>
        <time>2016-05-06T16:36:26Z</time>
      </trkpt>
      <trkpt lat="45.64032" lon="6.87115">
        <ele>1980.4</ele>
        <time>2016-05-06T16:36:28Z</time>
      </trkpt>
      <trkpt lat="45.64032" lon="6.87115">
        <ele>1979.5</ele>
        <time>2016-05-06T16:36:30Z</time>
      </trkpt>
      <trkpt lat="45.64032" lon="6.87116">
        <ele>1979.7</ele>
        <time>2016-05-06T16:36:32Z</time>
      </trkpt>
      <trkpt lat="45.64031" lon="6.87115">
        <ele>1979.8</ele>
        <time>2016-05-06T16:36:34Z</time>
      </trkpt>
      <trkpt lat="45.64031" lon="6.87115">
        <ele>1980.1</ele>
        <time>2016-05-06T16:36:36Z</time>
      </trkpt>
      <trkpt lat="45.64031" lon="6.87115">
        <ele>1980.2</ele>
        <time>2016-05-06T16:36:38Z</time>
      </trkpt>
      <trkpt lat="45.64031" lon="6.87114">
        <ele>1979.8</ele>
        <time>2016-05-06T16:36:40Z</time>
      </trkpt>
      <trkpt lat="45.64031" lon="6.87114">
        <ele>1980</ele>
        <time>2016-05-06T16:36:42Z</time>
      </trkpt>
      <trkpt lat="45.64031" lon="6.87114">
        <ele>1979.9</ele>
        <time>2016-05-06T16:36:44Z</time>
      </trkpt>
      <trkpt lat="45.64031" lon="6.87114">
        <ele>1979.9</ele>
        <time>2016-05-06T16:36:46Z</time>
      </trkpt>
      <trkpt lat="45.64031" lon="6.87114">
        <ele>1980</ele>
        <time>2016-05-06T16:36:48Z</time>
      </trkpt>
      <trkpt lat="45.64031" lon="6.87116">
        <ele>1980.1</ele>
        <time>2016-05-06T16:36:50Z</time>
      </trkpt>
      <trkpt lat="45.64031" lon="6.87115">
        <ele>1980</ele>
        <time>2016-05-06T16:36:52Z</time>
      </trkpt>
      <trkpt lat="45.6403" lon="6.87114">
        <ele>1980.4</ele>
        <time>2016-05-06T16:36:54Z</time>
      </trkpt>
      <trkpt lat="45.6403" lon="6.87115">
        <ele>1980.3</ele>
        <time>2016-05-06T16:36:56Z</time>
      </trkpt>
      <trkpt lat="45.64031" lon="6.87114">
        <ele>1980.4</ele>
        <time>2016-05-06T16:36:58Z</time>
      </trkpt>
      <trkpt lat="45.64031" lon="6.87115">
        <ele>1980.1</ele>
        <time>2016-05-06T16:37:00Z</time>
      </trkpt>
      <trkpt lat="45.64031" lon="6.87114">
        <ele>1980.3</ele>
        <time>2016-05-06T16:37:02Z</time>
      </trkpt>
      <trkpt lat="45.64031" lon="6.87115">
        <ele>1980.3</ele>
        <time>2016-05-06T16:37:04Z</time>
      </trkpt>
      <trkpt lat="45.64031" lon="6.87116">
        <ele>1980.4</ele>
        <time>2016-05-06T16:37:06Z</time>
      </trkpt>
      <trkpt lat="45.64031" lon="6.87116">
        <ele>1980.4</ele>
        <time>2016-05-06T16:37:08Z</time>
      </trkpt>
      <trkpt lat="45.64031" lon="6.87117">
        <ele>1980.3</ele>
        <time>2016-05-06T16:37:10Z</time>
      </trkpt>
      <trkpt lat="45.64031" lon="6.87117">
        <ele>1980.4</ele>
        <time>2016-05-06T16:37:12Z</time>
      </trkpt>
      <trkpt lat="45.64031" lon="6.87117">
        <ele>1980.4</ele>
        <time>2016-05-06T16:37:14Z</time>
      </trkpt>
      <trkpt lat="45.64031" lon="6.87116">
        <ele>1980.4</ele>
        <time>2016-05-06T16:37:16Z</time>
      </trkpt>
      <trkpt lat="45.64031" lon="6.87116">
        <ele>1980.6</ele>
        <time>2016-05-06T16:37:18Z</time>
      </trkpt>
      <trkpt lat="45.64031" lon="6.87116">
        <ele>1980.7</ele>
        <time>2016-05-06T16:37:20Z</time>
      </trkpt>
      <trkpt lat="45.64031" lon="6.87115">
        <ele>1980.6</ele>
        <time>2016-05-06T16:37:22Z</time>
      </trkpt>
      <trkpt lat="45.64032" lon="6.87116">
        <ele>1980.6</ele>
        <time>2016-05-06T16:37:24Z</time>
      </trkpt>
      <trkpt lat="45.64032" lon="6.87116">
        <ele>1980.4</ele>
        <time>2016-05-06T16:37:26Z</time>
      </trkpt>
      <trkpt lat="45.64032" lon="6.87116">
        <ele>1980.6</ele>
        <time>2016-05-06T16:37:28Z</time>
      </trkpt>
      <trkpt lat="45.64033" lon="6.87116">
        <ele>1981.1</ele>
        <time>2016-05-06T16:37:30Z</time>
      </trkpt>
      <trkpt lat="45.64033" lon="6.87116">
        <ele>1981</ele>
        <time>2016-05-06T16:37:32Z</time>
      </trkpt>
      <trkpt lat="45.64033" lon="6.87116">
        <ele>1981</ele>
        <time>2016-05-06T16:37:34Z</time>
      </trkpt>
      <trkpt lat="45.64033" lon="6.87117">
        <ele>1981</ele>
        <time>2016-05-06T16:37:36Z</time>
      </trkpt>
      <trkpt lat="45.64033" lon="6.87116">
        <ele>1981.1</ele>
        <time>2016-05-06T16:37:38Z</time>
      </trkpt>
      <trkpt lat="45.64033" lon="6.87116">
        <ele>1980.8</ele>
        <time>2016-05-06T16:37:40Z</time>
      </trkpt>
      <trkpt lat="45.64033" lon="6.87116">
        <ele>1980.6</ele>
        <time>2016-05-06T16:37:42Z</time>
      </trkpt>
      <trkpt lat="45.64033" lon="6.87115">
        <ele>1981</ele>
        <time>2016-05-06T16:37:44Z</time>
      </trkpt>
      <trkpt lat="45.64033" lon="6.87115">
        <ele>1981</ele>
        <time>2016-05-06T16:37:46Z</time>
      </trkpt>
      <trkpt lat="45.64032" lon="6.87117">
        <ele>1980.6</ele>
        <time>2016-05-06T16:37:48Z</time>
      </trkpt>
      <trkpt lat="45.64033" lon="6.87118">
        <ele>1981</ele>
        <time>2016-05-06T16:37:50Z</time>
      </trkpt>
      <trkpt lat="45.64033" lon="6.87118">
        <ele>1981.1</ele>
        <time>2016-05-06T16:37:52Z</time>
      </trkpt>
      <trkpt lat="45.64033" lon="6.87117">
        <ele>1981.2</ele>
        <time>2016-05-06T16:37:54Z</time>
      </trkpt>
      <trkpt lat="45.64034" lon="6.87117">
        <ele>1981.1</ele>
        <time>2016-05-06T16:37:56Z</time>
      </trkpt>
      <trkpt lat="45.64034" lon="6.87117">
        <ele>1981.1</ele>
        <time>2016-05-06T16:37:58Z</time>
      </trkpt>
      <trkpt lat="45.64035" lon="6.87117">
        <ele>1981.1</ele>
        <time>2016-05-06T16:38:00Z</time>
      </trkpt>
      <trkpt lat="45.64035" lon="6.87117">
        <ele>1981.1</ele>
        <time>2016-05-06T16:38:02Z</time>
      </trkpt>
      <trkpt lat="45.64034" lon="6.87116">
        <ele>1980.9</ele>
        <time>2016-05-06T16:38:04Z</time>
      </trkpt>
      <trkpt lat="45.64032" lon="6.87114">
        <ele>1980.9</ele>
        <time>2016-05-06T16:38:06Z</time>
      </trkpt>
      <trkpt lat="45.6403" lon="6.87115">
        <ele>1981</ele>
        <time>2016-05-06T16:38:08Z</time>
      </trkpt>
      <trkpt lat="45.64031" lon="6.87115">
        <ele>1981.1</ele>
        <time>2016-05-06T16:38:10Z</time>
      </trkpt>
      <trkpt lat="45.64031" lon="6.87115">
        <ele>1980.9</ele>
        <time>2016-05-06T16:38:12Z</time>
      </trkpt>
      <trkpt lat="45.64031" lon="6.87114">
        <ele>1981.2</ele>
        <time>2016-05-06T16:38:14Z</time>
      </trkpt>
      <trkpt lat="45.64032" lon="6.87114">
        <ele>1981.1</ele>
        <time>2016-05-06T16:38:16Z</time>
      </trkpt>
      <trkpt lat="45.64033" lon="6.87115">
        <ele>1981</ele>
        <time>2016-05-06T16:38:18Z</time>
      </trkpt>
      <trkpt lat="45.64032" lon="6.87113">
        <ele>1981</ele>
        <time>2016-05-06T16:38:20Z</time>
      </trkpt>
      <trkpt lat="45.64033" lon="6.87114">
        <ele>1981.2</ele>
        <time>2016-05-06T16:38:22Z</time>
      </trkpt>
      <trkpt lat="45.64033" lon="6.87114">
        <ele>1981.3</ele>
        <time>2016-05-06T16:38:24Z</time>
      </trkpt>
      <trkpt lat="45.64033" lon="6.87114">
        <ele>1981.2</ele>
        <time>2016-05-06T16:38:26Z</time>
      </trkpt>
      <trkpt lat="45.64033" lon="6.87115">
        <ele>1980.9</ele>
        <time>2016-05-06T16:38:28Z</time>
      </trkpt>
      <trkpt lat="45.64033" lon="6.87115">
        <ele>1980.9</ele>
        <time>2016-05-06T16:38:30Z</time>
      </trkpt>
      <trkpt lat="45.64033" lon="6.87115">
        <ele>1980.9</ele>
        <time>2016-05-06T16:38:32Z</time>
      </trkpt>
      <trkpt lat="45.64032" lon="6.87115">
        <ele>1980.8</ele>
        <time>2016-05-06T16:38:34Z</time>
      </trkpt>
      <trkpt lat="45.64031" lon="6.87115">
        <ele>1980.6</ele>
        <time>2016-05-06T16:38:36Z</time>
      </trkpt>
      <trkpt lat="45.64031" lon="6.87114">
        <ele>1980.7</ele>
        <time>2016-05-06T16:38:38Z</time>
      </trkpt>
      <trkpt lat="45.64031" lon="6.87114">
        <ele>1980.7</ele>
        <time>2016-05-06T16:38:40Z</time>
      </trkpt>
      <trkpt lat="45.64031" lon="6.87115">
        <ele>1980.8</ele>
        <time>2016-05-06T16:38:42Z</time>
      </trkpt>
      <trkpt lat="45.64032" lon="6.87114">
        <ele>1980.9</ele>
        <time>2016-05-06T16:38:44Z</time>
      </trkpt>
      <trkpt lat="45.64032" lon="6.87115">
        <ele>1980.6</ele>
        <time>2016-05-06T16:38:46Z</time>
      </trkpt>
      <trkpt lat="45.64032" lon="6.87115">
        <ele>1980.8</ele>
        <time>2016-05-06T16:38:48Z</time>
      </trkpt>
      <trkpt lat="45.64032" lon="6.87116">
        <ele>1980.8</ele>
        <time>2016-05-06T16:38:50Z</time>
      </trkpt>
      <trkpt lat="45.64032" lon="6.87115">
        <ele>1980.9</ele>
        <time>2016-05-06T16:38:52Z</time>
      </trkpt>
      <trkpt lat="45.64032" lon="6.87115">
        <ele>1980.8</ele>
        <time>2016-05-06T16:38:54Z</time>
      </trkpt>
      <trkpt lat="45.64032" lon="6.87115">
        <ele>1980.7</ele>
        <time>2016-05-06T16:38:56Z</time>
      </trkpt>
      <trkpt lat="45.64031" lon="6.87115">
        <ele>1980.7</ele>
        <time>2016-05-06T16:38:58Z</time>
      </trkpt>
      <trkpt lat="45.64032" lon="6.87116">
        <ele>1980.8</ele>
        <time>2016-05-06T16:39:00Z</time>
      </trkpt>
      <trkpt lat="45.64032" lon="6.87116">
        <ele>1980.7</ele>
        <time>2016-05-06T16:39:02Z</time>
      </trkpt>
      <trkpt lat="45.64035" lon="6.8712">
        <ele>1981.1</ele>
        <time>2016-05-06T16:39:04Z</time>
      </trkpt>
      <trkpt lat="45.64035" lon="6.8712">
        <ele>1983.8</ele>
        <time>2016-05-06T16:39:06Z</time>
      </trkpt>
      <trkpt lat="45.64034" lon="6.8712">
        <ele>1989.9</ele>
        <time>2016-05-06T16:39:08Z</time>
      </trkpt>
      <trkpt lat="45.64034" lon="6.87119">
        <ele>1988.2</ele>
        <time>2016-05-06T16:39:10Z</time>
      </trkpt>
      <trkpt lat="45.64035" lon="6.87119">
        <ele>1985.9</ele>
        <time>2016-05-06T16:39:12Z</time>
      </trkpt>
      <trkpt lat="45.64035" lon="6.87119">
        <ele>1984.4</ele>
        <time>2016-05-06T16:39:14Z</time>
      </trkpt>
      <trkpt lat="45.64034" lon="6.8712">
        <ele>1983.1</ele>
        <time>2016-05-06T16:39:16Z</time>
      </trkpt>
      <trkpt lat="45.64034" lon="6.8712">
        <ele>1982.3</ele>
        <time>2016-05-06T16:39:18Z</time>
      </trkpt>
      <trkpt lat="45.64035" lon="6.87121">
        <ele>1981.4</ele>
        <time>2016-05-06T16:39:20Z</time>
      </trkpt>
      <trkpt lat="45.64035" lon="6.87121">
        <ele>1980.1</ele>
        <time>2016-05-06T16:39:22Z</time>
      </trkpt>
      <trkpt lat="45.64035" lon="6.87121">
        <ele>1979.9</ele>
        <time>2016-05-06T16:39:24Z</time>
      </trkpt>
      <trkpt lat="45.64035" lon="6.8712">
        <ele>1981.3</ele>
        <time>2016-05-06T16:39:26Z</time>
      </trkpt>
      <trkpt lat="45.64036" lon="6.87121">
        <ele>1981.7</ele>
        <time>2016-05-06T16:39:28Z</time>
      </trkpt>
      <trkpt lat="45.64037" lon="6.87121">
        <ele>1979.5</ele>
        <time>2016-05-06T16:39:30Z</time>
      </trkpt>
      <trkpt lat="45.64037" lon="6.87121">
        <ele>1980.5</ele>
        <time>2016-05-06T16:39:32Z</time>
      </trkpt>
      <trkpt lat="45.64037" lon="6.87123">
        <ele>1981.3</ele>
        <time>2016-05-06T16:39:34Z</time>
      </trkpt>
      <trkpt lat="45.64037" lon="6.87124">
        <ele>1981.5</ele>
        <time>2016-05-06T16:39:36Z</time>
      </trkpt>
      <trkpt lat="45.64037" lon="6.87124">
        <ele>1981.3</ele>
        <time>2016-05-06T16:39:38Z</time>
      </trkpt>
      <trkpt lat="45.64037" lon="6.87125">
        <ele>1981.3</ele>
        <time>2016-05-06T16:39:40Z</time>
      </trkpt>
      <trkpt lat="45.64037" lon="6.87127">
        <ele>1981.2</ele>
        <time>2016-05-06T16:39:42Z</time>
      </trkpt>
      <trkpt lat="45.64037" lon="6.87127">
        <ele>1981.2</ele>
        <time>2016-05-06T16:39:44Z</time>
      </trkpt>
      <trkpt lat="45.64037" lon="6.87127">
        <ele>1981.1</ele>
        <time>2016-05-06T16:39:46Z</time>
      </trkpt>
      <trkpt lat="45.64037" lon="6.87128">
        <ele>1981</ele>
        <time>2016-05-06T16:39:48Z</time>
      </trkpt>
      <trkpt lat="45.64037" lon="6.8713">
        <ele>1981.1</ele>
        <time>2016-05-06T16:39:50Z</time>
      </trkpt>
      <trkpt lat="45.64037" lon="6.8713">
        <ele>1980.7</ele>
        <time>2016-05-06T16:39:52Z</time>
      </trkpt>
      <trkpt lat="45.64037" lon="6.87131">
        <ele>1980.7</ele>
        <time>2016-05-06T16:39:54Z</time>
      </trkpt>
      <trkpt lat="45.64037" lon="6.87127">
        <ele>1980.7</ele>
        <time>2016-05-06T16:39:56Z</time>
      </trkpt>
      <trkpt lat="45.64036" lon="6.87127">
        <ele>1980.6</ele>
        <time>2016-05-06T16:39:58Z</time>
      </trkpt>
      <trkpt lat="45.64034" lon="6.87125">
        <ele>1980.8</ele>
        <time>2016-05-06T16:40:00Z</time>
      </trkpt>
      <trkpt lat="45.64032" lon="6.87123">
        <ele>1980.8</ele>
        <time>2016-05-06T16:40:02Z</time>
      </trkpt>
      <trkpt lat="45.6403" lon="6.87122">
        <ele>1980.7</ele>
        <time>2016-05-06T16:40:04Z</time>
      </trkpt>
      <trkpt lat="45.64029" lon="6.87121">
        <ele>1980.8</ele>
        <time>2016-05-06T16:40:06Z</time>
      </trkpt>
      <trkpt lat="45.64027" lon="6.87119">
        <ele>1980.6</ele>
        <time>2016-05-06T16:40:08Z</time>
      </trkpt>
      <trkpt lat="45.64025" lon="6.87118">
        <ele>1980.4</ele>
        <time>2016-05-06T16:40:10Z</time>
      </trkpt>
      <trkpt lat="45.64023" lon="6.87117">
        <ele>1980.4</ele>
        <time>2016-05-06T16:40:12Z</time>
      </trkpt>
      <trkpt lat="45.64022" lon="6.87117">
        <ele>1980.4</ele>
        <time>2016-05-06T16:40:14Z</time>
      </trkpt>
      <trkpt lat="45.6402" lon="6.87117">
        <ele>1980.4</ele>
        <time>2016-05-06T16:40:16Z</time>
      </trkpt>
      <trkpt lat="45.64019" lon="6.87116">
        <ele>1980.3</ele>
        <time>2016-05-06T16:40:18Z</time>
      </trkpt>
      <trkpt lat="45.64017" lon="6.87115">
        <ele>1980.3</ele>
        <time>2016-05-06T16:40:20Z</time>
      </trkpt>
      <trkpt lat="45.64016" lon="6.87114">
        <ele>1980.3</ele>
        <time>2016-05-06T16:40:22Z</time>
      </trkpt>
      <trkpt lat="45.64014" lon="6.87114">
        <ele>1980.3</ele>
        <time>2016-05-06T16:40:24Z</time>
      </trkpt>
      <trkpt lat="45.64013" lon="6.87113">
        <ele>1980.4</ele>
        <time>2016-05-06T16:40:26Z</time>
      </trkpt>
      <trkpt lat="45.64011" lon="6.87111">
        <ele>1980.5</ele>
        <time>2016-05-06T16:40:28Z</time>
      </trkpt>
      <trkpt lat="45.6401" lon="6.8711">
        <ele>1980.6</ele>
        <time>2016-05-06T16:40:30Z</time>
      </trkpt>
      <trkpt lat="45.64008" lon="6.87109">
        <ele>1980.6</ele>
        <time>2016-05-06T16:40:32Z</time>
      </trkpt>
      <trkpt lat="45.64007" lon="6.87107">
        <ele>1980.5</ele>
        <time>2016-05-06T16:40:34Z</time>
      </trkpt>
      <trkpt lat="45.64006" lon="6.87106">
        <ele>1980.5</ele>
        <time>2016-05-06T16:40:36Z</time>
      </trkpt>
      <trkpt lat="45.64004" lon="6.87105">
        <ele>1980.5</ele>
        <time>2016-05-06T16:40:38Z</time>
      </trkpt>
      <trkpt lat="45.64002" lon="6.87104">
        <ele>1980.5</ele>
        <time>2016-05-06T16:40:40Z</time>
      </trkpt>
      <trkpt lat="45.64001" lon="6.87102">
        <ele>1980.5</ele>
        <time>2016-05-06T16:40:42Z</time>
      </trkpt>
      <trkpt lat="45.64" lon="6.87102">
        <ele>1980.5</ele>
        <time>2016-05-06T16:40:44Z</time>
      </trkpt>
      <trkpt lat="45.63999" lon="6.87102">
        <ele>1980.6</ele>
        <time>2016-05-06T16:40:46Z</time>
      </trkpt>
      <trkpt lat="45.63997" lon="6.871">
        <ele>1980.7</ele>
        <time>2016-05-06T16:40:48Z</time>
      </trkpt>
      <trkpt lat="45.63996" lon="6.87099">
        <ele>1980.8</ele>
        <time>2016-05-06T16:40:50Z</time>
      </trkpt>
      <trkpt lat="45.63995" lon="6.87098">
        <ele>1981</ele>
        <time>2016-05-06T16:40:52Z</time>
      </trkpt>
      <trkpt lat="45.63993" lon="6.87096">
        <ele>1981</ele>
        <time>2016-05-06T16:40:54Z</time>
      </trkpt>
      <trkpt lat="45.63992" lon="6.87095">
        <ele>1981.2</ele>
        <time>2016-05-06T16:40:56Z</time>
      </trkpt>
      <trkpt lat="45.63991" lon="6.87094">
        <ele>1981.3</ele>
        <time>2016-05-06T16:40:58Z</time>
      </trkpt>
      <trkpt lat="45.6399" lon="6.87094">
        <ele>1981.3</ele>
        <time>2016-05-06T16:41:00Z</time>
      </trkpt>
      <trkpt lat="45.63989" lon="6.87093">
        <ele>1981.3</ele>
        <time>2016-05-06T16:41:02Z</time>
      </trkpt>
      <trkpt lat="45.63988" lon="6.87092">
        <ele>1981.3</ele>
        <time>2016-05-06T16:41:04Z</time>
      </trkpt>
      <trkpt lat="45.63986" lon="6.87092">
        <ele>1981.3</ele>
        <time>2016-05-06T16:41:06Z</time>
      </trkpt>
      <trkpt lat="45.63984" lon="6.87093">
        <ele>1981.3</ele>
        <time>2016-05-06T16:41:08Z</time>
      </trkpt>
      <trkpt lat="45.63983" lon="6.87096">
        <ele>1981.3</ele>
        <time>2016-05-06T16:41:10Z</time>
      </trkpt>
      <trkpt lat="45.63983" lon="6.87095">
        <ele>1981.4</ele>
        <time>2016-05-06T16:41:12Z</time>
      </trkpt>
      <trkpt lat="45.63984" lon="6.87094">
        <ele>1981.3</ele>
        <time>2016-05-06T16:41:14Z</time>
      </trkpt>
      <trkpt lat="45.63985" lon="6.87094">
        <ele>1981.3</ele>
        <time>2016-05-06T16:41:16Z</time>
      </trkpt>
      <trkpt lat="45.63985" lon="6.87093">
        <ele>1981.2</ele>
        <time>2016-05-06T16:41:18Z</time>
      </trkpt>
      <trkpt lat="45.63984" lon="6.87091">
        <ele>1981.1</ele>
        <time>2016-05-06T16:41:20Z</time>
      </trkpt>
      <trkpt lat="45.63984" lon="6.8709">
        <ele>1981.2</ele>
        <time>2016-05-06T16:41:22Z</time>
      </trkpt>
      <trkpt lat="45.63985" lon="6.87089">
        <ele>1981.1</ele>
        <time>2016-05-06T16:41:24Z</time>
      </trkpt>
      <trkpt lat="45.63984" lon="6.87088">
        <ele>1981.2</ele>
        <time>2016-05-06T16:41:26Z</time>
      </trkpt>
      <trkpt lat="45.63983" lon="6.87086">
        <ele>1981.4</ele>
        <time>2016-05-06T16:41:28Z</time>
      </trkpt>
      <trkpt lat="45.63982" lon="6.87085">
        <ele>1981.5</ele>
        <time>2016-05-06T16:41:30Z</time>
      </trkpt>
      <trkpt lat="45.63981" lon="6.87082">
        <ele>1981.6</ele>
        <time>2016-05-06T16:41:32Z</time>
      </trkpt>
      <trkpt lat="45.6398" lon="6.8708">
        <ele>1981.6</ele>
        <time>2016-05-06T16:41:34Z</time>
      </trkpt>
      <trkpt lat="45.63979" lon="6.87078">
        <ele>1981.6</ele>
        <time>2016-05-06T16:41:36Z</time>
      </trkpt>
      <trkpt lat="45.63979" lon="6.87076">
        <ele>1981.6</ele>
        <time>2016-05-06T16:41:38Z</time>
      </trkpt>
      <trkpt lat="45.63978" lon="6.87074">
        <ele>1981.6</ele>
        <time>2016-05-06T16:41:40Z</time>
      </trkpt>
      <trkpt lat="45.63978" lon="6.87073">
        <ele>1981.5</ele>
        <time>2016-05-06T16:41:42Z</time>
      </trkpt>
      <trkpt lat="45.63978" lon="6.87071">
        <ele>1981.6</ele>
        <time>2016-05-06T16:41:44Z</time>
      </trkpt>
      <trkpt lat="45.63977" lon="6.87069">
        <ele>1981.7</ele>
        <time>2016-05-06T16:41:46Z</time>
      </trkpt>
      <trkpt lat="45.63977" lon="6.87067">
        <ele>1981.7</ele>
        <time>2016-05-06T16:41:48Z</time>
      </trkpt>
      <trkpt lat="45.63976" lon="6.87065">
        <ele>1981.7</ele>
        <time>2016-05-06T16:41:50Z</time>
      </trkpt>
      <trkpt lat="45.63975" lon="6.87064">
        <ele>1981.7</ele>
        <time>2016-05-06T16:41:52Z</time>
      </trkpt>
      <trkpt lat="45.63974" lon="6.87063">
        <ele>1981.6</ele>
        <time>2016-05-06T16:41:54Z</time>
      </trkpt>
      <trkpt lat="45.63974" lon="6.87062">
        <ele>1981.5</ele>
        <time>2016-05-06T16:41:56Z</time>
      </trkpt>
      <trkpt lat="45.63971" lon="6.87062">
        <ele>1981.7</ele>
        <time>2016-05-06T16:41:58Z</time>
      </trkpt>
      <trkpt lat="45.63971" lon="6.87062">
        <ele>1981.7</ele>
        <time>2016-05-06T16:42:00Z</time>
      </trkpt>
      <trkpt lat="45.63969" lon="6.87061">
        <ele>1981.6</ele>
        <time>2016-05-06T16:42:02Z</time>
      </trkpt>
      <trkpt lat="45.63966" lon="6.87057">
        <ele>1981.6</ele>
        <time>2016-05-06T16:42:04Z</time>
      </trkpt>
      <trkpt lat="45.63962" lon="6.87051">
        <ele>1981.6</ele>
        <time>2016-05-06T16:42:06Z</time>
      </trkpt>
      <trkpt lat="45.63957" lon="6.87044">
        <ele>1981.3</ele>
        <time>2016-05-06T16:42:08Z</time>
      </trkpt>
      <trkpt lat="45.63953" lon="6.87041">
        <ele>1980.9</ele>
        <time>2016-05-06T16:42:10Z</time>
      </trkpt>
      <trkpt lat="45.63948" lon="6.87038">
        <ele>1980.6</ele>
        <time>2016-05-06T16:42:12Z</time>
      </trkpt>
      <trkpt lat="45.63944" lon="6.87034">
        <ele>1980.5</ele>
        <time>2016-05-06T16:42:14Z</time>
      </trkpt>
      <trkpt lat="45.63939" lon="6.8703">
        <ele>1980.1</ele>
        <time>2016-05-06T16:42:16Z</time>
      </trkpt>
      <trkpt lat="45.63936" lon="6.87028">
        <ele>1979.6</ele>
        <time>2016-05-06T16:42:18Z</time>
      </trkpt>
      <trkpt lat="45.63933" lon="6.87025">
        <ele>1979.4</ele>
        <time>2016-05-06T16:42:20Z</time>
      </trkpt>
      <trkpt lat="45.6393" lon="6.87022">
        <ele>1979.1</ele>
        <time>2016-05-06T16:42:22Z</time>
      </trkpt>
      <trkpt lat="45.63927" lon="6.87019">
        <ele>1978.8</ele>
        <time>2016-05-06T16:42:24Z</time>
      </trkpt>
      <trkpt lat="45.63924" lon="6.87015">
        <ele>1978.6</ele>
        <time>2016-05-06T16:42:26Z</time>
      </trkpt>
      <trkpt lat="45.63922" lon="6.87011">
        <ele>1978.5</ele>
        <time>2016-05-06T16:42:28Z</time>
      </trkpt>
      <trkpt lat="45.63919" lon="6.87008">
        <ele>1978.3</ele>
        <time>2016-05-06T16:42:30Z</time>
      </trkpt>
      <trkpt lat="45.63917" lon="6.87005">
        <ele>1978.1</ele>
        <time>2016-05-06T16:42:32Z</time>
      </trkpt>
      <trkpt lat="45.63915" lon="6.87005">
        <ele>1978.1</ele>
        <time>2016-05-06T16:42:34Z</time>
      </trkpt>
      <trkpt lat="45.63914" lon="6.87005">
        <ele>1978.1</ele>
        <time>2016-05-06T16:42:36Z</time>
      </trkpt>
      <trkpt lat="45.63911" lon="6.87002">
        <ele>1977.5</ele>
        <time>2016-05-06T16:42:38Z</time>
      </trkpt>
      <trkpt lat="45.63908" lon="6.87">
        <ele>1977.3</ele>
        <time>2016-05-06T16:42:40Z</time>
      </trkpt>
      <trkpt lat="45.63904" lon="6.86997">
        <ele>1976.9</ele>
        <time>2016-05-06T16:42:42Z</time>
      </trkpt>
      <trkpt lat="45.63899" lon="6.86993">
        <ele>1976.6</ele>
        <time>2016-05-06T16:42:44Z</time>
      </trkpt>
      <trkpt lat="45.63895" lon="6.86992">
        <ele>1976.4</ele>
        <time>2016-05-06T16:42:46Z</time>
      </trkpt>
      <trkpt lat="45.63891" lon="6.86989">
        <ele>1975.7</ele>
        <time>2016-05-06T16:42:48Z</time>
      </trkpt>
      <trkpt lat="45.63887" lon="6.86986">
        <ele>1975.5</ele>
        <time>2016-05-06T16:42:50Z</time>
      </trkpt>
      <trkpt lat="45.63883" lon="6.86983">
        <ele>1975</ele>
        <time>2016-05-06T16:42:52Z</time>
      </trkpt>
      <trkpt lat="45.63879" lon="6.86979">
        <ele>1974.5</ele>
        <time>2016-05-06T16:42:54Z</time>
      </trkpt>
      <trkpt lat="45.63875" lon="6.86977">
        <ele>1974</ele>
        <time>2016-05-06T16:42:56Z</time>
      </trkpt>
      <trkpt lat="45.6387" lon="6.86973">
        <ele>1973.4</ele>
        <time>2016-05-06T16:42:58Z</time>
      </trkpt>
      <trkpt lat="45.63865" lon="6.86968">
        <ele>1972.9</ele>
        <time>2016-05-06T16:43:00Z</time>
      </trkpt>
      <trkpt lat="45.63859" lon="6.86966">
        <ele>1972.5</ele>
        <time>2016-05-06T16:43:02Z</time>
      </trkpt>
      <trkpt lat="45.63853" lon="6.86963">
        <ele>1972</ele>
        <time>2016-05-06T16:43:04Z</time>
      </trkpt>
      <trkpt lat="45.63847" lon="6.8696">
        <ele>1971.5</ele>
        <time>2016-05-06T16:43:06Z</time>
      </trkpt>
      <trkpt lat="45.6384" lon="6.86957">
        <ele>1971</ele>
        <time>2016-05-06T16:43:08Z</time>
      </trkpt>
      <trkpt lat="45.63837" lon="6.86957">
        <ele>1970.2</ele>
        <time>2016-05-06T16:43:10Z</time>
      </trkpt>
      <trkpt lat="45.63833" lon="6.86956">
        <ele>1969.8</ele>
        <time>2016-05-06T16:43:12Z</time>
      </trkpt>
      <trkpt lat="45.63829" lon="6.86952">
        <ele>1969.4</ele>
        <time>2016-05-06T16:43:14Z</time>
      </trkpt>
      <trkpt lat="45.63824" lon="6.86948">
        <ele>1968.8</ele>
        <time>2016-05-06T16:43:16Z</time>
      </trkpt>
      <trkpt lat="45.63819" lon="6.86942">
        <ele>1968.3</ele>
        <time>2016-05-06T16:43:18Z</time>
      </trkpt>
      <trkpt lat="45.63814" lon="6.86935">
        <ele>1967.8</ele>
        <time>2016-05-06T16:43:20Z</time>
      </trkpt>
      <trkpt lat="45.63809" lon="6.86933">
        <ele>1967.5</ele>
        <time>2016-05-06T16:43:22Z</time>
      </trkpt>
      <trkpt lat="45.63803" lon="6.86934">
        <ele>1966.7</ele>
        <time>2016-05-06T16:43:24Z</time>
      </trkpt>
      <trkpt lat="45.63799" lon="6.86935">
        <ele>1966.2</ele>
        <time>2016-05-06T16:43:26Z</time>
      </trkpt>
      <trkpt lat="45.63794" lon="6.86936">
        <ele>1965.7</ele>
        <time>2016-05-06T16:43:28Z</time>
      </trkpt>
      <trkpt lat="45.63788" lon="6.86936">
        <ele>1965.1</ele>
        <time>2016-05-06T16:43:30Z</time>
      </trkpt>
      <trkpt lat="45.63782" lon="6.86935">
        <ele>1964.7</ele>
        <time>2016-05-06T16:43:32Z</time>
      </trkpt>
      <trkpt lat="45.63775" lon="6.86934">
        <ele>1964.4</ele>
        <time>2016-05-06T16:43:34Z</time>
      </trkpt>
      <trkpt lat="45.63767" lon="6.86933">
        <ele>1963.9</ele>
        <time>2016-05-06T16:43:36Z</time>
      </trkpt>
      <trkpt lat="45.63759" lon="6.86933">
        <ele>1963.2</ele>
        <time>2016-05-06T16:43:38Z</time>
      </trkpt>
      <trkpt lat="45.63753" lon="6.86934">
        <ele>1962.9</ele>
        <time>2016-05-06T16:43:40Z</time>
      </trkpt>
      <trkpt lat="45.63747" lon="6.86936">
        <ele>1962.7</ele>
        <time>2016-05-06T16:43:42Z</time>
      </trkpt>
      <trkpt lat="45.63741" lon="6.86936">
        <ele>1962.2</ele>
        <time>2016-05-06T16:43:44Z</time>
      </trkpt>
      <trkpt lat="45.63735" lon="6.86936">
        <ele>1961.5</ele>
        <time>2016-05-06T16:43:46Z</time>
      </trkpt>
      <trkpt lat="45.63729" lon="6.86935">
        <ele>1960.9</ele>
        <time>2016-05-06T16:43:48Z</time>
      </trkpt>
      <trkpt lat="45.63723" lon="6.86934">
        <ele>1960.1</ele>
        <time>2016-05-06T16:43:50Z</time>
      </trkpt>
      <trkpt lat="45.63719" lon="6.86935">
        <ele>1959.6</ele>
        <time>2016-05-06T16:43:52Z</time>
      </trkpt>
      <trkpt lat="45.63714" lon="6.86933">
        <ele>1959.2</ele>
        <time>2016-05-06T16:43:54Z</time>
      </trkpt>
      <trkpt lat="45.63708" lon="6.86931">
        <ele>1958.7</ele>
        <time>2016-05-06T16:43:56Z</time>
      </trkpt>
      <trkpt lat="45.63703" lon="6.86929">
        <ele>1958.2</ele>
        <time>2016-05-06T16:43:58Z</time>
      </trkpt>
      <trkpt lat="45.63697" lon="6.86927">
        <ele>1957.9</ele>
        <time>2016-05-06T16:44:00Z</time>
      </trkpt>
      <trkpt lat="45.63691" lon="6.86925">
        <ele>1957.3</ele>
        <time>2016-05-06T16:44:02Z</time>
      </trkpt>
      <trkpt lat="45.63685" lon="6.86922">
        <ele>1956.9</ele>
        <time>2016-05-06T16:44:04Z</time>
      </trkpt>
      <trkpt lat="45.63679" lon="6.86921">
        <ele>1956.3</ele>
        <time>2016-05-06T16:44:06Z</time>
      </trkpt>
      <trkpt lat="45.63674" lon="6.8692">
        <ele>1955.9</ele>
        <time>2016-05-06T16:44:08Z</time>
      </trkpt>
      <trkpt lat="45.6367" lon="6.86919">
        <ele>1955.5</ele>
        <time>2016-05-06T16:44:10Z</time>
      </trkpt>
      <trkpt lat="45.63666" lon="6.86918">
        <ele>1954.6</ele>
        <time>2016-05-06T16:44:12Z</time>
      </trkpt>
      <trkpt lat="45.63661" lon="6.86916">
        <ele>1954</ele>
        <time>2016-05-06T16:44:14Z</time>
      </trkpt>
      <trkpt lat="45.63657" lon="6.86914">
        <ele>1953.2</ele>
        <time>2016-05-06T16:44:16Z</time>
      </trkpt>
      <trkpt lat="45.63653" lon="6.86913">
        <ele>1952.8</ele>
        <time>2016-05-06T16:44:18Z</time>
      </trkpt>
      <trkpt lat="45.63649" lon="6.86911">
        <ele>1952.3</ele>
        <time>2016-05-06T16:44:20Z</time>
      </trkpt>
      <trkpt lat="45.63645" lon="6.86909">
        <ele>1951.8</ele>
        <time>2016-05-06T16:44:22Z</time>
      </trkpt>
      <trkpt lat="45.63641" lon="6.86907">
        <ele>1951.4</ele>
        <time>2016-05-06T16:44:24Z</time>
      </trkpt>
      <trkpt lat="45.63636" lon="6.86904">
        <ele>1950.9</ele>
        <time>2016-05-06T16:44:26Z</time>
      </trkpt>
      <trkpt lat="45.63631" lon="6.86902">
        <ele>1950.4</ele>
        <time>2016-05-06T16:44:28Z</time>
      </trkpt>
      <trkpt lat="45.63627" lon="6.86899">
        <ele>1950</ele>
        <time>2016-05-06T16:44:30Z</time>
      </trkpt>
      <trkpt lat="45.63624" lon="6.86898">
        <ele>1949.6</ele>
        <time>2016-05-06T16:44:32Z</time>
      </trkpt>
      <trkpt lat="45.6362" lon="6.86896">
        <ele>1949.2</ele>
        <time>2016-05-06T16:44:34Z</time>
      </trkpt>
      <trkpt lat="45.63617" lon="6.86893">
        <ele>1948.6</ele>
        <time>2016-05-06T16:44:36Z</time>
      </trkpt>
      <trkpt lat="45.63616" lon="6.86892">
        <ele>1948.7</ele>
        <time>2016-05-06T16:44:38Z</time>
      </trkpt>
      <trkpt lat="45.63614" lon="6.86892">
        <ele>1948.5</ele>
        <time>2016-05-06T16:44:40Z</time>
      </trkpt>
      <trkpt lat="45.63613" lon="6.8689">
        <ele>1948.2</ele>
        <time>2016-05-06T16:44:42Z</time>
      </trkpt>
      <trkpt lat="45.63611" lon="6.86887">
        <ele>1948.3</ele>
        <time>2016-05-06T16:44:44Z</time>
      </trkpt>
      <trkpt lat="45.6361" lon="6.86885">
        <ele>1948.2</ele>
        <time>2016-05-06T16:44:46Z</time>
      </trkpt>
      <trkpt lat="45.63608" lon="6.86884">
        <ele>1948</ele>
        <time>2016-05-06T16:44:48Z</time>
      </trkpt>
      <trkpt lat="45.63607" lon="6.86882">
        <ele>1947.8</ele>
        <time>2016-05-06T16:44:50Z</time>
      </trkpt>
      <trkpt lat="45.63606" lon="6.86878">
        <ele>1947.7</ele>
        <time>2016-05-06T16:44:52Z</time>
      </trkpt>
      <trkpt lat="45.63604" lon="6.86875">
        <ele>1947.6</ele>
        <time>2016-05-06T16:44:54Z</time>
      </trkpt>
      <trkpt lat="45.63604" lon="6.86873">
        <ele>1947.7</ele>
        <time>2016-05-06T16:44:56Z</time>
      </trkpt>
      <trkpt lat="45.63602" lon="6.8687">
        <ele>1947.6</ele>
        <time>2016-05-06T16:44:58Z</time>
      </trkpt>
      <trkpt lat="45.63601" lon="6.86866">
        <ele>1947.4</ele>
        <time>2016-05-06T16:45:00Z</time>
      </trkpt>
      <trkpt lat="45.63601" lon="6.86862">
        <ele>1947.1</ele>
        <time>2016-05-06T16:45:02Z</time>
      </trkpt>
      <trkpt lat="45.636" lon="6.86853">
        <ele>1946.9</ele>
        <time>2016-05-06T16:45:04Z</time>
      </trkpt>
      <trkpt lat="45.63598" lon="6.86839">
        <ele>1946.6</ele>
        <time>2016-05-06T16:45:06Z</time>
      </trkpt>
      <trkpt lat="45.63594" lon="6.86825">
        <ele>1945.9</ele>
        <time>2016-05-06T16:45:08Z</time>
      </trkpt>
      <trkpt lat="45.63587" lon="6.86817">
        <ele>1945.2</ele>
        <time>2016-05-06T16:45:10Z</time>
      </trkpt>
      <trkpt lat="45.63579" lon="6.86811">
        <ele>1944.5</ele>
        <time>2016-05-06T16:45:12Z</time>
      </trkpt>
      <trkpt lat="45.6357" lon="6.86808">
        <ele>1943.6</ele>
        <time>2016-05-06T16:45:14Z</time>
      </trkpt>
      <trkpt lat="45.63562" lon="6.86808">
        <ele>1942.5</ele>
        <time>2016-05-06T16:45:16Z</time>
      </trkpt>
      <trkpt lat="45.63555" lon="6.86809">
        <ele>1941.7</ele>
        <time>2016-05-06T16:45:18Z</time>
      </trkpt>
      <trkpt lat="45.63547" lon="6.86808">
        <ele>1941</ele>
        <time>2016-05-06T16:45:20Z</time>
      </trkpt>
      <trkpt lat="45.6354" lon="6.86807">
        <ele>1940</ele>
        <time>2016-05-06T16:45:22Z</time>
      </trkpt>
      <trkpt lat="45.63534" lon="6.86806">
        <ele>1939.2</ele>
        <time>2016-05-06T16:45:24Z</time>
      </trkpt>
      <trkpt lat="45.63528" lon="6.86806">
        <ele>1938.4</ele>
        <time>2016-05-06T16:45:26Z</time>
      </trkpt>
      <trkpt lat="45.63522" lon="6.86804">
        <ele>1937.9</ele>
        <time>2016-05-06T16:45:28Z</time>
      </trkpt>
      <trkpt lat="45.63517" lon="6.86803">
        <ele>1937.5</ele>
        <time>2016-05-06T16:45:30Z</time>
      </trkpt>
      <trkpt lat="45.63512" lon="6.868">
        <ele>1937.2</ele>
        <time>2016-05-06T16:45:32Z</time>
      </trkpt>
      <trkpt lat="45.63506" lon="6.86799">
        <ele>1936.6</ele>
        <time>2016-05-06T16:45:34Z</time>
      </trkpt>
      <trkpt lat="45.63499" lon="6.86796">
        <ele>1936</ele>
        <time>2016-05-06T16:45:36Z</time>
      </trkpt>
      <trkpt lat="45.63493" lon="6.86796">
        <ele>1935.6</ele>
        <time>2016-05-06T16:45:38Z</time>
      </trkpt>
      <trkpt lat="45.63488" lon="6.86797">
        <ele>1935.3</ele>
        <time>2016-05-06T16:45:40Z</time>
      </trkpt>
      <trkpt lat="45.63482" lon="6.86796">
        <ele>1935</ele>
        <time>2016-05-06T16:45:42Z</time>
      </trkpt>
      <trkpt lat="45.63476" lon="6.86795">
        <ele>1934.7</ele>
        <time>2016-05-06T16:45:44Z</time>
      </trkpt>
      <trkpt lat="45.63472" lon="6.86796">
        <ele>1934.1</ele>
        <time>2016-05-06T16:45:46Z</time>
      </trkpt>
      <trkpt lat="45.63468" lon="6.86797">
        <ele>1933.6</ele>
        <time>2016-05-06T16:45:48Z</time>
      </trkpt>
      <trkpt lat="45.63463" lon="6.86797">
        <ele>1932.9</ele>
        <time>2016-05-06T16:45:50Z</time>
      </trkpt>
      <trkpt lat="45.63459" lon="6.86797">
        <ele>1932.4</ele>
        <time>2016-05-06T16:45:52Z</time>
      </trkpt>
      <trkpt lat="45.63455" lon="6.86799">
        <ele>1932.1</ele>
        <time>2016-05-06T16:45:54Z</time>
      </trkpt>
      <trkpt lat="45.63452" lon="6.868">
        <ele>1932.1</ele>
        <time>2016-05-06T16:45:56Z</time>
      </trkpt>
      <trkpt lat="45.63446" lon="6.86801">
        <ele>1932.1</ele>
        <time>2016-05-06T16:45:58Z</time>
      </trkpt>
      <trkpt lat="45.63441" lon="6.86802">
        <ele>1931.8</ele>
        <time>2016-05-06T16:46:00Z</time>
      </trkpt>
      <trkpt lat="45.63436" lon="6.86801">
        <ele>1931.5</ele>
        <time>2016-05-06T16:46:02Z</time>
      </trkpt>
      <trkpt lat="45.63432" lon="6.86801">
        <ele>1931.1</ele>
        <time>2016-05-06T16:46:04Z</time>
      </trkpt>
      <trkpt lat="45.63429" lon="6.86801">
        <ele>1930.4</ele>
        <time>2016-05-06T16:46:06Z</time>
      </trkpt>
      <trkpt lat="45.63425" lon="6.868">
        <ele>1930.2</ele>
        <time>2016-05-06T16:46:08Z</time>
      </trkpt>
      <trkpt lat="45.63421" lon="6.868">
        <ele>1929.6</ele>
        <time>2016-05-06T16:46:10Z</time>
      </trkpt>
      <trkpt lat="45.63416" lon="6.86799">
        <ele>1929</ele>
        <time>2016-05-06T16:46:12Z</time>
      </trkpt>
      <trkpt lat="45.6341" lon="6.86796">
        <ele>1928.6</ele>
        <time>2016-05-06T16:46:14Z</time>
      </trkpt>
      <trkpt lat="45.63404" lon="6.86793">
        <ele>1928.2</ele>
        <time>2016-05-06T16:46:16Z</time>
      </trkpt>
      <trkpt lat="45.63399" lon="6.8679">
        <ele>1927.6</ele>
        <time>2016-05-06T16:46:18Z</time>
      </trkpt>
      <trkpt lat="45.63394" lon="6.86789">
        <ele>1927.1</ele>
        <time>2016-05-06T16:46:20Z</time>
      </trkpt>
      <trkpt lat="45.6339" lon="6.86788">
        <ele>1926.6</ele>
        <time>2016-05-06T16:46:22Z</time>
      </trkpt>
      <trkpt lat="45.63388" lon="6.86788">
        <ele>1926.3</ele>
        <time>2016-05-06T16:46:24Z</time>
      </trkpt>
      <trkpt lat="45.63387" lon="6.86787">
        <ele>1926.1</ele>
        <time>2016-05-06T16:46:26Z</time>
      </trkpt>
      <trkpt lat="45.63384" lon="6.86786">
        <ele>1926</ele>
        <time>2016-05-06T16:46:28Z</time>
      </trkpt>
      <trkpt lat="45.63382" lon="6.86785">
        <ele>1925.9</ele>
        <time>2016-05-06T16:46:30Z</time>
      </trkpt>
      <trkpt lat="45.6338" lon="6.86785">
        <ele>1925.9</ele>
        <time>2016-05-06T16:46:32Z</time>
      </trkpt>
      <trkpt lat="45.63377" lon="6.86785">
        <ele>1925.9</ele>
        <time>2016-05-06T16:46:34Z</time>
      </trkpt>
      <trkpt lat="45.63373" lon="6.86784">
        <ele>1925.8</ele>
        <time>2016-05-06T16:46:36Z</time>
      </trkpt>
      <trkpt lat="45.63368" lon="6.86783">
        <ele>1925.7</ele>
        <time>2016-05-06T16:46:38Z</time>
      </trkpt>
      <trkpt lat="45.63364" lon="6.86781">
        <ele>1925.5</ele>
        <time>2016-05-06T16:46:40Z</time>
      </trkpt>
      <trkpt lat="45.63359" lon="6.86779">
        <ele>1925.3</ele>
        <time>2016-05-06T16:46:42Z</time>
      </trkpt>
      <trkpt lat="45.63356" lon="6.86778">
        <ele>1924.8</ele>
        <time>2016-05-06T16:46:44Z</time>
      </trkpt>
      <trkpt lat="45.63352" lon="6.86776">
        <ele>1924.3</ele>
        <time>2016-05-06T16:46:46Z</time>
      </trkpt>
      <trkpt lat="45.63347" lon="6.86775">
        <ele>1923.9</ele>
        <time>2016-05-06T16:46:48Z</time>
      </trkpt>
      <trkpt lat="45.63344" lon="6.86774">
        <ele>1923.7</ele>
        <time>2016-05-06T16:46:50Z</time>
      </trkpt>
      <trkpt lat="45.63341" lon="6.86772">
        <ele>1923.4</ele>
        <time>2016-05-06T16:46:52Z</time>
      </trkpt>
      <trkpt lat="45.63337" lon="6.8677">
        <ele>1923.2</ele>
        <time>2016-05-06T16:46:54Z</time>
      </trkpt>
      <trkpt lat="45.63332" lon="6.86767">
        <ele>1923.3</ele>
        <time>2016-05-06T16:46:56Z</time>
      </trkpt>
      <trkpt lat="45.63327" lon="6.86763">
        <ele>1923.2</ele>
        <time>2016-05-06T16:46:58Z</time>
      </trkpt>
      <trkpt lat="45.63322" lon="6.86758">
        <ele>1922.9</ele>
        <time>2016-05-06T16:47:00Z</time>
      </trkpt>
      <trkpt lat="45.63317" lon="6.86753">
        <ele>1922.5</ele>
        <time>2016-05-06T16:47:02Z</time>
      </trkpt>
      <trkpt lat="45.63311" lon="6.86749">
        <ele>1921.9</ele>
        <time>2016-05-06T16:47:04Z</time>
      </trkpt>
      <trkpt lat="45.63307" lon="6.86746">
        <ele>1921.4</ele>
        <time>2016-05-06T16:47:06Z</time>
      </trkpt>
      <trkpt lat="45.63302" lon="6.86743">
        <ele>1921.1</ele>
        <time>2016-05-06T16:47:08Z</time>
      </trkpt>
      <trkpt lat="45.63296" lon="6.86739">
        <ele>1920.4</ele>
        <time>2016-05-06T16:47:10Z</time>
      </trkpt>
      <trkpt lat="45.63289" lon="6.86737">
        <ele>1919.8</ele>
        <time>2016-05-06T16:47:12Z</time>
      </trkpt>
      <trkpt lat="45.63283" lon="6.86733">
        <ele>1919.5</ele>
        <time>2016-05-06T16:47:14Z</time>
      </trkpt>
      <trkpt lat="45.63276" lon="6.86733">
        <ele>1919</ele>
        <time>2016-05-06T16:47:16Z</time>
      </trkpt>
      <trkpt lat="45.63269" lon="6.86732">
        <ele>1918.3</ele>
        <time>2016-05-06T16:47:18Z</time>
      </trkpt>
      <trkpt lat="45.63263" lon="6.86733">
        <ele>1917.6</ele>
        <time>2016-05-06T16:47:20Z</time>
      </trkpt>
      <trkpt lat="45.63257" lon="6.86733">
        <ele>1917.1</ele>
        <time>2016-05-06T16:47:22Z</time>
      </trkpt>
      <trkpt lat="45.6325" lon="6.8673">
        <ele>1916.7</ele>
        <time>2016-05-06T16:47:24Z</time>
      </trkpt>
      <trkpt lat="45.63244" lon="6.8673">
        <ele>1916.1</ele>
        <time>2016-05-06T16:47:26Z</time>
      </trkpt>
      <trkpt lat="45.63238" lon="6.86728">
        <ele>1915.6</ele>
        <time>2016-05-06T16:47:28Z</time>
      </trkpt>
      <trkpt lat="45.63232" lon="6.86726">
        <ele>1914.9</ele>
        <time>2016-05-06T16:47:30Z</time>
      </trkpt>
      <trkpt lat="45.63224" lon="6.86724">
        <ele>1914.2</ele>
        <time>2016-05-06T16:47:32Z</time>
      </trkpt>
      <trkpt lat="45.63216" lon="6.86724">
        <ele>1913.7</ele>
        <time>2016-05-06T16:47:34Z</time>
      </trkpt>
      <trkpt lat="45.63209" lon="6.86724">
        <ele>1913</ele>
        <time>2016-05-06T16:47:36Z</time>
      </trkpt>
      <trkpt lat="45.63202" lon="6.86724">
        <ele>1912.4</ele>
        <time>2016-05-06T16:47:38Z</time>
      </trkpt>
      <trkpt lat="45.63195" lon="6.86722">
        <ele>1911.9</ele>
        <time>2016-05-06T16:47:40Z</time>
      </trkpt>
      <trkpt lat="45.63188" lon="6.8672">
        <ele>1911.1</ele>
        <time>2016-05-06T16:47:42Z</time>
      </trkpt>
      <trkpt lat="45.63183" lon="6.86718">
        <ele>1910.6</ele>
        <time>2016-05-06T16:47:44Z</time>
      </trkpt>
      <trkpt lat="45.63177" lon="6.86715">
        <ele>1910.1</ele>
        <time>2016-05-06T16:47:46Z</time>
      </trkpt>
      <trkpt lat="45.63173" lon="6.86713">
        <ele>1909.7</ele>
        <time>2016-05-06T16:47:48Z</time>
      </trkpt>
      <trkpt lat="45.63169" lon="6.86711">
        <ele>1909.4</ele>
        <time>2016-05-06T16:47:50Z</time>
      </trkpt>
      <trkpt lat="45.63164" lon="6.86708">
        <ele>1909.1</ele>
        <time>2016-05-06T16:47:52Z</time>
      </trkpt>
      <trkpt lat="45.63159" lon="6.86705">
        <ele>1908.7</ele>
        <time>2016-05-06T16:47:54Z</time>
      </trkpt>
      <trkpt lat="45.63153" lon="6.86702">
        <ele>1908.1</ele>
        <time>2016-05-06T16:47:56Z</time>
      </trkpt>
      <trkpt lat="45.63149" lon="6.867">
        <ele>1907.7</ele>
        <time>2016-05-06T16:47:58Z</time>
      </trkpt>
      <trkpt lat="45.63144" lon="6.86697">
        <ele>1907.2</ele>
        <time>2016-05-06T16:48:00Z</time>
      </trkpt>
      <trkpt lat="45.63141" lon="6.86696">
        <ele>1906.7</ele>
        <time>2016-05-06T16:48:02Z</time>
      </trkpt>
      <trkpt lat="45.63136" lon="6.86693">
        <ele>1906.4</ele>
        <time>2016-05-06T16:48:04Z</time>
      </trkpt>
      <trkpt lat="45.63131" lon="6.86689">
        <ele>1905.8</ele>
        <time>2016-05-06T16:48:06Z</time>
      </trkpt>
      <trkpt lat="45.63128" lon="6.86688">
        <ele>1905.7</ele>
        <time>2016-05-06T16:48:08Z</time>
      </trkpt>
      <trkpt lat="45.63123" lon="6.86689">
        <ele>1905.4</ele>
        <time>2016-05-06T16:48:10Z</time>
      </trkpt>
      <trkpt lat="45.63125" lon="6.86698">
        <ele>1904.8</ele>
        <time>2016-05-06T16:48:12Z</time>
      </trkpt>
      <trkpt lat="45.63126" lon="6.86708">
        <ele>1903.8</ele>
        <time>2016-05-06T16:48:14Z</time>
      </trkpt>
      <trkpt lat="45.63118" lon="6.86709">
        <ele>1902</ele>
        <time>2016-05-06T16:48:16Z</time>
      </trkpt>
      <trkpt lat="45.63109" lon="6.86704">
        <ele>1900.6</ele>
        <time>2016-05-06T16:48:18Z</time>
      </trkpt>
      <trkpt lat="45.63101" lon="6.86699">
        <ele>1899.5</ele>
        <time>2016-05-06T16:48:20Z</time>
      </trkpt>
      <trkpt lat="45.63095" lon="6.86697">
        <ele>1898.6</ele>
        <time>2016-05-06T16:48:22Z</time>
      </trkpt>
      <trkpt lat="45.63093" lon="6.86695">
        <ele>1897.9</ele>
        <time>2016-05-06T16:48:24Z</time>
      </trkpt>
      <trkpt lat="45.63092" lon="6.86695">
        <ele>1897.3</ele>
        <time>2016-05-06T16:48:26Z</time>
      </trkpt>
      <trkpt lat="45.63093" lon="6.86695">
        <ele>1897</ele>
        <time>2016-05-06T16:48:28Z</time>
      </trkpt>
      <trkpt lat="45.63093" lon="6.86698">
        <ele>1896.8</ele>
        <time>2016-05-06T16:48:30Z</time>
      </trkpt>
      <trkpt lat="45.63095" lon="6.86702">
        <ele>1896.6</ele>
        <time>2016-05-06T16:48:32Z</time>
      </trkpt>
      <trkpt lat="45.63098" lon="6.86707">
        <ele>1896.4</ele>
        <time>2016-05-06T16:48:34Z</time>
      </trkpt>
      <trkpt lat="45.63102" lon="6.86713">
        <ele>1896.2</ele>
        <time>2016-05-06T16:48:36Z</time>
      </trkpt>
      <trkpt lat="45.63108" lon="6.86723">
        <ele>1896.1</ele>
        <time>2016-05-06T16:48:38Z</time>
      </trkpt>
      <trkpt lat="45.63112" lon="6.86736">
        <ele>1895</ele>
        <time>2016-05-06T16:48:40Z</time>
      </trkpt>
      <trkpt lat="45.63108" lon="6.86737">
        <ele>1894.4</ele>
        <time>2016-05-06T16:48:42Z</time>
      </trkpt>
      <trkpt lat="45.63105" lon="6.86731">
        <ele>1893.6</ele>
        <time>2016-05-06T16:48:44Z</time>
      </trkpt>
      <trkpt lat="45.63102" lon="6.86726">
        <ele>1893</ele>
        <time>2016-05-06T16:48:46Z</time>
      </trkpt>
      <trkpt lat="45.63098" lon="6.86723">
        <ele>1892.6</ele>
        <time>2016-05-06T16:48:48Z</time>
      </trkpt>
      <trkpt lat="45.63095" lon="6.86718">
        <ele>1892.2</ele>
        <time>2016-05-06T16:48:50Z</time>
      </trkpt>
      <trkpt lat="45.6309" lon="6.86713">
        <ele>1891.7</ele>
        <time>2016-05-06T16:48:52Z</time>
      </trkpt>
      <trkpt lat="45.63085" lon="6.86707">
        <ele>1891.2</ele>
        <time>2016-05-06T16:48:54Z</time>
      </trkpt>
      <trkpt lat="45.6308" lon="6.86703">
        <ele>1890.8</ele>
        <time>2016-05-06T16:48:56Z</time>
      </trkpt>
      <trkpt lat="45.63075" lon="6.86701">
        <ele>1889.9</ele>
        <time>2016-05-06T16:48:58Z</time>
      </trkpt>
      <trkpt lat="45.63071" lon="6.86699">
        <ele>1889.4</ele>
        <time>2016-05-06T16:49:00Z</time>
      </trkpt>
      <trkpt lat="45.63066" lon="6.86696">
        <ele>1889.1</ele>
        <time>2016-05-06T16:49:02Z</time>
      </trkpt>
      <trkpt lat="45.6306" lon="6.86692">
        <ele>1888.9</ele>
        <time>2016-05-06T16:49:04Z</time>
      </trkpt>
      <trkpt lat="45.63052" lon="6.8669">
        <ele>1888.5</ele>
        <time>2016-05-06T16:49:06Z</time>
      </trkpt>
      <trkpt lat="45.63046" lon="6.86691">
        <ele>1888.3</ele>
        <time>2016-05-06T16:49:08Z</time>
      </trkpt>
      <trkpt lat="45.63041" lon="6.86693">
        <ele>1887.8</ele>
        <time>2016-05-06T16:49:10Z</time>
      </trkpt>
      <trkpt lat="45.63036" lon="6.86694">
        <ele>1887.4</ele>
        <time>2016-05-06T16:49:12Z</time>
      </trkpt>
      <trkpt lat="45.63033" lon="6.86693">
        <ele>1887.1</ele>
        <time>2016-05-06T16:49:14Z</time>
      </trkpt>
      <trkpt lat="45.63028" lon="6.86691">
        <ele>1886.9</ele>
        <time>2016-05-06T16:49:16Z</time>
      </trkpt>
      <trkpt lat="45.63025" lon="6.86689">
        <ele>1886.6</ele>
        <time>2016-05-06T16:49:18Z</time>
      </trkpt>
      <trkpt lat="45.63023" lon="6.86688">
        <ele>1886.1</ele>
        <time>2016-05-06T16:49:20Z</time>
      </trkpt>
      <trkpt lat="45.63022" lon="6.86687">
        <ele>1885.8</ele>
        <time>2016-05-06T16:49:22Z</time>
      </trkpt>
      <trkpt lat="45.63021" lon="6.86688">
        <ele>1885.7</ele>
        <time>2016-05-06T16:49:24Z</time>
      </trkpt>
      <trkpt lat="45.63021" lon="6.86687">
        <ele>1885.6</ele>
        <time>2016-05-06T16:49:26Z</time>
      </trkpt>
      <trkpt lat="45.6302" lon="6.86688">
        <ele>1885.5</ele>
        <time>2016-05-06T16:49:28Z</time>
      </trkpt>
      <trkpt lat="45.63017" lon="6.86686">
        <ele>1885.6</ele>
        <time>2016-05-06T16:49:30Z</time>
      </trkpt>
      <trkpt lat="45.63014" lon="6.86683">
        <ele>1885.4</ele>
        <time>2016-05-06T16:49:32Z</time>
      </trkpt>
      <trkpt lat="45.63012" lon="6.86681">
        <ele>1885.3</ele>
        <time>2016-05-06T16:49:34Z</time>
      </trkpt>
      <trkpt lat="45.6301" lon="6.86678">
        <ele>1885.2</ele>
        <time>2016-05-06T16:49:36Z</time>
      </trkpt>
      <trkpt lat="45.63008" lon="6.86676">
        <ele>1885</ele>
        <time>2016-05-06T16:49:38Z</time>
      </trkpt>
      <trkpt lat="45.63007" lon="6.86677">
        <ele>1885</ele>
        <time>2016-05-06T16:49:40Z</time>
      </trkpt>
      <trkpt lat="45.63007" lon="6.86676">
        <ele>1884.9</ele>
        <time>2016-05-06T16:49:42Z</time>
      </trkpt>
      <trkpt lat="45.63005" lon="6.86674">
        <ele>1884.6</ele>
        <time>2016-05-06T16:49:44Z</time>
      </trkpt>
      <trkpt lat="45.63004" lon="6.86675">
        <ele>1884.5</ele>
        <time>2016-05-06T16:49:46Z</time>
      </trkpt>
      <trkpt lat="45.63001" lon="6.86674">
        <ele>1884.4</ele>
        <time>2016-05-06T16:49:48Z</time>
      </trkpt>
      <trkpt lat="45.62997" lon="6.86673">
        <ele>1884.4</ele>
        <time>2016-05-06T16:49:50Z</time>
      </trkpt>
      <trkpt lat="45.62992" lon="6.8667">
        <ele>1883.7</ele>
        <time>2016-05-06T16:49:52Z</time>
      </trkpt>
      <trkpt lat="45.62985" lon="6.86667">
        <ele>1883.3</ele>
        <time>2016-05-06T16:49:54Z</time>
      </trkpt>
      <trkpt lat="45.62978" lon="6.86664">
        <ele>1883</ele>
        <time>2016-05-06T16:49:56Z</time>
      </trkpt>
      <trkpt lat="45.62971" lon="6.86664">
        <ele>1882.7</ele>
        <time>2016-05-06T16:49:58Z</time>
      </trkpt>
      <trkpt lat="45.62964" lon="6.86666">
        <ele>1882.3</ele>
        <time>2016-05-06T16:50:00Z</time>
      </trkpt>
      <trkpt lat="45.62957" lon="6.86668">
        <ele>1882.1</ele>
        <time>2016-05-06T16:50:02Z</time>
      </trkpt>
      <trkpt lat="45.62952" lon="6.86671">
        <ele>1881.7</ele>
        <time>2016-05-06T16:50:04Z</time>
      </trkpt>
      <trkpt lat="45.62947" lon="6.86674">
        <ele>1881.1</ele>
        <time>2016-05-06T16:50:06Z</time>
      </trkpt>
      <trkpt lat="45.6294" lon="6.86673">
        <ele>1881</ele>
        <time>2016-05-06T16:50:08Z</time>
      </trkpt>
      <trkpt lat="45.62935" lon="6.86677">
        <ele>1880.8</ele>
        <time>2016-05-06T16:50:10Z</time>
      </trkpt>
      <trkpt lat="45.62931" lon="6.86679">
        <ele>1880.6</ele>
        <time>2016-05-06T16:50:12Z</time>
      </trkpt>
      <trkpt lat="45.62928" lon="6.86683">
        <ele>1880.4</ele>
        <time>2016-05-06T16:50:14Z</time>
      </trkpt>
      <trkpt lat="45.62923" lon="6.86685">
        <ele>1880.2</ele>
        <time>2016-05-06T16:50:16Z</time>
      </trkpt>
      <trkpt lat="45.62919" lon="6.86687">
        <ele>1880</ele>
        <time>2016-05-06T16:50:18Z</time>
      </trkpt>
      <trkpt lat="45.62915" lon="6.8669">
        <ele>1879.8</ele>
        <time>2016-05-06T16:50:20Z</time>
      </trkpt>
      <trkpt lat="45.62911" lon="6.86692">
        <ele>1879.5</ele>
        <time>2016-05-06T16:50:22Z</time>
      </trkpt>
      <trkpt lat="45.62906" lon="6.86694">
        <ele>1879.2</ele>
        <time>2016-05-06T16:50:24Z</time>
      </trkpt>
      <trkpt lat="45.62902" lon="6.86696">
        <ele>1879</ele>
        <time>2016-05-06T16:50:26Z</time>
      </trkpt>
      <trkpt lat="45.62898" lon="6.86698">
        <ele>1878.9</ele>
        <time>2016-05-06T16:50:28Z</time>
      </trkpt>
      <trkpt lat="45.62895" lon="6.86703">
        <ele>1878.7</ele>
        <time>2016-05-06T16:50:30Z</time>
      </trkpt>
      <trkpt lat="45.62889" lon="6.86707">
        <ele>1878.2</ele>
        <time>2016-05-06T16:50:32Z</time>
      </trkpt>
      <trkpt lat="45.62886" lon="6.86712">
        <ele>1878</ele>
        <time>2016-05-06T16:50:34Z</time>
      </trkpt>
      <trkpt lat="45.6288" lon="6.86716">
        <ele>1877.9</ele>
        <time>2016-05-06T16:50:36Z</time>
      </trkpt>
      <trkpt lat="45.62877" lon="6.86721">
        <ele>1877.7</ele>
        <time>2016-05-06T16:50:38Z</time>
      </trkpt>
      <trkpt lat="45.62871" lon="6.86726">
        <ele>1877.1</ele>
        <time>2016-05-06T16:50:40Z</time>
      </trkpt>
      <trkpt lat="45.62865" lon="6.86728">
        <ele>1876.8</ele>
        <time>2016-05-06T16:50:42Z</time>
      </trkpt>
      <trkpt lat="45.62859" lon="6.86731">
        <ele>1876.6</ele>
        <time>2016-05-06T16:50:44Z</time>
      </trkpt>
      <trkpt lat="45.62852" lon="6.86732">
        <ele>1876.3</ele>
        <time>2016-05-06T16:50:46Z</time>
      </trkpt>
      <trkpt lat="45.62846" lon="6.86735">
        <ele>1876</ele>
        <time>2016-05-06T16:50:48Z</time>
      </trkpt>
      <trkpt lat="45.6284" lon="6.86737">
        <ele>1875.9</ele>
        <time>2016-05-06T16:50:50Z</time>
      </trkpt>
      <trkpt lat="45.62834" lon="6.8674">
        <ele>1875.5</ele>
        <time>2016-05-06T16:50:52Z</time>
      </trkpt>
      <trkpt lat="45.62827" lon="6.86744">
        <ele>1875.1</ele>
        <time>2016-05-06T16:50:54Z</time>
      </trkpt>
      <trkpt lat="45.6282" lon="6.86746">
        <ele>1874.7</ele>
        <time>2016-05-06T16:50:56Z</time>
      </trkpt>
      <trkpt lat="45.62816" lon="6.86748">
        <ele>1874.5</ele>
        <time>2016-05-06T16:50:58Z</time>
      </trkpt>
      <trkpt lat="45.62814" lon="6.86751">
        <ele>1874.3</ele>
        <time>2016-05-06T16:51:00Z</time>
      </trkpt>
      <trkpt lat="45.62811" lon="6.86751">
        <ele>1874.4</ele>
        <time>2016-05-06T16:51:02Z</time>
      </trkpt>
      <trkpt lat="45.62809" lon="6.86754">
        <ele>1874.5</ele>
        <time>2016-05-06T16:51:04Z</time>
      </trkpt>
      <trkpt lat="45.62805" lon="6.86754">
        <ele>1874.3</ele>
        <time>2016-05-06T16:51:06Z</time>
      </trkpt>
      <trkpt lat="45.628" lon="6.86754">
        <ele>1874.3</ele>
        <time>2016-05-06T16:51:08Z</time>
      </trkpt>
      <trkpt lat="45.62796" lon="6.86756">
        <ele>1874.3</ele>
        <time>2016-05-06T16:51:10Z</time>
      </trkpt>
      <trkpt lat="45.62791" lon="6.86756">
        <ele>1874.4</ele>
        <time>2016-05-06T16:51:12Z</time>
      </trkpt>
      <trkpt lat="45.62785" lon="6.86756">
        <ele>1874.5</ele>
        <time>2016-05-06T16:51:14Z</time>
      </trkpt>
      <trkpt lat="45.6278" lon="6.86755">
        <ele>1874.5</ele>
        <time>2016-05-06T16:51:16Z</time>
      </trkpt>
      <trkpt lat="45.62774" lon="6.86753">
        <ele>1874.4</ele>
        <time>2016-05-06T16:51:18Z</time>
      </trkpt>
      <trkpt lat="45.62769" lon="6.86754">
        <ele>1874.2</ele>
        <time>2016-05-06T16:51:20Z</time>
      </trkpt>
      <trkpt lat="45.62764" lon="6.86751">
        <ele>1873.9</ele>
        <time>2016-05-06T16:51:22Z</time>
      </trkpt>
      <trkpt lat="45.62761" lon="6.86746">
        <ele>1873.8</ele>
        <time>2016-05-06T16:51:24Z</time>
      </trkpt>
      <trkpt lat="45.62759" lon="6.86743">
        <ele>1873.9</ele>
        <time>2016-05-06T16:51:26Z</time>
      </trkpt>
      <trkpt lat="45.62757" lon="6.86738">
        <ele>1873.8</ele>
        <time>2016-05-06T16:51:28Z</time>
      </trkpt>
      <trkpt lat="45.62754" lon="6.86733">
        <ele>1873.7</ele>
        <time>2016-05-06T16:51:30Z</time>
      </trkpt>
      <trkpt lat="45.62751" lon="6.86726">
        <ele>1873.4</ele>
        <time>2016-05-06T16:51:32Z</time>
      </trkpt>
      <trkpt lat="45.62748" lon="6.86719">
        <ele>1873</ele>
        <time>2016-05-06T16:51:34Z</time>
      </trkpt>
      <trkpt lat="45.62747" lon="6.86713">
        <ele>1872.8</ele>
        <time>2016-05-06T16:51:36Z</time>
      </trkpt>
      <trkpt lat="45.62744" lon="6.86709">
        <ele>1872.5</ele>
        <time>2016-05-06T16:51:38Z</time>
      </trkpt>
      <trkpt lat="45.62741" lon="6.86705">
        <ele>1872.1</ele>
        <time>2016-05-06T16:51:40Z</time>
      </trkpt>
      <trkpt lat="45.62737" lon="6.86704">
        <ele>1871.8</ele>
        <time>2016-05-06T16:51:42Z</time>
      </trkpt>
      <trkpt lat="45.62726" lon="6.86706">
        <ele>1871</ele>
        <time>2016-05-06T16:51:44Z</time>
      </trkpt>
      <trkpt lat="45.62716" lon="6.86703">
        <ele>1870.2</ele>
        <time>2016-05-06T16:51:46Z</time>
      </trkpt>
      <trkpt lat="45.62708" lon="6.86698">
        <ele>1869.2</ele>
        <time>2016-05-06T16:51:48Z</time>
      </trkpt>
      <trkpt lat="45.62699" lon="6.86697">
        <ele>1868.2</ele>
        <time>2016-05-06T16:51:50Z</time>
      </trkpt>
      <trkpt lat="45.62692" lon="6.86696">
        <ele>1867.1</ele>
        <time>2016-05-06T16:51:52Z</time>
      </trkpt>
      <trkpt lat="45.62688" lon="6.86697">
        <ele>1866.2</ele>
        <time>2016-05-06T16:51:54Z</time>
      </trkpt>
      <trkpt lat="45.62683" lon="6.86698">
        <ele>1865.5</ele>
        <time>2016-05-06T16:51:56Z</time>
      </trkpt>
      <trkpt lat="45.62678" lon="6.86695">
        <ele>1864</ele>
        <time>2016-05-06T16:51:59Z</time>
      </trkpt>
      <trkpt lat="45.62677" lon="6.86694">
        <ele>1864.8</ele>
        <time>2016-05-06T16:52:02Z</time>
      </trkpt>
      <trkpt lat="45.62676" lon="6.86694">
        <ele>1864.7</ele>
        <time>2016-05-06T16:52:04Z</time>
      </trkpt>
      <trkpt lat="45.62676" lon="6.86694">
        <ele>1863.8</ele>
        <time>2016-05-06T16:52:06Z</time>
      </trkpt>
      <trkpt lat="45.62677" lon="6.86697">
        <ele>1863.7</ele>
        <time>2016-05-06T16:52:08Z</time>
      </trkpt>
      <trkpt lat="45.62677" lon="6.867">
        <ele>1863.9</ele>
        <time>2016-05-06T16:52:10Z</time>
      </trkpt>
      <trkpt lat="45.62675" lon="6.86701">
        <ele>1864.1</ele>
        <time>2016-05-06T16:52:12Z</time>
      </trkpt>
      <trkpt lat="45.62673" lon="6.86701">
        <ele>1864</ele>
        <time>2016-05-06T16:52:14Z</time>
      </trkpt>
      <trkpt lat="45.62671" lon="6.867">
        <ele>1863.8</ele>
        <time>2016-05-06T16:52:16Z</time>
      </trkpt>
      <trkpt lat="45.62672" lon="6.86699">
        <ele>1863.7</ele>
        <time>2016-05-06T16:52:18Z</time>
      </trkpt>
      <trkpt lat="45.62672" lon="6.867">
        <ele>1863.6</ele>
        <time>2016-05-06T16:52:20Z</time>
      </trkpt>
      <trkpt lat="45.62671" lon="6.867">
        <ele>1863.7</ele>
        <time>2016-05-06T16:52:22Z</time>
      </trkpt>
      <trkpt lat="45.62671" lon="6.867">
        <ele>1863.9</ele>
        <time>2016-05-06T16:52:24Z</time>
      </trkpt>
      <trkpt lat="45.6267" lon="6.86701">
        <ele>1863.9</ele>
        <time>2016-05-06T16:52:26Z</time>
      </trkpt>
      <trkpt lat="45.6267" lon="6.86702">
        <ele>1863.7</ele>
        <time>2016-05-06T16:52:28Z</time>
      </trkpt>
      <trkpt lat="45.62669" lon="6.86704">
        <ele>1863.7</ele>
        <time>2016-05-06T16:52:30Z</time>
      </trkpt>
      <trkpt lat="45.62667" lon="6.86705">
        <ele>1863.7</ele>
        <time>2016-05-06T16:52:32Z</time>
      </trkpt>
      <trkpt lat="45.62668" lon="6.86704">
        <ele>1863.3</ele>
        <time>2016-05-06T16:52:34Z</time>
      </trkpt>
      <trkpt lat="45.62667" lon="6.86701">
        <ele>1863.5</ele>
        <time>2016-05-06T16:52:36Z</time>
      </trkpt>
      <trkpt lat="45.62666" lon="6.867">
        <ele>1863.6</ele>
        <time>2016-05-06T16:52:38Z</time>
      </trkpt>
      <trkpt lat="45.62667" lon="6.86699">
        <ele>1863.6</ele>
        <time>2016-05-06T16:52:40Z</time>
      </trkpt>
      <trkpt lat="45.62667" lon="6.86699">
        <ele>1863</ele>
        <time>2016-05-06T16:52:42Z</time>
      </trkpt>
      <trkpt lat="45.62667" lon="6.86699">
        <ele>1863.3</ele>
        <time>2016-05-06T16:52:44Z</time>
      </trkpt>
      <trkpt lat="45.62667" lon="6.86699">
        <ele>1863.4</ele>
        <time>2016-05-06T16:52:46Z</time>
      </trkpt>
      <trkpt lat="45.62667" lon="6.86699">
        <ele>1863.4</ele>
        <time>2016-05-06T16:52:48Z</time>
      </trkpt>
      <trkpt lat="45.62667" lon="6.86699">
        <ele>1863.5</ele>
        <time>2016-05-06T16:52:50Z</time>
      </trkpt>
      <trkpt lat="45.62667" lon="6.86699">
        <ele>1863.5</ele>
        <time>2016-05-06T16:52:52Z</time>
      </trkpt>
      <trkpt lat="45.62668" lon="6.86698">
        <ele>1863.5</ele>
        <time>2016-05-06T16:52:54Z</time>
      </trkpt>
      <trkpt lat="45.62669" lon="6.86696">
        <ele>1863.4</ele>
        <time>2016-05-06T16:52:56Z</time>
      </trkpt>
      <trkpt lat="45.6267" lon="6.86694">
        <ele>1863.4</ele>
        <time>2016-05-06T16:52:58Z</time>
      </trkpt>
      <trkpt lat="45.6267" lon="6.86694">
        <ele>1863.3</ele>
        <time>2016-05-06T16:53:00Z</time>
      </trkpt>
      <trkpt lat="45.62671" lon="6.86697">
        <ele>1863.3</ele>
        <time>2016-05-06T16:53:02Z</time>
      </trkpt>
      <trkpt lat="45.6267" lon="6.86696">
        <ele>1863.3</ele>
        <time>2016-05-06T16:53:04Z</time>
      </trkpt>
      <trkpt lat="45.62669" lon="6.86696">
        <ele>1863.4</ele>
        <time>2016-05-06T16:53:06Z</time>
      </trkpt>
      <trkpt lat="45.62669" lon="6.86696">
        <ele>1863.5</ele>
        <time>2016-05-06T16:53:08Z</time>
      </trkpt>
      <trkpt lat="45.62669" lon="6.86697">
        <ele>1862</ele>
        <time>2016-05-06T16:53:10Z</time>
      </trkpt>
      <trkpt lat="45.62668" lon="6.86697">
        <ele>1862.6</ele>
        <time>2016-05-06T16:53:13Z</time>
      </trkpt>
      <trkpt lat="45.62668" lon="6.86697">
        <ele>1862.1</ele>
        <time>2016-05-06T16:53:15Z</time>
      </trkpt>
      <trkpt lat="45.62667" lon="6.86696">
        <ele>1863</ele>
        <time>2016-05-06T16:53:17Z</time>
      </trkpt>
      <trkpt lat="45.62667" lon="6.86696">
        <ele>1863.5</ele>
        <time>2016-05-06T16:53:19Z</time>
      </trkpt>
      <trkpt lat="45.62668" lon="6.86696">
        <ele>1863.6</ele>
        <time>2016-05-06T16:53:21Z</time>
      </trkpt>
      <trkpt lat="45.62667" lon="6.86696">
        <ele>1863.4</ele>
        <time>2016-05-06T16:53:23Z</time>
      </trkpt>
      <trkpt lat="45.62667" lon="6.86698">
        <ele>1863.2</ele>
        <time>2016-05-06T16:53:25Z</time>
      </trkpt>
      <trkpt lat="45.62667" lon="6.86697">
        <ele>1863.1</ele>
        <time>2016-05-06T16:53:27Z</time>
      </trkpt>
      <trkpt lat="45.62667" lon="6.86697">
        <ele>1863.1</ele>
        <time>2016-05-06T16:53:29Z</time>
      </trkpt>
      <trkpt lat="45.62667" lon="6.86696">
        <ele>1863.1</ele>
        <time>2016-05-06T16:53:31Z</time>
      </trkpt>
      <trkpt lat="45.62667" lon="6.86696">
        <ele>1863.1</ele>
        <time>2016-05-06T16:53:33Z</time>
      </trkpt>
      <trkpt lat="45.62667" lon="6.86697">
        <ele>1863.1</ele>
        <time>2016-05-06T16:53:35Z</time>
      </trkpt>
      <trkpt lat="45.62667" lon="6.86698">
        <ele>1863</ele>
        <time>2016-05-06T16:53:37Z</time>
      </trkpt>
      <trkpt lat="45.62667" lon="6.86698">
        <ele>1862.6</ele>
        <time>2016-05-06T16:53:39Z</time>
      </trkpt>
      <trkpt lat="45.62667" lon="6.86698">
        <ele>1862</ele>
        <time>2016-05-06T16:53:41Z</time>
      </trkpt>
      <trkpt lat="45.62667" lon="6.86699">
        <ele>1862.9</ele>
        <time>2016-05-06T16:53:43Z</time>
      </trkpt>
      <trkpt lat="45.62667" lon="6.86698">
        <ele>1863.1</ele>
        <time>2016-05-06T16:53:45Z</time>
      </trkpt>
      <trkpt lat="45.62667" lon="6.86699">
        <ele>1862.8</ele>
        <time>2016-05-06T16:53:47Z</time>
      </trkpt>
      <trkpt lat="45.62667" lon="6.86699">
        <ele>1863</ele>
        <time>2016-05-06T16:53:49Z</time>
      </trkpt>
      <trkpt lat="45.62666" lon="6.86699">
        <ele>1863</ele>
        <time>2016-05-06T16:53:51Z</time>
      </trkpt>
      <trkpt lat="45.62666" lon="6.867">
        <ele>1863.2</ele>
        <time>2016-05-06T16:53:53Z</time>
      </trkpt>
      <trkpt lat="45.62666" lon="6.867">
        <ele>1863.3</ele>
        <time>2016-05-06T16:53:55Z</time>
      </trkpt>
      <trkpt lat="45.62667" lon="6.86701">
        <ele>1863.3</ele>
        <time>2016-05-06T16:53:57Z</time>
      </trkpt>
      <trkpt lat="45.62668" lon="6.86702">
        <ele>1863.2</ele>
        <time>2016-05-06T16:53:59Z</time>
      </trkpt>
      <trkpt lat="45.62668" lon="6.867">
        <ele>1863.2</ele>
        <time>2016-05-06T16:54:01Z</time>
      </trkpt>
      <trkpt lat="45.62669" lon="6.86698">
        <ele>1863.2</ele>
        <time>2016-05-06T16:54:03Z</time>
      </trkpt>
      <trkpt lat="45.6267" lon="6.86697">
        <ele>1863.2</ele>
        <time>2016-05-06T16:54:05Z</time>
      </trkpt>
      <trkpt lat="45.6267" lon="6.86697">
        <ele>1863.4</ele>
        <time>2016-05-06T16:54:07Z</time>
      </trkpt>
      <trkpt lat="45.62668" lon="6.86697">
        <ele>1863.5</ele>
        <time>2016-05-06T16:54:09Z</time>
      </trkpt>
      <trkpt lat="45.62668" lon="6.86696">
        <ele>1863.4</ele>
        <time>2016-05-06T16:54:11Z</time>
      </trkpt>
      <trkpt lat="45.62668" lon="6.86696">
        <ele>1863.7</ele>
        <time>2016-05-06T16:54:13Z</time>
      </trkpt>
      <trkpt lat="45.62668" lon="6.86697">
        <ele>1863.7</ele>
        <time>2016-05-06T16:54:15Z</time>
      </trkpt>
      <trkpt lat="45.62669" lon="6.86696">
        <ele>1863.7</ele>
        <time>2016-05-06T16:54:17Z</time>
      </trkpt>
      <trkpt lat="45.62671" lon="6.86696">
        <ele>1863.6</ele>
        <time>2016-05-06T16:54:19Z</time>
      </trkpt>
      <trkpt lat="45.6267" lon="6.86696">
        <ele>1863.5</ele>
        <time>2016-05-06T16:54:21Z</time>
      </trkpt>
      <trkpt lat="45.6267" lon="6.86697">
        <ele>1863.4</ele>
        <time>2016-05-06T16:54:23Z</time>
      </trkpt>
      <trkpt lat="45.6267" lon="6.86698">
        <ele>1863.3</ele>
        <time>2016-05-06T16:54:25Z</time>
      </trkpt>
      <trkpt lat="45.62668" lon="6.86698">
        <ele>1863</ele>
        <time>2016-05-06T16:54:28Z</time>
      </trkpt>
      <trkpt lat="45.62667" lon="6.86698">
        <ele>1863.3</ele>
        <time>2016-05-06T16:54:31Z</time>
      </trkpt>
      <trkpt lat="45.62667" lon="6.86698">
        <ele>1863.2</ele>
        <time>2016-05-06T16:54:33Z</time>
      </trkpt>
      <trkpt lat="45.62667" lon="6.86698">
        <ele>1863.2</ele>
        <time>2016-05-06T16:54:35Z</time>
      </trkpt>
      <trkpt lat="45.62668" lon="6.86696">
        <ele>1863.3</ele>
        <time>2016-05-06T16:54:37Z</time>
      </trkpt>
      <trkpt lat="45.62669" lon="6.86698">
        <ele>1863.3</ele>
        <time>2016-05-06T16:54:39Z</time>
      </trkpt>
      <trkpt lat="45.62669" lon="6.86698">
        <ele>1863.4</ele>
        <time>2016-05-06T16:54:41Z</time>
      </trkpt>
      <trkpt lat="45.62669" lon="6.86698">
        <ele>1863</ele>
        <time>2016-05-06T16:54:43Z</time>
      </trkpt>
      <trkpt lat="45.62668" lon="6.86698">
        <ele>1863.7</ele>
        <time>2016-05-06T16:54:46Z</time>
      </trkpt>
      <trkpt lat="45.62669" lon="6.86697">
        <ele>1863.7</ele>
        <time>2016-05-06T16:54:48Z</time>
      </trkpt>
      <trkpt lat="45.62669" lon="6.86697">
        <ele>1863.7</ele>
        <time>2016-05-06T16:54:50Z</time>
      </trkpt>
      <trkpt lat="45.62667" lon="6.86696">
        <ele>1863.6</ele>
        <time>2016-05-06T16:54:52Z</time>
      </trkpt>
      <trkpt lat="45.62667" lon="6.86697">
        <ele>1863.5</ele>
        <time>2016-05-06T16:54:54Z</time>
      </trkpt>
      <trkpt lat="45.62667" lon="6.86697">
        <ele>1863.6</ele>
        <time>2016-05-06T16:54:56Z</time>
      </trkpt>
      <trkpt lat="45.62668" lon="6.86697">
        <ele>1863.8</ele>
        <time>2016-05-06T16:54:58Z</time>
      </trkpt>
      <trkpt lat="45.62668" lon="6.86698">
        <ele>1863.7</ele>
        <time>2016-05-06T16:55:00Z</time>
      </trkpt>
      <trkpt lat="45.62667" lon="6.86698">
        <ele>1863.7</ele>
        <time>2016-05-06T16:55:02Z</time>
      </trkpt>
      <trkpt lat="45.62666" lon="6.86699">
        <ele>1863.5</ele>
        <time>2016-05-06T16:55:04Z</time>
      </trkpt>
      <trkpt lat="45.62666" lon="6.86699">
        <ele>1863.4</ele>
        <time>2016-05-06T16:55:06Z</time>
      </trkpt>
      <trkpt lat="45.62665" lon="6.86699">
        <ele>1862.2</ele>
        <time>2016-05-06T16:55:08Z</time>
      </trkpt>
      <trkpt lat="45.62665" lon="6.86699">
        <ele>1863.2</ele>
        <time>2016-05-06T16:55:10Z</time>
      </trkpt>
      <trkpt lat="45.62665" lon="6.86698">
        <ele>1863.6</ele>
        <time>2016-05-06T16:55:12Z</time>
      </trkpt>
      <trkpt lat="45.62665" lon="6.86697">
        <ele>1863.6</ele>
        <time>2016-05-06T16:55:14Z</time>
      </trkpt>
      <trkpt lat="45.62663" lon="6.86698">
        <ele>1863.3</ele>
        <time>2016-05-06T16:55:16Z</time>
      </trkpt>
      <trkpt lat="45.62664" lon="6.86698">
        <ele>1863.3</ele>
        <time>2016-05-06T16:55:18Z</time>
      </trkpt>
      <trkpt lat="45.62664" lon="6.86698">
        <ele>1863.4</ele>
        <time>2016-05-06T16:55:20Z</time>
      </trkpt>
      <trkpt lat="45.62664" lon="6.86698">
        <ele>1863.4</ele>
        <time>2016-05-06T16:55:22Z</time>
      </trkpt>
      <trkpt lat="45.62664" lon="6.86698">
        <ele>1863.4</ele>
        <time>2016-05-06T16:55:24Z</time>
      </trkpt>
      <trkpt lat="45.62664" lon="6.86699">
        <ele>1863.5</ele>
        <time>2016-05-06T16:55:26Z</time>
      </trkpt>
      <trkpt lat="45.62664" lon="6.86699">
        <ele>1863.5</ele>
        <time>2016-05-06T16:55:28Z</time>
      </trkpt>
      <trkpt lat="45.62664" lon="6.86699">
        <ele>1863.5</ele>
        <time>2016-05-06T16:55:30Z</time>
      </trkpt>
      <trkpt lat="45.62664" lon="6.86699">
        <ele>1863.5</ele>
        <time>2016-05-06T16:55:32Z</time>
      </trkpt>
      <trkpt lat="45.62664" lon="6.86699">
        <ele>1863.5</ele>
        <time>2016-05-06T16:55:34Z</time>
      </trkpt>
      <trkpt lat="45.62664" lon="6.86699">
        <ele>1863.4</ele>
        <time>2016-05-06T16:55:36Z</time>
      </trkpt>
      <trkpt lat="45.62664" lon="6.867">
        <ele>1863.3</ele>
        <time>2016-05-06T16:55:38Z</time>
      </trkpt>
      <trkpt lat="45.62665" lon="6.86698">
        <ele>1863.4</ele>
        <time>2016-05-06T16:55:40Z</time>
      </trkpt>
      <trkpt lat="45.62667" lon="6.86698">
        <ele>1863.4</ele>
        <time>2016-05-06T16:55:42Z</time>
      </trkpt>
      <trkpt lat="45.62667" lon="6.86699">
        <ele>1863.4</ele>
        <time>2016-05-06T16:55:44Z</time>
      </trkpt>
      <trkpt lat="45.62667" lon="6.86698">
        <ele>1863.4</ele>
        <time>2016-05-06T16:55:46Z</time>
      </trkpt>
      <trkpt lat="45.62668" lon="6.86698">
        <ele>1863.5</ele>
        <time>2016-05-06T16:55:48Z</time>
      </trkpt>
      <trkpt lat="45.62668" lon="6.86698">
        <ele>1863.5</ele>
        <time>2016-05-06T16:55:50Z</time>
      </trkpt>
      <trkpt lat="45.62668" lon="6.86698">
        <ele>1863.5</ele>
        <time>2016-05-06T16:55:52Z</time>
      </trkpt>
      <trkpt lat="45.62668" lon="6.86698">
        <ele>1863.5</ele>
        <time>2016-05-06T16:55:54Z</time>
      </trkpt>
      <trkpt lat="45.62668" lon="6.86698">
        <ele>1863.5</ele>
        <time>2016-05-06T16:55:56Z</time>
      </trkpt>
      <trkpt lat="45.62668" lon="6.86697">
        <ele>1863.5</ele>
        <time>2016-05-06T16:55:58Z</time>
      </trkpt>
      <trkpt lat="45.62668" lon="6.86697">
        <ele>1863.5</ele>
        <time>2016-05-06T16:56:00Z</time>
      </trkpt>
      <trkpt lat="45.62668" lon="6.86697">
        <ele>1863.5</ele>
        <time>2016-05-06T16:56:02Z</time>
      </trkpt>
      <trkpt lat="45.62668" lon="6.86698">
        <ele>1863.6</ele>
        <time>2016-05-06T16:56:04Z</time>
      </trkpt>
      <trkpt lat="45.62667" lon="6.86698">
        <ele>1863.7</ele>
        <time>2016-05-06T16:56:06Z</time>
      </trkpt>
      <trkpt lat="45.62667" lon="6.86699">
        <ele>1863.7</ele>
        <time>2016-05-06T16:56:08Z</time>
      </trkpt>
      <trkpt lat="45.62667" lon="6.86699">
        <ele>1863.8</ele>
        <time>2016-05-06T16:56:10Z</time>
      </trkpt>
      <trkpt lat="45.62667" lon="6.86699">
        <ele>1863.9</ele>
        <time>2016-05-06T16:56:12Z</time>
      </trkpt>
      <trkpt lat="45.62667" lon="6.86699">
        <ele>1863.9</ele>
        <time>2016-05-06T16:56:14Z</time>
      </trkpt>
      <trkpt lat="45.62667" lon="6.86698">
        <ele>1863.9</ele>
        <time>2016-05-06T16:56:16Z</time>
      </trkpt>
      <trkpt lat="45.62668" lon="6.86697">
        <ele>1863.9</ele>
        <time>2016-05-06T16:56:18Z</time>
      </trkpt>
      <trkpt lat="45.62668" lon="6.86697">
        <ele>1863.8</ele>
        <time>2016-05-06T16:56:20Z</time>
      </trkpt>
      <trkpt lat="45.62669" lon="6.86697">
        <ele>1863.9</ele>
        <time>2016-05-06T16:56:22Z</time>
      </trkpt>
      <trkpt lat="45.62669" lon="6.86697">
        <ele>1864.2</ele>
        <time>2016-05-06T16:56:24Z</time>
      </trkpt>
      <trkpt lat="45.62669" lon="6.86698">
        <ele>1864.2</ele>
        <time>2016-05-06T16:56:26Z</time>
      </trkpt>
      <trkpt lat="45.6267" lon="6.86698">
        <ele>1864.2</ele>
        <time>2016-05-06T16:56:28Z</time>
      </trkpt>
      <trkpt lat="45.6267" lon="6.86698">
        <ele>1864.1</ele>
        <time>2016-05-06T16:56:30Z</time>
      </trkpt>
      <trkpt lat="45.6267" lon="6.86698">
        <ele>1864</ele>
        <time>2016-05-06T16:56:32Z</time>
      </trkpt>
      <trkpt lat="45.62669" lon="6.86699">
        <ele>1864</ele>
        <time>2016-05-06T16:56:34Z</time>
      </trkpt>
      <trkpt lat="45.62669" lon="6.867">
        <ele>1864</ele>
        <time>2016-05-06T16:56:36Z</time>
      </trkpt>
      <trkpt lat="45.62669" lon="6.867">
        <ele>1861.9</ele>
        <time>2016-05-06T16:56:38Z</time>
      </trkpt>
      <trkpt lat="45.62669" lon="6.867">
        <ele>1861.7</ele>
        <time>2016-05-06T16:56:40Z</time>
      </trkpt>
      <trkpt lat="45.62669" lon="6.867">
        <ele>1863.1</ele>
        <time>2016-05-06T16:56:42Z</time>
      </trkpt>
      <trkpt lat="45.62669" lon="6.867">
        <ele>1862.9</ele>
        <time>2016-05-06T16:56:44Z</time>
      </trkpt>
      <trkpt lat="45.62669" lon="6.867">
        <ele>1863.7</ele>
        <time>2016-05-06T16:56:46Z</time>
      </trkpt>
      <trkpt lat="45.62669" lon="6.867">
        <ele>1864.1</ele>
        <time>2016-05-06T16:56:48Z</time>
      </trkpt>
      <trkpt lat="45.6267" lon="6.86699">
        <ele>1864.2</ele>
        <time>2016-05-06T16:56:50Z</time>
      </trkpt>
      <trkpt lat="45.62671" lon="6.867">
        <ele>1864</ele>
        <time>2016-05-06T16:56:52Z</time>
      </trkpt>
      <trkpt lat="45.62671" lon="6.86701">
        <ele>1863.9</ele>
        <time>2016-05-06T16:56:54Z</time>
      </trkpt>
      <trkpt lat="45.62671" lon="6.86702">
        <ele>1863.8</ele>
        <time>2016-05-06T16:56:56Z</time>
      </trkpt>
      <trkpt lat="45.62671" lon="6.86702">
        <ele>1863.7</ele>
        <time>2016-05-06T16:56:58Z</time>
      </trkpt>
      <trkpt lat="45.62671" lon="6.86702">
        <ele>1863.7</ele>
        <time>2016-05-06T16:56:58Z</time>
      </trkpt>
      <trkpt lat="45.62671" lon="6.86702">
        <ele>1863.7</ele>
        <time>2016-05-06T16:56:58Z</time>
      </trkpt>
    </trkseg>
  </trk>
</gpx>